<?xml version="1.0" encoding="UTF-8" standalone="no" ?>
<gpx xmlns="http://www.topografix.com/GPX/1/1" xmlns:xsi="http://www.w3.org/2001/XMLSchema-instance" xsi:schemaLocation="http://www.topografix.com/GPX/1/1 http://www.topografix.com/GPX/1/1/gpx.xsd" version="1.1" creator="VisuGPX - https://www.visugpx.com">
  <metadata>
    <name>Prévisionnel en Transcaucasie</name>
    <desc><![CDATA[Prévisionnel en Transcaucasie]]></desc>
  </metadata>
  <trk>
    <name><![CDATA[Tour d'Arménie]]></name>
    <extensions>
      <line xmlns="http://www.topografix.com/GPX/gpx_style/0/2">
        <color>FF0000</color>
        <width>4</width>
      </line>
    </extensions>
    <trkseg>
      <trkpt lat="41.19838" lon="44.55081">
        <ele>1098.34218</ele>
        <time>2021-08-12T11:06:42.045Z</time>
      </trkpt>
      <trkpt lat="41.19838" lon="44.55081">
        <ele>1098.34218</ele>
        <time>2021-08-12T11:06:42.045Z</time>
      </trkpt>
      <trkpt lat="41.19835" lon="44.55078">
        <ele>1098.34218</ele>
        <time>2021-08-12T11:06:44.352Z</time>
      </trkpt>
      <trkpt lat="41.19756" lon="44.55041">
        <ele>1098.34218</ele>
        <time>2021-08-12T11:07:34.759Z</time>
      </trkpt>
      <trkpt lat="41.19742" lon="44.55028">
        <ele>1098.599315</ele>
        <time>2021-08-12T11:07:46.069Z</time>
      </trkpt>
      <trkpt lat="41.19732" lon="44.55019">
        <ele>1098.807028</ele>
        <time>2021-08-12T11:07:52.966Z</time>
      </trkpt>
      <trkpt lat="41.19714" lon="44.5499">
        <ele>1099.307054</ele>
        <time>2021-08-12T11:08:10.665Z</time>
      </trkpt>
      <trkpt lat="41.19689" lon="44.54946">
        <ele>1100.050779</ele>
        <time>2021-08-12T11:08:36.823Z</time>
      </trkpt>
      <trkpt lat="41.19666" lon="44.54907">
        <ele>1100.713521</ele>
        <time>2021-08-12T11:08:59.644Z</time>
      </trkpt>
      <trkpt lat="41.19594" lon="44.54867">
        <ele>1102.359177</ele>
        <time>2021-08-12T11:09:47.746Z</time>
      </trkpt>
      <trkpt lat="41.19531" lon="44.54802">
        <ele>1104.378699</ele>
        <time>2021-08-12T11:10:39.599Z</time>
      </trkpt>
      <trkpt lat="41.19496" lon="44.54733">
        <ele>1105.964842</ele>
        <time>2021-08-12T11:11:22.750Z</time>
      </trkpt>
      <trkpt lat="41.19365" lon="44.54603">
        <ele>1111.672806</ele>
        <time>2021-08-12T11:13:20.236Z</time>
      </trkpt>
      <trkpt lat="41.19292" lon="44.54526">
        <ele>1115.200373</ele>
        <time>2021-08-12T11:14:27.810Z</time>
      </trkpt>
      <trkpt lat="41.19244" lon="44.54482">
        <ele>1117.430385</ele>
        <time>2021-08-12T11:15:09.615Z</time>
      </trkpt>
      <trkpt lat="41.19219" lon="44.54459">
        <ele>1118.623359</ele>
        <time>2021-08-12T11:15:33.702Z</time>
      </trkpt>
      <trkpt lat="41.19178" lon="44.54418">
        <ele>1120.705659</ele>
        <time>2021-08-12T11:16:12.142Z</time>
      </trkpt>
      <trkpt lat="41.19111" lon="44.54352">
        <ele>1124.193635</ele>
        <time>2021-08-12T11:17:14.531Z</time>
      </trkpt>
      <trkpt lat="41.19109" lon="44.5435">
        <ele>1124.272061</ele>
        <time>2021-08-12T11:17:16.565Z</time>
      </trkpt>
      <trkpt lat="41.19108" lon="44.54349">
        <ele>1124.345928</ele>
        <time>2021-08-12T11:17:19.050Z</time>
      </trkpt>
      <trkpt lat="41.19083" lon="44.54333">
        <ele>1125.492514</ele>
        <time>2021-08-12T11:17:37.847Z</time>
      </trkpt>
      <trkpt lat="41.19046" lon="44.54267">
        <ele>1128.187292</ele>
        <time>2021-08-12T11:18:25.451Z</time>
      </trkpt>
      <trkpt lat="41.19032" lon="44.54231">
        <ele>1129.539092</ele>
        <time>2021-08-12T11:18:49.000Z</time>
      </trkpt>
      <trkpt lat="41.18958" lon="44.54165">
        <ele>1133.528979</ele>
        <time>2021-08-12T11:19:57.458Z</time>
      </trkpt>
      <trkpt lat="41.18933" lon="44.54156">
        <ele>1134.64248</ele>
        <time>2021-08-12T11:20:16.772Z</time>
      </trkpt>
      <trkpt lat="41.1889" lon="44.54117">
        <ele>1137.231336</ele>
        <time>2021-08-12T11:20:58.161Z</time>
      </trkpt>
      <trkpt lat="41.18863" lon="44.54024">
        <ele>1141.022211</ele>
        <time>2021-08-12T11:21:58.762Z</time>
      </trkpt>
      <trkpt lat="41.18828" lon="44.53963">
        <ele>1143.894922</ele>
        <time>2021-08-12T11:22:45.420Z</time>
      </trkpt>
      <trkpt lat="41.1875" lon="44.53872">
        <ele>1148.87285</ele>
        <time>2021-08-12T11:24:09.382Z</time>
      </trkpt>
      <trkpt lat="41.18738" lon="44.53813">
        <ele>1151.092589</ele>
        <time>2021-08-12T11:24:45.898Z</time>
      </trkpt>
      <trkpt lat="41.18718" lon="44.53751">
        <ele>1153.210538</ele>
        <time>2021-08-12T11:25:23.674Z</time>
      </trkpt>
      <trkpt lat="41.1864" lon="44.53684">
        <ele>1156.256191</ele>
        <time>2021-08-12T11:26:30.087Z</time>
      </trkpt>
      <trkpt lat="41.18511" lon="44.53495">
        <ele>1162.771934</ele>
        <time>2021-08-12T11:28:37.171Z</time>
      </trkpt>
      <trkpt lat="41.18471" lon="44.53435">
        <ele>1165.086554</ele>
        <time>2021-08-12T11:29:24.569Z</time>
      </trkpt>
      <trkpt lat="41.1844" lon="44.53371">
        <ele>1169.258554</ele>
        <time>2021-08-12T11:30:14.637Z</time>
      </trkpt>
      <trkpt lat="41.18388" lon="44.53267">
        <ele>1176.108296</ele>
        <time>2021-08-12T11:31:46.251Z</time>
      </trkpt>
      <trkpt lat="41.18226" lon="44.53046">
        <ele>1195.334412</ele>
        <time>2021-08-12T11:35:37.984Z</time>
      </trkpt>
      <trkpt lat="41.18222" lon="44.53006">
        <ele>1197.801718</ele>
        <time>2021-08-12T11:36:07.635Z</time>
      </trkpt>
      <trkpt lat="41.18225" lon="44.52957">
        <ele>1200.763832</ele>
        <time>2021-08-12T11:36:43.159Z</time>
      </trkpt>
      <trkpt lat="41.18166" lon="44.52855">
        <ele>1208.60746</ele>
        <time>2021-08-12T11:38:16.422Z</time>
      </trkpt>
      <trkpt lat="41.18157" lon="44.52783">
        <ele>1213.146008</ele>
        <time>2021-08-12T11:39:09.717Z</time>
      </trkpt>
      <trkpt lat="41.18113" lon="44.52697">
        <ele>1219.609633</ele>
        <time>2021-08-12T11:40:28.796Z</time>
      </trkpt>
      <trkpt lat="41.18083" lon="44.52597">
        <ele>1225.980837</ele>
        <time>2021-08-12T11:41:47.545Z</time>
      </trkpt>
      <trkpt lat="41.18081" lon="44.52505">
        <ele>1231.184641</ele>
        <time>2021-08-12T11:42:52.530Z</time>
      </trkpt>
      <trkpt lat="41.18062" lon="44.52438">
        <ele>1235.277406</ele>
        <time>2021-08-12T11:43:42.454Z</time>
      </trkpt>
      <trkpt lat="41.18069" lon="44.52352">
        <ele>1239.277166</ele>
        <time>2021-08-12T11:44:42.540Z</time>
      </trkpt>
      <trkpt lat="41.1803" lon="44.5227">
        <ele>1243.577227</ele>
        <time>2021-08-12T11:45:46.494Z</time>
      </trkpt>
      <trkpt lat="41.18004" lon="44.5215">
        <ele>1247.428942</ele>
        <time>2021-08-12T11:46:58.130Z</time>
      </trkpt>
      <trkpt lat="41.17986" lon="44.51996">
        <ele>1249.646928</ele>
        <time>2021-08-12T11:48:09.210Z</time>
      </trkpt>
      <trkpt lat="41.18009" lon="44.51918">
        <ele>1250.271342</ele>
        <time>2021-08-12T11:48:39.023Z</time>
      </trkpt>
      <trkpt lat="41.18025" lon="44.51881">
        <ele>1250.463358</ele>
        <time>2021-08-12T11:48:55.409Z</time>
      </trkpt>
      <trkpt lat="41.18016" lon="44.51836">
        <ele>1250.671912</ele>
        <time>2021-08-12T11:49:14.109Z</time>
      </trkpt>
      <trkpt lat="41.17984" lon="44.51798">
        <ele>1250.929017</ele>
        <time>2021-08-12T11:49:38.438Z</time>
      </trkpt>
      <trkpt lat="41.1795" lon="44.51733">
        <ele>1252.552544</ele>
        <time>2021-08-12T11:50:16.584Z</time>
      </trkpt>
      <trkpt lat="41.17923" lon="44.51643">
        <ele>1255.738208</ele>
        <time>2021-08-12T11:51:10.084Z</time>
      </trkpt>
      <trkpt lat="41.17907" lon="44.51553">
        <ele>1258.764615</ele>
        <time>2021-08-12T11:52:09.156Z</time>
      </trkpt>
      <trkpt lat="41.17884" lon="44.51342">
        <ele>1270.723263</ele>
        <time>2021-08-12T11:54:39.325Z</time>
      </trkpt>
      <trkpt lat="41.17848" lon="44.5123">
        <ele>1278.993124</ele>
        <time>2021-08-12T11:56:13.318Z</time>
      </trkpt>
      <trkpt lat="41.17853" lon="44.51206">
        <ele>1280.753661</ele>
        <time>2021-08-12T11:56:32.887Z</time>
      </trkpt>
      <trkpt lat="41.17908" lon="44.51178">
        <ele>1286.422245</ele>
        <time>2021-08-12T11:57:37.540Z</time>
      </trkpt>
      <trkpt lat="41.1793" lon="44.51137">
        <ele>1290.009792</ele>
        <time>2021-08-12T11:58:18.581Z</time>
      </trkpt>
      <trkpt lat="41.17937" lon="44.51114">
        <ele>1291.891998</ele>
        <time>2021-08-12T11:58:38.745Z</time>
      </trkpt>
      <trkpt lat="41.17935" lon="44.51097">
        <ele>1293.200981</ele>
        <time>2021-08-12T11:58:52.775Z</time>
      </trkpt>
      <trkpt lat="41.17924" lon="44.51083">
        <ele>1294.770837</ele>
        <time>2021-08-12T11:59:09.442Z</time>
      </trkpt>
      <trkpt lat="41.17891" lon="44.51077">
        <ele>1298.148271</ele>
        <time>2021-08-12T11:59:45.019Z</time>
      </trkpt>
      <trkpt lat="41.17854" lon="44.51079">
        <ele>1301.808921</ele>
        <time>2021-08-12T12:00:23.968Z</time>
      </trkpt>
      <trkpt lat="41.17846" lon="44.51055">
        <ele>1303.839476</ele>
        <time>2021-08-12T12:00:45.675Z</time>
      </trkpt>
      <trkpt lat="41.17845" lon="44.51031">
        <ele>1305.65477</ele>
        <time>2021-08-12T12:01:05.325Z</time>
      </trkpt>
      <trkpt lat="41.17872" lon="44.50974">
        <ele>1311.19359</ele>
        <time>2021-08-12T12:02:01.567Z</time>
      </trkpt>
      <trkpt lat="41.17915" lon="44.50848">
        <ele>1323.161364</ele>
        <time>2021-08-12T12:04:01.500Z</time>
      </trkpt>
      <trkpt lat="41.17968" lon="44.50771">
        <ele>1332.194703</ele>
        <time>2021-08-12T12:05:40.144Z</time>
      </trkpt>
      <trkpt lat="41.18076" lon="44.50689">
        <ele>1346.465386</ele>
        <time>2021-08-12T12:08:06.613Z</time>
      </trkpt>
      <trkpt lat="41.18086" lon="44.50681">
        <ele>1347.908427</ele>
        <time>2021-08-12T12:08:21.958Z</time>
      </trkpt>
      <trkpt lat="41.18144" lon="44.5069">
        <ele>1352.175034</ele>
        <time>2021-08-12T12:09:19.821Z</time>
      </trkpt>
      <trkpt lat="41.18193" lon="44.5071">
        <ele>1355.472436</ele>
        <time>2021-08-12T12:10:07.233Z</time>
      </trkpt>
      <trkpt lat="41.18201" lon="44.50705">
        <ele>1356.052329</ele>
        <time>2021-08-12T12:10:14.086Z</time>
      </trkpt>
      <trkpt lat="41.18191" lon="44.50691">
        <ele>1357.021673</ele>
        <time>2021-08-12T12:10:25.394Z</time>
      </trkpt>
      <trkpt lat="41.18173" lon="44.50681">
        <ele>1358.306237</ele>
        <time>2021-08-12T12:10:41.398Z</time>
      </trkpt>
      <trkpt lat="41.18123" lon="44.50654">
        <ele>1361.401036</ele>
        <time>2021-08-12T12:11:18.185Z</time>
      </trkpt>
      <trkpt lat="41.18105" lon="44.50618">
        <ele>1362.776827</ele>
        <time>2021-08-12T12:11:42.264Z</time>
      </trkpt>
      <trkpt lat="41.18093" lon="44.50545">
        <ele>1365.106831</ele>
        <time>2021-08-12T12:12:24.754Z</time>
      </trkpt>
      <trkpt lat="41.18078" lon="44.50481">
        <ele>1367.209448</ele>
        <time>2021-08-12T12:13:02.704Z</time>
      </trkpt>
      <trkpt lat="41.18084" lon="44.50457">
        <ele>1367.992477</ele>
        <time>2021-08-12T12:13:18.041Z</time>
      </trkpt>
      <trkpt lat="41.18094" lon="44.50449">
        <ele>1368.59531</ele>
        <time>2021-08-12T12:13:26.229Z</time>
      </trkpt>
      <trkpt lat="41.18106" lon="44.50462">
        <ele>1369.586889</ele>
        <time>2021-08-12T12:13:38.983Z</time>
      </trkpt>
      <trkpt lat="41.18101" lon="44.50489">
        <ele>1370.871956</ele>
        <time>2021-08-12T12:13:54.929Z</time>
      </trkpt>
      <trkpt lat="41.18108" lon="44.50527">
        <ele>1372.735516</ele>
        <time>2021-08-12T12:14:19.714Z</time>
      </trkpt>
      <trkpt lat="41.18135" lon="44.50565">
        <ele>1375.251935</ele>
        <time>2021-08-12T12:14:54.606Z</time>
      </trkpt>
      <trkpt lat="41.18198" lon="44.50605">
        <ele>1379.661568</ele>
        <time>2021-08-12T12:15:58.917Z</time>
      </trkpt>
      <trkpt lat="41.18216" lon="44.50606">
        <ele>1381.459651</ele>
        <time>2021-08-12T12:16:16.809Z</time>
      </trkpt>
      <trkpt lat="41.18228" lon="44.50593">
        <ele>1382.942293</ele>
        <time>2021-08-12T12:16:32.029Z</time>
      </trkpt>
      <trkpt lat="41.18219" lon="44.50569">
        <ele>1384.926503</ele>
        <time>2021-08-12T12:16:52.414Z</time>
      </trkpt>
      <trkpt lat="41.18177" lon="44.50557">
        <ele>1389.07018</ele>
        <time>2021-08-12T12:17:36.448Z</time>
      </trkpt>
      <trkpt lat="41.18164" lon="44.50538">
        <ele>1390.967549</ele>
        <time>2021-08-12T12:17:57.390Z</time>
      </trkpt>
      <trkpt lat="41.18158" lon="44.50511">
        <ele>1393.021432</ele>
        <time>2021-08-12T12:18:20.816Z</time>
      </trkpt>
      <trkpt lat="41.18159" lon="44.50484">
        <ele>1394.975489</ele>
        <time>2021-08-12T12:18:43.791Z</time>
      </trkpt>
      <trkpt lat="41.18171" lon="44.50459">
        <ele>1397.176913</ele>
        <time>2021-08-12T12:19:10.459Z</time>
      </trkpt>
      <trkpt lat="41.18197" lon="44.50444">
        <ele>1400.848181</ele>
        <time>2021-08-12T12:19:45.418Z</time>
      </trkpt>
      <trkpt lat="41.18253" lon="44.50425">
        <ele>1408.223211</ele>
        <time>2021-08-12T12:20:57.335Z</time>
      </trkpt>
      <trkpt lat="41.18276" lon="44.50438">
        <ele>1411.404622</ele>
        <time>2021-08-12T12:21:28.903Z</time>
      </trkpt>
      <trkpt lat="41.18307" lon="44.50473">
        <ele>1416.581856</ele>
        <time>2021-08-12T12:22:19.926Z</time>
      </trkpt>
      <trkpt lat="41.18395" lon="44.50524">
        <ele>1428.696131</ele>
        <time>2021-08-12T12:24:20.738Z</time>
      </trkpt>
      <trkpt lat="41.18433" lon="44.50523">
        <ele>1433.498064</ele>
        <time>2021-08-12T12:25:08.197Z</time>
      </trkpt>
      <trkpt lat="41.18464" lon="44.50501">
        <ele>1437.893848</ele>
        <time>2021-08-12T12:25:50.699Z</time>
      </trkpt>
      <trkpt lat="41.18495" lon="44.50467">
        <ele>1442.794612</ele>
        <time>2021-08-12T12:26:37.009Z</time>
      </trkpt>
      <trkpt lat="41.18575" lon="44.50419">
        <ele>1453.17831</ele>
        <time>2021-08-12T12:28:19.400Z</time>
      </trkpt>
      <trkpt lat="41.18602" lon="44.50394">
        <ele>1457.039685</ele>
        <time>2021-08-12T12:28:58.191Z</time>
      </trkpt>
      <trkpt lat="41.18648" lon="44.50322">
        <ele>1465.373349</ele>
        <time>2021-08-12T12:30:22.636Z</time>
      </trkpt>
      <trkpt lat="41.18708" lon="44.50213">
        <ele>1477.325072</ele>
        <time>2021-08-12T12:32:27.033Z</time>
      </trkpt>
      <trkpt lat="41.18722" lon="44.50207">
        <ele>1479.068355</ele>
        <time>2021-08-12T12:32:44.365Z</time>
      </trkpt>
      <trkpt lat="41.18736" lon="44.50214">
        <ele>1480.832548</ele>
        <time>2021-08-12T12:33:01.839Z</time>
      </trkpt>
      <trkpt lat="41.18772" lon="44.50292">
        <ele>1487.743266</ele>
        <time>2021-08-12T12:34:18.943Z</time>
      </trkpt>
      <trkpt lat="41.18791" lon="44.50345">
        <ele>1491.389244</ele>
        <time>2021-08-12T12:35:04.558Z</time>
      </trkpt>
      <trkpt lat="41.18846" lon="44.5039">
        <ele>1496.680783</ele>
        <time>2021-08-12T12:36:06.106Z</time>
      </trkpt>
      <trkpt lat="41.1887" lon="44.50431">
        <ele>1499.819841</ele>
        <time>2021-08-12T12:36:40.053Z</time>
      </trkpt>
      <trkpt lat="41.18884" lon="44.50529">
        <ele>1503.473019</ele>
        <time>2021-08-12T12:37:38.392Z</time>
      </trkpt>
      <trkpt lat="41.18899" lon="44.5056">
        <ele>1504.832583</ele>
        <time>2021-08-12T12:38:00.096Z</time>
      </trkpt>
      <trkpt lat="41.18946" lon="44.50572">
        <ele>1507.208409</ele>
        <time>2021-08-12T12:38:38.327Z</time>
      </trkpt>
      <trkpt lat="41.18951" lon="44.50559">
        <ele>1507.716919</ele>
        <time>2021-08-12T12:38:46.551Z</time>
      </trkpt>
      <trkpt lat="41.18947" lon="44.50547">
        <ele>1508.19286</ele>
        <time>2021-08-12T12:38:54.089Z</time>
      </trkpt>
      <trkpt lat="41.1892" lon="44.50522">
        <ele>1509.51071</ele>
        <time>2021-08-12T12:39:19.647Z</time>
      </trkpt>
      <trkpt lat="41.18894" lon="44.50391">
        <ele>1513.36527</ele>
        <time>2021-08-12T12:40:35.209Z</time>
      </trkpt>
      <trkpt lat="41.18879" lon="44.50142">
        <ele>1519.135967</ele>
        <time>2021-08-12T12:42:43.979Z</time>
      </trkpt>
      <trkpt lat="41.18858" lon="44.5008">
        <ele>1520.603907</ele>
        <time>2021-08-12T12:43:17.030Z</time>
      </trkpt>
      <trkpt lat="41.18833" lon="44.50054">
        <ele>1521.594394</ele>
        <time>2021-08-12T12:43:37.781Z</time>
      </trkpt>
      <trkpt lat="41.18799" lon="44.49961">
        <ele>1523.974698</ele>
        <time>2021-08-12T12:44:30.138Z</time>
      </trkpt>
      <trkpt lat="41.18763" lon="44.49881">
        <ele>1526.207221</ele>
        <time>2021-08-12T12:45:20.541Z</time>
      </trkpt>
      <trkpt lat="41.18719" lon="44.49669">
        <ele>1533.172459</ele>
        <time>2021-08-12T12:47:28.965Z</time>
      </trkpt>
      <trkpt lat="41.18694" lon="44.49609">
        <ele>1533.853039</ele>
        <time>2021-08-12T12:48:05.826Z</time>
      </trkpt>
      <trkpt lat="41.18697" lon="44.49549">
        <ele>1534.277163</ele>
        <time>2021-08-12T12:48:34.565Z</time>
      </trkpt>
      <trkpt lat="41.18724" lon="44.4945">
        <ele>1535.01176</ele>
        <time>2021-08-12T12:49:14.638Z</time>
      </trkpt>
      <trkpt lat="41.18747" lon="44.4939">
        <ele>1533.744859</ele>
        <time>2021-08-12T12:49:35.810Z</time>
      </trkpt>
      <trkpt lat="41.18764" lon="44.49241">
        <ele>1529.924693</ele>
        <time>2021-08-12T12:50:21.214Z</time>
      </trkpt>
      <trkpt lat="41.18763" lon="44.49211">
        <ele>1529.166238</ele>
        <time>2021-08-12T12:50:30.070Z</time>
      </trkpt>
      <trkpt lat="41.18714" lon="44.49099">
        <ele>1528.462795</ele>
        <time>2021-08-12T12:51:11.635Z</time>
      </trkpt>
      <trkpt lat="41.18692" lon="44.49068">
        <ele>1528.255248</ele>
        <time>2021-08-12T12:51:27.447Z</time>
      </trkpt>
      <trkpt lat="41.18648" lon="44.48941">
        <ele>1530.967937</ele>
        <time>2021-08-12T12:52:37.848Z</time>
      </trkpt>
      <trkpt lat="41.18583" lon="44.48825">
        <ele>1537.463539</ele>
        <time>2021-08-12T12:54:15.591Z</time>
      </trkpt>
      <trkpt lat="41.18547" lon="44.4872">
        <ele>1544.867913</ele>
        <time>2021-08-12T12:55:47.297Z</time>
      </trkpt>
      <trkpt lat="41.1853" lon="44.48606">
        <ele>1553.080491</ele>
        <time>2021-08-12T12:57:23.078Z</time>
      </trkpt>
      <trkpt lat="41.1851" lon="44.48594">
        <ele>1555.051419</ele>
        <time>2021-08-12T12:57:45.235Z</time>
      </trkpt>
      <trkpt lat="41.18474" lon="44.48608">
        <ele>1557.363897</ele>
        <time>2021-08-12T12:58:22.142Z</time>
      </trkpt>
      <trkpt lat="41.1842" lon="44.48677">
        <ele>1561.731722</ele>
        <time>2021-08-12T12:59:27.450Z</time>
      </trkpt>
      <trkpt lat="41.18362" lon="44.48715">
        <ele>1565.456049</ele>
        <time>2021-08-12T13:00:14.834Z</time>
      </trkpt>
      <trkpt lat="41.18322" lon="44.48725">
        <ele>1567.471634</ele>
        <time>2021-08-12T13:00:42.877Z</time>
      </trkpt>
      <trkpt lat="41.18294" lon="44.48715">
        <ele>1568.85046</ele>
        <time>2021-08-12T13:01:02.938Z</time>
      </trkpt>
      <trkpt lat="41.18276" lon="44.48687">
        <ele>1570.171429</ele>
        <time>2021-08-12T13:01:22.445Z</time>
      </trkpt>
      <trkpt lat="41.18247" lon="44.48599">
        <ele>1573.575467</ele>
        <time>2021-08-12T13:02:20.308Z</time>
      </trkpt>
      <trkpt lat="41.18229" lon="44.48525">
        <ele>1578.639471</ele>
        <time>2021-08-12T13:03:17.123Z</time>
      </trkpt>
      <trkpt lat="41.18227" lon="44.48495">
        <ele>1580.922867</ele>
        <time>2021-08-12T13:03:40.930Z</time>
      </trkpt>
      <trkpt lat="41.18263" lon="44.48393">
        <ele>1589.58981</ele>
        <time>2021-08-12T13:05:19.947Z</time>
      </trkpt>
      <trkpt lat="41.18295" lon="44.48227">
        <ele>1603.332154</ele>
        <time>2021-08-12T13:07:53.336Z</time>
      </trkpt>
      <trkpt lat="41.18324" lon="44.48195">
        <ele>1607.404668</ele>
        <time>2021-08-12T13:08:34.896Z</time>
      </trkpt>
      <trkpt lat="41.18382" lon="44.48186">
        <ele>1613.255061</ele>
        <time>2021-08-12T13:09:35.417Z</time>
      </trkpt>
      <trkpt lat="41.18433" lon="44.48197">
        <ele>1617.37108</ele>
        <time>2021-08-12T13:10:26.568Z</time>
      </trkpt>
      <trkpt lat="41.18446" lon="44.48185">
        <ele>1618.631088</ele>
        <time>2021-08-12T13:10:41.310Z</time>
      </trkpt>
      <trkpt lat="41.18438" lon="44.48165">
        <ele>1619.981652</ele>
        <time>2021-08-12T13:10:57.038Z</time>
      </trkpt>
      <trkpt lat="41.18357" lon="44.48135">
        <ele>1626.690679</ele>
        <time>2021-08-12T13:12:11.326Z</time>
      </trkpt>
      <trkpt lat="41.18214" lon="44.48032">
        <ele>1642.987123</ele>
        <time>2021-08-12T13:15:05.274Z</time>
      </trkpt>
      <trkpt lat="41.18206" lon="44.48026">
        <ele>1643.858048</ele>
        <time>2021-08-12T13:15:19.268Z</time>
      </trkpt>
      <trkpt lat="41.18107" lon="44.47961">
        <ele>1657.241731</ele>
        <time>2021-08-12T13:17:35.765Z</time>
      </trkpt>
      <trkpt lat="41.18064" lon="44.47895">
        <ele>1665.324965</ele>
        <time>2021-08-12T13:18:57.151Z</time>
      </trkpt>
      <trkpt lat="41.18048" lon="44.47861">
        <ele>1668.204382</ele>
        <time>2021-08-12T13:19:31.078Z</time>
      </trkpt>
      <trkpt lat="41.18046" lon="44.47833">
        <ele>1669.988886</ele>
        <time>2021-08-12T13:19:53.770Z</time>
      </trkpt>
      <trkpt lat="41.18035" lon="44.47815">
        <ele>1671.466481</ele>
        <time>2021-08-12T13:20:11.978Z</time>
      </trkpt>
      <trkpt lat="41.1801" lon="44.47815">
        <ele>1673.617135</ele>
        <time>2021-08-12T13:20:37.617Z</time>
      </trkpt>
      <trkpt lat="41.17946" lon="44.47851">
        <ele>1679.475573</ele>
        <time>2021-08-12T13:21:41.385Z</time>
      </trkpt>
      <trkpt lat="41.17924" lon="44.47846">
        <ele>1681.373431</ele>
        <time>2021-08-12T13:22:00.845Z</time>
      </trkpt>
      <trkpt lat="41.17893" lon="44.47792">
        <ele>1685.42559</ele>
        <time>2021-08-12T13:22:46.131Z</time>
      </trkpt>
      <trkpt lat="41.17885" lon="44.47766">
        <ele>1687.039644</ele>
        <time>2021-08-12T13:23:04.280Z</time>
      </trkpt>
      <trkpt lat="41.17881" lon="44.47713">
        <ele>1690.184436</ele>
        <time>2021-08-12T13:23:41.280Z</time>
      </trkpt>
      <trkpt lat="41.17884" lon="44.47602">
        <ele>1697.287034</ele>
        <time>2021-08-12T13:25:06.782Z</time>
      </trkpt>
      <trkpt lat="41.17862" lon="44.47541">
        <ele>1703.432917</ele>
        <time>2021-08-12T13:26:05.013Z</time>
      </trkpt>
      <trkpt lat="41.17854" lon="44.4747">
        <ele>1710.001015</ele>
        <time>2021-08-12T13:27:12.334Z</time>
      </trkpt>
      <trkpt lat="41.17871" lon="44.47435">
        <ele>1713.790332</ele>
        <time>2021-08-12T13:27:52.572Z</time>
      </trkpt>
      <trkpt lat="41.17938" lon="44.47377">
        <ele>1723.481395</ele>
        <time>2021-08-12T13:29:35.353Z</time>
      </trkpt>
      <trkpt lat="41.17965" lon="44.47325">
        <ele>1729.352549</ele>
        <time>2021-08-12T13:30:34.846Z</time>
      </trkpt>
      <trkpt lat="41.17968" lon="44.47301">
        <ele>1731.586244</ele>
        <time>2021-08-12T13:30:56.723Z</time>
      </trkpt>
      <trkpt lat="41.17963" lon="44.47273">
        <ele>1734.235379</ele>
        <time>2021-08-12T13:31:21.977Z</time>
      </trkpt>
      <trkpt lat="41.17932" lon="44.47216">
        <ele>1740.334264</ele>
        <time>2021-08-12T13:32:21.142Z</time>
      </trkpt>
      <trkpt lat="41.17928" lon="44.47189">
        <ele>1742.178223</ele>
        <time>2021-08-12T13:32:44.371Z</time>
      </trkpt>
      <trkpt lat="41.17933" lon="44.47147">
        <ele>1744.991566</ele>
        <time>2021-08-12T13:33:18.854Z</time>
      </trkpt>
      <trkpt lat="41.17946" lon="44.47107">
        <ele>1747.847458</ele>
        <time>2021-08-12T13:33:52.238Z</time>
      </trkpt>
      <trkpt lat="41.17987" lon="44.47053">
        <ele>1752.838393</ele>
        <time>2021-08-12T13:34:46.707Z</time>
      </trkpt>
      <trkpt lat="41.18035" lon="44.47003">
        <ele>1757.625814</ele>
        <time>2021-08-12T13:35:41.909Z</time>
      </trkpt>
      <trkpt lat="41.18055" lon="44.46942">
        <ele>1761.234421</ele>
        <time>2021-08-12T13:36:26.865Z</time>
      </trkpt>
      <trkpt lat="41.1807" lon="44.46886">
        <ele>1764.493067</ele>
        <time>2021-08-12T13:37:08.042Z</time>
      </trkpt>
      <trkpt lat="41.1807" lon="44.46865">
        <ele>1765.609588</ele>
        <time>2021-08-12T13:37:22.750Z</time>
      </trkpt>
      <trkpt lat="41.18065" lon="44.46844">
        <ele>1766.824771</ele>
        <time>2021-08-12T13:37:38.117Z</time>
      </trkpt>
      <trkpt lat="41.17979" lon="44.46725">
        <ele>1775.607819</ele>
        <time>2021-08-12T13:39:39.490Z</time>
      </trkpt>
      <trkpt lat="41.17969" lon="44.46686">
        <ele>1777.824448</ele>
        <time>2021-08-12T13:40:08.165Z</time>
      </trkpt>
      <trkpt lat="41.17964" lon="44.46648">
        <ele>1779.893725</ele>
        <time>2021-08-12T13:40:33.494Z</time>
      </trkpt>
      <trkpt lat="41.17951" lon="44.46606">
        <ele>1781.102598</ele>
        <time>2021-08-12T13:41:00.290Z</time>
      </trkpt>
      <trkpt lat="41.17942" lon="44.46566">
        <ele>1781.511713</ele>
        <time>2021-08-12T13:41:24.053Z</time>
      </trkpt>
      <trkpt lat="41.17939" lon="44.46528">
        <ele>1781.873497</ele>
        <time>2021-08-12T13:41:41.366Z</time>
      </trkpt>
      <trkpt lat="41.17967" lon="44.46366">
        <ele>1782.89632</ele>
        <time>2021-08-12T13:42:42.422Z</time>
      </trkpt>
      <trkpt lat="41.17981" lon="44.46286">
        <ele>1782.304389</ele>
        <time>2021-08-12T13:43:08.771Z</time>
      </trkpt>
      <trkpt lat="41.18002" lon="44.46209">
        <ele>1781.716122</ele>
        <time>2021-08-12T13:43:38.704Z</time>
      </trkpt>
      <trkpt lat="41.18029" lon="44.46155">
        <ele>1781.552532</ele>
        <time>2021-08-12T13:44:04.718Z</time>
      </trkpt>
      <trkpt lat="41.18071" lon="44.46106">
        <ele>1781.951995</ele>
        <time>2021-08-12T13:44:36.041Z</time>
      </trkpt>
      <trkpt lat="41.18144" lon="44.46069">
        <ele>1782.505621</ele>
        <time>2021-08-12T13:45:23.004Z</time>
      </trkpt>
      <trkpt lat="41.1816" lon="44.46042">
        <ele>1782.689755</ele>
        <time>2021-08-12T13:45:38.021Z</time>
      </trkpt>
      <trkpt lat="41.18179" lon="44.45984">
        <ele>1781.223101</ele>
        <time>2021-08-12T13:46:02.677Z</time>
      </trkpt>
      <trkpt lat="41.18222" lon="44.45925">
        <ele>1779.222716</ele>
        <time>2021-08-12T13:46:29.708Z</time>
      </trkpt>
      <trkpt lat="41.18246" lon="44.45901">
        <ele>1778.273725</ele>
        <time>2021-08-12T13:46:41.513Z</time>
      </trkpt>
      <trkpt lat="41.18428" lon="44.45669">
        <ele>1759.800689</ele>
        <time>2021-08-12T13:48:11.548Z</time>
      </trkpt>
      <trkpt lat="41.18457" lon="44.45622">
        <ele>1755.27544</ele>
        <time>2021-08-12T13:48:27.370Z</time>
      </trkpt>
      <trkpt lat="41.18479" lon="44.45562">
        <ele>1750.338804</ele>
        <time>2021-08-12T13:48:44.583Z</time>
      </trkpt>
      <trkpt lat="41.18509" lon="44.45506">
        <ele>1745.295539</ele>
        <time>2021-08-12T13:49:02.068Z</time>
      </trkpt>
      <trkpt lat="41.18536" lon="44.45425">
        <ele>1739.202231</ele>
        <time>2021-08-12T13:49:24.670Z</time>
      </trkpt>
      <trkpt lat="41.1856" lon="44.45349">
        <ele>1733.5502</ele>
        <time>2021-08-12T13:49:45.971Z</time>
      </trkpt>
      <trkpt lat="41.18565" lon="44.45291">
        <ele>1729.507901</ele>
        <time>2021-08-12T13:50:02.038Z</time>
      </trkpt>
      <trkpt lat="41.18569" lon="44.45229">
        <ele>1728.075755</ele>
        <time>2021-08-12T13:50:19.890Z</time>
      </trkpt>
      <trkpt lat="41.1857" lon="44.45209">
        <ele>1727.822754</ele>
        <time>2021-08-12T13:50:26.088Z</time>
      </trkpt>
      <trkpt lat="41.18573" lon="44.45167">
        <ele>1727.282559</ele>
        <time>2021-08-12T13:50:39.615Z</time>
      </trkpt>
      <trkpt lat="41.18578" lon="44.45139">
        <ele>1726.904248</ele>
        <time>2021-08-12T13:50:49.469Z</time>
      </trkpt>
      <trkpt lat="41.1858" lon="44.45108">
        <ele>1726.511366</ele>
        <time>2021-08-12T13:51:02.104Z</time>
      </trkpt>
      <trkpt lat="41.18593" lon="44.45097">
        <ele>1726.241141</ele>
        <time>2021-08-12T13:51:10.263Z</time>
      </trkpt>
      <trkpt lat="41.1867" lon="44.45097">
        <ele>1726.267504</ele>
        <time>2021-08-12T13:52:02.466Z</time>
      </trkpt>
      <trkpt lat="41.18817" lon="44.45133">
        <ele>1727.810386</ele>
        <time>2021-08-12T13:53:34.610Z</time>
      </trkpt>
      <trkpt lat="41.1884" lon="44.45134">
        <ele>1727.016579</ele>
        <time>2021-08-12T13:53:43.801Z</time>
      </trkpt>
      <trkpt lat="41.18862" lon="44.45135">
        <ele>1726.244082</ele>
        <time>2021-08-12T13:53:52.918Z</time>
      </trkpt>
      <trkpt lat="41.189" lon="44.45126">
        <ele>1724.879751</ele>
        <time>2021-08-12T13:54:08.594Z</time>
      </trkpt>
      <trkpt lat="41.18908" lon="44.4512">
        <ele>1724.540005</ele>
        <time>2021-08-12T13:54:12.569Z</time>
      </trkpt>
      <trkpt lat="41.18911" lon="44.45102">
        <ele>1724.051346</ele>
        <time>2021-08-12T13:54:18.507Z</time>
      </trkpt>
      <trkpt lat="41.18907" lon="44.45087">
        <ele>1723.609112</ele>
        <time>2021-08-12T13:54:22.980Z</time>
      </trkpt>
      <trkpt lat="41.18894" lon="44.4508">
        <ele>1723.113167</ele>
        <time>2021-08-12T13:54:28.427Z</time>
      </trkpt>
      <trkpt lat="41.18809" lon="44.45061">
        <ele>1717.949913</ele>
        <time>2021-08-12T13:55:00.210Z</time>
      </trkpt>
      <trkpt lat="41.18774" lon="44.45045">
        <ele>1715.111097</ele>
        <time>2021-08-12T13:55:13.381Z</time>
      </trkpt>
      <trkpt lat="41.18749" lon="44.45041">
        <ele>1713.187286</ele>
        <time>2021-08-12T13:55:22.165Z</time>
      </trkpt>
      <trkpt lat="41.18707" lon="44.45034">
        <ele>1709.97871</ele>
        <time>2021-08-12T13:55:37.252Z</time>
      </trkpt>
      <trkpt lat="41.18666" lon="44.45009">
        <ele>1706.106908</ele>
        <time>2021-08-12T13:55:53.281Z</time>
      </trkpt>
      <trkpt lat="41.1858" lon="44.44974">
        <ele>1697.753396</ele>
        <time>2021-08-12T13:56:23.959Z</time>
      </trkpt>
      <trkpt lat="41.18551" lon="44.44951">
        <ele>1694.563236</ele>
        <time>2021-08-12T13:56:35.690Z</time>
      </trkpt>
      <trkpt lat="41.18498" lon="44.44931">
        <ele>1689.744609</ele>
        <time>2021-08-12T13:56:54.622Z</time>
      </trkpt>
      <trkpt lat="41.1832" lon="44.44834">
        <ele>1675.544635</ele>
        <time>2021-08-12T13:58:04.083Z</time>
      </trkpt>
      <trkpt lat="41.18147" lon="44.44732">
        <ele>1665.077748</ele>
        <time>2021-08-12T13:59:16.376Z</time>
      </trkpt>
      <trkpt lat="41.18108" lon="44.44698">
        <ele>1662.76674</ele>
        <time>2021-08-12T13:59:34.009Z</time>
      </trkpt>
      <trkpt lat="41.1804" lon="44.44649">
        <ele>1658.880494</ele>
        <time>2021-08-12T14:00:03.570Z</time>
      </trkpt>
      <trkpt lat="41.17789" lon="44.44478">
        <ele>1649.874094</ele>
        <time>2021-08-12T14:01:57.801Z</time>
      </trkpt>
      <trkpt lat="41.17636" lon="44.44344">
        <ele>1647.909097</ele>
        <time>2021-08-12T14:03:34.083Z</time>
      </trkpt>
      <trkpt lat="41.17566" lon="44.44293">
        <ele>1647.568575</ele>
        <time>2021-08-12T14:04:13.352Z</time>
      </trkpt>
      <trkpt lat="41.1745" lon="44.44232">
        <ele>1645.015838</ele>
        <time>2021-08-12T14:05:08.190Z</time>
      </trkpt>
      <trkpt lat="41.17328" lon="44.44195">
        <ele>1641.841522</ele>
        <time>2021-08-12T14:06:00.778Z</time>
      </trkpt>
      <trkpt lat="41.17095" lon="44.44146">
        <ele>1634.357027</ele>
        <time>2021-08-12T14:07:38.759Z</time>
      </trkpt>
      <trkpt lat="41.16957" lon="44.44097">
        <ele>1629.562987</ele>
        <time>2021-08-12T14:08:36.063Z</time>
      </trkpt>
      <trkpt lat="41.16636" lon="44.44043">
        <ele>1620.604678</ele>
        <time>2021-08-12T14:10:51.658Z</time>
      </trkpt>
      <trkpt lat="41.16425" lon="44.43996">
        <ele>1617.555265</ele>
        <time>2021-08-12T14:12:33.087Z</time>
      </trkpt>
      <trkpt lat="41.16364" lon="44.43985">
        <ele>1616.762005</ele>
        <time>2021-08-12T14:13:01.557Z</time>
      </trkpt>
      <trkpt lat="41.16346" lon="44.43985">
        <ele>1616.528636</ele>
        <time>2021-08-12T14:13:09.658Z</time>
      </trkpt>
      <trkpt lat="41.16283" lon="44.43993">
        <ele>1615.326595</ele>
        <time>2021-08-12T14:13:37.908Z</time>
      </trkpt>
      <trkpt lat="41.16195" lon="44.44015">
        <ele>1613.368816</ele>
        <time>2021-08-12T14:14:16.122Z</time>
      </trkpt>
      <trkpt lat="41.16144" lon="44.44036">
        <ele>1612.155362</ele>
        <time>2021-08-12T14:14:39.475Z</time>
      </trkpt>
      <trkpt lat="41.16093" lon="44.44038">
        <ele>1610.840652</ele>
        <time>2021-08-12T14:15:01.239Z</time>
      </trkpt>
      <trkpt lat="41.15991" lon="44.44069">
        <ele>1608.154399</ele>
        <time>2021-08-12T14:15:45.511Z</time>
      </trkpt>
      <trkpt lat="41.15771" lon="44.44121">
        <ele>1602.773584</ele>
        <time>2021-08-12T14:17:21.313Z</time>
      </trkpt>
      <trkpt lat="41.15662" lon="44.44173">
        <ele>1600.482416</ele>
        <time>2021-08-12T14:18:12.451Z</time>
      </trkpt>
      <trkpt lat="41.15583" lon="44.44196">
        <ele>1599.107965</ele>
        <time>2021-08-12T14:18:48.621Z</time>
      </trkpt>
      <trkpt lat="41.15447" lon="44.44256">
        <ele>1597.025256</ele>
        <time>2021-08-12T14:19:54.362Z</time>
      </trkpt>
      <trkpt lat="41.15306" lon="44.44307">
        <ele>1595.23169</ele>
        <time>2021-08-12T14:21:01.861Z</time>
      </trkpt>
      <trkpt lat="41.15182" lon="44.44362">
        <ele>1593.849032</ele>
        <time>2021-08-12T14:22:03.909Z</time>
      </trkpt>
      <trkpt lat="41.15087" lon="44.44396">
        <ele>1592.717922</ele>
        <time>2021-08-12T14:22:50.777Z</time>
      </trkpt>
      <trkpt lat="41.15061" lon="44.444">
        <ele>1592.286269</ele>
        <time>2021-08-12T14:23:02.547Z</time>
      </trkpt>
      <trkpt lat="41.15035" lon="44.444">
        <ele>1591.850287</ele>
        <time>2021-08-12T14:23:14.301Z</time>
      </trkpt>
      <trkpt lat="41.14945" lon="44.44371">
        <ele>1590.278294</ele>
        <time>2021-08-12T14:23:55.557Z</time>
      </trkpt>
      <trkpt lat="41.14881" lon="44.44364">
        <ele>1588.988195</ele>
        <time>2021-08-12T14:24:23.147Z</time>
      </trkpt>
      <trkpt lat="41.14882" lon="44.44287">
        <ele>1587.76763</ele>
        <time>2021-08-12T14:24:37.756Z</time>
      </trkpt>
      <trkpt lat="41.14792" lon="44.44283">
        <ele>1586.009534</ele>
        <time>2021-08-12T14:25:01.154Z</time>
      </trkpt>
      <trkpt lat="41.14788" lon="44.44251">
        <ele>1585.688352</ele>
        <time>2021-08-12T14:25:07.927Z</time>
      </trkpt>
      <trkpt lat="41.14686" lon="44.44257">
        <ele>1584.365647</ele>
        <time>2021-08-12T14:25:36.551Z</time>
      </trkpt>
      <trkpt lat="41.14592" lon="44.44261">
        <ele>1582.990372</ele>
        <time>2021-08-12T14:26:02.532Z</time>
      </trkpt>
      <trkpt lat="41.14503" lon="44.44269">
        <ele>1581.571517</ele>
        <time>2021-08-12T14:26:26.104Z</time>
      </trkpt>
      <trkpt lat="41.14426" lon="44.44264">
        <ele>1580.552743</ele>
        <time>2021-08-12T14:26:45.829Z</time>
      </trkpt>
      <trkpt lat="41.14409" lon="44.44101">
        <ele>1579.141779</ele>
        <time>2021-08-12T14:27:20.654Z</time>
      </trkpt>
      <trkpt lat="41.14405" lon="44.44101">
        <ele>1579.101913</ele>
        <time>2021-08-12T14:27:21.806Z</time>
      </trkpt>
      <trkpt lat="41.14377" lon="44.44101">
        <ele>1579.090351</ele>
        <time>2021-08-12T14:27:30.954Z</time>
      </trkpt>
      <trkpt lat="41.14374" lon="44.44101">
        <ele>1579.099345</ele>
        <time>2021-08-12T14:27:31.777Z</time>
      </trkpt>
      <trkpt lat="41.14335" lon="44.44089">
        <ele>1579.244504</ele>
        <time>2021-08-12T14:27:45.648Z</time>
      </trkpt>
      <trkpt lat="41.14314" lon="44.44079">
        <ele>1579.326002</ele>
        <time>2021-08-12T14:27:53.507Z</time>
      </trkpt>
      <trkpt lat="41.14251" lon="44.44046">
        <ele>1579.568872</ele>
        <time>2021-08-12T14:28:17.994Z</time>
      </trkpt>
      <trkpt lat="41.14242" lon="44.44045">
        <ele>1579.600515</ele>
        <time>2021-08-12T14:28:21.207Z</time>
      </trkpt>
      <trkpt lat="41.14155" lon="44.44035">
        <ele>1579.890959</ele>
        <time>2021-08-12T14:28:53.178Z</time>
      </trkpt>
      <trkpt lat="41.14057" lon="44.44024">
        <ele>1580.207907</ele>
        <time>2021-08-12T14:29:25.002Z</time>
      </trkpt>
      <trkpt lat="41.1388" lon="44.43947">
        <ele>1580.635699</ele>
        <time>2021-08-12T14:30:27.453Z</time>
      </trkpt>
      <trkpt lat="41.13708" lon="44.43869">
        <ele>1581.852606</ele>
        <time>2021-08-12T14:31:33.458Z</time>
      </trkpt>
      <trkpt lat="41.13459" lon="44.43702">
        <ele>1584.179813</ele>
        <time>2021-08-12T14:33:18.426Z</time>
      </trkpt>
      <trkpt lat="41.13284" lon="44.43635">
        <ele>1584.270222</ele>
        <time>2021-08-12T14:34:22.014Z</time>
      </trkpt>
      <trkpt lat="41.12878" lon="44.43461">
        <ele>1578.03741</ele>
        <time>2021-08-12T14:36:15.176Z</time>
      </trkpt>
      <trkpt lat="41.12658" lon="44.4345">
        <ele>1573.072426</ele>
        <time>2021-08-12T14:37:11.066Z</time>
      </trkpt>
      <trkpt lat="41.12529" lon="44.43315">
        <ele>1568.473856</ele>
        <time>2021-08-12T14:37:50.877Z</time>
      </trkpt>
      <trkpt lat="41.12308" lon="44.43132">
        <ele>1561.233987</ele>
        <time>2021-08-12T14:38:53.738Z</time>
      </trkpt>
      <trkpt lat="41.12141" lon="44.43073">
        <ele>1558.107365</ele>
        <time>2021-08-12T14:39:39.744Z</time>
      </trkpt>
      <trkpt lat="41.12029" lon="44.43017">
        <ele>1556.661466</ele>
        <time>2021-08-12T14:40:13.684Z</time>
      </trkpt>
      <trkpt lat="41.1187" lon="44.42916">
        <ele>1554.752879</ele>
        <time>2021-08-12T14:41:03.246Z</time>
      </trkpt>
      <trkpt lat="41.11749" lon="44.42802">
        <ele>1552.593057</ele>
        <time>2021-08-12T14:41:43.350Z</time>
      </trkpt>
      <trkpt lat="41.11651" lon="44.42699">
        <ele>1550.298341</ele>
        <time>2021-08-12T14:42:16.079Z</time>
      </trkpt>
      <trkpt lat="41.11265" lon="44.42269">
        <ele>1540.295344</ele>
        <time>2021-08-12T14:44:26.027Z</time>
      </trkpt>
      <trkpt lat="41.11113" lon="44.42098">
        <ele>1536.72372</ele>
        <time>2021-08-12T14:45:18.113Z</time>
      </trkpt>
      <trkpt lat="41.10898" lon="44.41888">
        <ele>1532.527569</ele>
        <time>2021-08-12T14:46:29.891Z</time>
      </trkpt>
      <trkpt lat="41.1076" lon="44.41787">
        <ele>1530.140825</ele>
        <time>2021-08-12T14:47:12.580Z</time>
      </trkpt>
      <trkpt lat="41.10619" lon="44.41564">
        <ele>1525.713099</ele>
        <time>2021-08-12T14:48:09.485Z</time>
      </trkpt>
      <trkpt lat="41.10364" lon="44.41221">
        <ele>1515.857096</ele>
        <time>2021-08-12T14:49:37.715Z</time>
      </trkpt>
      <trkpt lat="41.10319" lon="44.41182">
        <ele>1514.887642</ele>
        <time>2021-08-12T14:49:51.632Z</time>
      </trkpt>
      <trkpt lat="41.10155" lon="44.411">
        <ele>1512.590514</ele>
        <time>2021-08-12T14:50:39.784Z</time>
      </trkpt>
      <trkpt lat="41.10141" lon="44.41094">
        <ele>1512.487368</ele>
        <time>2021-08-12T14:50:44.303Z</time>
      </trkpt>
      <trkpt lat="41.09991" lon="44.41035">
        <ele>1511.80491</ele>
        <time>2021-08-12T14:51:32.874Z</time>
      </trkpt>
      <trkpt lat="41.09819" lon="44.40968">
        <ele>1511.251575</ele>
        <time>2021-08-12T14:52:30.907Z</time>
      </trkpt>
      <trkpt lat="41.09762" lon="44.4094">
        <ele>1510.836204</ele>
        <time>2021-08-12T14:52:49.149Z</time>
      </trkpt>
      <trkpt lat="41.09641" lon="44.40823">
        <ele>1508.308234</ele>
        <time>2021-08-12T14:53:29.164Z</time>
      </trkpt>
      <trkpt lat="41.09446" lon="44.40611">
        <ele>1500.304017</ele>
        <time>2021-08-12T14:54:29.439Z</time>
      </trkpt>
      <trkpt lat="41.09384" lon="44.40366">
        <ele>1490.063154</ele>
        <time>2021-08-12T14:55:11.743Z</time>
      </trkpt>
      <trkpt lat="41.09387" lon="44.40314">
        <ele>1488.632185</ele>
        <time>2021-08-12T14:55:20.475Z</time>
      </trkpt>
      <trkpt lat="41.0939" lon="44.40221">
        <ele>1486.085571</ele>
        <time>2021-08-12T14:55:36.806Z</time>
      </trkpt>
      <trkpt lat="41.09394" lon="44.40134">
        <ele>1483.678757</ele>
        <time>2021-08-12T14:55:53.120Z</time>
      </trkpt>
      <trkpt lat="41.09397" lon="44.40085">
        <ele>1483.092726</ele>
        <time>2021-08-12T14:56:03.134Z</time>
      </trkpt>
      <trkpt lat="41.09387" lon="44.40063">
        <ele>1482.805874</ele>
        <time>2021-08-12T14:56:08.808Z</time>
      </trkpt>
      <trkpt lat="41.09224" lon="44.39886">
        <ele>1479.85642</ele>
        <time>2021-08-12T14:57:04.060Z</time>
      </trkpt>
      <trkpt lat="41.09034" lon="44.39679">
        <ele>1476.804903</ele>
        <time>2021-08-12T14:58:07.949Z</time>
      </trkpt>
      <trkpt lat="41.0894" lon="44.39613">
        <ele>1476.327823</ele>
        <time>2021-08-12T14:58:38.623Z</time>
      </trkpt>
      <trkpt lat="41.08705" lon="44.39447">
        <ele>1476.246211</ele>
        <time>2021-08-12T15:00:03.441Z</time>
      </trkpt>
      <trkpt lat="41.08518" lon="44.39335">
        <ele>1475.423327</ele>
        <time>2021-08-12T15:01:03.401Z</time>
      </trkpt>
      <trkpt lat="41.08291" lon="44.39224">
        <ele>1472.45265</ele>
        <time>2021-08-12T15:02:08.437Z</time>
      </trkpt>
      <trkpt lat="41.07919" lon="44.3911">
        <ele>1465.475799</ele>
        <time>2021-08-12T15:03:42.097Z</time>
      </trkpt>
      <trkpt lat="41.07889" lon="44.39103">
        <ele>1464.921953</ele>
        <time>2021-08-12T15:03:49.554Z</time>
      </trkpt>
      <trkpt lat="41.07417" lon="44.39005">
        <ele>1457.460303</ele>
        <time>2021-08-12T15:05:52.362Z</time>
      </trkpt>
      <trkpt lat="41.07369" lon="44.38994">
        <ele>1456.556528</ele>
        <time>2021-08-12T15:06:04.553Z</time>
      </trkpt>
      <trkpt lat="41.07166" lon="44.38949">
        <ele>1452.74821</ele>
        <time>2021-08-12T15:06:54.979Z</time>
      </trkpt>
      <trkpt lat="41.06901" lon="44.38891">
        <ele>1448.789317</ele>
        <time>2021-08-12T15:08:04.596Z</time>
      </trkpt>
      <trkpt lat="41.06458" lon="44.38748">
        <ele>1442.71492</ele>
        <time>2021-08-12T15:10:02.597Z</time>
      </trkpt>
      <trkpt lat="41.06209" lon="44.38632">
        <ele>1440.714812</ele>
        <time>2021-08-12T15:11:17.912Z</time>
      </trkpt>
      <trkpt lat="41.06142" lon="44.38602">
        <ele>1439.949405</ele>
        <time>2021-08-12T15:11:36.880Z</time>
      </trkpt>
      <trkpt lat="41.05836" lon="44.38447">
        <ele>1436.051004</ele>
        <time>2021-08-12T15:13:00.971Z</time>
      </trkpt>
      <trkpt lat="41.05435" lon="44.38303">
        <ele>1433.534879</ele>
        <time>2021-08-12T15:15:01.141Z</time>
      </trkpt>
      <trkpt lat="41.04909" lon="44.38073">
        <ele>1431.595237</ele>
        <time>2021-08-12T15:17:43.600Z</time>
      </trkpt>
      <trkpt lat="41.04435" lon="44.37996">
        <ele>1431.367508</ele>
        <time>2021-08-12T15:20:10.350Z</time>
      </trkpt>
      <trkpt lat="41.04245" lon="44.38046">
        <ele>1431.567856</ele>
        <time>2021-08-12T15:21:13.739Z</time>
      </trkpt>
      <trkpt lat="41.04215" lon="44.38054">
        <ele>1431.595908</ele>
        <time>2021-08-12T15:21:23.758Z</time>
      </trkpt>
      <trkpt lat="41.03978" lon="44.3811">
        <ele>1430.789916</ele>
        <time>2021-08-12T15:22:34.522Z</time>
      </trkpt>
      <trkpt lat="41.03602" lon="44.38172">
        <ele>1427.209412</ele>
        <time>2021-08-12T15:24:16.097Z</time>
      </trkpt>
      <trkpt lat="41.03134" lon="44.3819">
        <ele>1424.570642</ele>
        <time>2021-08-12T15:26:29.856Z</time>
      </trkpt>
      <trkpt lat="41.03015" lon="44.38158">
        <ele>1424.371318</ele>
        <time>2021-08-12T15:27:05.682Z</time>
      </trkpt>
      <trkpt lat="41.02878" lon="44.38121">
        <ele>1424.674365</ele>
        <time>2021-08-12T15:27:50.828Z</time>
      </trkpt>
      <trkpt lat="41.02591" lon="44.38402">
        <ele>1426.981928</ele>
        <time>2021-08-12T15:30:00.338Z</time>
      </trkpt>
      <trkpt lat="41.02527" lon="44.38465">
        <ele>1426.562309</ele>
        <time>2021-08-12T15:30:23.227Z</time>
      </trkpt>
      <trkpt lat="41.02538" lon="44.38484">
        <ele>1426.469674</ele>
        <time>2021-08-12T15:30:29.591Z</time>
      </trkpt>
      <trkpt lat="41.02626" lon="44.38521">
        <ele>1425.102873</ele>
        <time>2021-08-12T15:31:10.507Z</time>
      </trkpt>
      <trkpt lat="41.02705" lon="44.38579">
        <ele>1423.104796</ele>
        <time>2021-08-12T15:31:48.672Z</time>
      </trkpt>
      <trkpt lat="41.02741" lon="44.38569">
        <ele>1422.316617</ele>
        <time>2021-08-12T15:32:04.334Z</time>
      </trkpt>
      <trkpt lat="41.02809" lon="44.38598">
        <ele>1422.596169</ele>
        <time>2021-08-12T15:32:38.834Z</time>
      </trkpt>
      <trkpt lat="41.02741" lon="44.38569">
        <ele>1422.876026</ele>
        <time>2021-08-12T15:33:19.371Z</time>
      </trkpt>
      <trkpt lat="41.02705" lon="44.38579">
        <ele>1423.015836</ele>
        <time>2021-08-12T15:33:42.408Z</time>
      </trkpt>
      <trkpt lat="41.02626" lon="44.38521">
        <ele>1425.427553</ele>
        <time>2021-08-12T15:34:45.421Z</time>
      </trkpt>
      <trkpt lat="41.02538" lon="44.38484">
        <ele>1427.788297</ele>
        <time>2021-08-12T15:35:48.950Z</time>
      </trkpt>
      <trkpt lat="41.02527" lon="44.38465">
        <ele>1427.827659</ele>
        <time>2021-08-12T15:35:58.543Z</time>
      </trkpt>
      <trkpt lat="41.02382" lon="44.38579">
        <ele>1427.802987</ele>
        <time>2021-08-12T15:36:51.583Z</time>
      </trkpt>
      <trkpt lat="41.02326" lon="44.38628">
        <ele>1425.312953</ele>
        <time>2021-08-12T15:37:06.558Z</time>
      </trkpt>
      <trkpt lat="41.02274" lon="44.38672">
        <ele>1422.997229</ele>
        <time>2021-08-12T15:37:19.807Z</time>
      </trkpt>
      <trkpt lat="41.02252" lon="44.38678">
        <ele>1422.160511</ele>
        <time>2021-08-12T15:37:24.467Z</time>
      </trkpt>
      <trkpt lat="41.02198" lon="44.38669">
        <ele>1419.914866</ele>
        <time>2021-08-12T15:37:36.041Z</time>
      </trkpt>
      <trkpt lat="41.02196" lon="44.38682">
        <ele>1419.503327</ele>
        <time>2021-08-12T15:37:39.655Z</time>
      </trkpt>
      <trkpt lat="41.02191" lon="44.38704">
        <ele>1418.75939</ele>
        <time>2021-08-12T15:37:46.641Z</time>
      </trkpt>
      <trkpt lat="41.02184" lon="44.38712">
        <ele>1418.361578</ele>
        <time>2021-08-12T15:37:50.318Z</time>
      </trkpt>
      <trkpt lat="41.02136" lon="44.38717">
        <ele>1416.321338</ele>
        <time>2021-08-12T15:38:08.985Z</time>
      </trkpt>
      <trkpt lat="41.02122" lon="44.38732">
        <ele>1415.55184</ele>
        <time>2021-08-12T15:38:16.243Z</time>
      </trkpt>
      <trkpt lat="41.02043" lon="44.39045">
        <ele>1407.803715</ele>
        <time>2021-08-12T15:40:00.981Z</time>
      </trkpt>
      <trkpt lat="41.02035" lon="44.391">
        <ele>1406.703084</ele>
        <time>2021-08-12T15:40:19.016Z</time>
      </trkpt>
      <trkpt lat="41.02031" lon="44.39111">
        <ele>1406.458447</ele>
        <time>2021-08-12T15:40:22.964Z</time>
      </trkpt>
      <trkpt lat="41.0201" lon="44.39131">
        <ele>1405.787638</ele>
        <time>2021-08-12T15:40:34.050Z</time>
      </trkpt>
      <trkpt lat="41.02006" lon="44.39147">
        <ele>1405.467611</ele>
        <time>2021-08-12T15:40:39.257Z</time>
      </trkpt>
      <trkpt lat="41.01965" lon="44.39157">
        <ele>1404.381623</ele>
        <time>2021-08-12T15:40:49.645Z</time>
      </trkpt>
      <trkpt lat="41.0186" lon="44.39169">
        <ele>1402.117908</ele>
        <time>2021-08-12T15:41:16.135Z</time>
      </trkpt>
      <trkpt lat="41.018" lon="44.39159">
        <ele>1400.888697</ele>
        <time>2021-08-12T15:41:31.889Z</time>
      </trkpt>
      <trkpt lat="41.01789" lon="44.39262">
        <ele>1399.391667</ele>
        <time>2021-08-12T15:41:52.995Z</time>
      </trkpt>
      <trkpt lat="41.01783" lon="44.39366">
        <ele>1397.948994</ele>
        <time>2021-08-12T15:42:14.005Z</time>
      </trkpt>
      <trkpt lat="41.0178" lon="44.39459">
        <ele>1396.55864</ele>
        <time>2021-08-12T15:42:31.930Z</time>
      </trkpt>
      <trkpt lat="41.0177" lon="44.39459">
        <ele>1396.281507</ele>
        <time>2021-08-12T15:42:34.483Z</time>
      </trkpt>
      <trkpt lat="41.01676" lon="44.39459">
        <ele>1393.707773</ele>
        <time>2021-08-12T15:42:57.400Z</time>
      </trkpt>
      <trkpt lat="41.01557" lon="44.39456">
        <ele>1390.701473</ele>
        <time>2021-08-12T15:43:26.133Z</time>
      </trkpt>
      <trkpt lat="41.01556" lon="44.3954">
        <ele>1389.270957</ele>
        <time>2021-08-12T15:43:41.750Z</time>
      </trkpt>
      <trkpt lat="41.01554" lon="44.39634">
        <ele>1387.725238</ele>
        <time>2021-08-12T15:43:59.493Z</time>
      </trkpt>
      <trkpt lat="41.01552" lon="44.39722">
        <ele>1386.614529</ele>
        <time>2021-08-12T15:44:16.346Z</time>
      </trkpt>
      <trkpt lat="41.01549" lon="44.39843">
        <ele>1385.100641</ele>
        <time>2021-08-12T15:44:39.609Z</time>
      </trkpt>
      <trkpt lat="41.01547" lon="44.39931">
        <ele>1384.451141</ele>
        <time>2021-08-12T15:44:56.685Z</time>
      </trkpt>
      <trkpt lat="41.01546" lon="44.39986">
        <ele>1384.108645</ele>
        <time>2021-08-12T15:45:07.515Z</time>
      </trkpt>
      <trkpt lat="41.01544" lon="44.40102">
        <ele>1383.44113</ele>
        <time>2021-08-12T15:45:33.709Z</time>
      </trkpt>
      <trkpt lat="41.01543" lon="44.40151">
        <ele>1383.56215</ele>
        <time>2021-08-12T15:45:45.918Z</time>
      </trkpt>
      <trkpt lat="41.01542" lon="44.40236">
        <ele>1383.76996</ele>
        <time>2021-08-12T15:46:07.786Z</time>
      </trkpt>
      <trkpt lat="41.01537" lon="44.4055">
        <ele>1384.546327</ele>
        <time>2021-08-12T15:47:27.118Z</time>
      </trkpt>
      <trkpt lat="41.01534" lon="44.40672">
        <ele>1384.402605</ele>
        <time>2021-08-12T15:47:55.219Z</time>
      </trkpt>
      <trkpt lat="41.01531" lon="44.4082">
        <ele>1384.03778</ele>
        <time>2021-08-12T15:48:28.153Z</time>
      </trkpt>
      <trkpt lat="41.01533" lon="44.40971">
        <ele>1382.520624</ele>
        <time>2021-08-12T15:48:59.715Z</time>
      </trkpt>
      <trkpt lat="41.01532" lon="44.41128">
        <ele>1380.203834</ele>
        <time>2021-08-12T15:49:28.265Z</time>
      </trkpt>
      <trkpt lat="41.01536" lon="44.41169">
        <ele>1379.406944</ele>
        <time>2021-08-12T15:49:35.250Z</time>
      </trkpt>
      <trkpt lat="41.01535" lon="44.41221">
        <ele>1378.403942</ele>
        <time>2021-08-12T15:49:43.912Z</time>
      </trkpt>
      <trkpt lat="41.01548" lon="44.41276">
        <ele>1377.27735</ele>
        <time>2021-08-12T15:49:54.092Z</time>
      </trkpt>
      <trkpt lat="41.01608" lon="44.41408">
        <ele>1377.839768</ele>
        <time>2021-08-12T15:50:28.989Z</time>
      </trkpt>
      <trkpt lat="41.01626" lon="44.41446">
        <ele>1378.063802</ele>
        <time>2021-08-12T15:50:43.694Z</time>
      </trkpt>
      <trkpt lat="41.01661" lon="44.4153">
        <ele>1379.378671</ele>
        <time>2021-08-12T15:51:18.124Z</time>
      </trkpt>
      <trkpt lat="41.01679" lon="44.41582">
        <ele>1380.654128</ele>
        <time>2021-08-12T15:51:41.317Z</time>
      </trkpt>
      <trkpt lat="41.01688" lon="44.41611">
        <ele>1381.34617</ele>
        <time>2021-08-12T15:51:54.455Z</time>
      </trkpt>
      <trkpt lat="41.01689" lon="44.4164">
        <ele>1381.985933</ele>
        <time>2021-08-12T15:52:05.203Z</time>
      </trkpt>
      <trkpt lat="41.01675" lon="44.41764">
        <ele>1384.061916</ele>
        <time>2021-08-12T15:52:45.770Z</time>
      </trkpt>
      <trkpt lat="41.01663" lon="44.41828">
        <ele>1384.618429</ele>
        <time>2021-08-12T15:53:02.969Z</time>
      </trkpt>
      <trkpt lat="41.01597" lon="44.42125">
        <ele>1386.843893</ele>
        <time>2021-08-12T15:54:26.270Z</time>
      </trkpt>
      <trkpt lat="41.01515" lon="44.42461">
        <ele>1389.141463</ele>
        <time>2021-08-12T15:56:03.588Z</time>
      </trkpt>
      <trkpt lat="41.01433" lon="44.42869">
        <ele>1390.831255</ele>
        <time>2021-08-12T15:57:52.648Z</time>
      </trkpt>
      <trkpt lat="41.01272" lon="44.4347">
        <ele>1390.354634</ele>
        <time>2021-08-12T16:00:20.186Z</time>
      </trkpt>
      <trkpt lat="41.0125" lon="44.43583">
        <ele>1390.015091</ele>
        <time>2021-08-12T16:00:45.841Z</time>
      </trkpt>
      <trkpt lat="41.01223" lon="44.43777">
        <ele>1389.069621</ele>
        <time>2021-08-12T16:01:27.974Z</time>
      </trkpt>
      <trkpt lat="41.01207" lon="44.43964">
        <ele>1387.350482</ele>
        <time>2021-08-12T16:02:06.019Z</time>
      </trkpt>
      <trkpt lat="41.01126" lon="44.45423">
        <ele>1365.219192</ele>
        <time>2021-08-12T16:06:38.068Z</time>
      </trkpt>
      <trkpt lat="41.01119" lon="44.4549">
        <ele>1364.611654</ele>
        <time>2021-08-12T16:06:50.504Z</time>
      </trkpt>
      <trkpt lat="41.01106" lon="44.45539">
        <ele>1364.183547</ele>
        <time>2021-08-12T16:07:00.864Z</time>
      </trkpt>
      <trkpt lat="41.01068" lon="44.45645">
        <ele>1363.228041</ele>
        <time>2021-08-12T16:07:25.590Z</time>
      </trkpt>
      <trkpt lat="41.01059" lon="44.45669">
        <ele>1363.286194</ele>
        <time>2021-08-12T16:07:31.488Z</time>
      </trkpt>
      <trkpt lat="41.01036" lon="44.45722">
        <ele>1363.751547</ele>
        <time>2021-08-12T16:07:46.357Z</time>
      </trkpt>
      <trkpt lat="41.00977" lon="44.45861">
        <ele>1364.966209</ele>
        <time>2021-08-12T16:08:34.679Z</time>
      </trkpt>
      <trkpt lat="41.00975" lon="44.45865">
        <ele>1365.047153</ele>
        <time>2021-08-12T16:08:36.163Z</time>
      </trkpt>
      <trkpt lat="41.00983" lon="44.45874">
        <ele>1365.257548</ele>
        <time>2021-08-12T16:08:40.714Z</time>
      </trkpt>
      <trkpt lat="41.00989" lon="44.45885">
        <ele>1365.465124</ele>
        <time>2021-08-12T16:08:44.947Z</time>
      </trkpt>
      <trkpt lat="41.00992" lon="44.45892">
        <ele>1365.579456</ele>
        <time>2021-08-12T16:08:47.345Z</time>
      </trkpt>
      <trkpt lat="41.01016" lon="44.46124">
        <ele>1369.173828</ele>
        <time>2021-08-12T16:10:06.345Z</time>
      </trkpt>
      <trkpt lat="41.01046" lon="44.46256">
        <ele>1371.26629</ele>
        <time>2021-08-12T16:10:52.675Z</time>
      </trkpt>
      <trkpt lat="41.01057" lon="44.46339">
        <ele>1372.397324</ele>
        <time>2021-08-12T16:11:19.977Z</time>
      </trkpt>
      <trkpt lat="41.01079" lon="44.4645">
        <ele>1373.266481</ele>
        <time>2021-08-12T16:11:54.087Z</time>
      </trkpt>
      <trkpt lat="41.01087" lon="44.46475">
        <ele>1373.479209</ele>
        <time>2021-08-12T16:12:02.085Z</time>
      </trkpt>
      <trkpt lat="41.01088" lon="44.4655">
        <ele>1374.051573</ele>
        <time>2021-08-12T16:12:22.986Z</time>
      </trkpt>
      <trkpt lat="41.01105" lon="44.4674">
        <ele>1373.163581</ele>
        <time>2021-08-12T16:13:05.842Z</time>
      </trkpt>
      <trkpt lat="41.01107" lon="44.46749">
        <ele>1373.120426</ele>
        <time>2021-08-12T16:13:07.834Z</time>
      </trkpt>
      <trkpt lat="41.01106" lon="44.46761">
        <ele>1373.062923</ele>
        <time>2021-08-12T16:13:10.079Z</time>
      </trkpt>
      <trkpt lat="41.01102" lon="44.46766">
        <ele>1373.025699</ele>
        <time>2021-08-12T16:13:11.468Z</time>
      </trkpt>
      <trkpt lat="41.01047" lon="44.46757">
        <ele>1372.718324</ele>
        <time>2021-08-12T16:13:27.373Z</time>
      </trkpt>
      <trkpt lat="41.00964" lon="44.46754">
        <ele>1372.27412</ele>
        <time>2021-08-12T16:13:50.528Z</time>
      </trkpt>
      <trkpt lat="41.00959" lon="44.4676">
        <ele>1372.236387</ele>
        <time>2021-08-12T16:13:52.226Z</time>
      </trkpt>
      <trkpt lat="41.00968" lon="44.46772">
        <ele>1372.165156</ele>
        <time>2021-08-12T16:13:57.313Z</time>
      </trkpt>
      <trkpt lat="41.01099" lon="44.46947">
        <ele>1373.149404</ele>
        <time>2021-08-12T16:15:04.944Z</time>
      </trkpt>
      <trkpt lat="41.01144" lon="44.47001">
        <ele>1373.109805</ele>
        <time>2021-08-12T16:15:26.092Z</time>
      </trkpt>
      <trkpt lat="41.01149" lon="44.47009">
        <ele>1373.040761</ele>
        <time>2021-08-12T16:15:28.730Z</time>
      </trkpt>
      <trkpt lat="41.01167" lon="44.47035">
        <ele>1372.803709</ele>
        <time>2021-08-12T16:15:37.336Z</time>
      </trkpt>
      <trkpt lat="41.01235" lon="44.47147">
        <ele>1371.843211</ele>
        <time>2021-08-12T16:16:07.490Z</time>
      </trkpt>
      <trkpt lat="41.0134" lon="44.47374">
        <ele>1364.822722</ele>
        <time>2021-08-12T16:16:55.368Z</time>
      </trkpt>
      <trkpt lat="41.01378" lon="44.47431">
        <ele>1361.062467</ele>
        <time>2021-08-12T16:17:07.596Z</time>
      </trkpt>
      <trkpt lat="41.01429" lon="44.47484">
        <ele>1356.763589</ele>
        <time>2021-08-12T16:17:21.012Z</time>
      </trkpt>
      <trkpt lat="41.01455" lon="44.4752">
        <ele>1354.307254</ele>
        <time>2021-08-12T16:17:28.678Z</time>
      </trkpt>
      <trkpt lat="41.01466" lon="44.47567">
        <ele>1352.440686</ele>
        <time>2021-08-12T16:17:36.654Z</time>
      </trkpt>
      <trkpt lat="41.01503" lon="44.4763">
        <ele>1349.588846</ele>
        <time>2021-08-12T16:17:49.742Z</time>
      </trkpt>
      <trkpt lat="41.01504" lon="44.47644">
        <ele>1349.100163</ele>
        <time>2021-08-12T16:17:52.219Z</time>
      </trkpt>
      <trkpt lat="41.01504" lon="44.47667">
        <ele>1348.289889</ele>
        <time>2021-08-12T16:17:55.987Z</time>
      </trkpt>
      <trkpt lat="41.015" lon="44.47674">
        <ele>1347.968398</ele>
        <time>2021-08-12T16:17:57.389Z</time>
      </trkpt>
      <trkpt lat="41.01502" lon="44.4768">
        <ele>1347.752512</ele>
        <time>2021-08-12T16:17:58.482Z</time>
      </trkpt>
      <trkpt lat="41.01504" lon="44.47694">
        <ele>1347.251866</ele>
        <time>2021-08-12T16:18:00.868Z</time>
      </trkpt>
      <trkpt lat="41.01509" lon="44.47724">
        <ele>1346.146901</ele>
        <time>2021-08-12T16:18:05.930Z</time>
      </trkpt>
      <trkpt lat="41.0151" lon="44.47739">
        <ele>1345.623694</ele>
        <time>2021-08-12T16:18:08.940Z</time>
      </trkpt>
      <trkpt lat="41.0151" lon="44.47748">
        <ele>1345.487207</ele>
        <time>2021-08-12T16:18:11.104Z</time>
      </trkpt>
      <trkpt lat="41.01496" lon="44.47758">
        <ele>1345.709089</ele>
        <time>2021-08-12T16:18:14.638Z</time>
      </trkpt>
      <trkpt lat="41.01467" lon="44.47752">
        <ele>1346.134674</ele>
        <time>2021-08-12T16:18:25.238Z</time>
      </trkpt>
      <trkpt lat="41.01396" lon="44.47758">
        <ele>1347.167395</ele>
        <time>2021-08-12T16:18:58.550Z</time>
      </trkpt>
      <trkpt lat="41.01282" lon="44.47804">
        <ele>1349.711909</ele>
        <time>2021-08-12T16:19:53.539Z</time>
      </trkpt>
      <trkpt lat="41.0123" lon="44.47811">
        <ele>1351.202577</ele>
        <time>2021-08-12T16:20:19.287Z</time>
      </trkpt>
      <trkpt lat="41.01206" lon="44.47808">
        <ele>1351.887643</ele>
        <time>2021-08-12T16:20:30.937Z</time>
      </trkpt>
      <trkpt lat="41.01158" lon="44.47783">
        <ele>1353.362368</ele>
        <time>2021-08-12T16:20:54.526Z</time>
      </trkpt>
      <trkpt lat="41.01139" lon="44.47784">
        <ele>1353.883503</ele>
        <time>2021-08-12T16:21:02.918Z</time>
      </trkpt>
      <trkpt lat="41.01129" lon="44.47796">
        <ele>1354.274486</ele>
        <time>2021-08-12T16:21:09.077Z</time>
      </trkpt>
      <trkpt lat="41.01115" lon="44.47837">
        <ele>1355.220754</ele>
        <time>2021-08-12T16:21:24.253Z</time>
      </trkpt>
      <trkpt lat="41.01106" lon="44.47849">
        <ele>1355.567696</ele>
        <time>2021-08-12T16:21:29.678Z</time>
      </trkpt>
      <trkpt lat="41.01042" lon="44.47883">
        <ele>1357.500779</ele>
        <time>2021-08-12T16:22:01.741Z</time>
      </trkpt>
      <trkpt lat="41.00974" lon="44.47905">
        <ele>1359.89796</ele>
        <time>2021-08-12T16:22:37.337Z</time>
      </trkpt>
      <trkpt lat="41.0096" lon="44.47917">
        <ele>1360.517239</ele>
        <time>2021-08-12T16:22:45.884Z</time>
      </trkpt>
      <trkpt lat="41.00875" lon="44.48044">
        <ele>1365.144071</ele>
        <time>2021-08-12T16:23:55.269Z</time>
      </trkpt>
      <trkpt lat="41.00825" lon="44.48119">
        <ele>1366.503519</ele>
        <time>2021-08-12T16:24:32.881Z</time>
      </trkpt>
      <trkpt lat="41.00569" lon="44.4858">
        <ele>1372.511053</ele>
        <time>2021-08-12T16:27:17.559Z</time>
      </trkpt>
      <trkpt lat="41.00433" lon="44.48878">
        <ele>1368.971576</ele>
        <time>2021-08-12T16:28:24.202Z</time>
      </trkpt>
      <trkpt lat="41.00404" lon="44.48963">
        <ele>1367.67659</ele>
        <time>2021-08-12T16:28:41.534Z</time>
      </trkpt>
      <trkpt lat="41.00375" lon="44.49082">
        <ele>1366.46212</ele>
        <time>2021-08-12T16:29:05.565Z</time>
      </trkpt>
      <trkpt lat="41.00364" lon="44.49158">
        <ele>1366.048757</ele>
        <time>2021-08-12T16:29:21.336Z</time>
      </trkpt>
      <trkpt lat="41.00365" lon="44.49461">
        <ele>1365.981481</ele>
        <time>2021-08-12T16:30:34.379Z</time>
      </trkpt>
      <trkpt lat="41.00388" lon="44.49738">
        <ele>1367.876677</ele>
        <time>2021-08-12T16:31:51.466Z</time>
      </trkpt>
      <trkpt lat="41.00508" lon="44.5015">
        <ele>1371.261078</ele>
        <time>2021-08-12T16:33:59.994Z</time>
      </trkpt>
      <trkpt lat="41.00517" lon="44.5017">
        <ele>1371.38928</ele>
        <time>2021-08-12T16:34:05.064Z</time>
      </trkpt>
      <trkpt lat="41.00571" lon="44.50283">
        <ele>1368.71986</ele>
        <time>2021-08-12T16:34:29.692Z</time>
      </trkpt>
      <trkpt lat="41.00579" lon="44.503">
        <ele>1368.288597</ele>
        <time>2021-08-12T16:34:33.126Z</time>
      </trkpt>
      <trkpt lat="41.00665" lon="44.50477">
        <ele>1362.173262</ele>
        <time>2021-08-12T16:35:07.523Z</time>
      </trkpt>
      <trkpt lat="41.00688" lon="44.50545">
        <ele>1359.56905</ele>
        <time>2021-08-12T16:35:19.454Z</time>
      </trkpt>
      <trkpt lat="41.00693" lon="44.50558">
        <ele>1359.050754</ele>
        <time>2021-08-12T16:35:21.773Z</time>
      </trkpt>
      <trkpt lat="41.00715" lon="44.50622">
        <ele>1356.32458</ele>
        <time>2021-08-12T16:35:33.053Z</time>
      </trkpt>
      <trkpt lat="41.00733" lon="44.50702">
        <ele>1352.844435</ele>
        <time>2021-08-12T16:35:46.430Z</time>
      </trkpt>
      <trkpt lat="41.00775" lon="44.5089">
        <ele>1343.322181</ele>
        <time>2021-08-12T16:36:16.832Z</time>
      </trkpt>
      <trkpt lat="41.00787" lon="44.50916">
        <ele>1341.532691</ele>
        <time>2021-08-12T16:36:21.479Z</time>
      </trkpt>
      <trkpt lat="41.00797" lon="44.50938">
        <ele>1340.033535</ele>
        <time>2021-08-12T16:36:25.372Z</time>
      </trkpt>
      <trkpt lat="41.00812" lon="44.50971">
        <ele>1337.788414</ele>
        <time>2021-08-12T16:36:31.026Z</time>
      </trkpt>
      <trkpt lat="41.00841" lon="44.51037">
        <ele>1333.111326</ele>
        <time>2021-08-12T16:36:41.958Z</time>
      </trkpt>
      <trkpt lat="41.00871" lon="44.51103">
        <ele>1327.123143</ele>
        <time>2021-08-12T16:36:53.041Z</time>
      </trkpt>
      <trkpt lat="41.00888" lon="44.51141">
        <ele>1323.677816</ele>
        <time>2021-08-12T16:36:59.417Z</time>
      </trkpt>
      <trkpt lat="41.009" lon="44.51202">
        <ele>1318.88105</ele>
        <time>2021-08-12T16:37:08.290Z</time>
      </trkpt>
      <trkpt lat="41.00922" lon="44.51252">
        <ele>1314.841634</ele>
        <time>2021-08-12T16:37:16.667Z</time>
      </trkpt>
      <trkpt lat="41.00945" lon="44.51323">
        <ele>1310.927124</ele>
        <time>2021-08-12T16:37:28.031Z</time>
      </trkpt>
      <trkpt lat="41.00954" lon="44.51357">
        <ele>1309.136424</ele>
        <time>2021-08-12T16:37:33.402Z</time>
      </trkpt>
      <trkpt lat="41.00973" lon="44.5137">
        <ele>1307.705069</ele>
        <time>2021-08-12T16:37:37.806Z</time>
      </trkpt>
      <trkpt lat="41.00994" lon="44.51372">
        <ele>1306.322601</ele>
        <time>2021-08-12T16:37:42.149Z</time>
      </trkpt>
      <trkpt lat="41.00999" lon="44.51384">
        <ele>1305.654173</ele>
        <time>2021-08-12T16:37:44.290Z</time>
      </trkpt>
      <trkpt lat="41.0099" lon="44.51393">
        <ele>1304.938571</ele>
        <time>2021-08-12T16:37:46.560Z</time>
      </trkpt>
      <trkpt lat="41.00965" lon="44.51396">
        <ele>1303.862779</ele>
        <time>2021-08-12T16:37:51.901Z</time>
      </trkpt>
      <trkpt lat="41.00923" lon="44.51414">
        <ele>1305.14551</ele>
        <time>2021-08-12T16:38:03.633Z</time>
      </trkpt>
      <trkpt lat="41.00911" lon="44.514">
        <ele>1305.601484</ele>
        <time>2021-08-12T16:38:08.970Z</time>
      </trkpt>
      <trkpt lat="41.00898" lon="44.51346">
        <ele>1306.815437</ele>
        <time>2021-08-12T16:38:34.370Z</time>
      </trkpt>
      <trkpt lat="41.00886" lon="44.51339">
        <ele>1307.204499</ele>
        <time>2021-08-12T16:38:42.533Z</time>
      </trkpt>
      <trkpt lat="41.0088" lon="44.5135">
        <ele>1307.484187</ele>
        <time>2021-08-12T16:38:50.121Z</time>
      </trkpt>
      <trkpt lat="41.00882" lon="44.51362">
        <ele>1307.744468</ele>
        <time>2021-08-12T16:38:55.347Z</time>
      </trkpt>
      <trkpt lat="41.00888" lon="44.51397">
        <ele>1308.522593</ele>
        <time>2021-08-12T16:39:13.257Z</time>
      </trkpt>
      <trkpt lat="41.0089" lon="44.51439">
        <ele>1310.601969</ele>
        <time>2021-08-12T16:39:35.824Z</time>
      </trkpt>
      <trkpt lat="41.00902" lon="44.51473">
        <ele>1312.956422</ele>
        <time>2021-08-12T16:39:55.903Z</time>
      </trkpt>
      <trkpt lat="41.009" lon="44.515">
        <ele>1314.604924</ele>
        <time>2021-08-12T16:40:13.740Z</time>
      </trkpt>
      <trkpt lat="41.00894" lon="44.51508">
        <ele>1315.315193</ele>
        <time>2021-08-12T16:40:19.202Z</time>
      </trkpt>
      <trkpt lat="41.0088" lon="44.51513">
        <ele>1316.51506</ele>
        <time>2021-08-12T16:40:33.164Z</time>
      </trkpt>
      <trkpt lat="41.00853" lon="44.51506">
        <ele>1318.851923</ele>
        <time>2021-08-12T16:40:55.419Z</time>
      </trkpt>
      <trkpt lat="41.00829" lon="44.51475">
        <ele>1321.629029</ele>
        <time>2021-08-12T16:41:24.468Z</time>
      </trkpt>
      <trkpt lat="41.00816" lon="44.51469">
        <ele>1322.73508</ele>
        <time>2021-08-12T16:41:38.174Z</time>
      </trkpt>
      <trkpt lat="41.00757" lon="44.5149">
        <ele>1326.016382</ele>
        <time>2021-08-12T16:42:20.741Z</time>
      </trkpt>
      <trkpt lat="41.00727" lon="44.51482">
        <ele>1327.435137</ele>
        <time>2021-08-12T16:42:35.983Z</time>
      </trkpt>
      <trkpt lat="41.00702" lon="44.5146">
        <ele>1328.793395</ele>
        <time>2021-08-12T16:42:51.676Z</time>
      </trkpt>
      <trkpt lat="41.00686" lon="44.51408">
        <ele>1330.768348</ele>
        <time>2021-08-12T16:43:14.162Z</time>
      </trkpt>
      <trkpt lat="41.00668" lon="44.51379">
        <ele>1332.076142</ele>
        <time>2021-08-12T16:43:26.366Z</time>
      </trkpt>
      <trkpt lat="41.00642" lon="44.51365">
        <ele>1332.575361</ele>
        <time>2021-08-12T16:43:37.902Z</time>
      </trkpt>
      <trkpt lat="41.00581" lon="44.51355">
        <ele>1333.696576</ele>
        <time>2021-08-12T16:44:03.098Z</time>
      </trkpt>
      <trkpt lat="41.0052" lon="44.51354">
        <ele>1334.801314</ele>
        <time>2021-08-12T16:44:27.146Z</time>
      </trkpt>
      <trkpt lat="41.0042" lon="44.51363">
        <ele>1336.725081</ele>
        <time>2021-08-12T16:45:07.432Z</time>
      </trkpt>
      <trkpt lat="41.0023" lon="44.51332">
        <ele>1340.074842</ele>
        <time>2021-08-12T16:46:30.648Z</time>
      </trkpt>
      <trkpt lat="41.00194" lon="44.51337">
        <ele>1340.590511</ele>
        <time>2021-08-12T16:46:44.613Z</time>
      </trkpt>
      <trkpt lat="41.00121" lon="44.51363">
        <ele>1341.430867</ele>
        <time>2021-08-12T16:47:11.528Z</time>
      </trkpt>
      <trkpt lat="40.99792" lon="44.51382">
        <ele>1340.318291</ele>
        <time>2021-08-12T16:48:46.435Z</time>
      </trkpt>
      <trkpt lat="40.99777" lon="44.51386">
        <ele>1340.254436</ele>
        <time>2021-08-12T16:48:50.949Z</time>
      </trkpt>
      <trkpt lat="40.99752" lon="44.51406">
        <ele>1340.28941</ele>
        <time>2021-08-12T16:48:59.861Z</time>
      </trkpt>
      <trkpt lat="40.99714" lon="44.51454">
        <ele>1340.357885</ele>
        <time>2021-08-12T16:49:16.297Z</time>
      </trkpt>
      <trkpt lat="40.99664" lon="44.51568">
        <ele>1340.486521</ele>
        <time>2021-08-12T16:49:49.031Z</time>
      </trkpt>
      <trkpt lat="40.99621" lon="44.51634">
        <ele>1340.395208</ele>
        <time>2021-08-12T16:50:10.689Z</time>
      </trkpt>
      <trkpt lat="40.99437" lon="44.51849">
        <ele>1339.465749</ele>
        <time>2021-08-12T16:51:22.537Z</time>
      </trkpt>
      <trkpt lat="40.99322" lon="44.52012">
        <ele>1337.96249</ele>
        <time>2021-08-12T16:52:07.781Z</time>
      </trkpt>
      <trkpt lat="40.99296" lon="44.52042">
        <ele>1337.601577</ele>
        <time>2021-08-12T16:52:17.242Z</time>
      </trkpt>
      <trkpt lat="40.99177" lon="44.5215">
        <ele>1335.999567</ele>
        <time>2021-08-12T16:52:55.693Z</time>
      </trkpt>
      <trkpt lat="40.98787" lon="44.52447">
        <ele>1329.85512</ele>
        <time>2021-08-12T16:54:53.656Z</time>
      </trkpt>
      <trkpt lat="40.98744" lon="44.52498">
        <ele>1328.454793</ele>
        <time>2021-08-12T16:55:07.534Z</time>
      </trkpt>
      <trkpt lat="40.98733" lon="44.52536">
        <ele>1327.716094</ele>
        <time>2021-08-12T16:55:14.786Z</time>
      </trkpt>
      <trkpt lat="40.98731" lon="44.52558">
        <ele>1327.321451</ele>
        <time>2021-08-12T16:55:18.577Z</time>
      </trkpt>
      <trkpt lat="40.98736" lon="44.52589">
        <ele>1326.743821</ele>
        <time>2021-08-12T16:55:24.276Z</time>
      </trkpt>
      <trkpt lat="40.98738" lon="44.52596">
        <ele>1326.596383</ele>
        <time>2021-08-12T16:55:25.584Z</time>
      </trkpt>
      <trkpt lat="40.98783" lon="44.5269">
        <ele>1323.973384</ele>
        <time>2021-08-12T16:55:44.730Z</time>
      </trkpt>
      <trkpt lat="40.98808" lon="44.52764">
        <ele>1321.959167</ele>
        <time>2021-08-12T16:55:58.367Z</time>
      </trkpt>
      <trkpt lat="40.9883" lon="44.52844">
        <ele>1319.798251</ele>
        <time>2021-08-12T16:56:13.411Z</time>
      </trkpt>
      <trkpt lat="40.98855" lon="44.52936">
        <ele>1317.207073</ele>
        <time>2021-08-12T16:56:29.901Z</time>
      </trkpt>
      <trkpt lat="40.9888" lon="44.53054">
        <ele>1313.971152</ele>
        <time>2021-08-12T16:56:50.342Z</time>
      </trkpt>
      <trkpt lat="40.98882" lon="44.53065">
        <ele>1313.858086</ele>
        <time>2021-08-12T16:56:52.184Z</time>
      </trkpt>
      <trkpt lat="40.989" lon="44.53187">
        <ele>1312.63604</ele>
        <time>2021-08-12T16:57:14.643Z</time>
      </trkpt>
      <trkpt lat="40.98903" lon="44.5321">
        <ele>1312.407021</ele>
        <time>2021-08-12T16:57:19.449Z</time>
      </trkpt>
      <trkpt lat="40.98909" lon="44.53331">
        <ele>1312.677714</ele>
        <time>2021-08-12T16:57:53.003Z</time>
      </trkpt>
      <trkpt lat="40.98912" lon="44.53393">
        <ele>1314.160754</ele>
        <time>2021-08-12T16:58:15.234Z</time>
      </trkpt>
      <trkpt lat="40.98908" lon="44.53409">
        <ele>1314.577099</ele>
        <time>2021-08-12T16:58:22.715Z</time>
      </trkpt>
      <trkpt lat="40.98893" lon="44.5342">
        <ele>1315.126495</ele>
        <time>2021-08-12T16:58:30.689Z</time>
      </trkpt>
      <trkpt lat="40.98848" lon="44.53419">
        <ele>1316.571865</ele>
        <time>2021-08-12T16:58:55.668Z</time>
      </trkpt>
      <trkpt lat="40.98812" lon="44.53418">
        <ele>1317.732478</ele>
        <time>2021-08-12T16:59:16.968Z</time>
      </trkpt>
      <trkpt lat="40.98785" lon="44.53425">
        <ele>1318.608597</ele>
        <time>2021-08-12T16:59:32.902Z</time>
      </trkpt>
      <trkpt lat="40.98744" lon="44.53451">
        <ele>1320.074121</ele>
        <time>2021-08-12T16:59:57.439Z</time>
      </trkpt>
      <trkpt lat="40.98728" lon="44.53475">
        <ele>1320.834312</ele>
        <time>2021-08-12T17:00:08.856Z</time>
      </trkpt>
      <trkpt lat="40.98734" lon="44.53504">
        <ele>1321.568067</ele>
        <time>2021-08-12T17:00:19.303Z</time>
      </trkpt>
      <trkpt lat="40.98767" lon="44.53539">
        <ele>1322.911592</ele>
        <time>2021-08-12T17:00:36.832Z</time>
      </trkpt>
      <trkpt lat="40.98775" lon="44.53572">
        <ele>1323.292428</ele>
        <time>2021-08-12T17:00:47.072Z</time>
      </trkpt>
      <trkpt lat="40.98774" lon="44.53599">
        <ele>1323.429868</ele>
        <time>2021-08-12T17:00:55.011Z</time>
      </trkpt>
      <trkpt lat="40.98771" lon="44.53697">
        <ele>1323.931336</ele>
        <time>2021-08-12T17:01:22.165Z</time>
      </trkpt>
      <trkpt lat="40.98771" lon="44.53697">
        <ele>1323.931336</ele>
        <time>2021-08-12T17:01:22.242Z</time>
      </trkpt>
      <trkpt lat="40.98771" lon="44.53697">
        <ele>1323.931336</ele>
        <time>2021-08-12T17:01:22.251Z</time>
      </trkpt>
      <trkpt lat="40.98765" lon="44.53864">
        <ele>1324.488757</ele>
        <time>2021-08-12T17:01:59.679Z</time>
      </trkpt>
      <trkpt lat="40.98755" lon="44.54002">
        <ele>1324.675548</ele>
        <time>2021-08-12T17:02:33.401Z</time>
      </trkpt>
      <trkpt lat="40.98751" lon="44.54074">
        <ele>1325.41328</ele>
        <time>2021-08-12T17:02:53.755Z</time>
      </trkpt>
      <trkpt lat="40.98757" lon="44.54126">
        <ele>1326.133656</ele>
        <time>2021-08-12T17:03:09.351Z</time>
      </trkpt>
      <trkpt lat="40.98763" lon="44.54191">
        <ele>1327.053103</ele>
        <time>2021-08-12T17:03:30.524Z</time>
      </trkpt>
      <trkpt lat="40.98774" lon="44.54235">
        <ele>1327.68908</ele>
        <time>2021-08-12T17:03:46.051Z</time>
      </trkpt>
      <trkpt lat="40.98892" lon="44.5458">
        <ele>1335.879907</ele>
        <time>2021-08-12T17:06:03.175Z</time>
      </trkpt>
      <trkpt lat="40.98924" lon="44.54688">
        <ele>1338.404486</ele>
        <time>2021-08-12T17:06:45.124Z</time>
      </trkpt>
      <trkpt lat="40.98943" lon="44.54804">
        <ele>1339.669479</ele>
        <time>2021-08-12T17:07:25.296Z</time>
      </trkpt>
      <trkpt lat="40.9903" lon="44.55473">
        <ele>1344.997363</ele>
        <time>2021-08-12T17:10:33.158Z</time>
      </trkpt>
      <trkpt lat="40.99045" lon="44.5556">
        <ele>1344.900055</ele>
        <time>2021-08-12T17:10:51.831Z</time>
      </trkpt>
      <trkpt lat="40.9906" lon="44.55607">
        <ele>1344.845243</ele>
        <time>2021-08-12T17:11:01.837Z</time>
      </trkpt>
      <trkpt lat="40.9906" lon="44.55609">
        <ele>1344.842652</ele>
        <time>2021-08-12T17:11:02.218Z</time>
      </trkpt>
      <trkpt lat="40.99135" lon="44.55779">
        <ele>1345.723343</ele>
        <time>2021-08-12T17:11:48.724Z</time>
      </trkpt>
      <trkpt lat="40.99193" lon="44.55881">
        <ele>1347.75204</ele>
        <time>2021-08-12T17:12:33.167Z</time>
      </trkpt>
      <trkpt lat="40.99177" lon="44.559">
        <ele>1348.485223</ele>
        <time>2021-08-12T17:12:45.119Z</time>
      </trkpt>
      <trkpt lat="40.99145" lon="44.55931">
        <ele>1349.835441</ele>
        <time>2021-08-12T17:13:06.748Z</time>
      </trkpt>
      <trkpt lat="40.99119" lon="44.55941">
        <ele>1350.746448</ele>
        <time>2021-08-12T17:13:21.603Z</time>
      </trkpt>
      <trkpt lat="40.99001" lon="44.55916">
        <ele>1353.946961</ele>
        <time>2021-08-12T17:14:20.150Z</time>
      </trkpt>
      <trkpt lat="40.98958" lon="44.55937">
        <ele>1355.012201</ele>
        <time>2021-08-12T17:14:39.832Z</time>
      </trkpt>
      <trkpt lat="40.98904" lon="44.55932">
        <ele>1356.27728</ele>
        <time>2021-08-12T17:15:01.452Z</time>
      </trkpt>
      <trkpt lat="40.98829" lon="44.55887">
        <ele>1356.241725</ele>
        <time>2021-08-12T17:15:29.297Z</time>
      </trkpt>
      <trkpt lat="40.98776" lon="44.55867">
        <ele>1356.206152</ele>
        <time>2021-08-12T17:15:45.754Z</time>
      </trkpt>
      <trkpt lat="40.98724" lon="44.55858">
        <ele>1355.839987</ele>
        <time>2021-08-12T17:16:00.180Z</time>
      </trkpt>
      <trkpt lat="40.9866" lon="44.55834">
        <ele>1353.355844</ele>
        <time>2021-08-12T17:16:16.275Z</time>
      </trkpt>
      <trkpt lat="40.98602" lon="44.55803">
        <ele>1350.999624</ele>
        <time>2021-08-12T17:16:30.047Z</time>
      </trkpt>
      <trkpt lat="40.9858" lon="44.55799">
        <ele>1350.178309</ele>
        <time>2021-08-12T17:16:34.609Z</time>
      </trkpt>
      <trkpt lat="40.98506" lon="44.55804">
        <ele>1344.494725</ele>
        <time>2021-08-12T17:16:49.571Z</time>
      </trkpt>
      <trkpt lat="40.98489" lon="44.55793">
        <ele>1342.83279</ele>
        <time>2021-08-12T17:16:53.168Z</time>
      </trkpt>
      <trkpt lat="40.98447" lon="44.55737">
        <ele>1337.468252</ele>
        <time>2021-08-12T17:17:04.610Z</time>
      </trkpt>
      <trkpt lat="40.98413" lon="44.55702">
        <ele>1333.599784</ele>
        <time>2021-08-12T17:17:12.738Z</time>
      </trkpt>
      <trkpt lat="40.98386" lon="44.55689">
        <ele>1331.007272</ele>
        <time>2021-08-12T17:17:18.061Z</time>
      </trkpt>
      <trkpt lat="40.98304" lon="44.5567">
        <ele>1323.357378</ele>
        <time>2021-08-12T17:17:33.895Z</time>
      </trkpt>
      <trkpt lat="40.98297" lon="44.55679">
        <ele>1322.50695</ele>
        <time>2021-08-12T17:17:35.679Z</time>
      </trkpt>
      <trkpt lat="40.98299" lon="44.55688">
        <ele>1321.844559</ele>
        <time>2021-08-12T17:17:37.093Z</time>
      </trkpt>
      <trkpt lat="40.98345" lon="44.55732">
        <ele>1316.757532</ele>
        <time>2021-08-12T17:17:48.316Z</time>
      </trkpt>
      <trkpt lat="40.98345" lon="44.55746">
        <ele>1316.279947</ele>
        <time>2021-08-12T17:17:50.354Z</time>
      </trkpt>
      <trkpt lat="40.98286" lon="44.55791">
        <ele>1313.085599</ele>
        <time>2021-08-12T17:18:04.374Z</time>
      </trkpt>
      <trkpt lat="40.9826" lon="44.55844">
        <ele>1310.823838</ele>
        <time>2021-08-12T17:18:15.023Z</time>
      </trkpt>
      <trkpt lat="40.98201" lon="44.55941">
        <ele>1306.802312</ele>
        <time>2021-08-12T17:18:36.684Z</time>
      </trkpt>
      <trkpt lat="40.98191" lon="44.55943">
        <ele>1306.430825</ele>
        <time>2021-08-12T17:18:39.009Z</time>
      </trkpt>
      <trkpt lat="40.98186" lon="44.55938">
        <ele>1306.208361</ele>
        <time>2021-08-12T17:18:40.390Z</time>
      </trkpt>
      <trkpt lat="40.98174" lon="44.55895">
        <ele>1304.948685</ele>
        <time>2021-08-12T17:18:48.048Z</time>
      </trkpt>
      <trkpt lat="40.98157" lon="44.55876">
        <ele>1304.099972</ele>
        <time>2021-08-12T17:18:53.094Z</time>
      </trkpt>
      <trkpt lat="40.98113" lon="44.5587">
        <ele>1302.50664</ele>
        <time>2021-08-12T17:19:02.540Z</time>
      </trkpt>
      <trkpt lat="40.98099" lon="44.55875">
        <ele>1301.965619</ele>
        <time>2021-08-12T17:19:05.737Z</time>
      </trkpt>
      <trkpt lat="40.9809" lon="44.55885">
        <ele>1301.590843</ele>
        <time>2021-08-12T17:19:08.356Z</time>
      </trkpt>
      <trkpt lat="40.98049" lon="44.56008">
        <ele>1298.911437</ele>
        <time>2021-08-12T17:19:30.998Z</time>
      </trkpt>
      <trkpt lat="40.98051" lon="44.56027">
        <ele>1298.522362</ele>
        <time>2021-08-12T17:19:34.505Z</time>
      </trkpt>
      <trkpt lat="40.98069" lon="44.56073">
        <ele>1297.490181</ele>
        <time>2021-08-12T17:19:44.395Z</time>
      </trkpt>
      <trkpt lat="40.9807" lon="44.56084">
        <ele>1297.269893</ele>
        <time>2021-08-12T17:19:46.693Z</time>
      </trkpt>
      <trkpt lat="40.98061" lon="44.561">
        <ele>1297.016658</ele>
        <time>2021-08-12T17:19:50.792Z</time>
      </trkpt>
      <trkpt lat="40.98021" lon="44.56123">
        <ele>1297.258411</ele>
        <time>2021-08-12T17:20:04.738Z</time>
      </trkpt>
      <trkpt lat="40.98013" lon="44.56146">
        <ele>1297.363394</ele>
        <time>2021-08-12T17:20:12.042Z</time>
      </trkpt>
      <trkpt lat="40.9802" lon="44.56263">
        <ele>1297.862416</ele>
        <time>2021-08-12T17:20:50.270Z</time>
      </trkpt>
      <trkpt lat="40.98036" lon="44.56338">
        <ele>1297.33104</ele>
        <time>2021-08-12T17:21:05.075Z</time>
      </trkpt>
      <trkpt lat="40.98032" lon="44.56346">
        <ele>1297.180258</ele>
        <time>2021-08-12T17:21:10.865Z</time>
      </trkpt>
      <trkpt lat="40.98026" lon="44.56347">
        <ele>1297.061483</ele>
        <time>2021-08-12T17:21:12.639Z</time>
      </trkpt>
      <trkpt lat="40.98023" lon="44.56346">
        <ele>1297.006869</ele>
        <time>2021-08-12T17:21:13.142Z</time>
      </trkpt>
      <trkpt lat="40.97983" lon="44.56292">
        <ele>1295.868303</ele>
        <time>2021-08-12T17:21:27.305Z</time>
      </trkpt>
      <trkpt lat="40.97966" lon="44.56283">
        <ele>1295.511991</ele>
        <time>2021-08-12T17:21:32.001Z</time>
      </trkpt>
      <trkpt lat="40.97959" lon="44.56282">
        <ele>1295.370068</ele>
        <time>2021-08-12T17:21:33.415Z</time>
      </trkpt>
      <trkpt lat="40.97949" lon="44.56286">
        <ele>1295.166282</ele>
        <time>2021-08-12T17:21:36.038Z</time>
      </trkpt>
      <trkpt lat="40.97937" lon="44.563">
        <ele>1294.84616</ele>
        <time>2021-08-12T17:21:40.170Z</time>
      </trkpt>
      <trkpt lat="40.97929" lon="44.56313">
        <ele>1294.609437</ele>
        <time>2021-08-12T17:21:42.597Z</time>
      </trkpt>
      <trkpt lat="40.97922" lon="44.56324">
        <ele>1294.325839</ele>
        <time>2021-08-12T17:21:46.673Z</time>
      </trkpt>
      <trkpt lat="40.97867" lon="44.56404">
        <ele>1291.424998</ele>
        <time>2021-08-12T17:22:04.380Z</time>
      </trkpt>
      <trkpt lat="40.97858" lon="44.56414">
        <ele>1291.01775</ele>
        <time>2021-08-12T17:22:06.688Z</time>
      </trkpt>
      <trkpt lat="40.97847" lon="44.56426">
        <ele>1290.513762</ele>
        <time>2021-08-12T17:22:09.772Z</time>
      </trkpt>
      <trkpt lat="40.97806" lon="44.56499">
        <ele>1288.08769</ele>
        <time>2021-08-12T17:22:25.937Z</time>
      </trkpt>
      <trkpt lat="40.97778" lon="44.5656">
        <ele>1286.888878</ele>
        <time>2021-08-12T17:22:39.021Z</time>
      </trkpt>
      <trkpt lat="40.97775" lon="44.56566">
        <ele>1286.777347</ele>
        <time>2021-08-12T17:22:40.227Z</time>
      </trkpt>
      <trkpt lat="40.9776" lon="44.56604">
        <ele>1286.069288</ele>
        <time>2021-08-12T17:22:48.042Z</time>
      </trkpt>
      <trkpt lat="40.97699" lon="44.56781">
        <ele>1283.281104</ele>
        <time>2021-08-12T17:23:24.532Z</time>
      </trkpt>
      <trkpt lat="40.97642" lon="44.56971">
        <ele>1280.933017</ele>
        <time>2021-08-12T17:24:05.700Z</time>
      </trkpt>
      <trkpt lat="40.9754" lon="44.57261">
        <ele>1276.335645</ele>
        <time>2021-08-12T17:25:05.462Z</time>
      </trkpt>
      <trkpt lat="40.97456" lon="44.57525">
        <ele>1271.609758</ele>
        <time>2021-08-12T17:25:57.612Z</time>
      </trkpt>
      <trkpt lat="40.97446" lon="44.57568">
        <ele>1270.849965</ele>
        <time>2021-08-12T17:26:05.923Z</time>
      </trkpt>
      <trkpt lat="40.97277" lon="44.58678">
        <ele>1255.615034</ele>
        <time>2021-08-12T17:29:40.330Z</time>
      </trkpt>
      <trkpt lat="40.9727" lon="44.58765">
        <ele>1254.572716</ele>
        <time>2021-08-12T17:29:57.760Z</time>
      </trkpt>
      <trkpt lat="40.97265" lon="44.58828">
        <ele>1253.963311</ele>
        <time>2021-08-12T17:30:10.697Z</time>
      </trkpt>
      <trkpt lat="40.97246" lon="44.59301">
        <ele>1249.321633</ele>
        <time>2021-08-12T17:31:44.734Z</time>
      </trkpt>
      <trkpt lat="40.97244" lon="44.59333">
        <ele>1248.97374</ele>
        <time>2021-08-12T17:31:50.968Z</time>
      </trkpt>
      <trkpt lat="40.97239" lon="44.59409">
        <ele>1248.161518</ele>
        <time>2021-08-12T17:32:05.577Z</time>
      </trkpt>
      <trkpt lat="40.97199" lon="44.6037">
        <ele>1238.546068</ele>
        <time>2021-08-12T17:35:16.232Z</time>
      </trkpt>
      <trkpt lat="40.97198" lon="44.6044">
        <ele>1237.599996</ele>
        <time>2021-08-12T17:35:30.092Z</time>
      </trkpt>
      <trkpt lat="40.97198" lon="44.60443">
        <ele>1237.528103</ele>
        <time>2021-08-12T17:35:30.661Z</time>
      </trkpt>
      <trkpt lat="40.97194" lon="44.60518">
        <ele>1235.826477</ele>
        <time>2021-08-12T17:35:45.182Z</time>
      </trkpt>
      <trkpt lat="40.97183" lon="44.60657">
        <ele>1232.696172</ele>
        <time>2021-08-12T17:36:09.014Z</time>
      </trkpt>
      <trkpt lat="40.97157" lon="44.60661">
        <ele>1231.057861</ele>
        <time>2021-08-12T17:36:14.769Z</time>
      </trkpt>
      <trkpt lat="40.97142" lon="44.60662">
        <ele>1230.128535</ele>
        <time>2021-08-12T17:36:18.005Z</time>
      </trkpt>
      <trkpt lat="40.97129" lon="44.60677">
        <ele>1229.066531</ele>
        <time>2021-08-12T17:36:21.468Z</time>
      </trkpt>
      <trkpt lat="40.97124" lon="44.60694">
        <ele>1228.164075</ele>
        <time>2021-08-12T17:36:24.577Z</time>
      </trkpt>
      <trkpt lat="40.97111" lon="44.60712">
        <ele>1226.995605</ele>
        <time>2021-08-12T17:36:28.322Z</time>
      </trkpt>
      <trkpt lat="40.97078" lon="44.60741">
        <ele>1224.498643</ele>
        <time>2021-08-12T17:36:36.586Z</time>
      </trkpt>
      <trkpt lat="40.97057" lon="44.6077">
        <ele>1222.595997</ele>
        <time>2021-08-12T17:36:43.105Z</time>
      </trkpt>
      <trkpt lat="40.97047" lon="44.60784">
        <ele>1221.700335</ele>
        <time>2021-08-12T17:36:46.181Z</time>
      </trkpt>
      <trkpt lat="40.97043" lon="44.6079">
        <ele>1221.33713</ele>
        <time>2021-08-12T17:36:47.813Z</time>
      </trkpt>
      <trkpt lat="40.97031" lon="44.60808">
        <ele>1220.667239</ele>
        <time>2021-08-12T17:36:51.632Z</time>
      </trkpt>
      <trkpt lat="40.97017" lon="44.60837">
        <ele>1219.741385</ele>
        <time>2021-08-12T17:36:57.837Z</time>
      </trkpt>
      <trkpt lat="40.97015" lon="44.60848">
        <ele>1219.43515</ele>
        <time>2021-08-12T17:36:59.555Z</time>
      </trkpt>
      <trkpt lat="40.97012" lon="44.60858">
        <ele>1219.148163</ele>
        <time>2021-08-12T17:37:01.411Z</time>
      </trkpt>
      <trkpt lat="40.97007" lon="44.60909">
        <ele>1217.741178</ele>
        <time>2021-08-12T17:37:10.443Z</time>
      </trkpt>
      <trkpt lat="40.97007" lon="44.6093">
        <ele>1217.185351</ele>
        <time>2021-08-12T17:37:14.557Z</time>
      </trkpt>
      <trkpt lat="40.97006" lon="44.60974">
        <ele>1215.964622</ele>
        <time>2021-08-12T17:37:22.559Z</time>
      </trkpt>
      <trkpt lat="40.97006" lon="44.61128">
        <ele>1211.704816</ele>
        <time>2021-08-12T17:37:55.620Z</time>
      </trkpt>
      <trkpt lat="40.96999" lon="44.61175">
        <ele>1210.368451</ele>
        <time>2021-08-12T17:38:04.111Z</time>
      </trkpt>
      <trkpt lat="40.96999" lon="44.61181">
        <ele>1210.214426</ele>
        <time>2021-08-12T17:38:05.017Z</time>
      </trkpt>
      <trkpt lat="40.97" lon="44.61194">
        <ele>1209.827606</ele>
        <time>2021-08-12T17:38:07.131Z</time>
      </trkpt>
      <trkpt lat="40.97008" lon="44.61216">
        <ele>1209.16895</ele>
        <time>2021-08-12T17:38:11.253Z</time>
      </trkpt>
      <trkpt lat="40.97023" lon="44.6124">
        <ele>1208.288858</ele>
        <time>2021-08-12T17:38:16.201Z</time>
      </trkpt>
      <trkpt lat="40.97034" lon="44.61249">
        <ele>1206.993204</ele>
        <time>2021-08-12T17:38:19.067Z</time>
      </trkpt>
      <trkpt lat="40.97043" lon="44.6125">
        <ele>1206.060799</ele>
        <time>2021-08-12T17:38:21.063Z</time>
      </trkpt>
      <trkpt lat="40.97044" lon="44.61256">
        <ele>1205.624496</ele>
        <time>2021-08-12T17:38:22.384Z</time>
      </trkpt>
      <trkpt lat="40.97058" lon="44.61292">
        <ele>1202.503635</ele>
        <time>2021-08-12T17:38:33.491Z</time>
      </trkpt>
      <trkpt lat="40.9705" lon="44.61305">
        <ele>1201.165276</ele>
        <time>2021-08-12T17:38:37.802Z</time>
      </trkpt>
      <trkpt lat="40.96946" lon="44.61294">
        <ele>1190.452593</ele>
        <time>2021-08-12T17:39:12.707Z</time>
      </trkpt>
      <trkpt lat="40.96925" lon="44.6128">
        <ele>1188.221743</ele>
        <time>2021-08-12T17:39:20.323Z</time>
      </trkpt>
      <trkpt lat="40.96918" lon="44.61261">
        <ele>1186.64895</ele>
        <time>2021-08-12T17:39:25.824Z</time>
      </trkpt>
      <trkpt lat="40.96912" lon="44.61182">
        <ele>1180.925082</ele>
        <time>2021-08-12T17:39:46.142Z</time>
      </trkpt>
      <trkpt lat="40.96902" lon="44.61127">
        <ele>1176.84447</ele>
        <time>2021-08-12T17:40:00.910Z</time>
      </trkpt>
      <trkpt lat="40.96887" lon="44.6107">
        <ele>1172.538015</ele>
        <time>2021-08-12T17:40:17.137Z</time>
      </trkpt>
      <trkpt lat="40.96883" lon="44.61027">
        <ele>1171.630585</ele>
        <time>2021-08-12T17:40:29.692Z</time>
      </trkpt>
      <trkpt lat="40.96872" lon="44.6102">
        <ele>1171.303279</ele>
        <time>2021-08-12T17:40:34.350Z</time>
      </trkpt>
      <trkpt lat="40.96863" lon="44.61033">
        <ele>1170.953459</ele>
        <time>2021-08-12T17:40:39.458Z</time>
      </trkpt>
      <trkpt lat="40.96861" lon="44.61055">
        <ele>1170.487646</ele>
        <time>2021-08-12T17:40:46.532Z</time>
      </trkpt>
      <trkpt lat="40.9688" lon="44.6113">
        <ele>1168.85865</ele>
        <time>2021-08-12T17:41:13.764Z</time>
      </trkpt>
      <trkpt lat="40.96881" lon="44.61299">
        <ele>1165.963001</ele>
        <time>2021-08-12T17:42:22.463Z</time>
      </trkpt>
      <trkpt lat="40.96885" lon="44.61355">
        <ele>1165.113025</ele>
        <time>2021-08-12T17:42:42.136Z</time>
      </trkpt>
      <trkpt lat="40.96875" lon="44.61379">
        <ele>1164.696356</ele>
        <time>2021-08-12T17:42:50.860Z</time>
      </trkpt>
      <trkpt lat="40.96853" lon="44.61391">
        <ele>1164.209817</ele>
        <time>2021-08-12T17:42:59.911Z</time>
      </trkpt>
      <trkpt lat="40.96822" lon="44.61381">
        <ele>1161.878647</ele>
        <time>2021-08-12T17:43:11.774Z</time>
      </trkpt>
      <trkpt lat="40.96807" lon="44.61375">
        <ele>1160.465805</ele>
        <time>2021-08-12T17:43:17.311Z</time>
      </trkpt>
      <trkpt lat="40.96796" lon="44.61372">
        <ele>1159.390945</ele>
        <time>2021-08-12T17:43:21.252Z</time>
      </trkpt>
      <trkpt lat="40.96767" lon="44.61374">
        <ele>1156.626853</ele>
        <time>2021-08-12T17:43:31.432Z</time>
      </trkpt>
      <trkpt lat="40.96743" lon="44.61385">
        <ele>1154.25028</ele>
        <time>2021-08-12T17:43:40.112Z</time>
      </trkpt>
      <trkpt lat="40.9673" lon="44.6139">
        <ele>1152.944153</ele>
        <time>2021-08-12T17:43:44.702Z</time>
      </trkpt>
      <trkpt lat="40.96715" lon="44.61388">
        <ele>1151.552327</ele>
        <time>2021-08-12T17:43:49.760Z</time>
      </trkpt>
      <trkpt lat="40.96644" lon="44.61386">
        <ele>1144.90243</ele>
        <time>2021-08-12T17:44:13.250Z</time>
      </trkpt>
      <trkpt lat="40.96629" lon="44.61387">
        <ele>1143.496102</ele>
        <time>2021-08-12T17:44:18.373Z</time>
      </trkpt>
      <trkpt lat="40.96614" lon="44.61387">
        <ele>1142.089988</ele>
        <time>2021-08-12T17:44:23.478Z</time>
      </trkpt>
      <trkpt lat="40.96536" lon="44.6139">
        <ele>1134.699422</ele>
        <time>2021-08-12T17:44:50.868Z</time>
      </trkpt>
      <trkpt lat="40.965" lon="44.61399">
        <ele>1131.306071</ele>
        <time>2021-08-12T17:45:03.730Z</time>
      </trkpt>
      <trkpt lat="40.96438" lon="44.6145">
        <ele>1126.665634</ele>
        <time>2021-08-12T17:45:30.255Z</time>
      </trkpt>
      <trkpt lat="40.9639" lon="44.6146">
        <ele>1123.808977</ele>
        <time>2021-08-12T17:45:48.783Z</time>
      </trkpt>
      <trkpt lat="40.96348" lon="44.61511">
        <ele>1120.556</ele>
        <time>2021-08-12T17:46:10.391Z</time>
      </trkpt>
      <trkpt lat="40.96327" lon="44.61547">
        <ele>1118.999879</ele>
        <time>2021-08-12T17:46:24.157Z</time>
      </trkpt>
      <trkpt lat="40.96306" lon="44.61565">
        <ele>1118.087859</ele>
        <time>2021-08-12T17:46:34.246Z</time>
      </trkpt>
      <trkpt lat="40.96285" lon="44.61569">
        <ele>1117.29601</ele>
        <time>2021-08-12T17:46:43.067Z</time>
      </trkpt>
      <trkpt lat="40.96238" lon="44.6156">
        <ele>1115.543025</ele>
        <time>2021-08-12T17:47:02.668Z</time>
      </trkpt>
      <trkpt lat="40.96215" lon="44.61563">
        <ele>1114.698129</ele>
        <time>2021-08-12T17:47:12.339Z</time>
      </trkpt>
      <trkpt lat="40.96185" lon="44.61577">
        <ele>1113.546726</ele>
        <time>2021-08-12T17:47:25.240Z</time>
      </trkpt>
      <trkpt lat="40.96125" lon="44.61617">
        <ele>1109.77082</ele>
        <time>2021-08-12T17:47:51.927Z</time>
      </trkpt>
      <trkpt lat="40.96118" lon="44.61619">
        <ele>1109.299054</ele>
        <time>2021-08-12T17:47:55.181Z</time>
      </trkpt>
      <trkpt lat="40.96111" lon="44.61619">
        <ele>1108.912266</ele>
        <time>2021-08-12T17:47:57.471Z</time>
      </trkpt>
      <trkpt lat="40.96102" lon="44.6161">
        <ele>1108.265536</ele>
        <time>2021-08-12T17:48:01.701Z</time>
      </trkpt>
      <trkpt lat="40.96104" lon="44.61598">
        <ele>1107.712683</ele>
        <time>2021-08-12T17:48:05.319Z</time>
      </trkpt>
      <trkpt lat="40.96148" lon="44.61573">
        <ele>1104.819997</ele>
        <time>2021-08-12T17:48:23.201Z</time>
      </trkpt>
      <trkpt lat="40.96227" lon="44.61515">
        <ele>1097.757048</ele>
        <time>2021-08-12T17:48:54.779Z</time>
      </trkpt>
      <trkpt lat="40.96242" lon="44.6148">
        <ele>1094.95543</ele>
        <time>2021-08-12T17:49:05.310Z</time>
      </trkpt>
      <trkpt lat="40.96242" lon="44.61479">
        <ele>1094.865837</ele>
        <time>2021-08-12T17:49:05.629Z</time>
      </trkpt>
      <trkpt lat="40.96265" lon="44.61442">
        <ele>1091.509569</ele>
        <time>2021-08-12T17:49:18.048Z</time>
      </trkpt>
      <trkpt lat="40.96271" lon="44.61415">
        <ele>1089.562215</ele>
        <time>2021-08-12T17:49:25.315Z</time>
      </trkpt>
      <trkpt lat="40.9627" lon="44.61363">
        <ele>1085.864098</ele>
        <time>2021-08-12T17:49:39.079Z</time>
      </trkpt>
      <trkpt lat="40.96257" lon="44.61279">
        <ele>1081.104388</ele>
        <time>2021-08-12T17:50:01.541Z</time>
      </trkpt>
      <trkpt lat="40.96255" lon="44.61243">
        <ele>1079.092411</ele>
        <time>2021-08-12T17:50:11.364Z</time>
      </trkpt>
      <trkpt lat="40.96273" lon="44.61167">
        <ele>1074.668245</ele>
        <time>2021-08-12T17:50:33.542Z</time>
      </trkpt>
      <trkpt lat="40.96291" lon="44.61133">
        <ele>1072.435038</ele>
        <time>2021-08-12T17:50:45.560Z</time>
      </trkpt>
      <trkpt lat="40.96296" lon="44.61123">
        <ele>1071.965491</ele>
        <time>2021-08-12T17:50:48.931Z</time>
      </trkpt>
      <trkpt lat="40.96303" lon="44.61113">
        <ele>1071.424958</ele>
        <time>2021-08-12T17:50:53.349Z</time>
      </trkpt>
      <trkpt lat="40.96324" lon="44.61094">
        <ele>1070.107574</ele>
        <time>2021-08-12T17:51:03.256Z</time>
      </trkpt>
      <trkpt lat="40.96349" lon="44.61087">
        <ele>1068.790594</ele>
        <time>2021-08-12T17:51:13.683Z</time>
      </trkpt>
      <trkpt lat="40.96393" lon="44.61063">
        <ele>1066.380674</ele>
        <time>2021-08-12T17:51:31.891Z</time>
      </trkpt>
      <trkpt lat="40.96438" lon="44.61047">
        <ele>1064.007371</ele>
        <time>2021-08-12T17:51:49.764Z</time>
      </trkpt>
      <trkpt lat="40.96441" lon="44.61043">
        <ele>1063.750099</ele>
        <time>2021-08-12T17:51:51.662Z</time>
      </trkpt>
      <trkpt lat="40.9644" lon="44.61031">
        <ele>1063.263429</ele>
        <time>2021-08-12T17:51:54.999Z</time>
      </trkpt>
      <trkpt lat="40.9643" lon="44.61027">
        <ele>1062.432006</ele>
        <time>2021-08-12T17:51:58.780Z</time>
      </trkpt>
      <trkpt lat="40.96357" lon="44.61039">
        <ele>1056.380256</ele>
        <time>2021-08-12T17:52:25.289Z</time>
      </trkpt>
      <trkpt lat="40.96329" lon="44.61033">
        <ele>1054.088222</ele>
        <time>2021-08-12T17:52:35.062Z</time>
      </trkpt>
      <trkpt lat="40.96285" lon="44.61035">
        <ele>1050.509082</ele>
        <time>2021-08-12T17:52:50.144Z</time>
      </trkpt>
      <trkpt lat="40.96237" lon="44.61022">
        <ele>1046.29519</ele>
        <time>2021-08-12T17:53:07.068Z</time>
      </trkpt>
      <trkpt lat="40.96196" lon="44.61034">
        <ele>1042.564731</ele>
        <time>2021-08-12T17:53:21.683Z</time>
      </trkpt>
      <trkpt lat="40.9616" lon="44.61086">
        <ele>1037.859639</ele>
        <time>2021-08-12T17:53:40.700Z</time>
      </trkpt>
      <trkpt lat="40.96142" lon="44.61122">
        <ele>1034.89746</ele>
        <time>2021-08-12T17:53:52.395Z</time>
      </trkpt>
      <trkpt lat="40.96141" lon="44.61156">
        <ele>1032.633917</ele>
        <time>2021-08-12T17:54:01.346Z</time>
      </trkpt>
      <trkpt lat="40.96134" lon="44.61187">
        <ele>1029.918651</ele>
        <time>2021-08-12T17:54:09.902Z</time>
      </trkpt>
      <trkpt lat="40.96127" lon="44.61202">
        <ele>1028.356168</ele>
        <time>2021-08-12T17:54:14.457Z</time>
      </trkpt>
      <trkpt lat="40.96123" lon="44.61218">
        <ele>1026.899898</ele>
        <time>2021-08-12T17:54:18.901Z</time>
      </trkpt>
      <trkpt lat="40.96118" lon="44.61241">
        <ele>1024.904172</ele>
        <time>2021-08-12T17:54:24.719Z</time>
      </trkpt>
      <trkpt lat="40.96105" lon="44.61249">
        <ele>1023.289261</ele>
        <time>2021-08-12T17:54:29.516Z</time>
      </trkpt>
      <trkpt lat="40.96099" lon="44.6125">
        <ele>1022.6759</ele>
        <time>2021-08-12T17:54:31.252Z</time>
      </trkpt>
      <trkpt lat="40.96085" lon="44.61249">
        <ele>1021.092695</ele>
        <time>2021-08-12T17:54:35.823Z</time>
      </trkpt>
      <trkpt lat="40.96057" lon="44.6125">
        <ele>1017.89342</ele>
        <time>2021-08-12T17:54:45.252Z</time>
      </trkpt>
      <trkpt lat="40.96027" lon="44.61261">
        <ele>1014.404827</ele>
        <time>2021-08-12T17:54:55.603Z</time>
      </trkpt>
      <trkpt lat="40.96009" lon="44.61269">
        <ele>1012.20725</ele>
        <time>2021-08-12T17:55:02.335Z</time>
      </trkpt>
      <trkpt lat="40.95998" lon="44.61277">
        <ele>1011.074465</ele>
        <time>2021-08-12T17:55:06.578Z</time>
      </trkpt>
      <trkpt lat="40.95995" lon="44.61279">
        <ele>1010.744556</ele>
        <time>2021-08-12T17:55:07.678Z</time>
      </trkpt>
      <trkpt lat="40.95979" lon="44.61291">
        <ele>1009.005424</ele>
        <time>2021-08-12T17:55:14.092Z</time>
      </trkpt>
      <trkpt lat="40.95966" lon="44.61284">
        <ele>1007.709617</ele>
        <time>2021-08-12T17:55:18.972Z</time>
      </trkpt>
      <trkpt lat="40.95964" lon="44.6128">
        <ele>1007.374883</ele>
        <time>2021-08-12T17:55:20.092Z</time>
      </trkpt>
      <trkpt lat="40.95964" lon="44.61274">
        <ele>1007.007702</ele>
        <time>2021-08-12T17:55:21.459Z</time>
      </trkpt>
      <trkpt lat="40.96002" lon="44.61188">
        <ele>999.897375</ele>
        <time>2021-08-12T17:55:47.400Z</time>
      </trkpt>
      <trkpt lat="40.96008" lon="44.61168">
        <ele>998.386406</ele>
        <time>2021-08-12T17:55:53.210Z</time>
      </trkpt>
      <trkpt lat="40.96012" lon="44.61145">
        <ele>996.72632</ele>
        <time>2021-08-12T17:55:59.179Z</time>
      </trkpt>
      <trkpt lat="40.96017" lon="44.61117">
        <ele>995.053408</ele>
        <time>2021-08-12T17:56:08.200Z</time>
      </trkpt>
      <trkpt lat="40.96022" lon="44.61088">
        <ele>994.00805</ele>
        <time>2021-08-12T17:56:16.583Z</time>
      </trkpt>
      <trkpt lat="40.96027" lon="44.61064">
        <ele>993.126972</ele>
        <time>2021-08-12T17:56:24.044Z</time>
      </trkpt>
      <trkpt lat="40.9603" lon="44.61033">
        <ele>992.022509</ele>
        <time>2021-08-12T17:56:34.140Z</time>
      </trkpt>
      <trkpt lat="40.96035" lon="44.6101">
        <ele>991.172895</ele>
        <time>2021-08-12T17:56:41.309Z</time>
      </trkpt>
      <trkpt lat="40.96041" lon="44.60987">
        <ele>990.321958</ele>
        <time>2021-08-12T17:56:48.835Z</time>
      </trkpt>
      <trkpt lat="40.96051" lon="44.60953">
        <ele>989.030995</ele>
        <time>2021-08-12T17:56:59.839Z</time>
      </trkpt>
      <trkpt lat="40.96057" lon="44.6093">
        <ele>988.17453</ele>
        <time>2021-08-12T17:57:06.687Z</time>
      </trkpt>
      <trkpt lat="40.96064" lon="44.60899">
        <ele>987.025157</ele>
        <time>2021-08-12T17:57:16.475Z</time>
      </trkpt>
      <trkpt lat="40.9607" lon="44.60868">
        <ele>986.367163</ele>
        <time>2021-08-12T17:57:25.866Z</time>
      </trkpt>
      <trkpt lat="40.96077" lon="44.60837">
        <ele>985.708301</ele>
        <time>2021-08-12T17:57:35.437Z</time>
      </trkpt>
      <trkpt lat="40.96083" lon="44.60809">
        <ele>985.101742</ele>
        <time>2021-08-12T17:57:44.527Z</time>
      </trkpt>
      <trkpt lat="40.96089" lon="44.60793">
        <ele>984.745652</ele>
        <time>2021-08-12T17:57:49.992Z</time>
      </trkpt>
      <trkpt lat="40.96134" lon="44.60726">
        <ele>982.899126</ele>
        <time>2021-08-12T17:58:20.518Z</time>
      </trkpt>
      <trkpt lat="40.96151" lon="44.60645">
        <ele>981.876603</ele>
        <time>2021-08-12T17:58:49.922Z</time>
      </trkpt>
      <trkpt lat="40.96155" lon="44.60614">
        <ele>981.69562</ele>
        <time>2021-08-12T17:59:01.628Z</time>
      </trkpt>
      <trkpt lat="40.96154" lon="44.60584">
        <ele>981.52115</ele>
        <time>2021-08-12T17:59:12.879Z</time>
      </trkpt>
      <trkpt lat="40.9614" lon="44.60523">
        <ele>981.156476</ele>
        <time>2021-08-12T17:59:36.696Z</time>
      </trkpt>
      <trkpt lat="40.96137" lon="44.60512">
        <ele>981.090016</ele>
        <time>2021-08-12T17:59:40.745Z</time>
      </trkpt>
      <trkpt lat="40.96132" lon="44.60501">
        <ele>981.018551</ele>
        <time>2021-08-12T17:59:45.614Z</time>
      </trkpt>
      <trkpt lat="40.96054" lon="44.60348">
        <ele>980.401919</ele>
        <time>2021-08-12T18:00:53.710Z</time>
      </trkpt>
      <trkpt lat="40.96049" lon="44.60334">
        <ele>980.359505</ele>
        <time>2021-08-12T18:00:59.967Z</time>
      </trkpt>
      <trkpt lat="40.96042" lon="44.60323">
        <ele>980.322101</ele>
        <time>2021-08-12T18:01:05.054Z</time>
      </trkpt>
      <trkpt lat="40.96029" lon="44.60301">
        <ele>980.248532</ele>
        <time>2021-08-12T18:01:16.869Z</time>
      </trkpt>
      <trkpt lat="40.95969" lon="44.60233">
        <ele>980.365511</ele>
        <time>2021-08-12T18:01:58.413Z</time>
      </trkpt>
      <trkpt lat="40.95941" lon="44.60188">
        <ele>980.552888</ele>
        <time>2021-08-12T18:02:21.667Z</time>
      </trkpt>
      <trkpt lat="40.95937" lon="44.60178">
        <ele>980.590848</ele>
        <time>2021-08-12T18:02:26.812Z</time>
      </trkpt>
      <trkpt lat="40.95928" lon="44.60171">
        <ele>980.633646</ele>
        <time>2021-08-12T18:02:32.798Z</time>
      </trkpt>
      <trkpt lat="40.95906" lon="44.60139">
        <ele>980.772886</ele>
        <time>2021-08-12T18:02:50.909Z</time>
      </trkpt>
      <trkpt lat="40.95891" lon="44.60066">
        <ele>981.050022</ele>
        <time>2021-08-12T18:03:22.369Z</time>
      </trkpt>
      <trkpt lat="40.95883" lon="44.60049">
        <ele>981.138051</ele>
        <time>2021-08-12T18:03:31.544Z</time>
      </trkpt>
      <trkpt lat="40.95876" lon="44.60038">
        <ele>981.199818</ele>
        <time>2021-08-12T18:03:37.309Z</time>
      </trkpt>
      <trkpt lat="40.95846" lon="44.59986">
        <ele>981.481273</ele>
        <time>2021-08-12T18:04:04.801Z</time>
      </trkpt>
      <trkpt lat="40.95839" lon="44.59947">
        <ele>981.655409</ele>
        <time>2021-08-12T18:04:21.222Z</time>
      </trkpt>
      <trkpt lat="40.95829" lon="44.5992">
        <ele>981.784591</ele>
        <time>2021-08-12T18:04:33.651Z</time>
      </trkpt>
      <trkpt lat="40.95791" lon="44.59875">
        <ele>982.146157</ele>
        <time>2021-08-12T18:05:00.978Z</time>
      </trkpt>
      <trkpt lat="40.95746" lon="44.59794">
        <ele>982.819325</ele>
        <time>2021-08-12T18:05:43.420Z</time>
      </trkpt>
      <trkpt lat="40.95693" lon="44.59713">
        <ele>983.53884</ele>
        <time>2021-08-12T18:06:30.756Z</time>
      </trkpt>
      <trkpt lat="40.95677" lon="44.59676">
        <ele>983.888883</ele>
        <time>2021-08-12T18:06:50.121Z</time>
      </trkpt>
      <trkpt lat="40.95666" lon="44.59634">
        <ele>984.251524</ele>
        <time>2021-08-12T18:07:11.017Z</time>
      </trkpt>
      <trkpt lat="40.95664" lon="44.59598">
        <ele>984.549355</ele>
        <time>2021-08-12T18:07:27.637Z</time>
      </trkpt>
      <trkpt lat="40.95666" lon="44.59551">
        <ele>984.935287</ele>
        <time>2021-08-12T18:07:48.050Z</time>
      </trkpt>
      <trkpt lat="40.95679" lon="44.59477">
        <ele>985.473251</ele>
        <time>2021-08-12T18:08:19.405Z</time>
      </trkpt>
      <trkpt lat="40.95684" lon="44.59443">
        <ele>985.412043</ele>
        <time>2021-08-12T18:08:34.037Z</time>
      </trkpt>
      <trkpt lat="40.9569" lon="44.59417">
        <ele>985.36497</ele>
        <time>2021-08-12T18:08:44.569Z</time>
      </trkpt>
      <trkpt lat="40.95692" lon="44.59401">
        <ele>985.335755</ele>
        <time>2021-08-12T18:08:51.125Z</time>
      </trkpt>
      <trkpt lat="40.95691" lon="44.59392">
        <ele>985.319994</ele>
        <time>2021-08-12T18:08:54.126Z</time>
      </trkpt>
      <trkpt lat="40.95618" lon="44.5925">
        <ele>985.123475</ele>
        <time>2021-08-12T18:09:58.465Z</time>
      </trkpt>
      <trkpt lat="40.95612" lon="44.59238">
        <ele>985.148383</ele>
        <time>2021-08-12T18:10:03.414Z</time>
      </trkpt>
      <trkpt lat="40.956" lon="44.59236">
        <ele>985.176067</ele>
        <time>2021-08-12T18:10:09.426Z</time>
      </trkpt>
      <trkpt lat="40.95586" lon="44.59236">
        <ele>985.207419</ele>
        <time>2021-08-12T18:10:16.399Z</time>
      </trkpt>
      <trkpt lat="40.95577" lon="44.59236">
        <ele>985.227445</ele>
        <time>2021-08-12T18:10:20.694Z</time>
      </trkpt>
      <trkpt lat="40.95535" lon="44.59241">
        <ele>985.32407</ele>
        <time>2021-08-12T18:10:34.243Z</time>
      </trkpt>
      <trkpt lat="40.95524" lon="44.59242">
        <ele>985.348195</ele>
        <time>2021-08-12T18:10:37.808Z</time>
      </trkpt>
      <trkpt lat="40.95505" lon="44.59244">
        <ele>985.391894</ele>
        <time>2021-08-12T18:10:44.442Z</time>
      </trkpt>
      <trkpt lat="40.95486" lon="44.59246">
        <ele>985.434448</ele>
        <time>2021-08-12T18:10:51.180Z</time>
      </trkpt>
      <trkpt lat="40.95466" lon="44.59249">
        <ele>985.48674</ele>
        <time>2021-08-12T18:10:58.931Z</time>
      </trkpt>
      <trkpt lat="40.95429" lon="44.59259">
        <ele>986.353626</ele>
        <time>2021-08-12T18:11:13.769Z</time>
      </trkpt>
      <trkpt lat="40.95415" lon="44.59263">
        <ele>986.691142</ele>
        <time>2021-08-12T18:11:19.502Z</time>
      </trkpt>
      <trkpt lat="40.95403" lon="44.59274">
        <ele>987.035969</ele>
        <time>2021-08-12T18:11:25.895Z</time>
      </trkpt>
      <trkpt lat="40.95389" lon="44.5929">
        <ele>987.478586</ele>
        <time>2021-08-12T18:11:33.707Z</time>
      </trkpt>
      <trkpt lat="40.95336" lon="44.59436">
        <ele>990.885348</ele>
        <time>2021-08-12T18:12:32.024Z</time>
      </trkpt>
      <trkpt lat="40.95345" lon="44.59482">
        <ele>992.402455</ele>
        <time>2021-08-12T18:12:51.301Z</time>
      </trkpt>
      <trkpt lat="40.95369" lon="44.59541">
        <ele>994.545899</ele>
        <time>2021-08-12T18:13:19.919Z</time>
      </trkpt>
      <trkpt lat="40.95377" lon="44.59573">
        <ele>995.645153</ele>
        <time>2021-08-12T18:13:33.497Z</time>
      </trkpt>
      <trkpt lat="40.95377" lon="44.59583">
        <ele>995.970139</ele>
        <time>2021-08-12T18:13:38.582Z</time>
      </trkpt>
      <trkpt lat="40.95377" lon="44.59588">
        <ele>996.127809</ele>
        <time>2021-08-12T18:13:41.312Z</time>
      </trkpt>
      <trkpt lat="40.95388" lon="44.5967">
        <ele>999.242954</ele>
        <time>2021-08-12T18:14:17.349Z</time>
      </trkpt>
      <trkpt lat="40.95387" lon="44.59733">
        <ele>1001.94392</ele>
        <time>2021-08-12T18:14:48.137Z</time>
      </trkpt>
      <trkpt lat="40.95393" lon="44.59769">
        <ele>1003.538418</ele>
        <time>2021-08-12T18:15:05.517Z</time>
      </trkpt>
      <trkpt lat="40.95408" lon="44.59813">
        <ele>1005.569493</ele>
        <time>2021-08-12T18:15:27.748Z</time>
      </trkpt>
      <trkpt lat="40.95435" lon="44.59859">
        <ele>1008.228366</ele>
        <time>2021-08-12T18:15:55.441Z</time>
      </trkpt>
      <trkpt lat="40.95458" lon="44.59913">
        <ele>1011.58236</ele>
        <time>2021-08-12T18:16:31.033Z</time>
      </trkpt>
      <trkpt lat="40.95468" lon="44.5997">
        <ele>1014.778812</ele>
        <time>2021-08-12T18:17:02.908Z</time>
      </trkpt>
      <trkpt lat="40.95465" lon="44.60032">
        <ele>1018.180559</ele>
        <time>2021-08-12T18:17:35.915Z</time>
      </trkpt>
      <trkpt lat="40.95464" lon="44.60039">
        <ele>1018.543276</ele>
        <time>2021-08-12T18:17:40.078Z</time>
      </trkpt>
      <trkpt lat="40.95458" lon="44.60051">
        <ele>1019.322695</ele>
        <time>2021-08-12T18:17:49.688Z</time>
      </trkpt>
      <trkpt lat="40.95418" lon="44.60108">
        <ele>1023.915575</ele>
        <time>2021-08-12T18:18:30.904Z</time>
      </trkpt>
      <trkpt lat="40.95413" lon="44.60136">
        <ele>1025.653586</ele>
        <time>2021-08-12T18:18:47.820Z</time>
      </trkpt>
      <trkpt lat="40.95433" lon="44.60232">
        <ele>1031.750496</ele>
        <time>2021-08-12T18:19:48.739Z</time>
      </trkpt>
      <trkpt lat="40.95441" lon="44.60267">
        <ele>1033.958194</ele>
        <time>2021-08-12T18:20:07.775Z</time>
      </trkpt>
      <trkpt lat="40.95473" lon="44.60346">
        <ele>1039.678095</ele>
        <time>2021-08-12T18:20:58.828Z</time>
      </trkpt>
      <trkpt lat="40.95476" lon="44.60355">
        <ele>1040.342126</ele>
        <time>2021-08-12T18:21:04.299Z</time>
      </trkpt>
      <trkpt lat="40.95479" lon="44.60365">
        <ele>1041.054462</ele>
        <time>2021-08-12T18:21:12.941Z</time>
      </trkpt>
      <trkpt lat="40.95479" lon="44.6045">
        <ele>1046.542502</ele>
        <time>2021-08-12T18:22:02.985Z</time>
      </trkpt>
      <trkpt lat="40.95456" lon="44.6052">
        <ele>1051.543491</ele>
        <time>2021-08-12T18:22:51.622Z</time>
      </trkpt>
      <trkpt lat="40.95463" lon="44.60637">
        <ele>1059.324783</ele>
        <time>2021-08-12T18:24:03.636Z</time>
      </trkpt>
      <trkpt lat="40.95454" lon="44.60701">
        <ele>1063.636201</ele>
        <time>2021-08-12T18:24:42.837Z</time>
      </trkpt>
      <trkpt lat="40.95472" lon="44.60785">
        <ele>1069.340517</ele>
        <time>2021-08-12T18:25:34.391Z</time>
      </trkpt>
      <trkpt lat="40.95471" lon="44.60833">
        <ele>1072.389665</ele>
        <time>2021-08-12T18:26:02.346Z</time>
      </trkpt>
      <trkpt lat="40.95469" lon="44.60851">
        <ele>1073.599484</ele>
        <time>2021-08-12T18:26:13.746Z</time>
      </trkpt>
      <trkpt lat="40.95446" lon="44.60899">
        <ele>1077.237839</ele>
        <time>2021-08-12T18:26:47.709Z</time>
      </trkpt>
      <trkpt lat="40.95442" lon="44.60923">
        <ele>1078.794279</ele>
        <time>2021-08-12T18:27:02.074Z</time>
      </trkpt>
      <trkpt lat="40.95444" lon="44.60938">
        <ele>1079.828121</ele>
        <time>2021-08-12T18:27:11.969Z</time>
      </trkpt>
      <trkpt lat="40.95463" lon="44.60967">
        <ele>1082.290056</ele>
        <time>2021-08-12T18:27:34.305Z</time>
      </trkpt>
      <trkpt lat="40.95476" lon="44.61012">
        <ele>1085.460441</ele>
        <time>2021-08-12T18:28:02.460Z</time>
      </trkpt>
      <trkpt lat="40.95483" lon="44.61061">
        <ele>1088.781385</ele>
        <time>2021-08-12T18:28:33.892Z</time>
      </trkpt>
      <trkpt lat="40.95497" lon="44.61096">
        <ele>1091.348166</ele>
        <time>2021-08-12T18:28:59.685Z</time>
      </trkpt>
      <trkpt lat="40.95513" lon="44.61161">
        <ele>1095.894859</ele>
        <time>2021-08-12T18:29:41.521Z</time>
      </trkpt>
      <trkpt lat="40.95519" lon="44.61215">
        <ele>1098.524361</ele>
        <time>2021-08-12T18:30:12.457Z</time>
      </trkpt>
      <trkpt lat="40.95522" lon="44.61224">
        <ele>1098.911352</ele>
        <time>2021-08-12T18:30:20.638Z</time>
      </trkpt>
      <trkpt lat="40.95527" lon="44.6124">
        <ele>1099.559206</ele>
        <time>2021-08-12T18:30:29.519Z</time>
      </trkpt>
      <trkpt lat="40.95534" lon="44.61264">
        <ele>1100.515121</ele>
        <time>2021-08-12T18:30:39.780Z</time>
      </trkpt>
      <trkpt lat="40.9553" lon="44.61268">
        <ele>1100.731861</ele>
        <time>2021-08-12T18:30:44.062Z</time>
      </trkpt>
      <trkpt lat="40.95527" lon="44.6127">
        <ele>1100.902762</ele>
        <time>2021-08-12T18:30:45.667Z</time>
      </trkpt>
      <trkpt lat="40.95521" lon="44.61267">
        <ele>1101.212592</ele>
        <time>2021-08-12T18:30:49.171Z</time>
      </trkpt>
      <trkpt lat="40.95526" lon="44.61275">
        <ele>1101.583168</ele>
        <time>2021-08-12T18:30:51.446Z</time>
      </trkpt>
      <trkpt lat="40.9553" lon="44.61281">
        <ele>1101.898886</ele>
        <time>2021-08-12T18:30:53.959Z</time>
      </trkpt>
      <trkpt lat="40.95537" lon="44.61295">
        <ele>1102.528208</ele>
        <time>2021-08-12T18:31:05.784Z</time>
      </trkpt>
      <trkpt lat="40.95541" lon="44.6133">
        <ele>1103.837574</ele>
        <time>2021-08-12T18:31:21.910Z</time>
      </trkpt>
      <trkpt lat="40.95538" lon="44.61379">
        <ele>1105.688773</ele>
        <time>2021-08-12T18:31:48.859Z</time>
      </trkpt>
      <trkpt lat="40.95536" lon="44.61393">
        <ele>1106.204509</ele>
        <time>2021-08-12T18:31:58.970Z</time>
      </trkpt>
      <trkpt lat="40.95532" lon="44.61408">
        <ele>1106.61017</ele>
        <time>2021-08-12T18:32:04.232Z</time>
      </trkpt>
      <trkpt lat="40.9553" lon="44.61413">
        <ele>1106.745769</ele>
        <time>2021-08-12T18:32:05.510Z</time>
      </trkpt>
      <trkpt lat="40.95526" lon="44.61428">
        <ele>1107.147955</ele>
        <time>2021-08-12T18:32:11.255Z</time>
      </trkpt>
      <trkpt lat="40.95523" lon="44.6144">
        <ele>1107.447053</ele>
        <time>2021-08-12T18:32:16.580Z</time>
      </trkpt>
      <trkpt lat="40.95519" lon="44.61455">
        <ele>1107.84374</ele>
        <time>2021-08-12T18:32:21.173Z</time>
      </trkpt>
      <trkpt lat="40.95516" lon="44.61488">
        <ele>1108.665179</ele>
        <time>2021-08-12T18:32:32.356Z</time>
      </trkpt>
      <trkpt lat="40.95509" lon="44.61506">
        <ele>1109.160886</ele>
        <time>2021-08-12T18:32:38.166Z</time>
      </trkpt>
      <trkpt lat="40.95487" lon="44.61525">
        <ele>1110.041715</ele>
        <time>2021-08-12T18:32:50.760Z</time>
      </trkpt>
      <trkpt lat="40.95452" lon="44.61524">
        <ele>1111.180531</ele>
        <time>2021-08-12T18:33:08.047Z</time>
      </trkpt>
      <trkpt lat="40.9538" lon="44.61496">
        <ele>1114.13969</ele>
        <time>2021-08-12T18:33:51.355Z</time>
      </trkpt>
      <trkpt lat="40.95333" lon="44.61499">
        <ele>1116.225447</ele>
        <time>2021-08-12T18:34:22.067Z</time>
      </trkpt>
      <trkpt lat="40.95321" lon="44.6151">
        <ele>1116.88412</ele>
        <time>2021-08-12T18:34:31.579Z</time>
      </trkpt>
      <trkpt lat="40.95317" lon="44.61529">
        <ele>1117.518614</ele>
        <time>2021-08-12T18:34:40.501Z</time>
      </trkpt>
      <trkpt lat="40.95321" lon="44.61564">
        <ele>1118.697973</ele>
        <time>2021-08-12T18:34:55.769Z</time>
      </trkpt>
      <trkpt lat="40.95364" lon="44.61711">
        <ele>1120.219704</ele>
        <time>2021-08-12T18:35:42.967Z</time>
      </trkpt>
      <trkpt lat="40.95361" lon="44.61745">
        <ele>1120.28854</ele>
        <time>2021-08-12T18:35:50.551Z</time>
      </trkpt>
      <trkpt lat="40.95345" lon="44.61797">
        <ele>1120.400694</ele>
        <time>2021-08-12T18:36:01.699Z</time>
      </trkpt>
      <trkpt lat="40.9534" lon="44.61801">
        <ele>1120.415591</ele>
        <time>2021-08-12T18:36:02.858Z</time>
      </trkpt>
      <trkpt lat="40.95328" lon="44.61833">
        <ele>1120.28285</ele>
        <time>2021-08-12T18:36:15.927Z</time>
      </trkpt>
      <trkpt lat="40.95323" lon="44.61863">
        <ele>1119.920809</ele>
        <time>2021-08-12T18:36:25.802Z</time>
      </trkpt>
      <trkpt lat="40.95283" lon="44.62261">
        <ele>1114.523385</ele>
        <time>2021-08-12T18:38:44.365Z</time>
      </trkpt>
      <trkpt lat="40.95281" lon="44.62353">
        <ele>1111.051725</ele>
        <time>2021-08-12T18:39:12.564Z</time>
      </trkpt>
      <trkpt lat="40.95282" lon="44.62377">
        <ele>1109.920523</ele>
        <time>2021-08-12T18:39:19.443Z</time>
      </trkpt>
      <trkpt lat="40.95293" lon="44.6242">
        <ele>1107.740263</ele>
        <time>2021-08-12T18:39:32.356Z</time>
      </trkpt>
      <trkpt lat="40.95351" lon="44.62525">
        <ele>1100.558318</ele>
        <time>2021-08-12T18:40:07.007Z</time>
      </trkpt>
      <trkpt lat="40.95352" lon="44.62536">
        <ele>1099.571033</ele>
        <time>2021-08-12T18:40:09.955Z</time>
      </trkpt>
      <trkpt lat="40.95343" lon="44.62553">
        <ele>1097.835126</ele>
        <time>2021-08-12T18:40:15.110Z</time>
      </trkpt>
      <trkpt lat="40.95313" lon="44.62567">
        <ele>1094.171805</ele>
        <time>2021-08-12T18:40:25.877Z</time>
      </trkpt>
      <trkpt lat="40.9525" lon="44.62568">
        <ele>1086.999615</ele>
        <time>2021-08-12T18:40:46.653Z</time>
      </trkpt>
      <trkpt lat="40.95207" lon="44.62581">
        <ele>1081.949385</ele>
        <time>2021-08-12T18:41:01.197Z</time>
      </trkpt>
      <trkpt lat="40.952" lon="44.62588">
        <ele>1080.890753</ele>
        <time>2021-08-12T18:41:04.292Z</time>
      </trkpt>
      <trkpt lat="40.95195" lon="44.62605">
        <ele>1079.407423</ele>
        <time>2021-08-12T18:41:08.604Z</time>
      </trkpt>
      <trkpt lat="40.95207" lon="44.62633">
        <ele>1076.587754</ele>
        <time>2021-08-12T18:41:16.874Z</time>
      </trkpt>
      <trkpt lat="40.95209" lon="44.62656">
        <ele>1074.644009</ele>
        <time>2021-08-12T18:41:22.588Z</time>
      </trkpt>
      <trkpt lat="40.95202" lon="44.62674">
        <ele>1072.892307</ele>
        <time>2021-08-12T18:41:27.762Z</time>
      </trkpt>
      <trkpt lat="40.95192" lon="44.6268">
        <ele>1071.68724</ele>
        <time>2021-08-12T18:41:31.296Z</time>
      </trkpt>
      <trkpt lat="40.95153" lon="44.62676">
        <ele>1067.227672</ele>
        <time>2021-08-12T18:41:44.631Z</time>
      </trkpt>
      <trkpt lat="40.95107" lon="44.62652">
        <ele>1061.722096</ele>
        <time>2021-08-12T18:42:01.498Z</time>
      </trkpt>
      <trkpt lat="40.95055" lon="44.62648">
        <ele>1058.470898</ele>
        <time>2021-08-12T18:42:20.140Z</time>
      </trkpt>
      <trkpt lat="40.95018" lon="44.62598">
        <ele>1055.214955</ele>
        <time>2021-08-12T18:42:39.920Z</time>
      </trkpt>
      <trkpt lat="40.9498" lon="44.6258">
        <ele>1052.719562</ele>
        <time>2021-08-12T18:42:55.652Z</time>
      </trkpt>
      <trkpt lat="40.94898" lon="44.6259">
        <ele>1048.249515</ele>
        <time>2021-08-12T18:43:28.116Z</time>
      </trkpt>
      <trkpt lat="40.94859" lon="44.62581">
        <ele>1046.351569</ele>
        <time>2021-08-12T18:43:43.287Z</time>
      </trkpt>
      <trkpt lat="40.94853" lon="44.62597">
        <ele>1045.696832</ele>
        <time>2021-08-12T18:43:48.499Z</time>
      </trkpt>
      <trkpt lat="40.94864" lon="44.62613">
        <ele>1044.894027</ele>
        <time>2021-08-12T18:43:54.863Z</time>
      </trkpt>
      <trkpt lat="40.94881" lon="44.62609">
        <ele>1044.05705</ele>
        <time>2021-08-12T18:44:01.561Z</time>
      </trkpt>
      <trkpt lat="40.94918" lon="44.62612">
        <ele>1042.224578</ele>
        <time>2021-08-12T18:44:16.153Z</time>
      </trkpt>
      <trkpt lat="40.94949" lon="44.62602">
        <ele>1040.422903</ele>
        <time>2021-08-12T18:44:28.303Z</time>
      </trkpt>
      <trkpt lat="40.94962" lon="44.62603">
        <ele>1039.671862</ele>
        <time>2021-08-12T18:44:33.056Z</time>
      </trkpt>
      <trkpt lat="40.94992" lon="44.62618">
        <ele>1037.772518</ele>
        <time>2021-08-12T18:44:44.970Z</time>
      </trkpt>
      <trkpt lat="40.95006" lon="44.6263">
        <ele>1036.822163</ele>
        <time>2021-08-12T18:44:50.827Z</time>
      </trkpt>
      <trkpt lat="40.95036" lon="44.62679">
        <ele>1034.024117</ele>
        <time>2021-08-12T18:45:08.486Z</time>
      </trkpt>
      <trkpt lat="40.9504" lon="44.62693">
        <ele>1033.376208</ele>
        <time>2021-08-12T18:45:12.619Z</time>
      </trkpt>
      <trkpt lat="40.95036" lon="44.627">
        <ele>1032.962636</ele>
        <time>2021-08-12T18:45:15.249Z</time>
      </trkpt>
      <trkpt lat="40.95027" lon="44.627">
        <ele>1032.440487</ele>
        <time>2021-08-12T18:45:18.685Z</time>
      </trkpt>
      <trkpt lat="40.95002" lon="44.62648">
        <ele>1029.570239</ele>
        <time>2021-08-12T18:45:36.777Z</time>
      </trkpt>
      <trkpt lat="40.94981" lon="44.62632">
        <ele>1027.989762</ele>
        <time>2021-08-12T18:45:46.005Z</time>
      </trkpt>
      <trkpt lat="40.94957" lon="44.62626">
        <ele>1026.388313</ele>
        <time>2021-08-12T18:45:55.363Z</time>
      </trkpt>
      <trkpt lat="40.94935" lon="44.62633">
        <ele>1024.913596</ele>
        <time>2021-08-12T18:46:03.819Z</time>
      </trkpt>
      <trkpt lat="40.94893" lon="44.62674">
        <ele>1021.590112</ele>
        <time>2021-08-12T18:46:22.266Z</time>
      </trkpt>
      <trkpt lat="40.94875" lon="44.6268">
        <ele>1020.344182</ele>
        <time>2021-08-12T18:46:29.165Z</time>
      </trkpt>
      <trkpt lat="40.94852" lon="44.62674">
        <ele>1018.426812</ele>
        <time>2021-08-12T18:46:37.467Z</time>
      </trkpt>
      <trkpt lat="40.94836" lon="44.62654">
        <ele>1016.340537</ele>
        <time>2021-08-12T18:46:45.274Z</time>
      </trkpt>
      <trkpt lat="40.9481" lon="44.62638">
        <ele>1013.611357</ele>
        <time>2021-08-12T18:46:55.389Z</time>
      </trkpt>
      <trkpt lat="40.94789" lon="44.62639">
        <ele>1011.583816</ele>
        <time>2021-08-12T18:47:02.678Z</time>
      </trkpt>
      <trkpt lat="40.94762" lon="44.62688">
        <ele>1007.187139</ele>
        <time>2021-08-12T18:47:18.285Z</time>
      </trkpt>
      <trkpt lat="40.94759" lon="44.62707">
        <ele>1005.800811</ele>
        <time>2021-08-12T18:47:23.098Z</time>
      </trkpt>
      <trkpt lat="40.94746" lon="44.62725">
        <ele>1003.98143</ele>
        <time>2021-08-12T18:47:29.535Z</time>
      </trkpt>
      <trkpt lat="40.94703" lon="44.62705">
        <ele>1000.482025</ele>
        <time>2021-08-12T18:47:45.058Z</time>
      </trkpt>
      <trkpt lat="40.9469" lon="44.62712">
        <ele>999.558471</ele>
        <time>2021-08-12T18:47:49.758Z</time>
      </trkpt>
      <trkpt lat="40.94664" lon="44.62725">
        <ele>997.640869</ele>
        <time>2021-08-12T18:47:59.879Z</time>
      </trkpt>
      <trkpt lat="40.94634" lon="44.62717">
        <ele>995.603497</ele>
        <time>2021-08-12T18:48:10.852Z</time>
      </trkpt>
      <trkpt lat="40.94628" lon="44.62725">
        <ele>995.053686</ele>
        <time>2021-08-12T18:48:13.758Z</time>
      </trkpt>
      <trkpt lat="40.9463" lon="44.62732">
        <ele>994.64215</ele>
        <time>2021-08-12T18:48:15.994Z</time>
      </trkpt>
      <trkpt lat="40.94641" lon="44.62739">
        <ele>993.820388</ele>
        <time>2021-08-12T18:48:20.689Z</time>
      </trkpt>
      <trkpt lat="40.94659" lon="44.6274">
        <ele>992.571061</ele>
        <time>2021-08-12T18:48:27.717Z</time>
      </trkpt>
      <trkpt lat="40.94699" lon="44.62726">
        <ele>990.158133</ele>
        <time>2021-08-12T18:48:44.330Z</time>
      </trkpt>
      <trkpt lat="40.94741" lon="44.62754">
        <ele>989.251055</ele>
        <time>2021-08-12T18:49:05.500Z</time>
      </trkpt>
      <trkpt lat="40.94755" lon="44.62758">
        <ele>988.974533</ele>
        <time>2021-08-12T18:49:12.311Z</time>
      </trkpt>
      <trkpt lat="40.94768" lon="44.62747">
        <ele>988.680333</ele>
        <time>2021-08-12T18:49:19.714Z</time>
      </trkpt>
      <trkpt lat="40.94795" lon="44.6269">
        <ele>987.697867</ele>
        <time>2021-08-12T18:49:44.725Z</time>
      </trkpt>
      <trkpt lat="40.9481" lon="44.62687">
        <ele>987.394608</ele>
        <time>2021-08-12T18:49:51.959Z</time>
      </trkpt>
      <trkpt lat="40.94848" lon="44.62743">
        <ele>985.615601</ele>
        <time>2021-08-12T18:50:16.183Z</time>
      </trkpt>
      <trkpt lat="40.94859" lon="44.6275">
        <ele>985.112071</ele>
        <time>2021-08-12T18:50:21.050Z</time>
      </trkpt>
      <trkpt lat="40.94942" lon="44.62727">
        <ele>981.468231</ele>
        <time>2021-08-12T18:50:54.701Z</time>
      </trkpt>
      <trkpt lat="40.94961" lon="44.62731">
        <ele>980.618682</ele>
        <time>2021-08-12T18:51:02.054Z</time>
      </trkpt>
      <trkpt lat="40.9498" lon="44.62757">
        <ele>979.45694</ele>
        <time>2021-08-12T18:51:12.109Z</time>
      </trkpt>
      <trkpt lat="40.9499" lon="44.62807">
        <ele>977.176887</ele>
        <time>2021-08-12T18:51:26.538Z</time>
      </trkpt>
      <trkpt lat="40.94983" lon="44.62813">
        <ele>976.663659</ele>
        <time>2021-08-12T18:51:29.547Z</time>
      </trkpt>
      <trkpt lat="40.94973" lon="44.62805">
        <ele>975.906263</ele>
        <time>2021-08-12T18:51:34.086Z</time>
      </trkpt>
      <trkpt lat="40.94972" lon="44.62769">
        <ele>974.251087</ele>
        <time>2021-08-12T18:51:43.965Z</time>
      </trkpt>
      <trkpt lat="40.94966" lon="44.6276">
        <ele>973.688698</ele>
        <time>2021-08-12T18:51:47.332Z</time>
      </trkpt>
      <trkpt lat="40.94956" lon="44.6275">
        <ele>972.911077</ele>
        <time>2021-08-12T18:51:52.038Z</time>
      </trkpt>
      <trkpt lat="40.94942" lon="44.62748">
        <ele>972.023749</ele>
        <time>2021-08-12T18:51:57.254Z</time>
      </trkpt>
      <trkpt lat="40.94872" lon="44.62781">
        <ele>967.451286</ele>
        <time>2021-08-12T18:52:24.657Z</time>
      </trkpt>
      <trkpt lat="40.94842" lon="44.62782">
        <ele>965.695046</ele>
        <time>2021-08-12T18:52:35.813Z</time>
      </trkpt>
      <trkpt lat="40.94841" lon="44.62792">
        <ele>965.252292</ele>
        <time>2021-08-12T18:52:38.559Z</time>
      </trkpt>
      <trkpt lat="40.94858" lon="44.62801">
        <ele>964.189706</ele>
        <time>2021-08-12T18:52:45.402Z</time>
      </trkpt>
      <trkpt lat="40.94904" lon="44.62772">
        <ele>961.203987</ele>
        <time>2021-08-12T18:53:04.452Z</time>
      </trkpt>
      <trkpt lat="40.94913" lon="44.6277">
        <ele>960.668396</ele>
        <time>2021-08-12T18:53:07.941Z</time>
      </trkpt>
      <trkpt lat="40.94922" lon="44.62776">
        <ele>960.097881</ele>
        <time>2021-08-12T18:53:11.599Z</time>
      </trkpt>
      <trkpt lat="40.94921" lon="44.62787">
        <ele>959.625671</ele>
        <time>2021-08-12T18:53:14.601Z</time>
      </trkpt>
      <trkpt lat="40.94891" lon="44.62798">
        <ele>957.817697</ele>
        <time>2021-08-12T18:53:26.148Z</time>
      </trkpt>
      <trkpt lat="40.94866" lon="44.6282">
        <ele>956.448915</ele>
        <time>2021-08-12T18:53:37.251Z</time>
      </trkpt>
      <trkpt lat="40.94828" lon="44.62823">
        <ele>954.885753</ele>
        <time>2021-08-12T18:53:51.720Z</time>
      </trkpt>
      <trkpt lat="40.94808" lon="44.62797">
        <ele>953.730227</ele>
        <time>2021-08-12T18:54:02.775Z</time>
      </trkpt>
      <trkpt lat="40.9479" lon="44.62794">
        <ele>952.977656</ele>
        <time>2021-08-12T18:54:10.081Z</time>
      </trkpt>
      <trkpt lat="40.94757" lon="44.62832">
        <ele>951.187614</ele>
        <time>2021-08-12T18:54:27.806Z</time>
      </trkpt>
      <trkpt lat="40.94736" lon="44.62848">
        <ele>950.186862</ele>
        <time>2021-08-12T18:54:38.014Z</time>
      </trkpt>
      <trkpt lat="40.94722" lon="44.62848">
        <ele>949.833978</ele>
        <time>2021-08-12T18:54:44.261Z</time>
      </trkpt>
      <trkpt lat="40.94692" lon="44.62826">
        <ele>949.30778</ele>
        <time>2021-08-12T18:55:00.188Z</time>
      </trkpt>
      <trkpt lat="40.94641" lon="44.62846">
        <ele>948.505808</ele>
        <time>2021-08-12T18:55:25.543Z</time>
      </trkpt>
      <trkpt lat="40.94625" lon="44.62847">
        <ele>948.255584</ele>
        <time>2021-08-12T18:55:36.667Z</time>
      </trkpt>
      <trkpt lat="40.94601" lon="44.62835">
        <ele>947.870374</ele>
        <time>2021-08-12T18:55:47.095Z</time>
      </trkpt>
      <trkpt lat="40.94572" lon="44.62808">
        <ele>947.332418</ele>
        <time>2021-08-12T18:56:03.457Z</time>
      </trkpt>
      <trkpt lat="40.94532" lon="44.6282">
        <ele>945.68468</ele>
        <time>2021-08-12T18:56:20.838Z</time>
      </trkpt>
      <trkpt lat="40.94527" lon="44.62824">
        <ele>945.40439</ele>
        <time>2021-08-12T18:56:26.060Z</time>
      </trkpt>
      <trkpt lat="40.94519" lon="44.62837">
        <ele>944.832209</ele>
        <time>2021-08-12T18:56:30.531Z</time>
      </trkpt>
      <trkpt lat="40.94505" lon="44.62872">
        <ele>943.469587</ele>
        <time>2021-08-12T18:56:43.128Z</time>
      </trkpt>
      <trkpt lat="40.94511" lon="44.62886">
        <ele>942.91066</ele>
        <time>2021-08-12T18:56:47.653Z</time>
      </trkpt>
      <trkpt lat="40.94516" lon="44.62886">
        <ele>942.67571</ele>
        <time>2021-08-12T18:56:49.700Z</time>
      </trkpt>
      <trkpt lat="40.94534" lon="44.62848">
        <ele>941.15701</ele>
        <time>2021-08-12T18:57:02.687Z</time>
      </trkpt>
      <trkpt lat="40.94557" lon="44.6284">
        <ele>940.089577</ele>
        <time>2021-08-12T18:57:11.677Z</time>
      </trkpt>
      <trkpt lat="40.94577" lon="44.62846">
        <ele>939.16066</ele>
        <time>2021-08-12T18:57:19.207Z</time>
      </trkpt>
      <trkpt lat="40.94599" lon="44.62868">
        <ele>937.404753</ele>
        <time>2021-08-12T18:57:29.023Z</time>
      </trkpt>
      <trkpt lat="40.94622" lon="44.62874">
        <ele>935.943373</ele>
        <time>2021-08-12T18:57:37.250Z</time>
      </trkpt>
      <trkpt lat="40.94637" lon="44.62876">
        <ele>934.973065</ele>
        <time>2021-08-12T18:57:42.681Z</time>
      </trkpt>
      <trkpt lat="40.94675" lon="44.62866">
        <ele>932.457126</ele>
        <time>2021-08-12T18:57:57.020Z</time>
      </trkpt>
      <trkpt lat="40.94726" lon="44.62891">
        <ele>928.976264</ele>
        <time>2021-08-12T18:58:17.023Z</time>
      </trkpt>
      <trkpt lat="40.94776" lon="44.62888">
        <ele>926.26882</ele>
        <time>2021-08-12T18:58:36.045Z</time>
      </trkpt>
      <trkpt lat="40.94805" lon="44.62906">
        <ele>924.791367</ele>
        <time>2021-08-12T18:58:48.355Z</time>
      </trkpt>
      <trkpt lat="40.94852" lon="44.62895">
        <ele>922.559937</ele>
        <time>2021-08-12T18:59:06.778Z</time>
      </trkpt>
      <trkpt lat="40.94854" lon="44.629">
        <ele>922.360555</ele>
        <time>2021-08-12T18:59:08.431Z</time>
      </trkpt>
      <trkpt lat="40.94847" lon="44.6291">
        <ele>921.904494</ele>
        <time>2021-08-12T18:59:12.138Z</time>
      </trkpt>
      <trkpt lat="40.94801" lon="44.62922">
        <ele>919.699121</ele>
        <time>2021-08-12T18:59:31.465Z</time>
      </trkpt>
      <trkpt lat="40.94756" lon="44.62926">
        <ele>918.875282</ele>
        <time>2021-08-12T18:59:50.227Z</time>
      </trkpt>
      <trkpt lat="40.94739" lon="44.62935">
        <ele>918.668998</ele>
        <time>2021-08-12T18:59:57.960Z</time>
      </trkpt>
      <trkpt lat="40.9468" lon="44.62938">
        <ele>918.030342</ele>
        <time>2021-08-12T19:00:13.154Z</time>
      </trkpt>
      <trkpt lat="40.94569" lon="44.62975">
        <ele>917.908488</ele>
        <time>2021-08-12T19:00:54.452Z</time>
      </trkpt>
      <trkpt lat="40.94548" lon="44.62978">
        <ele>918.172405</ele>
        <time>2021-08-12T19:01:03.407Z</time>
      </trkpt>
      <trkpt lat="40.94509" lon="44.62985">
        <ele>918.687474</ele>
        <time>2021-08-12T19:01:20.222Z</time>
      </trkpt>
      <trkpt lat="40.94455" lon="44.6299">
        <ele>919.389585</ele>
        <time>2021-08-12T19:01:39.933Z</time>
      </trkpt>
      <trkpt lat="40.94432" lon="44.62989">
        <ele>919.651828</ele>
        <time>2021-08-12T19:01:49.497Z</time>
      </trkpt>
      <trkpt lat="40.94409" lon="44.62974">
        <ele>919.783226</ele>
        <time>2021-08-12T19:01:58.782Z</time>
      </trkpt>
      <trkpt lat="40.94392" lon="44.62962">
        <ele>919.879823</ele>
        <time>2021-08-12T19:02:06.119Z</time>
      </trkpt>
      <trkpt lat="40.94333" lon="44.62899">
        <ele>920.263093</ele>
        <time>2021-08-12T19:02:32.065Z</time>
      </trkpt>
      <trkpt lat="40.94314" lon="44.62876">
        <ele>920.395963</ele>
        <time>2021-08-12T19:02:41.598Z</time>
      </trkpt>
      <trkpt lat="40.94262" lon="44.62875">
        <ele>920.870019</ele>
        <time>2021-08-12T19:02:57.250Z</time>
      </trkpt>
      <trkpt lat="40.94206" lon="44.62904">
        <ele>921.711623</ele>
        <time>2021-08-12T19:03:18.893Z</time>
      </trkpt>
      <trkpt lat="40.94036" lon="44.62959">
        <ele>925.68656</ele>
        <time>2021-08-12T19:04:38.417Z</time>
      </trkpt>
      <trkpt lat="40.93995" lon="44.62932">
        <ele>927.233529</ele>
        <time>2021-08-12T19:05:02.121Z</time>
      </trkpt>
      <trkpt lat="40.9395" lon="44.62872">
        <ele>929.397012</ele>
        <time>2021-08-12T19:05:38.660Z</time>
      </trkpt>
      <trkpt lat="40.939" lon="44.62863">
        <ele>931.391539</ele>
        <time>2021-08-12T19:06:10.032Z</time>
      </trkpt>
      <trkpt lat="40.9385" lon="44.62875">
        <ele>933.414198</ele>
        <time>2021-08-12T19:06:38.131Z</time>
      </trkpt>
      <trkpt lat="40.93831" lon="44.62883">
        <ele>934.183315</ele>
        <time>2021-08-12T19:06:50.179Z</time>
      </trkpt>
      <trkpt lat="40.93786" lon="44.62875">
        <ele>936.005046</ele>
        <time>2021-08-12T19:07:12.593Z</time>
      </trkpt>
      <trkpt lat="40.93754" lon="44.6286">
        <ele>936.414028</ele>
        <time>2021-08-12T19:07:28.055Z</time>
      </trkpt>
      <trkpt lat="40.93603" lon="44.62745">
        <ele>937.5538</ele>
        <time>2021-08-12T19:08:24.617Z</time>
      </trkpt>
      <trkpt lat="40.93553" lon="44.62725">
        <ele>937.44757</ele>
        <time>2021-08-12T19:08:38.654Z</time>
      </trkpt>
      <trkpt lat="40.9349" lon="44.6272">
        <ele>937.318822</ele>
        <time>2021-08-12T19:08:56.510Z</time>
      </trkpt>
      <trkpt lat="40.93373" lon="44.62731">
        <ele>938.179467</ele>
        <time>2021-08-12T19:09:36.917Z</time>
      </trkpt>
      <trkpt lat="40.93329" lon="44.62717">
        <ele>938.7477</ele>
        <time>2021-08-12T19:09:55.339Z</time>
      </trkpt>
      <trkpt lat="40.93212" lon="44.62655">
        <ele>940.324455</ele>
        <time>2021-08-12T19:10:47.729Z</time>
      </trkpt>
      <trkpt lat="40.93188" lon="44.62649">
        <ele>940.643761</ele>
        <time>2021-08-12T19:10:58.172Z</time>
      </trkpt>
      <trkpt lat="40.92967" lon="44.62666">
        <ele>942.384021</ele>
        <time>2021-08-12T19:12:14.817Z</time>
      </trkpt>
      <trkpt lat="40.92833" lon="44.62589">
        <ele>943.706849</ele>
        <time>2021-08-12T19:13:01.040Z</time>
      </trkpt>
      <trkpt lat="40.92801" lon="44.62575">
        <ele>944.077608</ele>
        <time>2021-08-12T19:13:13.662Z</time>
      </trkpt>
      <trkpt lat="40.92779" lon="44.62552">
        <ele>944.391282</ele>
        <time>2021-08-12T19:13:26.052Z</time>
      </trkpt>
      <trkpt lat="40.9274" lon="44.62515">
        <ele>945.96895</ele>
        <time>2021-08-12T19:13:48.521Z</time>
      </trkpt>
      <trkpt lat="40.92719" lon="44.62496">
        <ele>947.208911</ele>
        <time>2021-08-12T19:14:02.547Z</time>
      </trkpt>
      <trkpt lat="40.92706" lon="44.62486">
        <ele>947.898699</ele>
        <time>2021-08-12T19:14:10.472Z</time>
      </trkpt>
      <trkpt lat="40.92656" lon="44.62446">
        <ele>950.707438</ele>
        <time>2021-08-12T19:14:46.309Z</time>
      </trkpt>
      <trkpt lat="40.92581" lon="44.62383">
        <ele>955.233999</ele>
        <time>2021-08-12T19:15:44.556Z</time>
      </trkpt>
      <trkpt lat="40.92552" lon="44.6237">
        <ele>956.937242</ele>
        <time>2021-08-12T19:16:05.899Z</time>
      </trkpt>
      <trkpt lat="40.92418" lon="44.62368">
        <ele>963.74031</ele>
        <time>2021-08-12T19:17:27.414Z</time>
      </trkpt>
      <trkpt lat="40.92344" lon="44.62343">
        <ele>965.758307</ele>
        <time>2021-08-12T19:18:04.511Z</time>
      </trkpt>
      <trkpt lat="40.92291" lon="44.62333">
        <ele>967.204959</ele>
        <time>2021-08-12T19:18:26.811Z</time>
      </trkpt>
      <trkpt lat="40.9212" lon="44.6223">
        <ele>968.412844</ele>
        <time>2021-08-12T19:19:28.930Z</time>
      </trkpt>
      <trkpt lat="40.91988" lon="44.62221">
        <ele>967.251266</ele>
        <time>2021-08-12T19:20:06.916Z</time>
      </trkpt>
      <trkpt lat="40.91764" lon="44.62146">
        <ele>963.123883</ele>
        <time>2021-08-12T19:21:03.084Z</time>
      </trkpt>
      <trkpt lat="40.91654" lon="44.62165">
        <ele>961.951985</ele>
        <time>2021-08-12T19:21:31.041Z</time>
      </trkpt>
      <trkpt lat="40.91586" lon="44.62155">
        <ele>961.340727</ele>
        <time>2021-08-12T19:21:51.202Z</time>
      </trkpt>
      <trkpt lat="40.9157" lon="44.62145">
        <ele>961.200821</ele>
        <time>2021-08-12T19:21:56.992Z</time>
      </trkpt>
      <trkpt lat="40.91523" lon="44.6206">
        <ele>961.960901</ele>
        <time>2021-08-12T19:22:26.004Z</time>
      </trkpt>
      <trkpt lat="40.91476" lon="44.62002">
        <ele>962.570243</ele>
        <time>2021-08-12T19:22:51.091Z</time>
      </trkpt>
      <trkpt lat="40.91438" lon="44.61974">
        <ele>963.013392</ele>
        <time>2021-08-12T19:23:07.594Z</time>
      </trkpt>
      <trkpt lat="40.9135" lon="44.61925">
        <ele>964.220347</ele>
        <time>2021-08-12T19:23:41.133Z</time>
      </trkpt>
      <trkpt lat="40.91316" lon="44.6191">
        <ele>964.661338</ele>
        <time>2021-08-12T19:23:55.189Z</time>
      </trkpt>
      <trkpt lat="40.91263" lon="44.61901">
        <ele>965.549602</ele>
        <time>2021-08-12T19:24:17.503Z</time>
      </trkpt>
      <trkpt lat="40.91217" lon="44.61901">
        <ele>966.800994</ele>
        <time>2021-08-12T19:24:37.288Z</time>
      </trkpt>
      <trkpt lat="40.91174" lon="44.61904">
        <ele>967.94982</ele>
        <time>2021-08-12T19:24:56.881Z</time>
      </trkpt>
      <trkpt lat="40.91126" lon="44.61912">
        <ele>969.284542</ele>
        <time>2021-08-12T19:25:20.819Z</time>
      </trkpt>
      <trkpt lat="40.91101" lon="44.61929">
        <ele>970.042476</ele>
        <time>2021-08-12T19:25:35.151Z</time>
      </trkpt>
      <trkpt lat="40.91012" lon="44.6203">
        <ele>973.509221</ele>
        <time>2021-08-12T19:26:34.508Z</time>
      </trkpt>
      <trkpt lat="40.90979" lon="44.62048">
        <ele>974.562696</ele>
        <time>2021-08-12T19:26:50.667Z</time>
      </trkpt>
      <trkpt lat="40.90963" lon="44.62049">
        <ele>975.048181</ele>
        <time>2021-08-12T19:26:57.957Z</time>
      </trkpt>
      <trkpt lat="40.90925" lon="44.62037">
        <ele>975.545144</ele>
        <time>2021-08-12T19:27:14.395Z</time>
      </trkpt>
      <trkpt lat="40.90801" lon="44.61994">
        <ele>976.292039</ele>
        <time>2021-08-12T19:27:58.643Z</time>
      </trkpt>
      <trkpt lat="40.90771" lon="44.61992">
        <ele>976.36411</ele>
        <time>2021-08-12T19:28:06.935Z</time>
      </trkpt>
      <trkpt lat="40.90693" lon="44.62001">
        <ele>975.418519</ele>
        <time>2021-08-12T19:28:26.649Z</time>
      </trkpt>
      <trkpt lat="40.90648" lon="44.61997">
        <ele>974.879754</ele>
        <time>2021-08-12T19:28:37.722Z</time>
      </trkpt>
      <trkpt lat="40.9062" lon="44.61982">
        <ele>974.514206</ele>
        <time>2021-08-12T19:28:45.863Z</time>
      </trkpt>
      <trkpt lat="40.90613" lon="44.61976">
        <ele>974.412145</ele>
        <time>2021-08-12T19:28:47.757Z</time>
      </trkpt>
      <trkpt lat="40.90594" lon="44.61958">
        <ele>974.398218</ele>
        <time>2021-08-12T19:28:54.497Z</time>
      </trkpt>
      <trkpt lat="40.9052" lon="44.61862">
        <ele>975.677381</ele>
        <time>2021-08-12T19:29:30.763Z</time>
      </trkpt>
      <trkpt lat="40.90491" lon="44.61842">
        <ele>976.079665</ele>
        <time>2021-08-12T19:29:44.979Z</time>
      </trkpt>
      <trkpt lat="40.90445" lon="44.61837">
        <ele>976.942292</ele>
        <time>2021-08-12T19:30:07.757Z</time>
      </trkpt>
      <trkpt lat="40.90421" lon="44.61843">
        <ele>977.778903</ele>
        <time>2021-08-12T19:30:20.778Z</time>
      </trkpt>
      <trkpt lat="40.90402" lon="44.61852">
        <ele>978.451488</ele>
        <time>2021-08-12T19:30:30.669Z</time>
      </trkpt>
      <trkpt lat="40.90376" lon="44.61873">
        <ele>979.47079</ele>
        <time>2021-08-12T19:30:45.587Z</time>
      </trkpt>
      <trkpt lat="40.90263" lon="44.62029">
        <ele>986.036598</ele>
        <time>2021-08-12T19:32:08.619Z</time>
      </trkpt>
      <trkpt lat="40.90223" lon="44.62055">
        <ele>988.188844</ele>
        <time>2021-08-12T19:32:36.243Z</time>
      </trkpt>
      <trkpt lat="40.90204" lon="44.62064">
        <ele>989.163124</ele>
        <time>2021-08-12T19:32:49.843Z</time>
      </trkpt>
      <trkpt lat="40.90188" lon="44.62067">
        <ele>989.91481</ele>
        <time>2021-08-12T19:32:59.498Z</time>
      </trkpt>
      <trkpt lat="40.90154" lon="44.6207">
        <ele>991.626582</ele>
        <time>2021-08-12T19:33:21.594Z</time>
      </trkpt>
      <trkpt lat="40.90123" lon="44.62067">
        <ele>993.235152</ele>
        <time>2021-08-12T19:33:40.364Z</time>
      </trkpt>
      <trkpt lat="40.90096" lon="44.62057">
        <ele>994.717106</ele>
        <time>2021-08-12T19:33:58.313Z</time>
      </trkpt>
      <trkpt lat="40.90075" lon="44.62038">
        <ele>996.084153</ele>
        <time>2021-08-12T19:34:14.714Z</time>
      </trkpt>
      <trkpt lat="40.90046" lon="44.62002">
        <ele>998.200243</ele>
        <time>2021-08-12T19:34:39.111Z</time>
      </trkpt>
      <trkpt lat="40.9002" lon="44.61957">
        <ele>1000.42606</ele>
        <time>2021-08-12T19:35:04.490Z</time>
      </trkpt>
      <trkpt lat="40.90002" lon="44.61905">
        <ele>1001.638981</ele>
        <time>2021-08-12T19:35:29.155Z</time>
      </trkpt>
      <trkpt lat="40.89984" lon="44.61828">
        <ele>1003.084906</ele>
        <time>2021-08-12T19:35:54.683Z</time>
      </trkpt>
      <trkpt lat="40.89967" lon="44.61794">
        <ele>1003.796619</ele>
        <time>2021-08-12T19:36:06.092Z</time>
      </trkpt>
      <trkpt lat="40.89954" lon="44.61785">
        <ele>1004.145058</ele>
        <time>2021-08-12T19:36:11.813Z</time>
      </trkpt>
      <trkpt lat="40.89941" lon="44.61784">
        <ele>1004.458575</ele>
        <time>2021-08-12T19:36:17.111Z</time>
      </trkpt>
      <trkpt lat="40.899" lon="44.61807">
        <ele>1005.01037</ele>
        <time>2021-08-12T19:36:34.713Z</time>
      </trkpt>
      <trkpt lat="40.8988" lon="44.61811">
        <ele>1005.00611</ele>
        <time>2021-08-12T19:36:42.429Z</time>
      </trkpt>
      <trkpt lat="40.89846" lon="44.61809">
        <ele>1004.999018</ele>
        <time>2021-08-12T19:36:54.277Z</time>
      </trkpt>
      <trkpt lat="40.89823" lon="44.61787">
        <ele>1004.993074</ele>
        <time>2021-08-12T19:37:03.035Z</time>
      </trkpt>
      <trkpt lat="40.89807" lon="44.61755">
        <ele>1004.987026</ele>
        <time>2021-08-12T19:37:11.076Z</time>
      </trkpt>
      <trkpt lat="40.89797" lon="44.61721">
        <ele>1004.98125</ele>
        <time>2021-08-12T19:37:18.481Z</time>
      </trkpt>
      <trkpt lat="40.89783" lon="44.61634">
        <ele>1004.013092</ele>
        <time>2021-08-12T19:37:35.978Z</time>
      </trkpt>
      <trkpt lat="40.89772" lon="44.61602">
        <ele>1003.47745</ele>
        <time>2021-08-12T19:37:42.615Z</time>
      </trkpt>
      <trkpt lat="40.89751" lon="44.6157">
        <ele>1002.803761</ele>
        <time>2021-08-12T19:37:50.800Z</time>
      </trkpt>
      <trkpt lat="40.89723" lon="44.61549">
        <ele>1002.149315</ele>
        <time>2021-08-12T19:37:58.438Z</time>
      </trkpt>
      <trkpt lat="40.89624" lon="44.6151">
        <ele>999.591584</ele>
        <time>2021-08-12T19:38:22.290Z</time>
      </trkpt>
      <trkpt lat="40.8955" lon="44.61446">
        <ele>997.153787</ele>
        <time>2021-08-12T19:38:42.598Z</time>
      </trkpt>
      <trkpt lat="40.89516" lon="44.61407">
        <ele>996.193832</ele>
        <time>2021-08-12T19:38:53.492Z</time>
      </trkpt>
      <trkpt lat="40.89476" lon="44.61338">
        <ele>995.63264</ele>
        <time>2021-08-12T19:39:10.044Z</time>
      </trkpt>
      <trkpt lat="40.89365" lon="44.61117">
        <ele>995.7459</ele>
        <time>2021-08-12T19:40:14.391Z</time>
      </trkpt>
      <trkpt lat="40.89334" lon="44.61024">
        <ele>996.463472</ele>
        <time>2021-08-12T19:40:45.933Z</time>
      </trkpt>
      <trkpt lat="40.89297" lon="44.60873">
        <ele>999.766619</ele>
        <time>2021-08-12T19:41:39.119Z</time>
      </trkpt>
      <trkpt lat="40.89275" lon="44.60806">
        <ele>1001.295359</ele>
        <time>2021-08-12T19:42:07.077Z</time>
      </trkpt>
      <trkpt lat="40.8924" lon="44.60754">
        <ele>1003.491769</ele>
        <time>2021-08-12T19:42:35.603Z</time>
      </trkpt>
      <trkpt lat="40.89145" lon="44.60665">
        <ele>1008.546393</ele>
        <time>2021-08-12T19:43:41.471Z</time>
      </trkpt>
      <trkpt lat="40.89122" lon="44.60634">
        <ele>1009.924925</ele>
        <time>2021-08-12T19:44:00.065Z</time>
      </trkpt>
      <trkpt lat="40.89079" lon="44.60548">
        <ele>1013.204928</ele>
        <time>2021-08-12T19:44:44.146Z</time>
      </trkpt>
      <trkpt lat="40.89064" lon="44.60497">
        <ele>1014.966486</ele>
        <time>2021-08-12T19:45:06.102Z</time>
      </trkpt>
      <trkpt lat="40.89063" lon="44.60397">
        <ele>1017.952799</ele>
        <time>2021-08-12T19:45:45.992Z</time>
      </trkpt>
      <trkpt lat="40.89063" lon="44.60355">
        <ele>1019.128255</ele>
        <time>2021-08-12T19:46:03.112Z</time>
      </trkpt>
      <trkpt lat="40.89039" lon="44.60297">
        <ele>1020.939204</ele>
        <time>2021-08-12T19:46:29.274Z</time>
      </trkpt>
      <trkpt lat="40.89016" lon="44.60267">
        <ele>1022.148395</ele>
        <time>2021-08-12T19:46:47.115Z</time>
      </trkpt>
      <trkpt lat="40.88885" lon="44.60096">
        <ele>1025.87819</ele>
        <time>2021-08-12T19:48:12.820Z</time>
      </trkpt>
      <trkpt lat="40.88821" lon="44.60027">
        <ele>1024.30608</ele>
        <time>2021-08-12T19:48:32.862Z</time>
      </trkpt>
      <trkpt lat="40.88756" lon="44.59976">
        <ele>1021.281632</ele>
        <time>2021-08-12T19:48:48.760Z</time>
      </trkpt>
      <trkpt lat="40.88701" lon="44.59926">
        <ele>1019.083943</ele>
        <time>2021-08-12T19:49:02.761Z</time>
      </trkpt>
      <trkpt lat="40.8868" lon="44.59895">
        <ele>1018.89933</ele>
        <time>2021-08-12T19:49:09.199Z</time>
      </trkpt>
      <trkpt lat="40.88668" lon="44.59863">
        <ele>1018.733585</ele>
        <time>2021-08-12T19:49:15.060Z</time>
      </trkpt>
      <trkpt lat="40.88482" lon="44.59376">
        <ele>1018.645328</ele>
        <time>2021-08-12T19:51:38.092Z</time>
      </trkpt>
      <trkpt lat="40.88465" lon="44.5932">
        <ele>1019.241286</ele>
        <time>2021-08-12T19:51:59.343Z</time>
      </trkpt>
      <trkpt lat="40.88463" lon="44.59274">
        <ele>1020.003496</ele>
        <time>2021-08-12T19:52:15.632Z</time>
      </trkpt>
      <trkpt lat="40.88465" lon="44.59234">
        <ele>1020.763524</ele>
        <time>2021-08-12T19:52:29.651Z</time>
      </trkpt>
      <trkpt lat="40.88472" lon="44.59188">
        <ele>1021.633336</ele>
        <time>2021-08-12T19:52:45.523Z</time>
      </trkpt>
      <trkpt lat="40.88483" lon="44.59158">
        <ele>1022.262842</ele>
        <time>2021-08-12T19:52:56.578Z</time>
      </trkpt>
      <trkpt lat="40.88494" lon="44.59135">
        <ele>1022.761146</ele>
        <time>2021-08-12T19:53:06.100Z</time>
      </trkpt>
      <trkpt lat="40.88527" lon="44.59069">
        <ele>1024.186605</ele>
        <time>2021-08-12T19:53:32.338Z</time>
      </trkpt>
      <trkpt lat="40.88537" lon="44.59035">
        <ele>1024.786753</ele>
        <time>2021-08-12T19:53:44.126Z</time>
      </trkpt>
      <trkpt lat="40.88547" lon="44.58954">
        <ele>1026.130644</ele>
        <time>2021-08-12T19:54:13.256Z</time>
      </trkpt>
      <trkpt lat="40.88544" lon="44.58892">
        <ele>1027.126296</ele>
        <time>2021-08-12T19:54:32.962Z</time>
      </trkpt>
      <trkpt lat="40.88532" lon="44.58837">
        <ele>1027.792814</ele>
        <time>2021-08-12T19:54:50.343Z</time>
      </trkpt>
      <trkpt lat="40.88514" lon="44.58746">
        <ele>1028.25742</ele>
        <time>2021-08-12T19:55:16.471Z</time>
      </trkpt>
      <trkpt lat="40.88483" lon="44.58637">
        <ele>1028.834306</ele>
        <time>2021-08-12T19:55:45.495Z</time>
      </trkpt>
      <trkpt lat="40.88467" lon="44.5861">
        <ele>1028.661641</ele>
        <time>2021-08-12T19:55:53.262Z</time>
      </trkpt>
      <trkpt lat="40.88448" lon="44.58591">
        <ele>1028.475925</ele>
        <time>2021-08-12T19:55:59.730Z</time>
      </trkpt>
      <trkpt lat="40.88422" lon="44.58576">
        <ele>1028.244387</ele>
        <time>2021-08-12T19:56:07.185Z</time>
      </trkpt>
      <trkpt lat="40.8837" lon="44.58572">
        <ele>1027.828541</ele>
        <time>2021-08-12T19:56:20.552Z</time>
      </trkpt>
      <trkpt lat="40.88346" lon="44.58581">
        <ele>1027.63054</ele>
        <time>2021-08-12T19:56:27.126Z</time>
      </trkpt>
      <trkpt lat="40.88328" lon="44.58597">
        <ele>1027.456365</ele>
        <time>2021-08-12T19:56:33.319Z</time>
      </trkpt>
      <trkpt lat="40.88305" lon="44.58621">
        <ele>1027.740147</ele>
        <time>2021-08-12T19:56:41.695Z</time>
      </trkpt>
      <trkpt lat="40.88237" lon="44.5869">
        <ele>1028.952295</ele>
        <time>2021-08-12T19:57:11.337Z</time>
      </trkpt>
      <trkpt lat="40.88205" lon="44.58699">
        <ele>1029.400755</ele>
        <time>2021-08-12T19:57:26.416Z</time>
      </trkpt>
      <trkpt lat="40.8818" lon="44.58699">
        <ele>1029.752524</ele>
        <time>2021-08-12T19:57:38.846Z</time>
      </trkpt>
      <trkpt lat="40.88125" lon="44.58685">
        <ele>1031.623238</ele>
        <time>2021-08-12T19:58:07.532Z</time>
      </trkpt>
      <trkpt lat="40.88054" lon="44.58668">
        <ele>1034.469269</ele>
        <time>2021-08-12T19:58:48.413Z</time>
      </trkpt>
      <trkpt lat="40.88004" lon="44.58681">
        <ele>1036.435372</ele>
        <time>2021-08-12T19:59:15.912Z</time>
      </trkpt>
      <trkpt lat="40.8797" lon="44.58706">
        <ele>1037.558858</ele>
        <time>2021-08-12T19:59:35.839Z</time>
      </trkpt>
      <trkpt lat="40.87924" lon="44.58763">
        <ele>1039.029589</ele>
        <time>2021-08-12T20:00:04.259Z</time>
      </trkpt>
      <trkpt lat="40.87893" lon="44.58786">
        <ele>1039.867874</ele>
        <time>2021-08-12T20:00:18.659Z</time>
      </trkpt>
      <trkpt lat="40.87848" lon="44.58799">
        <ele>1040.937874</ele>
        <time>2021-08-12T20:00:36.721Z</time>
      </trkpt>
      <trkpt lat="40.87811" lon="44.58797">
        <ele>1041.749262</ele>
        <time>2021-08-12T20:00:51.992Z</time>
      </trkpt>
      <trkpt lat="40.87783" lon="44.58783">
        <ele>1042.360623</ele>
        <time>2021-08-12T20:01:04.537Z</time>
      </trkpt>
      <trkpt lat="40.87708" lon="44.58734">
        <ele>1044.129048</ele>
        <time>2021-08-12T20:01:41.040Z</time>
      </trkpt>
      <trkpt lat="40.87667" lon="44.58726">
        <ele>1044.967145</ele>
        <time>2021-08-12T20:02:00.327Z</time>
      </trkpt>
      <trkpt lat="40.8754" lon="44.58729">
        <ele>1046.616898</ele>
        <time>2021-08-12T20:02:52.449Z</time>
      </trkpt>
      <trkpt lat="40.87437" lon="44.58748">
        <ele>1047.096673</ele>
        <time>2021-08-12T20:03:24.530Z</time>
      </trkpt>
      <trkpt lat="40.87357" lon="44.5874">
        <ele>1046.820082</ele>
        <time>2021-08-12T20:03:45.710Z</time>
      </trkpt>
      <trkpt lat="40.87245" lon="44.58761">
        <ele>1047.358726</ele>
        <time>2021-08-12T20:04:22.918Z</time>
      </trkpt>
      <trkpt lat="40.87229" lon="44.58759">
        <ele>1047.523541</ele>
        <time>2021-08-12T20:04:29.020Z</time>
      </trkpt>
      <trkpt lat="40.87205" lon="44.58744">
        <ele>1047.79805</ele>
        <time>2021-08-12T20:04:37.843Z</time>
      </trkpt>
      <trkpt lat="40.87189" lon="44.5873">
        <ele>1048.002074</ele>
        <time>2021-08-12T20:04:47.264Z</time>
      </trkpt>
      <trkpt lat="40.87043" lon="44.58596">
        <ele>1051.19218</ele>
        <time>2021-08-12T20:05:59.250Z</time>
      </trkpt>
      <trkpt lat="40.8699" lon="44.58553">
        <ele>1052.674227</ele>
        <time>2021-08-12T20:06:27.425Z</time>
      </trkpt>
      <trkpt lat="40.86953" lon="44.58523">
        <ele>1054.509011</ele>
        <time>2021-08-12T20:06:50.086Z</time>
      </trkpt>
      <trkpt lat="40.86925" lon="44.58508">
        <ele>1055.792089</ele>
        <time>2021-08-12T20:07:05.642Z</time>
      </trkpt>
      <trkpt lat="40.86857" lon="44.58496">
        <ele>1058.697004</ele>
        <time>2021-08-12T20:07:45.374Z</time>
      </trkpt>
      <trkpt lat="40.86677" lon="44.58507">
        <ele>1067.786452</ele>
        <time>2021-08-12T20:09:35.795Z</time>
      </trkpt>
      <trkpt lat="40.86644" lon="44.58503">
        <ele>1069.492932</ele>
        <time>2021-08-12T20:09:54.535Z</time>
      </trkpt>
      <trkpt lat="40.86584" lon="44.58482">
        <ele>1072.67334</ele>
        <time>2021-08-12T20:10:30.680Z</time>
      </trkpt>
      <trkpt lat="40.86522" lon="44.58453">
        <ele>1076.021693</ele>
        <time>2021-08-12T20:11:09.621Z</time>
      </trkpt>
      <trkpt lat="40.86438" lon="44.58397">
        <ele>1081.142145</ele>
        <time>2021-08-12T20:12:08.268Z</time>
      </trkpt>
      <trkpt lat="40.86408" lon="44.58367">
        <ele>1083.243332</ele>
        <time>2021-08-12T20:12:31.910Z</time>
      </trkpt>
      <trkpt lat="40.86364" lon="44.5831">
        <ele>1086.746685</ele>
        <time>2021-08-12T20:13:11.640Z</time>
      </trkpt>
      <trkpt lat="40.863" lon="44.58248">
        <ele>1090.883703</ele>
        <time>2021-08-12T20:14:01.395Z</time>
      </trkpt>
      <trkpt lat="40.86224" lon="44.58221">
        <ele>1094.739615</ele>
        <time>2021-08-12T20:14:47.623Z</time>
      </trkpt>
      <trkpt lat="40.86221" lon="44.58203">
        <ele>1095.393696</ele>
        <time>2021-08-12T20:14:55.167Z</time>
      </trkpt>
      <trkpt lat="40.86231" lon="44.582">
        <ele>1095.887667</ele>
        <time>2021-08-12T20:15:00.924Z</time>
      </trkpt>
      <trkpt lat="40.86308" lon="44.58219">
        <ele>1100.429231</ele>
        <time>2021-08-12T20:15:41.443Z</time>
      </trkpt>
      <trkpt lat="40.8637" lon="44.58256">
        <ele>1104.772546</ele>
        <time>2021-08-12T20:16:27.952Z</time>
      </trkpt>
      <trkpt lat="40.86421" lon="44.58304">
        <ele>1108.754489</ele>
        <time>2021-08-12T20:17:14.507Z</time>
      </trkpt>
      <trkpt lat="40.8643" lon="44.58303">
        <ele>1109.447998</ele>
        <time>2021-08-12T20:17:19.674Z</time>
      </trkpt>
      <trkpt lat="40.86433" lon="44.58302">
        <ele>1109.780577</ele>
        <time>2021-08-12T20:17:23.248Z</time>
      </trkpt>
      <trkpt lat="40.86444" lon="44.58282">
        <ele>1111.549039</ele>
        <time>2021-08-12T20:17:38.348Z</time>
      </trkpt>
      <trkpt lat="40.86444" lon="44.58279">
        <ele>1111.803394</ele>
        <time>2021-08-12T20:17:40.456Z</time>
      </trkpt>
      <trkpt lat="40.86444" lon="44.58273">
        <ele>1112.21599</ele>
        <time>2021-08-12T20:17:43.695Z</time>
      </trkpt>
      <trkpt lat="40.86442" lon="44.58264">
        <ele>1112.952968</ele>
        <time>2021-08-12T20:17:48.856Z</time>
      </trkpt>
      <trkpt lat="40.86438" lon="44.58258">
        <ele>1113.503975</ele>
        <time>2021-08-12T20:17:55.422Z</time>
      </trkpt>
      <trkpt lat="40.86373" lon="44.58204">
        <ele>1120.797564</ele>
        <time>2021-08-12T20:19:01.659Z</time>
      </trkpt>
      <trkpt lat="40.86288" lon="44.58157">
        <ele>1128.799452</ele>
        <time>2021-08-12T20:20:25.024Z</time>
      </trkpt>
      <trkpt lat="40.86219" lon="44.5815">
        <ele>1133.896915</ele>
        <time>2021-08-12T20:21:14.801Z</time>
      </trkpt>
      <trkpt lat="40.86176" lon="44.58131">
        <ele>1137.232951</ele>
        <time>2021-08-12T20:21:45.371Z</time>
      </trkpt>
      <trkpt lat="40.86147" lon="44.58127">
        <ele>1139.354604</ele>
        <time>2021-08-12T20:22:03.507Z</time>
      </trkpt>
      <trkpt lat="40.86093" lon="44.58133">
        <ele>1141.222921</ele>
        <time>2021-08-12T20:22:33.545Z</time>
      </trkpt>
      <trkpt lat="40.86049" lon="44.58147">
        <ele>1142.805293</ele>
        <time>2021-08-12T20:22:55.615Z</time>
      </trkpt>
      <trkpt lat="40.85963" lon="44.5815">
        <ele>1145.828613</ele>
        <time>2021-08-12T20:23:33.248Z</time>
      </trkpt>
      <trkpt lat="40.85946" lon="44.58143">
        <ele>1146.596841</ele>
        <time>2021-08-12T20:23:41.400Z</time>
      </trkpt>
      <trkpt lat="40.85886" lon="44.5808">
        <ele>1149.922031</ele>
        <time>2021-08-12T20:24:21.467Z</time>
      </trkpt>
      <trkpt lat="40.85856" lon="44.58068">
        <ele>1151.258296</ele>
        <time>2021-08-12T20:24:38.945Z</time>
      </trkpt>
      <trkpt lat="40.85821" lon="44.58069">
        <ele>1152.786034</ele>
        <time>2021-08-12T20:25:00.390Z</time>
      </trkpt>
      <trkpt lat="40.858" lon="44.5806">
        <ele>1154.072211</ele>
        <time>2021-08-12T20:25:15.220Z</time>
      </trkpt>
      <trkpt lat="40.85778" lon="44.58029">
        <ele>1156.62012</ele>
        <time>2021-08-12T20:25:37.611Z</time>
      </trkpt>
      <trkpt lat="40.85766" lon="44.5799">
        <ele>1159.150841</ele>
        <time>2021-08-12T20:26:01.208Z</time>
      </trkpt>
      <trkpt lat="40.85761" lon="44.57963">
        <ele>1160.82259</ele>
        <time>2021-08-12T20:26:17.372Z</time>
      </trkpt>
      <trkpt lat="40.85762" lon="44.57904">
        <ele>1164.404232</ele>
        <time>2021-08-12T20:26:54.223Z</time>
      </trkpt>
      <trkpt lat="40.85753" lon="44.57857">
        <ele>1167.343085</ele>
        <time>2021-08-12T20:27:26.324Z</time>
      </trkpt>
      <trkpt lat="40.85716" lon="44.57777">
        <ele>1171.391573</ele>
        <time>2021-08-12T20:28:21.378Z</time>
      </trkpt>
      <trkpt lat="40.85695" lon="44.57746">
        <ele>1173.110879</ele>
        <time>2021-08-12T20:28:40.890Z</time>
      </trkpt>
      <trkpt lat="40.85685" lon="44.57734">
        <ele>1173.85372</ele>
        <time>2021-08-12T20:28:51.230Z</time>
      </trkpt>
      <trkpt lat="40.85671" lon="44.57729">
        <ele>1174.633985</ele>
        <time>2021-08-12T20:28:57.692Z</time>
      </trkpt>
      <trkpt lat="40.85622" lon="44.57723">
        <ele>1177.343067</ele>
        <time>2021-08-12T20:29:21.103Z</time>
      </trkpt>
      <trkpt lat="40.85488" lon="44.57704">
        <ele>1179.020088</ele>
        <time>2021-08-12T20:30:06.177Z</time>
      </trkpt>
      <trkpt lat="40.85458" lon="44.57697">
        <ele>1179.334401</ele>
        <time>2021-08-12T20:30:14.925Z</time>
      </trkpt>
      <trkpt lat="40.8541" lon="44.57675">
        <ele>1181.462156</ele>
        <time>2021-08-12T20:30:36.600Z</time>
      </trkpt>
      <trkpt lat="40.85394" lon="44.57658">
        <ele>1182.69915</ele>
        <time>2021-08-12T20:30:47.108Z</time>
      </trkpt>
      <trkpt lat="40.85376" lon="44.57585">
        <ele>1186.243959</ele>
        <time>2021-08-12T20:31:25.048Z</time>
      </trkpt>
      <trkpt lat="40.85363" lon="44.57554">
        <ele>1187.89296</ele>
        <time>2021-08-12T20:31:45.764Z</time>
      </trkpt>
      <trkpt lat="40.85331" lon="44.57522">
        <ele>1190.346081</ele>
        <time>2021-08-12T20:32:18.210Z</time>
      </trkpt>
      <trkpt lat="40.85292" lon="44.57502">
        <ele>1194.294177</ele>
        <time>2021-08-12T20:32:55.763Z</time>
      </trkpt>
      <trkpt lat="40.85279" lon="44.5749">
        <ele>1195.890249</ele>
        <time>2021-08-12T20:33:11.562Z</time>
      </trkpt>
      <trkpt lat="40.85258" lon="44.5746">
        <ele>1198.928205</ele>
        <time>2021-08-12T20:33:41.486Z</time>
      </trkpt>
      <trkpt lat="40.85236" lon="44.57415">
        <ele>1202.858331</ele>
        <time>2021-08-12T20:34:17.776Z</time>
      </trkpt>
      <trkpt lat="40.85216" lon="44.57398">
        <ele>1205.290762</ele>
        <time>2021-08-12T20:34:39.128Z</time>
      </trkpt>
      <trkpt lat="40.85198" lon="44.57394">
        <ele>1206.990101</ele>
        <time>2021-08-12T20:34:52.069Z</time>
      </trkpt>
      <trkpt lat="40.85174" lon="44.57394">
        <ele>1208.784221</ele>
        <time>2021-08-12T20:35:11.976Z</time>
      </trkpt>
      <trkpt lat="40.85152" lon="44.57391">
        <ele>1209.803271</ele>
        <time>2021-08-12T20:35:26.688Z</time>
      </trkpt>
      <trkpt lat="40.85131" lon="44.57385">
        <ele>1210.831744</ele>
        <time>2021-08-12T20:35:41.425Z</time>
      </trkpt>
      <trkpt lat="40.8509" lon="44.5737">
        <ele>1212.795124</ele>
        <time>2021-08-12T20:36:07.073Z</time>
      </trkpt>
      <trkpt lat="40.84869" lon="44.5737">
        <ele>1219.95226</ele>
        <time>2021-08-12T20:37:41.728Z</time>
      </trkpt>
      <trkpt lat="40.84744" lon="44.57344">
        <ele>1225.046588</ele>
        <time>2021-08-12T20:38:44.439Z</time>
      </trkpt>
      <trkpt lat="40.84715" lon="44.57335">
        <ele>1226.455524</ele>
        <time>2021-08-12T20:39:01.595Z</time>
      </trkpt>
      <trkpt lat="40.84584" lon="44.57266">
        <ele>1235.67229</ele>
        <time>2021-08-12T20:40:39.412Z</time>
      </trkpt>
      <trkpt lat="40.84561" lon="44.5725">
        <ele>1237.811197</ele>
        <time>2021-08-12T20:41:00.348Z</time>
      </trkpt>
      <trkpt lat="40.84544" lon="44.57226">
        <ele>1239.79948</ele>
        <time>2021-08-12T20:41:20.344Z</time>
      </trkpt>
      <trkpt lat="40.84497" lon="44.57037">
        <ele>1250.844411</ele>
        <time>2021-08-12T20:43:25.499Z</time>
      </trkpt>
      <trkpt lat="40.84489" lon="44.57016">
        <ele>1252.071345</ele>
        <time>2021-08-12T20:43:39.703Z</time>
      </trkpt>
      <trkpt lat="40.84477" lon="44.57001">
        <ele>1253.218002</ele>
        <time>2021-08-12T20:43:47.282Z</time>
      </trkpt>
      <trkpt lat="40.84451" lon="44.56992">
        <ele>1255.115012</ele>
        <time>2021-08-12T20:44:03.600Z</time>
      </trkpt>
      <trkpt lat="40.84434" lon="44.56995">
        <ele>1256.332447</ele>
        <time>2021-08-12T20:44:11.853Z</time>
      </trkpt>
      <trkpt lat="40.84379" lon="44.5702">
        <ele>1256.750724</ele>
        <time>2021-08-12T20:44:36.429Z</time>
      </trkpt>
      <trkpt lat="40.84356" lon="44.57022">
        <ele>1256.83752</ele>
        <time>2021-08-12T20:44:45.904Z</time>
      </trkpt>
      <trkpt lat="40.84301" lon="44.57011">
        <ele>1257.04971</ele>
        <time>2021-08-12T20:44:59.528Z</time>
      </trkpt>
      <trkpt lat="40.84241" lon="44.56987">
        <ele>1257.374707</ele>
        <time>2021-08-12T20:45:16.418Z</time>
      </trkpt>
      <trkpt lat="40.84214" lon="44.56961">
        <ele>1257.680723</ele>
        <time>2021-08-12T20:45:27.096Z</time>
      </trkpt>
      <trkpt lat="40.8419" lon="44.56921">
        <ele>1258.026985</ele>
        <time>2021-08-12T20:45:40.584Z</time>
      </trkpt>
      <trkpt lat="40.8417" lon="44.56822">
        <ele>1258.72225</ele>
        <time>2021-08-12T20:46:11.739Z</time>
      </trkpt>
      <trkpt lat="40.84152" lon="44.56784">
        <ele>1259.565424</ele>
        <time>2021-08-12T20:46:26.433Z</time>
      </trkpt>
      <trkpt lat="40.84136" lon="44.56773">
        <ele>1260.239375</ele>
        <time>2021-08-12T20:46:34.302Z</time>
      </trkpt>
      <trkpt lat="40.84003" lon="44.56729">
        <ele>1265.237652</ele>
        <time>2021-08-12T20:47:44.674Z</time>
      </trkpt>
      <trkpt lat="40.83988" lon="44.56714">
        <ele>1266.425477</ele>
        <time>2021-08-12T20:47:56.610Z</time>
      </trkpt>
      <trkpt lat="40.83978" lon="44.56689">
        <ele>1268.008575</ele>
        <time>2021-08-12T20:48:11.986Z</time>
      </trkpt>
      <trkpt lat="40.83978" lon="44.56666">
        <ele>1269.249062</ele>
        <time>2021-08-12T20:48:23.389Z</time>
      </trkpt>
      <trkpt lat="40.83986" lon="44.5664">
        <ele>1270.806743</ele>
        <time>2021-08-12T20:48:39.724Z</time>
      </trkpt>
      <trkpt lat="40.84002" lon="44.56597">
        <ele>1273.443897</ele>
        <time>2021-08-12T20:49:09.683Z</time>
      </trkpt>
      <trkpt lat="40.84081" lon="44.56452">
        <ele>1280.255501</ele>
        <time>2021-08-12T20:50:50.133Z</time>
      </trkpt>
      <trkpt lat="40.84084" lon="44.56439">
        <ele>1280.528477</ele>
        <time>2021-08-12T20:50:58.813Z</time>
      </trkpt>
      <trkpt lat="40.84082" lon="44.56431">
        <ele>1280.683596</ele>
        <time>2021-08-12T20:51:00.661Z</time>
      </trkpt>
      <trkpt lat="40.84073" lon="44.56412">
        <ele>1281.14345</ele>
        <time>2021-08-12T20:51:07.550Z</time>
      </trkpt>
      <trkpt lat="40.84066" lon="44.56406">
        <ele>1281.36228</ele>
        <time>2021-08-12T20:51:12.428Z</time>
      </trkpt>
      <trkpt lat="40.84024" lon="44.56399">
        <ele>1282.472673</ele>
        <time>2021-08-12T20:51:24.441Z</time>
      </trkpt>
      <trkpt lat="40.83987" lon="44.56403">
        <ele>1282.837753</ele>
        <time>2021-08-12T20:51:32.953Z</time>
      </trkpt>
      <trkpt lat="40.83913" lon="44.56438">
        <ele>1277.825018</ele>
        <time>2021-08-12T20:51:49.229Z</time>
      </trkpt>
      <trkpt lat="40.83903" lon="44.5644">
        <ele>1277.160504</ele>
        <time>2021-08-12T20:51:51.215Z</time>
      </trkpt>
      <trkpt lat="40.83885" lon="44.56438">
        <ele>1276.050802</ele>
        <time>2021-08-12T20:51:54.726Z</time>
      </trkpt>
      <trkpt lat="40.83688" lon="44.56372">
        <ele>1260.809255</ele>
        <time>2021-08-12T20:52:34.664Z</time>
      </trkpt>
      <trkpt lat="40.83627" lon="44.56366">
        <ele>1256.012656</ele>
        <time>2021-08-12T20:52:46.573Z</time>
      </trkpt>
      <trkpt lat="40.83571" lon="44.56361">
        <ele>1251.911452</ele>
        <time>2021-08-12T20:52:57.514Z</time>
      </trkpt>
      <trkpt lat="40.83551" lon="44.56349">
        <ele>1250.317022</ele>
        <time>2021-08-12T20:53:01.724Z</time>
      </trkpt>
      <trkpt lat="40.8352" lon="44.56319">
        <ele>1247.47936</ele>
        <time>2021-08-12T20:53:09.353Z</time>
      </trkpt>
      <trkpt lat="40.83433" lon="44.56206">
        <ele>1242.665557</ele>
        <time>2021-08-12T20:53:35.217Z</time>
      </trkpt>
      <trkpt lat="40.83404" lon="44.5617">
        <ele>1241.888017</ele>
        <time>2021-08-12T20:53:46.517Z</time>
      </trkpt>
      <trkpt lat="40.83378" lon="44.56145">
        <ele>1241.247845</ele>
        <time>2021-08-12T20:53:56.462Z</time>
      </trkpt>
      <trkpt lat="40.83376" lon="44.56122">
        <ele>1240.901121</ele>
        <time>2021-08-12T20:54:04.133Z</time>
      </trkpt>
      <trkpt lat="40.83313" lon="44.56053">
        <ele>1241.425345</ele>
        <time>2021-08-12T20:54:37.513Z</time>
      </trkpt>
      <trkpt lat="40.83289" lon="44.56035">
        <ele>1241.740284</ele>
        <time>2021-08-12T20:54:49.900Z</time>
      </trkpt>
      <trkpt lat="40.83254" lon="44.56042">
        <ele>1242.145228</ele>
        <time>2021-08-12T20:55:04.913Z</time>
      </trkpt>
      <trkpt lat="40.8324" lon="44.56036">
        <ele>1242.314831</ele>
        <time>2021-08-12T20:55:10.251Z</time>
      </trkpt>
      <trkpt lat="40.83205" lon="44.55996">
        <ele>1242.473242</ele>
        <time>2021-08-12T20:55:25.486Z</time>
      </trkpt>
      <trkpt lat="40.83137" lon="44.55938">
        <ele>1241.060884</ele>
        <time>2021-08-12T20:55:56.557Z</time>
      </trkpt>
      <trkpt lat="40.8309" lon="44.55872">
        <ele>1239.861788</ele>
        <time>2021-08-12T20:56:18.441Z</time>
      </trkpt>
      <trkpt lat="40.83031" lon="44.55824">
        <ele>1238.129999</ele>
        <time>2021-08-12T20:56:39.194Z</time>
      </trkpt>
      <trkpt lat="40.83014" lon="44.55812">
        <ele>1237.612201</ele>
        <time>2021-08-12T20:56:45.162Z</time>
      </trkpt>
      <trkpt lat="40.82985" lon="44.55813">
        <ele>1236.795178</ele>
        <time>2021-08-12T20:56:52.216Z</time>
      </trkpt>
      <trkpt lat="40.82963" lon="44.55823">
        <ele>1236.144428</ele>
        <time>2021-08-12T20:56:57.808Z</time>
      </trkpt>
      <trkpt lat="40.82941" lon="44.55803">
        <ele>1235.404598</ele>
        <time>2021-08-12T20:57:04.599Z</time>
      </trkpt>
      <trkpt lat="40.82888" lon="44.55742">
        <ele>1235.276624</ele>
        <time>2021-08-12T20:57:22.966Z</time>
      </trkpt>
      <trkpt lat="40.82871" lon="44.55721">
        <ele>1235.66793</ele>
        <time>2021-08-12T20:57:29.805Z</time>
      </trkpt>
      <trkpt lat="40.8285" lon="44.55673">
        <ele>1236.370353</ele>
        <time>2021-08-12T20:57:46.393Z</time>
      </trkpt>
      <trkpt lat="40.82844" lon="44.55655">
        <ele>1236.614787</ele>
        <time>2021-08-12T20:57:54.216Z</time>
      </trkpt>
      <trkpt lat="40.82833" lon="44.55577">
        <ele>1237.657766</ele>
        <time>2021-08-12T20:58:25.701Z</time>
      </trkpt>
      <trkpt lat="40.82827" lon="44.55555">
        <ele>1238.688541</ele>
        <time>2021-08-12T20:58:36.524Z</time>
      </trkpt>
      <trkpt lat="40.82806" lon="44.55516">
        <ele>1240.784067</ele>
        <time>2021-08-12T20:58:59.093Z</time>
      </trkpt>
      <trkpt lat="40.82756" lon="44.55444">
        <ele>1245.031433</ele>
        <time>2021-08-12T20:59:44.572Z</time>
      </trkpt>
      <trkpt lat="40.82708" lon="44.55375">
        <ele>1249.65369</ele>
        <time>2021-08-12T21:00:33.807Z</time>
      </trkpt>
      <trkpt lat="40.8268" lon="44.55306">
        <ele>1254.719048</ele>
        <time>2021-08-12T21:01:20.056Z</time>
      </trkpt>
      <trkpt lat="40.82676" lon="44.55262">
        <ele>1257.560746</ele>
        <time>2021-08-12T21:01:47.611Z</time>
      </trkpt>
      <trkpt lat="40.82694" lon="44.54922">
        <ele>1280.223775</ele>
        <time>2021-08-12T21:05:22.771Z</time>
      </trkpt>
      <trkpt lat="40.82693" lon="44.54894">
        <ele>1281.587752</ele>
        <time>2021-08-12T21:05:38.802Z</time>
      </trkpt>
      <trkpt lat="40.82691" lon="44.5487">
        <ele>1282.738345</ele>
        <time>2021-08-12T21:05:49.753Z</time>
      </trkpt>
      <trkpt lat="40.82682" lon="44.54835">
        <ele>1284.520689</ele>
        <time>2021-08-12T21:06:07.851Z</time>
      </trkpt>
      <trkpt lat="40.82666" lon="44.54806">
        <ele>1286.227863</ele>
        <time>2021-08-12T21:06:25.497Z</time>
      </trkpt>
      <trkpt lat="40.82622" lon="44.54754">
        <ele>1289.979669</ele>
        <time>2021-08-12T21:07:01.440Z</time>
      </trkpt>
      <trkpt lat="40.82577" lon="44.54717">
        <ele>1293.272604</ele>
        <time>2021-08-12T21:07:33.593Z</time>
      </trkpt>
      <trkpt lat="40.82519" lon="44.54693">
        <ele>1296.924038</ele>
        <time>2021-08-12T21:08:13.137Z</time>
      </trkpt>
      <trkpt lat="40.82418" lon="44.54685">
        <ele>1302.608042</ele>
        <time>2021-08-12T21:09:24.265Z</time>
      </trkpt>
      <trkpt lat="40.82292" lon="44.54639">
        <ele>1307.327081</ele>
        <time>2021-08-12T21:10:36.665Z</time>
      </trkpt>
      <trkpt lat="40.82172" lon="44.5463">
        <ele>1306.227274</ele>
        <time>2021-08-12T21:11:08.588Z</time>
      </trkpt>
      <trkpt lat="40.82072" lon="44.54601">
        <ele>1303.689295</ele>
        <time>2021-08-12T21:11:30.684Z</time>
      </trkpt>
      <trkpt lat="40.82052" lon="44.54589">
        <ele>1302.975625</ele>
        <time>2021-08-12T21:11:35.400Z</time>
      </trkpt>
      <trkpt lat="40.82012" lon="44.54547">
        <ele>1301.291012</ele>
        <time>2021-08-12T21:11:46.720Z</time>
      </trkpt>
      <trkpt lat="40.8196" lon="44.54513">
        <ele>1299.395414</ele>
        <time>2021-08-12T21:11:59.987Z</time>
      </trkpt>
      <trkpt lat="40.81855" lon="44.54432">
        <ele>1296.115511</ele>
        <time>2021-08-12T21:12:30.152Z</time>
      </trkpt>
      <trkpt lat="40.81815" lon="44.54394">
        <ele>1294.896291</ele>
        <time>2021-08-12T21:12:42.190Z</time>
      </trkpt>
      <trkpt lat="40.81799" lon="44.54371">
        <ele>1294.329272</ele>
        <time>2021-08-12T21:12:47.681Z</time>
      </trkpt>
      <trkpt lat="40.81784" lon="44.5435">
        <ele>1293.753268</ele>
        <time>2021-08-12T21:12:52.827Z</time>
      </trkpt>
      <trkpt lat="40.81673" lon="44.5417">
        <ele>1286.622733</ele>
        <time>2021-08-12T21:13:31.016Z</time>
      </trkpt>
      <trkpt lat="40.81638" lon="44.5409">
        <ele>1283.791903</ele>
        <time>2021-08-12T21:13:46.141Z</time>
      </trkpt>
      <trkpt lat="40.81603" lon="44.53986">
        <ele>1280.299241</ele>
        <time>2021-08-12T21:14:05.236Z</time>
      </trkpt>
      <trkpt lat="40.81585" lon="44.53909">
        <ele>1278.141515</ele>
        <time>2021-08-12T21:14:18.933Z</time>
      </trkpt>
      <trkpt lat="40.81571" lon="44.53875">
        <ele>1277.223861</ele>
        <time>2021-08-12T21:14:25.471Z</time>
      </trkpt>
      <trkpt lat="40.81549" lon="44.53847">
        <ele>1276.253216</ele>
        <time>2021-08-12T21:14:32.313Z</time>
      </trkpt>
      <trkpt lat="40.81525" lon="44.53825">
        <ele>1275.323674</ele>
        <time>2021-08-12T21:14:38.992Z</time>
      </trkpt>
      <trkpt lat="40.81435" lon="44.53775">
        <ele>1273.1955</ele>
        <time>2021-08-12T21:15:02.020Z</time>
      </trkpt>
      <trkpt lat="40.81422" lon="44.53767">
        <ele>1273.069725</ele>
        <time>2021-08-12T21:15:05.741Z</time>
      </trkpt>
      <trkpt lat="40.8139" lon="44.53734">
        <ele>1272.737433</ele>
        <time>2021-08-12T21:15:16.477Z</time>
      </trkpt>
      <trkpt lat="40.8138" lon="44.53699">
        <ele>1272.499539</ele>
        <time>2021-08-12T21:15:25.295Z</time>
      </trkpt>
      <trkpt lat="40.81379" lon="44.53687">
        <ele>1272.423058</ele>
        <time>2021-08-12T21:15:27.696Z</time>
      </trkpt>
      <trkpt lat="40.81375" lon="44.53637">
        <ele>1272.105105</ele>
        <time>2021-08-12T21:15:40.187Z</time>
      </trkpt>
      <trkpt lat="40.81366" lon="44.53524">
        <ele>1273.057447</ele>
        <time>2021-08-12T21:16:13.178Z</time>
      </trkpt>
      <trkpt lat="40.81349" lon="44.53282">
        <ele>1275.460137</ele>
        <time>2021-08-12T21:17:27.101Z</time>
      </trkpt>
      <trkpt lat="40.81351" lon="44.53209">
        <ele>1276.171587</ele>
        <time>2021-08-12T21:17:47.461Z</time>
      </trkpt>
      <trkpt lat="40.81363" lon="44.53168">
        <ele>1276.595449</ele>
        <time>2021-08-12T21:17:59.588Z</time>
      </trkpt>
      <trkpt lat="40.81431" lon="44.5308">
        <ele>1277.63045</ele>
        <time>2021-08-12T21:18:34.453Z</time>
      </trkpt>
      <trkpt lat="40.81455" lon="44.53006">
        <ele>1278.29179</ele>
        <time>2021-08-12T21:18:57.180Z</time>
      </trkpt>
      <trkpt lat="40.81469" lon="44.52943">
        <ele>1278.913272</ele>
        <time>2021-08-12T21:19:15.563Z</time>
      </trkpt>
      <trkpt lat="40.81511" lon="44.52667">
        <ele>1282.927166</ele>
        <time>2021-08-12T21:20:42.783Z</time>
      </trkpt>
      <trkpt lat="40.8155" lon="44.52501">
        <ele>1286.43284</ele>
        <time>2021-08-12T21:21:46.477Z</time>
      </trkpt>
      <trkpt lat="40.81577" lon="44.52411">
        <ele>1288.090924</ele>
        <time>2021-08-12T21:22:22.419Z</time>
      </trkpt>
      <trkpt lat="40.8158" lon="44.52273">
        <ele>1290.470261</ele>
        <time>2021-08-12T21:23:06.492Z</time>
      </trkpt>
      <trkpt lat="40.81586" lon="44.52206">
        <ele>1290.669865</ele>
        <time>2021-08-12T21:23:24.129Z</time>
      </trkpt>
      <trkpt lat="40.81594" lon="44.52149">
        <ele>1290.829068</ele>
        <time>2021-08-12T21:23:37.468Z</time>
      </trkpt>
      <trkpt lat="40.81643" lon="44.51974">
        <ele>1292.180141</ele>
        <time>2021-08-12T21:24:21.789Z</time>
      </trkpt>
      <trkpt lat="40.81641" lon="44.51924">
        <ele>1292.881089</ele>
        <time>2021-08-12T21:24:36.360Z</time>
      </trkpt>
      <trkpt lat="40.81636" lon="44.51899">
        <ele>1293.249706</ele>
        <time>2021-08-12T21:24:44.650Z</time>
      </trkpt>
      <trkpt lat="40.81626" lon="44.51859">
        <ele>1293.846196</ele>
        <time>2021-08-12T21:24:58.964Z</time>
      </trkpt>
      <trkpt lat="40.81586" lon="44.51664">
        <ele>1299.801339</ele>
        <time>2021-08-12T21:26:24.644Z</time>
      </trkpt>
      <trkpt lat="40.81577" lon="44.51569">
        <ele>1302.900539</ele>
        <time>2021-08-12T21:27:08.216Z</time>
      </trkpt>
      <trkpt lat="40.8157" lon="44.5147">
        <ele>1305.257353</ele>
        <time>2021-08-12T21:27:49.089Z</time>
      </trkpt>
      <trkpt lat="40.81568" lon="44.51455">
        <ele>1305.634585</ele>
        <time>2021-08-12T21:27:55.533Z</time>
      </trkpt>
      <trkpt lat="40.81559" lon="44.5139">
        <ele>1307.189582</ele>
        <time>2021-08-12T21:28:17.754Z</time>
      </trkpt>
      <trkpt lat="40.81533" lon="44.51288">
        <ele>1308.276786</ele>
        <time>2021-08-12T21:28:47.776Z</time>
      </trkpt>
      <trkpt lat="40.81515" lon="44.51189">
        <ele>1308.35526</ele>
        <time>2021-08-12T21:29:10.267Z</time>
      </trkpt>
      <trkpt lat="40.81504" lon="44.51153">
        <ele>1308.384854</ele>
        <time>2021-08-12T21:29:18.629Z</time>
      </trkpt>
      <trkpt lat="40.81473" lon="44.51091">
        <ele>1308.290253</ele>
        <time>2021-08-12T21:29:34.935Z</time>
      </trkpt>
      <trkpt lat="40.81451" lon="44.51033">
        <ele>1308.098784</ele>
        <time>2021-08-12T21:29:51.441Z</time>
      </trkpt>
      <trkpt lat="40.81439" lon="44.50978">
        <ele>1307.931034</ele>
        <time>2021-08-12T21:30:04.012Z</time>
      </trkpt>
      <trkpt lat="40.81431" lon="44.50911">
        <ele>1307.733621</ele>
        <time>2021-08-12T21:30:18.106Z</time>
      </trkpt>
      <trkpt lat="40.81431" lon="44.50895">
        <ele>1307.617273</ele>
        <time>2021-08-12T21:30:22.542Z</time>
      </trkpt>
      <trkpt lat="40.81428" lon="44.50853">
        <ele>1307.163112</ele>
        <time>2021-08-12T21:30:31.131Z</time>
      </trkpt>
      <trkpt lat="40.8143" lon="44.50731">
        <ele>1305.871596</ele>
        <time>2021-08-12T21:30:54.672Z</time>
      </trkpt>
      <trkpt lat="40.81448" lon="44.50494">
        <ele>1303.66603</ele>
        <time>2021-08-12T21:31:40.415Z</time>
      </trkpt>
      <trkpt lat="40.81457" lon="44.50466">
        <ele>1303.399591</ele>
        <time>2021-08-12T21:31:47.179Z</time>
      </trkpt>
      <trkpt lat="40.81513" lon="44.5034">
        <ele>1303.380887</ele>
        <time>2021-08-12T21:32:23.250Z</time>
      </trkpt>
      <trkpt lat="40.81564" lon="44.50199">
        <ele>1303.69627</ele>
        <time>2021-08-12T21:33:03.761Z</time>
      </trkpt>
      <trkpt lat="40.81606" lon="44.50044">
        <ele>1303.798805</ele>
        <time>2021-08-12T21:33:42.075Z</time>
      </trkpt>
      <trkpt lat="40.81627" lon="44.49937">
        <ele>1304.142579</ele>
        <time>2021-08-12T21:34:08.763Z</time>
      </trkpt>
      <trkpt lat="40.8164" lon="44.49909">
        <ele>1304.28959</ele>
        <time>2021-08-12T21:34:16.797Z</time>
      </trkpt>
      <trkpt lat="40.8166" lon="44.4988">
        <ele>1304.466962</ele>
        <time>2021-08-12T21:34:27.037Z</time>
      </trkpt>
      <trkpt lat="40.81669" lon="44.49846">
        <ele>1304.631796</ele>
        <time>2021-08-12T21:34:36.854Z</time>
      </trkpt>
      <trkpt lat="40.81671" lon="44.49752">
        <ele>1305.171272</ele>
        <time>2021-08-12T21:35:03.547Z</time>
      </trkpt>
      <trkpt lat="40.81676" lon="44.49705">
        <ele>1305.53677</ele>
        <time>2021-08-12T21:35:18.172Z</time>
      </trkpt>
      <trkpt lat="40.81687" lon="44.4966">
        <ele>1305.911766</ele>
        <time>2021-08-12T21:35:31.172Z</time>
      </trkpt>
      <trkpt lat="40.81702" lon="44.49606">
        <ele>1306.357356</ele>
        <time>2021-08-12T21:35:46.094Z</time>
      </trkpt>
      <trkpt lat="40.81713" lon="44.49576">
        <ele>1306.622702</ele>
        <time>2021-08-12T21:35:55.528Z</time>
      </trkpt>
      <trkpt lat="40.81716" lon="44.49564">
        <ele>1306.722847</ele>
        <time>2021-08-12T21:35:58.809Z</time>
      </trkpt>
      <trkpt lat="40.81723" lon="44.49529">
        <ele>1307.153807</ele>
        <time>2021-08-12T21:36:09.061Z</time>
      </trkpt>
      <trkpt lat="40.81725" lon="44.49514">
        <ele>1307.354779</ele>
        <time>2021-08-12T21:36:13.549Z</time>
      </trkpt>
      <trkpt lat="40.81718" lon="44.49512">
        <ele>1307.483435</ele>
        <time>2021-08-12T21:36:15.858Z</time>
      </trkpt>
      <trkpt lat="40.81709" lon="44.49512">
        <ele>1307.635897</ele>
        <time>2021-08-12T21:36:19.735Z</time>
      </trkpt>
      <trkpt lat="40.81693" lon="44.49517">
        <ele>1307.918221</ele>
        <time>2021-08-12T21:36:25.867Z</time>
      </trkpt>
      <trkpt lat="40.81688" lon="44.49516">
        <ele>1308.003677</ele>
        <time>2021-08-12T21:36:27.840Z</time>
      </trkpt>
      <trkpt lat="40.8148" lon="44.49499">
        <ele>1312.122315</ele>
        <time>2021-08-12T21:37:57.747Z</time>
      </trkpt>
      <trkpt lat="40.81455" lon="44.4949">
        <ele>1312.714211</ele>
        <time>2021-08-12T21:38:10.233Z</time>
      </trkpt>
      <trkpt lat="40.81435" lon="44.49475">
        <ele>1313.250358</ele>
        <time>2021-08-12T21:38:19.988Z</time>
      </trkpt>
      <trkpt lat="40.81418" lon="44.49461">
        <ele>1313.703332</ele>
        <time>2021-08-12T21:38:28.995Z</time>
      </trkpt>
      <trkpt lat="40.81415" lon="44.49455">
        <ele>1313.822142</ele>
        <time>2021-08-12T21:38:31.152Z</time>
      </trkpt>
      <trkpt lat="40.81412" lon="44.4945">
        <ele>1313.940596</ele>
        <time>2021-08-12T21:38:33.289Z</time>
      </trkpt>
      <trkpt lat="40.81407" lon="44.49446">
        <ele>1314.042073</ele>
        <time>2021-08-12T21:38:35.585Z</time>
      </trkpt>
      <trkpt lat="40.81402" lon="44.49443">
        <ele>1314.159862</ele>
        <time>2021-08-12T21:38:38.912Z</time>
      </trkpt>
      <trkpt lat="40.81384" lon="44.49443">
        <ele>1314.506789</ele>
        <time>2021-08-12T21:38:46.009Z</time>
      </trkpt>
      <trkpt lat="40.81374" lon="44.4945">
        <ele>1314.739478</ele>
        <time>2021-08-12T21:38:50.889Z</time>
      </trkpt>
      <trkpt lat="40.8137" lon="44.49456">
        <ele>1314.855681</ele>
        <time>2021-08-12T21:38:54.183Z</time>
      </trkpt>
      <trkpt lat="40.81368" lon="44.49459">
        <ele>1314.913677</ele>
        <time>2021-08-12T21:38:55.316Z</time>
      </trkpt>
      <trkpt lat="40.81366" lon="44.49467">
        <ele>1315.029027</ele>
        <time>2021-08-12T21:38:57.727Z</time>
      </trkpt>
      <trkpt lat="40.81365" lon="44.49471">
        <ele>1315.102006</ele>
        <time>2021-08-12T21:38:59.194Z</time>
      </trkpt>
      <trkpt lat="40.81361" lon="44.49481">
        <ele>1315.261976</ele>
        <time>2021-08-12T21:39:02.377Z</time>
      </trkpt>
      <trkpt lat="40.81334" lon="44.4952">
        <ele>1316.051972</ele>
        <time>2021-08-12T21:39:19.483Z</time>
      </trkpt>
      <trkpt lat="40.81317" lon="44.49533">
        <ele>1316.435479</ele>
        <time>2021-08-12T21:39:28.109Z</time>
      </trkpt>
      <trkpt lat="40.81301" lon="44.49538">
        <ele>1316.755153</ele>
        <time>2021-08-12T21:39:34.678Z</time>
      </trkpt>
      <trkpt lat="40.81237" lon="44.49557">
        <ele>1318.031658</ele>
        <time>2021-08-12T21:40:00.641Z</time>
      </trkpt>
      <trkpt lat="40.81162" lon="44.49578">
        <ele>1319.534718</ele>
        <time>2021-08-12T21:40:32.253Z</time>
      </trkpt>
      <trkpt lat="40.81118" lon="44.49591">
        <ele>1320.419231</ele>
        <time>2021-08-12T21:40:51.830Z</time>
      </trkpt>
      <trkpt lat="40.81034" lon="44.49616">
        <ele>1322.306668</ele>
        <time>2021-08-12T21:41:29.826Z</time>
      </trkpt>
      <trkpt lat="40.80986" lon="44.4963">
        <ele>1323.44581</ele>
        <time>2021-08-12T21:41:51.110Z</time>
      </trkpt>
      <trkpt lat="40.80936" lon="44.49645">
        <ele>1324.6545</ele>
        <time>2021-08-12T21:42:13.487Z</time>
      </trkpt>
      <trkpt lat="40.80867" lon="44.49665">
        <ele>1326.459931</ele>
        <time>2021-08-12T21:42:45.986Z</time>
      </trkpt>
      <trkpt lat="40.80797" lon="44.49685">
        <ele>1328.363533</ele>
        <time>2021-08-12T21:43:18.564Z</time>
      </trkpt>
      <trkpt lat="40.8079" lon="44.49688">
        <ele>1328.573157</ele>
        <time>2021-08-12T21:43:22.651Z</time>
      </trkpt>
      <trkpt lat="40.80784" lon="44.4969">
        <ele>1328.721863</ele>
        <time>2021-08-12T21:43:25.159Z</time>
      </trkpt>
      <trkpt lat="40.80758" lon="44.49684">
        <ele>1329.432853</ele>
        <time>2021-08-12T21:43:37.231Z</time>
      </trkpt>
      <trkpt lat="40.80753" lon="44.49677">
        <ele>1329.62046</ele>
        <time>2021-08-12T21:43:40.725Z</time>
      </trkpt>
      <trkpt lat="40.80747" lon="44.49673">
        <ele>1329.806712</ele>
        <time>2021-08-12T21:43:43.970Z</time>
      </trkpt>
      <trkpt lat="40.80741" lon="44.4967">
        <ele>1329.988534</ele>
        <time>2021-08-12T21:43:46.858Z</time>
      </trkpt>
      <trkpt lat="40.80734" lon="44.4967">
        <ele>1330.164025</ele>
        <time>2021-08-12T21:43:49.908Z</time>
      </trkpt>
      <trkpt lat="40.80734" lon="44.4967">
        <ele>1330.178577</ele>
        <time>2021-08-12T21:43:50.036Z</time>
      </trkpt>
      <trkpt lat="40.80717" lon="44.49685">
        <ele>1330.730649</ele>
        <time>2021-08-12T21:43:59.717Z</time>
      </trkpt>
      <trkpt lat="40.80714" lon="44.49693">
        <ele>1330.919573</ele>
        <time>2021-08-12T21:44:02.682Z</time>
      </trkpt>
      <trkpt lat="40.80691" lon="44.49707">
        <ele>1331.625869</ele>
        <time>2021-08-12T21:44:14.799Z</time>
      </trkpt>
      <trkpt lat="40.80689" lon="44.49707">
        <ele>1331.692856</ele>
        <time>2021-08-12T21:44:15.941Z</time>
      </trkpt>
      <trkpt lat="40.80656" lon="44.49708">
        <ele>1332.615352</ele>
        <time>2021-08-12T21:44:31.538Z</time>
      </trkpt>
      <trkpt lat="40.80572" lon="44.49712">
        <ele>1334.948043</ele>
        <time>2021-08-12T21:45:10.420Z</time>
      </trkpt>
      <trkpt lat="40.80522" lon="44.49714">
        <ele>1335.822715</ele>
        <time>2021-08-12T21:45:33.302Z</time>
      </trkpt>
      <trkpt lat="40.80505" lon="44.49715">
        <ele>1336.115109</ele>
        <time>2021-08-12T21:45:41.295Z</time>
      </trkpt>
      <trkpt lat="40.80488" lon="44.49715">
        <ele>1336.410942</ele>
        <time>2021-08-12T21:45:47.669Z</time>
      </trkpt>
      <trkpt lat="40.80483" lon="44.49715">
        <ele>1336.496678</ele>
        <time>2021-08-12T21:45:49.516Z</time>
      </trkpt>
      <trkpt lat="40.80468" lon="44.49698">
        <ele>1336.838071</ele>
        <time>2021-08-12T21:45:57.843Z</time>
      </trkpt>
      <trkpt lat="40.80453" lon="44.49685">
        <ele>1337.154521</ele>
        <time>2021-08-12T21:46:04.108Z</time>
      </trkpt>
      <trkpt lat="40.80452" lon="44.49681">
        <ele>1337.209508</ele>
        <time>2021-08-12T21:46:05.455Z</time>
      </trkpt>
      <trkpt lat="40.80451" lon="44.49677">
        <ele>1337.264776</ele>
        <time>2021-08-12T21:46:06.865Z</time>
      </trkpt>
      <trkpt lat="40.80448" lon="44.49674">
        <ele>1337.335986</ele>
        <time>2021-08-12T21:46:08.612Z</time>
      </trkpt>
      <trkpt lat="40.80445" lon="44.49673">
        <ele>1337.379673</ele>
        <time>2021-08-12T21:46:09.687Z</time>
      </trkpt>
      <trkpt lat="40.80432" lon="44.49669">
        <ele>1337.610176</ele>
        <time>2021-08-12T21:46:14.011Z</time>
      </trkpt>
      <trkpt lat="40.8042" lon="44.49673">
        <ele>1337.827809</ele>
        <time>2021-08-12T21:46:18.574Z</time>
      </trkpt>
      <trkpt lat="40.80415" lon="44.49677">
        <ele>1337.942867</ele>
        <time>2021-08-12T21:46:21.387Z</time>
      </trkpt>
      <trkpt lat="40.80409" lon="44.49685">
        <ele>1338.088897</ele>
        <time>2021-08-12T21:46:24.570Z</time>
      </trkpt>
      <trkpt lat="40.80404" lon="44.49695">
        <ele>1338.182301</ele>
        <time>2021-08-12T21:46:27.345Z</time>
      </trkpt>
      <trkpt lat="40.80384" lon="44.49729">
        <ele>1338.508477</ele>
        <time>2021-08-12T21:46:39.456Z</time>
      </trkpt>
      <trkpt lat="40.80376" lon="44.49738">
        <ele>1338.613333</ele>
        <time>2021-08-12T21:46:42.837Z</time>
      </trkpt>
      <trkpt lat="40.80355" lon="44.49749">
        <ele>1338.835251</ele>
        <time>2021-08-12T21:46:51.589Z</time>
      </trkpt>
      <trkpt lat="40.80348" lon="44.49753">
        <ele>1338.913268</ele>
        <time>2021-08-12T21:46:54.007Z</time>
      </trkpt>
      <trkpt lat="40.80261" lon="44.49799">
        <ele>1339.849976</ele>
        <time>2021-08-12T21:47:27.525Z</time>
      </trkpt>
      <trkpt lat="40.80256" lon="44.49801">
        <ele>1339.915654</ele>
        <time>2021-08-12T21:47:29.742Z</time>
      </trkpt>
      <trkpt lat="40.80184" lon="44.4984">
        <ele>1341.328421</ele>
        <time>2021-08-12T21:48:01.635Z</time>
      </trkpt>
      <trkpt lat="40.80119" lon="44.49873">
        <ele>1342.598888</ele>
        <time>2021-08-12T21:48:31.568Z</time>
      </trkpt>
      <trkpt lat="40.80103" lon="44.49881">
        <ele>1342.909359</ele>
        <time>2021-08-12T21:48:38.962Z</time>
      </trkpt>
      <trkpt lat="40.8007" lon="44.49899">
        <ele>1343.552374</ele>
        <time>2021-08-12T21:48:53.889Z</time>
      </trkpt>
      <trkpt lat="40.80022" lon="44.49941">
        <ele>1344.59773</ele>
        <time>2021-08-12T21:49:17.642Z</time>
      </trkpt>
      <trkpt lat="40.7996" lon="44.50027">
        <ele>1346.222429</ele>
        <time>2021-08-12T21:49:53.839Z</time>
      </trkpt>
      <trkpt lat="40.79915" lon="44.50104">
        <ele>1347.995119</ele>
        <time>2021-08-12T21:50:25.142Z</time>
      </trkpt>
      <trkpt lat="40.79842" lon="44.50227">
        <ele>1350.977408</ele>
        <time>2021-08-12T21:51:20.482Z</time>
      </trkpt>
      <trkpt lat="40.79803" lon="44.50291">
        <ele>1353.066251</ele>
        <time>2021-08-12T21:51:50.227Z</time>
      </trkpt>
      <trkpt lat="40.79759" lon="44.50365">
        <ele>1355.486183</ele>
        <time>2021-08-12T21:52:26.076Z</time>
      </trkpt>
      <trkpt lat="40.79754" lon="44.50375">
        <ele>1355.800996</ele>
        <time>2021-08-12T21:52:31.142Z</time>
      </trkpt>
      <trkpt lat="40.79731" lon="44.50413">
        <ele>1357.046204</ele>
        <time>2021-08-12T21:52:50.245Z</time>
      </trkpt>
      <trkpt lat="40.79707" lon="44.50453">
        <ele>1358.638838</ele>
        <time>2021-08-12T21:53:11.081Z</time>
      </trkpt>
      <trkpt lat="40.7968" lon="44.50498">
        <ele>1360.432467</ele>
        <time>2021-08-12T21:53:34.678Z</time>
      </trkpt>
      <trkpt lat="40.79641" lon="44.5056">
        <ele>1362.935311</ele>
        <time>2021-08-12T21:54:08.989Z</time>
      </trkpt>
      <trkpt lat="40.79624" lon="44.50591">
        <ele>1364.130122</ele>
        <time>2021-08-12T21:54:25.124Z</time>
      </trkpt>
      <trkpt lat="40.79605" lon="44.50628">
        <ele>1365.099801</ele>
        <time>2021-08-12T21:54:42.942Z</time>
      </trkpt>
      <trkpt lat="40.79592" lon="44.50657">
        <ele>1365.752332</ele>
        <time>2021-08-12T21:54:55.144Z</time>
      </trkpt>
      <trkpt lat="40.79588" lon="44.50665">
        <ele>1365.927699</ele>
        <time>2021-08-12T21:54:59.446Z</time>
      </trkpt>
      <trkpt lat="40.79563" lon="44.50725">
        <ele>1367.251938</ele>
        <time>2021-08-12T21:55:23.660Z</time>
      </trkpt>
      <trkpt lat="40.79482" lon="44.50897">
        <ele>1369.88441</ele>
        <time>2021-08-12T21:56:21.735Z</time>
      </trkpt>
      <trkpt lat="40.79475" lon="44.50912">
        <ele>1370.032082</ele>
        <time>2021-08-12T21:56:26.012Z</time>
      </trkpt>
      <trkpt lat="40.79469" lon="44.50924">
        <ele>1370.143147</ele>
        <time>2021-08-12T21:56:29.682Z</time>
      </trkpt>
      <trkpt lat="40.7941" lon="44.51048">
        <ele>1371.889717</ele>
        <time>2021-08-12T21:57:10.262Z</time>
      </trkpt>
      <trkpt lat="40.79374" lon="44.51124">
        <ele>1373.575925</ele>
        <time>2021-08-12T21:57:40.386Z</time>
      </trkpt>
      <trkpt lat="40.79346" lon="44.51184">
        <ele>1374.899664</ele>
        <time>2021-08-12T21:58:06.631Z</time>
      </trkpt>
      <trkpt lat="40.79322" lon="44.51234">
        <ele>1376.482966</ele>
        <time>2021-08-12T21:58:29.653Z</time>
      </trkpt>
      <trkpt lat="40.79196" lon="44.51502">
        <ele>1386.626641</ele>
        <time>2021-08-12T22:00:46.177Z</time>
      </trkpt>
      <trkpt lat="40.79146" lon="44.51602">
        <ele>1390.230004</ele>
        <time>2021-08-12T22:01:33.327Z</time>
      </trkpt>
      <trkpt lat="40.79074" lon="44.51747">
        <ele>1393.912836</ele>
        <time>2021-08-12T22:02:33.177Z</time>
      </trkpt>
      <trkpt lat="40.79019" lon="44.51871">
        <ele>1397.844462</ele>
        <time>2021-08-12T22:03:23.729Z</time>
      </trkpt>
      <trkpt lat="40.78998" lon="44.5193">
        <ele>1399.985999</ele>
        <time>2021-08-12T22:03:51.509Z</time>
      </trkpt>
      <trkpt lat="40.78971" lon="44.52004">
        <ele>1402.717604</ele>
        <time>2021-08-12T22:04:29.418Z</time>
      </trkpt>
      <trkpt lat="40.78954" lon="44.52055">
        <ele>1405.0334</ele>
        <time>2021-08-12T22:04:56.093Z</time>
      </trkpt>
      <trkpt lat="40.7893" lon="44.52126">
        <ele>1408.526095</ele>
        <time>2021-08-12T22:05:36.577Z</time>
      </trkpt>
      <trkpt lat="40.78904" lon="44.52201">
        <ele>1412.220555</ele>
        <time>2021-08-12T22:06:19.028Z</time>
      </trkpt>
      <trkpt lat="40.78897" lon="44.52224">
        <ele>1413.328156</ele>
        <time>2021-08-12T22:06:30.751Z</time>
      </trkpt>
      <trkpt lat="40.78897" lon="44.52224">
        <ele>1413.328156</ele>
        <time>2021-08-12T22:06:30.807Z</time>
      </trkpt>
      <trkpt lat="40.78897" lon="44.52224">
        <ele>1413.328156</ele>
        <time>2021-08-12T22:06:31.303Z</time>
      </trkpt>
      <trkpt lat="40.78861" lon="44.52329">
        <ele>1416.197357</ele>
        <time>2021-08-12T22:07:18.738Z</time>
      </trkpt>
      <trkpt lat="40.78775" lon="44.52579">
        <ele>1419.874822</ele>
        <time>2021-08-12T22:08:43.060Z</time>
      </trkpt>
      <trkpt lat="40.78761" lon="44.52616">
        <ele>1420.068867</ele>
        <time>2021-08-12T22:08:52.260Z</time>
      </trkpt>
      <trkpt lat="40.78747" lon="44.52653">
        <ele>1420.26389</ele>
        <time>2021-08-12T22:09:00.977Z</time>
      </trkpt>
      <trkpt lat="40.78722" lon="44.52712">
        <ele>1419.879105</ele>
        <time>2021-08-12T22:09:14.182Z</time>
      </trkpt>
      <trkpt lat="40.78721" lon="44.52713">
        <ele>1419.865796</ele>
        <time>2021-08-12T22:09:14.462Z</time>
      </trkpt>
      <trkpt lat="40.78715" lon="44.52724">
        <ele>1419.745211</ele>
        <time>2021-08-12T22:09:17.425Z</time>
      </trkpt>
      <trkpt lat="40.78735" lon="44.5274">
        <ele>1419.476131</ele>
        <time>2021-08-12T22:09:23.973Z</time>
      </trkpt>
      <trkpt lat="40.78777" lon="44.52773">
        <ele>1418.914934</ele>
        <time>2021-08-12T22:09:37.507Z</time>
      </trkpt>
      <trkpt lat="40.78795" lon="44.52788">
        <ele>1418.668083</ele>
        <time>2021-08-12T22:09:43.595Z</time>
      </trkpt>
      <trkpt lat="40.78799" lon="44.52792">
        <ele>1418.606726</ele>
        <time>2021-08-12T22:09:44.798Z</time>
      </trkpt>
      <trkpt lat="40.78782" lon="44.52841">
        <ele>1418.282909</ele>
        <time>2021-08-12T22:09:56.086Z</time>
      </trkpt>
      <trkpt lat="40.78771" lon="44.52874">
        <ele>1418.345193</ele>
        <time>2021-08-12T22:10:03.770Z</time>
      </trkpt>
      <trkpt lat="40.78767" lon="44.52887">
        <ele>1418.369358</ele>
        <time>2021-08-12T22:10:06.555Z</time>
      </trkpt>
      <trkpt lat="40.78745" lon="44.5296">
        <ele>1418.504327</ele>
        <time>2021-08-12T22:10:26.310Z</time>
      </trkpt>
      <trkpt lat="40.78746" lon="44.53013">
        <ele>1418.595817</ele>
        <time>2021-08-12T22:10:41.638Z</time>
      </trkpt>
      <trkpt lat="40.78748" lon="44.53017">
        <ele>1418.602821</ele>
        <time>2021-08-12T22:10:42.898Z</time>
      </trkpt>
      <trkpt lat="40.78723" lon="44.53049">
        <ele>1418.812202</ele>
        <time>2021-08-12T22:10:57.296Z</time>
      </trkpt>
      <trkpt lat="40.78706" lon="44.5307">
        <ele>1419.337991</ele>
        <time>2021-08-12T22:11:07.019Z</time>
      </trkpt>
      <trkpt lat="40.786" lon="44.53208">
        <ele>1422.760121</ele>
        <time>2021-08-12T22:12:15.303Z</time>
      </trkpt>
      <trkpt lat="40.786" lon="44.53209">
        <ele>1422.7864</ele>
        <time>2021-08-12T22:12:15.835Z</time>
      </trkpt>
      <trkpt lat="40.78628" lon="44.53246">
        <ele>1424.06901</ele>
        <time>2021-08-12T22:12:34.703Z</time>
      </trkpt>
      <trkpt lat="40.78509" lon="44.53372">
        <ele>1429.164603</ele>
        <time>2021-08-12T22:13:53.326Z</time>
      </trkpt>
      <trkpt lat="40.78423" lon="44.53484">
        <ele>1433.916109</ele>
        <time>2021-08-12T22:14:59.221Z</time>
      </trkpt>
      <trkpt lat="40.78417" lon="44.53492">
        <ele>1434.24863</ele>
        <time>2021-08-12T22:15:04.127Z</time>
      </trkpt>
      <trkpt lat="40.78409" lon="44.53507">
        <ele>1434.804346</ele>
        <time>2021-08-12T22:15:11.650Z</time>
      </trkpt>
      <trkpt lat="40.78405" lon="44.53539">
        <ele>1435.785629</ele>
        <time>2021-08-12T22:15:25.467Z</time>
      </trkpt>
      <trkpt lat="40.78414" lon="44.53564">
        <ele>1436.673751</ele>
        <time>2021-08-12T22:15:37.925Z</time>
      </trkpt>
      <trkpt lat="40.78395" lon="44.53613">
        <ele>1438.443439</ele>
        <time>2021-08-12T22:16:00.959Z</time>
      </trkpt>
      <trkpt lat="40.78386" lon="44.53736">
        <ele>1442.417905</ele>
        <time>2021-08-12T22:16:53.776Z</time>
      </trkpt>
      <trkpt lat="40.78385" lon="44.53743">
        <ele>1442.645511</ele>
        <time>2021-08-12T22:16:57.803Z</time>
      </trkpt>
      <trkpt lat="40.78376" lon="44.53809">
        <ele>1444.583808</ele>
        <time>2021-08-12T22:17:25.066Z</time>
      </trkpt>
      <trkpt lat="40.78376" lon="44.53811">
        <ele>1444.653243</ele>
        <time>2021-08-12T22:17:27.256Z</time>
      </trkpt>
      <trkpt lat="40.78362" lon="44.53906">
        <ele>1447.291294</ele>
        <time>2021-08-12T22:18:05.843Z</time>
      </trkpt>
      <trkpt lat="40.78357" lon="44.54006">
        <ele>1450.036353</ele>
        <time>2021-08-12T22:18:44.890Z</time>
      </trkpt>
      <trkpt lat="40.78337" lon="44.54101">
        <ele>1452.195737</ele>
        <time>2021-08-12T22:19:19.930Z</time>
      </trkpt>
      <trkpt lat="40.78317" lon="44.54184">
        <ele>1454.101912</ele>
        <time>2021-08-12T22:19:51.130Z</time>
      </trkpt>
      <trkpt lat="40.78314" lon="44.54244">
        <ele>1455.518571</ele>
        <time>2021-08-12T22:20:14.064Z</time>
      </trkpt>
      <trkpt lat="40.78299" lon="44.54308">
        <ele>1457.495159</ele>
        <time>2021-08-12T22:20:41.080Z</time>
      </trkpt>
      <trkpt lat="40.78278" lon="44.54394">
        <ele>1460.130627</ele>
        <time>2021-08-12T22:21:17.201Z</time>
      </trkpt>
      <trkpt lat="40.78275" lon="44.54441">
        <ele>1461.532401</ele>
        <time>2021-08-12T22:21:38.094Z</time>
      </trkpt>
      <trkpt lat="40.78265" lon="44.54463">
        <ele>1462.312436</ele>
        <time>2021-08-12T22:21:48.087Z</time>
      </trkpt>
      <trkpt lat="40.78264" lon="44.54491">
        <ele>1463.469853</ele>
        <time>2021-08-12T22:22:01.295Z</time>
      </trkpt>
      <trkpt lat="40.78257" lon="44.54544">
        <ele>1465.672358</ele>
        <time>2021-08-12T22:22:26.811Z</time>
      </trkpt>
      <trkpt lat="40.78242" lon="44.54577">
        <ele>1467.277648</ele>
        <time>2021-08-12T22:22:45.946Z</time>
      </trkpt>
      <trkpt lat="40.78228" lon="44.54591">
        <ele>1468.224419</ele>
        <time>2021-08-12T22:22:56.699Z</time>
      </trkpt>
      <trkpt lat="40.78228" lon="44.54596">
        <ele>1468.408662</ele>
        <time>2021-08-12T22:23:00.020Z</time>
      </trkpt>
      <trkpt lat="40.78231" lon="44.54659">
        <ele>1471.019</ele>
        <time>2021-08-12T22:23:29.620Z</time>
      </trkpt>
      <trkpt lat="40.78229" lon="44.54676">
        <ele>1471.724848</ele>
        <time>2021-08-12T22:23:37.613Z</time>
      </trkpt>
      <trkpt lat="40.78226" lon="44.547">
        <ele>1472.86929</ele>
        <time>2021-08-12T22:23:49.456Z</time>
      </trkpt>
      <trkpt lat="40.78222" lon="44.54723">
        <ele>1474.044019</ele>
        <time>2021-08-12T22:24:00.127Z</time>
      </trkpt>
      <trkpt lat="40.78213" lon="44.54753">
        <ele>1475.664915</ele>
        <time>2021-08-12T22:24:16.459Z</time>
      </trkpt>
      <trkpt lat="40.78192" lon="44.54797">
        <ele>1478.234951</ele>
        <time>2021-08-12T22:24:44.344Z</time>
      </trkpt>
      <trkpt lat="40.7817" lon="44.54839">
        <ele>1480.740185</ele>
        <time>2021-08-12T22:25:11.007Z</time>
      </trkpt>
      <trkpt lat="40.78146" lon="44.54883">
        <ele>1483.402481</ele>
        <time>2021-08-12T22:25:39.480Z</time>
      </trkpt>
      <trkpt lat="40.78133" lon="44.54907">
        <ele>1484.913682</ele>
        <time>2021-08-12T22:25:55.126Z</time>
      </trkpt>
      <trkpt lat="40.78116" lon="44.54939">
        <ele>1486.925584</ele>
        <time>2021-08-12T22:26:15.942Z</time>
      </trkpt>
      <trkpt lat="40.7802" lon="44.55112">
        <ele>1497.957065</ele>
        <time>2021-08-12T22:28:07.572Z</time>
      </trkpt>
      <trkpt lat="40.77939" lon="44.5522">
        <ele>1505.821905</ele>
        <time>2021-08-12T22:29:26.403Z</time>
      </trkpt>
      <trkpt lat="40.77913" lon="44.55255">
        <ele>1508.443556</ele>
        <time>2021-08-12T22:29:53.710Z</time>
      </trkpt>
      <trkpt lat="40.77902" lon="44.55274">
        <ele>1509.742476</ele>
        <time>2021-08-12T22:30:06.712Z</time>
      </trkpt>
      <trkpt lat="40.77893" lon="44.55295">
        <ele>1511.125363</ele>
        <time>2021-08-12T22:30:20.183Z</time>
      </trkpt>
      <trkpt lat="40.77873" lon="44.55343">
        <ele>1514.155183</ele>
        <time>2021-08-12T22:30:50.822Z</time>
      </trkpt>
      <trkpt lat="40.77668" lon="44.55878">
        <ele>1547.483197</ele>
        <time>2021-08-12T22:36:20.207Z</time>
      </trkpt>
      <trkpt lat="40.77662" lon="44.559">
        <ele>1548.632211</ele>
        <time>2021-08-12T22:36:32.596Z</time>
      </trkpt>
      <trkpt lat="40.77639" lon="44.56074">
        <ele>1556.914056</ele>
        <time>2021-08-12T22:38:01.871Z</time>
      </trkpt>
      <trkpt lat="40.7757" lon="44.56314">
        <ele>1566.948686</ele>
        <time>2021-08-12T22:39:57.628Z</time>
      </trkpt>
      <trkpt lat="40.77539" lon="44.56442">
        <ele>1571.569388</ele>
        <time>2021-08-12T22:40:53.580Z</time>
      </trkpt>
      <trkpt lat="40.77495" lon="44.56588">
        <ele>1576.902462</ele>
        <time>2021-08-12T22:42:00.497Z</time>
      </trkpt>
      <trkpt lat="40.77454" lon="44.56776">
        <ele>1583.8059</ele>
        <time>2021-08-12T22:43:27.425Z</time>
      </trkpt>
      <trkpt lat="40.77357" lon="44.56988">
        <ele>1590.715516</ele>
        <time>2021-08-12T22:45:05.198Z</time>
      </trkpt>
      <trkpt lat="40.77308" lon="44.57199">
        <ele>1594.418114</ele>
        <time>2021-08-12T22:46:16.445Z</time>
      </trkpt>
      <trkpt lat="40.77303" lon="44.57228">
        <ele>1594.905869</ele>
        <time>2021-08-12T22:46:25.526Z</time>
      </trkpt>
      <trkpt lat="40.77303" lon="44.57285">
        <ele>1595.827901</ele>
        <time>2021-08-12T22:46:43.271Z</time>
      </trkpt>
      <trkpt lat="40.77345" lon="44.57444">
        <ele>1598.56579</ele>
        <time>2021-08-12T22:47:37.387Z</time>
      </trkpt>
      <trkpt lat="40.77373" lon="44.57644">
        <ele>1604.20877</ele>
        <time>2021-08-12T22:48:56.345Z</time>
      </trkpt>
      <trkpt lat="40.77377" lon="44.57666">
        <ele>1604.818638</ele>
        <time>2021-08-12T22:49:05.688Z</time>
      </trkpt>
      <trkpt lat="40.77385" lon="44.57704">
        <ele>1606.432398</ele>
        <time>2021-08-12T22:49:22.262Z</time>
      </trkpt>
      <trkpt lat="40.77423" lon="44.57881">
        <ele>1614.948795</ele>
        <time>2021-08-12T22:50:54.808Z</time>
      </trkpt>
      <trkpt lat="40.77427" lon="44.57905">
        <ele>1616.109277</ele>
        <time>2021-08-12T22:51:09.771Z</time>
      </trkpt>
      <trkpt lat="40.77431" lon="44.57929">
        <ele>1617.53691</ele>
        <time>2021-08-12T22:51:21.757Z</time>
      </trkpt>
      <trkpt lat="40.77433" lon="44.57951">
        <ele>1618.824067</ele>
        <time>2021-08-12T22:51:35.321Z</time>
      </trkpt>
      <trkpt lat="40.77432" lon="44.58026">
        <ele>1623.168092</ele>
        <time>2021-08-12T22:52:15.722Z</time>
      </trkpt>
      <trkpt lat="40.77431" lon="44.58039">
        <ele>1623.968641</ele>
        <time>2021-08-12T22:52:24.705Z</time>
      </trkpt>
      <trkpt lat="40.7743" lon="44.58064">
        <ele>1625.382562</ele>
        <time>2021-08-12T22:52:38.755Z</time>
      </trkpt>
      <trkpt lat="40.77427" lon="44.58113">
        <ele>1628.251311</ele>
        <time>2021-08-12T22:53:07.665Z</time>
      </trkpt>
      <trkpt lat="40.7743" lon="44.58154">
        <ele>1630.659899</ele>
        <time>2021-08-12T22:53:31.908Z</time>
      </trkpt>
      <trkpt lat="40.77451" lon="44.58213">
        <ele>1634.343956</ele>
        <time>2021-08-12T22:54:07.275Z</time>
      </trkpt>
      <trkpt lat="40.77544" lon="44.58424">
        <ele>1648.304107</ele>
        <time>2021-08-12T22:56:21.657Z</time>
      </trkpt>
      <trkpt lat="40.77553" lon="44.58461">
        <ele>1650.516315</ele>
        <time>2021-08-12T22:56:43.347Z</time>
      </trkpt>
      <trkpt lat="40.77555" lon="44.58495">
        <ele>1652.526078</ele>
        <time>2021-08-12T22:57:02.912Z</time>
      </trkpt>
      <trkpt lat="40.77554" lon="44.58518">
        <ele>1653.83822</ele>
        <time>2021-08-12T22:57:16.256Z</time>
      </trkpt>
      <trkpt lat="40.7755" lon="44.58538">
        <ele>1655.053665</ele>
        <time>2021-08-12T22:57:28.183Z</time>
      </trkpt>
      <trkpt lat="40.77528" lon="44.58607">
        <ele>1659.22029</ele>
        <time>2021-08-12T22:58:10.408Z</time>
      </trkpt>
      <trkpt lat="40.77478" lon="44.58759">
        <ele>1668.222687</ele>
        <time>2021-08-12T22:59:40.499Z</time>
      </trkpt>
      <trkpt lat="40.77439" lon="44.58874">
        <ele>1674.722327</ele>
        <time>2021-08-12T23:00:44.151Z</time>
      </trkpt>
      <trkpt lat="40.7739" lon="44.59013">
        <ele>1682.508462</ele>
        <time>2021-08-12T23:02:04.487Z</time>
      </trkpt>
      <trkpt lat="40.77369" lon="44.59068">
        <ele>1685.722424</ele>
        <time>2021-08-12T23:02:37.309Z</time>
      </trkpt>
      <trkpt lat="40.77333" lon="44.59185">
        <ele>1692.281774</ele>
        <time>2021-08-12T23:03:44.141Z</time>
      </trkpt>
      <trkpt lat="40.7732" lon="44.59327">
        <ele>1699.746567</ele>
        <time>2021-08-12T23:04:59.473Z</time>
      </trkpt>
      <trkpt lat="40.7731" lon="44.59384">
        <ele>1702.773755</ele>
        <time>2021-08-12T23:05:30.372Z</time>
      </trkpt>
      <trkpt lat="40.7729" lon="44.59439">
        <ele>1705.932239</ele>
        <time>2021-08-12T23:06:02.767Z</time>
      </trkpt>
      <trkpt lat="40.77266" lon="44.59485">
        <ele>1708.84084</ele>
        <time>2021-08-12T23:06:32.870Z</time>
      </trkpt>
      <trkpt lat="40.77237" lon="44.59559">
        <ele>1713.0597</ele>
        <time>2021-08-12T23:07:16.438Z</time>
      </trkpt>
      <trkpt lat="40.77199" lon="44.59811">
        <ele>1726.084531</ele>
        <time>2021-08-12T23:09:29.081Z</time>
      </trkpt>
      <trkpt lat="40.77169" lon="44.59929">
        <ele>1732.392494</ele>
        <time>2021-08-12T23:10:34.026Z</time>
      </trkpt>
      <trkpt lat="40.77164" lon="44.59967">
        <ele>1734.368702</ele>
        <time>2021-08-12T23:10:54.054Z</time>
      </trkpt>
      <trkpt lat="40.77164" lon="44.60005">
        <ele>1736.333555</ele>
        <time>2021-08-12T23:11:13.973Z</time>
      </trkpt>
      <trkpt lat="40.77179" lon="44.60068">
        <ele>1739.749147</ele>
        <time>2021-08-12T23:11:48.667Z</time>
      </trkpt>
      <trkpt lat="40.77249" lon="44.60227">
        <ele>1748.794325</ele>
        <time>2021-08-12T23:13:26.206Z</time>
      </trkpt>
      <trkpt lat="40.77263" lon="44.60289">
        <ele>1751.885258</ele>
        <time>2021-08-12T23:13:58.602Z</time>
      </trkpt>
      <trkpt lat="40.77267" lon="44.60392">
        <ele>1756.043667</ele>
        <time>2021-08-12T23:14:47.105Z</time>
      </trkpt>
      <trkpt lat="40.7727" lon="44.60535">
        <ele>1760.528163</ele>
        <time>2021-08-12T23:15:45.414Z</time>
      </trkpt>
      <trkpt lat="40.77274" lon="44.60689">
        <ele>1764.513813</ele>
        <time>2021-08-12T23:16:40.649Z</time>
      </trkpt>
      <trkpt lat="40.77288" lon="44.60906">
        <ele>1770.037404</ele>
        <time>2021-08-12T23:18:01.934Z</time>
      </trkpt>
      <trkpt lat="40.77285" lon="44.61048">
        <ele>1773.995349</ele>
        <time>2021-08-12T23:18:58.259Z</time>
      </trkpt>
      <trkpt lat="40.77275" lon="44.61189">
        <ele>1778.649405</ele>
        <time>2021-08-12T23:19:59.263Z</time>
      </trkpt>
      <trkpt lat="40.77267" lon="44.61356">
        <ele>1783.520085</ele>
        <time>2021-08-12T23:21:09.448Z</time>
      </trkpt>
      <trkpt lat="40.77244" lon="44.61419">
        <ele>1785.123828</ele>
        <time>2021-08-12T23:21:36.641Z</time>
      </trkpt>
      <trkpt lat="40.77044" lon="44.61756">
        <ele>1792.317161</ele>
        <time>2021-08-12T23:23:50.543Z</time>
      </trkpt>
      <trkpt lat="40.76973" lon="44.6191">
        <ele>1796.05588</ele>
        <time>2021-08-12T23:24:52.477Z</time>
      </trkpt>
      <trkpt lat="40.76937" lon="44.61988">
        <ele>1799.173012</ele>
        <time>2021-08-12T23:25:30.656Z</time>
      </trkpt>
      <trkpt lat="40.76925" lon="44.62014">
        <ele>1800.234237</ele>
        <time>2021-08-12T23:25:45.042Z</time>
      </trkpt>
      <trkpt lat="40.76919" lon="44.62027">
        <ele>1800.757975</ele>
        <time>2021-08-12T23:25:52.505Z</time>
      </trkpt>
      <trkpt lat="40.76901" lon="44.6207">
        <ele>1802.440441</ele>
        <time>2021-08-12T23:26:16.689Z</time>
      </trkpt>
      <trkpt lat="40.76874" lon="44.62127">
        <ele>1804.420379</ele>
        <time>2021-08-12T23:26:46.921Z</time>
      </trkpt>
      <trkpt lat="40.76829" lon="44.62218">
        <ele>1807.423768</ele>
        <time>2021-08-12T23:27:33.378Z</time>
      </trkpt>
      <trkpt lat="40.76806" lon="44.62237">
        <ele>1808.386104</ele>
        <time>2021-08-12T23:27:45.592Z</time>
      </trkpt>
      <trkpt lat="40.76698" lon="44.62326">
        <ele>1809.90624</ele>
        <time>2021-08-12T23:28:32.291Z</time>
      </trkpt>
      <trkpt lat="40.76537" lon="44.62428">
        <ele>1810.13387</ele>
        <time>2021-08-12T23:29:21.948Z</time>
      </trkpt>
      <trkpt lat="40.765" lon="44.62463">
        <ele>1810.147474</ele>
        <time>2021-08-12T23:29:37.314Z</time>
      </trkpt>
      <trkpt lat="40.76497" lon="44.62465">
        <ele>1810.148355</ele>
        <time>2021-08-12T23:29:38.820Z</time>
      </trkpt>
      <trkpt lat="40.76462" lon="44.62509">
        <ele>1810.295388</ele>
        <time>2021-08-12T23:29:56.448Z</time>
      </trkpt>
      <trkpt lat="40.76447" lon="44.62536">
        <ele>1810.727201</ele>
        <time>2021-08-12T23:30:05.769Z</time>
      </trkpt>
      <trkpt lat="40.76416" lon="44.62582">
        <ele>1811.526219</ele>
        <time>2021-08-12T23:30:23.894Z</time>
      </trkpt>
      <trkpt lat="40.76318" lon="44.62699">
        <ele>1814.072926</ele>
        <time>2021-08-12T23:31:21.268Z</time>
      </trkpt>
      <trkpt lat="40.76303" lon="44.62982">
        <ele>1819.271142</ele>
        <time>2021-08-12T23:32:59.689Z</time>
      </trkpt>
      <trkpt lat="40.76302" lon="44.63009">
        <ele>1819.728991</ele>
        <time>2021-08-12T23:33:09.359Z</time>
      </trkpt>
      <trkpt lat="40.76293" lon="44.63039">
        <ele>1820.278098</ele>
        <time>2021-08-12T23:33:19.951Z</time>
      </trkpt>
      <trkpt lat="40.76267" lon="44.63077">
        <ele>1821.148351</ele>
        <time>2021-08-12T23:33:36.776Z</time>
      </trkpt>
      <trkpt lat="40.76156" lon="44.63175">
        <ele>1822.783178</ele>
        <time>2021-08-12T23:34:28.342Z</time>
      </trkpt>
      <trkpt lat="40.76009" lon="44.63265">
        <ele>1823.434209</ele>
        <time>2021-08-12T23:35:21.135Z</time>
      </trkpt>
      <trkpt lat="40.75855" lon="44.63383">
        <ele>1822.593429</ele>
        <time>2021-08-12T23:36:13.432Z</time>
      </trkpt>
      <trkpt lat="40.75844" lon="44.63394">
        <ele>1822.466883</ele>
        <time>2021-08-12T23:36:17.136Z</time>
      </trkpt>
      <trkpt lat="40.75842" lon="44.63397">
        <ele>1822.436091</ele>
        <time>2021-08-12T23:36:18.026Z</time>
      </trkpt>
      <trkpt lat="40.75769" lon="44.63479">
        <ele>1821.316707</ele>
        <time>2021-08-12T23:36:42.869Z</time>
      </trkpt>
      <trkpt lat="40.75754" lon="44.635">
        <ele>1820.844033</ele>
        <time>2021-08-12T23:36:48.210Z</time>
      </trkpt>
      <trkpt lat="40.75712" lon="44.6357">
        <ele>1819.375022</ele>
        <time>2021-08-12T23:37:04.397Z</time>
      </trkpt>
      <trkpt lat="40.75654" lon="44.63683">
        <ele>1817.162715</ele>
        <time>2021-08-12T23:37:29.097Z</time>
      </trkpt>
      <trkpt lat="40.7563" lon="44.6375">
        <ele>1816.010489</ele>
        <time>2021-08-12T23:37:42.618Z</time>
      </trkpt>
      <trkpt lat="40.75566" lon="44.63982">
        <ele>1813.082679</ele>
        <time>2021-08-12T23:38:29.941Z</time>
      </trkpt>
      <trkpt lat="40.75533" lon="44.64234">
        <ele>1812.375263</ele>
        <time>2021-08-12T23:39:26.493Z</time>
      </trkpt>
      <trkpt lat="40.75522" lon="44.64261">
        <ele>1812.423936</ele>
        <time>2021-08-12T23:39:34.461Z</time>
      </trkpt>
      <trkpt lat="40.7549" lon="44.64329">
        <ele>1812.760207</ele>
        <time>2021-08-12T23:39:56.834Z</time>
      </trkpt>
      <trkpt lat="40.75473" lon="44.64367">
        <ele>1813.439925</ele>
        <time>2021-08-12T23:40:10.132Z</time>
      </trkpt>
      <trkpt lat="40.75407" lon="44.64524">
        <ele>1816.18797</ele>
        <time>2021-08-12T23:41:09.663Z</time>
      </trkpt>
      <trkpt lat="40.75369" lon="44.64566">
        <ele>1817.525205</ele>
        <time>2021-08-12T23:41:33.354Z</time>
      </trkpt>
      <trkpt lat="40.75306" lon="44.64634">
        <ele>1819.719838</ele>
        <time>2021-08-12T23:42:12.625Z</time>
      </trkpt>
      <trkpt lat="40.7523" lon="44.64716">
        <ele>1821.440963</ele>
        <time>2021-08-12T23:42:56.383Z</time>
      </trkpt>
      <trkpt lat="40.75224" lon="44.64722">
        <ele>1821.50219</ele>
        <time>2021-08-12T23:42:59.508Z</time>
      </trkpt>
      <trkpt lat="40.74965" lon="44.64976">
        <ele>1821.880031</ele>
        <time>2021-08-12T23:44:39.711Z</time>
      </trkpt>
      <trkpt lat="40.74934" lon="44.65028">
        <ele>1820.946933</ele>
        <time>2021-08-12T23:44:52.415Z</time>
      </trkpt>
      <trkpt lat="40.74855" lon="44.65283">
        <ele>1817.121445</ele>
        <time>2021-08-12T23:45:42.457Z</time>
      </trkpt>
      <trkpt lat="40.74842" lon="44.65351">
        <ele>1816.157106</ele>
        <time>2021-08-12T23:45:56.119Z</time>
      </trkpt>
      <trkpt lat="40.74847" lon="44.65383">
        <ele>1815.705607</ele>
        <time>2021-08-12T23:46:02.844Z</time>
      </trkpt>
      <trkpt lat="40.74844" lon="44.65424">
        <ele>1815.607651</ele>
        <time>2021-08-12T23:46:11.591Z</time>
      </trkpt>
      <trkpt lat="40.74826" lon="44.6554">
        <ele>1815.4188</ele>
        <time>2021-08-12T23:46:39.878Z</time>
      </trkpt>
      <trkpt lat="40.74797" lon="44.65691">
        <ele>1814.667426</ele>
        <time>2021-08-12T23:47:16.902Z</time>
      </trkpt>
      <trkpt lat="40.74782" lon="44.65726">
        <ele>1814.340186</ele>
        <time>2021-08-12T23:47:25.407Z</time>
      </trkpt>
      <trkpt lat="40.74542" lon="44.66057">
        <ele>1808.327357</ele>
        <time>2021-08-12T23:48:50.916Z</time>
      </trkpt>
      <trkpt lat="40.74511" lon="44.66133">
        <ele>1807.115466</ele>
        <time>2021-08-12T23:49:07.068Z</time>
      </trkpt>
      <trkpt lat="40.74484" lon="44.6623">
        <ele>1806.125337</ele>
        <time>2021-08-12T23:49:27.069Z</time>
      </trkpt>
      <trkpt lat="40.74478" lon="44.66343">
        <ele>1805.546024</ele>
        <time>2021-08-12T23:49:51.514Z</time>
      </trkpt>
      <trkpt lat="40.74461" lon="44.66405">
        <ele>1805.214092</ele>
        <time>2021-08-12T23:50:06.992Z</time>
      </trkpt>
      <trkpt lat="40.74437" lon="44.66449">
        <ele>1805.152768</ele>
        <time>2021-08-12T23:50:20.078Z</time>
      </trkpt>
      <trkpt lat="40.74356" lon="44.66502">
        <ele>1805.096781</ele>
        <time>2021-08-12T23:50:48.977Z</time>
      </trkpt>
      <trkpt lat="40.74258" lon="44.66611">
        <ele>1804.446622</ele>
        <time>2021-08-12T23:51:26.014Z</time>
      </trkpt>
      <trkpt lat="40.74202" lon="44.66688">
        <ele>1803.767462</ele>
        <time>2021-08-12T23:51:47.412Z</time>
      </trkpt>
      <trkpt lat="40.74181" lon="44.66744">
        <ele>1803.476982</ele>
        <time>2021-08-12T23:51:59.698Z</time>
      </trkpt>
      <trkpt lat="40.74145" lon="44.66948">
        <ele>1802.936101</ele>
        <time>2021-08-12T23:52:47.119Z</time>
      </trkpt>
      <trkpt lat="40.74132" lon="44.67033">
        <ele>1803.405759</ele>
        <time>2021-08-12T23:53:10.487Z</time>
      </trkpt>
      <trkpt lat="40.74098" lon="44.67215">
        <ele>1803.975114</ele>
        <time>2021-08-12T23:54:03.168Z</time>
      </trkpt>
      <trkpt lat="40.74084" lon="44.67314">
        <ele>1803.321684</ele>
        <time>2021-08-12T23:54:24.863Z</time>
      </trkpt>
      <trkpt lat="40.74071" lon="44.67427">
        <ele>1802.319106</ele>
        <time>2021-08-12T23:54:46.602Z</time>
      </trkpt>
      <trkpt lat="40.74053" lon="44.67583">
        <ele>1798.652171</ele>
        <time>2021-08-12T23:55:14.345Z</time>
      </trkpt>
      <trkpt lat="40.74052" lon="44.67623">
        <ele>1797.725139</ele>
        <time>2021-08-12T23:55:21.020Z</time>
      </trkpt>
      <trkpt lat="40.74049" lon="44.67736">
        <ele>1794.603241</ele>
        <time>2021-08-12T23:55:40.024Z</time>
      </trkpt>
      <trkpt lat="40.74043" lon="44.67765">
        <ele>1793.753741</ele>
        <time>2021-08-12T23:55:44.911Z</time>
      </trkpt>
      <trkpt lat="40.74033" lon="44.67815">
        <ele>1792.25043</ele>
        <time>2021-08-12T23:55:53.708Z</time>
      </trkpt>
      <trkpt lat="40.73982" lon="44.67964">
        <ele>1788.22881</ele>
        <time>2021-08-12T23:56:21.278Z</time>
      </trkpt>
      <trkpt lat="40.73967" lon="44.68028">
        <ele>1786.765568</ele>
        <time>2021-08-12T23:56:33.164Z</time>
      </trkpt>
      <trkpt lat="40.73958" lon="44.68115">
        <ele>1785.0449</ele>
        <time>2021-08-12T23:56:49.481Z</time>
      </trkpt>
      <trkpt lat="40.73957" lon="44.68126">
        <ele>1784.944652</ele>
        <time>2021-08-12T23:56:51.631Z</time>
      </trkpt>
      <trkpt lat="40.73945" lon="44.6821">
        <ele>1784.181147</ele>
        <time>2021-08-12T23:57:08.706Z</time>
      </trkpt>
      <trkpt lat="40.73965" lon="44.6827">
        <ele>1783.591919</ele>
        <time>2021-08-12T23:57:22.191Z</time>
      </trkpt>
      <trkpt lat="40.73961" lon="44.68304">
        <ele>1783.284362</ele>
        <time>2021-08-12T23:57:29.331Z</time>
      </trkpt>
      <trkpt lat="40.73949" lon="44.6833">
        <ele>1783.004502</ele>
        <time>2021-08-12T23:57:36.386Z</time>
      </trkpt>
      <trkpt lat="40.73943" lon="44.68344">
        <ele>1782.813543</ele>
        <time>2021-08-12T23:57:39.676Z</time>
      </trkpt>
      <trkpt lat="40.73884" lon="44.68448">
        <ele>1781.309792</ele>
        <time>2021-08-12T23:58:06.415Z</time>
      </trkpt>
      <trkpt lat="40.7381" lon="44.68533">
        <ele>1779.219438</ele>
        <time>2021-08-12T23:58:30.001Z</time>
      </trkpt>
      <trkpt lat="40.73798" lon="44.68564">
        <ele>1778.360086</ele>
        <time>2021-08-12T23:58:35.886Z</time>
      </trkpt>
      <trkpt lat="40.73784" lon="44.68604">
        <ele>1777.233101</ele>
        <time>2021-08-12T23:58:43.570Z</time>
      </trkpt>
      <trkpt lat="40.73762" lon="44.68669">
        <ele>1775.443419</ele>
        <time>2021-08-12T23:58:55.561Z</time>
      </trkpt>
      <trkpt lat="40.73749" lon="44.68703">
        <ele>1774.461909</ele>
        <time>2021-08-12T23:59:01.989Z</time>
      </trkpt>
      <trkpt lat="40.73744" lon="44.68721">
        <ele>1773.93828</ele>
        <time>2021-08-12T23:59:05.102Z</time>
      </trkpt>
      <trkpt lat="40.73696" lon="44.68837">
        <ele>1770.074946</ele>
        <time>2021-08-12T23:59:27.139Z</time>
      </trkpt>
      <trkpt lat="40.73682" lon="44.68848">
        <ele>1769.417504</ele>
        <time>2021-08-12T23:59:30.876Z</time>
      </trkpt>
      <trkpt lat="40.73576" lon="44.69037">
        <ele>1762.705753</ele>
        <time>2021-08-13T00:00:10.794Z</time>
      </trkpt>
      <trkpt lat="40.73562" lon="44.69064">
        <ele>1761.753848</ele>
        <time>2021-08-13T00:00:16.377Z</time>
      </trkpt>
      <trkpt lat="40.73529" lon="44.69126">
        <ele>1759.335281</ele>
        <time>2021-08-13T00:00:28.767Z</time>
      </trkpt>
      <trkpt lat="40.73488" lon="44.69206">
        <ele>1755.779213</ele>
        <time>2021-08-13T00:00:44.462Z</time>
      </trkpt>
      <trkpt lat="40.73415" lon="44.69353">
        <ele>1749.462598</ele>
        <time>2021-08-13T00:01:12.447Z</time>
      </trkpt>
      <trkpt lat="40.7338" lon="44.69419">
        <ele>1746.637118</ele>
        <time>2021-08-13T00:01:25.525Z</time>
      </trkpt>
      <trkpt lat="40.7321" lon="44.69766">
        <ele>1734.951815</ele>
        <time>2021-08-13T00:02:34.554Z</time>
      </trkpt>
      <trkpt lat="40.7303" lon="44.70125">
        <ele>1730.033444</ele>
        <time>2021-08-13T00:04:00.089Z</time>
      </trkpt>
      <trkpt lat="40.73012" lon="44.70166">
        <ele>1729.88519</ele>
        <time>2021-08-13T00:04:12.178Z</time>
      </trkpt>
      <trkpt lat="40.72988" lon="44.70267">
        <ele>1729.552124</ele>
        <time>2021-08-13T00:04:38.464Z</time>
      </trkpt>
      <trkpt lat="40.73005" lon="44.70275">
        <ele>1729.476984</ele>
        <time>2021-08-13T00:04:44.518Z</time>
      </trkpt>
      <trkpt lat="40.73072" lon="44.70282">
        <ele>1727.823704</ele>
        <time>2021-08-13T00:05:01.946Z</time>
      </trkpt>
      <trkpt lat="40.73005" lon="44.70275">
        <ele>1725.85287</ele>
        <time>2021-08-13T00:05:18.870Z</time>
      </trkpt>
      <trkpt lat="40.72988" lon="44.70267">
        <ele>1725.324633</ele>
        <time>2021-08-13T00:05:23.085Z</time>
      </trkpt>
      <trkpt lat="40.72981" lon="44.70293">
        <ele>1724.700574</ele>
        <time>2021-08-13T00:05:27.766Z</time>
      </trkpt>
      <trkpt lat="40.72953" lon="44.70387">
        <ele>1720.625572</ele>
        <time>2021-08-13T00:05:43.362Z</time>
      </trkpt>
      <trkpt lat="40.72902" lon="44.70583">
        <ele>1711.604612</ele>
        <time>2021-08-13T00:06:15.397Z</time>
      </trkpt>
      <trkpt lat="40.72874" lon="44.70686">
        <ele>1708.03149</ele>
        <time>2021-08-13T00:06:33.140Z</time>
      </trkpt>
      <trkpt lat="40.72819" lon="44.70887">
        <ele>1703.468661</ele>
        <time>2021-08-13T00:07:11.971Z</time>
      </trkpt>
      <trkpt lat="40.72768" lon="44.71055">
        <ele>1701.133777</ele>
        <time>2021-08-13T00:07:48.353Z</time>
      </trkpt>
      <trkpt lat="40.72711" lon="44.71157">
        <ele>1699.757357</ele>
        <time>2021-08-13T00:08:12.945Z</time>
      </trkpt>
      <trkpt lat="40.72691" lon="44.71201">
        <ele>1699.17109</ele>
        <time>2021-08-13T00:08:22.999Z</time>
      </trkpt>
      <trkpt lat="40.72685" lon="44.71288">
        <ele>1698.120399</ele>
        <time>2021-08-13T00:08:39.690Z</time>
      </trkpt>
      <trkpt lat="40.72675" lon="44.7131">
        <ele>1697.811623</ele>
        <time>2021-08-13T00:08:44.593Z</time>
      </trkpt>
      <trkpt lat="40.7263" lon="44.71375">
        <ele>1696.737312</ele>
        <time>2021-08-13T00:09:01.612Z</time>
      </trkpt>
      <trkpt lat="40.72575" lon="44.71453">
        <ele>1695.360052</ele>
        <time>2021-08-13T00:09:22.327Z</time>
      </trkpt>
      <trkpt lat="40.7249" lon="44.71531">
        <ele>1693.564128</ele>
        <time>2021-08-13T00:09:48.466Z</time>
      </trkpt>
      <trkpt lat="40.72444" lon="44.71574">
        <ele>1692.271826</ele>
        <time>2021-08-13T00:10:02.153Z</time>
      </trkpt>
      <trkpt lat="40.72374" lon="44.7166">
        <ele>1689.93874</ele>
        <time>2021-08-13T00:10:24.830Z</time>
      </trkpt>
      <trkpt lat="40.7232" lon="44.71734">
        <ele>1687.975563</ele>
        <time>2021-08-13T00:10:43.006Z</time>
      </trkpt>
      <trkpt lat="40.72252" lon="44.71802">
        <ele>1685.755313</ele>
        <time>2021-08-13T00:11:03.065Z</time>
      </trkpt>
      <trkpt lat="40.72214" lon="44.71866">
        <ele>1684.193201</ele>
        <time>2021-08-13T00:11:17.679Z</time>
      </trkpt>
      <trkpt lat="40.72146" lon="44.7203">
        <ele>1681.244293</ele>
        <time>2021-08-13T00:11:52.316Z</time>
      </trkpt>
      <trkpt lat="40.72121" lon="44.72078">
        <ele>1680.385843</ele>
        <time>2021-08-13T00:12:03.369Z</time>
      </trkpt>
      <trkpt lat="40.72105" lon="44.7211">
        <ele>1679.905925</ele>
        <time>2021-08-13T00:12:10.975Z</time>
      </trkpt>
      <trkpt lat="40.72086" lon="44.72164">
        <ele>1679.190434</ele>
        <time>2021-08-13T00:12:22.359Z</time>
      </trkpt>
      <trkpt lat="40.72026" lon="44.72305">
        <ele>1677.075141</ele>
        <time>2021-08-13T00:12:54.240Z</time>
      </trkpt>
      <trkpt lat="40.72018" lon="44.72375">
        <ele>1675.957109</ele>
        <time>2021-08-13T00:13:07.544Z</time>
      </trkpt>
      <trkpt lat="40.71997" lon="44.72463">
        <ele>1674.499532</ele>
        <time>2021-08-13T00:13:24.407Z</time>
      </trkpt>
      <trkpt lat="40.71987" lon="44.72488">
        <ele>1674.053096</ele>
        <time>2021-08-13T00:13:29.488Z</time>
      </trkpt>
      <trkpt lat="40.71958" lon="44.72564">
        <ele>1672.352601</ele>
        <time>2021-08-13T00:13:44.588Z</time>
      </trkpt>
      <trkpt lat="40.71934" lon="44.72634">
        <ele>1670.7785</ele>
        <time>2021-08-13T00:13:57.968Z</time>
      </trkpt>
      <trkpt lat="40.71882" lon="44.72727">
        <ele>1668.684728</ele>
        <time>2021-08-13T00:14:18.656Z</time>
      </trkpt>
      <trkpt lat="40.71867" lon="44.72767">
        <ele>1668.163618</ele>
        <time>2021-08-13T00:14:27.134Z</time>
      </trkpt>
      <trkpt lat="40.71861" lon="44.72784">
        <ele>1667.942972</ele>
        <time>2021-08-13T00:14:30.861Z</time>
      </trkpt>
      <trkpt lat="40.71856" lon="44.72797">
        <ele>1667.778309</ele>
        <time>2021-08-13T00:14:33.651Z</time>
      </trkpt>
      <trkpt lat="40.71833" lon="44.72862">
        <ele>1666.93258</ele>
        <time>2021-08-13T00:14:47.961Z</time>
      </trkpt>
      <trkpt lat="40.71788" lon="44.72948">
        <ele>1665.953834</ele>
        <time>2021-08-13T00:15:09.481Z</time>
      </trkpt>
      <trkpt lat="40.71774" lon="44.72985">
        <ele>1665.684476</ele>
        <time>2021-08-13T00:15:18.280Z</time>
      </trkpt>
      <trkpt lat="40.71754" lon="44.73095">
        <ele>1664.928261</ele>
        <time>2021-08-13T00:15:42.262Z</time>
      </trkpt>
      <trkpt lat="40.7181" lon="44.73348">
        <ele>1662.522299</ele>
        <time>2021-08-13T00:16:36.070Z</time>
      </trkpt>
      <trkpt lat="40.7182" lon="44.73422">
        <ele>1660.742111</ele>
        <time>2021-08-13T00:16:49.660Z</time>
      </trkpt>
      <trkpt lat="40.71819" lon="44.73467">
        <ele>1659.60546</ele>
        <time>2021-08-13T00:16:57.448Z</time>
      </trkpt>
      <trkpt lat="40.7183" lon="44.73511">
        <ele>1658.433016</ele>
        <time>2021-08-13T00:17:05.278Z</time>
      </trkpt>
      <trkpt lat="40.71851" lon="44.73561">
        <ele>1657.004976</ele>
        <time>2021-08-13T00:17:14.719Z</time>
      </trkpt>
      <trkpt lat="40.7185" lon="44.73575">
        <ele>1656.645938</ele>
        <time>2021-08-13T00:17:16.894Z</time>
      </trkpt>
      <trkpt lat="40.71843" lon="44.73613">
        <ele>1655.545987</ele>
        <time>2021-08-13T00:17:23.411Z</time>
      </trkpt>
      <trkpt lat="40.71827" lon="44.73657">
        <ele>1654.118528</ele>
        <time>2021-08-13T00:17:31.396Z</time>
      </trkpt>
      <trkpt lat="40.7181" lon="44.73687">
        <ele>1653.012319</ele>
        <time>2021-08-13T00:17:37.647Z</time>
      </trkpt>
      <trkpt lat="40.71776" lon="44.73743">
        <ele>1650.911681</ele>
        <time>2021-08-13T00:17:49.356Z</time>
      </trkpt>
      <trkpt lat="40.71716" lon="44.7383">
        <ele>1648.662227</ele>
        <time>2021-08-13T00:18:10.953Z</time>
      </trkpt>
      <trkpt lat="40.7169" lon="44.7388">
        <ele>1647.920022</ele>
        <time>2021-08-13T00:18:23.168Z</time>
      </trkpt>
      <trkpt lat="40.71678" lon="44.73928">
        <ele>1647.297096</ele>
        <time>2021-08-13T00:18:33.294Z</time>
      </trkpt>
      <trkpt lat="40.71669" lon="44.74013">
        <ele>1646.108829</ele>
        <time>2021-08-13T00:18:50.582Z</time>
      </trkpt>
      <trkpt lat="40.71665" lon="44.7405">
        <ele>1645.490057</ele>
        <time>2021-08-13T00:18:58.214Z</time>
      </trkpt>
      <trkpt lat="40.71663" lon="44.74075">
        <ele>1645.069822</ele>
        <time>2021-08-13T00:19:02.925Z</time>
      </trkpt>
      <trkpt lat="40.71632" lon="44.74372">
        <ele>1638.956661</ele>
        <time>2021-08-13T00:19:56.158Z</time>
      </trkpt>
      <trkpt lat="40.71627" lon="44.74428">
        <ele>1637.604643</ele>
        <time>2021-08-13T00:20:05.785Z</time>
      </trkpt>
      <trkpt lat="40.71616" lon="44.74529">
        <ele>1634.371523</ele>
        <time>2021-08-13T00:20:22.964Z</time>
      </trkpt>
      <trkpt lat="40.71607" lon="44.74643">
        <ele>1630.459717</ele>
        <time>2021-08-13T00:20:41.723Z</time>
      </trkpt>
      <trkpt lat="40.7161" lon="44.74887">
        <ele>1619.737759</ele>
        <time>2021-08-13T00:21:20.089Z</time>
      </trkpt>
      <trkpt lat="40.71589" lon="44.74996">
        <ele>1613.565621</ele>
        <time>2021-08-13T00:21:37.008Z</time>
      </trkpt>
      <trkpt lat="40.71589" lon="44.75026">
        <ele>1611.781811</ele>
        <time>2021-08-13T00:21:41.477Z</time>
      </trkpt>
      <trkpt lat="40.71638" lon="44.75427">
        <ele>1587.575318</ele>
        <time>2021-08-13T00:22:41.946Z</time>
      </trkpt>
      <trkpt lat="40.71654" lon="44.75635">
        <ele>1577.2442</ele>
        <time>2021-08-13T00:23:14.495Z</time>
      </trkpt>
      <trkpt lat="40.71656" lon="44.75726">
        <ele>1572.515409</ele>
        <time>2021-08-13T00:23:28.614Z</time>
      </trkpt>
      <trkpt lat="40.71646" lon="44.75826">
        <ele>1567.233599</ele>
        <time>2021-08-13T00:23:44.011Z</time>
      </trkpt>
      <trkpt lat="40.7165" lon="44.76031">
        <ele>1555.211046</ele>
        <time>2021-08-13T00:24:14.615Z</time>
      </trkpt>
      <trkpt lat="40.71629" lon="44.76194">
        <ele>1545.994495</ele>
        <time>2021-08-13T00:24:39.354Z</time>
      </trkpt>
      <trkpt lat="40.71596" lon="44.76346">
        <ele>1537.633084</ele>
        <time>2021-08-13T00:25:03.826Z</time>
      </trkpt>
      <trkpt lat="40.71589" lon="44.76537">
        <ele>1527.41267</ele>
        <time>2021-08-13T00:25:33.081Z</time>
      </trkpt>
      <trkpt lat="40.71564" lon="44.76688">
        <ele>1518.04801</ele>
        <time>2021-08-13T00:25:56.074Z</time>
      </trkpt>
      <trkpt lat="40.7156" lon="44.76897">
        <ele>1506.457129</ele>
        <time>2021-08-13T00:26:27.083Z</time>
      </trkpt>
      <trkpt lat="40.71555" lon="44.76935">
        <ele>1504.640253</ele>
        <time>2021-08-13T00:26:33.009Z</time>
      </trkpt>
      <trkpt lat="40.71525" lon="44.77059">
        <ele>1499.033996</ele>
        <time>2021-08-13T00:26:54.253Z</time>
      </trkpt>
      <trkpt lat="40.71525" lon="44.77109">
        <ele>1497.83839</ele>
        <time>2021-08-13T00:27:02.754Z</time>
      </trkpt>
      <trkpt lat="40.71537" lon="44.77164">
        <ele>1496.432342</ele>
        <time>2021-08-13T00:27:13.034Z</time>
      </trkpt>
      <trkpt lat="40.71574" lon="44.77284">
        <ele>1493.422595</ele>
        <time>2021-08-13T00:27:35.917Z</time>
      </trkpt>
      <trkpt lat="40.71628" lon="44.77595">
        <ele>1488.880282</ele>
        <time>2021-08-13T00:28:33.737Z</time>
      </trkpt>
      <trkpt lat="40.71632" lon="44.77647">
        <ele>1488.628295</ele>
        <time>2021-08-13T00:28:46.346Z</time>
      </trkpt>
      <trkpt lat="40.71627" lon="44.77701">
        <ele>1488.371428</ele>
        <time>2021-08-13T00:29:01.002Z</time>
      </trkpt>
      <trkpt lat="40.71601" lon="44.7784">
        <ele>1489.489732</ele>
        <time>2021-08-13T00:29:46.813Z</time>
      </trkpt>
      <trkpt lat="40.71604" lon="44.77875">
        <ele>1489.857031</ele>
        <time>2021-08-13T00:29:58.124Z</time>
      </trkpt>
      <trkpt lat="40.71619" lon="44.77925">
        <ele>1490.402831</ele>
        <time>2021-08-13T00:30:14.079Z</time>
      </trkpt>
      <trkpt lat="40.71646" lon="44.77968">
        <ele>1490.228408</ele>
        <time>2021-08-13T00:30:29.343Z</time>
      </trkpt>
      <trkpt lat="40.71772" lon="44.78056">
        <ele>1487.109622</ele>
        <time>2021-08-13T00:31:04.617Z</time>
      </trkpt>
      <trkpt lat="40.71875" lon="44.78147">
        <ele>1479.119793</ele>
        <time>2021-08-13T00:31:29.643Z</time>
      </trkpt>
      <trkpt lat="40.7191" lon="44.78187">
        <ele>1475.834193</ele>
        <time>2021-08-13T00:31:38.679Z</time>
      </trkpt>
      <trkpt lat="40.71947" lon="44.78229">
        <ele>1471.911296</ele>
        <time>2021-08-13T00:31:48.050Z</time>
      </trkpt>
      <trkpt lat="40.71962" lon="44.78245">
        <ele>1470.171103</ele>
        <time>2021-08-13T00:31:51.815Z</time>
      </trkpt>
      <trkpt lat="40.72006" lon="44.78299">
        <ele>1464.664537</ele>
        <time>2021-08-13T00:32:03.131Z</time>
      </trkpt>
      <trkpt lat="40.72037" lon="44.78345">
        <ele>1460.359872</ele>
        <time>2021-08-13T00:32:12.223Z</time>
      </trkpt>
      <trkpt lat="40.72053" lon="44.78399">
        <ele>1456.614866</ele>
        <time>2021-08-13T00:32:21.010Z</time>
      </trkpt>
      <trkpt lat="40.72054" lon="44.78412">
        <ele>1455.952314</ele>
        <time>2021-08-13T00:32:22.821Z</time>
      </trkpt>
      <trkpt lat="40.72054" lon="44.78438">
        <ele>1454.595566</ele>
        <time>2021-08-13T00:32:26.889Z</time>
      </trkpt>
      <trkpt lat="40.7204" lon="44.78526">
        <ele>1449.996511</ele>
        <time>2021-08-13T00:32:40.485Z</time>
      </trkpt>
      <trkpt lat="40.71979" lon="44.78797">
        <ele>1436.811246</ele>
        <time>2021-08-13T00:33:24.937Z</time>
      </trkpt>
      <trkpt lat="40.71967" lon="44.78909">
        <ele>1432.27459</ele>
        <time>2021-08-13T00:33:42.633Z</time>
      </trkpt>
      <trkpt lat="40.7195" lon="44.79007">
        <ele>1428.478905</ele>
        <time>2021-08-13T00:33:58.702Z</time>
      </trkpt>
      <trkpt lat="40.71911" lon="44.79158">
        <ele>1423.526293</ele>
        <time>2021-08-13T00:34:25.606Z</time>
      </trkpt>
      <trkpt lat="40.71896" lon="44.79251">
        <ele>1421.070346</ele>
        <time>2021-08-13T00:34:42.192Z</time>
      </trkpt>
      <trkpt lat="40.71894" lon="44.79336">
        <ele>1418.698655</ele>
        <time>2021-08-13T00:34:57.014Z</time>
      </trkpt>
      <trkpt lat="40.7192" lon="44.79651">
        <ele>1408.949422</ele>
        <time>2021-08-13T00:35:49.115Z</time>
      </trkpt>
      <trkpt lat="40.71924" lon="44.79693">
        <ele>1407.633998</ele>
        <time>2021-08-13T00:35:56.112Z</time>
      </trkpt>
      <trkpt lat="40.71932" lon="44.79735">
        <ele>1406.313917</ele>
        <time>2021-08-13T00:36:03.364Z</time>
      </trkpt>
      <trkpt lat="40.71954" lon="44.79827">
        <ele>1404.303731</ele>
        <time>2021-08-13T00:36:20.119Z</time>
      </trkpt>
      <trkpt lat="40.71977" lon="44.79877">
        <ele>1403.470197</ele>
        <time>2021-08-13T00:36:30.706Z</time>
      </trkpt>
      <trkpt lat="40.71983" lon="44.79888">
        <ele>1403.282446</ele>
        <time>2021-08-13T00:36:33.528Z</time>
      </trkpt>
      <trkpt lat="40.72004" lon="44.79925">
        <ele>1402.608816</ele>
        <time>2021-08-13T00:36:43.020Z</time>
      </trkpt>
      <trkpt lat="40.72061" lon="44.80036">
        <ele>1400.882564</ele>
        <time>2021-08-13T00:37:11.197Z</time>
      </trkpt>
      <trkpt lat="40.72078" lon="44.80084">
        <ele>1400.259015</ele>
        <time>2021-08-13T00:37:21.890Z</time>
      </trkpt>
      <trkpt lat="40.72095" lon="44.80174">
        <ele>1399.175232</ele>
        <time>2021-08-13T00:37:39.146Z</time>
      </trkpt>
      <trkpt lat="40.72114" lon="44.8021">
        <ele>1398.451186</ele>
        <time>2021-08-13T00:37:47.183Z</time>
      </trkpt>
      <trkpt lat="40.72137" lon="44.80232">
        <ele>1397.699484</ele>
        <time>2021-08-13T00:37:54.003Z</time>
      </trkpt>
      <trkpt lat="40.72229" lon="44.80279">
        <ele>1395.141363</ele>
        <time>2021-08-13T00:38:17.127Z</time>
      </trkpt>
      <trkpt lat="40.72295" lon="44.80291">
        <ele>1393.064358</ele>
        <time>2021-08-13T00:38:32.719Z</time>
      </trkpt>
      <trkpt lat="40.72333" lon="44.80309">
        <ele>1391.620079</ele>
        <time>2021-08-13T00:38:41.854Z</time>
      </trkpt>
      <trkpt lat="40.72408" lon="44.80388">
        <ele>1388.183874</ele>
        <time>2021-08-13T00:39:03.159Z</time>
      </trkpt>
      <trkpt lat="40.72421" lon="44.80409">
        <ele>1387.367677</ele>
        <time>2021-08-13T00:39:07.628Z</time>
      </trkpt>
      <trkpt lat="40.7243" lon="44.80454">
        <ele>1385.865801</ele>
        <time>2021-08-13T00:39:15.139Z</time>
      </trkpt>
      <trkpt lat="40.72432" lon="44.80631">
        <ele>1380.097017</ele>
        <time>2021-08-13T00:39:44.241Z</time>
      </trkpt>
      <trkpt lat="40.72444" lon="44.80689">
        <ele>1378.3142</ele>
        <time>2021-08-13T00:39:54.323Z</time>
      </trkpt>
      <trkpt lat="40.7246" lon="44.80725">
        <ele>1377.030681</ele>
        <time>2021-08-13T00:40:01.592Z</time>
      </trkpt>
      <trkpt lat="40.72487" lon="44.80771">
        <ele>1375.305358</ele>
        <time>2021-08-13T00:40:11.369Z</time>
      </trkpt>
      <trkpt lat="40.72538" lon="44.80837">
        <ele>1372.351562</ele>
        <time>2021-08-13T00:40:27.319Z</time>
      </trkpt>
      <trkpt lat="40.7265" lon="44.80936">
        <ele>1365.933675</ele>
        <time>2021-08-13T00:40:55.187Z</time>
      </trkpt>
      <trkpt lat="40.72679" lon="44.80972">
        <ele>1364.244036</ele>
        <time>2021-08-13T00:41:04.047Z</time>
      </trkpt>
      <trkpt lat="40.72698" lon="44.81019">
        <ele>1363.465986</ele>
        <time>2021-08-13T00:41:13.486Z</time>
      </trkpt>
      <trkpt lat="40.72706" lon="44.81044">
        <ele>1363.078766</ele>
        <time>2021-08-13T00:41:18.522Z</time>
      </trkpt>
      <trkpt lat="40.72709" lon="44.8106">
        <ele>1362.82303</ele>
        <time>2021-08-13T00:41:21.830Z</time>
      </trkpt>
      <trkpt lat="40.7273" lon="44.81134">
        <ele>1361.675607</ele>
        <time>2021-08-13T00:41:37.328Z</time>
      </trkpt>
      <trkpt lat="40.72739" lon="44.81152">
        <ele>1361.372199</ele>
        <time>2021-08-13T00:41:41.502Z</time>
      </trkpt>
      <trkpt lat="40.72787" lon="44.81196">
        <ele>1360.189964</ele>
        <time>2021-08-13T00:42:00.216Z</time>
      </trkpt>
      <trkpt lat="40.72907" lon="44.81273">
        <ele>1357.389277</ele>
        <time>2021-08-13T00:42:32.771Z</time>
      </trkpt>
      <trkpt lat="40.72932" lon="44.81305">
        <ele>1356.518356</ele>
        <time>2021-08-13T00:42:40.198Z</time>
      </trkpt>
      <trkpt lat="40.72973" lon="44.8137">
        <ele>1354.809402</ele>
        <time>2021-08-13T00:42:53.920Z</time>
      </trkpt>
      <trkpt lat="40.73005" lon="44.81425">
        <ele>1353.380523</ele>
        <time>2021-08-13T00:43:06.293Z</time>
      </trkpt>
      <trkpt lat="40.73049" lon="44.81475">
        <ele>1352.769829</ele>
        <time>2021-08-13T00:43:22.026Z</time>
      </trkpt>
      <trkpt lat="40.73078" lon="44.81497">
        <ele>1353.532554</ele>
        <time>2021-08-13T00:43:37.373Z</time>
      </trkpt>
      <trkpt lat="40.73111" lon="44.8152">
        <ele>1354.367652</ele>
        <time>2021-08-13T00:43:56.260Z</time>
      </trkpt>
      <trkpt lat="40.73158" lon="44.81552">
        <ele>1355.543129</ele>
        <time>2021-08-13T00:44:22.429Z</time>
      </trkpt>
      <trkpt lat="40.73202" lon="44.81583">
        <ele>1356.30899</ele>
        <time>2021-08-13T00:44:47.431Z</time>
      </trkpt>
      <trkpt lat="40.73262" lon="44.81626">
        <ele>1355.953835</ele>
        <time>2021-08-13T00:45:14.761Z</time>
      </trkpt>
      <trkpt lat="40.73315" lon="44.81674">
        <ele>1355.619483</ele>
        <time>2021-08-13T00:45:31.753Z</time>
      </trkpt>
      <trkpt lat="40.73413" lon="44.81781">
        <ele>1350.820964</ele>
        <time>2021-08-13T00:45:58.893Z</time>
      </trkpt>
      <trkpt lat="40.73441" lon="44.8179">
        <ele>1349.397379</ele>
        <time>2021-08-13T00:46:04.814Z</time>
      </trkpt>
      <trkpt lat="40.73485" lon="44.81795">
        <ele>1347.203862</ele>
        <time>2021-08-13T00:46:13.995Z</time>
      </trkpt>
      <trkpt lat="40.73515" lon="44.81816">
        <ele>1345.366703</ele>
        <time>2021-08-13T00:46:21.068Z</time>
      </trkpt>
      <trkpt lat="40.73556" lon="44.81889">
        <ele>1341.470694</ele>
        <time>2021-08-13T00:46:35.371Z</time>
      </trkpt>
      <trkpt lat="40.73565" lon="44.81921">
        <ele>1340.022162</ele>
        <time>2021-08-13T00:46:40.788Z</time>
      </trkpt>
      <trkpt lat="40.73587" lon="44.82003">
        <ele>1336.259599</ele>
        <time>2021-08-13T00:46:54.383Z</time>
      </trkpt>
      <trkpt lat="40.73599" lon="44.82029">
        <ele>1335.028136</ele>
        <time>2021-08-13T00:46:59.095Z</time>
      </trkpt>
      <trkpt lat="40.73613" lon="44.82046">
        <ele>1334.002051</ele>
        <time>2021-08-13T00:47:03.077Z</time>
      </trkpt>
      <trkpt lat="40.73653" lon="44.8206">
        <ele>1331.81219</ele>
        <time>2021-08-13T00:47:11.587Z</time>
      </trkpt>
      <trkpt lat="40.73686" lon="44.82066">
        <ele>1329.992127</ele>
        <time>2021-08-13T00:47:18.636Z</time>
      </trkpt>
      <trkpt lat="40.73746" lon="44.8208">
        <ele>1326.778082</ele>
        <time>2021-08-13T00:47:31.409Z</time>
      </trkpt>
      <trkpt lat="40.73817" lon="44.82104">
        <ele>1324.126153</ele>
        <time>2021-08-13T00:47:47.415Z</time>
      </trkpt>
      <trkpt lat="40.73864" lon="44.82141">
        <ele>1322.187704</ele>
        <time>2021-08-13T00:47:59.711Z</time>
      </trkpt>
      <trkpt lat="40.73887" lon="44.82165">
        <ele>1321.144647</ele>
        <time>2021-08-13T00:48:06.585Z</time>
      </trkpt>
      <trkpt lat="40.7394" lon="44.82252">
        <ele>1318.860879</ele>
        <time>2021-08-13T00:48:27.160Z</time>
      </trkpt>
      <trkpt lat="40.7396" lon="44.82297">
        <ele>1317.923172</ele>
        <time>2021-08-13T00:48:36.753Z</time>
      </trkpt>
      <trkpt lat="40.73974" lon="44.82334">
        <ele>1317.183219</ele>
        <time>2021-08-13T00:48:44.561Z</time>
      </trkpt>
      <trkpt lat="40.73994" lon="44.82447">
        <ele>1314.748514</ele>
        <time>2021-08-13T00:49:05.248Z</time>
      </trkpt>
      <trkpt lat="40.7401" lon="44.8258">
        <ele>1311.392349</ele>
        <time>2021-08-13T00:49:28.350Z</time>
      </trkpt>
      <trkpt lat="40.74025" lon="44.82668">
        <ele>1309.115352</ele>
        <time>2021-08-13T00:49:43.530Z</time>
      </trkpt>
      <trkpt lat="40.74035" lon="44.82729">
        <ele>1307.506874</ele>
        <time>2021-08-13T00:49:54.187Z</time>
      </trkpt>
      <trkpt lat="40.74045" lon="44.82781">
        <ele>1306.129241</ele>
        <time>2021-08-13T00:50:03.179Z</time>
      </trkpt>
      <trkpt lat="40.74052" lon="44.82829">
        <ele>1304.860371</ele>
        <time>2021-08-13T00:50:11.631Z</time>
      </trkpt>
      <trkpt lat="40.74058" lon="44.82874">
        <ele>1303.751211</ele>
        <time>2021-08-13T00:50:19.904Z</time>
      </trkpt>
      <trkpt lat="40.7406" lon="44.82933">
        <ele>1302.544156</ele>
        <time>2021-08-13T00:50:31.027Z</time>
      </trkpt>
      <trkpt lat="40.74059" lon="44.82951">
        <ele>1302.174948</ele>
        <time>2021-08-13T00:50:34.119Z</time>
      </trkpt>
      <trkpt lat="40.74084" lon="44.83126">
        <ele>1298.518113</ele>
        <time>2021-08-13T00:51:05.620Z</time>
      </trkpt>
      <trkpt lat="40.74086" lon="44.83153">
        <ele>1297.925329</ele>
        <time>2021-08-13T00:51:10.409Z</time>
      </trkpt>
      <trkpt lat="40.74088" lon="44.83354">
        <ele>1293.90334</ele>
        <time>2021-08-13T00:51:45.860Z</time>
      </trkpt>
      <trkpt lat="40.7409" lon="44.83387">
        <ele>1293.547569</ele>
        <time>2021-08-13T00:51:52.145Z</time>
      </trkpt>
      <trkpt lat="40.74095" lon="44.83437">
        <ele>1293.01233</ele>
        <time>2021-08-13T00:52:02.104Z</time>
      </trkpt>
      <trkpt lat="40.74103" lon="44.83489">
        <ele>1292.438585</ele>
        <time>2021-08-13T00:52:13.530Z</time>
      </trkpt>
      <trkpt lat="40.74112" lon="44.83556">
        <ele>1291.713144</ele>
        <time>2021-08-13T00:52:28.233Z</time>
      </trkpt>
      <trkpt lat="40.74114" lon="44.83594">
        <ele>1291.150993</ele>
        <time>2021-08-13T00:52:36.105Z</time>
      </trkpt>
      <trkpt lat="40.74115" lon="44.83626">
        <ele>1290.630316</ele>
        <time>2021-08-13T00:52:41.762Z</time>
      </trkpt>
      <trkpt lat="40.74127" lon="44.83667">
        <ele>1289.923987</ele>
        <time>2021-08-13T00:52:50.218Z</time>
      </trkpt>
      <trkpt lat="40.74135" lon="44.837">
        <ele>1289.354104</ele>
        <time>2021-08-13T00:52:57.064Z</time>
      </trkpt>
      <trkpt lat="40.74135" lon="44.83717">
        <ele>1289.075074</ele>
        <time>2021-08-13T00:52:59.918Z</time>
      </trkpt>
      <trkpt lat="40.74117" lon="44.83774">
        <ele>1288.074904</ele>
        <time>2021-08-13T00:53:11.220Z</time>
      </trkpt>
      <trkpt lat="40.74114" lon="44.83786">
        <ele>1287.861229</ele>
        <time>2021-08-13T00:53:13.484Z</time>
      </trkpt>
      <trkpt lat="40.74108" lon="44.83802">
        <ele>1287.486295</ele>
        <time>2021-08-13T00:53:16.347Z</time>
      </trkpt>
      <trkpt lat="40.74103" lon="44.83831">
        <ele>1286.715823</ele>
        <time>2021-08-13T00:53:21.685Z</time>
      </trkpt>
      <trkpt lat="40.74101" lon="44.83897">
        <ele>1285.006509</ele>
        <time>2021-08-13T00:53:32.528Z</time>
      </trkpt>
      <trkpt lat="40.74097" lon="44.84055">
        <ele>1281.082997</ele>
        <time>2021-08-13T00:53:59.727Z</time>
      </trkpt>
      <trkpt lat="40.74094" lon="44.84295">
        <ele>1276.410559</ele>
        <time>2021-08-13T00:54:43.286Z</time>
      </trkpt>
      <trkpt lat="40.74094" lon="44.84301">
        <ele>1276.28889</ele>
        <time>2021-08-13T00:54:44.430Z</time>
      </trkpt>
      <trkpt lat="40.74091" lon="44.84325">
        <ele>1275.831393</ele>
        <time>2021-08-13T00:54:48.736Z</time>
      </trkpt>
      <trkpt lat="40.74079" lon="44.84376">
        <ele>1274.823431</ele>
        <time>2021-08-13T00:54:58.235Z</time>
      </trkpt>
      <trkpt lat="40.74078" lon="44.8444">
        <ele>1273.591105</ele>
        <time>2021-08-13T00:55:09.880Z</time>
      </trkpt>
      <trkpt lat="40.74077" lon="44.84468">
        <ele>1273.071961</ele>
        <time>2021-08-13T00:55:14.821Z</time>
      </trkpt>
      <trkpt lat="40.74077" lon="44.84488">
        <ele>1272.693515</ele>
        <time>2021-08-13T00:55:18.377Z</time>
      </trkpt>
      <trkpt lat="40.74078" lon="44.84619">
        <ele>1270.541691</ele>
        <time>2021-08-13T00:55:42.484Z</time>
      </trkpt>
      <trkpt lat="40.74062" lon="44.84757">
        <ele>1268.330269</ele>
        <time>2021-08-13T00:56:08.638Z</time>
      </trkpt>
      <trkpt lat="40.74026" lon="44.85019">
        <ele>1264.338772</ele>
        <time>2021-08-13T00:56:59.042Z</time>
      </trkpt>
      <trkpt lat="40.74019" lon="44.85064">
        <ele>1263.526311</ele>
        <time>2021-08-13T00:57:07.876Z</time>
      </trkpt>
      <trkpt lat="40.74005" lon="44.85106">
        <ele>1262.711116</ele>
        <time>2021-08-13T00:57:16.402Z</time>
      </trkpt>
      <trkpt lat="40.73978" lon="44.85185">
        <ele>1261.183974</ele>
        <time>2021-08-13T00:57:31.690Z</time>
      </trkpt>
      <trkpt lat="40.73975" lon="44.85236">
        <ele>1259.886273</ele>
        <time>2021-08-13T00:57:40.614Z</time>
      </trkpt>
      <trkpt lat="40.73971" lon="44.85406">
        <ele>1255.293409</ele>
        <time>2021-08-13T00:58:09.407Z</time>
      </trkpt>
      <trkpt lat="40.73969" lon="44.85497">
        <ele>1252.848859</ele>
        <time>2021-08-13T00:58:24.439Z</time>
      </trkpt>
      <trkpt lat="40.73961" lon="44.85677">
        <ele>1248.083007</ele>
        <time>2021-08-13T00:58:55.568Z</time>
      </trkpt>
      <trkpt lat="40.73961" lon="44.85677">
        <ele>1248.083007</ele>
        <time>2021-08-13T00:58:55.616Z</time>
      </trkpt>
      <trkpt lat="40.73956" lon="44.85889">
        <ele>1243.730386</ele>
        <time>2021-08-13T00:59:33.491Z</time>
      </trkpt>
      <trkpt lat="40.7396" lon="44.8594">
        <ele>1242.954656</ele>
        <time>2021-08-13T00:59:43.332Z</time>
      </trkpt>
      <trkpt lat="40.73971" lon="44.85998">
        <ele>1242.235439</ele>
        <time>2021-08-13T00:59:54.754Z</time>
      </trkpt>
      <trkpt lat="40.74041" lon="44.86319">
        <ele>1238.760466</ele>
        <time>2021-08-13T01:01:00.666Z</time>
      </trkpt>
      <trkpt lat="40.74055" lon="44.8641">
        <ele>1238.730166</ele>
        <time>2021-08-13T01:01:19.526Z</time>
      </trkpt>
      <trkpt lat="40.74057" lon="44.86469">
        <ele>1239.262389</ele>
        <time>2021-08-13T01:01:36.665Z</time>
      </trkpt>
      <trkpt lat="40.74055" lon="44.86501">
        <ele>1239.556656</ele>
        <time>2021-08-13T01:01:47.244Z</time>
      </trkpt>
      <trkpt lat="40.74052" lon="44.86522">
        <ele>1239.752754</ele>
        <time>2021-08-13T01:01:53.792Z</time>
      </trkpt>
      <trkpt lat="40.74051" lon="44.8653">
        <ele>1239.822949</ele>
        <time>2021-08-13T01:01:55.735Z</time>
      </trkpt>
      <trkpt lat="40.74036" lon="44.86556">
        <ele>1240.115146</ele>
        <time>2021-08-13T01:02:05.514Z</time>
      </trkpt>
      <trkpt lat="40.74032" lon="44.86556">
        <ele>1240.161956</ele>
        <time>2021-08-13T01:02:07.320Z</time>
      </trkpt>
      <trkpt lat="40.74028" lon="44.86556">
        <ele>1240.208766</ele>
        <time>2021-08-13T01:02:08.342Z</time>
      </trkpt>
      <trkpt lat="40.74025" lon="44.86558">
        <ele>1240.256148</ele>
        <time>2021-08-13T01:02:09.876Z</time>
      </trkpt>
      <trkpt lat="40.74024" lon="44.86558">
        <ele>1240.269271</ele>
        <time>2021-08-13T01:02:10.504Z</time>
      </trkpt>
      <trkpt lat="40.74023" lon="44.86559">
        <ele>1240.282394</ele>
        <time>2021-08-13T01:02:11.334Z</time>
      </trkpt>
      <trkpt lat="40.74022" lon="44.86559">
        <ele>1240.294874</ele>
        <time>2021-08-13T01:02:12.179Z</time>
      </trkpt>
      <trkpt lat="40.73971" lon="44.86553">
        <ele>1242.099142</ele>
        <time>2021-08-13T01:02:36.324Z</time>
      </trkpt>
      <trkpt lat="40.73966" lon="44.86547">
        <ele>1242.432436</ele>
        <time>2021-08-13T01:02:39.207Z</time>
      </trkpt>
      <trkpt lat="40.73951" lon="44.86526">
        <ele>1243.401333</ele>
        <time>2021-08-13T01:02:50.392Z</time>
      </trkpt>
      <trkpt lat="40.73948" lon="44.86522">
        <ele>1243.588557</ele>
        <time>2021-08-13T01:02:52.547Z</time>
      </trkpt>
      <trkpt lat="40.73938" lon="44.86507">
        <ele>1244.27583</ele>
        <time>2021-08-13T01:03:01.515Z</time>
      </trkpt>
      <trkpt lat="40.73936" lon="44.86503">
        <ele>1244.45791</ele>
        <time>2021-08-13T01:03:02.990Z</time>
      </trkpt>
      <trkpt lat="40.73928" lon="44.86489">
        <ele>1245.066491</ele>
        <time>2021-08-13T01:03:12.434Z</time>
      </trkpt>
      <trkpt lat="40.73914" lon="44.86461">
        <ele>1246.228801</ele>
        <time>2021-08-13T01:03:28.233Z</time>
      </trkpt>
      <trkpt lat="40.73912" lon="44.86455">
        <ele>1246.475206</ele>
        <time>2021-08-13T01:03:33.317Z</time>
      </trkpt>
      <trkpt lat="40.73894" lon="44.86431">
        <ele>1247.606536</ele>
        <time>2021-08-13T01:03:49.365Z</time>
      </trkpt>
      <trkpt lat="40.73843" lon="44.86406">
        <ele>1250.553093</ele>
        <time>2021-08-13T01:04:22.138Z</time>
      </trkpt>
      <trkpt lat="40.7383" lon="44.86407">
        <ele>1251.30282</ele>
        <time>2021-08-13T01:04:30.122Z</time>
      </trkpt>
      <trkpt lat="40.7382" lon="44.8641">
        <ele>1251.953581</ele>
        <time>2021-08-13T01:04:35.306Z</time>
      </trkpt>
      <trkpt lat="40.73807" lon="44.86416">
        <ele>1252.784642</ele>
        <time>2021-08-13T01:04:44.555Z</time>
      </trkpt>
      <trkpt lat="40.73776" lon="44.86449">
        <ele>1255.150345</ele>
        <time>2021-08-13T01:05:10.827Z</time>
      </trkpt>
      <trkpt lat="40.73764" lon="44.86461">
        <ele>1256.067156</ele>
        <time>2021-08-13T01:05:21.170Z</time>
      </trkpt>
      <trkpt lat="40.73754" lon="44.86463">
        <ele>1256.682269</ele>
        <time>2021-08-13T01:05:27.547Z</time>
      </trkpt>
      <trkpt lat="40.73655" lon="44.86453">
        <ele>1262.63733</ele>
        <time>2021-08-13T01:06:34.316Z</time>
      </trkpt>
      <trkpt lat="40.73623" lon="44.86456">
        <ele>1264.605379</ele>
        <time>2021-08-13T01:06:54.743Z</time>
      </trkpt>
      <trkpt lat="40.73538" lon="44.86487">
        <ele>1270.013921</ele>
        <time>2021-08-13T01:07:51.632Z</time>
      </trkpt>
      <trkpt lat="40.73465" lon="44.86532">
        <ele>1274.855592</ele>
        <time>2021-08-13T01:08:44.989Z</time>
      </trkpt>
      <trkpt lat="40.73433" lon="44.86532">
        <ele>1276.771334</ele>
        <time>2021-08-13T01:09:05.214Z</time>
      </trkpt>
      <trkpt lat="40.73419" lon="44.86538">
        <ele>1277.688897</ele>
        <time>2021-08-13T01:09:14.346Z</time>
      </trkpt>
      <trkpt lat="40.73411" lon="44.86542">
        <ele>1278.170442</ele>
        <time>2021-08-13T01:09:19.563Z</time>
      </trkpt>
      <trkpt lat="40.73381" lon="44.86558">
        <ele>1280.173688</ele>
        <time>2021-08-13T01:09:39.910Z</time>
      </trkpt>
      <trkpt lat="40.73322" lon="44.86557">
        <ele>1284.235853</ele>
        <time>2021-08-13T01:10:18.867Z</time>
      </trkpt>
      <trkpt lat="40.73274" lon="44.86584">
        <ele>1288.035001</ele>
        <time>2021-08-13T01:10:57.404Z</time>
      </trkpt>
      <trkpt lat="40.7323" lon="44.86601">
        <ele>1291.391002</ele>
        <time>2021-08-13T01:11:31.679Z</time>
      </trkpt>
      <trkpt lat="40.73162" lon="44.86617">
        <ele>1296.565325</ele>
        <time>2021-08-13T01:12:23.766Z</time>
      </trkpt>
      <trkpt lat="40.7303" lon="44.86657">
        <ele>1306.721835</ele>
        <time>2021-08-13T01:14:06.373Z</time>
      </trkpt>
      <trkpt lat="40.72913" lon="44.86676">
        <ele>1313.308336</ele>
        <time>2021-08-13T01:15:20.245Z</time>
      </trkpt>
      <trkpt lat="40.72837" lon="44.86693">
        <ele>1317.369801</ele>
        <time>2021-08-13T01:16:03.432Z</time>
      </trkpt>
      <trkpt lat="40.72817" lon="44.86698">
        <ele>1318.25631</ele>
        <time>2021-08-13T01:16:15.348Z</time>
      </trkpt>
      <trkpt lat="40.72732" lon="44.86721">
        <ele>1321.751068</ele>
        <time>2021-08-13T01:17:01.158Z</time>
      </trkpt>
      <trkpt lat="40.72708" lon="44.8672">
        <ele>1322.746869</ele>
        <time>2021-08-13T01:17:14.587Z</time>
      </trkpt>
      <trkpt lat="40.72645" lon="44.8669">
        <ele>1325.433833</ele>
        <time>2021-08-13T01:17:50.048Z</time>
      </trkpt>
      <trkpt lat="40.72584" lon="44.86649">
        <ele>1327.986135</ele>
        <time>2021-08-13T01:18:25.682Z</time>
      </trkpt>
      <trkpt lat="40.72542" lon="44.86606">
        <ele>1329.973572</ele>
        <time>2021-08-13T01:18:52.934Z</time>
      </trkpt>
      <trkpt lat="40.72502" lon="44.86534">
        <ele>1332.587206</ele>
        <time>2021-08-13T01:19:28.314Z</time>
      </trkpt>
      <trkpt lat="40.7246" lon="44.86438">
        <ele>1335.900683</ele>
        <time>2021-08-13T01:20:12.304Z</time>
      </trkpt>
      <trkpt lat="40.72407" lon="44.86313">
        <ele>1340.103325</ele>
        <time>2021-08-13T01:21:12.860Z</time>
      </trkpt>
      <trkpt lat="40.72402" lon="44.86267">
        <ele>1341.391786</ele>
        <time>2021-08-13T01:21:30.692Z</time>
      </trkpt>
      <trkpt lat="40.72404" lon="44.86206">
        <ele>1343.071038</ele>
        <time>2021-08-13T01:21:54.230Z</time>
      </trkpt>
      <trkpt lat="40.72403" lon="44.86173">
        <ele>1343.999208</ele>
        <time>2021-08-13T01:22:06.567Z</time>
      </trkpt>
      <trkpt lat="40.72391" lon="44.86067">
        <ele>1346.972082</ele>
        <time>2021-08-13T01:22:47.891Z</time>
      </trkpt>
      <trkpt lat="40.72389" lon="44.86062">
        <ele>1347.119074</ele>
        <time>2021-08-13T01:22:49.192Z</time>
      </trkpt>
      <trkpt lat="40.72379" lon="44.86013">
        <ele>1348.529394</ele>
        <time>2021-08-13T01:23:08.036Z</time>
      </trkpt>
      <trkpt lat="40.7237" lon="44.8598">
        <ele>1349.480109</ele>
        <time>2021-08-13T01:23:20.423Z</time>
      </trkpt>
      <trkpt lat="40.72318" lon="44.85889">
        <ele>1353.180232</ele>
        <time>2021-08-13T01:24:07.585Z</time>
      </trkpt>
      <trkpt lat="40.72292" lon="44.85802">
        <ele>1357.393819</ele>
        <time>2021-08-13T01:24:53.962Z</time>
      </trkpt>
      <trkpt lat="40.72274" lon="44.8569">
        <ele>1362.618151</ele>
        <time>2021-08-13T01:25:53.036Z</time>
      </trkpt>
      <trkpt lat="40.72272" lon="44.85631">
        <ele>1365.674844</ele>
        <time>2021-08-13T01:26:24.468Z</time>
      </trkpt>
      <trkpt lat="40.72271" lon="44.8555">
        <ele>1369.874353</ele>
        <time>2021-08-13T01:27:08.511Z</time>
      </trkpt>
      <trkpt lat="40.72267" lon="44.85409">
        <ele>1376.982557</ele>
        <time>2021-08-13T01:28:22.037Z</time>
      </trkpt>
      <trkpt lat="40.72263" lon="44.85377">
        <ele>1378.465021</ele>
        <time>2021-08-13T01:28:38.124Z</time>
      </trkpt>
      <trkpt lat="40.72257" lon="44.85353">
        <ele>1379.654296</ele>
        <time>2021-08-13T01:28:50.493Z</time>
      </trkpt>
      <trkpt lat="40.72252" lon="44.85332">
        <ele>1380.678395</ele>
        <time>2021-08-13T01:29:01.586Z</time>
      </trkpt>
      <trkpt lat="40.72236" lon="44.85289">
        <ele>1382.88248</ele>
        <time>2021-08-13T01:29:24.744Z</time>
      </trkpt>
      <trkpt lat="40.72221" lon="44.85264">
        <ele>1384.357327</ele>
        <time>2021-08-13T01:29:40.140Z</time>
      </trkpt>
      <trkpt lat="40.72193" lon="44.85224">
        <ele>1386.888892</ele>
        <time>2021-08-13T01:30:06.649Z</time>
      </trkpt>
      <trkpt lat="40.7216" lon="44.85206">
        <ele>1389.167344</ele>
        <time>2021-08-13T01:30:29.459Z</time>
      </trkpt>
      <trkpt lat="40.72121" lon="44.85204">
        <ele>1391.600791</ele>
        <time>2021-08-13T01:30:53.646Z</time>
      </trkpt>
      <trkpt lat="40.71965" lon="44.85237">
        <ele>1401.421773</ele>
        <time>2021-08-13T01:32:44.020Z</time>
      </trkpt>
      <trkpt lat="40.71957" lon="44.85239">
        <ele>1401.868945</ele>
        <time>2021-08-13T01:32:49.158Z</time>
      </trkpt>
      <trkpt lat="40.71925" lon="44.85245">
        <ele>1403.820879</ele>
        <time>2021-08-13T01:33:10.771Z</time>
      </trkpt>
      <trkpt lat="40.71893" lon="44.85254">
        <ele>1405.798412</ele>
        <time>2021-08-13T01:33:31.606Z</time>
      </trkpt>
      <trkpt lat="40.7186" lon="44.85255">
        <ele>1407.799224</ele>
        <time>2021-08-13T01:33:52.030Z</time>
      </trkpt>
      <trkpt lat="40.7158" lon="44.85263">
        <ele>1418.952022</ele>
        <time>2021-08-13T01:36:17.285Z</time>
      </trkpt>
      <trkpt lat="40.71522" lon="44.8526">
        <ele>1421.299811</ele>
        <time>2021-08-13T01:36:48.729Z</time>
      </trkpt>
      <trkpt lat="40.71489" lon="44.8525">
        <ele>1422.729859</ele>
        <time>2021-08-13T01:37:07.209Z</time>
      </trkpt>
      <trkpt lat="40.71205" lon="44.8515">
        <ele>1438.499044</ele>
        <time>2021-08-13T01:40:06.228Z</time>
      </trkpt>
      <trkpt lat="40.7117" lon="44.85133">
        <ele>1440.641773</ele>
        <time>2021-08-13T01:40:31.538Z</time>
      </trkpt>
      <trkpt lat="40.71129" lon="44.85107">
        <ele>1443.132992</ele>
        <time>2021-08-13T01:41:02.172Z</time>
      </trkpt>
      <trkpt lat="40.71014" lon="44.8504">
        <ele>1449.839005</ele>
        <time>2021-08-13T01:42:21.226Z</time>
      </trkpt>
      <trkpt lat="40.70965" lon="44.85029">
        <ele>1452.158039</ele>
        <time>2021-08-13T01:42:46.846Z</time>
      </trkpt>
      <trkpt lat="40.70921" lon="44.8503">
        <ele>1453.705358</ele>
        <time>2021-08-13T01:43:08.891Z</time>
      </trkpt>
      <trkpt lat="40.70912" lon="44.85004">
        <ele>1454.478953</ele>
        <time>2021-08-13T01:43:19.090Z</time>
      </trkpt>
      <trkpt lat="40.70905" lon="44.84986">
        <ele>1455.030004</ele>
        <time>2021-08-13T01:43:27.268Z</time>
      </trkpt>
      <trkpt lat="40.70903" lon="44.84981">
        <ele>1455.176328</ele>
        <time>2021-08-13T01:43:28.533Z</time>
      </trkpt>
      <trkpt lat="40.70869" lon="44.84986">
        <ele>1456.393709</ele>
        <time>2021-08-13T01:43:45.740Z</time>
      </trkpt>
      <trkpt lat="40.70735" lon="44.85015">
        <ele>1463.162275</ele>
        <time>2021-08-13T01:45:01.316Z</time>
      </trkpt>
      <trkpt lat="40.70691" lon="44.85018">
        <ele>1465.600549</ele>
        <time>2021-08-13T01:45:33.100Z</time>
      </trkpt>
      <trkpt lat="40.70559" lon="44.8508">
        <ele>1474.778891</ele>
        <time>2021-08-13T01:47:17.132Z</time>
      </trkpt>
      <trkpt lat="40.7049" lon="44.85104">
        <ele>1479.70961</ele>
        <time>2021-08-13T01:48:07.400Z</time>
      </trkpt>
      <trkpt lat="40.70317" lon="44.85066">
        <ele>1489.491007</ele>
        <time>2021-08-13T01:49:56.721Z</time>
      </trkpt>
      <trkpt lat="40.70274" lon="44.85074">
        <ele>1492.091548</ele>
        <time>2021-08-13T01:50:23.075Z</time>
      </trkpt>
      <trkpt lat="40.70196" lon="44.85108">
        <ele>1497.252567</ele>
        <time>2021-08-13T01:51:17.128Z</time>
      </trkpt>
      <trkpt lat="40.70158" lon="44.85131">
        <ele>1499.840723</ele>
        <time>2021-08-13T01:51:46.323Z</time>
      </trkpt>
      <trkpt lat="40.70119" lon="44.85092">
        <ele>1503.724922</ele>
        <time>2021-08-13T01:52:21.827Z</time>
      </trkpt>
      <trkpt lat="40.70066" lon="44.85056">
        <ele>1509.481913</ele>
        <time>2021-08-13T01:53:10.715Z</time>
      </trkpt>
      <trkpt lat="40.70054" lon="44.85035">
        <ele>1511.437503</ele>
        <time>2021-08-13T01:53:30.681Z</time>
      </trkpt>
      <trkpt lat="40.70035" lon="44.85023">
        <ele>1513.422105</ele>
        <time>2021-08-13T01:53:49.080Z</time>
      </trkpt>
      <trkpt lat="40.70024" lon="44.85048">
        <ele>1515.576141</ele>
        <time>2021-08-13T01:54:13.251Z</time>
      </trkpt>
      <trkpt lat="40.69997" lon="44.85088">
        <ele>1519.395564</ele>
        <time>2021-08-13T01:54:51.361Z</time>
      </trkpt>
      <trkpt lat="40.69983" lon="44.85095">
        <ele>1520.532626</ele>
        <time>2021-08-13T01:55:03.034Z</time>
      </trkpt>
      <trkpt lat="40.69967" lon="44.85099">
        <ele>1521.81848</ele>
        <time>2021-08-13T01:55:19.617Z</time>
      </trkpt>
      <trkpt lat="40.69968" lon="44.85118">
        <ele>1522.999571</ele>
        <time>2021-08-13T01:55:30.278Z</time>
      </trkpt>
      <trkpt lat="40.69973" lon="44.85126">
        <ele>1523.586932</ele>
        <time>2021-08-13T01:55:37.134Z</time>
      </trkpt>
      <trkpt lat="40.70009" lon="44.85148">
        <ele>1526.734735</ele>
        <time>2021-08-13T01:56:08.371Z</time>
      </trkpt>
      <trkpt lat="40.70015" lon="44.85157">
        <ele>1527.412504</ele>
        <time>2021-08-13T01:56:16.777Z</time>
      </trkpt>
      <trkpt lat="40.6994" lon="44.85137">
        <ele>1533.095573</ele>
        <time>2021-08-13T01:57:08.142Z</time>
      </trkpt>
      <trkpt lat="40.69862" lon="44.85118">
        <ele>1535.246409</ele>
        <time>2021-08-13T01:57:40.520Z</time>
      </trkpt>
      <trkpt lat="40.697" lon="44.85114">
        <ele>1541.254044</ele>
        <time>2021-08-13T01:58:51.693Z</time>
      </trkpt>
      <trkpt lat="40.69686" lon="44.85115">
        <ele>1541.957314</ele>
        <time>2021-08-13T01:58:58.582Z</time>
      </trkpt>
      <trkpt lat="40.69679" lon="44.85117">
        <ele>1542.313854</ele>
        <time>2021-08-13T01:59:05.582Z</time>
      </trkpt>
      <trkpt lat="40.6966" lon="44.85122">
        <ele>1543.29018</ele>
        <time>2021-08-13T01:59:16.265Z</time>
      </trkpt>
      <trkpt lat="40.69619" lon="44.85144">
        <ele>1545.500255</ele>
        <time>2021-08-13T01:59:45.963Z</time>
      </trkpt>
      <trkpt lat="40.69594" lon="44.85177">
        <ele>1547.489113</ele>
        <time>2021-08-13T02:00:13.144Z</time>
      </trkpt>
      <trkpt lat="40.69519" lon="44.85344">
        <ele>1559.223921</ele>
        <time>2021-08-13T02:02:11.277Z</time>
      </trkpt>
      <trkpt lat="40.69508" lon="44.85368">
        <ele>1560.922781</ele>
        <time>2021-08-13T02:02:26.773Z</time>
      </trkpt>
      <trkpt lat="40.69472" lon="44.85428">
        <ele>1563.54665</ele>
        <time>2021-08-13T02:03:01.017Z</time>
      </trkpt>
      <trkpt lat="40.69472" lon="44.85434">
        <ele>1563.743384</ele>
        <time>2021-08-13T02:03:05.294Z</time>
      </trkpt>
      <trkpt lat="40.69473" lon="44.85439">
        <ele>1563.902775</ele>
        <time>2021-08-13T02:03:06.731Z</time>
      </trkpt>
      <trkpt lat="40.69485" lon="44.85448">
        <ele>1564.464093</ele>
        <time>2021-08-13T02:03:13.284Z</time>
      </trkpt>
      <trkpt lat="40.69495" lon="44.85442">
        <ele>1564.932114</ele>
        <time>2021-08-13T02:03:18.503Z</time>
      </trkpt>
      <trkpt lat="40.69531" lon="44.85393">
        <ele>1567.17023</ele>
        <time>2021-08-13T02:03:45.619Z</time>
      </trkpt>
      <trkpt lat="40.69562" lon="44.85362">
        <ele>1568.840448</ele>
        <time>2021-08-13T02:04:03.089Z</time>
      </trkpt>
      <trkpt lat="40.69592" lon="44.85346">
        <ele>1570.515935</ele>
        <time>2021-08-13T02:04:18.651Z</time>
      </trkpt>
      <trkpt lat="40.69623" lon="44.85334">
        <ele>1572.257374</ele>
        <time>2021-08-13T02:04:34.534Z</time>
      </trkpt>
      <trkpt lat="40.69695" lon="44.85309">
        <ele>1576.193731</ele>
        <time>2021-08-13T02:05:17.662Z</time>
      </trkpt>
      <trkpt lat="40.69779" lon="44.85277">
        <ele>1583.344143</ele>
        <time>2021-08-13T02:06:26.599Z</time>
      </trkpt>
      <trkpt lat="40.69808" lon="44.85274">
        <ele>1586.537833</ele>
        <time>2021-08-13T02:06:54.708Z</time>
      </trkpt>
      <trkpt lat="40.69919" lon="44.85282">
        <ele>1598.940247</ele>
        <time>2021-08-13T02:08:45.572Z</time>
      </trkpt>
      <trkpt lat="40.69945" lon="44.85292">
        <ele>1602.103233</ele>
        <time>2021-08-13T02:09:14.280Z</time>
      </trkpt>
      <trkpt lat="40.69993" lon="44.85317">
        <ele>1608.096459</ele>
        <time>2021-08-13T02:10:06.951Z</time>
      </trkpt>
      <trkpt lat="40.70048" lon="44.85356">
        <ele>1615.273907</ele>
        <time>2021-08-13T02:11:08.346Z</time>
      </trkpt>
      <trkpt lat="40.7014" lon="44.85412">
        <ele>1623.483699</ele>
        <time>2021-08-13T02:12:32.807Z</time>
      </trkpt>
      <trkpt lat="40.70153" lon="44.85426">
        <ele>1624.500754</ele>
        <time>2021-08-13T02:12:44.728Z</time>
      </trkpt>
      <trkpt lat="40.70154" lon="44.85442">
        <ele>1625.233555</ele>
        <time>2021-08-13T02:12:53.016Z</time>
      </trkpt>
      <trkpt lat="40.70145" lon="44.85451">
        <ele>1625.88444</ele>
        <time>2021-08-13T02:12:59.902Z</time>
      </trkpt>
      <trkpt lat="40.7013" lon="44.85454">
        <ele>1626.874842</ele>
        <time>2021-08-13T02:13:10.213Z</time>
      </trkpt>
      <trkpt lat="40.70059" lon="44.85406">
        <ele>1630.147104</ele>
        <time>2021-08-13T02:13:48.148Z</time>
      </trkpt>
      <trkpt lat="40.69975" lon="44.85364">
        <ele>1628.920193</ele>
        <time>2021-08-13T02:14:10.515Z</time>
      </trkpt>
      <trkpt lat="40.69905" lon="44.85355">
        <ele>1627.98876</ele>
        <time>2021-08-13T02:14:26.355Z</time>
      </trkpt>
      <trkpt lat="40.69845" lon="44.85363">
        <ele>1628.534446</ele>
        <time>2021-08-13T02:14:40.550Z</time>
      </trkpt>
      <trkpt lat="40.69809" lon="44.8538">
        <ele>1628.882683</ele>
        <time>2021-08-13T02:14:51.347Z</time>
      </trkpt>
      <trkpt lat="40.69793" lon="44.85395">
        <ele>1629.05454</ele>
        <time>2021-08-13T02:14:58.359Z</time>
      </trkpt>
      <trkpt lat="40.69776" lon="44.8542">
        <ele>1629.283428</ele>
        <time>2021-08-13T02:15:09.994Z</time>
      </trkpt>
      <trkpt lat="40.6976" lon="44.85462">
        <ele>1629.652759</ele>
        <time>2021-08-13T02:15:34.216Z</time>
      </trkpt>
      <trkpt lat="40.69734" lon="44.85563">
        <ele>1635.065102</ele>
        <time>2021-08-13T02:16:34.533Z</time>
      </trkpt>
      <trkpt lat="40.69712" lon="44.85593">
        <ele>1637.192517</ele>
        <time>2021-08-13T02:16:57.626Z</time>
      </trkpt>
      <trkpt lat="40.69692" lon="44.85598">
        <ele>1638.519028</ele>
        <time>2021-08-13T02:17:09.183Z</time>
      </trkpt>
      <trkpt lat="40.69673" lon="44.85598">
        <ele>1639.814958</ele>
        <time>2021-08-13T02:17:26.709Z</time>
      </trkpt>
      <trkpt lat="40.69653" lon="44.85592">
        <ele>1641.201017</ele>
        <time>2021-08-13T02:17:37.396Z</time>
      </trkpt>
      <trkpt lat="40.69602" lon="44.85557">
        <ele>1643.853464</ele>
        <time>2021-08-13T02:18:14.592Z</time>
      </trkpt>
      <trkpt lat="40.69579" lon="44.85564">
        <ele>1644.847881</ele>
        <time>2021-08-13T02:18:26.903Z</time>
      </trkpt>
      <trkpt lat="40.69555" lon="44.85586">
        <ele>1646.16583</ele>
        <time>2021-08-13T02:18:41.693Z</time>
      </trkpt>
      <trkpt lat="40.69477" lon="44.85691">
        <ele>1651.409449</ele>
        <time>2021-08-13T02:19:37.357Z</time>
      </trkpt>
      <trkpt lat="40.69368" lon="44.85783">
        <ele>1658.475713</ele>
        <time>2021-08-13T02:20:58.194Z</time>
      </trkpt>
      <trkpt lat="40.69353" lon="44.85809">
        <ele>1660.010039</ele>
        <time>2021-08-13T02:21:17.330Z</time>
      </trkpt>
      <trkpt lat="40.69334" lon="44.85876">
        <ele>1663.748458</ele>
        <time>2021-08-13T02:21:59.415Z</time>
      </trkpt>
      <trkpt lat="40.69324" lon="44.85893">
        <ele>1664.829052</ele>
        <time>2021-08-13T02:22:11.263Z</time>
      </trkpt>
      <trkpt lat="40.6931" lon="44.85898">
        <ele>1665.860082</ele>
        <time>2021-08-13T02:22:22.414Z</time>
      </trkpt>
      <trkpt lat="40.6927" lon="44.85892">
        <ele>1668.577811</ele>
        <time>2021-08-13T02:22:49.964Z</time>
      </trkpt>
      <trkpt lat="40.69239" lon="44.85901">
        <ele>1670.756275</ele>
        <time>2021-08-13T02:23:10.487Z</time>
      </trkpt>
      <trkpt lat="40.69161" lon="44.85955">
        <ele>1674.324215</ele>
        <time>2021-08-13T02:24:03.195Z</time>
      </trkpt>
      <trkpt lat="40.69065" lon="44.8601">
        <ele>1678.012197</ele>
        <time>2021-08-13T02:24:47.124Z</time>
      </trkpt>
      <trkpt lat="40.6901" lon="44.86034">
        <ele>1680.414657</ele>
        <time>2021-08-13T02:25:15.546Z</time>
      </trkpt>
      <trkpt lat="40.68948" lon="44.86046">
        <ele>1683.019306</ele>
        <time>2021-08-13T02:25:48.657Z</time>
      </trkpt>
      <trkpt lat="40.68935" lon="44.8606">
        <ele>1683.711812</ele>
        <time>2021-08-13T02:25:57.180Z</time>
      </trkpt>
      <trkpt lat="40.68937" lon="44.86072">
        <ele>1684.108835</ele>
        <time>2021-08-13T02:26:01.691Z</time>
      </trkpt>
      <trkpt lat="40.68941" lon="44.86076">
        <ele>1684.29589</ele>
        <time>2021-08-13T02:26:02.605Z</time>
      </trkpt>
      <trkpt lat="40.68946" lon="44.86077">
        <ele>1684.524958</ele>
        <time>2021-08-13T02:26:11.525Z</time>
      </trkpt>
      <trkpt lat="40.69049" lon="44.86049">
        <ele>1691.534747</ele>
        <time>2021-08-13T02:27:21.340Z</time>
      </trkpt>
      <trkpt lat="40.69156" lon="44.85999">
        <ele>1699.859955</ele>
        <time>2021-08-13T02:28:51.299Z</time>
      </trkpt>
      <trkpt lat="40.69252" lon="44.85964">
        <ele>1706.827048</ele>
        <time>2021-08-13T02:30:02.291Z</time>
      </trkpt>
      <trkpt lat="40.69298" lon="44.85956">
        <ele>1710.078454</ele>
        <time>2021-08-13T02:30:33.872Z</time>
      </trkpt>
      <trkpt lat="40.69319" lon="44.85967">
        <ele>1711.530068</ele>
        <time>2021-08-13T02:30:48.774Z</time>
      </trkpt>
      <trkpt lat="40.69322" lon="44.85982">
        <ele>1711.934672</ele>
        <time>2021-08-13T02:30:56.402Z</time>
      </trkpt>
      <trkpt lat="40.69317" lon="44.85989">
        <ele>1712.19591</ele>
        <time>2021-08-13T02:31:01.276Z</time>
      </trkpt>
      <trkpt lat="40.69284" lon="44.85987">
        <ele>1713.355089</ele>
        <time>2021-08-13T02:31:20.806Z</time>
      </trkpt>
      <trkpt lat="40.69257" lon="44.85995">
        <ele>1714.322349</ele>
        <time>2021-08-13T02:31:35.762Z</time>
      </trkpt>
      <trkpt lat="40.69183" lon="44.86048">
        <ele>1717.254364</ele>
        <time>2021-08-13T02:32:14.277Z</time>
      </trkpt>
      <trkpt lat="40.69061" lon="44.86097">
        <ele>1719.611009</ele>
        <time>2021-08-13T02:32:56.009Z</time>
      </trkpt>
      <trkpt lat="40.69015" lon="44.86121">
        <ele>1720.443995</ele>
        <time>2021-08-13T02:33:12.035Z</time>
      </trkpt>
      <trkpt lat="40.69006" lon="44.86146">
        <ele>1721.222297</ele>
        <time>2021-08-13T02:33:25.212Z</time>
      </trkpt>
      <trkpt lat="40.69007" lon="44.86191">
        <ele>1723.917549</ele>
        <time>2021-08-13T02:33:51.445Z</time>
      </trkpt>
      <trkpt lat="40.69035" lon="44.86279">
        <ele>1729.561326</ele>
        <time>2021-08-13T02:34:50.250Z</time>
      </trkpt>
      <trkpt lat="40.69036" lon="44.863">
        <ele>1730.764475</ele>
        <time>2021-08-13T02:35:01.157Z</time>
      </trkpt>
      <trkpt lat="40.6903" lon="44.86333">
        <ele>1732.763605</ele>
        <time>2021-08-13T02:35:23.818Z</time>
      </trkpt>
      <trkpt lat="40.69021" lon="44.86355">
        <ele>1734.258661</ele>
        <time>2021-08-13T02:35:38.011Z</time>
      </trkpt>
      <trkpt lat="40.69009" lon="44.86371">
        <ele>1735.513038</ele>
        <time>2021-08-13T02:35:52.755Z</time>
      </trkpt>
      <trkpt lat="40.68996" lon="44.86383">
        <ele>1736.773027</ele>
        <time>2021-08-13T02:36:04.655Z</time>
      </trkpt>
      <trkpt lat="40.68901" lon="44.86391">
        <ele>1744.039931</ele>
        <time>2021-08-13T02:37:23.838Z</time>
      </trkpt>
      <trkpt lat="40.68853" lon="44.8638">
        <ele>1747.738427</ele>
        <time>2021-08-13T02:37:52.375Z</time>
      </trkpt>
      <trkpt lat="40.68812" lon="44.86354">
        <ele>1751.002874</ele>
        <time>2021-08-13T02:38:16.574Z</time>
      </trkpt>
      <trkpt lat="40.68802" lon="44.86354">
        <ele>1751.678062</ele>
        <time>2021-08-13T02:38:22.401Z</time>
      </trkpt>
      <trkpt lat="40.68798" lon="44.86361">
        <ele>1752.155906</ele>
        <time>2021-08-13T02:38:26.731Z</time>
      </trkpt>
      <trkpt lat="40.68796" lon="44.86371">
        <ele>1752.690317</ele>
        <time>2021-08-13T02:38:31.803Z</time>
      </trkpt>
      <trkpt lat="40.68803" lon="44.86379">
        <ele>1753.365081</ele>
        <time>2021-08-13T02:38:38.352Z</time>
      </trkpt>
      <trkpt lat="40.68875" lon="44.86411">
        <ele>1758.640978</ele>
        <time>2021-08-13T02:39:37.121Z</time>
      </trkpt>
      <trkpt lat="40.68912" lon="44.86423">
        <ele>1761.312627</ele>
        <time>2021-08-13T02:40:08.223Z</time>
      </trkpt>
      <trkpt lat="40.69006" lon="44.86428">
        <ele>1766.925712</ele>
        <time>2021-08-13T02:41:15.953Z</time>
      </trkpt>
      <trkpt lat="40.69019" lon="44.86434">
        <ele>1767.737417</ele>
        <time>2021-08-13T02:41:24.264Z</time>
      </trkpt>
      <trkpt lat="40.69021" lon="44.86443">
        <ele>1768.160902</ele>
        <time>2021-08-13T02:41:28.786Z</time>
      </trkpt>
      <trkpt lat="40.6902" lon="44.86452">
        <ele>1768.572405</ele>
        <time>2021-08-13T02:41:33.186Z</time>
      </trkpt>
      <trkpt lat="40.69001" lon="44.86458">
        <ele>1769.727369</ele>
        <time>2021-08-13T02:41:44.400Z</time>
      </trkpt>
      <trkpt lat="40.68873" lon="44.86452">
        <ele>1775.621578</ele>
        <time>2021-08-13T02:42:43.499Z</time>
      </trkpt>
      <trkpt lat="40.68848" lon="44.86457">
        <ele>1776.672023</ele>
        <time>2021-08-13T02:42:53.749Z</time>
      </trkpt>
      <trkpt lat="40.68838" lon="44.86467">
        <ele>1777.193969</ele>
        <time>2021-08-13T02:42:59.672Z</time>
      </trkpt>
      <trkpt lat="40.68822" lon="44.86497">
        <ele>1778.320132</ele>
        <time>2021-08-13T02:43:13.429Z</time>
      </trkpt>
      <trkpt lat="40.68816" lon="44.86534">
        <ele>1779.99365</ele>
        <time>2021-08-13T02:43:38.321Z</time>
      </trkpt>
      <trkpt lat="40.68817" lon="44.86607">
        <ele>1785.121608</ele>
        <time>2021-08-13T02:44:27.221Z</time>
      </trkpt>
      <trkpt lat="40.68814" lon="44.86633">
        <ele>1786.933423</ele>
        <time>2021-08-13T02:44:46.591Z</time>
      </trkpt>
      <trkpt lat="40.68805" lon="44.86661">
        <ele>1789.064648</ele>
        <time>2021-08-13T02:45:10.183Z</time>
      </trkpt>
      <trkpt lat="40.68789" lon="44.8669">
        <ele>1791.545779</ele>
        <time>2021-08-13T02:45:28.531Z</time>
      </trkpt>
      <trkpt lat="40.68781" lon="44.86696">
        <ele>1792.416346</ele>
        <time>2021-08-13T02:45:42.310Z</time>
      </trkpt>
      <trkpt lat="40.68759" lon="44.86701">
        <ele>1794.479489</ele>
        <time>2021-08-13T02:45:56.452Z</time>
      </trkpt>
      <trkpt lat="40.68741" lon="44.86704">
        <ele>1795.943751</ele>
        <time>2021-08-13T02:46:15.173Z</time>
      </trkpt>
      <trkpt lat="40.68717" lon="44.86706">
        <ele>1796.986784</ele>
        <time>2021-08-13T02:46:29.508Z</time>
      </trkpt>
      <trkpt lat="40.68603" lon="44.86706">
        <ele>1801.966018</ele>
        <time>2021-08-13T02:47:38.396Z</time>
      </trkpt>
      <trkpt lat="40.68559" lon="44.86732">
        <ele>1803.765837</ele>
        <time>2021-08-13T02:47:51.162Z</time>
      </trkpt>
      <trkpt lat="40.68531" lon="44.86757">
        <ele>1804.225493</ele>
        <time>2021-08-13T02:48:00.758Z</time>
      </trkpt>
      <trkpt lat="40.68502" lon="44.86794">
        <ele>1804.775771</ele>
        <time>2021-08-13T02:48:14.269Z</time>
      </trkpt>
      <trkpt lat="40.6841" lon="44.86889">
        <ele>1806.97612</ele>
        <time>2021-08-13T02:49:04.723Z</time>
      </trkpt>
      <trkpt lat="40.68384" lon="44.86922">
        <ele>1808.440759</ele>
        <time>2021-08-13T02:49:23.809Z</time>
      </trkpt>
      <trkpt lat="40.68347" lon="44.87">
        <ele>1811.279647</ele>
        <time>2021-08-13T02:50:03.618Z</time>
      </trkpt>
      <trkpt lat="40.68336" lon="44.87012">
        <ele>1811.88469</ele>
        <time>2021-08-13T02:50:12.183Z</time>
      </trkpt>
      <trkpt lat="40.68247" lon="44.87059">
        <ele>1816.500984</ele>
        <time>2021-08-13T02:51:07.691Z</time>
      </trkpt>
      <trkpt lat="40.68224" lon="44.87077">
        <ele>1817.930237</ele>
        <time>2021-08-13T02:51:23.616Z</time>
      </trkpt>
      <trkpt lat="40.68212" lon="44.87096">
        <ele>1818.927838</ele>
        <time>2021-08-13T02:51:35.075Z</time>
      </trkpt>
      <trkpt lat="40.68201" lon="44.87132">
        <ele>1820.477298</ele>
        <time>2021-08-13T02:51:53.563Z</time>
      </trkpt>
      <trkpt lat="40.68201" lon="44.87157">
        <ele>1821.466846</ele>
        <time>2021-08-13T02:52:05.452Z</time>
      </trkpt>
      <trkpt lat="40.68213" lon="44.87251">
        <ele>1825.130264</ele>
        <time>2021-08-13T02:52:52.509Z</time>
      </trkpt>
      <trkpt lat="40.68212" lon="44.87288">
        <ele>1826.468922</ele>
        <time>2021-08-13T02:53:09.658Z</time>
      </trkpt>
      <trkpt lat="40.68207" lon="44.87299">
        <ele>1826.97354</ele>
        <time>2021-08-13T02:53:15.787Z</time>
      </trkpt>
      <trkpt lat="40.68189" lon="44.87311">
        <ele>1827.941108</ele>
        <time>2021-08-13T02:53:27.518Z</time>
      </trkpt>
      <trkpt lat="40.68124" lon="44.8729">
        <ele>1831.197997</ele>
        <time>2021-08-13T02:54:03.807Z</time>
      </trkpt>
      <trkpt lat="40.68109" lon="44.87294">
        <ele>1831.903156</ele>
        <time>2021-08-13T02:54:11.524Z</time>
      </trkpt>
      <trkpt lat="40.68097" lon="44.87304">
        <ele>1832.435675</ele>
        <time>2021-08-13T02:54:18.910Z</time>
      </trkpt>
      <trkpt lat="40.6807" lon="44.8734">
        <ele>1833.913423</ele>
        <time>2021-08-13T02:54:38.430Z</time>
      </trkpt>
      <trkpt lat="40.68019" lon="44.87433">
        <ele>1837.259573</ele>
        <time>2021-08-13T02:55:21.705Z</time>
      </trkpt>
      <trkpt lat="40.67971" lon="44.87505">
        <ele>1841.07442</ele>
        <time>2021-08-13T02:56:03.703Z</time>
      </trkpt>
      <trkpt lat="40.67927" lon="44.87582">
        <ele>1845.925775</ele>
        <time>2021-08-13T02:56:50.129Z</time>
      </trkpt>
      <trkpt lat="40.67908" lon="44.87623">
        <ele>1848.374918</ele>
        <time>2021-08-13T02:57:17.119Z</time>
      </trkpt>
      <trkpt lat="40.67836" lon="44.87754">
        <ele>1859.581001</ele>
        <time>2021-08-13T02:59:01.071Z</time>
      </trkpt>
      <trkpt lat="40.67823" lon="44.87778">
        <ele>1861.883213</ele>
        <time>2021-08-13T02:59:22.466Z</time>
      </trkpt>
      <trkpt lat="40.67801" lon="44.87816">
        <ele>1865.569086</ele>
        <time>2021-08-13T02:59:54.683Z</time>
      </trkpt>
      <trkpt lat="40.67789" lon="44.87835">
        <ele>1867.501031</ele>
        <time>2021-08-13T03:00:12.036Z</time>
      </trkpt>
      <trkpt lat="40.67762" lon="44.87876">
        <ele>1871.978506</ele>
        <time>2021-08-13T03:00:50.530Z</time>
      </trkpt>
      <trkpt lat="40.67625" lon="44.88069">
        <ele>1894.683439</ele>
        <time>2021-08-13T03:04:01.415Z</time>
      </trkpt>
      <trkpt lat="40.67576" lon="44.88118">
        <ele>1901.755636</ele>
        <time>2021-08-13T03:04:58.073Z</time>
      </trkpt>
      <trkpt lat="40.67554" lon="44.88132">
        <ele>1904.585453</ele>
        <time>2021-08-13T03:05:21.799Z</time>
      </trkpt>
      <trkpt lat="40.67396" lon="44.88236">
        <ele>1924.600983</ele>
        <time>2021-08-13T03:08:17.288Z</time>
      </trkpt>
      <trkpt lat="40.67377" lon="44.88253">
        <ele>1927.204722</ele>
        <time>2021-08-13T03:08:38.437Z</time>
      </trkpt>
      <trkpt lat="40.67328" lon="44.88295">
        <ele>1932.137499</ele>
        <time>2021-08-13T03:09:29.256Z</time>
      </trkpt>
      <trkpt lat="40.66968" lon="44.88532">
        <ele>1952.47326</ele>
        <time>2021-08-13T03:13:29.421Z</time>
      </trkpt>
      <trkpt lat="40.65389" lon="44.8921">
        <ele>2008.45211</ele>
        <time>2021-08-13T03:27:35.976Z</time>
      </trkpt>
      <trkpt lat="40.65346" lon="44.89226">
        <ele>2009.870774</ele>
        <time>2021-08-13T03:27:58.616Z</time>
      </trkpt>
      <trkpt lat="40.65309" lon="44.89241">
        <ele>2010.497763</ele>
        <time>2021-08-13T03:28:17.157Z</time>
      </trkpt>
      <trkpt lat="40.65295" lon="44.89249">
        <ele>2010.5344</ele>
        <time>2021-08-13T03:28:22.423Z</time>
      </trkpt>
      <trkpt lat="40.65286" lon="44.89256">
        <ele>2010.559269</ele>
        <time>2021-08-13T03:28:29.550Z</time>
      </trkpt>
      <trkpt lat="40.65265" lon="44.89287">
        <ele>2010.635083</ele>
        <time>2021-08-13T03:28:40.789Z</time>
      </trkpt>
      <trkpt lat="40.65257" lon="44.89311">
        <ele>2010.682616</ele>
        <time>2021-08-13T03:28:47.224Z</time>
      </trkpt>
      <trkpt lat="40.65245" lon="44.89381">
        <ele>2010.8141</ele>
        <time>2021-08-13T03:29:02.541Z</time>
      </trkpt>
      <trkpt lat="40.65238" lon="44.89434">
        <ele>2010.43888</ele>
        <time>2021-08-13T03:29:12.469Z</time>
      </trkpt>
      <trkpt lat="40.65231" lon="44.89489">
        <ele>2008.987687</ele>
        <time>2021-08-13T03:29:21.693Z</time>
      </trkpt>
      <trkpt lat="40.65226" lon="44.89536">
        <ele>2007.749053</ele>
        <time>2021-08-13T03:29:29.491Z</time>
      </trkpt>
      <trkpt lat="40.65222" lon="44.89569">
        <ele>2006.867082</ele>
        <time>2021-08-13T03:29:35.126Z</time>
      </trkpt>
      <trkpt lat="40.65215" lon="44.89627">
        <ele>2005.335897</ele>
        <time>2021-08-13T03:29:45.159Z</time>
      </trkpt>
      <trkpt lat="40.65208" lon="44.89685">
        <ele>2004.528925</ele>
        <time>2021-08-13T03:29:55.334Z</time>
      </trkpt>
      <trkpt lat="40.65203" lon="44.89733">
        <ele>2004.271693</ele>
        <time>2021-08-13T03:30:04.463Z</time>
      </trkpt>
      <trkpt lat="40.65199" lon="44.8977">
        <ele>2004.069148</ele>
        <time>2021-08-13T03:30:12.403Z</time>
      </trkpt>
      <trkpt lat="40.65196" lon="44.89784">
        <ele>2003.992325</ele>
        <time>2021-08-13T03:30:15.736Z</time>
      </trkpt>
      <trkpt lat="40.6519" lon="44.89814">
        <ele>2003.829054</ele>
        <time>2021-08-13T03:30:23.443Z</time>
      </trkpt>
      <trkpt lat="40.6516" lon="44.89927">
        <ele>2003.414463</ele>
        <time>2021-08-13T03:30:57.874Z</time>
      </trkpt>
      <trkpt lat="40.6512" lon="44.90042">
        <ele>2003.331794</ele>
        <time>2021-08-13T03:31:28.278Z</time>
      </trkpt>
      <trkpt lat="40.64868" lon="44.90585">
        <ele>1997.733787</ele>
        <time>2021-08-13T03:33:34.196Z</time>
      </trkpt>
      <trkpt lat="40.6485" lon="44.90662">
        <ele>1997.094753</ele>
        <time>2021-08-13T03:33:51.474Z</time>
      </trkpt>
      <trkpt lat="40.64833" lon="44.90963">
        <ele>1994.411074</ele>
        <time>2021-08-13T03:34:53.555Z</time>
      </trkpt>
      <trkpt lat="40.64808" lon="44.91087">
        <ele>1992.029073</ele>
        <time>2021-08-13T03:35:16.673Z</time>
      </trkpt>
      <trkpt lat="40.64783" lon="44.91137">
        <ele>1990.928385</ele>
        <time>2021-08-13T03:35:27.191Z</time>
      </trkpt>
      <trkpt lat="40.6472" lon="44.91207">
        <ele>1989.062911</ele>
        <time>2021-08-13T03:35:46.446Z</time>
      </trkpt>
      <trkpt lat="40.64558" lon="44.91335">
        <ele>1985.180617</ele>
        <time>2021-08-13T03:36:33.301Z</time>
      </trkpt>
      <trkpt lat="40.64526" lon="44.91361">
        <ele>1984.506438</ele>
        <time>2021-08-13T03:36:42.851Z</time>
      </trkpt>
      <trkpt lat="40.6449" lon="44.91393">
        <ele>1983.738195</ele>
        <time>2021-08-13T03:36:53.606Z</time>
      </trkpt>
      <trkpt lat="40.64439" lon="44.91449">
        <ele>1982.650819</ele>
        <time>2021-08-13T03:37:10.376Z</time>
      </trkpt>
      <trkpt lat="40.64373" lon="44.91533">
        <ele>1981.350387</ele>
        <time>2021-08-13T03:37:34.069Z</time>
      </trkpt>
      <trkpt lat="40.64325" lon="44.91605">
        <ele>1980.305532</ele>
        <time>2021-08-13T03:37:53.452Z</time>
      </trkpt>
      <trkpt lat="40.64295" lon="44.91671">
        <ele>1979.424555</ele>
        <time>2021-08-13T03:38:08.516Z</time>
      </trkpt>
      <trkpt lat="40.64228" lon="44.91882">
        <ele>1976.558977</ele>
        <time>2021-08-13T03:38:52.481Z</time>
      </trkpt>
      <trkpt lat="40.64186" lon="44.91971">
        <ele>1975.045037</ele>
        <time>2021-08-13T03:39:12.389Z</time>
      </trkpt>
      <trkpt lat="40.64116" lon="44.92065">
        <ele>1972.890629</ele>
        <time>2021-08-13T03:39:36.928Z</time>
      </trkpt>
      <trkpt lat="40.64003" lon="44.92195">
        <ele>1969.235585</ele>
        <time>2021-08-13T03:40:12.657Z</time>
      </trkpt>
      <trkpt lat="40.63878" lon="44.92435">
        <ele>1963.1737</ele>
        <time>2021-08-13T03:41:03.826Z</time>
      </trkpt>
      <trkpt lat="40.63856" lon="44.92467">
        <ele>1962.324374</ele>
        <time>2021-08-13T03:41:11.517Z</time>
      </trkpt>
      <trkpt lat="40.63726" lon="44.92618">
        <ele>1958.603164</ele>
        <time>2021-08-13T03:41:53.779Z</time>
      </trkpt>
      <trkpt lat="40.63646" lon="44.92711">
        <ele>1956.805878</ele>
        <time>2021-08-13T03:42:21.122Z</time>
      </trkpt>
      <trkpt lat="40.63627" lon="44.92734">
        <ele>1956.466234</ele>
        <time>2021-08-13T03:42:28.093Z</time>
      </trkpt>
      <trkpt lat="40.63604" lon="44.92766">
        <ele>1956.038948</ele>
        <time>2021-08-13T03:42:37.027Z</time>
      </trkpt>
      <trkpt lat="40.63568" lon="44.92834">
        <ele>1955.244676</ele>
        <time>2021-08-13T03:42:53.598Z</time>
      </trkpt>
      <trkpt lat="40.63423" lon="44.93199">
        <ele>1950.913527</ele>
        <time>2021-08-13T03:44:15.033Z</time>
      </trkpt>
      <trkpt lat="40.63381" lon="44.93292">
        <ele>1949.722539</ele>
        <time>2021-08-13T03:44:36.040Z</time>
      </trkpt>
      <trkpt lat="40.63339" lon="44.93356">
        <ele>1948.841545</ele>
        <time>2021-08-13T03:44:52.660Z</time>
      </trkpt>
      <trkpt lat="40.63211" lon="44.9352">
        <ele>1946.457396</ele>
        <time>2021-08-13T03:45:39.558Z</time>
      </trkpt>
      <trkpt lat="40.63054" lon="44.9372">
        <ele>1943.575998</ele>
        <time>2021-08-13T03:46:36.538Z</time>
      </trkpt>
      <trkpt lat="40.6299" lon="44.93808">
        <ele>1942.369234</ele>
        <time>2021-08-13T03:47:00.534Z</time>
      </trkpt>
      <trkpt lat="40.62937" lon="44.93881">
        <ele>1941.5186</ele>
        <time>2021-08-13T03:47:20.485Z</time>
      </trkpt>
      <trkpt lat="40.62878" lon="44.93965">
        <ele>1940.565461</ele>
        <time>2021-08-13T03:47:44.332Z</time>
      </trkpt>
      <trkpt lat="40.62805" lon="44.94069">
        <ele>1939.823824</ele>
        <time>2021-08-13T03:48:14.543Z</time>
      </trkpt>
      <trkpt lat="40.62721" lon="44.94187">
        <ele>1938.957201</ele>
        <time>2021-08-13T03:48:49.233Z</time>
      </trkpt>
      <trkpt lat="40.62679" lon="44.94247">
        <ele>1938.503588</ele>
        <time>2021-08-13T03:49:06.701Z</time>
      </trkpt>
      <trkpt lat="40.62668" lon="44.94263">
        <ele>1938.383903</ele>
        <time>2021-08-13T03:49:11.268Z</time>
      </trkpt>
      <trkpt lat="40.62627" lon="44.94323">
        <ele>1937.890561</ele>
        <time>2021-08-13T03:49:28.542Z</time>
      </trkpt>
      <trkpt lat="40.6232" lon="44.94834">
        <ele>1932.196595</ele>
        <time>2021-08-13T03:51:40.666Z</time>
      </trkpt>
      <trkpt lat="40.62298" lon="44.94869">
        <ele>1931.726947</ele>
        <time>2021-08-13T03:51:49.071Z</time>
      </trkpt>
      <trkpt lat="40.62289" lon="44.94884">
        <ele>1931.534132</ele>
        <time>2021-08-13T03:51:52.643Z</time>
      </trkpt>
      <trkpt lat="40.62286" lon="44.94908">
        <ele>1931.300755</ele>
        <time>2021-08-13T03:51:57.277Z</time>
      </trkpt>
      <trkpt lat="40.62235" lon="44.94988">
        <ele>1930.29764</ele>
        <time>2021-08-13T03:52:17.857Z</time>
      </trkpt>
      <trkpt lat="40.62215" lon="44.95008">
        <ele>1929.975308</ele>
        <time>2021-08-13T03:52:24.441Z</time>
      </trkpt>
      <trkpt lat="40.62206" lon="44.95023">
        <ele>1929.800242</ele>
        <time>2021-08-13T03:52:28.796Z</time>
      </trkpt>
      <trkpt lat="40.62201" lon="44.95038">
        <ele>1929.642544</ele>
        <time>2021-08-13T03:52:32.204Z</time>
      </trkpt>
      <trkpt lat="40.62211" lon="44.95055">
        <ele>1929.604093</ele>
        <time>2021-08-13T03:52:39.404Z</time>
      </trkpt>
      <trkpt lat="40.6223" lon="44.95097">
        <ele>1930.62103</ele>
        <time>2021-08-13T03:52:54.357Z</time>
      </trkpt>
      <trkpt lat="40.62285" lon="44.9516">
        <ele>1932.655263</ele>
        <time>2021-08-13T03:53:29.514Z</time>
      </trkpt>
      <trkpt lat="40.62301" lon="44.95175">
        <ele>1933.186971</ele>
        <time>2021-08-13T03:53:38.987Z</time>
      </trkpt>
      <trkpt lat="40.62303" lon="44.9518">
        <ele>1933.304258</ele>
        <time>2021-08-13T03:53:42.931Z</time>
      </trkpt>
      <trkpt lat="40.62366" lon="44.95251">
        <ele>1936.097236</ele>
        <time>2021-08-13T03:54:28.995Z</time>
      </trkpt>
      <trkpt lat="40.62379" lon="44.95269">
        <ele>1936.872932</ele>
        <time>2021-08-13T03:54:40.143Z</time>
      </trkpt>
      <trkpt lat="40.62383" lon="44.95282">
        <ele>1937.303735</ele>
        <time>2021-08-13T03:54:47.692Z</time>
      </trkpt>
      <trkpt lat="40.62441" lon="44.95383">
        <ele>1941.191053</ele>
        <time>2021-08-13T03:55:39.925Z</time>
      </trkpt>
      <trkpt lat="40.62463" lon="44.95422">
        <ele>1942.459823</ele>
        <time>2021-08-13T03:55:59.006Z</time>
      </trkpt>
      <trkpt lat="40.62472" lon="44.95439">
        <ele>1942.941722</ele>
        <time>2021-08-13T03:56:06.709Z</time>
      </trkpt>
      <trkpt lat="40.62522" lon="44.95515">
        <ele>1945.31144</ele>
        <time>2021-08-13T03:56:42.019Z</time>
      </trkpt>
      <trkpt lat="40.62522" lon="44.95523">
        <ele>1945.497598</ele>
        <time>2021-08-13T03:56:45.241Z</time>
      </trkpt>
      <trkpt lat="40.62555" lon="44.95532">
        <ele>1946.549214</ele>
        <time>2021-08-13T03:57:01.300Z</time>
      </trkpt>
      <trkpt lat="40.62551" lon="44.95587">
        <ele>1947.999126</ele>
        <time>2021-08-13T03:57:23.757Z</time>
      </trkpt>
      <trkpt lat="40.62577" lon="44.95706">
        <ele>1951.709816</ele>
        <time>2021-08-13T03:58:14.711Z</time>
      </trkpt>
      <trkpt lat="40.62607" lon="44.95732">
        <ele>1953.126039</ele>
        <time>2021-08-13T03:58:34.990Z</time>
      </trkpt>
      <trkpt lat="40.62626" lon="44.95761">
        <ele>1954.301126</ele>
        <time>2021-08-13T03:58:52.199Z</time>
      </trkpt>
      <trkpt lat="40.62682" lon="44.95793">
        <ele>1956.160641</ele>
        <time>2021-08-13T03:59:26.040Z</time>
      </trkpt>
      <trkpt lat="40.62757" lon="44.95808">
        <ele>1958.422332</ele>
        <time>2021-08-13T04:00:04.385Z</time>
      </trkpt>
      <trkpt lat="40.62752" lon="44.95816">
        <ele>1958.666311</ele>
        <time>2021-08-13T04:00:08.116Z</time>
      </trkpt>
      <trkpt lat="40.62745" lon="44.95904">
        <ele>1959.876537</ele>
        <time>2021-08-13T04:00:34.530Z</time>
      </trkpt>
      <trkpt lat="40.62744" lon="44.96008">
        <ele>1960.070695</ele>
        <time>2021-08-13T04:01:01.104Z</time>
      </trkpt>
      <trkpt lat="40.62745" lon="44.96032">
        <ele>1960.115053</ele>
        <time>2021-08-13T04:01:06.535Z</time>
      </trkpt>
      <trkpt lat="40.62743" lon="44.96057">
        <ele>1960.161339</ele>
        <time>2021-08-13T04:01:12.164Z</time>
      </trkpt>
      <trkpt lat="40.62743" lon="44.96089">
        <ele>1960.220848</ele>
        <time>2021-08-13T04:01:19.474Z</time>
      </trkpt>
      <trkpt lat="40.62757" lon="44.96107">
        <ele>1960.219309</ele>
        <time>2021-08-13T04:01:25.345Z</time>
      </trkpt>
      <trkpt lat="40.62763" lon="44.96124">
        <ele>1960.174191</ele>
        <time>2021-08-13T04:01:29.789Z</time>
      </trkpt>
      <trkpt lat="40.6277" lon="44.96285">
        <ele>1959.793055</ele>
        <time>2021-08-13T04:02:10.573Z</time>
      </trkpt>
      <trkpt lat="40.62846" lon="44.96299">
        <ele>1958.072638</ele>
        <time>2021-08-13T04:02:31.911Z</time>
      </trkpt>
      <trkpt lat="40.62854" lon="44.96303">
        <ele>1957.75168</ele>
        <time>2021-08-13T04:02:33.927Z</time>
      </trkpt>
      <trkpt lat="40.62857" lon="44.96318">
        <ele>1957.306102</ele>
        <time>2021-08-13T04:02:36.755Z</time>
      </trkpt>
      <trkpt lat="40.62859" lon="44.96327">
        <ele>1957.025801</ele>
        <time>2021-08-13T04:02:39.790Z</time>
      </trkpt>
      <trkpt lat="40.62839" lon="44.96337">
        <ele>1956.234928</ele>
        <time>2021-08-13T04:02:44.236Z</time>
      </trkpt>
      <trkpt lat="40.62814" lon="44.9635">
        <ele>1955.175114</ele>
        <time>2021-08-13T04:02:50.428Z</time>
      </trkpt>
      <trkpt lat="40.62791" lon="44.96361">
        <ele>1954.241308</ele>
        <time>2021-08-13T04:02:55.640Z</time>
      </trkpt>
      <trkpt lat="40.62782" lon="44.96366">
        <ele>1953.903532</ele>
        <time>2021-08-13T04:02:57.420Z</time>
      </trkpt>
      <trkpt lat="40.62768" lon="44.96372">
        <ele>1953.332472</ele>
        <time>2021-08-13T04:03:00.358Z</time>
      </trkpt>
      <trkpt lat="40.62748" lon="44.96384">
        <ele>1952.117263</ele>
        <time>2021-08-13T04:03:04.963Z</time>
      </trkpt>
      <trkpt lat="40.62729" lon="44.96396">
        <ele>1950.492796</ele>
        <time>2021-08-13T04:03:09.101Z</time>
      </trkpt>
      <trkpt lat="40.6272" lon="44.96402">
        <ele>1949.677073</ele>
        <time>2021-08-13T04:03:11.215Z</time>
      </trkpt>
      <trkpt lat="40.62701" lon="44.96414">
        <ele>1948.048226</ele>
        <time>2021-08-13T04:03:15.255Z</time>
      </trkpt>
      <trkpt lat="40.62678" lon="44.96431">
        <ele>1946.034912</ele>
        <time>2021-08-13T04:03:20.292Z</time>
      </trkpt>
      <trkpt lat="40.62664" lon="44.96441">
        <ele>1944.763544</ele>
        <time>2021-08-13T04:03:23.434Z</time>
      </trkpt>
      <trkpt lat="40.6264" lon="44.96458">
        <ele>1942.63957</ele>
        <time>2021-08-13T04:03:28.761Z</time>
      </trkpt>
      <trkpt lat="40.62625" lon="44.96468">
        <ele>1941.382003</ele>
        <time>2021-08-13T04:03:31.948Z</time>
      </trkpt>
      <trkpt lat="40.62587" lon="44.96494">
        <ele>1938.295435</ele>
        <time>2021-08-13T04:03:40.446Z</time>
      </trkpt>
      <trkpt lat="40.62572" lon="44.96505">
        <ele>1937.425817</ele>
        <time>2021-08-13T04:03:43.764Z</time>
      </trkpt>
      <trkpt lat="40.62566" lon="44.96509">
        <ele>1937.062165</ele>
        <time>2021-08-13T04:03:45.194Z</time>
      </trkpt>
      <trkpt lat="40.6253" lon="44.96531">
        <ele>1935.060495</ele>
        <time>2021-08-13T04:03:53.167Z</time>
      </trkpt>
      <trkpt lat="40.62494" lon="44.96559">
        <ele>1932.924096</ele>
        <time>2021-08-13T04:04:02.117Z</time>
      </trkpt>
      <trkpt lat="40.6248" lon="44.96572">
        <ele>1932.048077</ele>
        <time>2021-08-13T04:04:05.840Z</time>
      </trkpt>
      <trkpt lat="40.62514" lon="44.96634">
        <ele>1929.583193</ele>
        <time>2021-08-13T04:04:19.812Z</time>
      </trkpt>
      <trkpt lat="40.63062" lon="44.97571">
        <ele>1923.195546</ele>
        <time>2021-08-13T04:08:46.857Z</time>
      </trkpt>
      <trkpt lat="40.63074" lon="44.97596">
        <ele>1922.765237</ele>
        <time>2021-08-13T04:08:53.136Z</time>
      </trkpt>
      <trkpt lat="40.63063" lon="44.97609">
        <ele>1922.480403</ele>
        <time>2021-08-13T04:08:59.397Z</time>
      </trkpt>
      <trkpt lat="40.63045" lon="44.97634">
        <ele>1921.967929</ele>
        <time>2021-08-13T04:09:11.429Z</time>
      </trkpt>
      <trkpt lat="40.6304" lon="44.97652">
        <ele>1921.683216</ele>
        <time>2021-08-13T04:09:17.730Z</time>
      </trkpt>
      <trkpt lat="40.63076" lon="44.97714">
        <ele>1920.53938</ele>
        <time>2021-08-13T04:09:43.268Z</time>
      </trkpt>
      <trkpt lat="40.63084" lon="44.97731">
        <ele>1920.241802</ele>
        <time>2021-08-13T04:09:49.664Z</time>
      </trkpt>
      <trkpt lat="40.63088" lon="44.97758">
        <ele>1919.792328</ele>
        <time>2021-08-13T04:09:58.710Z</time>
      </trkpt>
      <trkpt lat="40.63117" lon="44.97791">
        <ele>1918.61701</ele>
        <time>2021-08-13T04:10:14.679Z</time>
      </trkpt>
      <trkpt lat="40.63134" lon="44.97819">
        <ele>1917.768901</ele>
        <time>2021-08-13T04:10:26.253Z</time>
      </trkpt>
      <trkpt lat="40.63162" lon="44.97885">
        <ele>1915.984897</ele>
        <time>2021-08-13T04:10:49.816Z</time>
      </trkpt>
      <trkpt lat="40.63157" lon="44.97909">
        <ele>1915.404743</ele>
        <time>2021-08-13T04:10:57.627Z</time>
      </trkpt>
      <trkpt lat="40.63095" lon="44.97941">
        <ele>1913.663019</ele>
        <time>2021-08-13T04:11:25.056Z</time>
      </trkpt>
      <trkpt lat="40.63087" lon="44.9796">
        <ele>1913.320505</ele>
        <time>2021-08-13T04:11:31.910Z</time>
      </trkpt>
      <trkpt lat="40.63088" lon="44.97987">
        <ele>1912.90704</ele>
        <time>2021-08-13T04:11:40.966Z</time>
      </trkpt>
      <trkpt lat="40.63089" lon="44.98014">
        <ele>1912.487373</ele>
        <time>2021-08-13T04:11:49.652Z</time>
      </trkpt>
      <trkpt lat="40.63133" lon="44.98101">
        <ele>1910.869905</ele>
        <time>2021-08-13T04:12:10.454Z</time>
      </trkpt>
      <trkpt lat="40.63164" lon="44.98166">
        <ele>1910.539596</ele>
        <time>2021-08-13T04:12:26.078Z</time>
      </trkpt>
      <trkpt lat="40.63187" lon="44.98223">
        <ele>1910.438364</ele>
        <time>2021-08-13T04:12:41.550Z</time>
      </trkpt>
      <trkpt lat="40.63201" lon="44.98268">
        <ele>1910.362215</ele>
        <time>2021-08-13T04:12:53.680Z</time>
      </trkpt>
      <trkpt lat="40.63217" lon="44.98334">
        <ele>1910.295101</ele>
        <time>2021-08-13T04:13:10.881Z</time>
      </trkpt>
      <trkpt lat="40.63238" lon="44.98493">
        <ele>1910.941416</ele>
        <time>2021-08-13T04:13:49.962Z</time>
      </trkpt>
      <trkpt lat="40.63244" lon="44.98536">
        <ele>1911.114393</ele>
        <time>2021-08-13T04:14:02.111Z</time>
      </trkpt>
      <trkpt lat="40.63255" lon="44.986">
        <ele>1911.782376</ele>
        <time>2021-08-13T04:14:21.500Z</time>
      </trkpt>
      <trkpt lat="40.63261" lon="44.98661">
        <ele>1912.625769</ele>
        <time>2021-08-13T04:14:41.277Z</time>
      </trkpt>
      <trkpt lat="40.63259" lon="44.98697">
        <ele>1913.119495</ele>
        <time>2021-08-13T04:14:52.884Z</time>
      </trkpt>
      <trkpt lat="40.63248" lon="44.98763">
        <ele>1914.060979</ele>
        <time>2021-08-13T04:15:15.395Z</time>
      </trkpt>
      <trkpt lat="40.63238" lon="44.98809">
        <ele>1914.647778</ele>
        <time>2021-08-13T04:15:30.971Z</time>
      </trkpt>
      <trkpt lat="40.63176" lon="44.99043">
        <ele>1916.858069</ele>
        <time>2021-08-13T04:16:43.855Z</time>
      </trkpt>
      <trkpt lat="40.63092" lon="44.9937">
        <ele>1916.217102</ele>
        <time>2021-08-13T04:17:59.955Z</time>
      </trkpt>
      <trkpt lat="40.63086" lon="44.99419">
        <ele>1916.049987</ele>
        <time>2021-08-13T04:18:10.774Z</time>
      </trkpt>
      <trkpt lat="40.63066" lon="44.99684">
        <ele>1915.149923</ele>
        <time>2021-08-13T04:19:10.072Z</time>
      </trkpt>
      <trkpt lat="40.63055" lon="44.99744">
        <ele>1914.756563</ele>
        <time>2021-08-13T04:19:23.352Z</time>
      </trkpt>
      <trkpt lat="40.63002" lon="44.99911">
        <ele>1913.291974</ele>
        <time>2021-08-13T04:19:59.360Z</time>
      </trkpt>
      <trkpt lat="40.62962" lon="44.99987">
        <ele>1913.095218</ele>
        <time>2021-08-13T04:20:19.060Z</time>
      </trkpt>
      <trkpt lat="40.62942" lon="45.00014">
        <ele>1913.060834</ele>
        <time>2021-08-13T04:20:27.328Z</time>
      </trkpt>
      <trkpt lat="40.62897" lon="45.00083">
        <ele>1912.97872</ele>
        <time>2021-08-13T04:20:49.462Z</time>
      </trkpt>
      <trkpt lat="40.62843" lon="45.00181">
        <ele>1913.52101</ele>
        <time>2021-08-13T04:21:22.534Z</time>
      </trkpt>
      <trkpt lat="40.62813" lon="45.00276">
        <ele>1914.184951</ele>
        <time>2021-08-13T04:21:52.616Z</time>
      </trkpt>
      <trkpt lat="40.62776" lon="45.00421">
        <ele>1914.797534</ele>
        <time>2021-08-13T04:22:31.298Z</time>
      </trkpt>
      <trkpt lat="40.62748" lon="45.00525">
        <ele>1915.1325</ele>
        <time>2021-08-13T04:22:58.923Z</time>
      </trkpt>
      <trkpt lat="40.62738" lon="45.00563">
        <ele>1915.281885</ele>
        <time>2021-08-13T04:23:08.943Z</time>
      </trkpt>
      <trkpt lat="40.62725" lon="45.0061">
        <ele>1915.500347</ele>
        <time>2021-08-13T04:23:21.575Z</time>
      </trkpt>
      <trkpt lat="40.62711" lon="45.00669">
        <ele>1915.774355</ele>
        <time>2021-08-13T04:23:37.709Z</time>
      </trkpt>
      <trkpt lat="40.62679" lon="45.00777">
        <ele>1916.298541</ele>
        <time>2021-08-13T04:24:08.044Z</time>
      </trkpt>
      <trkpt lat="40.62656" lon="45.00846">
        <ele>1916.737379</ele>
        <time>2021-08-13T04:24:29.872Z</time>
      </trkpt>
      <trkpt lat="40.62633" lon="45.009">
        <ele>1917.09325</ele>
        <time>2021-08-13T04:24:46.733Z</time>
      </trkpt>
      <trkpt lat="40.62609" lon="45.00952">
        <ele>1917.441317</ele>
        <time>2021-08-13T04:25:02.621Z</time>
      </trkpt>
      <trkpt lat="40.62582" lon="45.01004">
        <ele>1917.590796</ele>
        <time>2021-08-13T04:25:18.836Z</time>
      </trkpt>
      <trkpt lat="40.625" lon="45.01141">
        <ele>1917.562628</ele>
        <time>2021-08-13T04:25:59.850Z</time>
      </trkpt>
      <trkpt lat="40.62471" lon="45.01187">
        <ele>1917.690423</ele>
        <time>2021-08-13T04:26:11.971Z</time>
      </trkpt>
      <trkpt lat="40.62391" lon="45.01289">
        <ele>1918.277401</ele>
        <time>2021-08-13T04:26:49.241Z</time>
      </trkpt>
      <trkpt lat="40.62369" lon="45.01316">
        <ele>1918.43474</ele>
        <time>2021-08-13T04:27:01.078Z</time>
      </trkpt>
      <trkpt lat="40.62339" lon="45.01374">
        <ele>1919.030739</ele>
        <time>2021-08-13T04:27:23.350Z</time>
      </trkpt>
      <trkpt lat="40.62292" lon="45.01507">
        <ele>1920.481841</ele>
        <time>2021-08-13T04:28:07.167Z</time>
      </trkpt>
      <trkpt lat="40.62257" lon="45.01603">
        <ele>1920.667444</ele>
        <time>2021-08-13T04:28:35.204Z</time>
      </trkpt>
      <trkpt lat="40.62244" lon="45.01638">
        <ele>1920.570345</ele>
        <time>2021-08-13T04:28:43.817Z</time>
      </trkpt>
      <trkpt lat="40.62228" lon="45.01715">
        <ele>1920.365086</ele>
        <time>2021-08-13T04:29:00.181Z</time>
      </trkpt>
      <trkpt lat="40.62188" lon="45.0215">
        <ele>1918.372353</ele>
        <time>2021-08-13T04:30:32.564Z</time>
      </trkpt>
      <trkpt lat="40.62174" lon="45.02281">
        <ele>1918.2958</ele>
        <time>2021-08-13T04:31:05.333Z</time>
      </trkpt>
      <trkpt lat="40.62163" lon="45.02372">
        <ele>1918.612993</ele>
        <time>2021-08-13T04:31:29.570Z</time>
      </trkpt>
      <trkpt lat="40.62141" lon="45.02479">
        <ele>1918.957071</ele>
        <time>2021-08-13T04:31:58.658Z</time>
      </trkpt>
      <trkpt lat="40.62012" lon="45.02927">
        <ele>1919.277858</ele>
        <time>2021-08-13T04:33:53.165Z</time>
      </trkpt>
      <trkpt lat="40.61979" lon="45.03027">
        <ele>1919.248318</ele>
        <time>2021-08-13T04:34:19.230Z</time>
      </trkpt>
      <trkpt lat="40.61952" lon="45.03084">
        <ele>1919.229978</ele>
        <time>2021-08-13T04:34:34.579Z</time>
      </trkpt>
      <trkpt lat="40.6193" lon="45.03128">
        <ele>1919.241412</ele>
        <time>2021-08-13T04:34:46.862Z</time>
      </trkpt>
      <trkpt lat="40.61911" lon="45.03165">
        <ele>1919.328647</ele>
        <time>2021-08-13T04:34:57.477Z</time>
      </trkpt>
      <trkpt lat="40.61886" lon="45.03208">
        <ele>1919.436847</ele>
        <time>2021-08-13T04:35:10.542Z</time>
      </trkpt>
      <trkpt lat="40.6183" lon="45.033">
        <ele>1919.668308</ele>
        <time>2021-08-13T04:35:39.423Z</time>
      </trkpt>
      <trkpt lat="40.6151" lon="45.0379">
        <ele>1924.340558</ele>
        <time>2021-08-13T04:38:39.058Z</time>
      </trkpt>
      <trkpt lat="40.61488" lon="45.03827">
        <ele>1924.723432</ele>
        <time>2021-08-13T04:38:52.690Z</time>
      </trkpt>
      <trkpt lat="40.61472" lon="45.03863">
        <ele>1925.060859</ele>
        <time>2021-08-13T04:39:04.819Z</time>
      </trkpt>
      <trkpt lat="40.61457" lon="45.03907">
        <ele>1925.458102</ele>
        <time>2021-08-13T04:39:19.265Z</time>
      </trkpt>
      <trkpt lat="40.61399" lon="45.04093">
        <ele>1926.897044</ele>
        <time>2021-08-13T04:40:16.673Z</time>
      </trkpt>
      <trkpt lat="40.61278" lon="45.04477">
        <ele>1926.171754</ele>
        <time>2021-08-13T04:41:51.591Z</time>
      </trkpt>
      <trkpt lat="40.61241" lon="45.04583">
        <ele>1924.745245</ele>
        <time>2021-08-13T04:42:14.182Z</time>
      </trkpt>
      <trkpt lat="40.61218" lon="45.04669">
        <ele>1923.353783</ele>
        <time>2021-08-13T04:42:31.159Z</time>
      </trkpt>
      <trkpt lat="40.612" lon="45.04786">
        <ele>1921.118104</ele>
        <time>2021-08-13T04:42:52.461Z</time>
      </trkpt>
      <trkpt lat="40.61192" lon="45.04852">
        <ele>1919.628993</ele>
        <time>2021-08-13T04:43:04.151Z</time>
      </trkpt>
      <trkpt lat="40.61183" lon="45.04916">
        <ele>1918.19407</ele>
        <time>2021-08-13T04:43:15.420Z</time>
      </trkpt>
      <trkpt lat="40.61177" lon="45.04951">
        <ele>1917.397894</ele>
        <time>2021-08-13T04:43:21.638Z</time>
      </trkpt>
      <trkpt lat="40.61172" lon="45.04984">
        <ele>1916.754457</ele>
        <time>2021-08-13T04:43:27.477Z</time>
      </trkpt>
      <trkpt lat="40.61147" lon="45.05157">
        <ele>1913.611654</ele>
        <time>2021-08-13T04:43:59.183Z</time>
      </trkpt>
      <trkpt lat="40.61094" lon="45.05492">
        <ele>1910.778029</ele>
        <time>2021-08-13T04:45:09.331Z</time>
      </trkpt>
      <trkpt lat="40.61093" lon="45.05559">
        <ele>1910.666837</ele>
        <time>2021-08-13T04:45:23.989Z</time>
      </trkpt>
      <trkpt lat="40.61103" lon="45.05718">
        <ele>1911.267873</ele>
        <time>2021-08-13T04:46:04.750Z</time>
      </trkpt>
      <trkpt lat="40.61111" lon="45.05819">
        <ele>1912.607532</ele>
        <time>2021-08-13T04:46:36.676Z</time>
      </trkpt>
      <trkpt lat="40.6111" lon="45.05859">
        <ele>1913.132285</ele>
        <time>2021-08-13T04:46:50.334Z</time>
      </trkpt>
      <trkpt lat="40.61107" lon="45.05899">
        <ele>1913.680772</ele>
        <time>2021-08-13T04:47:04.431Z</time>
      </trkpt>
      <trkpt lat="40.61095" lon="45.05952">
        <ele>1914.672333</ele>
        <time>2021-08-13T04:47:24.337Z</time>
      </trkpt>
      <trkpt lat="40.6106" lon="45.06031">
        <ele>1916.348222</ele>
        <time>2021-08-13T04:47:57.710Z</time>
      </trkpt>
      <trkpt lat="40.6104" lon="45.06059">
        <ele>1917.040571</ele>
        <time>2021-08-13T04:48:10.291Z</time>
      </trkpt>
      <trkpt lat="40.61002" lon="45.06103">
        <ele>1917.993301</ele>
        <time>2021-08-13T04:48:31.552Z</time>
      </trkpt>
      <trkpt lat="40.60785" lon="45.06313">
        <ele>1917.876152</ele>
        <time>2021-08-13T04:49:58.746Z</time>
      </trkpt>
      <trkpt lat="40.60626" lon="45.06507">
        <ele>1913.575234</ele>
        <time>2021-08-13T04:50:50.076Z</time>
      </trkpt>
      <trkpt lat="40.60598" lon="45.06554">
        <ele>1912.454059</ele>
        <time>2021-08-13T04:51:00.883Z</time>
      </trkpt>
      <trkpt lat="40.60568" lon="45.0663">
        <ele>1911.426251</ele>
        <time>2021-08-13T04:51:16.402Z</time>
      </trkpt>
      <trkpt lat="40.60559" lon="45.06667">
        <ele>1910.953493</ele>
        <time>2021-08-13T04:51:23.761Z</time>
      </trkpt>
      <trkpt lat="40.60557" lon="45.06752">
        <ele>1909.922456</ele>
        <time>2021-08-13T04:51:40.421Z</time>
      </trkpt>
      <trkpt lat="40.60552" lon="45.06945">
        <ele>1910.831234</ele>
        <time>2021-08-13T04:52:30.716Z</time>
      </trkpt>
      <trkpt lat="40.60548" lon="45.07019">
        <ele>1911.410662</ele>
        <time>2021-08-13T04:52:54.869Z</time>
      </trkpt>
      <trkpt lat="40.60541" lon="45.07063">
        <ele>1912.113528</ele>
        <time>2021-08-13T04:53:10.174Z</time>
      </trkpt>
      <trkpt lat="40.60527" lon="45.07126">
        <ele>1913.129099</ele>
        <time>2021-08-13T04:53:32.509Z</time>
      </trkpt>
      <trkpt lat="40.60509" lon="45.07183">
        <ele>1914.096079</ele>
        <time>2021-08-13T04:53:54.257Z</time>
      </trkpt>
      <trkpt lat="40.60485" lon="45.07225">
        <ele>1914.903322</ele>
        <time>2021-08-13T04:54:10.954Z</time>
      </trkpt>
      <trkpt lat="40.60414" lon="45.0733">
        <ele>1914.643478</ele>
        <time>2021-08-13T04:54:44.875Z</time>
      </trkpt>
      <trkpt lat="40.60381" lon="45.07369">
        <ele>1914.522261</ele>
        <time>2021-08-13T04:54:57.180Z</time>
      </trkpt>
      <trkpt lat="40.60367" lon="45.07395">
        <ele>1914.457308</ele>
        <time>2021-08-13T04:55:03.150Z</time>
      </trkpt>
      <trkpt lat="40.60356" lon="45.07425">
        <ele>1914.087022</ele>
        <time>2021-08-13T04:55:09.588Z</time>
      </trkpt>
      <trkpt lat="40.60343" lon="45.07467">
        <ele>1913.445947</ele>
        <time>2021-08-13T04:55:18.176Z</time>
      </trkpt>
      <trkpt lat="40.60335" lon="45.07541">
        <ele>1912.413828</ele>
        <time>2021-08-13T04:55:31.670Z</time>
      </trkpt>
      <trkpt lat="40.6033" lon="45.07623">
        <ele>1911.266883</ele>
        <time>2021-08-13T04:55:47.143Z</time>
      </trkpt>
      <trkpt lat="40.60318" lon="45.07773">
        <ele>1910.898537</ele>
        <time>2021-08-13T04:56:19.500Z</time>
      </trkpt>
      <trkpt lat="40.60314" lon="45.07811">
        <ele>1910.83163</ele>
        <time>2021-08-13T04:56:29.130Z</time>
      </trkpt>
      <trkpt lat="40.60309" lon="45.07984">
        <ele>1911.614358</ele>
        <time>2021-08-13T04:57:16.934Z</time>
      </trkpt>
      <trkpt lat="40.60301" lon="45.08035">
        <ele>1912.011696</ele>
        <time>2021-08-13T04:57:32.138Z</time>
      </trkpt>
      <trkpt lat="40.60286" lon="45.081">
        <ele>1912.525381</ele>
        <time>2021-08-13T04:57:51.316Z</time>
      </trkpt>
      <trkpt lat="40.60254" lon="45.08233">
        <ele>1913.716823</ele>
        <time>2021-08-13T04:58:30.653Z</time>
      </trkpt>
      <trkpt lat="40.60237" lon="45.08263">
        <ele>1914.034489</ele>
        <time>2021-08-13T04:58:41.290Z</time>
      </trkpt>
      <trkpt lat="40.60103" lon="45.08433">
        <ele>1916.295391</ele>
        <time>2021-08-13T04:59:51.632Z</time>
      </trkpt>
      <trkpt lat="40.60043" lon="45.08502">
        <ele>1917.462783</ele>
        <time>2021-08-13T05:00:22.656Z</time>
      </trkpt>
      <trkpt lat="40.5995" lon="45.0866">
        <ele>1919.902998</ele>
        <time>2021-08-13T05:01:25.378Z</time>
      </trkpt>
      <trkpt lat="40.59893" lon="45.08757">
        <ele>1920.681078</ele>
        <time>2021-08-13T05:02:01.806Z</time>
      </trkpt>
      <trkpt lat="40.5987" lon="45.08814">
        <ele>1921.093201</ele>
        <time>2021-08-13T05:02:18.770Z</time>
      </trkpt>
      <trkpt lat="40.59865" lon="45.08827">
        <ele>1921.185077</ele>
        <time>2021-08-13T05:02:22.174Z</time>
      </trkpt>
      <trkpt lat="40.59834" lon="45.08926">
        <ele>1920.147453</ele>
        <time>2021-08-13T05:02:44.307Z</time>
      </trkpt>
      <trkpt lat="40.59815" lon="45.09011">
        <ele>1918.990925</ele>
        <time>2021-08-13T05:03:00.326Z</time>
      </trkpt>
      <trkpt lat="40.59792" lon="45.09154">
        <ele>1917.174747</ele>
        <time>2021-08-13T05:03:26.917Z</time>
      </trkpt>
      <trkpt lat="40.59776" lon="45.09252">
        <ele>1915.986782</ele>
        <time>2021-08-13T05:03:46.444Z</time>
      </trkpt>
      <trkpt lat="40.59761" lon="45.09351">
        <ele>1915.393458</ele>
        <time>2021-08-13T05:04:08.809Z</time>
      </trkpt>
      <trkpt lat="40.5975" lon="45.0942">
        <ele>1915.415292</ele>
        <time>2021-08-13T05:04:26.243Z</time>
      </trkpt>
      <trkpt lat="40.59729" lon="45.09502">
        <ele>1915.442417</ele>
        <time>2021-08-13T05:04:47.868Z</time>
      </trkpt>
      <trkpt lat="40.59386" lon="45.10261">
        <ele>1917.047507</ele>
        <time>2021-08-13T05:08:26.323Z</time>
      </trkpt>
      <trkpt lat="40.5928" lon="45.10403">
        <ele>1917.39143</ele>
        <time>2021-08-13T05:09:14.943Z</time>
      </trkpt>
      <trkpt lat="40.59159" lon="45.10571">
        <ele>1917.556504</ele>
        <time>2021-08-13T05:10:12.547Z</time>
      </trkpt>
      <trkpt lat="40.59068" lon="45.10691">
        <ele>1916.971559</ele>
        <time>2021-08-13T05:10:51.413Z</time>
      </trkpt>
      <trkpt lat="40.5899" lon="45.10799">
        <ele>1914.800301</ele>
        <time>2021-08-13T05:11:19.170Z</time>
      </trkpt>
      <trkpt lat="40.58949" lon="45.10887">
        <ele>1913.251613</ele>
        <time>2021-08-13T05:11:37.254Z</time>
      </trkpt>
      <trkpt lat="40.58894" lon="45.1099">
        <ele>1911.322087</ele>
        <time>2021-08-13T05:12:00.038Z</time>
      </trkpt>
      <trkpt lat="40.58846" lon="45.11099">
        <ele>1910.384592</ele>
        <time>2021-08-13T05:12:27.107Z</time>
      </trkpt>
      <trkpt lat="40.58815" lon="45.11166">
        <ele>1910.432912</ele>
        <time>2021-08-13T05:12:47.057Z</time>
      </trkpt>
      <trkpt lat="40.5874" lon="45.11329">
        <ele>1910.383002</ele>
        <time>2021-08-13T05:13:35.872Z</time>
      </trkpt>
      <trkpt lat="40.58597" lon="45.117">
        <ele>1909.427771</ele>
        <time>2021-08-13T05:15:06.177Z</time>
      </trkpt>
      <trkpt lat="40.58556" lon="45.11808">
        <ele>1909.737454</ele>
        <time>2021-08-13T05:15:36.154Z</time>
      </trkpt>
      <trkpt lat="40.58507" lon="45.11949">
        <ele>1910.638223</ele>
        <time>2021-08-13T05:16:19.675Z</time>
      </trkpt>
      <trkpt lat="40.58462" lon="45.12034">
        <ele>1911.582586</ele>
        <time>2021-08-13T05:16:50.100Z</time>
      </trkpt>
      <trkpt lat="40.58418" lon="45.12093">
        <ele>1912.295114</ele>
        <time>2021-08-13T05:17:14.378Z</time>
      </trkpt>
      <trkpt lat="40.58285" lon="45.12268">
        <ele>1914.162506</ele>
        <time>2021-08-13T05:18:23.296Z</time>
      </trkpt>
      <trkpt lat="40.58249" lon="45.12313">
        <ele>1914.595608</ele>
        <time>2021-08-13T05:18:40.925Z</time>
      </trkpt>
      <trkpt lat="40.58114" lon="45.12499">
        <ele>1916.029876</ele>
        <time>2021-08-13T05:19:51.062Z</time>
      </trkpt>
      <trkpt lat="40.58065" lon="45.12552">
        <ele>1916.398046</ele>
        <time>2021-08-13T05:20:12.887Z</time>
      </trkpt>
      <trkpt lat="40.57746" lon="45.1297">
        <ele>1915.309782</ele>
        <time>2021-08-13T05:22:27.418Z</time>
      </trkpt>
      <trkpt lat="40.57703" lon="45.13037">
        <ele>1914.870732</ele>
        <time>2021-08-13T05:22:45.466Z</time>
      </trkpt>
      <trkpt lat="40.57676" lon="45.13075">
        <ele>1914.607495</ele>
        <time>2021-08-13T05:22:56.353Z</time>
      </trkpt>
      <trkpt lat="40.5764" lon="45.13128">
        <ele>1914.464174</ele>
        <time>2021-08-13T05:23:11.255Z</time>
      </trkpt>
      <trkpt lat="40.57353" lon="45.13578">
        <ele>1913.734377</ele>
        <time>2021-08-13T05:25:28.337Z</time>
      </trkpt>
      <trkpt lat="40.5706" lon="45.14224">
        <ele>1913.986272</ele>
        <time>2021-08-13T05:28:26.452Z</time>
      </trkpt>
      <trkpt lat="40.57027" lon="45.14319">
        <ele>1914.760392</ele>
        <time>2021-08-13T05:28:55.872Z</time>
      </trkpt>
      <trkpt lat="40.56936" lon="45.14662">
        <ele>1918.104286</ele>
        <time>2021-08-13T05:30:42.948Z</time>
      </trkpt>
      <trkpt lat="40.56867" lon="45.14981">
        <ele>1919.30743</ele>
        <time>2021-08-13T05:32:11.895Z</time>
      </trkpt>
      <trkpt lat="40.56867" lon="45.14981">
        <ele>1919.30743</ele>
        <time>2021-08-13T05:32:11.929Z</time>
      </trkpt>
      <trkpt lat="40.56867" lon="45.14981">
        <ele>1919.30743</ele>
        <time>2021-08-13T05:32:12.236Z</time>
      </trkpt>
      <trkpt lat="40.5681" lon="45.15232">
        <ele>1917.352997</ele>
        <time>2021-08-13T05:33:04.583Z</time>
      </trkpt>
      <trkpt lat="40.56788" lon="45.15367">
        <ele>1915.693004</ele>
        <time>2021-08-13T05:33:30.929Z</time>
      </trkpt>
      <trkpt lat="40.56774" lon="45.1559">
        <ele>1912.700988</ele>
        <time>2021-08-13T05:34:13.444Z</time>
      </trkpt>
      <trkpt lat="40.56769" lon="45.15651">
        <ele>1912.190337</ele>
        <time>2021-08-13T05:34:25.390Z</time>
      </trkpt>
      <trkpt lat="40.56766" lon="45.15694">
        <ele>1911.910163</ele>
        <time>2021-08-13T05:34:33.947Z</time>
      </trkpt>
      <trkpt lat="40.56732" lon="45.16185">
        <ele>1910.312661</ele>
        <time>2021-08-13T05:36:23.183Z</time>
      </trkpt>
      <trkpt lat="40.56707" lon="45.16536">
        <ele>1911.393196</ele>
        <time>2021-08-13T05:37:54.897Z</time>
      </trkpt>
      <trkpt lat="40.56698" lon="45.16654">
        <ele>1911.463178</ele>
        <time>2021-08-13T05:38:27.712Z</time>
      </trkpt>
      <trkpt lat="40.56672" lon="45.17149">
        <ele>1912.512604</ele>
        <time>2021-08-13T05:40:21.016Z</time>
      </trkpt>
      <trkpt lat="40.56665" lon="45.1722">
        <ele>1913.077173</ele>
        <time>2021-08-13T05:40:45.668Z</time>
      </trkpt>
      <trkpt lat="40.56648" lon="45.17304">
        <ele>1913.690568</ele>
        <time>2021-08-13T05:41:15.190Z</time>
      </trkpt>
      <trkpt lat="40.56633" lon="45.1735">
        <ele>1914.013728</ele>
        <time>2021-08-13T05:41:32.648Z</time>
      </trkpt>
      <trkpt lat="40.56476" lon="45.17769">
        <ele>1913.926693</ele>
        <time>2021-08-13T05:43:16.651Z</time>
      </trkpt>
      <trkpt lat="40.56409" lon="45.17888">
        <ele>1913.565958</ele>
        <time>2021-08-13T05:43:48.635Z</time>
      </trkpt>
      <trkpt lat="40.56206" lon="45.1819">
        <ele>1915.770643</ele>
        <time>2021-08-13T05:45:39.684Z</time>
      </trkpt>
      <trkpt lat="40.56155" lon="45.18275">
        <ele>1916.242355</ele>
        <time>2021-08-13T05:46:07.216Z</time>
      </trkpt>
      <trkpt lat="40.56079" lon="45.18416">
        <ele>1916.665208</ele>
        <time>2021-08-13T05:46:49.049Z</time>
      </trkpt>
      <trkpt lat="40.55895" lon="45.18768">
        <ele>1918.686134</ele>
        <time>2021-08-13T05:48:44.286Z</time>
      </trkpt>
      <trkpt lat="40.55838" lon="45.18881">
        <ele>1918.884316</ele>
        <time>2021-08-13T05:49:16.265Z</time>
      </trkpt>
      <trkpt lat="40.55788" lon="45.18992">
        <ele>1918.749731</ele>
        <time>2021-08-13T05:49:45.158Z</time>
      </trkpt>
      <trkpt lat="40.55599" lon="45.19404">
        <ele>1918.050486</ele>
        <time>2021-08-13T05:51:38.064Z</time>
      </trkpt>
      <trkpt lat="40.55527" lon="45.19573">
        <ele>1916.132621</ele>
        <time>2021-08-13T05:52:16.120Z</time>
      </trkpt>
      <trkpt lat="40.55497" lon="45.19638">
        <ele>1915.291028</ele>
        <time>2021-08-13T05:52:30.003Z</time>
      </trkpt>
      <trkpt lat="40.55441" lon="45.19779">
        <ele>1914.678991</ele>
        <time>2021-08-13T05:53:02.997Z</time>
      </trkpt>
      <trkpt lat="40.55396" lon="45.19901">
        <ele>1914.946946</ele>
        <time>2021-08-13T05:53:39.166Z</time>
      </trkpt>
      <trkpt lat="40.55317" lon="45.20095">
        <ele>1916.851522</ele>
        <time>2021-08-13T05:54:45.880Z</time>
      </trkpt>
      <trkpt lat="40.55302" lon="45.20124">
        <ele>1917.046267</ele>
        <time>2021-08-13T05:54:55.250Z</time>
      </trkpt>
      <trkpt lat="40.55171" lon="45.20365">
        <ele>1918.691208</ele>
        <time>2021-08-13T05:56:10.934Z</time>
      </trkpt>
      <trkpt lat="40.55042" lon="45.20565">
        <ele>1920.326686</ele>
        <time>2021-08-13T05:57:25.485Z</time>
      </trkpt>
      <trkpt lat="40.5503" lon="45.20578">
        <ele>1920.463777</ele>
        <time>2021-08-13T05:57:31.433Z</time>
      </trkpt>
      <trkpt lat="40.54852" lon="45.20775">
        <ele>1921.37198</ele>
        <time>2021-08-13T05:58:46.529Z</time>
      </trkpt>
      <trkpt lat="40.5478" lon="45.20857">
        <ele>1921.733154</ele>
        <time>2021-08-13T05:59:19.243Z</time>
      </trkpt>
      <trkpt lat="40.54784" lon="45.20889">
        <ele>1921.826258</ele>
        <time>2021-08-13T05:59:28.691Z</time>
      </trkpt>
      <trkpt lat="40.54724" lon="45.20991">
        <ele>1921.479534</ele>
        <time>2021-08-13T06:00:00.522Z</time>
      </trkpt>
      <trkpt lat="40.54705" lon="45.21004">
        <ele>1921.262413</ele>
        <time>2021-08-13T06:00:06.690Z</time>
      </trkpt>
      <trkpt lat="40.54677" lon="45.21007">
        <ele>1920.963347</ele>
        <time>2021-08-13T06:00:15.167Z</time>
      </trkpt>
      <trkpt lat="40.54661" lon="45.2099">
        <ele>1920.751802</ele>
        <time>2021-08-13T06:00:20.412Z</time>
      </trkpt>
      <trkpt lat="40.54644" lon="45.21009">
        <ele>1920.522065</ele>
        <time>2021-08-13T06:00:26.031Z</time>
      </trkpt>
      <trkpt lat="40.54602" lon="45.21059">
        <ele>1919.862345</ele>
        <time>2021-08-13T06:00:39.662Z</time>
      </trkpt>
      <trkpt lat="40.54569" lon="45.2111">
        <ele>1919.14876</ele>
        <time>2021-08-13T06:00:52.254Z</time>
      </trkpt>
      <trkpt lat="40.54526" lon="45.21183">
        <ele>1918.160995</ele>
        <time>2021-08-13T06:01:10.261Z</time>
      </trkpt>
      <trkpt lat="40.54512" lon="45.2121">
        <ele>1917.808096</ele>
        <time>2021-08-13T06:01:17.202Z</time>
      </trkpt>
      <trkpt lat="40.54497" lon="45.21238">
        <ele>1917.693746</ele>
        <time>2021-08-13T06:01:25.021Z</time>
      </trkpt>
      <trkpt lat="40.54478" lon="45.21275">
        <ele>1917.944703</ele>
        <time>2021-08-13T06:01:35.573Z</time>
      </trkpt>
      <trkpt lat="40.5447" lon="45.21292">
        <ele>1918.06167</ele>
        <time>2021-08-13T06:01:40.515Z</time>
      </trkpt>
      <trkpt lat="40.54425" lon="45.21378">
        <ele>1918.654693</ele>
        <time>2021-08-13T06:02:10.299Z</time>
      </trkpt>
      <trkpt lat="40.54377" lon="45.21457">
        <ele>1919.398574</ele>
        <time>2021-08-13T06:02:40.974Z</time>
      </trkpt>
      <trkpt lat="40.5432" lon="45.21515">
        <ele>1920.271279</ele>
        <time>2021-08-13T06:03:09.330Z</time>
      </trkpt>
      <trkpt lat="40.54097" lon="45.21658">
        <ele>1922.154617</ele>
        <time>2021-08-13T06:04:37.241Z</time>
      </trkpt>
      <trkpt lat="40.53914" lon="45.21765">
        <ele>1921.16966</ele>
        <time>2021-08-13T06:05:33.430Z</time>
      </trkpt>
      <trkpt lat="40.53874" lon="45.21788">
        <ele>1921.007715</ele>
        <time>2021-08-13T06:05:45.536Z</time>
      </trkpt>
      <trkpt lat="40.53647" lon="45.21925">
        <ele>1920.476025</ele>
        <time>2021-08-13T06:07:00.841Z</time>
      </trkpt>
      <trkpt lat="40.53469" lon="45.2204">
        <ele>1920.648259</ele>
        <time>2021-08-13T06:08:05.663Z</time>
      </trkpt>
      <trkpt lat="40.53428" lon="45.22073">
        <ele>1920.575969</ele>
        <time>2021-08-13T06:08:20.228Z</time>
      </trkpt>
      <trkpt lat="40.53409" lon="45.22091">
        <ele>1920.432562</ele>
        <time>2021-08-13T06:08:27.157Z</time>
      </trkpt>
      <trkpt lat="40.53269" lon="45.22206">
        <ele>1919.537243</ele>
        <time>2021-08-13T06:09:12.871Z</time>
      </trkpt>
      <trkpt lat="40.53237" lon="45.22251">
        <ele>1919.489539</ele>
        <time>2021-08-13T06:09:25.172Z</time>
      </trkpt>
      <trkpt lat="40.53004" lon="45.22842">
        <ele>1919.418311</ele>
        <time>2021-08-13T06:12:06.595Z</time>
      </trkpt>
      <trkpt lat="40.52945" lon="45.2299">
        <ele>1919.365217</ele>
        <time>2021-08-13T06:12:46.557Z</time>
      </trkpt>
      <trkpt lat="40.52781" lon="45.23408">
        <ele>1917.888929</ele>
        <time>2021-08-13T06:14:30.003Z</time>
      </trkpt>
      <trkpt lat="40.52492" lon="45.24145">
        <ele>1916.970802</ele>
        <time>2021-08-13T06:17:41.315Z</time>
      </trkpt>
      <trkpt lat="40.52421" lon="45.2428">
        <ele>1917.290771</ele>
        <time>2021-08-13T06:18:20.414Z</time>
      </trkpt>
      <trkpt lat="40.52312" lon="45.24409">
        <ele>1919.11849</ele>
        <time>2021-08-13T06:19:15.998Z</time>
      </trkpt>
      <trkpt lat="40.52286" lon="45.24438">
        <ele>1919.996163</ele>
        <time>2021-08-13T06:19:31.196Z</time>
      </trkpt>
      <trkpt lat="40.52304" lon="45.24471">
        <ele>1921.034639</ele>
        <time>2021-08-13T06:19:46.282Z</time>
      </trkpt>
      <trkpt lat="40.52317" lon="45.24499">
        <ele>1921.892063</ele>
        <time>2021-08-13T06:19:58.961Z</time>
      </trkpt>
      <trkpt lat="40.52317" lon="45.24514">
        <ele>1922.283179</ele>
        <time>2021-08-13T06:20:04.971Z</time>
      </trkpt>
      <trkpt lat="40.52311" lon="45.2453">
        <ele>1922.753323</ele>
        <time>2021-08-13T06:20:12.121Z</time>
      </trkpt>
      <trkpt lat="40.52233" lon="45.24615">
        <ele>1926.345494</ele>
        <time>2021-08-13T06:21:09.153Z</time>
      </trkpt>
      <trkpt lat="40.52207" lon="45.24657">
        <ele>1928.034051</ele>
        <time>2021-08-13T06:21:32.058Z</time>
      </trkpt>
      <trkpt lat="40.5219" lon="45.24703">
        <ele>1929.605317</ele>
        <time>2021-08-13T06:21:53.678Z</time>
      </trkpt>
      <trkpt lat="40.52158" lon="45.2486">
        <ele>1934.318629</ele>
        <time>2021-08-13T06:23:01.884Z</time>
      </trkpt>
      <trkpt lat="40.52091" lon="45.25022">
        <ele>1938.878021</ele>
        <time>2021-08-13T06:24:11.680Z</time>
      </trkpt>
      <trkpt lat="40.52037" lon="45.25181">
        <ele>1942.051592</ele>
        <time>2021-08-13T06:25:11.539Z</time>
      </trkpt>
      <trkpt lat="40.52023" lon="45.2532">
        <ele>1944.93176</ele>
        <time>2021-08-13T06:25:59.589Z</time>
      </trkpt>
      <trkpt lat="40.5199" lon="45.25457">
        <ele>1948.07397</ele>
        <time>2021-08-13T06:26:53.601Z</time>
      </trkpt>
      <trkpt lat="40.51975" lon="45.2559">
        <ele>1952.564527</ele>
        <time>2021-08-13T06:27:50.300Z</time>
      </trkpt>
      <trkpt lat="40.51939" lon="45.25797">
        <ele>1960.674848</ele>
        <time>2021-08-13T06:29:29.614Z</time>
      </trkpt>
      <trkpt lat="40.51932" lon="45.25972">
        <ele>1968.163354</ele>
        <time>2021-08-13T06:30:57.610Z</time>
      </trkpt>
      <trkpt lat="40.51927" lon="45.26027">
        <ele>1970.577244</ele>
        <time>2021-08-13T06:31:24.804Z</time>
      </trkpt>
      <trkpt lat="40.51908" lon="45.2608">
        <ele>1973.103139</ele>
        <time>2021-08-13T06:31:53.537Z</time>
      </trkpt>
      <trkpt lat="40.51866" lon="45.26198">
        <ele>1978.609498</ele>
        <time>2021-08-13T06:32:56.218Z</time>
      </trkpt>
      <trkpt lat="40.51738" lon="45.26501">
        <ele>1992.121569</ele>
        <time>2021-08-13T06:35:40.765Z</time>
      </trkpt>
      <trkpt lat="40.51639" lon="45.26708">
        <ele>1999.491034</ele>
        <time>2021-08-13T06:37:22.167Z</time>
      </trkpt>
      <trkpt lat="40.516" lon="45.26753">
        <ele>2001.314057</ele>
        <time>2021-08-13T06:37:47.451Z</time>
      </trkpt>
      <trkpt lat="40.51517" lon="45.26804">
        <ele>2002.473434</ele>
        <time>2021-08-13T06:38:28.617Z</time>
      </trkpt>
      <trkpt lat="40.51445" lon="45.26836">
        <ele>2003.42474</ele>
        <time>2021-08-13T06:38:56.880Z</time>
      </trkpt>
      <trkpt lat="40.51265" lon="45.26811">
        <ele>1999.605936</ele>
        <time>2021-08-13T06:39:41.886Z</time>
      </trkpt>
      <trkpt lat="40.51115" lon="45.26801">
        <ele>1990.615152</ele>
        <time>2021-08-13T06:40:12.371Z</time>
      </trkpt>
      <trkpt lat="40.5107" lon="45.26804">
        <ele>1987.766794</ele>
        <time>2021-08-13T06:40:21.164Z</time>
      </trkpt>
      <trkpt lat="40.51039" lon="45.26815">
        <ele>1985.490154</ele>
        <time>2021-08-13T06:40:27.379Z</time>
      </trkpt>
      <trkpt lat="40.50703" lon="45.27067">
        <ele>1958.298047</ele>
        <time>2021-08-13T06:41:44.743Z</time>
      </trkpt>
      <trkpt lat="40.50652" lon="45.271">
        <ele>1954.683468</ele>
        <time>2021-08-13T06:41:56.339Z</time>
      </trkpt>
      <trkpt lat="40.50455" lon="45.27184">
        <ele>1943.42559</ele>
        <time>2021-08-13T06:42:39.307Z</time>
      </trkpt>
      <trkpt lat="40.50361" lon="45.27198">
        <ele>1940.18058</ele>
        <time>2021-08-13T06:43:00.493Z</time>
      </trkpt>
      <trkpt lat="40.50366" lon="45.27201">
        <ele>1940.029141</ele>
        <time>2021-08-13T06:43:02.599Z</time>
      </trkpt>
      <trkpt lat="40.50387" lon="45.27247">
        <ele>1938.994287</ele>
        <time>2021-08-13T06:43:12.712Z</time>
      </trkpt>
      <trkpt lat="40.50384" lon="45.27279">
        <ele>1938.370508</ele>
        <time>2021-08-13T06:43:18.665Z</time>
      </trkpt>
      <trkpt lat="40.50396" lon="45.27314">
        <ele>1937.620471</ele>
        <time>2021-08-13T06:43:26.506Z</time>
      </trkpt>
      <trkpt lat="40.50398" lon="45.27343">
        <ele>1937.141404</ele>
        <time>2021-08-13T06:43:32.800Z</time>
      </trkpt>
      <trkpt lat="40.50384" lon="45.27385">
        <ele>1936.897892</ele>
        <time>2021-08-13T06:43:42.681Z</time>
      </trkpt>
      <trkpt lat="40.50344" lon="45.27396">
        <ele>1936.615007</ele>
        <time>2021-08-13T06:43:53.827Z</time>
      </trkpt>
      <trkpt lat="40.50327" lon="45.27409">
        <ele>1936.478602</ele>
        <time>2021-08-13T06:43:59.231Z</time>
      </trkpt>
      <trkpt lat="40.50309" lon="45.27445">
        <ele>1936.247369</ele>
        <time>2021-08-13T06:44:08.795Z</time>
      </trkpt>
      <trkpt lat="40.50297" lon="45.27494">
        <ele>1935.974013</ele>
        <time>2021-08-13T06:44:20.891Z</time>
      </trkpt>
      <trkpt lat="40.50276" lon="45.27527">
        <ele>1936.50725</ele>
        <time>2021-08-13T06:44:31.967Z</time>
      </trkpt>
      <trkpt lat="40.5027" lon="45.27554">
        <ele>1937.060093</ele>
        <time>2021-08-13T06:44:40.057Z</time>
      </trkpt>
      <trkpt lat="40.50245" lon="45.27583">
        <ele>1937.89883</ele>
        <time>2021-08-13T06:44:56.178Z</time>
      </trkpt>
      <trkpt lat="40.50234" lon="45.27638">
        <ele>1939.006638</ele>
        <time>2021-08-13T06:45:18.574Z</time>
      </trkpt>
      <trkpt lat="40.50221" lon="45.27663">
        <ele>1939.574745</ele>
        <time>2021-08-13T06:45:31.174Z</time>
      </trkpt>
      <trkpt lat="40.50221" lon="45.27699">
        <ele>1940.266224</ele>
        <time>2021-08-13T06:45:46.414Z</time>
      </trkpt>
      <trkpt lat="40.50216" lon="45.27719">
        <ele>1940.547385</ele>
        <time>2021-08-13T06:45:54.804Z</time>
      </trkpt>
      <trkpt lat="40.50197" lon="45.27741">
        <ele>1940.770205</ele>
        <time>2021-08-13T06:46:09.616Z</time>
      </trkpt>
      <trkpt lat="40.50229" lon="45.27872">
        <ele>1941.713463</ele>
        <time>2021-08-13T06:46:53.126Z</time>
      </trkpt>
      <trkpt lat="40.50232" lon="45.27971">
        <ele>1940.328522</ele>
        <time>2021-08-13T06:47:11.645Z</time>
      </trkpt>
      <trkpt lat="40.50235" lon="45.27997">
        <ele>1939.269082</ele>
        <time>2021-08-13T06:47:16.041Z</time>
      </trkpt>
      <trkpt lat="40.50254" lon="45.28056">
        <ele>1936.675203</ele>
        <time>2021-08-13T06:47:26.644Z</time>
      </trkpt>
      <trkpt lat="40.50281" lon="45.28153">
        <ele>1932.51842</ele>
        <time>2021-08-13T06:47:43.196Z</time>
      </trkpt>
      <trkpt lat="40.50315" lon="45.28248">
        <ele>1929.433282</ele>
        <time>2021-08-13T06:48:00.371Z</time>
      </trkpt>
      <trkpt lat="40.50328" lon="45.28321">
        <ele>1927.224672</ele>
        <time>2021-08-13T06:48:14.236Z</time>
      </trkpt>
      <trkpt lat="40.5033" lon="45.28365">
        <ele>1925.923455</ele>
        <time>2021-08-13T06:48:23.037Z</time>
      </trkpt>
      <trkpt lat="40.50338" lon="45.28561">
        <ele>1926.425289</ele>
        <time>2021-08-13T06:49:13.913Z</time>
      </trkpt>
      <trkpt lat="40.50345" lon="45.28642">
        <ele>1927.236318</ele>
        <time>2021-08-13T06:49:42.346Z</time>
      </trkpt>
      <trkpt lat="40.50359" lon="45.28719">
        <ele>1928.79196</ele>
        <time>2021-08-13T06:50:10.355Z</time>
      </trkpt>
      <trkpt lat="40.50483" lon="45.28956">
        <ele>1934.911743</ele>
        <time>2021-08-13T06:51:56.495Z</time>
      </trkpt>
      <trkpt lat="40.5051" lon="45.29066">
        <ele>1937.467286</ele>
        <time>2021-08-13T06:52:40.568Z</time>
      </trkpt>
      <trkpt lat="40.50534" lon="45.29181">
        <ele>1939.976819</ele>
        <time>2021-08-13T06:53:25.189Z</time>
      </trkpt>
      <trkpt lat="40.50537" lon="45.29384">
        <ele>1943.335695</ele>
        <time>2021-08-13T06:54:35.490Z</time>
      </trkpt>
      <trkpt lat="40.50571" lon="45.29564">
        <ele>1945.273149</ele>
        <time>2021-08-13T06:55:30.973Z</time>
      </trkpt>
      <trkpt lat="40.50586" lon="45.29787">
        <ele>1946.516714</ele>
        <time>2021-08-13T06:56:30.767Z</time>
      </trkpt>
      <trkpt lat="40.50621" lon="45.29979">
        <ele>1947.712775</ele>
        <time>2021-08-13T06:57:25.420Z</time>
      </trkpt>
      <trkpt lat="40.50681" lon="45.30196">
        <ele>1950.737685</ele>
        <time>2021-08-13T06:58:39.092Z</time>
      </trkpt>
      <trkpt lat="40.50726" lon="45.30448">
        <ele>1956.127627</ele>
        <time>2021-08-13T07:00:15.907Z</time>
      </trkpt>
      <trkpt lat="40.50739" lon="45.30647">
        <ele>1960.169953</ele>
        <time>2021-08-13T07:01:30.302Z</time>
      </trkpt>
      <trkpt lat="40.50742" lon="45.30726">
        <ele>1959.825745</ele>
        <time>2021-08-13T07:01:52.940Z</time>
      </trkpt>
      <trkpt lat="40.50731" lon="45.30879">
        <ele>1959.157099</ele>
        <time>2021-08-13T07:02:24.367Z</time>
      </trkpt>
      <trkpt lat="40.50676" lon="45.31158">
        <ele>1953.768212</ele>
        <time>2021-08-13T07:03:17.847Z</time>
      </trkpt>
      <trkpt lat="40.50673" lon="45.31352">
        <ele>1951.665666</ele>
        <time>2021-08-13T07:03:58.649Z</time>
      </trkpt>
      <trkpt lat="40.50622" lon="45.31595">
        <ele>1952.017304</ele>
        <time>2021-08-13T07:05:04.108Z</time>
      </trkpt>
      <trkpt lat="40.50602" lon="45.3171">
        <ele>1952.827098</ele>
        <time>2021-08-13T07:05:38.386Z</time>
      </trkpt>
      <trkpt lat="40.50568" lon="45.31841">
        <ele>1953.616836</ele>
        <time>2021-08-13T07:06:19.219Z</time>
      </trkpt>
      <trkpt lat="40.50553" lon="45.31947">
        <ele>1953.951349</ele>
        <time>2021-08-13T07:06:48.569Z</time>
      </trkpt>
      <trkpt lat="40.50523" lon="45.32012">
        <ele>1954.186886</ele>
        <time>2021-08-13T07:07:07.179Z</time>
      </trkpt>
      <trkpt lat="40.5052" lon="45.32018">
        <ele>1954.210058</ele>
        <time>2021-08-13T07:07:08.879Z</time>
      </trkpt>
      <trkpt lat="40.50427" lon="45.322">
        <ele>1953.270109</ele>
        <time>2021-08-13T07:07:57.677Z</time>
      </trkpt>
      <trkpt lat="40.50217" lon="45.32794">
        <ele>1950.319361</ele>
        <time>2021-08-13T07:10:29.292Z</time>
      </trkpt>
      <trkpt lat="40.50125" lon="45.33111">
        <ele>1944.830395</ele>
        <time>2021-08-13T07:11:34.662Z</time>
      </trkpt>
      <trkpt lat="40.50106" lon="45.33163">
        <ele>1943.528942</ele>
        <time>2021-08-13T07:11:45.065Z</time>
      </trkpt>
      <trkpt lat="40.50036" lon="45.33328">
        <ele>1939.501779</ele>
        <time>2021-08-13T07:12:19.685Z</time>
      </trkpt>
      <trkpt lat="40.50031" lon="45.33369">
        <ele>1938.789923</ele>
        <time>2021-08-13T07:12:27.115Z</time>
      </trkpt>
      <trkpt lat="40.50012" lon="45.33502">
        <ele>1936.474655</ele>
        <time>2021-08-13T07:12:52.266Z</time>
      </trkpt>
      <trkpt lat="40.49863" lon="45.34104">
        <ele>1930.198869</ele>
        <time>2021-08-13T07:14:58.369Z</time>
      </trkpt>
      <trkpt lat="40.49761" lon="45.34486">
        <ele>1928.095273</ele>
        <time>2021-08-13T07:16:27.770Z</time>
      </trkpt>
      <trkpt lat="40.49577" lon="45.3514">
        <ele>1922.391047</ele>
        <time>2021-08-13T07:18:47.727Z</time>
      </trkpt>
      <trkpt lat="40.49556" lon="45.35204">
        <ele>1922.3742</ele>
        <time>2021-08-13T07:19:03.008Z</time>
      </trkpt>
      <trkpt lat="40.49439" lon="45.35537">
        <ele>1924.039524</ele>
        <time>2021-08-13T07:20:43.897Z</time>
      </trkpt>
      <trkpt lat="40.49181" lon="45.36257">
        <ele>1927.907836</ele>
        <time>2021-08-13T07:24:16.554Z</time>
      </trkpt>
      <trkpt lat="40.49172" lon="45.3628">
        <ele>1927.94933</ele>
        <time>2021-08-13T07:24:22.548Z</time>
      </trkpt>
      <trkpt lat="40.49128" lon="45.36401">
        <ele>1928.029863</ele>
        <time>2021-08-13T07:24:53.523Z</time>
      </trkpt>
      <trkpt lat="40.49072" lon="45.36548">
        <ele>1927.54305</ele>
        <time>2021-08-13T07:25:29.977Z</time>
      </trkpt>
      <trkpt lat="40.4892" lon="45.36891">
        <ele>1925.820045</ele>
        <time>2021-08-13T07:26:56.710Z</time>
      </trkpt>
      <trkpt lat="40.48844" lon="45.37077">
        <ele>1924.680056</ele>
        <time>2021-08-13T07:27:40.526Z</time>
      </trkpt>
      <trkpt lat="40.48792" lon="45.3721">
        <ele>1923.924647</ele>
        <time>2021-08-13T07:28:12.666Z</time>
      </trkpt>
      <trkpt lat="40.48707" lon="45.3745">
        <ele>1923.425973</ele>
        <time>2021-08-13T07:29:14.352Z</time>
      </trkpt>
      <trkpt lat="40.48573" lon="45.378">
        <ele>1921.40055</ele>
        <time>2021-08-13T07:30:38.502Z</time>
      </trkpt>
      <trkpt lat="40.48464" lon="45.37989">
        <ele>1918.805908</ele>
        <time>2021-08-13T07:31:25.063Z</time>
      </trkpt>
      <trkpt lat="40.48395" lon="45.38109">
        <ele>1916.822524</ele>
        <time>2021-08-13T07:31:53.181Z</time>
      </trkpt>
      <trkpt lat="40.48285" lon="45.3828">
        <ele>1914.760413</ele>
        <time>2021-08-13T07:32:36.204Z</time>
      </trkpt>
      <trkpt lat="40.47836" lon="45.39302">
        <ele>1911.606568</ele>
        <time>2021-08-13T07:37:06.341Z</time>
      </trkpt>
      <trkpt lat="40.47696" lon="45.39604">
        <ele>1909.631943</ele>
        <time>2021-08-13T07:38:20.175Z</time>
      </trkpt>
      <trkpt lat="40.47568" lon="45.39902">
        <ele>1908.538434</ele>
        <time>2021-08-13T07:39:35.478Z</time>
      </trkpt>
      <trkpt lat="40.47394" lon="45.40295">
        <ele>1908.872843</ele>
        <time>2021-08-13T07:41:25.388Z</time>
      </trkpt>
      <trkpt lat="40.47154" lon="45.40831">
        <ele>1911.272079</ele>
        <time>2021-08-13T07:44:06.554Z</time>
      </trkpt>
      <trkpt lat="40.47016" lon="45.41151">
        <ele>1914.275441</ele>
        <time>2021-08-13T07:45:50.641Z</time>
      </trkpt>
      <trkpt lat="40.46938" lon="45.41329">
        <ele>1916.269186</ele>
        <time>2021-08-13T07:46:52.223Z</time>
      </trkpt>
      <trkpt lat="40.46815" lon="45.4155">
        <ele>1918.577057</ele>
        <time>2021-08-13T07:48:10.388Z</time>
      </trkpt>
      <trkpt lat="40.46808" lon="45.41564">
        <ele>1918.69124</ele>
        <time>2021-08-13T07:48:15.019Z</time>
      </trkpt>
      <trkpt lat="40.46795" lon="45.41583">
        <ele>1918.866665</ele>
        <time>2021-08-13T07:48:21.996Z</time>
      </trkpt>
      <trkpt lat="40.46759" lon="45.41644">
        <ele>1919.385284</ele>
        <time>2021-08-13T07:48:42.670Z</time>
      </trkpt>
      <trkpt lat="40.46692" lon="45.41754">
        <ele>1919.969651</ele>
        <time>2021-08-13T07:49:19.305Z</time>
      </trkpt>
      <trkpt lat="40.46617" lon="45.41836">
        <ele>1920.385345</ele>
        <time>2021-08-13T07:49:52.028Z</time>
      </trkpt>
      <trkpt lat="40.46564" lon="45.4187">
        <ele>1920.380806</ele>
        <time>2021-08-13T07:50:10.818Z</time>
      </trkpt>
      <trkpt lat="40.46309" lon="45.41987">
        <ele>1920.020308</ele>
        <time>2021-08-13T07:51:31.826Z</time>
      </trkpt>
      <trkpt lat="40.46261" lon="45.42011">
        <ele>1920.002772</ele>
        <time>2021-08-13T07:51:47.577Z</time>
      </trkpt>
      <trkpt lat="40.46173" lon="45.42043">
        <ele>1920.019108</ele>
        <time>2021-08-13T07:52:15.915Z</time>
      </trkpt>
      <trkpt lat="40.46114" lon="45.42054">
        <ele>1920.038217</ele>
        <time>2021-08-13T07:52:35.302Z</time>
      </trkpt>
      <trkpt lat="40.46072" lon="45.42059">
        <ele>1920.076982</ele>
        <time>2021-08-13T07:52:49.099Z</time>
      </trkpt>
      <trkpt lat="40.45952" lon="45.42078">
        <ele>1920.18843</ele>
        <time>2021-08-13T07:53:27.264Z</time>
      </trkpt>
      <trkpt lat="40.45783" lon="45.42096">
        <ele>1919.678702</ele>
        <time>2021-08-13T07:54:17.392Z</time>
      </trkpt>
      <trkpt lat="40.45686" lon="45.42127">
        <ele>1919.473686</ele>
        <time>2021-08-13T07:54:46.301Z</time>
      </trkpt>
      <trkpt lat="40.45651" lon="45.42143">
        <ele>1919.404656</ele>
        <time>2021-08-13T07:54:57.349Z</time>
      </trkpt>
      <trkpt lat="40.45517" lon="45.42204">
        <ele>1919.525466</ele>
        <time>2021-08-13T07:55:42.385Z</time>
      </trkpt>
      <trkpt lat="40.45485" lon="45.42221">
        <ele>1919.622334</ele>
        <time>2021-08-13T07:55:53.807Z</time>
      </trkpt>
      <trkpt lat="40.45471" lon="45.42229">
        <ele>1919.665684</ele>
        <time>2021-08-13T07:55:59.104Z</time>
      </trkpt>
      <trkpt lat="40.45389" lon="45.42284">
        <ele>1919.925204</ele>
        <time>2021-08-13T07:56:29.455Z</time>
      </trkpt>
      <trkpt lat="40.45345" lon="45.42332">
        <ele>1920.090417</ele>
        <time>2021-08-13T07:56:48.713Z</time>
      </trkpt>
      <trkpt lat="40.45184" lon="45.42498">
        <ele>1920.529117</ele>
        <time>2021-08-13T07:57:54.536Z</time>
      </trkpt>
      <trkpt lat="40.45016" lon="45.42591">
        <ele>1920.9043</ele>
        <time>2021-08-13T07:58:53.150Z</time>
      </trkpt>
      <trkpt lat="40.44768" lon="45.42705">
        <ele>1921.276993</ele>
        <time>2021-08-13T08:00:18.045Z</time>
      </trkpt>
      <trkpt lat="40.44674" lon="45.42736">
        <ele>1921.001002</ele>
        <time>2021-08-13T08:00:46.507Z</time>
      </trkpt>
      <trkpt lat="40.44444" lon="45.42777">
        <ele>1920.004791</ele>
        <time>2021-08-13T08:01:53.586Z</time>
      </trkpt>
      <trkpt lat="40.44311" lon="45.42794">
        <ele>1919.315241</ele>
        <time>2021-08-13T08:02:32.007Z</time>
      </trkpt>
      <trkpt lat="40.4421" lon="45.42824">
        <ele>1918.698776</ele>
        <time>2021-08-13T08:03:01.066Z</time>
      </trkpt>
      <trkpt lat="40.44134" lon="45.42865">
        <ele>1918.151669</ele>
        <time>2021-08-13T08:03:24.206Z</time>
      </trkpt>
      <trkpt lat="40.4389" lon="45.43071">
        <ele>1916.078539</ele>
        <time>2021-08-13T08:04:45.003Z</time>
      </trkpt>
      <trkpt lat="40.43633" lon="45.43301">
        <ele>1914.639829</ele>
        <time>2021-08-13T08:06:13.468Z</time>
      </trkpt>
      <trkpt lat="40.43241" lon="45.43811">
        <ele>1917.93469</ele>
        <time>2021-08-13T08:09:28.624Z</time>
      </trkpt>
      <trkpt lat="40.4315" lon="45.43892">
        <ele>1917.591068</ele>
        <time>2021-08-13T08:10:00.800Z</time>
      </trkpt>
      <trkpt lat="40.43074" lon="45.4395">
        <ele>1916.882831</ele>
        <time>2021-08-13T08:10:24.069Z</time>
      </trkpt>
      <trkpt lat="40.42998" lon="45.43998">
        <ele>1915.922551</ele>
        <time>2021-08-13T08:10:46.027Z</time>
      </trkpt>
      <trkpt lat="40.42946" lon="45.44044">
        <ele>1915.323184</ele>
        <time>2021-08-13T08:11:02.706Z</time>
      </trkpt>
      <trkpt lat="40.42768" lon="45.44223">
        <ele>1914.63065</ele>
        <time>2021-08-13T08:12:08.259Z</time>
      </trkpt>
      <trkpt lat="40.4272" lon="45.44281">
        <ele>1914.789446</ele>
        <time>2021-08-13T08:12:30.145Z</time>
      </trkpt>
      <trkpt lat="40.42626" lon="45.44393">
        <ele>1915.336518</ele>
        <time>2021-08-13T08:13:15.308Z</time>
      </trkpt>
      <trkpt lat="40.42566" lon="45.44475">
        <ele>1915.818723</ele>
        <time>2021-08-13T08:13:44.853Z</time>
      </trkpt>
      <trkpt lat="40.42378" lon="45.44808">
        <ele>1916.171114</ele>
        <time>2021-08-13T08:15:23.774Z</time>
      </trkpt>
      <trkpt lat="40.42045" lon="45.45443">
        <ele>1918.357873</ele>
        <time>2021-08-13T08:18:40.159Z</time>
      </trkpt>
      <trkpt lat="40.41818" lon="45.45859">
        <ele>1919.330426</ele>
        <time>2021-08-13T08:20:47.291Z</time>
      </trkpt>
      <trkpt lat="40.41688" lon="45.46043">
        <ele>1919.521119</ele>
        <time>2021-08-13T08:21:46.562Z</time>
      </trkpt>
      <trkpt lat="40.41534" lon="45.46243">
        <ele>1920.25439</ele>
        <time>2021-08-13T08:22:58.477Z</time>
      </trkpt>
      <trkpt lat="40.41383" lon="45.46416">
        <ele>1921.144812</ele>
        <time>2021-08-13T08:24:06.433Z</time>
      </trkpt>
      <trkpt lat="40.41256" lon="45.46543">
        <ele>1921.795393</ele>
        <time>2021-08-13T08:24:59.573Z</time>
      </trkpt>
      <trkpt lat="40.41015" lon="45.46781">
        <ele>1922.751519</ele>
        <time>2021-08-13T08:26:39.757Z</time>
      </trkpt>
      <trkpt lat="40.40576" lon="45.47213">
        <ele>1921.835288</ele>
        <time>2021-08-13T08:29:24.015Z</time>
      </trkpt>
      <trkpt lat="40.40507" lon="45.4727">
        <ele>1921.998942</ele>
        <time>2021-08-13T08:29:50.549Z</time>
      </trkpt>
      <trkpt lat="40.40491" lon="45.47282">
        <ele>1922.035654</ele>
        <time>2021-08-13T08:29:56.785Z</time>
      </trkpt>
      <trkpt lat="40.404" lon="45.47337">
        <ele>1922.191278</ele>
        <time>2021-08-13T08:30:29.981Z</time>
      </trkpt>
      <trkpt lat="40.4019" lon="45.47394">
        <ele>1922.221899</ele>
        <time>2021-08-13T08:31:36.619Z</time>
      </trkpt>
      <trkpt lat="40.40035" lon="45.47431">
        <ele>1922.088684</ele>
        <time>2021-08-13T08:32:23.957Z</time>
      </trkpt>
      <trkpt lat="40.39785" lon="45.47492">
        <ele>1921.769716</ele>
        <time>2021-08-13T08:33:43.436Z</time>
      </trkpt>
      <trkpt lat="40.39575" lon="45.475">
        <ele>1920.550928</ele>
        <time>2021-08-13T08:34:41.567Z</time>
      </trkpt>
      <trkpt lat="40.39564" lon="45.47506">
        <ele>1920.466418</ele>
        <time>2021-08-13T08:34:44.698Z</time>
      </trkpt>
      <trkpt lat="40.39535" lon="45.47531">
        <ele>1920.318119</ele>
        <time>2021-08-13T08:34:54.732Z</time>
      </trkpt>
      <trkpt lat="40.394" lon="45.47694">
        <ele>1920.071686</ele>
        <time>2021-08-13T08:35:51.292Z</time>
      </trkpt>
      <trkpt lat="40.39159" lon="45.48001">
        <ele>1920.468905</ele>
        <time>2021-08-13T08:37:39.452Z</time>
      </trkpt>
      <trkpt lat="40.38434" lon="45.48886">
        <ele>1916.754582</ele>
        <time>2021-08-13T08:42:28.244Z</time>
      </trkpt>
      <trkpt lat="40.38278" lon="45.49154">
        <ele>1916.08753</ele>
        <time>2021-08-13T08:43:44.851Z</time>
      </trkpt>
      <trkpt lat="40.38162" lon="45.49416">
        <ele>1916.068543</ele>
        <time>2021-08-13T08:44:57.501Z</time>
      </trkpt>
      <trkpt lat="40.37895" lon="45.5015">
        <ele>1915.792618</ele>
        <time>2021-08-13T08:48:09.647Z</time>
      </trkpt>
      <trkpt lat="40.37819" lon="45.50356">
        <ele>1915.631112</ele>
        <time>2021-08-13T08:49:01.354Z</time>
      </trkpt>
      <trkpt lat="40.37797" lon="45.50415">
        <ele>1915.592954</ele>
        <time>2021-08-13T08:49:17.305Z</time>
      </trkpt>
      <trkpt lat="40.37661" lon="45.50781">
        <ele>1916.828785</ele>
        <time>2021-08-13T08:51:03.604Z</time>
      </trkpt>
      <trkpt lat="40.37469" lon="45.51182">
        <ele>1916.758092</ele>
        <time>2021-08-13T08:52:53.942Z</time>
      </trkpt>
      <trkpt lat="40.37437" lon="45.51268">
        <ele>1916.680276</ele>
        <time>2021-08-13T08:53:16.238Z</time>
      </trkpt>
      <trkpt lat="40.37187" lon="45.51947">
        <ele>1916.869631</ele>
        <time>2021-08-13T08:56:16.631Z</time>
      </trkpt>
      <trkpt lat="40.37163" lon="45.52054">
        <ele>1916.842698</ele>
        <time>2021-08-13T08:56:43.807Z</time>
      </trkpt>
      <trkpt lat="40.37097" lon="45.52351">
        <ele>1916.265006</ele>
        <time>2021-08-13T08:57:53.729Z</time>
      </trkpt>
      <trkpt lat="40.37078" lon="45.52434">
        <ele>1916.100015</ele>
        <time>2021-08-13T08:58:12.827Z</time>
      </trkpt>
      <trkpt lat="40.37076" lon="45.52452">
        <ele>1916.065827</ele>
        <time>2021-08-13T08:58:16.826Z</time>
      </trkpt>
      <trkpt lat="40.3707" lon="45.52504">
        <ele>1915.966471</ele>
        <time>2021-08-13T08:58:28.725Z</time>
      </trkpt>
      <trkpt lat="40.37066" lon="45.52591">
        <ele>1915.869885</ele>
        <time>2021-08-13T08:58:49.276Z</time>
      </trkpt>
      <trkpt lat="40.37066" lon="45.52619">
        <ele>1915.985168</ele>
        <time>2021-08-13T08:58:56.314Z</time>
      </trkpt>
      <trkpt lat="40.37068" lon="45.52639">
        <ele>1916.06593</ele>
        <time>2021-08-13T08:59:01.321Z</time>
      </trkpt>
      <trkpt lat="40.37093" lon="45.52979">
        <ele>1917.528682</ele>
        <time>2021-08-13T09:00:36.222Z</time>
      </trkpt>
      <trkpt lat="40.37082" lon="45.53279">
        <ele>1918.210154</ele>
        <time>2021-08-13T09:01:54.435Z</time>
      </trkpt>
      <trkpt lat="40.37077" lon="45.53362">
        <ele>1918.116165</ele>
        <time>2021-08-13T09:02:13.940Z</time>
      </trkpt>
      <trkpt lat="40.37074" lon="45.53475">
        <ele>1917.961842</ele>
        <time>2021-08-13T09:02:40.080Z</time>
      </trkpt>
      <trkpt lat="40.37065" lon="45.54006">
        <ele>1919.436531</ele>
        <time>2021-08-13T09:04:59.980Z</time>
      </trkpt>
      <trkpt lat="40.37069" lon="45.54082">
        <ele>1920.139279</ele>
        <time>2021-08-13T09:05:22.672Z</time>
      </trkpt>
      <trkpt lat="40.37059" lon="45.54175">
        <ele>1921.00593</ele>
        <time>2021-08-13T09:05:51.215Z</time>
      </trkpt>
      <trkpt lat="40.3703" lon="45.54285">
        <ele>1922.212897</ele>
        <time>2021-08-13T09:06:27.596Z</time>
      </trkpt>
      <trkpt lat="40.36997" lon="45.54382">
        <ele>1923.408916</ele>
        <time>2021-08-13T09:07:00.676Z</time>
      </trkpt>
      <trkpt lat="40.36944" lon="45.54581">
        <ele>1925.376257</ele>
        <time>2021-08-13T09:08:06.057Z</time>
      </trkpt>
      <trkpt lat="40.36888" lon="45.54722">
        <ele>1926.064147</ele>
        <time>2021-08-13T09:08:49.753Z</time>
      </trkpt>
      <trkpt lat="40.36822" lon="45.54788">
        <ele>1925.917983</ele>
        <time>2021-08-13T09:09:14.981Z</time>
      </trkpt>
      <trkpt lat="40.36738" lon="45.54968">
        <ele>1925.212723</ele>
        <time>2021-08-13T09:10:01.714Z</time>
      </trkpt>
      <trkpt lat="40.3657" lon="45.55229">
        <ele>1924.520349</ele>
        <time>2021-08-13T09:11:23.206Z</time>
      </trkpt>
      <trkpt lat="40.36466" lon="45.55469">
        <ele>1924.917031</ele>
        <time>2021-08-13T09:12:33.706Z</time>
      </trkpt>
      <trkpt lat="40.36152" lon="45.5596">
        <ele>1927.032799</ele>
        <time>2021-08-13T09:15:24.640Z</time>
      </trkpt>
      <trkpt lat="40.36117" lon="45.56062">
        <ele>1927.628793</ele>
        <time>2021-08-13T09:15:55.616Z</time>
      </trkpt>
      <trkpt lat="40.36058" lon="45.56163">
        <ele>1928.314231</ele>
        <time>2021-08-13T09:16:31.380Z</time>
      </trkpt>
      <trkpt lat="40.35964" lon="45.5642">
        <ele>1930.215198</ele>
        <time>2021-08-13T09:17:52.630Z</time>
      </trkpt>
      <trkpt lat="40.35891" lon="45.56563">
        <ele>1931.409935</ele>
        <time>2021-08-13T09:18:41.643Z</time>
      </trkpt>
      <trkpt lat="40.35879" lon="45.56595">
        <ele>1931.735946</ele>
        <time>2021-08-13T09:18:52.053Z</time>
      </trkpt>
      <trkpt lat="40.35836" lon="45.56683">
        <ele>1932.880349</ele>
        <time>2021-08-13T09:19:21.804Z</time>
      </trkpt>
      <trkpt lat="40.35791" lon="45.56758">
        <ele>1933.931452</ele>
        <time>2021-08-13T09:19:50.783Z</time>
      </trkpt>
      <trkpt lat="40.35549" lon="45.57095">
        <ele>1942.267442</ele>
        <time>2021-08-13T09:22:27.216Z</time>
      </trkpt>
      <trkpt lat="40.35426" lon="45.57279">
        <ele>1948.321707</ele>
        <time>2021-08-13T09:24:01.924Z</time>
      </trkpt>
      <trkpt lat="40.35306" lon="45.57382">
        <ele>1952.326745</ele>
        <time>2021-08-13T09:25:09.469Z</time>
      </trkpt>
      <trkpt lat="40.35245" lon="45.57512">
        <ele>1955.231789</ele>
        <time>2021-08-13T09:26:00.572Z</time>
      </trkpt>
      <trkpt lat="40.35203" lon="45.57578">
        <ele>1956.752733</ele>
        <time>2021-08-13T09:26:29.341Z</time>
      </trkpt>
      <trkpt lat="40.35074" lon="45.57704">
        <ele>1960.668949</ele>
        <time>2021-08-13T09:27:41.082Z</time>
      </trkpt>
      <trkpt lat="40.35008" lon="45.57877">
        <ele>1964.574361</ele>
        <time>2021-08-13T09:28:48.435Z</time>
      </trkpt>
      <trkpt lat="40.34864" lon="45.58177">
        <ele>1972.165658</ele>
        <time>2021-08-13T09:30:57.600Z</time>
      </trkpt>
      <trkpt lat="40.34772" lon="45.58436">
        <ele>1976.196</ele>
        <time>2021-08-13T09:32:30.912Z</time>
      </trkpt>
      <trkpt lat="40.34607" lon="45.58659">
        <ele>1976.649926</ele>
        <time>2021-08-13T09:33:43.403Z</time>
      </trkpt>
      <trkpt lat="40.34534" lon="45.58813">
        <ele>1976.561697</ele>
        <time>2021-08-13T09:34:24.996Z</time>
      </trkpt>
      <trkpt lat="40.34498" lon="45.58917">
        <ele>1976.655272</ele>
        <time>2021-08-13T09:34:52.858Z</time>
      </trkpt>
      <trkpt lat="40.34346" lon="45.59033">
        <ele>1977.401997</ele>
        <time>2021-08-13T09:35:51.486Z</time>
      </trkpt>
      <trkpt lat="40.34233" lon="45.59177">
        <ele>1979.171744</ele>
        <time>2021-08-13T09:36:48.610Z</time>
      </trkpt>
      <trkpt lat="40.34201" lon="45.59245">
        <ele>1980.041518</ele>
        <time>2021-08-13T09:37:13.996Z</time>
      </trkpt>
      <trkpt lat="40.34158" lon="45.59454">
        <ele>1983.890807</ele>
        <time>2021-08-13T09:38:28.727Z</time>
      </trkpt>
      <trkpt lat="40.34054" lon="45.5967">
        <ele>1988.596406</ele>
        <time>2021-08-13T09:39:55.898Z</time>
      </trkpt>
      <trkpt lat="40.34035" lon="45.59766">
        <ele>1990.482691</ele>
        <time>2021-08-13T09:40:29.334Z</time>
      </trkpt>
      <trkpt lat="40.34005" lon="45.60215">
        <ele>1999.520296</ele>
        <time>2021-08-13T09:43:06.145Z</time>
      </trkpt>
      <trkpt lat="40.33964" lon="45.60416">
        <ele>2004.268516</ele>
        <time>2021-08-13T09:44:23.785Z</time>
      </trkpt>
      <trkpt lat="40.33954" lon="45.60486">
        <ele>2005.858942</ele>
        <time>2021-08-13T09:44:51.011Z</time>
      </trkpt>
      <trkpt lat="40.3395" lon="45.60516">
        <ele>2006.550303</ele>
        <time>2021-08-13T09:45:02.405Z</time>
      </trkpt>
      <trkpt lat="40.33944" lon="45.6053">
        <ele>2006.899421</ele>
        <time>2021-08-13T09:45:08.180Z</time>
      </trkpt>
      <trkpt lat="40.33933" lon="45.60559">
        <ele>2007.632913</ele>
        <time>2021-08-13T09:45:19.880Z</time>
      </trkpt>
      <trkpt lat="40.33918" lon="45.60599">
        <ele>2008.619092</ele>
        <time>2021-08-13T09:45:35.228Z</time>
      </trkpt>
      <trkpt lat="40.339" lon="45.60645">
        <ele>2009.474551</ele>
        <time>2021-08-13T09:45:52.622Z</time>
      </trkpt>
      <trkpt lat="40.33824" lon="45.60842">
        <ele>2012.932276</ele>
        <time>2021-08-13T09:47:01.686Z</time>
      </trkpt>
      <trkpt lat="40.33804" lon="45.61039">
        <ele>2016.927662</ele>
        <time>2021-08-13T09:48:08.297Z</time>
      </trkpt>
      <trkpt lat="40.33789" lon="45.61178">
        <ele>2023.354038</ele>
        <time>2021-08-13T09:49:13.847Z</time>
      </trkpt>
      <trkpt lat="40.33759" lon="45.61251">
        <ele>2027.376034</ele>
        <time>2021-08-13T09:50:00.430Z</time>
      </trkpt>
      <trkpt lat="40.33663" lon="45.61423">
        <ele>2040.815499</ele>
        <time>2021-08-13T09:52:14.803Z</time>
      </trkpt>
      <trkpt lat="40.33555" lon="45.61504">
        <ele>2048.151682</ele>
        <time>2021-08-13T09:53:42.796Z</time>
      </trkpt>
      <trkpt lat="40.33405" lon="45.61556">
        <ele>2052.446007</ele>
        <time>2021-08-13T09:54:53.516Z</time>
      </trkpt>
      <trkpt lat="40.33163" lon="45.61725">
        <ele>2049.354313</ele>
        <time>2021-08-13T09:56:02.064Z</time>
      </trkpt>
      <trkpt lat="40.32972" lon="45.61991">
        <ele>2044.469544</ele>
        <time>2021-08-13T09:57:11.110Z</time>
      </trkpt>
      <trkpt lat="40.32855" lon="45.62212">
        <ele>2042.415869</ele>
        <time>2021-08-13T09:58:07.234Z</time>
      </trkpt>
      <trkpt lat="40.3274" lon="45.62583">
        <ele>2040.653996</ele>
        <time>2021-08-13T09:59:36.734Z</time>
      </trkpt>
      <trkpt lat="40.32598" lon="45.628">
        <ele>2038.940714</ele>
        <time>2021-08-13T10:00:33.809Z</time>
      </trkpt>
      <trkpt lat="40.32429" lon="45.63083">
        <ele>2039.779506</ele>
        <time>2021-08-13T10:02:04.989Z</time>
      </trkpt>
      <trkpt lat="40.32343" lon="45.63727">
        <ele>2054.19819</ele>
        <time>2021-08-13T10:06:01.858Z</time>
      </trkpt>
      <trkpt lat="40.32238" lon="45.64598">
        <ele>2081.408346</ele>
        <time>2021-08-13T10:12:12.329Z</time>
      </trkpt>
      <trkpt lat="40.32126" lon="45.65105">
        <ele>2089.591356</ele>
        <time>2021-08-13T10:15:04.418Z</time>
      </trkpt>
      <trkpt lat="40.31948" lon="45.66004">
        <ele>2083.609218</ele>
        <time>2021-08-13T10:18:19.558Z</time>
      </trkpt>
      <trkpt lat="40.3177" lon="45.66559">
        <ele>2069.131771</ele>
        <time>2021-08-13T10:20:04.036Z</time>
      </trkpt>
      <trkpt lat="40.31749" lon="45.66626">
        <ele>2066.871657</ele>
        <time>2021-08-13T10:20:16.316Z</time>
      </trkpt>
      <trkpt lat="40.3168" lon="45.66624">
        <ele>2064.097134</ele>
        <time>2021-08-13T10:20:31.725Z</time>
      </trkpt>
      <trkpt lat="40.31578" lon="45.66658">
        <ele>2058.391807</ele>
        <time>2021-08-13T10:20:55.027Z</time>
      </trkpt>
      <trkpt lat="40.31555" lon="45.6667">
        <ele>2057.026354</ele>
        <time>2021-08-13T10:21:00.291Z</time>
      </trkpt>
      <trkpt lat="40.31463" lon="45.66716">
        <ele>2051.535901</ele>
        <time>2021-08-13T10:21:21.354Z</time>
      </trkpt>
      <trkpt lat="40.3142" lon="45.66772">
        <ele>2048.056275</ele>
        <time>2021-08-13T10:21:34.601Z</time>
      </trkpt>
      <trkpt lat="40.31415" lon="45.66778">
        <ele>2047.697884</ele>
        <time>2021-08-13T10:21:35.926Z</time>
      </trkpt>
      <trkpt lat="40.31357" lon="45.66837">
        <ele>2043.531095</ele>
        <time>2021-08-13T10:21:52.020Z</time>
      </trkpt>
      <trkpt lat="40.31259" lon="45.66911">
        <ele>2037.92458</ele>
        <time>2021-08-13T10:22:17.191Z</time>
      </trkpt>
      <trkpt lat="40.31169" lon="45.66997">
        <ele>2032.496786</ele>
        <time>2021-08-13T10:22:42.195Z</time>
      </trkpt>
      <trkpt lat="40.31144" lon="45.67015">
        <ele>2031.18238</ele>
        <time>2021-08-13T10:22:48.439Z</time>
      </trkpt>
      <trkpt lat="40.31099" lon="45.67046">
        <ele>2028.830661</ele>
        <time>2021-08-13T10:22:59.765Z</time>
      </trkpt>
      <trkpt lat="40.31056" lon="45.67072">
        <ele>2026.619177</ele>
        <time>2021-08-13T10:23:10.374Z</time>
      </trkpt>
      <trkpt lat="40.31025" lon="45.67086">
        <ele>2025.310017</ele>
        <time>2021-08-13T10:23:17.829Z</time>
      </trkpt>
      <trkpt lat="40.30983" lon="45.67125">
        <ele>2023.500722</ele>
        <time>2021-08-13T10:23:29.633Z</time>
      </trkpt>
      <trkpt lat="40.30907" lon="45.67175">
        <ele>2020.453259</ele>
        <time>2021-08-13T10:23:49.994Z</time>
      </trkpt>
      <trkpt lat="40.30789" lon="45.67274">
        <ele>2016.815685</ele>
        <time>2021-08-13T10:24:24.416Z</time>
      </trkpt>
      <trkpt lat="40.30783" lon="45.67283">
        <ele>2016.586194</ele>
        <time>2021-08-13T10:24:26.723Z</time>
      </trkpt>
      <trkpt lat="40.3076" lon="45.67322">
        <ele>2015.681505</ele>
        <time>2021-08-13T10:24:36.591Z</time>
      </trkpt>
      <trkpt lat="40.30683" lon="45.67394">
        <ele>2013.743682</ele>
        <time>2021-08-13T10:25:01.859Z</time>
      </trkpt>
      <trkpt lat="40.30655" lon="45.67411">
        <ele>2013.134165</ele>
        <time>2021-08-13T10:25:09.829Z</time>
      </trkpt>
      <trkpt lat="40.30638" lon="45.67433">
        <ele>2012.650477</ele>
        <time>2021-08-13T10:25:16.244Z</time>
      </trkpt>
      <trkpt lat="40.30629" lon="45.67453">
        <ele>2012.300286</ele>
        <time>2021-08-13T10:25:20.990Z</time>
      </trkpt>
      <trkpt lat="40.30265" lon="45.6722">
        <ele>2000.888572</ele>
        <time>2021-08-13T10:28:10.447Z</time>
      </trkpt>
      <trkpt lat="40.29476" lon="45.66716">
        <ele>1977.690249</ele>
        <time>2021-08-13T10:34:22.579Z</time>
      </trkpt>
      <trkpt lat="40.26631" lon="45.65063">
        <ele>1920.229852</ele>
        <time>2021-08-13T10:57:24.263Z</time>
      </trkpt>
      <trkpt lat="40.26616" lon="45.65058">
        <ele>1920.182281</ele>
        <time>2021-08-13T10:57:32.032Z</time>
      </trkpt>
      <trkpt lat="40.26597" lon="45.65064">
        <ele>1920.127558</ele>
        <time>2021-08-13T10:57:40.974Z</time>
      </trkpt>
      <trkpt lat="40.2603" lon="45.65298">
        <ele>1918.724581</ele>
        <time>2021-08-13T11:02:47.116Z</time>
      </trkpt>
      <trkpt lat="40.25504" lon="45.65401">
        <ele>1918.594408</ele>
        <time>2021-08-13T11:07:22.824Z</time>
      </trkpt>
      <trkpt lat="40.2503" lon="45.65466">
        <ele>1917.224809</ele>
        <time>2021-08-13T11:11:23.184Z</time>
      </trkpt>
      <trkpt lat="40.24994" lon="45.65471">
        <ele>1917.036346</ele>
        <time>2021-08-13T11:11:40.689Z</time>
      </trkpt>
      <trkpt lat="40.24983" lon="45.65472">
        <ele>1916.981797</ele>
        <time>2021-08-13T11:11:45.802Z</time>
      </trkpt>
      <trkpt lat="40.24934" lon="45.65476">
        <ele>1916.72616</ele>
        <time>2021-08-13T11:12:09.771Z</time>
      </trkpt>
      <trkpt lat="40.24915" lon="45.65477">
        <ele>1916.640943</ele>
        <time>2021-08-13T11:12:18.727Z</time>
      </trkpt>
      <trkpt lat="40.24889" lon="45.65477">
        <ele>1916.566208</ele>
        <time>2021-08-13T11:12:31.400Z</time>
      </trkpt>
      <trkpt lat="40.24768" lon="45.6548">
        <ele>1916.219449</ele>
        <time>2021-08-13T11:13:32.006Z</time>
      </trkpt>
      <trkpt lat="40.2394" lon="45.65498">
        <ele>1918.067642</ele>
        <time>2021-08-13T11:20:52.925Z</time>
      </trkpt>
      <trkpt lat="40.23191" lon="45.65478">
        <ele>1918.793437</ele>
        <time>2021-08-13T11:27:25.137Z</time>
      </trkpt>
      <trkpt lat="40.22269" lon="45.65377">
        <ele>1919.02127</ele>
        <time>2021-08-13T11:35:27.787Z</time>
      </trkpt>
      <trkpt lat="40.21948" lon="45.65279">
        <ele>1916.670924</ele>
        <time>2021-08-13T11:38:04.060Z</time>
      </trkpt>
      <trkpt lat="40.21913" lon="45.65268">
        <ele>1916.458849</ele>
        <time>2021-08-13T11:38:22.037Z</time>
      </trkpt>
      <trkpt lat="40.21864" lon="45.65255">
        <ele>1916.297346</ele>
        <time>2021-08-13T11:38:47.953Z</time>
      </trkpt>
      <trkpt lat="40.21851" lon="45.65252">
        <ele>1916.36457</ele>
        <time>2021-08-13T11:38:54.804Z</time>
      </trkpt>
      <trkpt lat="40.21806" lon="45.65324">
        <ele>1916.732485</ele>
        <time>2021-08-13T11:39:25.990Z</time>
      </trkpt>
      <trkpt lat="40.21795" lon="45.65355">
        <ele>1916.867784</ele>
        <time>2021-08-13T11:39:37.896Z</time>
      </trkpt>
      <trkpt lat="40.21789" lon="45.65393">
        <ele>1917.019514</ele>
        <time>2021-08-13T11:39:51.211Z</time>
      </trkpt>
      <trkpt lat="40.21776" lon="45.65414">
        <ele>1917.123473</ele>
        <time>2021-08-13T11:40:00.344Z</time>
      </trkpt>
      <trkpt lat="40.21752" lon="45.65425">
        <ele>1917.324671</ele>
        <time>2021-08-13T11:40:11.973Z</time>
      </trkpt>
      <trkpt lat="40.21704" lon="45.65423">
        <ele>1917.769371</ele>
        <time>2021-08-13T11:40:34.074Z</time>
      </trkpt>
      <trkpt lat="40.21638" lon="45.65411">
        <ele>1918.380213</ele>
        <time>2021-08-13T11:41:04.963Z</time>
      </trkpt>
      <trkpt lat="40.2159" lon="45.6542">
        <ele>1918.827538</ele>
        <time>2021-08-13T11:41:27.564Z</time>
      </trkpt>
      <trkpt lat="40.21558" lon="45.65412">
        <ele>1919.066388</ele>
        <time>2021-08-13T11:41:42.435Z</time>
      </trkpt>
      <trkpt lat="40.21515" lon="45.65431">
        <ele>1919.395783</ele>
        <time>2021-08-13T11:42:02.951Z</time>
      </trkpt>
      <trkpt lat="40.21376" lon="45.65409">
        <ele>1920.302027</ele>
        <time>2021-08-13T11:43:05.066Z</time>
      </trkpt>
      <trkpt lat="40.21109" lon="45.65378">
        <ele>1921.192058</ele>
        <time>2021-08-13T11:45:00.275Z</time>
      </trkpt>
      <trkpt lat="40.21083" lon="45.65356">
        <ele>1921.257191</ele>
        <time>2021-08-13T11:45:13.055Z</time>
      </trkpt>
      <trkpt lat="40.20959" lon="45.65335">
        <ele>1920.86572</ele>
        <time>2021-08-13T11:46:02.843Z</time>
      </trkpt>
      <trkpt lat="40.20915" lon="45.65342">
        <ele>1920.679572</ele>
        <time>2021-08-13T11:46:19.620Z</time>
      </trkpt>
      <trkpt lat="40.20851" lon="45.65324">
        <ele>1920.232183</ele>
        <time>2021-08-13T11:46:44.386Z</time>
      </trkpt>
      <trkpt lat="40.20825" lon="45.6531">
        <ele>1919.981876</ele>
        <time>2021-08-13T11:46:54.468Z</time>
      </trkpt>
      <trkpt lat="40.20736" lon="45.65289">
        <ele>1919.148729</ele>
        <time>2021-08-13T11:47:27.736Z</time>
      </trkpt>
      <trkpt lat="40.20678" lon="45.65216">
        <ele>1918.508988</ele>
        <time>2021-08-13T11:47:56.965Z</time>
      </trkpt>
      <trkpt lat="40.20562" lon="45.65146">
        <ele>1917.575782</ele>
        <time>2021-08-13T11:48:45.284Z</time>
      </trkpt>
      <trkpt lat="40.20504" lon="45.65134">
        <ele>1917.512697</ele>
        <time>2021-08-13T11:49:08.568Z</time>
      </trkpt>
      <trkpt lat="40.20432" lon="45.651">
        <ele>1917.431058</ele>
        <time>2021-08-13T11:49:39.606Z</time>
      </trkpt>
      <trkpt lat="40.20422" lon="45.65076">
        <ele>1917.408731</ele>
        <time>2021-08-13T11:49:48.357Z</time>
      </trkpt>
      <trkpt lat="40.20389" lon="45.6507">
        <ele>1917.39465</ele>
        <time>2021-08-13T11:50:02.366Z</time>
      </trkpt>
      <trkpt lat="40.20277" lon="45.65021">
        <ele>1917.520324</ele>
        <time>2021-08-13T11:50:50.979Z</time>
      </trkpt>
      <trkpt lat="40.20139" lon="45.6498">
        <ele>1917.8562</ele>
        <time>2021-08-13T11:51:49.968Z</time>
      </trkpt>
      <trkpt lat="40.19926" lon="45.64883">
        <ele>1918.738853</ele>
        <time>2021-08-13T11:53:28.453Z</time>
      </trkpt>
      <trkpt lat="40.19778" lon="45.64825">
        <ele>1919.149761</ele>
        <time>2021-08-13T11:54:34.466Z</time>
      </trkpt>
      <trkpt lat="40.19732" lon="45.648">
        <ele>1919.246758</ele>
        <time>2021-08-13T11:54:54.894Z</time>
      </trkpt>
      <trkpt lat="40.19689" lon="45.64749">
        <ele>1919.272695</ele>
        <time>2021-08-13T11:55:18.667Z</time>
      </trkpt>
      <trkpt lat="40.19613" lon="45.64706">
        <ele>1919.240672</ele>
        <time>2021-08-13T11:55:51.969Z</time>
      </trkpt>
      <trkpt lat="40.19552" lon="45.64683">
        <ele>1919.220451</ele>
        <time>2021-08-13T11:56:17.797Z</time>
      </trkpt>
      <trkpt lat="40.1942" lon="45.64613">
        <ele>1919.325561</ele>
        <time>2021-08-13T11:57:16.823Z</time>
      </trkpt>
      <trkpt lat="40.19378" lon="45.64596">
        <ele>1919.322471</ele>
        <time>2021-08-13T11:57:35.140Z</time>
      </trkpt>
      <trkpt lat="40.19287" lon="45.64543">
        <ele>1919.05596</ele>
        <time>2021-08-13T11:58:15.978Z</time>
      </trkpt>
      <trkpt lat="40.19237" lon="45.6451">
        <ele>1918.906611</ele>
        <time>2021-08-13T11:58:37.424Z</time>
      </trkpt>
      <trkpt lat="40.19241" lon="45.64486">
        <ele>1918.813578</ele>
        <time>2021-08-13T11:58:42.556Z</time>
      </trkpt>
      <trkpt lat="40.19263" lon="45.64413">
        <ele>1918.133253</ele>
        <time>2021-08-13T11:58:58.856Z</time>
      </trkpt>
      <trkpt lat="40.19293" lon="45.6431">
        <ele>1917.178863</ele>
        <time>2021-08-13T11:59:20.966Z</time>
      </trkpt>
      <trkpt lat="40.19617" lon="45.63366">
        <ele>1907.636009</ele>
        <time>2021-08-13T12:02:49.649Z</time>
      </trkpt>
      <trkpt lat="40.19626" lon="45.63284">
        <ele>1907.036026</ele>
        <time>2021-08-13T12:03:07.033Z</time>
      </trkpt>
      <trkpt lat="40.19624" lon="45.6324">
        <ele>1906.721307</ele>
        <time>2021-08-13T12:03:16.261Z</time>
      </trkpt>
      <trkpt lat="40.19616" lon="45.63198">
        <ele>1906.412458</ele>
        <time>2021-08-13T12:03:25.401Z</time>
      </trkpt>
      <trkpt lat="40.19576" lon="45.6308">
        <ele>1906.070788</ele>
        <time>2021-08-13T12:03:53.729Z</time>
      </trkpt>
      <trkpt lat="40.19543" lon="45.62998">
        <ele>1905.868239</ele>
        <time>2021-08-13T12:04:15.301Z</time>
      </trkpt>
      <trkpt lat="40.19164" lon="45.6232">
        <ele>1907.125811</ele>
        <time>2021-08-13T12:07:45.472Z</time>
      </trkpt>
      <trkpt lat="40.19163" lon="45.62304">
        <ele>1907.10426</ele>
        <time>2021-08-13T12:07:48.837Z</time>
      </trkpt>
      <trkpt lat="40.19163" lon="45.6227">
        <ele>1907.059487</ele>
        <time>2021-08-13T12:07:56.893Z</time>
      </trkpt>
      <trkpt lat="40.19161" lon="45.62262">
        <ele>1907.048281</ele>
        <time>2021-08-13T12:07:58.519Z</time>
      </trkpt>
      <trkpt lat="40.19151" lon="45.6225">
        <ele>1907.025943</ele>
        <time>2021-08-13T12:08:02.469Z</time>
      </trkpt>
      <trkpt lat="40.1914" lon="45.62243">
        <ele>1907.004577</ele>
        <time>2021-08-13T12:08:06.188Z</time>
      </trkpt>
      <trkpt lat="40.19119" lon="45.62238">
        <ele>1906.968096</ele>
        <time>2021-08-13T12:08:12.051Z</time>
      </trkpt>
      <trkpt lat="40.1904" lon="45.62099">
        <ele>1906.350013</ele>
        <time>2021-08-13T12:08:49.578Z</time>
      </trkpt>
      <trkpt lat="40.18589" lon="45.61312">
        <ele>1904.562644</ele>
        <time>2021-08-13T12:12:35.032Z</time>
      </trkpt>
      <trkpt lat="40.18305" lon="45.60727">
        <ele>1904.524643</ele>
        <time>2021-08-13T12:15:19.316Z</time>
      </trkpt>
      <trkpt lat="40.18234" lon="45.60524">
        <ele>1905.051034</ele>
        <time>2021-08-13T12:16:16.166Z</time>
      </trkpt>
      <trkpt lat="40.18188" lon="45.60281">
        <ele>1905.837258</ele>
        <time>2021-08-13T12:17:20.783Z</time>
      </trkpt>
      <trkpt lat="40.18177" lon="45.60138">
        <ele>1906.142905</ele>
        <time>2021-08-13T12:17:57.056Z</time>
      </trkpt>
      <trkpt lat="40.18164" lon="45.59913">
        <ele>1906.400448</ele>
        <time>2021-08-13T12:18:52.258Z</time>
      </trkpt>
      <trkpt lat="40.1816" lon="45.59805">
        <ele>1906.434954</ele>
        <time>2021-08-13T12:19:17.591Z</time>
      </trkpt>
      <trkpt lat="40.1816" lon="45.59802">
        <ele>1906.435781</ele>
        <time>2021-08-13T12:19:18.204Z</time>
      </trkpt>
      <trkpt lat="40.18153" lon="45.595">
        <ele>1906.850787</ele>
        <time>2021-08-13T12:20:31.387Z</time>
      </trkpt>
      <trkpt lat="40.18149" lon="45.59337">
        <ele>1907.699583</ele>
        <time>2021-08-13T12:21:15.688Z</time>
      </trkpt>
      <trkpt lat="40.18148" lon="45.59296">
        <ele>1907.944647</ele>
        <time>2021-08-13T12:21:27.233Z</time>
      </trkpt>
      <trkpt lat="40.18144" lon="45.59106">
        <ele>1909.574258</ele>
        <time>2021-08-13T12:22:21.399Z</time>
      </trkpt>
      <trkpt lat="40.18141" lon="45.58919">
        <ele>1911.638304</ele>
        <time>2021-08-13T12:23:17.976Z</time>
      </trkpt>
      <trkpt lat="40.18137" lon="45.58785">
        <ele>1912.974084</ele>
        <time>2021-08-13T12:23:59.657Z</time>
      </trkpt>
      <trkpt lat="40.18116" lon="45.58663">
        <ele>1913.827492</ele>
        <time>2021-08-13T12:24:34.879Z</time>
      </trkpt>
      <trkpt lat="40.18082" lon="45.58572">
        <ele>1914.044995</ele>
        <time>2021-08-13T12:24:59.804Z</time>
      </trkpt>
      <trkpt lat="40.18025" lon="45.58489">
        <ele>1913.429114</ele>
        <time>2021-08-13T12:25:24.357Z</time>
      </trkpt>
      <trkpt lat="40.17923" lon="45.58277">
        <ele>1910.898604</ele>
        <time>2021-08-13T12:26:13.285Z</time>
      </trkpt>
      <trkpt lat="40.17913" lon="45.58231">
        <ele>1910.297415</ele>
        <time>2021-08-13T12:26:22.472Z</time>
      </trkpt>
      <trkpt lat="40.17906" lon="45.58199">
        <ele>1909.917915</ele>
        <time>2021-08-13T12:26:28.731Z</time>
      </trkpt>
      <trkpt lat="40.17883" lon="45.58094">
        <ele>1908.915439</ele>
        <time>2021-08-13T12:26:50.029Z</time>
      </trkpt>
      <trkpt lat="40.17843" lon="45.57909">
        <ele>1907.646871</ele>
        <time>2021-08-13T12:27:30.842Z</time>
      </trkpt>
      <trkpt lat="40.17808" lon="45.57745">
        <ele>1907.194791</ele>
        <time>2021-08-13T12:28:10.687Z</time>
      </trkpt>
      <trkpt lat="40.17772" lon="45.57579">
        <ele>1906.907544</ele>
        <time>2021-08-13T12:28:51.032Z</time>
      </trkpt>
      <trkpt lat="40.17768" lon="45.57562">
        <ele>1906.879299</ele>
        <time>2021-08-13T12:28:54.856Z</time>
      </trkpt>
      <trkpt lat="40.17767" lon="45.57553">
        <ele>1906.864242</ele>
        <time>2021-08-13T12:28:56.865Z</time>
      </trkpt>
      <trkpt lat="40.1775" lon="45.57465">
        <ele>1906.576785</ele>
        <time>2021-08-13T12:29:16.926Z</time>
      </trkpt>
      <trkpt lat="40.17717" lon="45.57278">
        <ele>1905.94221</ele>
        <time>2021-08-13T12:29:58.859Z</time>
      </trkpt>
      <trkpt lat="40.177" lon="45.57129">
        <ele>1905.889408</ele>
        <time>2021-08-13T12:30:33.575Z</time>
      </trkpt>
      <trkpt lat="40.1768" lon="45.56946">
        <ele>1906.533033</ele>
        <time>2021-08-13T12:31:21.477Z</time>
      </trkpt>
      <trkpt lat="40.17673" lon="45.56866">
        <ele>1906.973379</ele>
        <time>2021-08-13T12:31:44.242Z</time>
      </trkpt>
      <trkpt lat="40.17653" lon="45.56539">
        <ele>1909.214161</ele>
        <time>2021-08-13T12:33:16.596Z</time>
      </trkpt>
      <trkpt lat="40.17645" lon="45.56456">
        <ele>1909.621037</ele>
        <time>2021-08-13T12:33:38.844Z</time>
      </trkpt>
      <trkpt lat="40.17545" lon="45.55284">
        <ele>1913.514033</ele>
        <time>2021-08-13T12:38:39.809Z</time>
      </trkpt>
      <trkpt lat="40.17535" lon="45.55194">
        <ele>1913.916377</ele>
        <time>2021-08-13T12:39:04.901Z</time>
      </trkpt>
      <trkpt lat="40.1752" lon="45.55025">
        <ele>1914.704949</ele>
        <time>2021-08-13T12:39:50.293Z</time>
      </trkpt>
      <trkpt lat="40.17516" lon="45.54992">
        <ele>1914.859289</ele>
        <time>2021-08-13T12:39:58.678Z</time>
      </trkpt>
      <trkpt lat="40.175" lon="45.54817">
        <ele>1915.580905</ele>
        <time>2021-08-13T12:40:43.995Z</time>
      </trkpt>
      <trkpt lat="40.17489" lon="45.54687">
        <ele>1916.173148</ele>
        <time>2021-08-13T12:41:18.968Z</time>
      </trkpt>
      <trkpt lat="40.17473" lon="45.54492">
        <ele>1917.268133</ele>
        <time>2021-08-13T12:42:12.932Z</time>
      </trkpt>
      <trkpt lat="40.17467" lon="45.54431">
        <ele>1917.314662</ele>
        <time>2021-08-13T12:42:28.521Z</time>
      </trkpt>
      <trkpt lat="40.1745" lon="45.54336">
        <ele>1917.387163</ele>
        <time>2021-08-13T12:42:51.695Z</time>
      </trkpt>
      <trkpt lat="40.17432" lon="45.54258">
        <ele>1917.411358</ele>
        <time>2021-08-13T12:43:10.655Z</time>
      </trkpt>
      <trkpt lat="40.17411" lon="45.54209">
        <ele>1917.203786</ele>
        <time>2021-08-13T12:43:22.974Z</time>
      </trkpt>
      <trkpt lat="40.1734" lon="45.54087">
        <ele>1916.630364</ele>
        <time>2021-08-13T12:43:56.722Z</time>
      </trkpt>
      <trkpt lat="40.172" lon="45.53846">
        <ele>1915.105442</ele>
        <time>2021-08-13T12:45:01.512Z</time>
      </trkpt>
      <trkpt lat="40.17138" lon="45.53738">
        <ele>1914.582779</ele>
        <time>2021-08-13T12:45:31.315Z</time>
      </trkpt>
      <trkpt lat="40.17007" lon="45.5351">
        <ele>1913.775484</ele>
        <time>2021-08-13T12:46:35.607Z</time>
      </trkpt>
      <trkpt lat="40.167" lon="45.52974">
        <ele>1911.693577</ele>
        <time>2021-08-13T12:49:04.317Z</time>
      </trkpt>
      <trkpt lat="40.16691" lon="45.52958">
        <ele>1911.637054</ele>
        <time>2021-08-13T12:49:08.819Z</time>
      </trkpt>
      <trkpt lat="40.16387" lon="45.52428">
        <ele>1911.62205</ele>
        <time>2021-08-13T12:51:47.014Z</time>
      </trkpt>
      <trkpt lat="40.16311" lon="45.52292">
        <ele>1911.62581</ele>
        <time>2021-08-13T12:52:28.147Z</time>
      </trkpt>
      <trkpt lat="40.16292" lon="45.52245">
        <ele>1911.619257</ele>
        <time>2021-08-13T12:52:40.887Z</time>
      </trkpt>
      <trkpt lat="40.16275" lon="45.52158">
        <ele>1911.555456</ele>
        <time>2021-08-13T12:53:01.776Z</time>
      </trkpt>
      <trkpt lat="40.1627" lon="45.51864">
        <ele>1910.584182</ele>
        <time>2021-08-13T12:54:06.227Z</time>
      </trkpt>
      <trkpt lat="40.16266" lon="45.51751">
        <ele>1910.251771</ele>
        <time>2021-08-13T12:54:31.271Z</time>
      </trkpt>
      <trkpt lat="40.16247" lon="45.51132">
        <ele>1910.351584</ele>
        <time>2021-08-13T12:57:02.711Z</time>
      </trkpt>
      <trkpt lat="40.16245" lon="45.51098">
        <ele>1910.273717</ele>
        <time>2021-08-13T12:57:10.403Z</time>
      </trkpt>
      <trkpt lat="40.16232" lon="45.50664">
        <ele>1908.089988</ele>
        <time>2021-08-13T12:58:43.135Z</time>
      </trkpt>
      <trkpt lat="40.16231" lon="45.50653">
        <ele>1908.014457</ele>
        <time>2021-08-13T12:58:45.549Z</time>
      </trkpt>
      <trkpt lat="40.16231" lon="45.5064">
        <ele>1907.927645</ele>
        <time>2021-08-13T12:58:48.302Z</time>
      </trkpt>
      <trkpt lat="40.1623" lon="45.506">
        <ele>1907.661915</ele>
        <time>2021-08-13T12:58:56.653Z</time>
      </trkpt>
      <trkpt lat="40.16225" lon="45.50516">
        <ele>1907.120446</ele>
        <time>2021-08-13T12:59:14.049Z</time>
      </trkpt>
      <trkpt lat="40.16216" lon="45.50419">
        <ele>1906.570089</ele>
        <time>2021-08-13T12:59:34.447Z</time>
      </trkpt>
      <trkpt lat="40.16201" lon="45.5035">
        <ele>1906.166493</ele>
        <time>2021-08-13T12:59:49.793Z</time>
      </trkpt>
      <trkpt lat="40.16166" lon="45.50285">
        <ele>1905.852398</ele>
        <time>2021-08-13T13:00:07.254Z</time>
      </trkpt>
      <trkpt lat="40.16113" lon="45.50193">
        <ele>1905.801895</ele>
        <time>2021-08-13T13:00:34.425Z</time>
      </trkpt>
      <trkpt lat="40.16068" lon="45.50099">
        <ele>1905.752977</ele>
        <time>2021-08-13T13:01:01.865Z</time>
      </trkpt>
      <trkpt lat="40.16049" lon="45.5004">
        <ele>1905.723941</ele>
        <time>2021-08-13T13:01:17.583Z</time>
      </trkpt>
      <trkpt lat="40.16028" lon="45.49948">
        <ele>1905.679932</ele>
        <time>2021-08-13T13:01:39.932Z</time>
      </trkpt>
      <trkpt lat="40.16007" lon="45.49852">
        <ele>1905.509783</ele>
        <time>2021-08-13T13:02:02.573Z</time>
      </trkpt>
      <trkpt lat="40.16005" lon="45.49842">
        <ele>1905.47255</ele>
        <time>2021-08-13T13:02:04.813Z</time>
      </trkpt>
      <trkpt lat="40.15996" lon="45.49783">
        <ele>1905.25923</ele>
        <time>2021-08-13T13:02:18.364Z</time>
      </trkpt>
      <trkpt lat="40.15988" lon="45.49701">
        <ele>1904.966102</ele>
        <time>2021-08-13T13:02:36.401Z</time>
      </trkpt>
      <trkpt lat="40.15988" lon="45.49664">
        <ele>1904.835241</ele>
        <time>2021-08-13T13:02:44.358Z</time>
      </trkpt>
      <trkpt lat="40.16005" lon="45.49535">
        <ele>1904.574973</ele>
        <time>2021-08-13T13:03:13.365Z</time>
      </trkpt>
      <trkpt lat="40.16011" lon="45.49491">
        <ele>1904.488509</ele>
        <time>2021-08-13T13:03:23.984Z</time>
      </trkpt>
      <trkpt lat="40.16018" lon="45.49439">
        <ele>1904.387903</ele>
        <time>2021-08-13T13:03:36.516Z</time>
      </trkpt>
      <trkpt lat="40.16029" lon="45.49357">
        <ele>1904.766894</ele>
        <time>2021-08-13T13:03:57.154Z</time>
      </trkpt>
      <trkpt lat="40.16031" lon="45.49341">
        <ele>1904.857558</ele>
        <time>2021-08-13T13:04:01.450Z</time>
      </trkpt>
      <trkpt lat="40.16033" lon="45.49325">
        <ele>1904.946974</ele>
        <time>2021-08-13T13:04:05.541Z</time>
      </trkpt>
      <trkpt lat="40.16115" lon="45.48691">
        <ele>1909.072059</ele>
        <time>2021-08-13T13:07:02.440Z</time>
      </trkpt>
      <trkpt lat="40.16119" lon="45.4866">
        <ele>1909.441914</ele>
        <time>2021-08-13T13:07:11.635Z</time>
      </trkpt>
      <trkpt lat="40.16216" lon="45.47933">
        <ele>1917.97845</ele>
        <time>2021-08-13T13:11:00.674Z</time>
      </trkpt>
      <trkpt lat="40.16222" lon="45.47878">
        <ele>1918.406499</ele>
        <time>2021-08-13T13:11:15.892Z</time>
      </trkpt>
      <trkpt lat="40.16229" lon="45.47812">
        <ele>1918.927996</ele>
        <time>2021-08-13T13:11:33.018Z</time>
      </trkpt>
      <trkpt lat="40.16232" lon="45.47784">
        <ele>1918.957631</ele>
        <time>2021-08-13T13:11:40.058Z</time>
      </trkpt>
      <trkpt lat="40.16264" lon="45.47491">
        <ele>1918.686714</ele>
        <time>2021-08-13T13:12:46.375Z</time>
      </trkpt>
      <trkpt lat="40.16267" lon="45.4747">
        <ele>1918.722712</ele>
        <time>2021-08-13T13:12:51.787Z</time>
      </trkpt>
      <trkpt lat="40.16302" lon="45.47161">
        <ele>1919.671638</ele>
        <time>2021-08-13T13:14:14.441Z</time>
      </trkpt>
      <trkpt lat="40.16304" lon="45.47142">
        <ele>1919.750329</ele>
        <time>2021-08-13T13:14:19.269Z</time>
      </trkpt>
      <trkpt lat="40.16321" lon="45.47002">
        <ele>1920.043584</ele>
        <time>2021-08-13T13:14:54.372Z</time>
      </trkpt>
      <trkpt lat="40.16347" lon="45.46787">
        <ele>1920.40623</ele>
        <time>2021-08-13T13:15:47.360Z</time>
      </trkpt>
      <trkpt lat="40.1635" lon="45.46764">
        <ele>1920.45737</ele>
        <time>2021-08-13T13:15:53.421Z</time>
      </trkpt>
      <trkpt lat="40.1636" lon="45.46676">
        <ele>1920.649521</ele>
        <time>2021-08-13T13:16:16.301Z</time>
      </trkpt>
      <trkpt lat="40.16364" lon="45.46634">
        <ele>1920.747436</ele>
        <time>2021-08-13T13:16:27.284Z</time>
      </trkpt>
      <trkpt lat="40.163" lon="45.4665">
        <ele>1921.013219</ele>
        <time>2021-08-13T13:16:49.701Z</time>
      </trkpt>
      <trkpt lat="40.16285" lon="45.4663">
        <ele>1921.099669</ele>
        <time>2021-08-13T13:16:57.126Z</time>
      </trkpt>
      <trkpt lat="40.16261" lon="45.46583">
        <ele>1921.274407</ele>
        <time>2021-08-13T13:17:12.193Z</time>
      </trkpt>
      <trkpt lat="40.16301" lon="45.46559">
        <ele>1921.451975</ele>
        <time>2021-08-13T13:17:27.606Z</time>
      </trkpt>
      <trkpt lat="40.16289" lon="45.46528">
        <ele>1921.581096</ele>
        <time>2021-08-13T13:17:37.162Z</time>
      </trkpt>
      <trkpt lat="40.16223" lon="45.46336">
        <ele>1922.347382</ele>
        <time>2021-08-13T13:18:33.833Z</time>
      </trkpt>
      <trkpt lat="40.16188" lon="45.46223">
        <ele>1922.564764</ele>
        <time>2021-08-13T13:19:06.002Z</time>
      </trkpt>
      <trkpt lat="40.16178" lon="45.46225">
        <ele>1922.588435</ele>
        <time>2021-08-13T13:19:09.464Z</time>
      </trkpt>
      <trkpt lat="40.16036" lon="45.45813">
        <ele>1923.086882</ele>
        <time>2021-08-13T13:21:00.845Z</time>
      </trkpt>
      <trkpt lat="40.15912" lon="45.45439">
        <ele>1925.871448</ele>
        <time>2021-08-13T13:22:59.605Z</time>
      </trkpt>
      <trkpt lat="40.15873" lon="45.45323">
        <ele>1926.984332</ele>
        <time>2021-08-13T13:23:38.558Z</time>
      </trkpt>
      <trkpt lat="40.15752" lon="45.44972">
        <ele>1929.607701</ele>
        <time>2021-08-13T13:25:29.402Z</time>
      </trkpt>
      <trkpt lat="40.15709" lon="45.44988">
        <ele>1929.909952</ele>
        <time>2021-08-13T13:25:45.150Z</time>
      </trkpt>
      <trkpt lat="40.15679" lon="45.44841">
        <ele>1930.587069</ele>
        <time>2021-08-13T13:26:24.625Z</time>
      </trkpt>
      <trkpt lat="40.1568" lon="45.44718">
        <ele>1931.05109</ele>
        <time>2021-08-13T13:26:56.477Z</time>
      </trkpt>
      <trkpt lat="40.15687" lon="45.44685">
        <ele>1931.181081</ele>
        <time>2021-08-13T13:27:05.440Z</time>
      </trkpt>
      <trkpt lat="40.15654" lon="45.44563">
        <ele>1931.739839</ele>
        <time>2021-08-13T13:27:39.133Z</time>
      </trkpt>
      <trkpt lat="40.15632" lon="45.44452">
        <ele>1932.226408</ele>
        <time>2021-08-13T13:28:09.650Z</time>
      </trkpt>
      <trkpt lat="40.15582" lon="45.44198">
        <ele>1932.94123</ele>
        <time>2021-08-13T13:29:16.873Z</time>
      </trkpt>
      <trkpt lat="40.15489" lon="45.43947">
        <ele>1933.338067</ele>
        <time>2021-08-13T13:30:22.428Z</time>
      </trkpt>
      <trkpt lat="40.15467" lon="45.43885">
        <ele>1933.653083</ele>
        <time>2021-08-13T13:30:40.261Z</time>
      </trkpt>
      <trkpt lat="40.1546" lon="45.43865">
        <ele>1933.753427</ele>
        <time>2021-08-13T13:30:46.202Z</time>
      </trkpt>
      <trkpt lat="40.15457" lon="45.43854">
        <ele>1933.803064</ele>
        <time>2021-08-13T13:30:49.366Z</time>
      </trkpt>
      <trkpt lat="40.1544" lon="45.43796">
        <ele>1934.131286</ele>
        <time>2021-08-13T13:31:08.045Z</time>
      </trkpt>
      <trkpt lat="40.15416" lon="45.43705">
        <ele>1934.998508</ele>
        <time>2021-08-13T13:31:37.184Z</time>
      </trkpt>
      <trkpt lat="40.15396" lon="45.43628">
        <ele>1935.73649</ele>
        <time>2021-08-13T13:32:00.394Z</time>
      </trkpt>
      <trkpt lat="40.15388" lon="45.43598">
        <ele>1936.022004</ele>
        <time>2021-08-13T13:32:09.296Z</time>
      </trkpt>
      <trkpt lat="40.15366" lon="45.43515">
        <ele>1936.51021</ele>
        <time>2021-08-13T13:32:33.914Z</time>
      </trkpt>
      <trkpt lat="40.15337" lon="45.43403">
        <ele>1937.077852</ele>
        <time>2021-08-13T13:33:05.014Z</time>
      </trkpt>
      <trkpt lat="40.15331" lon="45.43357">
        <ele>1937.297093</ele>
        <time>2021-08-13T13:33:16.285Z</time>
      </trkpt>
      <trkpt lat="40.15315" lon="45.43248">
        <ele>1937.412601</ele>
        <time>2021-08-13T13:33:43.558Z</time>
      </trkpt>
      <trkpt lat="40.15303" lon="45.43164">
        <ele>1937.5021</ele>
        <time>2021-08-13T13:34:04.994Z</time>
      </trkpt>
      <trkpt lat="40.15302" lon="45.43148">
        <ele>1937.518952</ele>
        <time>2021-08-13T13:34:08.750Z</time>
      </trkpt>
      <trkpt lat="40.15293" lon="45.43042">
        <ele>1937.370125</ele>
        <time>2021-08-13T13:34:33.655Z</time>
      </trkpt>
      <trkpt lat="40.15292" lon="45.42924">
        <ele>1937.131939</ele>
        <time>2021-08-13T13:35:00.384Z</time>
      </trkpt>
      <trkpt lat="40.15287" lon="45.4281">
        <ele>1936.721736</ele>
        <time>2021-08-13T13:35:25.596Z</time>
      </trkpt>
      <trkpt lat="40.15281" lon="45.42702">
        <ele>1936.26886</ele>
        <time>2021-08-13T13:35:48.812Z</time>
      </trkpt>
      <trkpt lat="40.15264" lon="45.42582">
        <ele>1935.951422</ele>
        <time>2021-08-13T13:36:15.815Z</time>
      </trkpt>
      <trkpt lat="40.15254" lon="45.42517">
        <ele>1935.843625</ele>
        <time>2021-08-13T13:36:30.754Z</time>
      </trkpt>
      <trkpt lat="40.15139" lon="45.41897">
        <ele>1935.958651</ele>
        <time>2021-08-13T13:39:06.528Z</time>
      </trkpt>
      <trkpt lat="40.15136" lon="45.41879">
        <ele>1935.918222</ele>
        <time>2021-08-13T13:39:10.834Z</time>
      </trkpt>
      <trkpt lat="40.15073" lon="45.41601">
        <ele>1935.063252</ele>
        <time>2021-08-13T13:40:14.320Z</time>
      </trkpt>
      <trkpt lat="40.15061" lon="45.41546">
        <ele>1934.848252</ele>
        <time>2021-08-13T13:40:27.062Z</time>
      </trkpt>
      <trkpt lat="40.15037" lon="45.41433">
        <ele>1934.591933</ele>
        <time>2021-08-13T13:40:53.419Z</time>
      </trkpt>
      <trkpt lat="40.15031" lon="45.41411">
        <ele>1934.552896</ele>
        <time>2021-08-13T13:40:58.728Z</time>
      </trkpt>
      <trkpt lat="40.14976" lon="45.41187">
        <ele>1934.31272</ele>
        <time>2021-08-13T13:41:53.970Z</time>
      </trkpt>
      <trkpt lat="40.14961" lon="45.41125">
        <ele>1934.292259</ele>
        <time>2021-08-13T13:42:09.759Z</time>
      </trkpt>
      <trkpt lat="40.149" lon="45.40884">
        <ele>1934.212505</ele>
        <time>2021-08-13T13:43:09.647Z</time>
      </trkpt>
      <trkpt lat="40.1467" lon="45.39946">
        <ele>1934.146197</ele>
        <time>2021-08-13T13:47:04.185Z</time>
      </trkpt>
      <trkpt lat="40.14661" lon="45.39909">
        <ele>1934.17904</ele>
        <time>2021-08-13T13:47:13.508Z</time>
      </trkpt>
      <trkpt lat="40.1464" lon="45.39829">
        <ele>1934.250515</ele>
        <time>2021-08-13T13:47:34.042Z</time>
      </trkpt>
      <trkpt lat="40.1454" lon="45.3931">
        <ele>1934.667525</ele>
        <time>2021-08-13T13:49:45.346Z</time>
      </trkpt>
      <trkpt lat="40.14477" lon="45.38924">
        <ele>1933.424237</ele>
        <time>2021-08-13T13:51:12.583Z</time>
      </trkpt>
      <trkpt lat="40.14458" lon="45.38743">
        <ele>1932.681606</ele>
        <time>2021-08-13T13:51:53.324Z</time>
      </trkpt>
      <trkpt lat="40.14446" lon="45.38589">
        <ele>1931.911049</ele>
        <time>2021-08-13T13:52:26.577Z</time>
      </trkpt>
      <trkpt lat="40.14421" lon="45.38264">
        <ele>1930.003543</ele>
        <time>2021-08-13T13:53:34.535Z</time>
      </trkpt>
      <trkpt lat="40.14411" lon="45.38154">
        <ele>1929.7599</ele>
        <time>2021-08-13T13:54:00.509Z</time>
      </trkpt>
      <trkpt lat="40.144" lon="45.38031">
        <ele>1929.697387</ele>
        <time>2021-08-13T13:54:31.762Z</time>
      </trkpt>
      <trkpt lat="40.14339" lon="45.37351">
        <ele>1930.089248</ele>
        <time>2021-08-13T13:57:16.809Z</time>
      </trkpt>
      <trkpt lat="40.14347" lon="45.37225">
        <ele>1930.128176</ele>
        <time>2021-08-13T13:57:46.791Z</time>
      </trkpt>
      <trkpt lat="40.14376" lon="45.36943">
        <ele>1930.316777</ele>
        <time>2021-08-13T13:58:55.790Z</time>
      </trkpt>
      <trkpt lat="40.14391" lon="45.36866">
        <ele>1930.352522</ele>
        <time>2021-08-13T13:59:15.533Z</time>
      </trkpt>
      <trkpt lat="40.14422" lon="45.36766">
        <ele>1930.396938</ele>
        <time>2021-08-13T13:59:41.747Z</time>
      </trkpt>
      <trkpt lat="40.14541" lon="45.36446">
        <ele>1930.22919</ele>
        <time>2021-08-13T14:01:04.438Z</time>
      </trkpt>
      <trkpt lat="40.14557" lon="45.3639">
        <ele>1930.276274</ele>
        <time>2021-08-13T14:01:18.690Z</time>
      </trkpt>
      <trkpt lat="40.14569" lon="45.36349">
        <ele>1930.311183</ele>
        <time>2021-08-13T14:01:29.435Z</time>
      </trkpt>
      <trkpt lat="40.14575" lon="45.3632">
        <ele>1930.334663</ele>
        <time>2021-08-13T14:01:36.615Z</time>
      </trkpt>
      <trkpt lat="40.14593" lon="45.36244">
        <ele>1930.488381</ele>
        <time>2021-08-13T14:01:57.447Z</time>
      </trkpt>
      <trkpt lat="40.1463" lon="45.36088">
        <ele>1930.963381</ele>
        <time>2021-08-13T14:02:38.627Z</time>
      </trkpt>
      <trkpt lat="40.14645" lon="45.36022">
        <ele>1931.122355</ele>
        <time>2021-08-13T14:02:56.879Z</time>
      </trkpt>
      <trkpt lat="40.14655" lon="45.35971">
        <ele>1931.218441</ele>
        <time>2021-08-13T14:03:10.534Z</time>
      </trkpt>
      <trkpt lat="40.14667" lon="45.35861">
        <ele>1931.420568</ele>
        <time>2021-08-13T14:03:37.681Z</time>
      </trkpt>
      <trkpt lat="40.14673" lon="45.35767">
        <ele>1931.427773</ele>
        <time>2021-08-13T14:03:59.687Z</time>
      </trkpt>
      <trkpt lat="40.14681" lon="45.35625">
        <ele>1931.307807</ele>
        <time>2021-08-13T14:04:32.676Z</time>
      </trkpt>
      <trkpt lat="40.14681" lon="45.35612">
        <ele>1931.297314</ele>
        <time>2021-08-13T14:04:35.451Z</time>
      </trkpt>
      <trkpt lat="40.14683" lon="45.35583">
        <ele>1931.296536</ele>
        <time>2021-08-13T14:04:42.457Z</time>
      </trkpt>
      <trkpt lat="40.14691" lon="45.35426">
        <ele>1931.515964</ele>
        <time>2021-08-13T14:05:20.751Z</time>
      </trkpt>
      <trkpt lat="40.14652" lon="45.35129">
        <ele>1932.183075</ele>
        <time>2021-08-13T14:06:38.030Z</time>
      </trkpt>
      <trkpt lat="40.14597" lon="45.34721">
        <ele>1932.016613</ele>
        <time>2021-08-13T14:08:14.984Z</time>
      </trkpt>
      <trkpt lat="40.14561" lon="45.34085">
        <ele>1932.378131</ele>
        <time>2021-08-13T14:10:51.861Z</time>
      </trkpt>
      <trkpt lat="40.14545" lon="45.33775">
        <ele>1930.914499</ele>
        <time>2021-08-13T14:11:58.088Z</time>
      </trkpt>
      <trkpt lat="40.14528" lon="45.3346">
        <ele>1928.589129</ele>
        <time>2021-08-13T14:13:03.509Z</time>
      </trkpt>
      <trkpt lat="40.14519" lon="45.33267">
        <ele>1927.061732</ele>
        <time>2021-08-13T14:13:43.495Z</time>
      </trkpt>
      <trkpt lat="40.14518" lon="45.33244">
        <ele>1926.874256</ele>
        <time>2021-08-13T14:13:48.232Z</time>
      </trkpt>
      <trkpt lat="40.1451" lon="45.33143">
        <ele>1925.994735</ele>
        <time>2021-08-13T14:14:08.815Z</time>
      </trkpt>
      <trkpt lat="40.14485" lon="45.32755">
        <ele>1922.973369</ele>
        <time>2021-08-13T14:15:28.233Z</time>
      </trkpt>
      <trkpt lat="40.14484" lon="45.32695">
        <ele>1922.939878</ele>
        <time>2021-08-13T14:15:42.057Z</time>
      </trkpt>
      <trkpt lat="40.14484" lon="45.32695">
        <ele>1922.939878</ele>
        <time>2021-08-13T14:15:42.060Z</time>
      </trkpt>
      <trkpt lat="40.14421" lon="45.327">
        <ele>1922.894323</ele>
        <time>2021-08-13T14:16:15.203Z</time>
      </trkpt>
      <trkpt lat="40.14413" lon="45.32551">
        <ele>1923.182493</ele>
        <time>2021-08-13T14:16:55.538Z</time>
      </trkpt>
      <trkpt lat="40.14416" lon="45.3254">
        <ele>1923.228273</ele>
        <time>2021-08-13T14:16:59.039Z</time>
      </trkpt>
      <trkpt lat="40.14413" lon="45.32521">
        <ele>1923.296154</ele>
        <time>2021-08-13T14:17:04.001Z</time>
      </trkpt>
      <trkpt lat="40.14403" lon="45.3233">
        <ele>1924.02535</ele>
        <time>2021-08-13T14:17:55.317Z</time>
      </trkpt>
      <trkpt lat="40.14394" lon="45.32315">
        <ele>1924.104076</ele>
        <time>2021-08-13T14:18:00.585Z</time>
      </trkpt>
      <trkpt lat="40.14388" lon="45.32313">
        <ele>1924.13665</ele>
        <time>2021-08-13T14:18:02.863Z</time>
      </trkpt>
      <trkpt lat="40.1436" lon="45.32339">
        <ele>1924.321739</ele>
        <time>2021-08-13T14:18:15.017Z</time>
      </trkpt>
      <trkpt lat="40.14328" lon="45.3236">
        <ele>1924.511468</ele>
        <time>2021-08-13T14:18:27.620Z</time>
      </trkpt>
      <trkpt lat="40.14294" lon="45.32381">
        <ele>1924.668884</ele>
        <time>2021-08-13T14:18:40.470Z</time>
      </trkpt>
      <trkpt lat="40.142" lon="45.32433">
        <ele>1924.614391</ele>
        <time>2021-08-13T14:19:13.493Z</time>
      </trkpt>
      <trkpt lat="40.14247" lon="45.32104">
        <ele>1923.722165</ele>
        <time>2021-08-13T14:20:29.795Z</time>
      </trkpt>
      <trkpt lat="40.14193" lon="45.32088">
        <ele>1924.001077</ele>
        <time>2021-08-13T14:20:48.325Z</time>
      </trkpt>
      <trkpt lat="40.14134" lon="45.3207">
        <ele>1924.309015</ele>
        <time>2021-08-13T14:21:09.959Z</time>
      </trkpt>
      <trkpt lat="40.14076" lon="45.32053">
        <ele>1924.6117</ele>
        <time>2021-08-13T14:21:32.416Z</time>
      </trkpt>
      <trkpt lat="40.13961" lon="45.32026">
        <ele>1925.778344</ele>
        <time>2021-08-13T14:22:17.489Z</time>
      </trkpt>
      <trkpt lat="40.13864" lon="45.31998">
        <ele>1926.664416</ele>
        <time>2021-08-13T14:22:54.806Z</time>
      </trkpt>
      <trkpt lat="40.13816" lon="45.31984">
        <ele>1927.024259</ele>
        <time>2021-08-13T14:23:12.648Z</time>
      </trkpt>
      <trkpt lat="40.13735" lon="45.31949">
        <ele>1927.645607</ele>
        <time>2021-08-13T14:23:43.460Z</time>
      </trkpt>
      <trkpt lat="40.13744" lon="45.31896">
        <ele>1927.903769</ele>
        <time>2021-08-13T14:23:57.831Z</time>
      </trkpt>
      <trkpt lat="40.13759" lon="45.31806">
        <ele>1928.317586</ele>
        <time>2021-08-13T14:24:21.872Z</time>
      </trkpt>
      <trkpt lat="40.1377" lon="45.31733">
        <ele>1928.653695</ele>
        <time>2021-08-13T14:24:40.952Z</time>
      </trkpt>
      <trkpt lat="40.13729" lon="45.31707">
        <ele>1929.069939</ele>
        <time>2021-08-13T14:24:57.783Z</time>
      </trkpt>
      <trkpt lat="40.1368" lon="45.31656">
        <ele>1929.776412</ele>
        <time>2021-08-13T14:25:21.622Z</time>
      </trkpt>
      <trkpt lat="40.13644" lon="45.31638">
        <ele>1930.214246</ele>
        <time>2021-08-13T14:25:36.891Z</time>
      </trkpt>
      <trkpt lat="40.13603" lon="45.31618">
        <ele>1930.711583</ele>
        <time>2021-08-13T14:25:54.615Z</time>
      </trkpt>
      <trkpt lat="40.13596" lon="45.31615">
        <ele>1930.80455</ele>
        <time>2021-08-13T14:25:57.842Z</time>
      </trkpt>
      <trkpt lat="40.13539" lon="45.31593">
        <ele>1931.422245</ele>
        <time>2021-08-13T14:26:21.357Z</time>
      </trkpt>
      <trkpt lat="40.13533" lon="45.3159">
        <ele>1931.484453</ele>
        <time>2021-08-13T14:26:23.731Z</time>
      </trkpt>
      <trkpt lat="40.13476" lon="45.31552">
        <ele>1932.154317</ele>
        <time>2021-08-13T14:26:48.716Z</time>
      </trkpt>
      <trkpt lat="40.13528" lon="45.31346">
        <ele>1933.623209</ele>
        <time>2021-08-13T14:27:48.162Z</time>
      </trkpt>
      <trkpt lat="40.13551" lon="45.31236">
        <ele>1934.509529</ele>
        <time>2021-08-13T14:28:21.361Z</time>
      </trkpt>
      <trkpt lat="40.13577" lon="45.31111">
        <ele>1936.118019</ele>
        <time>2021-08-13T14:29:02.807Z</time>
      </trkpt>
      <trkpt lat="40.13473" lon="45.31017">
        <ele>1938.157605</ele>
        <time>2021-08-13T14:29:57.418Z</time>
      </trkpt>
      <trkpt lat="40.1347" lon="45.31014">
        <ele>1938.216126</ele>
        <time>2021-08-13T14:29:59.560Z</time>
      </trkpt>
      <trkpt lat="40.13411" lon="45.30959">
        <ele>1939.382234</ele>
        <time>2021-08-13T14:30:29.269Z</time>
      </trkpt>
      <trkpt lat="40.13425" lon="45.3091">
        <ele>1939.997241</ele>
        <time>2021-08-13T14:30:44.762Z</time>
      </trkpt>
      <trkpt lat="40.13389" lon="45.30883">
        <ele>1940.385642</ele>
        <time>2021-08-13T14:31:00.615Z</time>
      </trkpt>
      <trkpt lat="40.13245" lon="45.30777">
        <ele>1942.114902</ele>
        <time>2021-08-13T14:32:01.614Z</time>
      </trkpt>
      <trkpt lat="40.13256" lon="45.30664">
        <ele>1943.47772</ele>
        <time>2021-08-13T14:32:37.623Z</time>
      </trkpt>
      <trkpt lat="40.13265" lon="45.30577">
        <ele>1944.546471</ele>
        <time>2021-08-13T14:33:06.813Z</time>
      </trkpt>
      <trkpt lat="40.13271" lon="45.30507">
        <ele>1945.802999</ele>
        <time>2021-08-13T14:33:29.841Z</time>
      </trkpt>
      <trkpt lat="40.1328" lon="45.30429">
        <ele>1947.206652</ele>
        <time>2021-08-13T14:33:57.238Z</time>
      </trkpt>
      <trkpt lat="40.13292" lon="45.30363">
        <ele>1948.412447</ele>
        <time>2021-08-13T14:34:21.316Z</time>
      </trkpt>
      <trkpt lat="40.1331" lon="45.30323">
        <ele>1949.566943</ele>
        <time>2021-08-13T14:34:38.567Z</time>
      </trkpt>
      <trkpt lat="40.13093" lon="45.30216">
        <ele>1957.818737</ele>
        <time>2021-08-13T14:36:42.866Z</time>
      </trkpt>
      <trkpt lat="40.12989" lon="45.30178">
        <ele>1961.58544</ele>
        <time>2021-08-13T14:37:39.055Z</time>
      </trkpt>
      <trkpt lat="40.12956" lon="45.30147">
        <ele>1962.658428</ele>
        <time>2021-08-13T14:37:58.196Z</time>
      </trkpt>
      <trkpt lat="40.12944" lon="45.30123">
        <ele>1963.236658</ele>
        <time>2021-08-13T14:38:08.992Z</time>
      </trkpt>
      <trkpt lat="40.1295" lon="45.30017">
        <ele>1965.40346</ele>
        <time>2021-08-13T14:38:46.969Z</time>
      </trkpt>
      <trkpt lat="40.12955" lon="45.30006">
        <ele>1965.66352</ele>
        <time>2021-08-13T14:38:50.799Z</time>
      </trkpt>
      <trkpt lat="40.12919" lon="45.29974">
        <ele>1966.85183</ele>
        <time>2021-08-13T14:39:09.776Z</time>
      </trkpt>
      <trkpt lat="40.12818" lon="45.29858">
        <ele>1970.623367</ele>
        <time>2021-08-13T14:40:12.588Z</time>
      </trkpt>
      <trkpt lat="40.1279" lon="45.29817">
        <ele>1972.006859</ele>
        <time>2021-08-13T14:40:33.196Z</time>
      </trkpt>
      <trkpt lat="40.12696" lon="45.2966">
        <ele>1977.90002</ele>
        <time>2021-08-13T14:41:55.061Z</time>
      </trkpt>
      <trkpt lat="40.12649" lon="45.29591">
        <ele>1980.64048</ele>
        <time>2021-08-13T14:42:34.325Z</time>
      </trkpt>
      <trkpt lat="40.12515" lon="45.29435">
        <ele>1986.924197</ele>
        <time>2021-08-13T14:44:07.265Z</time>
      </trkpt>
      <trkpt lat="40.12489" lon="45.2941">
        <ele>1987.828792</ele>
        <time>2021-08-13T14:44:21.817Z</time>
      </trkpt>
      <trkpt lat="40.12432" lon="45.29354">
        <ele>1989.816763</ele>
        <time>2021-08-13T14:44:53.133Z</time>
      </trkpt>
      <trkpt lat="40.12313" lon="45.29266">
        <ele>1992.683865</ele>
        <time>2021-08-13T14:45:50.642Z</time>
      </trkpt>
      <trkpt lat="40.12252" lon="45.29225">
        <ele>1994.044707</ele>
        <time>2021-08-13T14:46:20.328Z</time>
      </trkpt>
      <trkpt lat="40.12177" lon="45.29189">
        <ele>1995.450151</ele>
        <time>2021-08-13T14:46:53.081Z</time>
      </trkpt>
      <trkpt lat="40.12048" lon="45.29137">
        <ele>1998.136617</ele>
        <time>2021-08-13T14:47:47.201Z</time>
      </trkpt>
      <trkpt lat="40.12013" lon="45.29123">
        <ele>1999.046699</ele>
        <time>2021-08-13T14:48:03.415Z</time>
      </trkpt>
      <trkpt lat="40.11975" lon="45.29109">
        <ele>2000.001903</ele>
        <time>2021-08-13T14:48:21.214Z</time>
      </trkpt>
      <trkpt lat="40.11905" lon="45.29088">
        <ele>2001.896215</ele>
        <time>2021-08-13T14:48:55.683Z</time>
      </trkpt>
      <trkpt lat="40.11826" lon="45.29063">
        <ele>2004.787939</ele>
        <time>2021-08-13T14:49:37.969Z</time>
      </trkpt>
      <trkpt lat="40.11751" lon="45.2904">
        <ele>2007.532691</ele>
        <time>2021-08-13T14:50:17.563Z</time>
      </trkpt>
      <trkpt lat="40.11699" lon="45.29025">
        <ele>2009.600777</ele>
        <time>2021-08-13T14:50:44.530Z</time>
      </trkpt>
      <trkpt lat="40.11626" lon="45.2899">
        <ele>2012.653171</ele>
        <time>2021-08-13T14:51:25.396Z</time>
      </trkpt>
      <trkpt lat="40.11574" lon="45.28969">
        <ele>2014.812948</ele>
        <time>2021-08-13T14:51:55.355Z</time>
      </trkpt>
      <trkpt lat="40.11411" lon="45.28901">
        <ele>2022.381191</ele>
        <time>2021-08-13T14:53:32.771Z</time>
      </trkpt>
      <trkpt lat="40.11358" lon="45.28879">
        <ele>2024.26176</ele>
        <time>2021-08-13T14:54:02.833Z</time>
      </trkpt>
      <trkpt lat="40.11294" lon="45.28833">
        <ele>2026.523204</ele>
        <time>2021-08-13T14:54:39.222Z</time>
      </trkpt>
      <trkpt lat="40.1117" lon="45.2876">
        <ele>2030.18144</ele>
        <time>2021-08-13T14:55:39.629Z</time>
      </trkpt>
      <trkpt lat="40.11163" lon="45.28756">
        <ele>2030.368937</ele>
        <time>2021-08-13T14:55:43.587Z</time>
      </trkpt>
      <trkpt lat="40.11114" lon="45.28725">
        <ele>2031.631045</ele>
        <time>2021-08-13T14:56:07.390Z</time>
      </trkpt>
      <trkpt lat="40.11044" lon="45.28704">
        <ele>2033.580345</ele>
        <time>2021-08-13T14:56:41.422Z</time>
      </trkpt>
      <trkpt lat="40.10911" lon="45.28664">
        <ele>2037.978876</ele>
        <time>2021-08-13T14:57:50.748Z</time>
      </trkpt>
      <trkpt lat="40.1067" lon="45.28601">
        <ele>2047.14711</ele>
        <time>2021-08-13T15:00:03.411Z</time>
      </trkpt>
      <trkpt lat="40.10462" lon="45.28544">
        <ele>2054.528143</ele>
        <time>2021-08-13T15:01:53.927Z</time>
      </trkpt>
      <trkpt lat="40.10429" lon="45.28535">
        <ele>2055.628129</ele>
        <time>2021-08-13T15:02:10.820Z</time>
      </trkpt>
      <trkpt lat="40.10288" lon="45.28498">
        <ele>2060.262338</ele>
        <time>2021-08-13T15:03:21.527Z</time>
      </trkpt>
      <trkpt lat="40.10146" lon="45.28439">
        <ele>2065.320198</ele>
        <time>2021-08-13T15:04:37.721Z</time>
      </trkpt>
      <trkpt lat="40.1008" lon="45.2842">
        <ele>2067.89302</ele>
        <time>2021-08-13T15:05:13.744Z</time>
      </trkpt>
      <trkpt lat="40.10052" lon="45.2843">
        <ele>2069.003295</ele>
        <time>2021-08-13T15:05:29.970Z</time>
      </trkpt>
      <trkpt lat="40.10016" lon="45.28416">
        <ele>2070.456307</ele>
        <time>2021-08-13T15:05:51.070Z</time>
      </trkpt>
      <trkpt lat="40.09979" lon="45.2841">
        <ele>2072.179104</ele>
        <time>2021-08-13T15:06:12.373Z</time>
      </trkpt>
      <trkpt lat="40.09941" lon="45.28384">
        <ele>2074.158931</ele>
        <time>2021-08-13T15:06:36.589Z</time>
      </trkpt>
      <trkpt lat="40.09894" lon="45.28423">
        <ele>2076.739365</ele>
        <time>2021-08-13T15:07:10.942Z</time>
      </trkpt>
      <trkpt lat="40.09867" lon="45.28454">
        <ele>2078.389395</ele>
        <time>2021-08-13T15:07:32.104Z</time>
      </trkpt>
      <trkpt lat="40.09834" lon="45.28465">
        <ele>2079.839988</ele>
        <time>2021-08-13T15:07:51.477Z</time>
      </trkpt>
      <trkpt lat="40.09807" lon="45.28487">
        <ele>2081.203683</ele>
        <time>2021-08-13T15:08:09.464Z</time>
      </trkpt>
      <trkpt lat="40.09792" lon="45.28503">
        <ele>2082.001517</ele>
        <time>2021-08-13T15:08:21.881Z</time>
      </trkpt>
      <trkpt lat="40.09774" lon="45.28495">
        <ele>2082.827805</ele>
        <time>2021-08-13T15:08:31.627Z</time>
      </trkpt>
      <trkpt lat="40.09715" lon="45.2847">
        <ele>2085.446191</ele>
        <time>2021-08-13T15:09:04.881Z</time>
      </trkpt>
      <trkpt lat="40.09672" lon="45.28455">
        <ele>2086.962299</ele>
        <time>2021-08-13T15:09:27.764Z</time>
      </trkpt>
      <trkpt lat="40.09652" lon="45.28453">
        <ele>2087.537119</ele>
        <time>2021-08-13T15:09:39.422Z</time>
      </trkpt>
      <trkpt lat="40.09621" lon="45.28454">
        <ele>2088.431934</ele>
        <time>2021-08-13T15:09:53.532Z</time>
      </trkpt>
      <trkpt lat="40.09577" lon="45.28465">
        <ele>2089.713664</ele>
        <time>2021-08-13T15:10:13.942Z</time>
      </trkpt>
      <trkpt lat="40.09462" lon="45.28469">
        <ele>2091.545573</ele>
        <time>2021-08-13T15:11:04.223Z</time>
      </trkpt>
      <trkpt lat="40.09416" lon="45.28488">
        <ele>2091.743336</ele>
        <time>2021-08-13T15:11:19.758Z</time>
      </trkpt>
      <trkpt lat="40.09382" lon="45.28492">
        <ele>2091.885333</ele>
        <time>2021-08-13T15:11:29.662Z</time>
      </trkpt>
      <trkpt lat="40.09292" lon="45.28498">
        <ele>2090.974756</ele>
        <time>2021-08-13T15:11:52.993Z</time>
      </trkpt>
      <trkpt lat="40.09221" lon="45.28518">
        <ele>2089.497773</ele>
        <time>2021-08-13T15:12:10.357Z</time>
      </trkpt>
      <trkpt lat="40.09024" lon="45.28633">
        <ele>2084.966031</ele>
        <time>2021-08-13T15:13:02.050Z</time>
      </trkpt>
      <trkpt lat="40.09011" lon="45.2863">
        <ele>2084.684181</ele>
        <time>2021-08-13T15:13:05.366Z</time>
      </trkpt>
      <trkpt lat="40.08997" lon="45.2862">
        <ele>2084.75838</ele>
        <time>2021-08-13T15:13:09.594Z</time>
      </trkpt>
      <trkpt lat="40.08988" lon="45.28607">
        <ele>2085.023627</ele>
        <time>2021-08-13T15:13:12.913Z</time>
      </trkpt>
      <trkpt lat="40.08972" lon="45.28569">
        <ele>2085.6871</ele>
        <time>2021-08-13T15:13:22.852Z</time>
      </trkpt>
      <trkpt lat="40.08968" lon="45.28561">
        <ele>2085.826885</ele>
        <time>2021-08-13T15:13:25.401Z</time>
      </trkpt>
      <trkpt lat="40.08963" lon="45.28542">
        <ele>2086.130786</ele>
        <time>2021-08-13T15:13:32.206Z</time>
      </trkpt>
      <trkpt lat="40.08926" lon="45.28434">
        <ele>2087.922575</ele>
        <time>2021-08-13T15:14:12.729Z</time>
      </trkpt>
      <trkpt lat="40.08901" lon="45.28417">
        <ele>2089.632666</ele>
        <time>2021-08-13T15:14:32.531Z</time>
      </trkpt>
      <trkpt lat="40.08876" lon="45.28395">
        <ele>2092.110115</ele>
        <time>2021-08-13T15:14:56.634Z</time>
      </trkpt>
      <trkpt lat="40.0885" lon="45.28367">
        <ele>2094.899696</ele>
        <time>2021-08-13T15:15:24.150Z</time>
      </trkpt>
      <trkpt lat="40.08825" lon="45.28329">
        <ele>2098.138516</ele>
        <time>2021-08-13T15:15:56.785Z</time>
      </trkpt>
      <trkpt lat="40.08812" lon="45.283">
        <ele>2100.245494</ele>
        <time>2021-08-13T15:16:19.443Z</time>
      </trkpt>
      <trkpt lat="40.08772" lon="45.28295">
        <ele>2103.592282</ele>
        <time>2021-08-13T15:16:53.965Z</time>
      </trkpt>
      <trkpt lat="40.08531" lon="45.28364">
        <ele>2124.171553</ele>
        <time>2021-08-13T15:20:10.960Z</time>
      </trkpt>
      <trkpt lat="40.08514" lon="45.28357">
        <ele>2125.42349</ele>
        <time>2021-08-13T15:20:21.198Z</time>
      </trkpt>
      <trkpt lat="40.08509" lon="45.28351">
        <ele>2125.885815</ele>
        <time>2021-08-13T15:20:28.085Z</time>
      </trkpt>
      <trkpt lat="40.08505" lon="45.28345">
        <ele>2126.37354</ele>
        <time>2021-08-13T15:20:32.498Z</time>
      </trkpt>
      <trkpt lat="40.08493" lon="45.28299">
        <ele>2129.006909</ele>
        <time>2021-08-13T15:20:56.868Z</time>
      </trkpt>
      <trkpt lat="40.08494" lon="45.28276">
        <ele>2130.25174</ele>
        <time>2021-08-13T15:21:06.422Z</time>
      </trkpt>
      <trkpt lat="40.08501" lon="45.28251">
        <ele>2131.735171</ele>
        <time>2021-08-13T15:21:21.229Z</time>
      </trkpt>
      <trkpt lat="40.08514" lon="45.2823">
        <ele>2132.888058</ele>
        <time>2021-08-13T15:21:32.815Z</time>
      </trkpt>
      <trkpt lat="40.08531" lon="45.28215">
        <ele>2134.016518</ele>
        <time>2021-08-13T15:21:46.396Z</time>
      </trkpt>
      <trkpt lat="40.0866" lon="45.28127">
        <ele>2142.031806</ele>
        <time>2021-08-13T15:23:13.456Z</time>
      </trkpt>
      <trkpt lat="40.08661" lon="45.28112">
        <ele>2142.878582</ele>
        <time>2021-08-13T15:23:21.454Z</time>
      </trkpt>
      <trkpt lat="40.08651" lon="45.28097">
        <ele>2143.96287</ele>
        <time>2021-08-13T15:23:31.750Z</time>
      </trkpt>
      <trkpt lat="40.08573" lon="45.2809">
        <ele>2149.449101</ele>
        <time>2021-08-13T15:24:26.180Z</time>
      </trkpt>
      <trkpt lat="40.08398" lon="45.28102">
        <ele>2162.930922</ele>
        <time>2021-08-13T15:26:39.352Z</time>
      </trkpt>
      <trkpt lat="40.08262" lon="45.28102">
        <ele>2174.050672</ele>
        <time>2021-08-13T15:28:24.517Z</time>
      </trkpt>
      <trkpt lat="40.0813" lon="45.2805">
        <ele>2185.424191</ele>
        <time>2021-08-13T15:30:12.553Z</time>
      </trkpt>
      <trkpt lat="40.07837" lon="45.27874">
        <ele>2210.108351</ele>
        <time>2021-08-13T15:34:14.542Z</time>
      </trkpt>
      <trkpt lat="40.07751" lon="45.27857">
        <ele>2214.474588</ele>
        <time>2021-08-13T15:35:07.077Z</time>
      </trkpt>
      <trkpt lat="40.07687" lon="45.27829">
        <ele>2217.445942</ele>
        <time>2021-08-13T15:35:42.862Z</time>
      </trkpt>
      <trkpt lat="40.07641" lon="45.27803">
        <ele>2219.561784</ele>
        <time>2021-08-13T15:36:07.411Z</time>
      </trkpt>
      <trkpt lat="40.07332" lon="45.27613">
        <ele>2229.993736</ele>
        <time>2021-08-13T15:38:52.299Z</time>
      </trkpt>
      <trkpt lat="40.07124" lon="45.27422">
        <ele>2235.784752</ele>
        <time>2021-08-13T15:40:49.811Z</time>
      </trkpt>
      <trkpt lat="40.06917" lon="45.27291">
        <ele>2236.287152</ele>
        <time>2021-08-13T15:42:01.645Z</time>
      </trkpt>
      <trkpt lat="40.06877" lon="45.27249">
        <ele>2235.990845</ele>
        <time>2021-08-13T15:42:14.940Z</time>
      </trkpt>
      <trkpt lat="40.06854" lon="45.27206">
        <ele>2235.038884</ele>
        <time>2021-08-13T15:42:25.157Z</time>
      </trkpt>
      <trkpt lat="40.06823" lon="45.27159">
        <ele>2233.417874</ele>
        <time>2021-08-13T15:42:36.536Z</time>
      </trkpt>
      <trkpt lat="40.06805" lon="45.27123">
        <ele>2232.293452</ele>
        <time>2021-08-13T15:42:43.765Z</time>
      </trkpt>
      <trkpt lat="40.06796" lon="45.27041">
        <ele>2230.126701</ele>
        <time>2021-08-13T15:42:57.485Z</time>
      </trkpt>
      <trkpt lat="40.06783" lon="45.26992">
        <ele>2228.217236</ele>
        <time>2021-08-13T15:43:05.968Z</time>
      </trkpt>
      <trkpt lat="40.06772" lon="45.26976">
        <ele>2227.340735</ele>
        <time>2021-08-13T15:43:09.356Z</time>
      </trkpt>
      <trkpt lat="40.06751" lon="45.26965">
        <ele>2226.153774</ele>
        <time>2021-08-13T15:43:14.114Z</time>
      </trkpt>
      <trkpt lat="40.0673" lon="45.26956">
        <ele>2224.963652</ele>
        <time>2021-08-13T15:43:18.779Z</time>
      </trkpt>
      <trkpt lat="40.06575" lon="45.26928">
        <ele>2218.224115</ele>
        <time>2021-08-13T15:43:51.149Z</time>
      </trkpt>
      <trkpt lat="40.06552" lon="45.26925">
        <ele>2217.558263</ele>
        <time>2021-08-13T15:43:56.355Z</time>
      </trkpt>
      <trkpt lat="40.0653" lon="45.26909">
        <ele>2216.836665</ele>
        <time>2021-08-13T15:44:02.159Z</time>
      </trkpt>
      <trkpt lat="40.0651" lon="45.26892">
        <ele>2216.116212</ele>
        <time>2021-08-13T15:44:08.532Z</time>
      </trkpt>
      <trkpt lat="40.06447" lon="45.26766">
        <ele>2216.999552</ele>
        <time>2021-08-13T15:44:46.666Z</time>
      </trkpt>
      <trkpt lat="40.06414" lon="45.26713">
        <ele>2218.483263</ele>
        <time>2021-08-13T15:45:15.566Z</time>
      </trkpt>
      <trkpt lat="40.06257" lon="45.26507">
        <ele>2228.104961</ele>
        <time>2021-08-13T15:47:27.575Z</time>
      </trkpt>
      <trkpt lat="40.06236" lon="45.2649">
        <ele>2229.05439</ele>
        <time>2021-08-13T15:47:40.663Z</time>
      </trkpt>
      <trkpt lat="40.06196" lon="45.26469">
        <ele>2230.410193</ele>
        <time>2021-08-13T15:48:03.378Z</time>
      </trkpt>
      <trkpt lat="40.06172" lon="45.2646">
        <ele>2231.167086</ele>
        <time>2021-08-13T15:48:15.157Z</time>
      </trkpt>
      <trkpt lat="40.06162" lon="45.26455">
        <ele>2231.514501</ele>
        <time>2021-08-13T15:48:20.796Z</time>
      </trkpt>
      <trkpt lat="40.05981" lon="45.26406">
        <ele>2236.99524</ele>
        <time>2021-08-13T15:49:42.289Z</time>
      </trkpt>
      <trkpt lat="40.05865" lon="45.26373">
        <ele>2241.219874</ele>
        <time>2021-08-13T15:50:40.940Z</time>
      </trkpt>
      <trkpt lat="40.05848" lon="45.26368">
        <ele>2242.151033</ele>
        <time>2021-08-13T15:50:51.408Z</time>
      </trkpt>
      <trkpt lat="40.05814" lon="45.26352">
        <ele>2243.992535</ele>
        <time>2021-08-13T15:51:12.175Z</time>
      </trkpt>
      <trkpt lat="40.05787" lon="45.26331">
        <ele>2245.638235</ele>
        <time>2021-08-13T15:51:31.635Z</time>
      </trkpt>
      <trkpt lat="40.05682" lon="45.26234">
        <ele>2253.300397</ele>
        <time>2021-08-13T15:53:00.416Z</time>
      </trkpt>
      <trkpt lat="40.05634" lon="45.26181">
        <ele>2257.391393</ele>
        <time>2021-08-13T15:53:44.306Z</time>
      </trkpt>
      <trkpt lat="40.05608" lon="45.26135">
        <ele>2260.286622</ele>
        <time>2021-08-13T15:54:12.740Z</time>
      </trkpt>
      <trkpt lat="40.05596" lon="45.26112">
        <ele>2261.54205</ele>
        <time>2021-08-13T15:54:26.645Z</time>
      </trkpt>
      <trkpt lat="40.05512" lon="45.25957">
        <ele>2270.054283</ele>
        <time>2021-08-13T15:55:59.034Z</time>
      </trkpt>
      <trkpt lat="40.05503" lon="45.2594">
        <ele>2270.973256</ele>
        <time>2021-08-13T15:56:09.369Z</time>
      </trkpt>
      <trkpt lat="40.05485" lon="45.25917">
        <ele>2272.704674</ele>
        <time>2021-08-13T15:56:24.197Z</time>
      </trkpt>
      <trkpt lat="40.05434" lon="45.25879">
        <ele>2276.78099</ele>
        <time>2021-08-13T15:57:02.863Z</time>
      </trkpt>
      <trkpt lat="40.05202" lon="45.2573">
        <ele>2296.110227</ele>
        <time>2021-08-13T16:00:16.802Z</time>
      </trkpt>
      <trkpt lat="40.05123" lon="45.25694">
        <ele>2301.876511</ele>
        <time>2021-08-13T16:01:19.400Z</time>
      </trkpt>
      <trkpt lat="40.04932" lon="45.25626">
        <ele>2312.441715</ele>
        <time>2021-08-13T16:03:28.113Z</time>
      </trkpt>
      <trkpt lat="40.04907" lon="45.25622">
        <ele>2313.282921</ele>
        <time>2021-08-13T16:03:40.334Z</time>
      </trkpt>
      <trkpt lat="40.0482" lon="45.25614">
        <ele>2315.311778</ele>
        <time>2021-08-13T16:04:12.643Z</time>
      </trkpt>
      <trkpt lat="40.04758" lon="45.25605">
        <ele>2313.640425</ele>
        <time>2021-08-13T16:04:28.368Z</time>
      </trkpt>
      <trkpt lat="40.04713" lon="45.25603">
        <ele>2312.470357</ele>
        <time>2021-08-13T16:04:38.305Z</time>
      </trkpt>
      <trkpt lat="40.04704" lon="45.25604">
        <ele>2312.21716</ele>
        <time>2021-08-13T16:04:40.472Z</time>
      </trkpt>
      <trkpt lat="40.04685" lon="45.25606">
        <ele>2311.719282</ele>
        <time>2021-08-13T16:04:44.476Z</time>
      </trkpt>
      <trkpt lat="40.04641" lon="45.25622">
        <ele>2310.136959</ele>
        <time>2021-08-13T16:04:54.158Z</time>
      </trkpt>
      <trkpt lat="40.04538" lon="45.25679">
        <ele>2304.688161</ele>
        <time>2021-08-13T16:05:17.593Z</time>
      </trkpt>
      <trkpt lat="40.04533" lon="45.25682">
        <ele>2304.41465</ele>
        <time>2021-08-13T16:05:18.683Z</time>
      </trkpt>
      <trkpt lat="40.04476" lon="45.25708">
        <ele>2301.77674</ele>
        <time>2021-08-13T16:05:31.917Z</time>
      </trkpt>
      <trkpt lat="40.04456" lon="45.25711">
        <ele>2301.167063</ele>
        <time>2021-08-13T16:05:36.308Z</time>
      </trkpt>
      <trkpt lat="40.04421" lon="45.25699">
        <ele>2300.08168</ele>
        <time>2021-08-13T16:05:44.489Z</time>
      </trkpt>
      <trkpt lat="40.04382" lon="45.25664">
        <ele>2298.663933</ele>
        <time>2021-08-13T16:05:55.505Z</time>
      </trkpt>
      <trkpt lat="40.04316" lon="45.25588">
        <ele>2296.085193</ele>
        <time>2021-08-13T16:06:17.329Z</time>
      </trkpt>
      <trkpt lat="40.04149" lon="45.25373">
        <ele>2288.790851</ele>
        <time>2021-08-13T16:07:11.557Z</time>
      </trkpt>
      <trkpt lat="40.04122" lon="45.25343">
        <ele>2287.439825</ele>
        <time>2021-08-13T16:07:19.141Z</time>
      </trkpt>
      <trkpt lat="40.04017" lon="45.25222">
        <ele>2282.460369</ele>
        <time>2021-08-13T16:07:49.357Z</time>
      </trkpt>
      <trkpt lat="40.0378" lon="45.24953">
        <ele>2274.476944</ele>
        <time>2021-08-13T16:09:04.523Z</time>
      </trkpt>
      <trkpt lat="40.03744" lon="45.24913">
        <ele>2273.909268</ele>
        <time>2021-08-13T16:09:16.919Z</time>
      </trkpt>
      <trkpt lat="40.03701" lon="45.24855">
        <ele>2273.16027</ele>
        <time>2021-08-13T16:09:33.846Z</time>
      </trkpt>
      <trkpt lat="40.03664" lon="45.24817">
        <ele>2272.626467</ele>
        <time>2021-08-13T16:09:47.425Z</time>
      </trkpt>
      <trkpt lat="40.03641" lon="45.24781">
        <ele>2272.379681</ele>
        <time>2021-08-13T16:09:57.721Z</time>
      </trkpt>
      <trkpt lat="40.03597" lon="45.24687">
        <ele>2271.798669</ele>
        <time>2021-08-13T16:10:22.162Z</time>
      </trkpt>
      <trkpt lat="40.03592" lon="45.24677">
        <ele>2271.73634</ele>
        <time>2021-08-13T16:10:24.768Z</time>
      </trkpt>
      <trkpt lat="40.03572" lon="45.24641">
        <ele>2271.502558</ele>
        <time>2021-08-13T16:10:34.096Z</time>
      </trkpt>
      <trkpt lat="40.03543" lon="45.2461">
        <ele>2271.034095</ele>
        <time>2021-08-13T16:10:44.100Z</time>
      </trkpt>
      <trkpt lat="40.03481" lon="45.24566">
        <ele>2270.054154</ele>
        <time>2021-08-13T16:11:01.747Z</time>
      </trkpt>
      <trkpt lat="40.03315" lon="45.24461">
        <ele>2268.766919</ele>
        <time>2021-08-13T16:11:49.415Z</time>
      </trkpt>
      <trkpt lat="40.031" lon="45.24324">
        <ele>2271.986879</ele>
        <time>2021-08-13T16:13:25.399Z</time>
      </trkpt>
      <trkpt lat="40.03087" lon="45.24316">
        <ele>2272.280536</ele>
        <time>2021-08-13T16:13:33.743Z</time>
      </trkpt>
      <trkpt lat="40.02877" lon="45.2418">
        <ele>2280.589342</ele>
        <time>2021-08-13T16:15:38.736Z</time>
      </trkpt>
      <trkpt lat="40.02802" lon="45.24127">
        <ele>2283.038507</ele>
        <time>2021-08-13T16:16:18.604Z</time>
      </trkpt>
      <trkpt lat="40.02736" lon="45.24073">
        <ele>2284.657618</ele>
        <time>2021-08-13T16:16:51.475Z</time>
      </trkpt>
      <trkpt lat="40.02576" lon="45.23913">
        <ele>2286.468574</ele>
        <time>2021-08-13T16:18:03.023Z</time>
      </trkpt>
      <trkpt lat="40.02543" lon="45.23887">
        <ele>2286.626645</ele>
        <time>2021-08-13T16:18:15.120Z</time>
      </trkpt>
      <trkpt lat="40.02467" lon="45.23844">
        <ele>2286.9754</ele>
        <time>2021-08-13T16:18:41.836Z</time>
      </trkpt>
      <trkpt lat="40.02416" lon="45.23825">
        <ele>2287.520463</ele>
        <time>2021-08-13T16:18:59.406Z</time>
      </trkpt>
      <trkpt lat="40.02345" lon="45.23813">
        <ele>2288.268173</ele>
        <time>2021-08-13T16:19:24.942Z</time>
      </trkpt>
      <trkpt lat="40.02165" lon="45.23795">
        <ele>2291.662429</ele>
        <time>2021-08-13T16:20:41.215Z</time>
      </trkpt>
      <trkpt lat="40.02143" lon="45.23794">
        <ele>2292.142</ele>
        <time>2021-08-13T16:20:51.245Z</time>
      </trkpt>
      <trkpt lat="40.02105" lon="45.23777">
        <ele>2293.098504</ele>
        <time>2021-08-13T16:21:10.061Z</time>
      </trkpt>
      <trkpt lat="40.02088" lon="45.23762">
        <ele>2293.709841</ele>
        <time>2021-08-13T16:21:19.626Z</time>
      </trkpt>
      <trkpt lat="40.01917" lon="45.23526">
        <ele>2300.802149</ele>
        <time>2021-08-13T16:23:20.430Z</time>
      </trkpt>
      <trkpt lat="40.0189" lon="45.23494">
        <ele>2301.722004</ele>
        <time>2021-08-13T16:23:37.025Z</time>
      </trkpt>
      <trkpt lat="40.01843" lon="45.23455">
        <ele>2302.997552</ele>
        <time>2021-08-13T16:24:01.204Z</time>
      </trkpt>
      <trkpt lat="40.01755" lon="45.23392">
        <ele>2303.475411</ele>
        <time>2021-08-13T16:24:36.957Z</time>
      </trkpt>
      <trkpt lat="40.01659" lon="45.23314">
        <ele>2303.405614</ele>
        <time>2021-08-13T16:25:09.500Z</time>
      </trkpt>
      <trkpt lat="40.01609" lon="45.23281">
        <ele>2302.846847</ele>
        <time>2021-08-13T16:25:24.180Z</time>
      </trkpt>
      <trkpt lat="40.01426" lon="45.23244">
        <ele>2300.850721</ele>
        <time>2021-08-13T16:26:13.391Z</time>
      </trkpt>
      <trkpt lat="40.01397" lon="45.23244">
        <ele>2300.525067</ele>
        <time>2021-08-13T16:26:21.118Z</time>
      </trkpt>
      <trkpt lat="40.01224" lon="45.23287">
        <ele>2298.361375</ele>
        <time>2021-08-13T16:27:08.166Z</time>
      </trkpt>
      <trkpt lat="40.01191" lon="45.23295">
        <ele>2297.92844</ele>
        <time>2021-08-13T16:27:17.009Z</time>
      </trkpt>
      <trkpt lat="40.01068" lon="45.23326">
        <ele>2295.505865</ele>
        <time>2021-08-13T16:27:48.081Z</time>
      </trkpt>
      <trkpt lat="40.00742" lon="45.23449">
        <ele>2288.319062</ele>
        <time>2021-08-13T16:29:08.792Z</time>
      </trkpt>
      <trkpt lat="40.00715" lon="45.23457">
        <ele>2287.895299</ele>
        <time>2021-08-13T16:29:16.004Z</time>
      </trkpt>
      <trkpt lat="40.00691" lon="45.23455">
        <ele>2287.538566</ele>
        <time>2021-08-13T16:29:22.505Z</time>
      </trkpt>
      <trkpt lat="40.00675" lon="45.23451">
        <ele>2287.29802</ele>
        <time>2021-08-13T16:29:26.611Z</time>
      </trkpt>
      <trkpt lat="40.00539" lon="45.23407">
        <ele>2287.742778</ele>
        <time>2021-08-13T16:30:13.984Z</time>
      </trkpt>
      <trkpt lat="40.00437" lon="45.23363">
        <ele>2288.44362</ele>
        <time>2021-08-13T16:30:56.735Z</time>
      </trkpt>
      <trkpt lat="40.00254" lon="45.23292">
        <ele>2288.755329</ele>
        <time>2021-08-13T16:31:58.865Z</time>
      </trkpt>
      <trkpt lat="40.00226" lon="45.23285">
        <ele>2288.515899</ele>
        <time>2021-08-13T16:32:06.472Z</time>
      </trkpt>
      <trkpt lat="40.00093" lon="45.23277">
        <ele>2287.130572</ele>
        <time>2021-08-13T16:32:40.968Z</time>
      </trkpt>
      <trkpt lat="39.9998" lon="45.23313">
        <ele>2285.306276</ele>
        <time>2021-08-13T16:33:10.448Z</time>
      </trkpt>
      <trkpt lat="39.99926" lon="45.23309">
        <ele>2284.489878</ele>
        <time>2021-08-13T16:33:24.047Z</time>
      </trkpt>
      <trkpt lat="39.99843" lon="45.23289">
        <ele>2283.263858</ele>
        <time>2021-08-13T16:33:45.302Z</time>
      </trkpt>
      <trkpt lat="39.99794" lon="45.23288">
        <ele>2282.546889</ele>
        <time>2021-08-13T16:33:58.044Z</time>
      </trkpt>
      <trkpt lat="39.99704" lon="45.23307">
        <ele>2282.104933</ele>
        <time>2021-08-13T16:34:22.826Z</time>
      </trkpt>
      <trkpt lat="39.99475" lon="45.23325">
        <ele>2282.587871</ele>
        <time>2021-08-13T16:35:38.333Z</time>
      </trkpt>
      <trkpt lat="39.99314" lon="45.23359">
        <ele>2284.005739</ele>
        <time>2021-08-13T16:36:38.929Z</time>
      </trkpt>
      <trkpt lat="39.99236" lon="45.23358">
        <ele>2284.804113</ele>
        <time>2021-08-13T16:37:08.006Z</time>
      </trkpt>
      <trkpt lat="39.99169" lon="45.23364">
        <ele>2285.192593</ele>
        <time>2021-08-13T16:37:32.168Z</time>
      </trkpt>
      <trkpt lat="39.99137" lon="45.23377">
        <ele>2285.387906</ele>
        <time>2021-08-13T16:37:43.842Z</time>
      </trkpt>
      <trkpt lat="39.99082" lon="45.23409">
        <ele>2285.730589</ele>
        <time>2021-08-13T16:38:03.410Z</time>
      </trkpt>
      <trkpt lat="39.99033" lon="45.23443">
        <ele>2285.8037</ele>
        <time>2021-08-13T16:38:20.907Z</time>
      </trkpt>
      <trkpt lat="39.98908" lon="45.23545">
        <ele>2285.752005</ele>
        <time>2021-08-13T16:39:05.382Z</time>
      </trkpt>
      <trkpt lat="39.98876" lon="45.23562">
        <ele>2286.094416</ele>
        <time>2021-08-13T16:39:16.065Z</time>
      </trkpt>
      <trkpt lat="39.98844" lon="45.23564">
        <ele>2286.416171</ele>
        <time>2021-08-13T16:39:26.996Z</time>
      </trkpt>
      <trkpt lat="39.98825" lon="45.23556">
        <ele>2286.617405</ele>
        <time>2021-08-13T16:39:34.184Z</time>
      </trkpt>
      <trkpt lat="39.98797" lon="45.23529">
        <ele>2286.966949</ele>
        <time>2021-08-13T16:39:47.525Z</time>
      </trkpt>
      <trkpt lat="39.98756" lon="45.23475">
        <ele>2287.590183</ele>
        <time>2021-08-13T16:40:11.613Z</time>
      </trkpt>
      <trkpt lat="39.98673" lon="45.23366">
        <ele>2289.728081</ele>
        <time>2021-08-13T16:41:03.625Z</time>
      </trkpt>
      <trkpt lat="39.98607" lon="45.23258">
        <ele>2290.63715</ele>
        <time>2021-08-13T16:41:43.372Z</time>
      </trkpt>
      <trkpt lat="39.98593" lon="45.23232">
        <ele>2290.583996</ele>
        <time>2021-08-13T16:41:50.682Z</time>
      </trkpt>
      <trkpt lat="39.98572" lon="45.23204">
        <ele>2290.51789</ele>
        <time>2021-08-13T16:41:59.437Z</time>
      </trkpt>
      <trkpt lat="39.98537" lon="45.23173">
        <ele>2290.424603</ele>
        <time>2021-08-13T16:42:11.003Z</time>
      </trkpt>
      <trkpt lat="39.98493" lon="45.23159">
        <ele>2290.270724</ele>
        <time>2021-08-13T16:42:22.795Z</time>
      </trkpt>
      <trkpt lat="39.98433" lon="45.23166">
        <ele>2289.837913</ele>
        <time>2021-08-13T16:42:38.497Z</time>
      </trkpt>
      <trkpt lat="39.98366" lon="45.2319">
        <ele>2289.343145</ele>
        <time>2021-08-13T16:42:57.675Z</time>
      </trkpt>
      <trkpt lat="39.97949" lon="45.23392">
        <ele>2289.799682</ele>
        <time>2021-08-13T16:45:22.077Z</time>
      </trkpt>
      <trkpt lat="39.97846" lon="45.23445">
        <ele>2289.658252</ele>
        <time>2021-08-13T16:45:55.199Z</time>
      </trkpt>
      <trkpt lat="39.97817" lon="45.23465">
        <ele>2289.629679</ele>
        <time>2021-08-13T16:46:04.781Z</time>
      </trkpt>
      <trkpt lat="39.97765" lon="45.23517">
        <ele>2289.633926</ele>
        <time>2021-08-13T16:46:24.245Z</time>
      </trkpt>
      <trkpt lat="39.97645" lon="45.23662">
        <ele>2289.63155</ele>
        <time>2021-08-13T16:47:17.467Z</time>
      </trkpt>
      <trkpt lat="39.97602" lon="45.2373">
        <ele>2289.621285</ele>
        <time>2021-08-13T16:47:37.537Z</time>
      </trkpt>
      <trkpt lat="39.97571" lon="45.2383">
        <ele>2289.969815</ele>
        <time>2021-08-13T16:48:02.711Z</time>
      </trkpt>
      <trkpt lat="39.97566" lon="45.23842">
        <ele>2290.106536</ele>
        <time>2021-08-13T16:48:06.627Z</time>
      </trkpt>
      <trkpt lat="39.9754" lon="45.23863">
        <ele>2290.482012</ele>
        <time>2021-08-13T16:48:16.662Z</time>
      </trkpt>
      <trkpt lat="39.97508" lon="45.23882">
        <ele>2290.909602</ele>
        <time>2021-08-13T16:48:28.983Z</time>
      </trkpt>
      <trkpt lat="39.9721" lon="45.24074">
        <ele>2298.338004</ele>
        <time>2021-08-13T16:50:58.309Z</time>
      </trkpt>
      <trkpt lat="39.97153" lon="45.24089">
        <ele>2299.945206</ele>
        <time>2021-08-13T16:51:26.280Z</time>
      </trkpt>
      <trkpt lat="39.971" lon="45.24086">
        <ele>2301.412529</ele>
        <time>2021-08-13T16:51:50.920Z</time>
      </trkpt>
      <trkpt lat="39.97001" lon="45.24061">
        <ele>2304.618408</ele>
        <time>2021-08-13T16:52:38.492Z</time>
      </trkpt>
      <trkpt lat="39.96939" lon="45.24034">
        <ele>2306.699622</ele>
        <time>2021-08-13T16:53:11.213Z</time>
      </trkpt>
      <trkpt lat="39.96907" lon="45.24012">
        <ele>2308.601293</ele>
        <time>2021-08-13T16:53:30.470Z</time>
      </trkpt>
      <trkpt lat="39.96866" lon="45.23962">
        <ele>2311.670078</ele>
        <time>2021-08-13T16:54:01.798Z</time>
      </trkpt>
      <trkpt lat="39.96738" lon="45.23736">
        <ele>2326.432851</ele>
        <time>2021-08-13T16:56:32.691Z</time>
      </trkpt>
      <trkpt lat="39.96715" lon="45.23702">
        <ele>2329.127484</ele>
        <time>2021-08-13T16:57:01.452Z</time>
      </trkpt>
      <trkpt lat="39.96693" lon="45.23685">
        <ele>2331.215185</ele>
        <time>2021-08-13T16:57:23.133Z</time>
      </trkpt>
      <trkpt lat="39.9658" lon="45.23632">
        <ele>2343.31042</ele>
        <time>2021-08-13T16:59:09.763Z</time>
      </trkpt>
      <trkpt lat="39.96511" lon="45.23611">
        <ele>2350.306607</ele>
        <time>2021-08-13T17:00:12.995Z</time>
      </trkpt>
      <trkpt lat="39.96454" lon="45.23604">
        <ele>2355.406049</ele>
        <time>2021-08-13T17:01:01.765Z</time>
      </trkpt>
      <trkpt lat="39.96224" lon="45.23578">
        <ele>2374.447745</ele>
        <time>2021-08-13T17:03:59.526Z</time>
      </trkpt>
      <trkpt lat="39.96048" lon="45.23571">
        <ele>2386.153528</ele>
        <time>2021-08-13T17:05:59.418Z</time>
      </trkpt>
      <trkpt lat="39.95951" lon="45.23557">
        <ele>2391.462765</ele>
        <time>2021-08-13T17:06:59.736Z</time>
      </trkpt>
      <trkpt lat="39.95926" lon="45.23552">
        <ele>2392.527889</ele>
        <time>2021-08-13T17:07:14.339Z</time>
      </trkpt>
      <trkpt lat="39.95881" lon="45.23543">
        <ele>2394.466328</ele>
        <time>2021-08-13T17:07:39.734Z</time>
      </trkpt>
      <trkpt lat="39.95817" lon="45.23519">
        <ele>2397.275177</ele>
        <time>2021-08-13T17:08:13.449Z</time>
      </trkpt>
      <trkpt lat="39.95698" lon="45.23469">
        <ele>2400.871469</ele>
        <time>2021-08-13T17:09:11.002Z</time>
      </trkpt>
      <trkpt lat="39.95598" lon="45.23438">
        <ele>2403.472364</ele>
        <time>2021-08-13T17:10:00.004Z</time>
      </trkpt>
      <trkpt lat="39.95404" lon="45.23425">
        <ele>2404.678053</ele>
        <time>2021-08-13T17:11:20.139Z</time>
      </trkpt>
      <trkpt lat="39.95379" lon="45.23424">
        <ele>2403.985387</ele>
        <time>2021-08-13T17:11:26.534Z</time>
      </trkpt>
      <trkpt lat="39.95262" lon="45.23389">
        <ele>2399.386136</ele>
        <time>2021-08-13T17:11:51.528Z</time>
      </trkpt>
      <trkpt lat="39.95231" lon="45.23381">
        <ele>2396.782256</ele>
        <time>2021-08-13T17:11:57.571Z</time>
      </trkpt>
      <trkpt lat="39.95207" lon="45.23382">
        <ele>2394.728534</ele>
        <time>2021-08-13T17:12:02.375Z</time>
      </trkpt>
      <trkpt lat="39.9519" lon="45.23394">
        <ele>2393.174678</ele>
        <time>2021-08-13T17:12:05.895Z</time>
      </trkpt>
      <trkpt lat="39.95157" lon="45.23419">
        <ele>2389.976938</ele>
        <time>2021-08-13T17:12:13.281Z</time>
      </trkpt>
      <trkpt lat="39.9513" lon="45.23458">
        <ele>2386.651197</ele>
        <time>2021-08-13T17:12:21.000Z</time>
      </trkpt>
      <trkpt lat="39.95114" lon="45.23491">
        <ele>2384.730889</ele>
        <time>2021-08-13T17:12:26.937Z</time>
      </trkpt>
      <trkpt lat="39.95105" lon="45.2355">
        <ele>2382.052104</ele>
        <time>2021-08-13T17:12:35.985Z</time>
      </trkpt>
      <trkpt lat="39.95095" lon="45.23873">
        <ele>2369.146578</ele>
        <time>2021-08-13T17:13:30.258Z</time>
      </trkpt>
      <trkpt lat="39.9508" lon="45.23943">
        <ele>2366.226501</ele>
        <time>2021-08-13T17:13:41.896Z</time>
      </trkpt>
      <trkpt lat="39.95063" lon="45.23981">
        <ele>2363.932508</ele>
        <time>2021-08-13T17:13:48.528Z</time>
      </trkpt>
      <trkpt lat="39.95008" lon="45.24066">
        <ele>2358.207804</ele>
        <time>2021-08-13T17:14:05.577Z</time>
      </trkpt>
      <trkpt lat="39.94993" lon="45.24082">
        <ele>2356.905016</ele>
        <time>2021-08-13T17:14:09.265Z</time>
      </trkpt>
      <trkpt lat="39.94972" lon="45.24091">
        <ele>2355.419376</ele>
        <time>2021-08-13T17:14:14.213Z</time>
      </trkpt>
      <trkpt lat="39.94962" lon="45.24087">
        <ele>2354.867553</ele>
        <time>2021-08-13T17:14:16.083Z</time>
      </trkpt>
      <trkpt lat="39.94956" lon="45.2408">
        <ele>2354.480999</ele>
        <time>2021-08-13T17:14:19.107Z</time>
      </trkpt>
      <trkpt lat="39.94954" lon="45.24059">
        <ele>2353.764364</ele>
        <time>2021-08-13T17:14:22.662Z</time>
      </trkpt>
      <trkpt lat="39.94959" lon="45.24035">
        <ele>2352.91342</ele>
        <time>2021-08-13T17:14:26.448Z</time>
      </trkpt>
      <trkpt lat="39.95002" lon="45.23904">
        <ele>2348.002142</ele>
        <time>2021-08-13T17:14:50.338Z</time>
      </trkpt>
      <trkpt lat="39.95019" lon="45.2382">
        <ele>2345.455512</ele>
        <time>2021-08-13T17:15:07.202Z</time>
      </trkpt>
      <trkpt lat="39.94991" lon="45.23553">
        <ele>2336.471421</ele>
        <time>2021-08-13T17:15:52.676Z</time>
      </trkpt>
      <trkpt lat="39.94967" lon="45.23498">
        <ele>2333.650943</ele>
        <time>2021-08-13T17:16:02.505Z</time>
      </trkpt>
      <trkpt lat="39.94949" lon="45.23479">
        <ele>2332.328679</ele>
        <time>2021-08-13T17:16:07.092Z</time>
      </trkpt>
      <trkpt lat="39.9494" lon="45.2347">
        <ele>2331.67244</ele>
        <time>2021-08-13T17:16:09.376Z</time>
      </trkpt>
      <trkpt lat="39.94904" lon="45.23432">
        <ele>2328.30809</ele>
        <time>2021-08-13T17:16:18.643Z</time>
      </trkpt>
      <trkpt lat="39.94891" lon="45.23424">
        <ele>2327.010721</ele>
        <time>2021-08-13T17:16:21.470Z</time>
      </trkpt>
      <trkpt lat="39.94791" lon="45.23359">
        <ele>2316.979164</ele>
        <time>2021-08-13T17:16:43.011Z</time>
      </trkpt>
      <trkpt lat="39.94725" lon="45.2335">
        <ele>2310.558069</ele>
        <time>2021-08-13T17:16:55.565Z</time>
      </trkpt>
      <trkpt lat="39.94618" lon="45.23349">
        <ele>2299.317579</ele>
        <time>2021-08-13T17:17:15.789Z</time>
      </trkpt>
      <trkpt lat="39.94585" lon="45.23338">
        <ele>2295.725794</ele>
        <time>2021-08-13T17:17:22.257Z</time>
      </trkpt>
      <trkpt lat="39.94561" lon="45.23324">
        <ele>2293.31607</ele>
        <time>2021-08-13T17:17:27.080Z</time>
      </trkpt>
      <trkpt lat="39.94546" lon="45.23312">
        <ele>2291.585723</ele>
        <time>2021-08-13T17:17:30.624Z</time>
      </trkpt>
      <trkpt lat="39.9451" lon="45.23269">
        <ele>2287.090686</ele>
        <time>2021-08-13T17:17:39.868Z</time>
      </trkpt>
      <trkpt lat="39.9446" lon="45.23197">
        <ele>2280.130037</ele>
        <time>2021-08-13T17:17:54.357Z</time>
      </trkpt>
      <trkpt lat="39.9444" lon="45.2316">
        <ele>2277.020772</ele>
        <time>2021-08-13T17:18:01.152Z</time>
      </trkpt>
      <trkpt lat="39.94408" lon="45.23033">
        <ele>2268.16603</ele>
        <time>2021-08-13T17:18:21.220Z</time>
      </trkpt>
      <trkpt lat="39.94399" lon="45.23024">
        <ele>2267.199417</ele>
        <time>2021-08-13T17:18:23.387Z</time>
      </trkpt>
      <trkpt lat="39.94379" lon="45.23029">
        <ele>2265.467831</ele>
        <time>2021-08-13T17:18:27.223Z</time>
      </trkpt>
      <trkpt lat="39.94374" lon="45.23039">
        <ele>2264.694529</ele>
        <time>2021-08-13T17:18:28.953Z</time>
      </trkpt>
      <trkpt lat="39.94373" lon="45.23055">
        <ele>2263.625333</ele>
        <time>2021-08-13T17:18:31.319Z</time>
      </trkpt>
      <trkpt lat="39.94397" lon="45.23163">
        <ele>2256.573577</ele>
        <time>2021-08-13T17:18:47.901Z</time>
      </trkpt>
      <trkpt lat="39.94416" lon="45.2323">
        <ele>2252.080212</ele>
        <time>2021-08-13T17:18:58.732Z</time>
      </trkpt>
      <trkpt lat="39.94421" lon="45.23242">
        <ele>2251.235494</ele>
        <time>2021-08-13T17:19:00.725Z</time>
      </trkpt>
      <trkpt lat="39.94461" lon="45.23338">
        <ele>2246.542137</ele>
        <time>2021-08-13T17:19:17.908Z</time>
      </trkpt>
      <trkpt lat="39.9449" lon="45.23391">
        <ele>2244.630907</ele>
        <time>2021-08-13T17:19:28.888Z</time>
      </trkpt>
      <trkpt lat="39.94607" lon="45.23542">
        <ele>2239.785506</ele>
        <time>2021-08-13T17:20:10.530Z</time>
      </trkpt>
      <trkpt lat="39.94615" lon="45.2356">
        <ele>2239.439667</ele>
        <time>2021-08-13T17:20:15.075Z</time>
      </trkpt>
      <trkpt lat="39.94618" lon="45.2358">
        <ele>2239.114432</ele>
        <time>2021-08-13T17:20:19.297Z</time>
      </trkpt>
      <trkpt lat="39.94613" lon="45.23826">
        <ele>2231.49093</ele>
        <time>2021-08-13T17:21:02.000Z</time>
      </trkpt>
      <trkpt lat="39.94611" lon="45.23848">
        <ele>2230.634901</ele>
        <time>2021-08-13T17:21:05.473Z</time>
      </trkpt>
      <trkpt lat="39.94606" lon="45.23862">
        <ele>2230.056374</ele>
        <time>2021-08-13T17:21:07.718Z</time>
      </trkpt>
      <trkpt lat="39.94599" lon="45.23872">
        <ele>2229.499065</ele>
        <time>2021-08-13T17:21:09.927Z</time>
      </trkpt>
      <trkpt lat="39.94591" lon="45.23879">
        <ele>2229.047555</ele>
        <time>2021-08-13T17:21:11.726Z</time>
      </trkpt>
      <trkpt lat="39.94541" lon="45.2392">
        <ele>2223.650477</ele>
        <time>2021-08-13T17:21:23.088Z</time>
      </trkpt>
      <trkpt lat="39.94481" lon="45.2396">
        <ele>2217.169819</ele>
        <time>2021-08-13T17:21:35.836Z</time>
      </trkpt>
      <trkpt lat="39.94472" lon="45.2396">
        <ele>2216.342369</ele>
        <time>2021-08-13T17:21:37.462Z</time>
      </trkpt>
      <trkpt lat="39.94465" lon="45.23949">
        <ele>2215.300336</ele>
        <time>2021-08-13T17:21:39.533Z</time>
      </trkpt>
      <trkpt lat="39.94463" lon="45.23937">
        <ele>2214.419433</ele>
        <time>2021-08-13T17:21:41.246Z</time>
      </trkpt>
      <trkpt lat="39.9447" lon="45.23917">
        <ele>2212.793959</ele>
        <time>2021-08-13T17:21:44.429Z</time>
      </trkpt>
      <trkpt lat="39.94515" lon="45.23847">
        <ele>2206.290282</ele>
        <time>2021-08-13T17:21:58.027Z</time>
      </trkpt>
      <trkpt lat="39.9452" lon="45.2381">
        <ele>2203.668873</ele>
        <time>2021-08-13T17:22:03.625Z</time>
      </trkpt>
      <trkpt lat="39.94511" lon="45.23764">
        <ele>2200.296512</ele>
        <time>2021-08-13T17:22:10.761Z</time>
      </trkpt>
      <trkpt lat="39.94465" lon="45.23612">
        <ele>2187.64841</ele>
        <time>2021-08-13T17:22:34.627Z</time>
      </trkpt>
      <trkpt lat="39.9431" lon="45.23423">
        <ele>2164.083841</ele>
        <time>2021-08-13T17:23:14.376Z</time>
      </trkpt>
      <trkpt lat="39.94152" lon="45.23246">
        <ele>2141.887487</ele>
        <time>2021-08-13T17:23:53.803Z</time>
      </trkpt>
      <trkpt lat="39.94136" lon="45.23232">
        <ele>2139.912321</ele>
        <time>2021-08-13T17:23:57.428Z</time>
      </trkpt>
      <trkpt lat="39.94027" lon="45.2319">
        <ele>2130.281979</ele>
        <time>2021-08-13T17:24:18.964Z</time>
      </trkpt>
      <trkpt lat="39.94004" lon="45.23191">
        <ele>2128.512093</ele>
        <time>2021-08-13T17:24:23.454Z</time>
      </trkpt>
      <trkpt lat="39.93997" lon="45.23198">
        <ele>2127.836153</ele>
        <time>2021-08-13T17:24:25.170Z</time>
      </trkpt>
      <trkpt lat="39.93995" lon="45.23218">
        <ele>2126.645798</ele>
        <time>2021-08-13T17:24:28.578Z</time>
      </trkpt>
      <trkpt lat="39.93999" lon="45.23225">
        <ele>2126.168176</ele>
        <time>2021-08-13T17:24:29.873Z</time>
      </trkpt>
      <trkpt lat="39.94004" lon="45.23233">
        <ele>2125.531554</ele>
        <time>2021-08-13T17:24:31.380Z</time>
      </trkpt>
      <trkpt lat="39.94023" lon="45.23247">
        <ele>2123.841488</ele>
        <time>2021-08-13T17:24:36.521Z</time>
      </trkpt>
      <trkpt lat="39.94121" lon="45.23304">
        <ele>2119.441456</ele>
        <time>2021-08-13T17:25:00.501Z</time>
      </trkpt>
      <trkpt lat="39.94138" lon="45.23323">
        <ele>2118.694785</ele>
        <time>2021-08-13T17:25:05.181Z</time>
      </trkpt>
      <trkpt lat="39.94152" lon="45.2335">
        <ele>2117.817727</ele>
        <time>2021-08-13T17:25:12.178Z</time>
      </trkpt>
      <trkpt lat="39.94194" lon="45.23469">
        <ele>2113.444784</ele>
        <time>2021-08-13T17:25:35.359Z</time>
      </trkpt>
      <trkpt lat="39.94195" lon="45.23489">
        <ele>2112.70997</ele>
        <time>2021-08-13T17:25:38.689Z</time>
      </trkpt>
      <trkpt lat="39.94193" lon="45.23505">
        <ele>2112.096038</ele>
        <time>2021-08-13T17:25:41.192Z</time>
      </trkpt>
      <trkpt lat="39.94176" lon="45.23558">
        <ele>2109.88343</ele>
        <time>2021-08-13T17:25:50.625Z</time>
      </trkpt>
      <trkpt lat="39.94161" lon="45.23577">
        <ele>2108.856309</ele>
        <time>2021-08-13T17:25:54.902Z</time>
      </trkpt>
      <trkpt lat="39.9414" lon="45.23592">
        <ele>2107.66031</ele>
        <time>2021-08-13T17:25:59.831Z</time>
      </trkpt>
      <trkpt lat="39.94114" lon="45.23598">
        <ele>2105.546462</ele>
        <time>2021-08-13T17:26:04.965Z</time>
      </trkpt>
      <trkpt lat="39.94098" lon="45.23591">
        <ele>2104.061804</ele>
        <time>2021-08-13T17:26:08.189Z</time>
      </trkpt>
      <trkpt lat="39.94085" lon="45.23578">
        <ele>2102.62877</ele>
        <time>2021-08-13T17:26:11.360Z</time>
      </trkpt>
      <trkpt lat="39.94081" lon="45.23553">
        <ele>2100.928331</ele>
        <time>2021-08-13T17:26:15.075Z</time>
      </trkpt>
      <trkpt lat="39.9408" lon="45.23456">
        <ele>2094.451279</ele>
        <time>2021-08-13T17:26:29.428Z</time>
      </trkpt>
      <trkpt lat="39.94075" lon="45.23437">
        <ele>2093.093726</ele>
        <time>2021-08-13T17:26:32.508Z</time>
      </trkpt>
      <trkpt lat="39.94065" lon="45.23431">
        <ele>2092.15299</ele>
        <time>2021-08-13T17:26:34.496Z</time>
      </trkpt>
      <trkpt lat="39.93974" lon="45.23392">
        <ele>2084.480291</ele>
        <time>2021-08-13T17:26:53.136Z</time>
      </trkpt>
      <trkpt lat="39.9392" lon="45.23342">
        <ele>2079.211401</ele>
        <time>2021-08-13T17:27:06.101Z</time>
      </trkpt>
      <trkpt lat="39.93886" lon="45.23291">
        <ele>2076.471893</ele>
        <time>2021-08-13T17:27:16.912Z</time>
      </trkpt>
      <trkpt lat="39.93822" lon="45.23157">
        <ele>2072.331984</ele>
        <time>2021-08-13T17:27:46.445Z</time>
      </trkpt>
      <trkpt lat="39.93801" lon="45.23138">
        <ele>2071.432408</ele>
        <time>2021-08-13T17:27:52.400Z</time>
      </trkpt>
      <trkpt lat="39.93791" lon="45.23138">
        <ele>2070.796409</ele>
        <time>2021-08-13T17:27:54.811Z</time>
      </trkpt>
      <trkpt lat="39.93784" lon="45.23138">
        <ele>2070.301967</ele>
        <time>2021-08-13T17:27:56.375Z</time>
      </trkpt>
      <trkpt lat="39.93757" lon="45.23146">
        <ele>2068.209378</ele>
        <time>2021-08-13T17:28:02.489Z</time>
      </trkpt>
      <trkpt lat="39.93748" lon="45.23153">
        <ele>2067.408586</ele>
        <time>2021-08-13T17:28:04.707Z</time>
      </trkpt>
      <trkpt lat="39.93681" lon="45.23294">
        <ele>2057.924911</ele>
        <time>2021-08-13T17:28:29.521Z</time>
      </trkpt>
      <trkpt lat="39.9366" lon="45.23399">
        <ele>2047.858181</ele>
        <time>2021-08-13T17:28:44.881Z</time>
      </trkpt>
      <trkpt lat="39.93649" lon="45.23419">
        <ele>2045.550373</ele>
        <time>2021-08-13T17:28:48.390Z</time>
      </trkpt>
      <trkpt lat="39.93632" lon="45.2343">
        <ele>2043.320516</ele>
        <time>2021-08-13T17:28:51.781Z</time>
      </trkpt>
      <trkpt lat="39.93518" lon="45.23449">
        <ele>2032.625301</ele>
        <time>2021-08-13T17:29:13.385Z</time>
      </trkpt>
      <trkpt lat="39.93497" lon="45.23445">
        <ele>2031.267732</ele>
        <time>2021-08-13T17:29:17.670Z</time>
      </trkpt>
      <trkpt lat="39.93477" lon="45.23424">
        <ele>2029.655006</ele>
        <time>2021-08-13T17:29:22.979Z</time>
      </trkpt>
      <trkpt lat="39.93451" lon="45.23343">
        <ele>2025.370748</ele>
        <time>2021-08-13T17:29:38.270Z</time>
      </trkpt>
      <trkpt lat="39.93409" lon="45.23258">
        <ele>2022.880591</ele>
        <time>2021-08-13T17:29:57.660Z</time>
      </trkpt>
      <trkpt lat="39.93394" lon="45.23242">
        <ele>2022.34717</ele>
        <time>2021-08-13T17:30:02.733Z</time>
      </trkpt>
      <trkpt lat="39.93375" lon="45.23232">
        <ele>2021.772012</ele>
        <time>2021-08-13T17:30:07.800Z</time>
      </trkpt>
      <trkpt lat="39.93357" lon="45.23225">
        <ele>2021.256423</ele>
        <time>2021-08-13T17:30:12.393Z</time>
      </trkpt>
      <trkpt lat="39.93324" lon="45.23225">
        <ele>2020.343444</ele>
        <time>2021-08-13T17:30:20.184Z</time>
      </trkpt>
      <trkpt lat="39.9331" lon="45.23234">
        <ele>2019.895476</ele>
        <time>2021-08-13T17:30:23.757Z</time>
      </trkpt>
      <trkpt lat="39.93301" lon="45.23247">
        <ele>2019.123455</ele>
        <time>2021-08-13T17:30:26.590Z</time>
      </trkpt>
      <trkpt lat="39.9325" lon="45.23359">
        <ele>2011.524855</ele>
        <time>2021-08-13T17:30:46.730Z</time>
      </trkpt>
      <trkpt lat="39.93229" lon="45.23383">
        <ele>2009.39663</ele>
        <time>2021-08-13T17:30:52.124Z</time>
      </trkpt>
      <trkpt lat="39.93199" lon="45.23403">
        <ele>2006.823452</ele>
        <time>2021-08-13T17:30:58.583Z</time>
      </trkpt>
      <trkpt lat="39.93126" lon="45.23406">
        <ele>1998.600602</ele>
        <time>2021-08-13T17:31:12.381Z</time>
      </trkpt>
      <trkpt lat="39.93054" lon="45.23421">
        <ele>1990.025238</ele>
        <time>2021-08-13T17:31:25.939Z</time>
      </trkpt>
      <trkpt lat="39.93012" lon="45.2346">
        <ele>1983.964088</ele>
        <time>2021-08-13T17:31:35.396Z</time>
      </trkpt>
      <trkpt lat="39.9298" lon="45.23503">
        <ele>1978.220865</ele>
        <time>2021-08-13T17:31:43.905Z</time>
      </trkpt>
      <trkpt lat="39.9294" lon="45.23533">
        <ele>1972.442743</ele>
        <time>2021-08-13T17:31:52.465Z</time>
      </trkpt>
      <trkpt lat="39.92912" lon="45.23543">
        <ele>1968.835179</ele>
        <time>2021-08-13T17:31:57.828Z</time>
      </trkpt>
      <trkpt lat="39.92823" lon="45.23551">
        <ele>1958.144164</ele>
        <time>2021-08-13T17:32:14.377Z</time>
      </trkpt>
      <trkpt lat="39.92696" lon="45.23596">
        <ele>1943.082453</ele>
        <time>2021-08-13T17:32:39.042Z</time>
      </trkpt>
      <trkpt lat="39.92553" lon="45.23619">
        <ele>1929.002643</ele>
        <time>2021-08-13T17:33:06.318Z</time>
      </trkpt>
      <trkpt lat="39.92488" lon="45.23621">
        <ele>1923.307233</ele>
        <time>2021-08-13T17:33:18.992Z</time>
      </trkpt>
      <trkpt lat="39.92482" lon="45.23622">
        <ele>1922.872262</ele>
        <time>2021-08-13T17:33:20.203Z</time>
      </trkpt>
      <trkpt lat="39.92441" lon="45.236">
        <ele>1919.947225</ele>
        <time>2021-08-13T17:33:28.960Z</time>
      </trkpt>
      <trkpt lat="39.92421" lon="45.23555">
        <ele>1917.291033</ele>
        <time>2021-08-13T17:33:37.078Z</time>
      </trkpt>
      <trkpt lat="39.92417" lon="45.23534">
        <ele>1916.145208</ele>
        <time>2021-08-13T17:33:40.726Z</time>
      </trkpt>
      <trkpt lat="39.92415" lon="45.23459">
        <ele>1912.336557</ele>
        <time>2021-08-13T17:33:52.495Z</time>
      </trkpt>
      <trkpt lat="39.92407" lon="45.23405">
        <ele>1909.649007</ele>
        <time>2021-08-13T17:34:01.446Z</time>
      </trkpt>
      <trkpt lat="39.92409" lon="45.23284">
        <ele>1903.819716</ele>
        <time>2021-08-13T17:34:20.449Z</time>
      </trkpt>
      <trkpt lat="39.92394" lon="45.23267">
        <ele>1902.557477</ele>
        <time>2021-08-13T17:34:24.472Z</time>
      </trkpt>
      <trkpt lat="39.92381" lon="45.23266">
        <ele>1901.748078</ele>
        <time>2021-08-13T17:34:27.012Z</time>
      </trkpt>
      <trkpt lat="39.92366" lon="45.23291">
        <ele>1899.851423</ele>
        <time>2021-08-13T17:34:31.922Z</time>
      </trkpt>
      <trkpt lat="39.92329" lon="45.23562">
        <ele>1882.563156</ele>
        <time>2021-08-13T17:35:12.872Z</time>
      </trkpt>
      <trkpt lat="39.92331" lon="45.23674">
        <ele>1875.902817</ele>
        <time>2021-08-13T17:35:29.830Z</time>
      </trkpt>
      <trkpt lat="39.92325" lon="45.23716">
        <ele>1873.313918</ele>
        <time>2021-08-13T17:35:36.555Z</time>
      </trkpt>
      <trkpt lat="39.92307" lon="45.23723">
        <ele>1871.985994</ele>
        <time>2021-08-13T17:35:40.220Z</time>
      </trkpt>
      <trkpt lat="39.92295" lon="45.23713">
        <ele>1871.134398</ele>
        <time>2021-08-13T17:35:43.125Z</time>
      </trkpt>
      <trkpt lat="39.92287" lon="45.23699">
        <ele>1870.341615</ele>
        <time>2021-08-13T17:35:45.806Z</time>
      </trkpt>
      <trkpt lat="39.92265" lon="45.23543">
        <ele>1863.072317</ele>
        <time>2021-08-13T17:36:11.035Z</time>
      </trkpt>
      <trkpt lat="39.92269" lon="45.23408">
        <ele>1856.065651</ele>
        <time>2021-08-13T17:36:32.439Z</time>
      </trkpt>
      <trkpt lat="39.92263" lon="45.2338">
        <ele>1854.485221</ele>
        <time>2021-08-13T17:36:36.987Z</time>
      </trkpt>
      <trkpt lat="39.92248" lon="45.23372">
        <ele>1853.368808</ele>
        <time>2021-08-13T17:36:40.148Z</time>
      </trkpt>
      <trkpt lat="39.92234" lon="45.23386">
        <ele>1852.131286</ele>
        <time>2021-08-13T17:36:43.647Z</time>
      </trkpt>
      <trkpt lat="39.9221" lon="45.23453">
        <ele>1847.85552</ele>
        <time>2021-08-13T17:36:54.927Z</time>
      </trkpt>
      <trkpt lat="39.92186" lon="45.23539">
        <ele>1841.397437</ele>
        <time>2021-08-13T17:37:08.413Z</time>
      </trkpt>
      <trkpt lat="39.92174" lon="45.23602">
        <ele>1836.753486</ele>
        <time>2021-08-13T17:37:18.025Z</time>
      </trkpt>
      <trkpt lat="39.92173" lon="45.23639">
        <ele>1834.143841</ele>
        <time>2021-08-13T17:37:23.425Z</time>
      </trkpt>
      <trkpt lat="39.92176" lon="45.23683">
        <ele>1831.127549</ele>
        <time>2021-08-13T17:37:29.956Z</time>
      </trkpt>
      <trkpt lat="39.9219" lon="45.23748">
        <ele>1826.882115</ele>
        <time>2021-08-13T17:37:39.935Z</time>
      </trkpt>
      <trkpt lat="39.92183" lon="45.23761">
        <ele>1825.903453</ele>
        <time>2021-08-13T17:37:42.250Z</time>
      </trkpt>
      <trkpt lat="39.92173" lon="45.23769">
        <ele>1824.937549</ele>
        <time>2021-08-13T17:37:44.555Z</time>
      </trkpt>
      <trkpt lat="39.92153" lon="45.23763">
        <ele>1823.270545</ele>
        <time>2021-08-13T17:37:48.555Z</time>
      </trkpt>
      <trkpt lat="39.92113" lon="45.23729">
        <ele>1819.380142</ele>
        <time>2021-08-13T17:37:58.040Z</time>
      </trkpt>
      <trkpt lat="39.92092" lon="45.237">
        <ele>1817.123165</ele>
        <time>2021-08-13T17:38:04.362Z</time>
      </trkpt>
      <trkpt lat="39.92084" lon="45.23666">
        <ele>1815.698879</ele>
        <time>2021-08-13T17:38:09.897Z</time>
      </trkpt>
      <trkpt lat="39.92094" lon="45.2358">
        <ele>1812.162921</ele>
        <time>2021-08-13T17:38:24.024Z</time>
      </trkpt>
      <trkpt lat="39.92101" lon="45.23548">
        <ele>1810.813069</ele>
        <time>2021-08-13T17:38:29.543Z</time>
      </trkpt>
      <trkpt lat="39.9212" lon="45.23504">
        <ele>1808.752377</ele>
        <time>2021-08-13T17:38:37.937Z</time>
      </trkpt>
      <trkpt lat="39.92128" lon="45.23487">
        <ele>1807.934698</ele>
        <time>2021-08-13T17:38:41.029Z</time>
      </trkpt>
      <trkpt lat="39.92137" lon="45.23462">
        <ele>1806.647404</ele>
        <time>2021-08-13T17:38:45.788Z</time>
      </trkpt>
      <trkpt lat="39.92141" lon="45.23383">
        <ele>1802.99551</ele>
        <time>2021-08-13T17:38:58.282Z</time>
      </trkpt>
      <trkpt lat="39.92163" lon="45.23271">
        <ele>1797.617833</ele>
        <time>2021-08-13T17:39:16.281Z</time>
      </trkpt>
      <trkpt lat="39.92162" lon="45.23196">
        <ele>1793.848822</ele>
        <time>2021-08-13T17:39:27.874Z</time>
      </trkpt>
      <trkpt lat="39.92148" lon="45.23125">
        <ele>1790.098492</ele>
        <time>2021-08-13T17:39:39.276Z</time>
      </trkpt>
      <trkpt lat="39.92112" lon="45.23073">
        <ele>1786.524469</ele>
        <time>2021-08-13T17:39:50.160Z</time>
      </trkpt>
      <trkpt lat="39.92089" lon="45.23015">
        <ele>1783.233082</ele>
        <time>2021-08-13T17:40:00.328Z</time>
      </trkpt>
      <trkpt lat="39.92085" lon="45.22926">
        <ele>1778.756028</ele>
        <time>2021-08-13T17:40:14.173Z</time>
      </trkpt>
      <trkpt lat="39.92075" lon="45.22917">
        <ele>1777.940411</ele>
        <time>2021-08-13T17:40:16.669Z</time>
      </trkpt>
      <trkpt lat="39.92063" lon="45.22918">
        <ele>1777.167765</ele>
        <time>2021-08-13T17:40:19.027Z</time>
      </trkpt>
      <trkpt lat="39.92051" lon="45.22928">
        <ele>1776.218093</ele>
        <time>2021-08-13T17:40:21.925Z</time>
      </trkpt>
      <trkpt lat="39.92044" lon="45.2295">
        <ele>1775.012496</ele>
        <time>2021-08-13T17:40:25.617Z</time>
      </trkpt>
      <trkpt lat="39.92056" lon="45.23131">
        <ele>1765.813723</ele>
        <time>2021-08-13T17:40:53.924Z</time>
      </trkpt>
      <trkpt lat="39.92057" lon="45.23243">
        <ele>1760.071744</ele>
        <time>2021-08-13T17:41:11.370Z</time>
      </trkpt>
      <trkpt lat="39.92049" lon="45.23282">
        <ele>1757.895832</ele>
        <time>2021-08-13T17:41:17.669Z</time>
      </trkpt>
      <trkpt lat="39.9201" lon="45.234">
        <ele>1751.021532</ele>
        <time>2021-08-13T17:41:37.478Z</time>
      </trkpt>
      <trkpt lat="39.9198" lon="45.23474">
        <ele>1746.466299</ele>
        <time>2021-08-13T17:41:50.271Z</time>
      </trkpt>
      <trkpt lat="39.91912" lon="45.23656">
        <ele>1735.378977</ele>
        <time>2021-08-13T17:42:21.281Z</time>
      </trkpt>
      <trkpt lat="39.91835" lon="45.23841">
        <ele>1725.119954</ele>
        <time>2021-08-13T17:42:54.166Z</time>
      </trkpt>
      <trkpt lat="39.91787" lon="45.23937">
        <ele>1720.997114</ele>
        <time>2021-08-13T17:43:12.243Z</time>
      </trkpt>
      <trkpt lat="39.9175" lon="45.23991">
        <ele>1718.51202</ele>
        <time>2021-08-13T17:43:24.689Z</time>
      </trkpt>
      <trkpt lat="39.91743" lon="45.24001">
        <ele>1718.06321</ele>
        <time>2021-08-13T17:43:26.806Z</time>
      </trkpt>
      <trkpt lat="39.91698" lon="45.24079">
        <ele>1715.41293</ele>
        <time>2021-08-13T17:43:45.010Z</time>
      </trkpt>
      <trkpt lat="39.91689" lon="45.24096">
        <ele>1714.972057</ele>
        <time>2021-08-13T17:43:48.923Z</time>
      </trkpt>
      <trkpt lat="39.91647" lon="45.24173">
        <ele>1712.997658</ele>
        <time>2021-08-13T17:44:05.882Z</time>
      </trkpt>
      <trkpt lat="39.91636" lon="45.24181">
        <ele>1712.650562</ele>
        <time>2021-08-13T17:44:09.803Z</time>
      </trkpt>
      <trkpt lat="39.9162" lon="45.24182">
        <ele>1712.223504</ele>
        <time>2021-08-13T17:44:13.131Z</time>
      </trkpt>
      <trkpt lat="39.91534" lon="45.24167">
        <ele>1708.108205</ele>
        <time>2021-08-13T17:44:32.943Z</time>
      </trkpt>
      <trkpt lat="39.91453" lon="45.24167">
        <ele>1703.702561</ele>
        <time>2021-08-13T17:44:49.195Z</time>
      </trkpt>
      <trkpt lat="39.91407" lon="45.24177">
        <ele>1701.074358</ele>
        <time>2021-08-13T17:44:58.661Z</time>
      </trkpt>
      <trkpt lat="39.91362" lon="45.2419">
        <ele>1698.377825</ele>
        <time>2021-08-13T17:45:07.791Z</time>
      </trkpt>
      <trkpt lat="39.91248" lon="45.24241">
        <ele>1691.218326</ele>
        <time>2021-08-13T17:45:32.652Z</time>
      </trkpt>
      <trkpt lat="39.90919" lon="45.24377">
        <ele>1677.026062</ele>
        <time>2021-08-13T17:46:48.398Z</time>
      </trkpt>
      <trkpt lat="39.90866" lon="45.2439">
        <ele>1674.813455</ele>
        <time>2021-08-13T17:47:00.369Z</time>
      </trkpt>
      <trkpt lat="39.90765" lon="45.24405">
        <ele>1670.655249</ele>
        <time>2021-08-13T17:47:22.487Z</time>
      </trkpt>
      <trkpt lat="39.90628" lon="45.2443">
        <ele>1665.04492</ele>
        <time>2021-08-13T17:47:52.351Z</time>
      </trkpt>
      <trkpt lat="39.90552" lon="45.24453">
        <ele>1661.890563</ele>
        <time>2021-08-13T17:48:09.579Z</time>
      </trkpt>
      <trkpt lat="39.90502" lon="45.24482">
        <ele>1660.775199</ele>
        <time>2021-08-13T17:48:22.126Z</time>
      </trkpt>
      <trkpt lat="39.90444" lon="45.24532">
        <ele>1659.441378</ele>
        <time>2021-08-13T17:48:39.393Z</time>
      </trkpt>
      <trkpt lat="39.90344" lon="45.24666">
        <ele>1657.385464</ele>
        <time>2021-08-13T17:49:20.431Z</time>
      </trkpt>
      <trkpt lat="39.9027" lon="45.24729">
        <ele>1656.423527</ele>
        <time>2021-08-13T17:49:43.931Z</time>
      </trkpt>
      <trkpt lat="39.90179" lon="45.24766">
        <ele>1653.481969</ele>
        <time>2021-08-13T17:50:05.944Z</time>
      </trkpt>
      <trkpt lat="39.90168" lon="45.24775">
        <ele>1653.031223</ele>
        <time>2021-08-13T17:50:09.052Z</time>
      </trkpt>
      <trkpt lat="39.90111" lon="45.24811">
        <ele>1650.970314</ele>
        <time>2021-08-13T17:50:22.838Z</time>
      </trkpt>
      <trkpt lat="39.9003" lon="45.24878">
        <ele>1647.058973</ele>
        <time>2021-08-13T17:50:43.702Z</time>
      </trkpt>
      <trkpt lat="39.89994" lon="45.24916">
        <ele>1645.129968</ele>
        <time>2021-08-13T17:50:53.664Z</time>
      </trkpt>
      <trkpt lat="39.89943" lon="45.24949">
        <ele>1642.700139</ele>
        <time>2021-08-13T17:51:06.265Z</time>
      </trkpt>
      <trkpt lat="39.89871" lon="45.25018">
        <ele>1638.512786</ele>
        <time>2021-08-13T17:51:25.696Z</time>
      </trkpt>
      <trkpt lat="39.89839" lon="45.25035">
        <ele>1636.914139</ele>
        <time>2021-08-13T17:51:32.969Z</time>
      </trkpt>
      <trkpt lat="39.89759" lon="45.25107">
        <ele>1631.56795</ele>
        <time>2021-08-13T17:51:53.396Z</time>
      </trkpt>
      <trkpt lat="39.89597" lon="45.25269">
        <ele>1619.125475</ele>
        <time>2021-08-13T17:52:34.511Z</time>
      </trkpt>
      <trkpt lat="39.89587" lon="45.25279">
        <ele>1618.425242</ele>
        <time>2021-08-13T17:52:36.986Z</time>
      </trkpt>
      <trkpt lat="39.89546" lon="45.25322">
        <ele>1615.520978</ele>
        <time>2021-08-13T17:52:47.882Z</time>
      </trkpt>
      <trkpt lat="39.89519" lon="45.2537">
        <ele>1612.984893</ele>
        <time>2021-08-13T17:52:57.991Z</time>
      </trkpt>
      <trkpt lat="39.89506" lon="45.25408">
        <ele>1612.565639</ele>
        <time>2021-08-13T17:53:05.177Z</time>
      </trkpt>
      <trkpt lat="39.8948" lon="45.25484">
        <ele>1611.708863</ele>
        <time>2021-08-13T17:53:21.176Z</time>
      </trkpt>
      <trkpt lat="39.89459" lon="45.25532">
        <ele>1611.135036</ele>
        <time>2021-08-13T17:53:33.227Z</time>
      </trkpt>
      <trkpt lat="39.89353" lon="45.25677">
        <ele>1611.872059</ele>
        <time>2021-08-13T17:54:28.960Z</time>
      </trkpt>
      <trkpt lat="39.89339" lon="45.25709">
        <ele>1612.191397</ele>
        <time>2021-08-13T17:54:39.509Z</time>
      </trkpt>
      <trkpt lat="39.89333" lon="45.25744">
        <ele>1612.507694</ele>
        <time>2021-08-13T17:54:50.396Z</time>
      </trkpt>
      <trkpt lat="39.89336" lon="45.25819">
        <ele>1613.832426</ele>
        <time>2021-08-13T17:55:14.552Z</time>
      </trkpt>
      <trkpt lat="39.89333" lon="45.25883">
        <ele>1615.111139</ele>
        <time>2021-08-13T17:55:36.950Z</time>
      </trkpt>
      <trkpt lat="39.89322" lon="45.25912">
        <ele>1615.754372</ele>
        <time>2021-08-13T17:55:48.680Z</time>
      </trkpt>
      <trkpt lat="39.89275" lon="45.25995">
        <ele>1617.893552</ele>
        <time>2021-08-13T17:56:27.609Z</time>
      </trkpt>
      <trkpt lat="39.89186" lon="45.26129">
        <ele>1622.009079</ele>
        <time>2021-08-13T17:57:35.272Z</time>
      </trkpt>
      <trkpt lat="39.89144" lon="45.26225">
        <ele>1622.921067</ele>
        <time>2021-08-13T17:58:12.525Z</time>
      </trkpt>
      <trkpt lat="39.89068" lon="45.26301">
        <ele>1623.157129</ele>
        <time>2021-08-13T17:58:40.359Z</time>
      </trkpt>
      <trkpt lat="39.8905" lon="45.26321">
        <ele>1623.217521</ele>
        <time>2021-08-13T17:58:46.717Z</time>
      </trkpt>
      <trkpt lat="39.89008" lon="45.26355">
        <ele>1621.802338</ele>
        <time>2021-08-13T17:58:58.544Z</time>
      </trkpt>
      <trkpt lat="39.8892" lon="45.26473">
        <ele>1618.142216</ele>
        <time>2021-08-13T17:59:27.161Z</time>
      </trkpt>
      <trkpt lat="39.88879" lon="45.26506">
        <ele>1615.849902</ele>
        <time>2021-08-13T17:59:37.977Z</time>
      </trkpt>
      <trkpt lat="39.88812" lon="45.26537">
        <ele>1612.313151</ele>
        <time>2021-08-13T17:59:53.470Z</time>
      </trkpt>
      <trkpt lat="39.8875" lon="45.26579">
        <ele>1608.592621</ele>
        <time>2021-08-13T18:00:07.814Z</time>
      </trkpt>
      <trkpt lat="39.88681" lon="45.26614">
        <ele>1601.280742</ele>
        <time>2021-08-13T18:00:22.174Z</time>
      </trkpt>
      <trkpt lat="39.88613" lon="45.26637">
        <ele>1594.353532</ele>
        <time>2021-08-13T18:00:35.280Z</time>
      </trkpt>
      <trkpt lat="39.88549" lon="45.26642">
        <ele>1587.726056</ele>
        <time>2021-08-13T18:00:47.117Z</time>
      </trkpt>
      <trkpt lat="39.88485" lon="45.26628">
        <ele>1580.647988</ele>
        <time>2021-08-13T18:00:59.198Z</time>
      </trkpt>
      <trkpt lat="39.8828" lon="45.26556">
        <ele>1562.750062</ele>
        <time>2021-08-13T18:01:40.065Z</time>
      </trkpt>
      <trkpt lat="39.88266" lon="45.26558">
        <ele>1561.77271</ele>
        <time>2021-08-13T18:01:43.068Z</time>
      </trkpt>
      <trkpt lat="39.88257" lon="45.26564">
        <ele>1561.12378</ele>
        <time>2021-08-13T18:01:45.094Z</time>
      </trkpt>
      <trkpt lat="39.88252" lon="45.26586">
        <ele>1559.919385</ele>
        <time>2021-08-13T18:01:49.207Z</time>
      </trkpt>
      <trkpt lat="39.88255" lon="45.26598">
        <ele>1559.391653</ele>
        <time>2021-08-13T18:01:51.675Z</time>
      </trkpt>
      <trkpt lat="39.88266" lon="45.26607">
        <ele>1559.7809</ele>
        <time>2021-08-13T18:01:54.813Z</time>
      </trkpt>
      <trkpt lat="39.88371" lon="45.26638">
        <ele>1562.980326</ele>
        <time>2021-08-13T18:02:47.870Z</time>
      </trkpt>
      <trkpt lat="39.88392" lon="45.2665">
        <ele>1563.641505</ele>
        <time>2021-08-13T18:03:03.633Z</time>
      </trkpt>
      <trkpt lat="39.88403" lon="45.26659">
        <ele>1564.034078</ele>
        <time>2021-08-13T18:03:11.505Z</time>
      </trkpt>
      <trkpt lat="39.88413" lon="45.26675">
        <ele>1564.507713</ele>
        <time>2021-08-13T18:03:22.552Z</time>
      </trkpt>
      <trkpt lat="39.88415" lon="45.26692">
        <ele>1564.87457</ele>
        <time>2021-08-13T18:03:30.184Z</time>
      </trkpt>
      <trkpt lat="39.88412" lon="45.26709">
        <ele>1565.261836</ele>
        <time>2021-08-13T18:03:38.888Z</time>
      </trkpt>
      <trkpt lat="39.884" lon="45.26726">
        <ele>1565.759742</ele>
        <time>2021-08-13T18:03:50.155Z</time>
      </trkpt>
      <trkpt lat="39.88374" lon="45.2675">
        <ele>1566.672624</ele>
        <time>2021-08-13T18:04:09.992Z</time>
      </trkpt>
      <trkpt lat="39.88334" lon="45.26755">
        <ele>1567.802776</ele>
        <time>2021-08-13T18:04:32.406Z</time>
      </trkpt>
      <trkpt lat="39.88196" lon="45.26727">
        <ele>1566.330032</ele>
        <time>2021-08-13T18:05:10.915Z</time>
      </trkpt>
      <trkpt lat="39.88091" lon="45.26717">
        <ele>1561.169057</ele>
        <time>2021-08-13T18:05:31.878Z</time>
      </trkpt>
      <trkpt lat="39.88027" lon="45.26706">
        <ele>1555.215169</ele>
        <time>2021-08-13T18:05:44.367Z</time>
      </trkpt>
      <trkpt lat="39.87937" lon="45.26671">
        <ele>1546.267027</ele>
        <time>2021-08-13T18:06:02.194Z</time>
      </trkpt>
      <trkpt lat="39.87823" lon="45.26693">
        <ele>1535.195745</ele>
        <time>2021-08-13T18:06:24.225Z</time>
      </trkpt>
      <trkpt lat="39.87676" lon="45.26703">
        <ele>1522.760881</ele>
        <time>2021-08-13T18:06:52.462Z</time>
      </trkpt>
      <trkpt lat="39.87656" lon="45.2671">
        <ele>1521.327891</ele>
        <time>2021-08-13T18:06:56.634Z</time>
      </trkpt>
      <trkpt lat="39.87636" lon="45.26717">
        <ele>1519.963043</ele>
        <time>2021-08-13T18:07:00.844Z</time>
      </trkpt>
      <trkpt lat="39.87534" lon="45.26779">
        <ele>1512.976685</ele>
        <time>2021-08-13T18:07:24.294Z</time>
      </trkpt>
      <trkpt lat="39.8743" lon="45.26857">
        <ele>1507.278266</ele>
        <time>2021-08-13T18:07:50.604Z</time>
      </trkpt>
      <trkpt lat="39.87347" lon="45.26912">
        <ele>1501.458775</ele>
        <time>2021-08-13T18:08:10.041Z</time>
      </trkpt>
      <trkpt lat="39.87269" lon="45.26985">
        <ele>1494.804646</ele>
        <time>2021-08-13T18:08:28.951Z</time>
      </trkpt>
      <trkpt lat="39.87215" lon="45.27016">
        <ele>1490.099239</ele>
        <time>2021-08-13T18:08:40.542Z</time>
      </trkpt>
      <trkpt lat="39.87155" lon="45.27041">
        <ele>1484.916107</ele>
        <time>2021-08-13T18:08:52.697Z</time>
      </trkpt>
      <trkpt lat="39.87144" lon="45.27048">
        <ele>1483.915413</ele>
        <time>2021-08-13T18:08:54.969Z</time>
      </trkpt>
      <trkpt lat="39.87112" lon="45.27079">
        <ele>1480.572526</ele>
        <time>2021-08-13T18:09:02.807Z</time>
      </trkpt>
      <trkpt lat="39.87061" lon="45.27197">
        <ele>1472.913247</ele>
        <time>2021-08-13T18:09:23.280Z</time>
      </trkpt>
      <trkpt lat="39.86965" lon="45.27321">
        <ele>1463.449417</ele>
        <time>2021-08-13T18:09:50.995Z</time>
      </trkpt>
      <trkpt lat="39.8694" lon="45.27371">
        <ele>1460.474974</ele>
        <time>2021-08-13T18:10:00.034Z</time>
      </trkpt>
      <trkpt lat="39.86903" lon="45.27489">
        <ele>1453.99184</ele>
        <time>2021-08-13T18:10:19.780Z</time>
      </trkpt>
      <trkpt lat="39.86899" lon="45.27638">
        <ele>1447.543196</ele>
        <time>2021-08-13T18:10:43.426Z</time>
      </trkpt>
      <trkpt lat="39.86885" lon="45.27695">
        <ele>1444.972463</ele>
        <time>2021-08-13T18:10:53.233Z</time>
      </trkpt>
      <trkpt lat="39.86832" lon="45.27774">
        <ele>1441.856952</ele>
        <time>2021-08-13T18:11:10.440Z</time>
      </trkpt>
      <trkpt lat="39.86798" lon="45.27813">
        <ele>1440.369728</ele>
        <time>2021-08-13T18:11:20.530Z</time>
      </trkpt>
      <trkpt lat="39.8676" lon="45.27864">
        <ele>1438.574665</ele>
        <time>2021-08-13T18:11:33.591Z</time>
      </trkpt>
      <trkpt lat="39.86751" lon="45.27879">
        <ele>1438.078521</ele>
        <time>2021-08-13T18:11:37.400Z</time>
      </trkpt>
      <trkpt lat="39.86685" lon="45.27971">
        <ele>1437.223256</ele>
        <time>2021-08-13T18:12:02.607Z</time>
      </trkpt>
      <trkpt lat="39.86643" lon="45.28003">
        <ele>1436.870645</ele>
        <time>2021-08-13T18:12:17.381Z</time>
      </trkpt>
      <trkpt lat="39.86627" lon="45.28009">
        <ele>1436.743882</ele>
        <time>2021-08-13T18:12:22.937Z</time>
      </trkpt>
      <trkpt lat="39.86425" lon="45.281">
        <ele>1436.259032</ele>
        <time>2021-08-13T18:13:31.404Z</time>
      </trkpt>
      <trkpt lat="39.86367" lon="45.28116">
        <ele>1434.491866</ele>
        <time>2021-08-13T18:13:46.330Z</time>
      </trkpt>
      <trkpt lat="39.86314" lon="45.28118">
        <ele>1432.916862</ele>
        <time>2021-08-13T18:13:58.565Z</time>
      </trkpt>
      <trkpt lat="39.86212" lon="45.28091">
        <ele>1427.988141</ele>
        <time>2021-08-13T18:14:20.590Z</time>
      </trkpt>
      <trkpt lat="39.86178" lon="45.28096">
        <ele>1425.613627</ele>
        <time>2021-08-13T18:14:27.496Z</time>
      </trkpt>
      <trkpt lat="39.86079" lon="45.28137">
        <ele>1418.424333</ele>
        <time>2021-08-13T18:14:47.833Z</time>
      </trkpt>
      <trkpt lat="39.85849" lon="45.28189">
        <ele>1399.39102</ele>
        <time>2021-08-13T18:15:33.202Z</time>
      </trkpt>
      <trkpt lat="39.85784" lon="45.28219">
        <ele>1394.207138</ele>
        <time>2021-08-13T18:15:46.837Z</time>
      </trkpt>
      <trkpt lat="39.85591" lon="45.28403">
        <ele>1378.960945</ele>
        <time>2021-08-13T18:16:35.625Z</time>
      </trkpt>
      <trkpt lat="39.85563" lon="45.28445">
        <ele>1377.171543</ele>
        <time>2021-08-13T18:16:44.838Z</time>
      </trkpt>
      <trkpt lat="39.85525" lon="45.28639">
        <ele>1371.121977</ele>
        <time>2021-08-13T18:17:19.156Z</time>
      </trkpt>
      <trkpt lat="39.85498" lon="45.28702">
        <ele>1369.523539</ele>
        <time>2021-08-13T18:17:32.381Z</time>
      </trkpt>
      <trkpt lat="39.85436" lon="45.28796">
        <ele>1366.805157</ele>
        <time>2021-08-13T18:17:55.095Z</time>
      </trkpt>
      <trkpt lat="39.85336" lon="45.289">
        <ele>1361.678841</ele>
        <time>2021-08-13T18:18:23.505Z</time>
      </trkpt>
      <trkpt lat="39.8532" lon="45.28925">
        <ele>1360.635727</ele>
        <time>2021-08-13T18:18:28.931Z</time>
      </trkpt>
      <trkpt lat="39.85249" lon="45.29047">
        <ele>1355.694487</ele>
        <time>2021-08-13T18:18:53.458Z</time>
      </trkpt>
      <trkpt lat="39.85203" lon="45.29149">
        <ele>1351.809489</ele>
        <time>2021-08-13T18:19:13.317Z</time>
      </trkpt>
      <trkpt lat="39.85176" lon="45.29209">
        <ele>1351.217256</ele>
        <time>2021-08-13T18:19:26.470Z</time>
      </trkpt>
      <trkpt lat="39.85116" lon="45.29303">
        <ele>1350.515237</ele>
        <time>2021-08-13T18:19:54.354Z</time>
      </trkpt>
      <trkpt lat="39.85074" lon="45.29354">
        <ele>1350.317338</ele>
        <time>2021-08-13T18:20:15.163Z</time>
      </trkpt>
      <trkpt lat="39.85019" lon="45.29382">
        <ele>1350.554831</ele>
        <time>2021-08-13T18:20:36.812Z</time>
      </trkpt>
      <trkpt lat="39.84935" lon="45.29394">
        <ele>1350.89652</ele>
        <time>2021-08-13T18:21:06.705Z</time>
      </trkpt>
      <trkpt lat="39.84788" lon="45.29405">
        <ele>1348.211658</ele>
        <time>2021-08-13T18:21:43.982Z</time>
      </trkpt>
      <trkpt lat="39.84638" lon="45.29423">
        <ele>1343.84554</ele>
        <time>2021-08-13T18:22:17.341Z</time>
      </trkpt>
      <trkpt lat="39.84581" lon="45.29429">
        <ele>1341.987376</ele>
        <time>2021-08-13T18:22:30.194Z</time>
      </trkpt>
      <trkpt lat="39.8448" lon="45.29428">
        <ele>1340.555379</ele>
        <time>2021-08-13T18:22:55.732Z</time>
      </trkpt>
      <trkpt lat="39.84444" lon="45.29439">
        <ele>1340.207145</ele>
        <time>2021-08-13T18:23:06.673Z</time>
      </trkpt>
      <trkpt lat="39.84413" lon="45.29464">
        <ele>1339.86425</ele>
        <time>2021-08-13T18:23:18.219Z</time>
      </trkpt>
      <trkpt lat="39.84383" lon="45.29472">
        <ele>1339.585036</ele>
        <time>2021-08-13T18:23:28.187Z</time>
      </trkpt>
      <trkpt lat="39.84231" lon="45.29488">
        <ele>1338.687462</ele>
        <time>2021-08-13T18:24:12.279Z</time>
      </trkpt>
      <trkpt lat="39.84171" lon="45.29489">
        <ele>1337.670897</ele>
        <time>2021-08-13T18:24:28.038Z</time>
      </trkpt>
      <trkpt lat="39.83955" lon="45.29451">
        <ele>1329.103164</ele>
        <time>2021-08-13T18:25:18.644Z</time>
      </trkpt>
      <trkpt lat="39.839" lon="45.29434">
        <ele>1325.215256</ele>
        <time>2021-08-13T18:25:29.692Z</time>
      </trkpt>
      <trkpt lat="39.83863" lon="45.29403">
        <ele>1322.228764</ele>
        <time>2021-08-13T18:25:38.006Z</time>
      </trkpt>
      <trkpt lat="39.83841" lon="45.29392">
        <ele>1319.620517</ele>
        <time>2021-08-13T18:25:42.381Z</time>
      </trkpt>
      <trkpt lat="39.83788" lon="45.2938">
        <ele>1313.080183</ele>
        <time>2021-08-13T18:25:52.362Z</time>
      </trkpt>
      <trkpt lat="39.83703" lon="45.29367">
        <ele>1302.619898</ele>
        <time>2021-08-13T18:26:08.173Z</time>
      </trkpt>
      <trkpt lat="39.83669" lon="45.2938">
        <ele>1298.899113</ele>
        <time>2021-08-13T18:26:14.582Z</time>
      </trkpt>
      <trkpt lat="39.83616" lon="45.29457">
        <ele>1292.174029</ele>
        <time>2021-08-13T18:26:29.815Z</time>
      </trkpt>
      <trkpt lat="39.83573" lon="45.29506">
        <ele>1287.32935</ele>
        <time>2021-08-13T18:26:41.275Z</time>
      </trkpt>
      <trkpt lat="39.8357" lon="45.29515">
        <ele>1286.723299</ele>
        <time>2021-08-13T18:26:42.788Z</time>
      </trkpt>
      <trkpt lat="39.8356" lon="45.29524">
        <ele>1285.614292</ele>
        <time>2021-08-13T18:26:45.800Z</time>
      </trkpt>
      <trkpt lat="39.83543" lon="45.29528">
        <ele>1284.583075</ele>
        <time>2021-08-13T18:26:49.498Z</time>
      </trkpt>
      <trkpt lat="39.83534" lon="45.29539">
        <ele>1284.155633</ele>
        <time>2021-08-13T18:26:52.359Z</time>
      </trkpt>
      <trkpt lat="39.83518" lon="45.29559">
        <ele>1283.390954</ele>
        <time>2021-08-13T18:26:57.322Z</time>
      </trkpt>
      <trkpt lat="39.83517" lon="45.29576">
        <ele>1282.915683</ele>
        <time>2021-08-13T18:27:00.507Z</time>
      </trkpt>
      <trkpt lat="39.83493" lon="45.29659">
        <ele>1280.544449</ele>
        <time>2021-08-13T18:27:16.266Z</time>
      </trkpt>
      <trkpt lat="39.83476" lon="45.2968">
        <ele>1279.738332</ele>
        <time>2021-08-13T18:27:21.663Z</time>
      </trkpt>
      <trkpt lat="39.83393" lon="45.29772">
        <ele>1275.535579</ele>
        <time>2021-08-13T18:27:47.314Z</time>
      </trkpt>
      <trkpt lat="39.83369" lon="45.29774">
        <ele>1274.563174</ele>
        <time>2021-08-13T18:27:52.778Z</time>
      </trkpt>
      <trkpt lat="39.83331" lon="45.29776">
        <ele>1273.078915</ele>
        <time>2021-08-13T18:28:01.133Z</time>
      </trkpt>
      <trkpt lat="39.83313" lon="45.2977">
        <ele>1272.302165</ele>
        <time>2021-08-13T18:28:05.500Z</time>
      </trkpt>
      <trkpt lat="39.83292" lon="45.29751">
        <ele>1271.273015</ele>
        <time>2021-08-13T18:28:11.003Z</time>
      </trkpt>
      <trkpt lat="39.8328" lon="45.29729">
        <ele>1270.145378</ele>
        <time>2021-08-13T18:28:15.639Z</time>
      </trkpt>
      <trkpt lat="39.83249" lon="45.29704">
        <ele>1268.276476</ele>
        <time>2021-08-13T18:28:23.351Z</time>
      </trkpt>
      <trkpt lat="39.83224" lon="45.29693">
        <ele>1266.884653</ele>
        <time>2021-08-13T18:28:29.185Z</time>
      </trkpt>
      <trkpt lat="39.8316" lon="45.29701">
        <ele>1263.52439</ele>
        <time>2021-08-13T18:28:43.496Z</time>
      </trkpt>
      <trkpt lat="39.83075" lon="45.29663">
        <ele>1258.955171</ele>
        <time>2021-08-13T18:29:03.344Z</time>
      </trkpt>
      <trkpt lat="39.83053" lon="45.29682">
        <ele>1257.609364</ele>
        <time>2021-08-13T18:29:09.145Z</time>
      </trkpt>
      <trkpt lat="39.83012" lon="45.2976">
        <ele>1253.95472</ele>
        <time>2021-08-13T18:29:25.155Z</time>
      </trkpt>
      <trkpt lat="39.82995" lon="45.29763">
        <ele>1253.1005</ele>
        <time>2021-08-13T18:29:28.918Z</time>
      </trkpt>
      <trkpt lat="39.82937" lon="45.29747">
        <ele>1250.801347</ele>
        <time>2021-08-13T18:29:41.724Z</time>
      </trkpt>
      <trkpt lat="39.82855" lon="45.29715">
        <ele>1247.56048</ele>
        <time>2021-08-13T18:30:00.500Z</time>
      </trkpt>
      <trkpt lat="39.82788" lon="45.2972">
        <ele>1245.41319</ele>
        <time>2021-08-13T18:30:16.679Z</time>
      </trkpt>
      <trkpt lat="39.82775" lon="45.29698">
        <ele>1244.921832</ele>
        <time>2021-08-13T18:30:21.957Z</time>
      </trkpt>
      <trkpt lat="39.82768" lon="45.29702">
        <ele>1244.729497</ele>
        <time>2021-08-13T18:30:23.984Z</time>
      </trkpt>
      <trkpt lat="39.82762" lon="45.29717">
        <ele>1244.420986</ele>
        <time>2021-08-13T18:30:27.237Z</time>
      </trkpt>
      <trkpt lat="39.82755" lon="45.29724">
        <ele>1244.199237</ele>
        <time>2021-08-13T18:30:29.839Z</time>
      </trkpt>
      <trkpt lat="39.82751" lon="45.29727">
        <ele>1244.080872</ele>
        <time>2021-08-13T18:30:30.875Z</time>
      </trkpt>
      <trkpt lat="39.82661" lon="45.29665">
        <ele>1241.553126</ele>
        <time>2021-08-13T18:30:55.439Z</time>
      </trkpt>
      <trkpt lat="39.82633" lon="45.29667">
        <ele>1240.549063</ele>
        <time>2021-08-13T18:31:01.703Z</time>
      </trkpt>
      <trkpt lat="39.82454" lon="45.2965">
        <ele>1234.085035</ele>
        <time>2021-08-13T18:31:41.170Z</time>
      </trkpt>
      <trkpt lat="39.82325" lon="45.29612">
        <ele>1229.278428</ele>
        <time>2021-08-13T18:32:10.625Z</time>
      </trkpt>
      <trkpt lat="39.82285" lon="45.29611">
        <ele>1228.132918</ele>
        <time>2021-08-13T18:32:19.704Z</time>
      </trkpt>
      <trkpt lat="39.81898" lon="45.29568">
        <ele>1219.194584</ele>
        <time>2021-08-13T18:33:53.060Z</time>
      </trkpt>
      <trkpt lat="39.8181" lon="45.29568">
        <ele>1217.756153</ele>
        <time>2021-08-13T18:34:14.822Z</time>
      </trkpt>
      <trkpt lat="39.81767" lon="45.2958">
        <ele>1217.299068</ele>
        <time>2021-08-13T18:34:27.356Z</time>
      </trkpt>
      <trkpt lat="39.81722" lon="45.29592">
        <ele>1218.03219</ele>
        <time>2021-08-13T18:34:42.154Z</time>
      </trkpt>
      <trkpt lat="39.81674" lon="45.29562">
        <ele>1218.881492</ele>
        <time>2021-08-13T18:35:03.708Z</time>
      </trkpt>
      <trkpt lat="39.81554" lon="45.2955">
        <ele>1220.911777</ele>
        <time>2021-08-13T18:36:04.449Z</time>
      </trkpt>
      <trkpt lat="39.81494" lon="45.29564">
        <ele>1222.043782</ele>
        <time>2021-08-13T18:36:33.278Z</time>
      </trkpt>
      <trkpt lat="39.81454" lon="45.29538">
        <ele>1222.865518</ele>
        <time>2021-08-13T18:36:49.846Z</time>
      </trkpt>
      <trkpt lat="39.81431" lon="45.29512">
        <ele>1223.281923</ele>
        <time>2021-08-13T18:37:00.710Z</time>
      </trkpt>
      <trkpt lat="39.81413" lon="45.2952">
        <ele>1223.019677</ele>
        <time>2021-08-13T18:37:05.723Z</time>
      </trkpt>
      <trkpt lat="39.81404" lon="45.29547">
        <ele>1222.707214</ele>
        <time>2021-08-13T18:37:13.011Z</time>
      </trkpt>
      <trkpt lat="39.81408" lon="45.29588">
        <ele>1222.265256</ele>
        <time>2021-08-13T18:37:22.131Z</time>
      </trkpt>
      <trkpt lat="39.81397" lon="45.29595">
        <ele>1222.095119</ele>
        <time>2021-08-13T18:37:25.082Z</time>
      </trkpt>
      <trkpt lat="39.81359" lon="45.29586">
        <ele>1221.550352</ele>
        <time>2021-08-13T18:37:35.167Z</time>
      </trkpt>
      <trkpt lat="39.81266" lon="45.2961">
        <ele>1220.050577</ele>
        <time>2021-08-13T18:37:58.717Z</time>
      </trkpt>
      <trkpt lat="39.8117" lon="45.29603">
        <ele>1218.27576</ele>
        <time>2021-08-13T18:38:24.471Z</time>
      </trkpt>
      <trkpt lat="39.81136" lon="45.29575">
        <ele>1217.541507</ele>
        <time>2021-08-13T18:38:35.043Z</time>
      </trkpt>
      <trkpt lat="39.81122" lon="45.29578">
        <ele>1217.166268</ele>
        <time>2021-08-13T18:38:38.740Z</time>
      </trkpt>
      <trkpt lat="39.81087" lon="45.29627">
        <ele>1215.751307</ele>
        <time>2021-08-13T18:38:52.062Z</time>
      </trkpt>
      <trkpt lat="39.81068" lon="45.29635">
        <ele>1215.207284</ele>
        <time>2021-08-13T18:38:57.087Z</time>
      </trkpt>
      <trkpt lat="39.8083" lon="45.29641">
        <ele>1207.438191</ele>
        <time>2021-08-13T18:39:53.552Z</time>
      </trkpt>
      <trkpt lat="39.80757" lon="45.29727">
        <ele>1203.58875</ele>
        <time>2021-08-13T18:40:15.886Z</time>
      </trkpt>
      <trkpt lat="39.80677" lon="45.29761">
        <ele>1200.116503</ele>
        <time>2021-08-13T18:40:35.106Z</time>
      </trkpt>
      <trkpt lat="39.80575" lon="45.29825">
        <ele>1196.359616</ele>
        <time>2021-08-13T18:41:01.449Z</time>
      </trkpt>
      <trkpt lat="39.80431" lon="45.29893">
        <ele>1192.240607</ele>
        <time>2021-08-13T18:41:39.834Z</time>
      </trkpt>
      <trkpt lat="39.80371" lon="45.29928">
        <ele>1190.906561</ele>
        <time>2021-08-13T18:41:56.713Z</time>
      </trkpt>
      <trkpt lat="39.80316" lon="45.29991">
        <ele>1189.459237</ele>
        <time>2021-08-13T18:42:15.975Z</time>
      </trkpt>
      <trkpt lat="39.80293" lon="45.3004">
        <ele>1188.777316</ele>
        <time>2021-08-13T18:42:27.621Z</time>
      </trkpt>
      <trkpt lat="39.80261" lon="45.30065">
        <ele>1188.19318</ele>
        <time>2021-08-13T18:42:37.601Z</time>
      </trkpt>
      <trkpt lat="39.80186" lon="45.30056">
        <ele>1187.022404</ele>
        <time>2021-08-13T18:42:57.810Z</time>
      </trkpt>
      <trkpt lat="39.80033" lon="45.30123">
        <ele>1184.632288</ele>
        <time>2021-08-13T18:43:41.755Z</time>
      </trkpt>
      <trkpt lat="39.80014" lon="45.30149">
        <ele>1184.235918</ele>
        <time>2021-08-13T18:43:48.973Z</time>
      </trkpt>
      <trkpt lat="39.79946" lon="45.30192">
        <ele>1182.808628</ele>
        <time>2021-08-13T18:44:09.000Z</time>
      </trkpt>
      <trkpt lat="39.79731" lon="45.30304">
        <ele>1178.438178</ele>
        <time>2021-08-13T18:45:08.267Z</time>
      </trkpt>
      <trkpt lat="39.79691" lon="45.30306">
        <ele>1177.672199</ele>
        <time>2021-08-13T18:45:18.994Z</time>
      </trkpt>
      <trkpt lat="39.79659" lon="45.30344">
        <ele>1177.121083</ele>
        <time>2021-08-13T18:45:30.537Z</time>
      </trkpt>
      <trkpt lat="39.79612" lon="45.30334">
        <ele>1176.657167</ele>
        <time>2021-08-13T18:45:43.753Z</time>
      </trkpt>
      <trkpt lat="39.79421" lon="45.30348">
        <ele>1175.876507</ele>
        <time>2021-08-13T18:46:39.824Z</time>
      </trkpt>
      <trkpt lat="39.79386" lon="45.30344">
        <ele>1175.973124</ele>
        <time>2021-08-13T18:46:50.989Z</time>
      </trkpt>
      <trkpt lat="39.79371" lon="45.30376">
        <ele>1176.052725</ele>
        <time>2021-08-13T18:47:01.336Z</time>
      </trkpt>
      <trkpt lat="39.79334" lon="45.304">
        <ele>1176.575652</ele>
        <time>2021-08-13T18:47:18.970Z</time>
      </trkpt>
      <trkpt lat="39.79247" lon="45.30407">
        <ele>1179.591718</ele>
        <time>2021-08-13T18:48:05.351Z</time>
      </trkpt>
      <trkpt lat="39.79164" lon="45.30362">
        <ele>1182.400387</ele>
        <time>2021-08-13T18:48:55.628Z</time>
      </trkpt>
      <trkpt lat="39.79131" lon="45.30374">
        <ele>1182.652064</ele>
        <time>2021-08-13T18:49:13.734Z</time>
      </trkpt>
      <trkpt lat="39.79102" lon="45.30407">
        <ele>1182.932002</ele>
        <time>2021-08-13T18:49:32.786Z</time>
      </trkpt>
      <trkpt lat="39.79044" lon="45.30598">
        <ele>1180.661566</ele>
        <time>2021-08-13T18:50:14.628Z</time>
      </trkpt>
      <trkpt lat="39.79025" lon="45.30615">
        <ele>1179.510961</ele>
        <time>2021-08-13T18:50:19.830Z</time>
      </trkpt>
      <trkpt lat="39.78997" lon="45.30609">
        <ele>1178.151359</ele>
        <time>2021-08-13T18:50:25.889Z</time>
      </trkpt>
      <trkpt lat="39.78943" lon="45.30579">
        <ele>1175.328545</ele>
        <time>2021-08-13T18:50:38.240Z</time>
      </trkpt>
      <trkpt lat="39.78871" lon="45.30572">
        <ele>1170.274113</ele>
        <time>2021-08-13T18:50:53.123Z</time>
      </trkpt>
      <trkpt lat="39.78727" lon="45.30573">
        <ele>1160.532448</ele>
        <time>2021-08-13T18:51:23.102Z</time>
      </trkpt>
      <trkpt lat="39.78684" lon="45.30541">
        <ele>1158.170668</ele>
        <time>2021-08-13T18:51:33.998Z</time>
      </trkpt>
      <trkpt lat="39.78665" lon="45.30538">
        <ele>1157.242821</ele>
        <time>2021-08-13T18:51:38.333Z</time>
      </trkpt>
      <trkpt lat="39.78618" lon="45.30455">
        <ele>1153.456128</ele>
        <time>2021-08-13T18:51:56.877Z</time>
      </trkpt>
      <trkpt lat="39.78556" lon="45.3043">
        <ele>1151.804986</ele>
        <time>2021-08-13T18:52:12.918Z</time>
      </trkpt>
      <trkpt lat="39.7852" lon="45.30433">
        <ele>1150.92497</ele>
        <time>2021-08-13T18:52:22.160Z</time>
      </trkpt>
      <trkpt lat="39.78445" lon="45.305">
        <ele>1148.815028</ele>
        <time>2021-08-13T18:52:45.030Z</time>
      </trkpt>
      <trkpt lat="39.78322" lon="45.30485">
        <ele>1147.215374</ele>
        <time>2021-08-13T18:53:17.860Z</time>
      </trkpt>
      <trkpt lat="39.78302" lon="45.30463">
        <ele>1146.881828</ele>
        <time>2021-08-13T18:53:25.394Z</time>
      </trkpt>
      <trkpt lat="39.78271" lon="45.30494">
        <ele>1146.949791</ele>
        <time>2021-08-13T18:53:37.921Z</time>
      </trkpt>
      <trkpt lat="39.78266" lon="45.30506">
        <ele>1147.157309</ele>
        <time>2021-08-13T18:53:41.495Z</time>
      </trkpt>
      <trkpt lat="39.78243" lon="45.30566">
        <ele>1148.166902</ele>
        <time>2021-08-13T18:54:00.858Z</time>
      </trkpt>
      <trkpt lat="39.78136" lon="45.30493">
        <ele>1150.998952</ele>
        <time>2021-08-13T18:55:01.441Z</time>
      </trkpt>
      <trkpt lat="39.78129" lon="45.30459">
        <ele>1152.104935</ele>
        <time>2021-08-13T18:55:17.029Z</time>
      </trkpt>
      <trkpt lat="39.78102" lon="45.30438">
        <ele>1153.395455</ele>
        <time>2021-08-13T18:55:36.219Z</time>
      </trkpt>
      <trkpt lat="39.78099" lon="45.30322">
        <ele>1157.026411</ele>
        <time>2021-08-13T18:56:27.658Z</time>
      </trkpt>
      <trkpt lat="39.78029" lon="45.30323">
        <ele>1157.804809</ele>
        <time>2021-08-13T18:57:01.412Z</time>
      </trkpt>
      <trkpt lat="39.78004" lon="45.30334">
        <ele>1157.948764</ele>
        <time>2021-08-13T18:57:12.411Z</time>
      </trkpt>
      <trkpt lat="39.77819" lon="45.30503">
        <ele>1155.827817</ele>
        <time>2021-08-13T18:58:13.198Z</time>
      </trkpt>
      <trkpt lat="39.77765" lon="45.30561">
        <ele>1154.330478</ele>
        <time>2021-08-13T18:58:29.942Z</time>
      </trkpt>
      <trkpt lat="39.77697" lon="45.30571">
        <ele>1152.715176</ele>
        <time>2021-08-13T18:58:46.303Z</time>
      </trkpt>
      <trkpt lat="39.77614" lon="45.30554">
        <ele>1150.704421</ele>
        <time>2021-08-13T18:59:07.885Z</time>
      </trkpt>
      <trkpt lat="39.7754" lon="45.30582">
        <ele>1150.337637</ele>
        <time>2021-08-13T18:59:30.406Z</time>
      </trkpt>
      <trkpt lat="39.77433" lon="45.30505">
        <ele>1149.668098</ele>
        <time>2021-08-13T19:00:12.407Z</time>
      </trkpt>
      <trkpt lat="39.77357" lon="45.30497">
        <ele>1147.661313</ele>
        <time>2021-08-13T19:00:34.962Z</time>
      </trkpt>
      <trkpt lat="39.77322" lon="45.30494">
        <ele>1146.740058</ele>
        <time>2021-08-13T19:00:43.517Z</time>
      </trkpt>
      <trkpt lat="39.77299" lon="45.30502">
        <ele>1146.116604</ele>
        <time>2021-08-13T19:00:48.729Z</time>
      </trkpt>
      <trkpt lat="39.77248" lon="45.30512">
        <ele>1143.85513</ele>
        <time>2021-08-13T19:00:59.885Z</time>
      </trkpt>
      <trkpt lat="39.7724" lon="45.30605">
        <ele>1138.658667</ele>
        <time>2021-08-13T19:01:14.171Z</time>
      </trkpt>
      <trkpt lat="39.77215" lon="45.30616">
        <ele>1136.69805</ele>
        <time>2021-08-13T19:01:19.405Z</time>
      </trkpt>
      <trkpt lat="39.77123" lon="45.30658">
        <ele>1130.293293</ele>
        <time>2021-08-13T19:01:38.479Z</time>
      </trkpt>
      <trkpt lat="39.77101" lon="45.3066">
        <ele>1129.102336</ele>
        <time>2021-08-13T19:01:42.841Z</time>
      </trkpt>
      <trkpt lat="39.77032" lon="45.30668">
        <ele>1125.277484</ele>
        <time>2021-08-13T19:01:57.547Z</time>
      </trkpt>
      <trkpt lat="39.76993" lon="45.30673">
        <ele>1123.180966</ele>
        <time>2021-08-13T19:02:05.954Z</time>
      </trkpt>
      <trkpt lat="39.76962" lon="45.30685">
        <ele>1121.892645</ele>
        <time>2021-08-13T19:02:13.200Z</time>
      </trkpt>
      <trkpt lat="39.76914" lon="45.30706">
        <ele>1120.463376</ele>
        <time>2021-08-13T19:02:25.282Z</time>
      </trkpt>
      <trkpt lat="39.76872" lon="45.30739">
        <ele>1119.097745</ele>
        <time>2021-08-13T19:02:36.948Z</time>
      </trkpt>
      <trkpt lat="39.76802" lon="45.30765">
        <ele>1117.120101</ele>
        <time>2021-08-13T19:02:54.073Z</time>
      </trkpt>
      <trkpt lat="39.76748" lon="45.30794">
        <ele>1115.753006</ele>
        <time>2021-08-13T19:03:08.034Z</time>
      </trkpt>
      <trkpt lat="39.76625" lon="45.30869">
        <ele>1113.166646</ele>
        <time>2021-08-13T19:03:40.788Z</time>
      </trkpt>
      <trkpt lat="39.76601" lon="45.30867">
        <ele>1113.120134</ele>
        <time>2021-08-13T19:03:47.196Z</time>
      </trkpt>
      <trkpt lat="39.76574" lon="45.30849">
        <ele>1113.063195</ele>
        <time>2021-08-13T19:03:55.940Z</time>
      </trkpt>
      <trkpt lat="39.76564" lon="45.30845">
        <ele>1113.042315</ele>
        <time>2021-08-13T19:03:58.761Z</time>
      </trkpt>
      <trkpt lat="39.76517" lon="45.30865">
        <ele>1112.950077</ele>
        <time>2021-08-13T19:04:15.830Z</time>
      </trkpt>
      <trkpt lat="39.76494" lon="45.30862">
        <ele>1112.905536</ele>
        <time>2021-08-13T19:04:23.588Z</time>
      </trkpt>
      <trkpt lat="39.76476" lon="45.30854">
        <ele>1112.906365</ele>
        <time>2021-08-13T19:04:32.054Z</time>
      </trkpt>
      <trkpt lat="39.76434" lon="45.30825">
        <ele>1113.787981</ele>
        <time>2021-08-13T19:04:50.655Z</time>
      </trkpt>
      <trkpt lat="39.76396" lon="45.30798">
        <ele>1114.591637</ele>
        <time>2021-08-13T19:05:08.961Z</time>
      </trkpt>
      <trkpt lat="39.76383" lon="45.30798">
        <ele>1114.838223</ele>
        <time>2021-08-13T19:05:15.678Z</time>
      </trkpt>
      <trkpt lat="39.76331" lon="45.30799">
        <ele>1115.796742</ele>
        <time>2021-08-13T19:05:38.302Z</time>
      </trkpt>
      <trkpt lat="39.76242" lon="45.30764">
        <ele>1116.328291</ele>
        <time>2021-08-13T19:06:14.925Z</time>
      </trkpt>
      <trkpt lat="39.7619" lon="45.30743">
        <ele>1116.421674</ele>
        <time>2021-08-13T19:06:31.716Z</time>
      </trkpt>
      <trkpt lat="39.76165" lon="45.30734">
        <ele>1116.465725</ele>
        <time>2021-08-13T19:06:38.808Z</time>
      </trkpt>
      <trkpt lat="39.76142" lon="45.30725">
        <ele>1116.507586</ele>
        <time>2021-08-13T19:06:45.310Z</time>
      </trkpt>
      <trkpt lat="39.76073" lon="45.30709">
        <ele>1114.748826</ele>
        <time>2021-08-13T19:07:02.525Z</time>
      </trkpt>
      <trkpt lat="39.76043" lon="45.30716">
        <ele>1113.928086</ele>
        <time>2021-08-13T19:07:09.747Z</time>
      </trkpt>
      <trkpt lat="39.75899" lon="45.30772">
        <ele>1109.080377</ele>
        <time>2021-08-13T19:07:43.274Z</time>
      </trkpt>
      <trkpt lat="39.75794" lon="45.30816">
        <ele>1104.763028</ele>
        <time>2021-08-13T19:08:07.413Z</time>
      </trkpt>
      <trkpt lat="39.75776" lon="45.30823">
        <ele>1103.983914</ele>
        <time>2021-08-13T19:08:11.494Z</time>
      </trkpt>
      <trkpt lat="39.75727" lon="45.30841">
        <ele>1101.912273</ele>
        <time>2021-08-13T19:08:22.447Z</time>
      </trkpt>
      <trkpt lat="39.75659" lon="45.30856">
        <ele>1099.094904</ele>
        <time>2021-08-13T19:08:37.408Z</time>
      </trkpt>
      <trkpt lat="39.75645" lon="45.30859">
        <ele>1098.500841</ele>
        <time>2021-08-13T19:08:40.573Z</time>
      </trkpt>
      <trkpt lat="39.75619" lon="45.30866">
        <ele>1097.415119</ele>
        <time>2021-08-13T19:08:46.419Z</time>
      </trkpt>
      <trkpt lat="39.75365" lon="45.30907">
        <ele>1089.795666</ele>
        <time>2021-08-13T19:09:44.968Z</time>
      </trkpt>
      <trkpt lat="39.75105" lon="45.30927">
        <ele>1084.798982</ele>
        <time>2021-08-13T19:10:50.264Z</time>
      </trkpt>
      <trkpt lat="39.74861" lon="45.30953">
        <ele>1081.893519</ele>
        <time>2021-08-13T19:11:55.257Z</time>
      </trkpt>
      <trkpt lat="39.74849" lon="45.30954">
        <ele>1081.790843</ele>
        <time>2021-08-13T19:11:58.133Z</time>
      </trkpt>
      <trkpt lat="39.74833" lon="45.30967">
        <ele>1081.619053</ele>
        <time>2021-08-13T19:12:03.637Z</time>
      </trkpt>
      <trkpt lat="39.74827" lon="45.30984">
        <ele>1081.488132</ele>
        <time>2021-08-13T19:12:07.369Z</time>
      </trkpt>
      <trkpt lat="39.74811" lon="45.30958">
        <ele>1081.258433</ele>
        <time>2021-08-13T19:12:14.640Z</time>
      </trkpt>
      <trkpt lat="39.74786" lon="45.30942">
        <ele>1081.010971</ele>
        <time>2021-08-13T19:12:22.100Z</time>
      </trkpt>
      <trkpt lat="39.74754" lon="45.3093">
        <ele>1080.708971</ele>
        <time>2021-08-13T19:12:31.298Z</time>
      </trkpt>
      <trkpt lat="39.74491" lon="45.30873">
        <ele>1078.954723</ele>
        <time>2021-08-13T19:13:47.572Z</time>
      </trkpt>
      <trkpt lat="39.74426" lon="45.30861">
        <ele>1078.398308</ele>
        <time>2021-08-13T19:14:05.565Z</time>
      </trkpt>
      <trkpt lat="39.74337" lon="45.3086">
        <ele>1077.209225</ele>
        <time>2021-08-13T19:14:28.846Z</time>
      </trkpt>
      <trkpt lat="39.74114" lon="45.30866">
        <ele>1073.038163</ele>
        <time>2021-08-13T19:15:24.087Z</time>
      </trkpt>
      <trkpt lat="39.74019" lon="45.30849">
        <ele>1071.035555</ele>
        <time>2021-08-13T19:15:47.108Z</time>
      </trkpt>
      <trkpt lat="39.73938" lon="45.30823">
        <ele>1069.386345</ele>
        <time>2021-08-13T19:16:07.192Z</time>
      </trkpt>
      <trkpt lat="39.73895" lon="45.30802">
        <ele>1068.477329</ele>
        <time>2021-08-13T19:16:18.509Z</time>
      </trkpt>
      <trkpt lat="39.73841" lon="45.30757">
        <ele>1067.517216</ele>
        <time>2021-08-13T19:16:34.883Z</time>
      </trkpt>
      <trkpt lat="39.7381" lon="45.30692">
        <ele>1067.090125</ele>
        <time>2021-08-13T19:16:50.888Z</time>
      </trkpt>
      <trkpt lat="39.73792" lon="45.30625">
        <ele>1066.692021</ele>
        <time>2021-08-13T19:17:06.622Z</time>
      </trkpt>
      <trkpt lat="39.73762" lon="45.30486">
        <ele>1066.102509</ele>
        <time>2021-08-13T19:17:40.535Z</time>
      </trkpt>
      <trkpt lat="39.73717" lon="45.30271">
        <ele>1065.114263</ele>
        <time>2021-08-13T19:18:29.523Z</time>
      </trkpt>
      <trkpt lat="39.73714" lon="45.30256">
        <ele>1065.003731</ele>
        <time>2021-08-13T19:18:33.142Z</time>
      </trkpt>
      <trkpt lat="39.73713" lon="45.3025">
        <ele>1064.963185</ele>
        <time>2021-08-13T19:18:34.369Z</time>
      </trkpt>
      <trkpt lat="39.73712" lon="45.30234">
        <ele>1064.856847</ele>
        <time>2021-08-13T19:18:37.377Z</time>
      </trkpt>
      <trkpt lat="39.73705" lon="45.2981">
        <ele>1061.838349</ele>
        <time>2021-08-13T19:20:05.520Z</time>
      </trkpt>
      <trkpt lat="39.73691" lon="45.29644">
        <ele>1061.016941</ele>
        <time>2021-08-13T19:20:42.685Z</time>
      </trkpt>
      <trkpt lat="39.7367" lon="45.29379">
        <ele>1059.982547</ele>
        <time>2021-08-13T19:21:42.598Z</time>
      </trkpt>
      <trkpt lat="39.73628" lon="45.28987">
        <ele>1057.010831</ele>
        <time>2021-08-13T19:23:04.539Z</time>
      </trkpt>
      <trkpt lat="39.73614" lon="45.28862">
        <ele>1056.210172</ele>
        <time>2021-08-13T19:23:30.867Z</time>
      </trkpt>
      <trkpt lat="39.73606" lon="45.28754">
        <ele>1055.593713</ele>
        <time>2021-08-13T19:23:54.400Z</time>
      </trkpt>
      <trkpt lat="39.73605" lon="45.28637">
        <ele>1055.375635</ele>
        <time>2021-08-13T19:24:21.350Z</time>
      </trkpt>
      <trkpt lat="39.73626" lon="45.28501">
        <ele>1055.32374</ele>
        <time>2021-08-13T19:24:55.378Z</time>
      </trkpt>
      <trkpt lat="39.73639" lon="45.28419">
        <ele>1055.198185</ele>
        <time>2021-08-13T19:25:15.721Z</time>
      </trkpt>
      <trkpt lat="39.73641" lon="45.28406">
        <ele>1055.176152</ele>
        <time>2021-08-13T19:25:18.808Z</time>
      </trkpt>
      <trkpt lat="39.73655" lon="45.28345">
        <ele>1055.069475</ele>
        <time>2021-08-13T19:25:34.002Z</time>
      </trkpt>
      <trkpt lat="39.73683" lon="45.28194">
        <ele>1054.398943</ele>
        <time>2021-08-13T19:26:07.516Z</time>
      </trkpt>
      <trkpt lat="39.73679" lon="45.28127">
        <ele>1053.88876</ele>
        <time>2021-08-13T19:26:21.290Z</time>
      </trkpt>
      <trkpt lat="39.73674" lon="45.28105">
        <ele>1053.714163</ele>
        <time>2021-08-13T19:26:26.157Z</time>
      </trkpt>
      <trkpt lat="39.7367" lon="45.28092">
        <ele>1053.61448</ele>
        <time>2021-08-13T19:26:28.694Z</time>
      </trkpt>
      <trkpt lat="39.73645" lon="45.28007">
        <ele>1053.100843</ele>
        <time>2021-08-13T19:26:48.002Z</time>
      </trkpt>
      <trkpt lat="39.73625" lon="45.27951">
        <ele>1052.971508</ele>
        <time>2021-08-13T19:27:01.227Z</time>
      </trkpt>
      <trkpt lat="39.73616" lon="45.27917">
        <ele>1052.897352</ele>
        <time>2021-08-13T19:27:08.689Z</time>
      </trkpt>
      <trkpt lat="39.73614" lon="45.27889">
        <ele>1052.836884</ele>
        <time>2021-08-13T19:27:15.154Z</time>
      </trkpt>
      <trkpt lat="39.73612" lon="45.27865">
        <ele>1052.786858</ele>
        <time>2021-08-13T19:27:20.873Z</time>
      </trkpt>
      <trkpt lat="39.73623" lon="45.27562">
        <ele>1054.700013</ele>
        <time>2021-08-13T19:28:46.305Z</time>
      </trkpt>
      <trkpt lat="39.73623" lon="45.27543">
        <ele>1054.945828</ele>
        <time>2021-08-13T19:28:52.189Z</time>
      </trkpt>
      <trkpt lat="39.73626" lon="45.27421">
        <ele>1056.507397</ele>
        <time>2021-08-13T19:29:31.107Z</time>
      </trkpt>
      <trkpt lat="39.73626" lon="45.27385">
        <ele>1056.965478</ele>
        <time>2021-08-13T19:29:42.687Z</time>
      </trkpt>
      <trkpt lat="39.73629" lon="45.27284">
        <ele>1057.560038</ele>
        <time>2021-08-13T19:30:14.652Z</time>
      </trkpt>
      <trkpt lat="39.73631" lon="45.27219">
        <ele>1057.657003</ele>
        <time>2021-08-13T19:30:32.901Z</time>
      </trkpt>
      <trkpt lat="39.73637" lon="45.27189">
        <ele>1057.702933</ele>
        <time>2021-08-13T19:30:39.856Z</time>
      </trkpt>
      <trkpt lat="39.73652" lon="45.27149">
        <ele>1057.770981</ele>
        <time>2021-08-13T19:30:49.231Z</time>
      </trkpt>
      <trkpt lat="39.73693" lon="45.27047">
        <ele>1055.910854</ele>
        <time>2021-08-13T19:31:11.230Z</time>
      </trkpt>
      <trkpt lat="39.73724" lon="45.26975">
        <ele>1053.99744</ele>
        <time>2021-08-13T19:31:25.732Z</time>
      </trkpt>
      <trkpt lat="39.73776" lon="45.26853">
        <ele>1050.559552</ele>
        <time>2021-08-13T19:31:49.175Z</time>
      </trkpt>
      <trkpt lat="39.73789" lon="45.26821">
        <ele>1049.620868</ele>
        <time>2021-08-13T19:31:55.276Z</time>
      </trkpt>
      <trkpt lat="39.73824" lon="45.26733">
        <ele>1047.078282</ele>
        <time>2021-08-13T19:32:12.701Z</time>
      </trkpt>
      <trkpt lat="39.73834" lon="45.26689">
        <ele>1046.11409</ele>
        <time>2021-08-13T19:32:21.367Z</time>
      </trkpt>
      <trkpt lat="39.73842" lon="45.26638">
        <ele>1045.43224</ele>
        <time>2021-08-13T19:32:31.201Z</time>
      </trkpt>
      <trkpt lat="39.73847" lon="45.2659">
        <ele>1044.794911</ele>
        <time>2021-08-13T19:32:40.807Z</time>
      </trkpt>
      <trkpt lat="39.73854" lon="45.26499">
        <ele>1043.585715</ele>
        <time>2021-08-13T19:32:59.176Z</time>
      </trkpt>
      <trkpt lat="39.7386" lon="45.26442">
        <ele>1042.897279</ele>
        <time>2021-08-13T19:33:10.640Z</time>
      </trkpt>
      <trkpt lat="39.7386" lon="45.26434">
        <ele>1042.816253</ele>
        <time>2021-08-13T19:33:12.100Z</time>
      </trkpt>
      <trkpt lat="39.7387" lon="45.26314">
        <ele>1041.477674</ele>
        <time>2021-08-13T19:33:35.983Z</time>
      </trkpt>
      <trkpt lat="39.73872" lon="45.2619">
        <ele>1040.38641</ele>
        <time>2021-08-13T19:34:00.955Z</time>
      </trkpt>
      <trkpt lat="39.73872" lon="45.2613">
        <ele>1040.040183</ele>
        <time>2021-08-13T19:34:13.691Z</time>
      </trkpt>
      <trkpt lat="39.73871" lon="45.26089">
        <ele>1039.801018</ele>
        <time>2021-08-13T19:34:22.733Z</time>
      </trkpt>
      <trkpt lat="39.73855" lon="45.25983">
        <ele>1039.248111</ele>
        <time>2021-08-13T19:34:47.342Z</time>
      </trkpt>
      <trkpt lat="39.73829" lon="45.25896">
        <ele>1038.950874</ele>
        <time>2021-08-13T19:35:08.601Z</time>
      </trkpt>
      <trkpt lat="39.73814" lon="45.25823">
        <ele>1038.710769</ele>
        <time>2021-08-13T19:35:25.721Z</time>
      </trkpt>
      <trkpt lat="39.73811" lon="45.25767">
        <ele>1038.465586</ele>
        <time>2021-08-13T19:35:37.937Z</time>
      </trkpt>
      <trkpt lat="39.73825" lon="45.25663">
        <ele>1037.754115</ele>
        <time>2021-08-13T19:36:00.554Z</time>
      </trkpt>
      <trkpt lat="39.73831" lon="45.25631">
        <ele>1037.53383</ele>
        <time>2021-08-13T19:36:07.447Z</time>
      </trkpt>
      <trkpt lat="39.73833" lon="45.25597">
        <ele>1037.307751</ele>
        <time>2021-08-13T19:36:14.283Z</time>
      </trkpt>
      <trkpt lat="39.73832" lon="45.25525">
        <ele>1036.9104</ele>
        <time>2021-08-13T19:36:29.033Z</time>
      </trkpt>
      <trkpt lat="39.73821" lon="45.25467">
        <ele>1036.682926</ele>
        <time>2021-08-13T19:36:41.537Z</time>
      </trkpt>
      <trkpt lat="39.738" lon="45.25399">
        <ele>1036.405867</ele>
        <time>2021-08-13T19:36:57.664Z</time>
      </trkpt>
      <trkpt lat="39.73781" lon="45.25328">
        <ele>1036.140341</ele>
        <time>2021-08-13T19:37:16.573Z</time>
      </trkpt>
      <trkpt lat="39.73719" lon="45.25097">
        <ele>1036.068642</ele>
        <time>2021-08-13T19:38:17.797Z</time>
      </trkpt>
      <trkpt lat="39.73711" lon="45.2507">
        <ele>1035.727674</ele>
        <time>2021-08-13T19:38:23.718Z</time>
      </trkpt>
      <trkpt lat="39.73662" lon="45.24858">
        <ele>1033.191667</ele>
        <time>2021-08-13T19:39:05.868Z</time>
      </trkpt>
      <trkpt lat="39.73658" lon="45.24795">
        <ele>1032.55616</ele>
        <time>2021-08-13T19:39:18.214Z</time>
      </trkpt>
      <trkpt lat="39.73664" lon="45.24751">
        <ele>1032.109202</ele>
        <time>2021-08-13T19:39:27.212Z</time>
      </trkpt>
      <trkpt lat="39.737" lon="45.24627">
        <ele>1031.054423</ele>
        <time>2021-08-13T19:39:55.434Z</time>
      </trkpt>
      <trkpt lat="39.73703" lon="45.24574">
        <ele>1030.900211</ele>
        <time>2021-08-13T19:40:07.211Z</time>
      </trkpt>
      <trkpt lat="39.73699" lon="45.24527">
        <ele>1030.763027</ele>
        <time>2021-08-13T19:40:17.948Z</time>
      </trkpt>
      <trkpt lat="39.73686" lon="45.24478">
        <ele>1030.612666</ele>
        <time>2021-08-13T19:40:29.899Z</time>
      </trkpt>
      <trkpt lat="39.73659" lon="45.24414">
        <ele>1030.529623</ele>
        <time>2021-08-13T19:40:47.007Z</time>
      </trkpt>
      <trkpt lat="39.73532" lon="45.24184">
        <ele>1031.021986</ele>
        <time>2021-08-13T19:41:58.088Z</time>
      </trkpt>
      <trkpt lat="39.73515" lon="45.24145">
        <ele>1031.131421</ele>
        <time>2021-08-13T19:42:10.045Z</time>
      </trkpt>
      <trkpt lat="39.73496" lon="45.24066">
        <ele>1031.328693</ele>
        <time>2021-08-13T19:42:31.024Z</time>
      </trkpt>
      <trkpt lat="39.73495" lon="45.24045">
        <ele>1031.380497</ele>
        <time>2021-08-13T19:42:36.567Z</time>
      </trkpt>
      <trkpt lat="39.73494" lon="45.24">
        <ele>1031.467787</ele>
        <time>2021-08-13T19:42:47.654Z</time>
      </trkpt>
      <trkpt lat="39.73495" lon="45.23813">
        <ele>1031.816631</ele>
        <time>2021-08-13T19:43:33.492Z</time>
      </trkpt>
      <trkpt lat="39.7349" lon="45.23769">
        <ele>1032.160997</ele>
        <time>2021-08-13T19:43:45.097Z</time>
      </trkpt>
      <trkpt lat="39.73458" lon="45.23644">
        <ele>1033.349586</ele>
        <time>2021-08-13T19:44:22.668Z</time>
      </trkpt>
      <trkpt lat="39.73405" lon="45.23481">
        <ele>1035.516618</ele>
        <time>2021-08-13T19:45:20.128Z</time>
      </trkpt>
      <trkpt lat="39.73398" lon="45.23419">
        <ele>1036.40767</ele>
        <time>2021-08-13T19:45:40.497Z</time>
      </trkpt>
      <trkpt lat="39.73402" lon="45.23365">
        <ele>1037.168927</ele>
        <time>2021-08-13T19:45:57.457Z</time>
      </trkpt>
      <trkpt lat="39.73413" lon="45.23297">
        <ele>1038.071772</ele>
        <time>2021-08-13T19:46:18.961Z</time>
      </trkpt>
      <trkpt lat="39.73464" lon="45.23135">
        <ele>1040.337075</ele>
        <time>2021-08-13T19:47:12.566Z</time>
      </trkpt>
      <trkpt lat="39.73476" lon="45.23087">
        <ele>1041.343121</ele>
        <time>2021-08-13T19:47:29.222Z</time>
      </trkpt>
      <trkpt lat="39.7348" lon="45.23017">
        <ele>1042.780095</ele>
        <time>2021-08-13T19:47:54.226Z</time>
      </trkpt>
      <trkpt lat="39.73513" lon="45.22772">
        <ele>1048.50441</ele>
        <time>2021-08-13T19:49:26.982Z</time>
      </trkpt>
      <trkpt lat="39.73515" lon="45.22711">
        <ele>1050.043295</ele>
        <time>2021-08-13T19:49:51.603Z</time>
      </trkpt>
      <trkpt lat="39.73509" lon="45.22657">
        <ele>1051.188391</ele>
        <time>2021-08-13T19:50:12.715Z</time>
      </trkpt>
      <trkpt lat="39.73484" lon="45.22582">
        <ele>1052.420552</ele>
        <time>2021-08-13T19:50:42.972Z</time>
      </trkpt>
      <trkpt lat="39.73475" lon="45.22567">
        <ele>1052.690864</ele>
        <time>2021-08-13T19:50:49.513Z</time>
      </trkpt>
      <trkpt lat="39.73321" lon="45.22366">
        <ele>1053.950298</ele>
        <time>2021-08-13T19:52:05.281Z</time>
      </trkpt>
      <trkpt lat="39.73257" lon="45.2231">
        <ele>1052.521707</ele>
        <time>2021-08-13T19:52:23.728Z</time>
      </trkpt>
      <trkpt lat="39.73218" lon="45.22283">
        <ele>1050.649116</ele>
        <time>2021-08-13T19:52:33.825Z</time>
      </trkpt>
      <trkpt lat="39.73179" lon="45.22264">
        <ele>1048.894235</ele>
        <time>2021-08-13T19:52:42.948Z</time>
      </trkpt>
      <trkpt lat="39.73061" lon="45.22232">
        <ele>1041.58524</ele>
        <time>2021-08-13T19:53:07.592Z</time>
      </trkpt>
      <trkpt lat="39.73024" lon="45.22212">
        <ele>1038.407928</ele>
        <time>2021-08-13T19:53:15.310Z</time>
      </trkpt>
      <trkpt lat="39.72998" lon="45.22183">
        <ele>1035.641772</ele>
        <time>2021-08-13T19:53:22.014Z</time>
      </trkpt>
      <trkpt lat="39.72981" lon="45.22157">
        <ele>1033.549802</ele>
        <time>2021-08-13T19:53:27.051Z</time>
      </trkpt>
      <trkpt lat="39.72966" lon="45.22131">
        <ele>1031.591422</ele>
        <time>2021-08-13T19:53:31.821Z</time>
      </trkpt>
      <trkpt lat="39.72938" lon="45.22054">
        <ele>1028.19292</ele>
        <time>2021-08-13T19:53:44.371Z</time>
      </trkpt>
      <trkpt lat="39.7293" lon="45.21976">
        <ele>1024.991385</ele>
        <time>2021-08-13T19:53:57.353Z</time>
      </trkpt>
      <trkpt lat="39.7293" lon="45.21939">
        <ele>1023.50463</ele>
        <time>2021-08-13T19:54:03.948Z</time>
      </trkpt>
      <trkpt lat="39.7293" lon="45.21897">
        <ele>1022.459864</ele>
        <time>2021-08-13T19:54:14.290Z</time>
      </trkpt>
      <trkpt lat="39.7293" lon="45.21866">
        <ele>1022.880407</ele>
        <time>2021-08-13T19:54:22.759Z</time>
      </trkpt>
      <trkpt lat="39.72949" lon="45.21838">
        <ele>1023.391578</ele>
        <time>2021-08-13T19:54:35.330Z</time>
      </trkpt>
      <trkpt lat="39.7297" lon="45.21817">
        <ele>1023.866517</ele>
        <time>2021-08-13T19:54:47.015Z</time>
      </trkpt>
      <trkpt lat="39.73065" lon="45.2178">
        <ele>1025.518932</ele>
        <time>2021-08-13T19:55:36.437Z</time>
      </trkpt>
      <trkpt lat="39.7308" lon="45.2177">
        <ele>1025.586668</ele>
        <time>2021-08-13T19:55:44.785Z</time>
      </trkpt>
      <trkpt lat="39.73117" lon="45.21725">
        <ele>1025.792053</ele>
        <time>2021-08-13T19:56:03.073Z</time>
      </trkpt>
      <trkpt lat="39.73151" lon="45.21646">
        <ele>1026.070297</ele>
        <time>2021-08-13T19:56:24.746Z</time>
      </trkpt>
      <trkpt lat="39.73169" lon="45.21576">
        <ele>1025.930473</ele>
        <time>2021-08-13T19:56:40.877Z</time>
      </trkpt>
      <trkpt lat="39.73184" lon="45.21468">
        <ele>1024.82338</ele>
        <time>2021-08-13T19:57:03.458Z</time>
      </trkpt>
      <trkpt lat="39.73204" lon="45.21382">
        <ele>1023.909387</ele>
        <time>2021-08-13T19:57:22.364Z</time>
      </trkpt>
      <trkpt lat="39.73207" lon="45.21354">
        <ele>1023.57652</ele>
        <time>2021-08-13T19:57:28.525Z</time>
      </trkpt>
      <trkpt lat="39.73198" lon="45.21302">
        <ele>1022.929974</ele>
        <time>2021-08-13T19:57:39.396Z</time>
      </trkpt>
      <trkpt lat="39.73165" lon="45.21198">
        <ele>1021.55169</ele>
        <time>2021-08-13T19:58:02.366Z</time>
      </trkpt>
      <trkpt lat="39.73161" lon="45.21159">
        <ele>1021.063009</ele>
        <time>2021-08-13T19:58:10.587Z</time>
      </trkpt>
      <trkpt lat="39.73158" lon="45.21134">
        <ele>1020.77147</ele>
        <time>2021-08-13T19:58:15.569Z</time>
      </trkpt>
      <trkpt lat="39.73172" lon="45.21097">
        <ele>1020.304944</ele>
        <time>2021-08-13T19:58:23.756Z</time>
      </trkpt>
      <trkpt lat="39.73237" lon="45.2096">
        <ele>1018.499603</ele>
        <time>2021-08-13T19:58:55.066Z</time>
      </trkpt>
      <trkpt lat="39.73255" lon="45.20894">
        <ele>1018.825831</ele>
        <time>2021-08-13T19:59:10.506Z</time>
      </trkpt>
      <trkpt lat="39.73258" lon="45.20875">
        <ele>1018.991111</ele>
        <time>2021-08-13T19:59:15.084Z</time>
      </trkpt>
      <trkpt lat="39.73261" lon="45.20853">
        <ele>1019.185417</ele>
        <time>2021-08-13T19:59:20.862Z</time>
      </trkpt>
      <trkpt lat="39.73284" lon="45.2071">
        <ele>1021.029739</ele>
        <time>2021-08-13T20:00:07.302Z</time>
      </trkpt>
      <trkpt lat="39.73287" lon="45.20639">
        <ele>1025.751239</ele>
        <time>2021-08-13T20:00:37.527Z</time>
      </trkpt>
      <trkpt lat="39.73281" lon="45.20585">
        <ele>1029.303594</ele>
        <time>2021-08-13T20:01:12.976Z</time>
      </trkpt>
      <trkpt lat="39.73257" lon="45.20508">
        <ele>1034.751057</ele>
        <time>2021-08-13T20:02:23.159Z</time>
      </trkpt>
      <trkpt lat="39.73248" lon="45.20458">
        <ele>1037.188473</ele>
        <time>2021-08-13T20:03:01.538Z</time>
      </trkpt>
      <trkpt lat="39.73247" lon="45.20437">
        <ele>1038.02182</ele>
        <time>2021-08-13T20:03:15.959Z</time>
      </trkpt>
      <trkpt lat="39.7323" lon="45.20438">
        <ele>1038.879583</ele>
        <time>2021-08-13T20:03:24.672Z</time>
      </trkpt>
      <trkpt lat="39.7321" lon="45.20438">
        <ele>1039.917805</ele>
        <time>2021-08-13T20:03:38.608Z</time>
      </trkpt>
      <trkpt lat="39.73185" lon="45.20438">
        <ele>1041.224709</ele>
        <time>2021-08-13T20:03:51.568Z</time>
      </trkpt>
      <trkpt lat="39.73182" lon="45.2043">
        <ele>1041.565286</ele>
        <time>2021-08-13T20:03:56.998Z</time>
      </trkpt>
      <trkpt lat="39.73177" lon="45.20415">
        <ele>1042.22406</ele>
        <time>2021-08-13T20:04:05.682Z</time>
      </trkpt>
      <trkpt lat="39.73174" lon="45.2041">
        <ele>1042.457368</ele>
        <time>2021-08-13T20:04:08.223Z</time>
      </trkpt>
      <trkpt lat="39.73177" lon="45.20415">
        <ele>1042.690677</ele>
        <time>2021-08-13T20:04:10.804Z</time>
      </trkpt>
      <trkpt lat="39.73182" lon="45.2043">
        <ele>1043.34945</ele>
        <time>2021-08-13T20:04:20.518Z</time>
      </trkpt>
      <trkpt lat="39.73185" lon="45.20438">
        <ele>1043.690027</ele>
        <time>2021-08-13T20:04:25.676Z</time>
      </trkpt>
      <trkpt lat="39.7321" lon="45.20438">
        <ele>1044.996932</ele>
        <time>2021-08-13T20:04:34.175Z</time>
      </trkpt>
      <trkpt lat="39.7323" lon="45.20438">
        <ele>1043.52931</ele>
        <time>2021-08-13T20:04:40.668Z</time>
      </trkpt>
      <trkpt lat="39.73247" lon="45.20437">
        <ele>1042.26215</ele>
        <time>2021-08-13T20:04:44.470Z</time>
      </trkpt>
      <trkpt lat="39.73246" lon="45.20386">
        <ele>1039.244274</ele>
        <time>2021-08-13T20:04:52.456Z</time>
      </trkpt>
      <trkpt lat="39.73237" lon="45.203">
        <ele>1034.13769</ele>
        <time>2021-08-13T20:05:04.863Z</time>
      </trkpt>
      <trkpt lat="39.73242" lon="45.20228">
        <ele>1029.773397</ele>
        <time>2021-08-13T20:05:15.488Z</time>
      </trkpt>
      <trkpt lat="39.73306" lon="45.19953">
        <ele>1013.740128</ele>
        <time>2021-08-13T20:05:59.046Z</time>
      </trkpt>
      <trkpt lat="39.73313" lon="45.19921">
        <ele>1012.638596</ele>
        <time>2021-08-13T20:06:04.359Z</time>
      </trkpt>
      <trkpt lat="39.73318" lon="45.19884">
        <ele>1011.345355</ele>
        <time>2021-08-13T20:06:10.938Z</time>
      </trkpt>
      <trkpt lat="39.73329" lon="45.19744">
        <ele>1008.524448</ele>
        <time>2021-08-13T20:06:38.947Z</time>
      </trkpt>
      <trkpt lat="39.73324" lon="45.19701">
        <ele>1008.588243</ele>
        <time>2021-08-13T20:06:51.659Z</time>
      </trkpt>
      <trkpt lat="39.73289" lon="45.19642">
        <ele>1008.6962</ele>
        <time>2021-08-13T20:07:12.321Z</time>
      </trkpt>
      <trkpt lat="39.73243" lon="45.19594">
        <ele>1008.783966</ele>
        <time>2021-08-13T20:07:32.652Z</time>
      </trkpt>
      <trkpt lat="39.73224" lon="45.1958">
        <ele>1008.780024</ele>
        <time>2021-08-13T20:07:40.247Z</time>
      </trkpt>
      <trkpt lat="39.7321" lon="45.19571">
        <ele>1008.777077</ele>
        <time>2021-08-13T20:07:45.148Z</time>
      </trkpt>
      <trkpt lat="39.7314" lon="45.19532">
        <ele>1008.763161</ele>
        <time>2021-08-13T20:08:07.164Z</time>
      </trkpt>
      <trkpt lat="39.73085" lon="45.19484">
        <ele>1008.736733</ele>
        <time>2021-08-13T20:08:27.505Z</time>
      </trkpt>
      <trkpt lat="39.7306" lon="45.19457">
        <ele>1008.690642</ele>
        <time>2021-08-13T20:08:38.540Z</time>
      </trkpt>
      <trkpt lat="39.7303" lon="45.19418">
        <ele>1008.630214</ele>
        <time>2021-08-13T20:08:51.645Z</time>
      </trkpt>
      <trkpt lat="39.73057" lon="45.19373">
        <ele>1008.568385</ele>
        <time>2021-08-13T20:09:05.197Z</time>
      </trkpt>
      <trkpt lat="39.73074" lon="45.19346">
        <ele>1008.530752</ele>
        <time>2021-08-13T20:09:12.922Z</time>
      </trkpt>
      <trkpt lat="39.73075" lon="45.19314">
        <ele>1008.495537</ele>
        <time>2021-08-13T20:09:20.350Z</time>
      </trkpt>
      <trkpt lat="39.72987" lon="45.1918">
        <ele>1008.252845</ele>
        <time>2021-08-13T20:10:03.962Z</time>
      </trkpt>
      <trkpt lat="39.72917" lon="45.19075">
        <ele>1008.271729</ele>
        <time>2021-08-13T20:10:36.969Z</time>
      </trkpt>
      <trkpt lat="39.72854" lon="45.1898">
        <ele>1008.414421</ele>
        <time>2021-08-13T20:11:09.931Z</time>
      </trkpt>
      <trkpt lat="39.72806" lon="45.18911">
        <ele>1008.904709</ele>
        <time>2021-08-13T20:11:36.298Z</time>
      </trkpt>
      <trkpt lat="39.7277" lon="45.1886">
        <ele>1009.368831</ele>
        <time>2021-08-13T20:11:56.015Z</time>
      </trkpt>
      <trkpt lat="39.72783" lon="45.1882">
        <ele>1009.658743</ele>
        <time>2021-08-13T20:12:08.256Z</time>
      </trkpt>
      <trkpt lat="39.7282" lon="45.18699">
        <ele>1010.722346</ele>
        <time>2021-08-13T20:12:45.477Z</time>
      </trkpt>
      <trkpt lat="39.72835" lon="45.1865">
        <ele>1011.205575</ele>
        <time>2021-08-13T20:13:01.934Z</time>
      </trkpt>
      <trkpt lat="39.72851" lon="45.18606">
        <ele>1011.651065</ele>
        <time>2021-08-13T20:13:16.271Z</time>
      </trkpt>
      <trkpt lat="39.72868" lon="45.18556">
        <ele>1012.151364</ele>
        <time>2021-08-13T20:13:31.905Z</time>
      </trkpt>
      <trkpt lat="39.72896" lon="45.18492">
        <ele>1012.704419</ele>
        <time>2021-08-13T20:13:52.376Z</time>
      </trkpt>
      <trkpt lat="39.72926" lon="45.18446">
        <ele>1013.150359</ele>
        <time>2021-08-13T20:14:07.958Z</time>
      </trkpt>
      <trkpt lat="39.73003" lon="45.18342">
        <ele>1014.657707</ele>
        <time>2021-08-13T20:14:49.946Z</time>
      </trkpt>
      <trkpt lat="39.73028" lon="45.1831">
        <ele>1015.415051</ele>
        <time>2021-08-13T20:15:04.062Z</time>
      </trkpt>
      <trkpt lat="39.73229" lon="45.18051">
        <ele>1022.782745</ele>
        <time>2021-08-13T20:17:15.969Z</time>
      </trkpt>
      <trkpt lat="39.73285" lon="45.1798">
        <ele>1025.585304</ele>
        <time>2021-08-13T20:17:55.083Z</time>
      </trkpt>
      <trkpt lat="39.73424" lon="45.178">
        <ele>1032.974514</ele>
        <time>2021-08-13T20:19:39.199Z</time>
      </trkpt>
      <trkpt lat="39.73454" lon="45.17761">
        <ele>1034.605194</ele>
        <time>2021-08-13T20:20:01.747Z</time>
      </trkpt>
      <trkpt lat="39.73508" lon="45.17701">
        <ele>1037.355745</ele>
        <time>2021-08-13T20:20:39.737Z</time>
      </trkpt>
      <trkpt lat="39.73558" lon="45.1766">
        <ele>1039.545657</ele>
        <time>2021-08-13T20:21:10.786Z</time>
      </trkpt>
      <trkpt lat="39.73798" lon="45.17481">
        <ele>1049.40693</ele>
        <time>2021-08-13T20:23:31.567Z</time>
      </trkpt>
      <trkpt lat="39.73865" lon="45.17426">
        <ele>1051.76925</ele>
        <time>2021-08-13T20:24:10.648Z</time>
      </trkpt>
      <trkpt lat="39.73974" lon="45.173">
        <ele>1055.998197</ele>
        <time>2021-08-13T20:25:18.075Z</time>
      </trkpt>
      <trkpt lat="39.74054" lon="45.17196">
        <ele>1059.131936</ele>
        <time>2021-08-13T20:26:10.181Z</time>
      </trkpt>
      <trkpt lat="39.74151" lon="45.17072">
        <ele>1063.400441</ele>
        <time>2021-08-13T20:27:16.279Z</time>
      </trkpt>
      <trkpt lat="39.74216" lon="45.17009">
        <ele>1066.035862</ele>
        <time>2021-08-13T20:27:57.053Z</time>
      </trkpt>
      <trkpt lat="39.74542" lon="45.16812">
        <ele>1079.310659</ele>
        <time>2021-08-13T20:31:01.343Z</time>
      </trkpt>
      <trkpt lat="39.74559" lon="45.16802">
        <ele>1080.259504</ele>
        <time>2021-08-13T20:31:12.451Z</time>
      </trkpt>
      <trkpt lat="39.74569" lon="45.16797">
        <ele>1080.787612</ele>
        <time>2021-08-13T20:31:18.449Z</time>
      </trkpt>
      <trkpt lat="39.74683" lon="45.16728">
        <ele>1087.12549</ele>
        <time>2021-08-13T20:32:35.289Z</time>
      </trkpt>
      <trkpt lat="39.74776" lon="45.16673">
        <ele>1092.364151</ele>
        <time>2021-08-13T20:33:38.460Z</time>
      </trkpt>
      <trkpt lat="39.74802" lon="45.16657">
        <ele>1093.848448</ele>
        <time>2021-08-13T20:33:55.670Z</time>
      </trkpt>
      <trkpt lat="39.74844" lon="45.16632">
        <ele>1096.279944</ele>
        <time>2021-08-13T20:34:22.823Z</time>
      </trkpt>
      <trkpt lat="39.74901" lon="45.16592">
        <ele>1099.132505</ele>
        <time>2021-08-13T20:34:59.959Z</time>
      </trkpt>
      <trkpt lat="39.75009" lon="45.16471">
        <ele>1105.05842</ele>
        <time>2021-08-13T20:36:16.705Z</time>
      </trkpt>
      <trkpt lat="39.75423" lon="45.159">
        <ele>1126.694711</ele>
        <time>2021-08-13T20:41:25.055Z</time>
      </trkpt>
      <trkpt lat="39.75628" lon="45.15627">
        <ele>1137.119603</ele>
        <time>2021-08-13T20:43:54.741Z</time>
      </trkpt>
      <trkpt lat="39.75714" lon="45.15525">
        <ele>1141.333271</ele>
        <time>2021-08-13T20:44:54.727Z</time>
      </trkpt>
      <trkpt lat="39.75869" lon="45.15366">
        <ele>1148.556459</ele>
        <time>2021-08-13T20:46:37.024Z</time>
      </trkpt>
      <trkpt lat="39.75941" lon="45.15284">
        <ele>1151.997558</ele>
        <time>2021-08-13T20:47:25.681Z</time>
      </trkpt>
      <trkpt lat="39.75973" lon="45.15239">
        <ele>1153.677224</ele>
        <time>2021-08-13T20:47:49.563Z</time>
      </trkpt>
      <trkpt lat="39.76034" lon="45.15121">
        <ele>1157.837046</ele>
        <time>2021-08-13T20:48:46.041Z</time>
      </trkpt>
      <trkpt lat="39.76086" lon="45.15006">
        <ele>1162.117782</ele>
        <time>2021-08-13T20:49:41.641Z</time>
      </trkpt>
      <trkpt lat="39.76107" lon="45.14958">
        <ele>1163.926339</ele>
        <time>2021-08-13T20:50:05.465Z</time>
      </trkpt>
      <trkpt lat="39.76119" lon="45.14928">
        <ele>1165.5083</ele>
        <time>2021-08-13T20:50:20.135Z</time>
      </trkpt>
      <trkpt lat="39.76129" lon="45.14902">
        <ele>1166.837848</ele>
        <time>2021-08-13T20:50:34.373Z</time>
      </trkpt>
      <trkpt lat="39.76152" lon="45.14814">
        <ele>1171.19586</ele>
        <time>2021-08-13T20:51:21.069Z</time>
      </trkpt>
      <trkpt lat="39.76164" lon="45.14744">
        <ele>1174.589343</ele>
        <time>2021-08-13T20:51:59.052Z</time>
      </trkpt>
      <trkpt lat="39.76167" lon="45.14719">
        <ele>1176.001565</ele>
        <time>2021-08-13T20:52:13.236Z</time>
      </trkpt>
      <trkpt lat="39.76182" lon="45.14374">
        <ele>1197.588947</ele>
        <time>2021-08-13T20:55:37.739Z</time>
      </trkpt>
      <trkpt lat="39.76186" lon="45.14298">
        <ele>1202.460294</ele>
        <time>2021-08-13T20:56:24.052Z</time>
      </trkpt>
      <trkpt lat="39.76187" lon="45.14278">
        <ele>1203.786595</ele>
        <time>2021-08-13T20:56:36.404Z</time>
      </trkpt>
      <trkpt lat="39.76195" lon="45.14059">
        <ele>1218.388784</ele>
        <time>2021-08-13T20:58:53.295Z</time>
      </trkpt>
      <trkpt lat="39.76203" lon="45.13923">
        <ele>1226.608818</ele>
        <time>2021-08-13T21:00:12.099Z</time>
      </trkpt>
      <trkpt lat="39.7623" lon="45.13903">
        <ele>1228.919638</ele>
        <time>2021-08-13T21:00:35.199Z</time>
      </trkpt>
      <trkpt lat="39.76247" lon="45.13891">
        <ele>1230.421678</ele>
        <time>2021-08-13T21:00:49.958Z</time>
      </trkpt>
      <trkpt lat="39.76262" lon="45.1388">
        <ele>1231.745485</ele>
        <time>2021-08-13T21:01:02.588Z</time>
      </trkpt>
      <trkpt lat="39.76263" lon="45.13877">
        <ele>1231.944428</ele>
        <time>2021-08-13T21:01:04.558Z</time>
      </trkpt>
      <trkpt lat="39.76263" lon="45.1386">
        <ele>1232.950393</ele>
        <time>2021-08-13T21:01:13.790Z</time>
      </trkpt>
      <trkpt lat="39.76262" lon="45.13857">
        <ele>1233.131643</ele>
        <time>2021-08-13T21:01:15.722Z</time>
      </trkpt>
      <trkpt lat="39.76261" lon="45.13852">
        <ele>1233.484981</ele>
        <time>2021-08-13T21:01:18.892Z</time>
      </trkpt>
      <trkpt lat="39.76259" lon="45.13846">
        <ele>1233.832117</ele>
        <time>2021-08-13T21:01:23.280Z</time>
      </trkpt>
      <trkpt lat="39.76248" lon="45.13824">
        <ele>1235.141447</ele>
        <time>2021-08-13T21:01:36.740Z</time>
      </trkpt>
      <trkpt lat="39.76256" lon="45.13791">
        <ele>1236.921671</ele>
        <time>2021-08-13T21:01:55.212Z</time>
      </trkpt>
      <trkpt lat="39.76257" lon="45.13786">
        <ele>1237.148788</ele>
        <time>2021-08-13T21:01:58.208Z</time>
      </trkpt>
      <trkpt lat="39.76246" lon="45.13776">
        <ele>1238.001641</ele>
        <time>2021-08-13T21:02:06.320Z</time>
      </trkpt>
      <trkpt lat="39.76256" lon="45.13759">
        <ele>1239.072374</ele>
        <time>2021-08-13T21:02:16.833Z</time>
      </trkpt>
      <trkpt lat="39.76285" lon="45.13708">
        <ele>1242.319121</ele>
        <time>2021-08-13T21:02:50.801Z</time>
      </trkpt>
      <trkpt lat="39.76365" lon="45.13576">
        <ele>1250.453021</ele>
        <time>2021-08-13T21:04:17.565Z</time>
      </trkpt>
      <trkpt lat="39.76458" lon="45.13419">
        <ele>1259.059784</ele>
        <time>2021-08-13T21:05:55.234Z</time>
      </trkpt>
      <trkpt lat="39.76472" lon="45.13392">
        <ele>1260.280737</ele>
        <time>2021-08-13T21:06:10.426Z</time>
      </trkpt>
      <trkpt lat="39.76495" lon="45.13349">
        <ele>1262.205276</ele>
        <time>2021-08-13T21:06:32.593Z</time>
      </trkpt>
      <trkpt lat="39.76601" lon="45.1318">
        <ele>1270.489329</ele>
        <time>2021-08-13T21:08:02.341Z</time>
      </trkpt>
      <trkpt lat="39.76744" lon="45.12981">
        <ele>1283.271551</ele>
        <time>2021-08-13T21:10:23.998Z</time>
      </trkpt>
      <trkpt lat="39.76753" lon="45.12969">
        <ele>1284.135134</ele>
        <time>2021-08-13T21:10:34.379Z</time>
      </trkpt>
      <trkpt lat="39.76768" lon="45.12947">
        <ele>1285.645009</ele>
        <time>2021-08-13T21:10:49.945Z</time>
      </trkpt>
      <trkpt lat="39.76804" lon="45.12902">
        <ele>1288.392277</ele>
        <time>2021-08-13T21:11:26.453Z</time>
      </trkpt>
      <trkpt lat="39.76928" lon="45.12765">
        <ele>1296.377747</ele>
        <time>2021-08-13T21:13:01.575Z</time>
      </trkpt>
      <trkpt lat="39.77212" lon="45.12568">
        <ele>1304.348631</ele>
        <time>2021-08-13T21:15:17.189Z</time>
      </trkpt>
      <trkpt lat="39.77281" lon="45.12525">
        <ele>1307.866506</ele>
        <time>2021-08-13T21:16:00.160Z</time>
      </trkpt>
      <trkpt lat="39.77288" lon="45.1252">
        <ele>1308.234244</ele>
        <time>2021-08-13T21:16:06.571Z</time>
      </trkpt>
      <trkpt lat="39.77347" lon="45.12453">
        <ele>1312.136789</ele>
        <time>2021-08-13T21:16:55.349Z</time>
      </trkpt>
      <trkpt lat="39.77527" lon="45.12207">
        <ele>1325.087935</ele>
        <time>2021-08-13T21:19:32.604Z</time>
      </trkpt>
      <trkpt lat="39.77573" lon="45.12165">
        <ele>1327.420548</ele>
        <time>2021-08-13T21:20:03.485Z</time>
      </trkpt>
      <trkpt lat="39.77745" lon="45.12034">
        <ele>1334.766899</ele>
        <time>2021-08-13T21:21:42.335Z</time>
      </trkpt>
      <trkpt lat="39.77896" lon="45.11909">
        <ele>1342.581773</ele>
        <time>2021-08-13T21:23:15.516Z</time>
      </trkpt>
      <trkpt lat="39.78103" lon="45.11683">
        <ele>1360.71531</ele>
        <time>2021-08-13T21:26:24.514Z</time>
      </trkpt>
      <trkpt lat="39.78279" lon="45.11472">
        <ele>1380.914619</ele>
        <time>2021-08-13T21:29:39.062Z</time>
      </trkpt>
      <trkpt lat="39.78289" lon="45.11464">
        <ele>1381.873184</ele>
        <time>2021-08-13T21:29:48.505Z</time>
      </trkpt>
      <trkpt lat="39.783" lon="45.11453">
        <ele>1383.090347</ele>
        <time>2021-08-13T21:30:00.407Z</time>
      </trkpt>
      <trkpt lat="39.78403" lon="45.11371">
        <ele>1391.289724</ele>
        <time>2021-08-13T21:31:27.904Z</time>
      </trkpt>
      <trkpt lat="39.78859" lon="45.1114">
        <ele>1417.338394</ele>
        <time>2021-08-13T21:36:13.094Z</time>
      </trkpt>
      <trkpt lat="39.79082" lon="45.11027">
        <ele>1436.368467</ele>
        <time>2021-08-13T21:39:18.229Z</time>
      </trkpt>
      <trkpt lat="39.79101" lon="45.11011">
        <ele>1438.320782</ele>
        <time>2021-08-13T21:39:37.189Z</time>
      </trkpt>
      <trkpt lat="39.79119" lon="45.10988">
        <ele>1440.492247</ele>
        <time>2021-08-13T21:39:58.298Z</time>
      </trkpt>
      <trkpt lat="39.79177" lon="45.10895">
        <ele>1447.691024</ele>
        <time>2021-08-13T21:41:10.956Z</time>
      </trkpt>
      <trkpt lat="39.79221" lon="45.10848">
        <ele>1451.349705</ele>
        <time>2021-08-13T21:41:52.917Z</time>
      </trkpt>
      <trkpt lat="39.79353" lon="45.10765">
        <ele>1459.237992</ele>
        <time>2021-08-13T21:43:19.183Z</time>
      </trkpt>
      <trkpt lat="39.7946" lon="45.10662">
        <ele>1464.229263</ele>
        <time>2021-08-13T21:44:22.938Z</time>
      </trkpt>
      <trkpt lat="39.79488" lon="45.10649">
        <ele>1465.642404</ele>
        <time>2021-08-13T21:44:36.987Z</time>
      </trkpt>
      <trkpt lat="39.79546" lon="45.10643">
        <ele>1468.492415</ele>
        <time>2021-08-13T21:45:07.059Z</time>
      </trkpt>
      <trkpt lat="39.79587" lon="45.10653">
        <ele>1470.527216</ele>
        <time>2021-08-13T21:45:31.782Z</time>
      </trkpt>
      <trkpt lat="39.79615" lon="45.10671">
        <ele>1472.013539</ele>
        <time>2021-08-13T21:45:52.971Z</time>
      </trkpt>
      <trkpt lat="39.79664" lon="45.10688">
        <ele>1476.705514</ele>
        <time>2021-08-13T21:46:32.662Z</time>
      </trkpt>
      <trkpt lat="39.79692" lon="45.10683">
        <ele>1479.600449</ele>
        <time>2021-08-13T21:46:56.434Z</time>
      </trkpt>
      <trkpt lat="39.79711" lon="45.10672">
        <ele>1481.773316</ele>
        <time>2021-08-13T21:47:15.578Z</time>
      </trkpt>
      <trkpt lat="39.79749" lon="45.10648">
        <ele>1486.089783</ele>
        <time>2021-08-13T21:47:55.836Z</time>
      </trkpt>
      <trkpt lat="39.79763" lon="45.10635">
        <ele>1487.843629</ele>
        <time>2021-08-13T21:48:12.372Z</time>
      </trkpt>
      <trkpt lat="39.79773" lon="45.10627">
        <ele>1489.106771</ele>
        <time>2021-08-13T21:48:24.698Z</time>
      </trkpt>
      <trkpt lat="39.79807" lon="45.10601">
        <ele>1493.287513</ele>
        <time>2021-08-13T21:49:03.999Z</time>
      </trkpt>
      <trkpt lat="39.7983" lon="45.10585">
        <ele>1496.162519</ele>
        <time>2021-08-13T21:49:29.953Z</time>
      </trkpt>
      <trkpt lat="39.79851" lon="45.10575">
        <ele>1498.536744</ele>
        <time>2021-08-13T21:49:52.135Z</time>
      </trkpt>
      <trkpt lat="39.79905" lon="45.1054">
        <ele>1505.150399</ele>
        <time>2021-08-13T21:50:48.624Z</time>
      </trkpt>
      <trkpt lat="39.79923" lon="45.1052">
        <ele>1507.774708</ele>
        <time>2021-08-13T21:51:09.210Z</time>
      </trkpt>
      <trkpt lat="39.79935" lon="45.10498">
        <ele>1510.060855</ele>
        <time>2021-08-13T21:51:27.249Z</time>
      </trkpt>
      <trkpt lat="39.79962" lon="45.10413">
        <ele>1515.957654</ele>
        <time>2021-08-13T21:52:22.830Z</time>
      </trkpt>
      <trkpt lat="39.79977" lon="45.10382">
        <ele>1518.224903</ele>
        <time>2021-08-13T21:52:43.018Z</time>
      </trkpt>
      <trkpt lat="39.80009" lon="45.1036">
        <ele>1521.16291</ele>
        <time>2021-08-13T21:53:08.399Z</time>
      </trkpt>
      <trkpt lat="39.80114" lon="45.10323">
        <ele>1530.897393</ele>
        <time>2021-08-13T21:54:31.338Z</time>
      </trkpt>
      <trkpt lat="39.80152" lon="45.10303">
        <ele>1534.911132</ele>
        <time>2021-08-13T21:55:06.486Z</time>
      </trkpt>
      <trkpt lat="39.80174" lon="45.1028">
        <ele>1537.597654</ele>
        <time>2021-08-13T21:55:31.001Z</time>
      </trkpt>
      <trkpt lat="39.80196" lon="45.10232">
        <ele>1541.794835</ele>
        <time>2021-08-13T21:56:10.975Z</time>
      </trkpt>
      <trkpt lat="39.80196" lon="45.10172">
        <ele>1547.061479</ele>
        <time>2021-08-13T21:56:56.812Z</time>
      </trkpt>
      <trkpt lat="39.80165" lon="45.09957">
        <ele>1566.276259</ele>
        <time>2021-08-13T21:59:42.120Z</time>
      </trkpt>
      <trkpt lat="39.80157" lon="45.09939">
        <ele>1567.814825</ele>
        <time>2021-08-13T21:59:57.740Z</time>
      </trkpt>
      <trkpt lat="39.8012" lon="45.09886">
        <ele>1572.902799</ele>
        <time>2021-08-13T22:00:45.698Z</time>
      </trkpt>
      <trkpt lat="39.80085" lon="45.09855">
        <ele>1576.891683</ele>
        <time>2021-08-13T22:01:20.293Z</time>
      </trkpt>
      <trkpt lat="39.80068" lon="45.09843">
        <ele>1578.7027</ele>
        <time>2021-08-13T22:01:35.420Z</time>
      </trkpt>
      <trkpt lat="39.80046" lon="45.09841">
        <ele>1580.74336</ele>
        <time>2021-08-13T22:01:50.156Z</time>
      </trkpt>
      <trkpt lat="39.80028" lon="45.09855">
        <ele>1581.615969</ele>
        <time>2021-08-13T22:02:03.785Z</time>
      </trkpt>
      <trkpt lat="39.80016" lon="45.09877">
        <ele>1582.454078</ele>
        <time>2021-08-13T22:02:16.375Z</time>
      </trkpt>
      <trkpt lat="39.79984" lon="45.09981">
        <ele>1585.826704</ele>
        <time>2021-08-13T22:03:03.348Z</time>
      </trkpt>
      <trkpt lat="39.79981" lon="45.09989">
        <ele>1586.114864</ele>
        <time>2021-08-13T22:03:05.843Z</time>
      </trkpt>
      <trkpt lat="39.79951" lon="45.10059">
        <ele>1588.002673</ele>
        <time>2021-08-13T22:03:33.145Z</time>
      </trkpt>
      <trkpt lat="39.79941" lon="45.10073">
        <ele>1588.076554</ele>
        <time>2021-08-13T22:03:36.997Z</time>
      </trkpt>
      <trkpt lat="39.79891" lon="45.10141">
        <ele>1588.443088</ele>
        <time>2021-08-13T22:03:59.535Z</time>
      </trkpt>
      <trkpt lat="39.79875" lon="45.10157">
        <ele>1588.543854</ele>
        <time>2021-08-13T22:04:06.656Z</time>
      </trkpt>
      <trkpt lat="39.79863" lon="45.10169">
        <ele>1588.622247</ele>
        <time>2021-08-13T22:04:10.720Z</time>
      </trkpt>
      <trkpt lat="39.79835" lon="45.10197">
        <ele>1588.801407</ele>
        <time>2021-08-13T22:04:22.159Z</time>
      </trkpt>
      <trkpt lat="39.79799" lon="45.10223">
        <ele>1589.416064</ele>
        <time>2021-08-13T22:04:36.765Z</time>
      </trkpt>
      <trkpt lat="39.79771" lon="45.10236">
        <ele>1589.93151</ele>
        <time>2021-08-13T22:04:47.558Z</time>
      </trkpt>
      <trkpt lat="39.79748" lon="45.10236">
        <ele>1590.330338</ele>
        <time>2021-08-13T22:04:56.484Z</time>
      </trkpt>
      <trkpt lat="39.79718" lon="45.10223">
        <ele>1590.865434</ele>
        <time>2021-08-13T22:05:07.925Z</time>
      </trkpt>
      <trkpt lat="39.79699" lon="45.10209">
        <ele>1591.24229</ele>
        <time>2021-08-13T22:05:17.079Z</time>
      </trkpt>
      <trkpt lat="39.79679" lon="45.10183">
        <ele>1591.727626</ele>
        <time>2021-08-13T22:05:30.130Z</time>
      </trkpt>
      <trkpt lat="39.79662" lon="45.10143">
        <ele>1593.381923</ele>
        <time>2021-08-13T22:05:48.658Z</time>
      </trkpt>
      <trkpt lat="39.79657" lon="45.10098">
        <ele>1595.507875</ele>
        <time>2021-08-13T22:06:09.242Z</time>
      </trkpt>
      <trkpt lat="39.79662" lon="45.09893">
        <ele>1605.856324</ele>
        <time>2021-08-13T22:08:01.754Z</time>
      </trkpt>
      <trkpt lat="39.79647" lon="45.09828">
        <ele>1610.114448</ele>
        <time>2021-08-13T22:08:43.245Z</time>
      </trkpt>
      <trkpt lat="39.79629" lon="45.0979">
        <ele>1612.913544</ele>
        <time>2021-08-13T22:09:10.213Z</time>
      </trkpt>
      <trkpt lat="39.79611" lon="45.09751">
        <ele>1615.722218</ele>
        <time>2021-08-13T22:09:37.010Z</time>
      </trkpt>
      <trkpt lat="39.79592" lon="45.09676">
        <ele>1620.955651</ele>
        <time>2021-08-13T22:10:24.463Z</time>
      </trkpt>
      <trkpt lat="39.79593" lon="45.09633">
        <ele>1623.978014</ele>
        <time>2021-08-13T22:10:51.336Z</time>
      </trkpt>
      <trkpt lat="39.79606" lon="45.09567">
        <ele>1628.629195</ele>
        <time>2021-08-13T22:11:33.397Z</time>
      </trkpt>
      <trkpt lat="39.79749" lon="45.09233">
        <ele>1656.170493</ele>
        <time>2021-08-13T22:15:44.649Z</time>
      </trkpt>
      <trkpt lat="39.79828" lon="45.09044">
        <ele>1669.932274</ele>
        <time>2021-08-13T22:17:55.411Z</time>
      </trkpt>
      <trkpt lat="39.79927" lon="45.0882">
        <ele>1682.307614</ele>
        <time>2021-08-13T22:20:06.728Z</time>
      </trkpt>
      <trkpt lat="39.80079" lon="45.0845">
        <ele>1696.462134</ele>
        <time>2021-08-13T22:23:02.014Z</time>
      </trkpt>
      <trkpt lat="39.80093" lon="45.08418">
        <ele>1697.611284</ele>
        <time>2021-08-13T22:23:16.164Z</time>
      </trkpt>
      <trkpt lat="39.80213" lon="45.08134">
        <ele>1708.71909</ele>
        <time>2021-08-13T22:25:32.471Z</time>
      </trkpt>
      <trkpt lat="39.80226" lon="45.08097">
        <ele>1710.238928</ele>
        <time>2021-08-13T22:25:50.784Z</time>
      </trkpt>
      <trkpt lat="39.80228" lon="45.08092">
        <ele>1710.430671</ele>
        <time>2021-08-13T22:25:54.910Z</time>
      </trkpt>
      <trkpt lat="39.80287" lon="45.0782">
        <ele>1723.5482</ele>
        <time>2021-08-13T22:28:19.642Z</time>
      </trkpt>
      <trkpt lat="39.80299" lon="45.07778">
        <ele>1725.56785</ele>
        <time>2021-08-13T22:28:41.478Z</time>
      </trkpt>
      <trkpt lat="39.80312" lon="45.07752">
        <ele>1726.978665</ele>
        <time>2021-08-13T22:28:56.636Z</time>
      </trkpt>
      <trkpt lat="39.80332" lon="45.07725">
        <ele>1728.684456</ele>
        <time>2021-08-13T22:29:14.782Z</time>
      </trkpt>
      <trkpt lat="39.80362" lon="45.07697">
        <ele>1730.860967</ele>
        <time>2021-08-13T22:29:37.748Z</time>
      </trkpt>
      <trkpt lat="39.80594" lon="45.07549">
        <ele>1747.220857</ele>
        <time>2021-08-13T22:32:27.161Z</time>
      </trkpt>
      <trkpt lat="39.80618" lon="45.07527">
        <ele>1749.385547</ele>
        <time>2021-08-13T22:32:48.648Z</time>
      </trkpt>
      <trkpt lat="39.80631" lon="45.07503">
        <ele>1751.087383</ele>
        <time>2021-08-13T22:33:06.638Z</time>
      </trkpt>
      <trkpt lat="39.80657" lon="45.07427">
        <ele>1755.900046</ele>
        <time>2021-08-13T22:33:55.645Z</time>
      </trkpt>
      <trkpt lat="39.80667" lon="45.07374">
        <ele>1758.810865</ele>
        <time>2021-08-13T22:34:28.769Z</time>
      </trkpt>
      <trkpt lat="39.80679" lon="45.07182">
        <ele>1767.898379</ele>
        <time>2021-08-13T22:36:05.861Z</time>
      </trkpt>
      <trkpt lat="39.80678" lon="45.07128">
        <ele>1769.867704</ele>
        <time>2021-08-13T22:36:28.454Z</time>
      </trkpt>
      <trkpt lat="39.8069" lon="45.07067">
        <ele>1771.790997</ele>
        <time>2021-08-13T22:36:53.415Z</time>
      </trkpt>
      <trkpt lat="39.80716" lon="45.07005">
        <ele>1773.926062</ele>
        <time>2021-08-13T22:37:20.461Z</time>
      </trkpt>
      <trkpt lat="39.80739" lon="45.06967">
        <ele>1775.388608</ele>
        <time>2021-08-13T22:37:39.359Z</time>
      </trkpt>
      <trkpt lat="39.80768" lon="45.06933">
        <ele>1777.362087</ele>
        <time>2021-08-13T22:38:00.318Z</time>
      </trkpt>
      <trkpt lat="39.80802" lon="45.06913">
        <ele>1779.491689</ele>
        <time>2021-08-13T22:38:21.806Z</time>
      </trkpt>
      <trkpt lat="39.80921" lon="45.06875">
        <ele>1786.500546</ele>
        <time>2021-08-13T22:39:42.816Z</time>
      </trkpt>
      <trkpt lat="39.8095" lon="45.06854">
        <ele>1788.68457</ele>
        <time>2021-08-13T22:40:07.903Z</time>
      </trkpt>
      <trkpt lat="39.80969" lon="45.06827">
        <ele>1790.501878</ele>
        <time>2021-08-13T22:40:29.388Z</time>
      </trkpt>
      <trkpt lat="39.80986" lon="45.06788">
        <ele>1792.727194</ele>
        <time>2021-08-13T22:40:54.589Z</time>
      </trkpt>
      <trkpt lat="39.80995" lon="45.06746">
        <ele>1794.916916</ele>
        <time>2021-08-13T22:41:17.813Z</time>
      </trkpt>
      <trkpt lat="39.80997" lon="45.06702">
        <ele>1797.108593</ele>
        <time>2021-08-13T22:41:39.071Z</time>
      </trkpt>
      <trkpt lat="39.80998" lon="45.0666">
        <ele>1798.086999</ele>
        <time>2021-08-13T22:41:57.667Z</time>
      </trkpt>
      <trkpt lat="39.80999" lon="45.06583">
        <ele>1798.700977</ele>
        <time>2021-08-13T22:42:25.686Z</time>
      </trkpt>
      <trkpt lat="39.80999" lon="45.06564">
        <ele>1798.854489</ele>
        <time>2021-08-13T22:42:31.518Z</time>
      </trkpt>
      <trkpt lat="39.80998" lon="45.06421">
        <ele>1798.675132</ele>
        <time>2021-08-13T22:43:00.598Z</time>
      </trkpt>
      <trkpt lat="39.81021" lon="45.06137">
        <ele>1787.613821</ele>
        <time>2021-08-13T22:43:46.636Z</time>
      </trkpt>
      <trkpt lat="39.81038" lon="45.06037">
        <ele>1782.563251</ele>
        <time>2021-08-13T22:44:02.631Z</time>
      </trkpt>
      <trkpt lat="39.81141" lon="45.05604">
        <ele>1759.274117</ele>
        <time>2021-08-13T22:45:12.464Z</time>
      </trkpt>
      <trkpt lat="39.81252" lon="45.05302">
        <ele>1745.237381</ele>
        <time>2021-08-13T22:46:07.013Z</time>
      </trkpt>
      <trkpt lat="39.81323" lon="45.05069">
        <ele>1733.258971</ele>
        <time>2021-08-13T22:46:46.606Z</time>
      </trkpt>
      <trkpt lat="39.81367" lon="45.04862">
        <ele>1720.623752</ele>
        <time>2021-08-13T22:47:19.288Z</time>
      </trkpt>
      <trkpt lat="39.81391" lon="45.04715">
        <ele>1710.043448</ele>
        <time>2021-08-13T22:47:41.498Z</time>
      </trkpt>
      <trkpt lat="39.81399" lon="45.04639">
        <ele>1704.654267</ele>
        <time>2021-08-13T22:47:52.675Z</time>
      </trkpt>
      <trkpt lat="39.81426" lon="45.0447">
        <ele>1692.470616</ele>
        <time>2021-08-13T22:48:18.191Z</time>
      </trkpt>
      <trkpt lat="39.81443" lon="45.04361">
        <ele>1685.875072</ele>
        <time>2021-08-13T22:48:35.077Z</time>
      </trkpt>
      <trkpt lat="39.81461" lon="45.0425">
        <ele>1679.745684</ele>
        <time>2021-08-13T22:48:52.714Z</time>
      </trkpt>
      <trkpt lat="39.81468" lon="45.04213">
        <ele>1677.628244</ele>
        <time>2021-08-13T22:48:58.846Z</time>
      </trkpt>
      <trkpt lat="39.81517" lon="45.03944">
        <ele>1663.008407</ele>
        <time>2021-08-13T22:49:41.602Z</time>
      </trkpt>
      <trkpt lat="39.81555" lon="45.03787">
        <ele>1653.537527</ele>
        <time>2021-08-13T22:50:06.619Z</time>
      </trkpt>
      <trkpt lat="39.81565" lon="45.03764">
        <ele>1651.995748</ele>
        <time>2021-08-13T22:50:10.644Z</time>
      </trkpt>
      <trkpt lat="39.81585" lon="45.03722">
        <ele>1649.611172</ele>
        <time>2021-08-13T22:50:18.027Z</time>
      </trkpt>
      <trkpt lat="39.81755" lon="45.03432">
        <ele>1635.028771</ele>
        <time>2021-08-13T22:51:16.151Z</time>
      </trkpt>
      <trkpt lat="39.81772" lon="45.03379">
        <ele>1633.244163</ele>
        <time>2021-08-13T22:51:28.311Z</time>
      </trkpt>
      <trkpt lat="39.81776" lon="45.0336">
        <ele>1633.448877</ele>
        <time>2021-08-13T22:51:32.460Z</time>
      </trkpt>
      <trkpt lat="39.8179" lon="45.0325">
        <ele>1635.744801</ele>
        <time>2021-08-13T22:52:09.075Z</time>
      </trkpt>
      <trkpt lat="39.81813" lon="45.03087">
        <ele>1640.04534</ele>
        <time>2021-08-13T22:53:22.938Z</time>
      </trkpt>
      <trkpt lat="39.81814" lon="45.03054">
        <ele>1641.249695</ele>
        <time>2021-08-13T22:53:37.601Z</time>
      </trkpt>
      <trkpt lat="39.81812" lon="45.03015">
        <ele>1642.660896</ele>
        <time>2021-08-13T22:53:54.646Z</time>
      </trkpt>
      <trkpt lat="39.81796" lon="45.02926">
        <ele>1645.972278</ele>
        <time>2021-08-13T22:54:33.858Z</time>
      </trkpt>
      <trkpt lat="39.81749" lon="45.02658">
        <ele>1657.560921</ele>
        <time>2021-08-13T22:56:40.539Z</time>
      </trkpt>
      <trkpt lat="39.81738" lon="45.02577">
        <ele>1662.644311</ele>
        <time>2021-08-13T22:57:26.702Z</time>
      </trkpt>
      <trkpt lat="39.81732" lon="45.02536">
        <ele>1665.255858</ele>
        <time>2021-08-13T22:57:53.832Z</time>
      </trkpt>
      <trkpt lat="39.81743" lon="45.02518">
        <ele>1666.661527</ele>
        <time>2021-08-13T22:58:10.175Z</time>
      </trkpt>
      <trkpt lat="39.81749" lon="45.0245">
        <ele>1670.700164</ele>
        <time>2021-08-13T22:58:54.569Z</time>
      </trkpt>
      <trkpt lat="39.81758" lon="45.02397">
        <ele>1673.115042</ele>
        <time>2021-08-13T22:59:27.951Z</time>
      </trkpt>
      <trkpt lat="39.81774" lon="45.02373">
        <ele>1674.517243</ele>
        <time>2021-08-13T22:59:44.248Z</time>
      </trkpt>
      <trkpt lat="39.81788" lon="45.02357">
        <ele>1675.599284</ele>
        <time>2021-08-13T22:59:58.837Z</time>
      </trkpt>
      <trkpt lat="39.81803" lon="45.02352">
        <ele>1676.46298</ele>
        <time>2021-08-13T23:00:06.919Z</time>
      </trkpt>
      <trkpt lat="39.8182" lon="45.02352">
        <ele>1677.437346</ele>
        <time>2021-08-13T23:00:18.229Z</time>
      </trkpt>
      <trkpt lat="39.81804" lon="45.02349">
        <ele>1678.330082</ele>
        <time>2021-08-13T23:00:25.108Z</time>
      </trkpt>
      <trkpt lat="39.81794" lon="45.02336">
        <ele>1679.16967</ele>
        <time>2021-08-13T23:00:33.187Z</time>
      </trkpt>
      <trkpt lat="39.81795" lon="45.02309">
        <ele>1680.342393</ele>
        <time>2021-08-13T23:00:43.224Z</time>
      </trkpt>
      <trkpt lat="39.81799" lon="45.02302">
        <ele>1680.605004</ele>
        <time>2021-08-13T23:00:46.107Z</time>
      </trkpt>
      <trkpt lat="39.81924" lon="45.022">
        <ele>1681.186817</ele>
        <time>2021-08-13T23:01:29.250Z</time>
      </trkpt>
      <trkpt lat="39.81999" lon="45.02124">
        <ele>1683.596711</ele>
        <time>2021-08-13T23:02:02.105Z</time>
      </trkpt>
      <trkpt lat="39.82025" lon="45.02083">
        <ele>1685.010077</ele>
        <time>2021-08-13T23:02:24.151Z</time>
      </trkpt>
      <trkpt lat="39.82049" lon="45.02034">
        <ele>1686.578831</ele>
        <time>2021-08-13T23:02:51.950Z</time>
      </trkpt>
      <trkpt lat="39.82063" lon="45.02007">
        <ele>1687.44017</ele>
        <time>2021-08-13T23:03:08.103Z</time>
      </trkpt>
      <trkpt lat="39.82076" lon="45.0197">
        <ele>1688.890827</ele>
        <time>2021-08-13T23:03:28.890Z</time>
      </trkpt>
      <trkpt lat="39.82092" lon="45.01927">
        <ele>1690.665636</ele>
        <time>2021-08-13T23:03:53.842Z</time>
      </trkpt>
      <trkpt lat="39.82111" lon="45.01856">
        <ele>1693.43575</ele>
        <time>2021-08-13T23:04:32.992Z</time>
      </trkpt>
      <trkpt lat="39.82124" lon="45.01666">
        <ele>1695.482353</ele>
        <time>2021-08-13T23:05:33.704Z</time>
      </trkpt>
      <trkpt lat="39.82122" lon="45.01583">
        <ele>1694.923908</ele>
        <time>2021-08-13T23:05:48.004Z</time>
      </trkpt>
      <trkpt lat="39.82113" lon="45.01516">
        <ele>1694.445982</ele>
        <time>2021-08-13T23:05:59.737Z</time>
      </trkpt>
      <trkpt lat="39.82105" lon="45.01477">
        <ele>1694.144341</ele>
        <time>2021-08-13T23:06:06.662Z</time>
      </trkpt>
      <trkpt lat="39.821" lon="45.01457">
        <ele>1693.991339</ele>
        <time>2021-08-13T23:06:10.335Z</time>
      </trkpt>
      <trkpt lat="39.81974" lon="45.01051">
        <ele>1695.653729</ele>
        <time>2021-08-13T23:08:09.740Z</time>
      </trkpt>
      <trkpt lat="39.81969" lon="45.01032">
        <ele>1696.046739</ele>
        <time>2021-08-13T23:08:16.973Z</time>
      </trkpt>
      <trkpt lat="39.81948" lon="45.0096">
        <ele>1697.551916</ele>
        <time>2021-08-13T23:08:44.648Z</time>
      </trkpt>
      <trkpt lat="39.81918" lon="45.00858">
        <ele>1700.337456</ele>
        <time>2021-08-13T23:09:27.382Z</time>
      </trkpt>
      <trkpt lat="39.81876" lon="45.00702">
        <ele>1706.654372</ele>
        <time>2021-08-13T23:10:42.224Z</time>
      </trkpt>
      <trkpt lat="39.81874" lon="45.00673">
        <ele>1707.784377</ele>
        <time>2021-08-13T23:10:57.282Z</time>
      </trkpt>
      <trkpt lat="39.8188" lon="45.00604">
        <ele>1711.55544</ele>
        <time>2021-08-13T23:11:33.940Z</time>
      </trkpt>
      <trkpt lat="39.81892" lon="45.00554">
        <ele>1714.498698</ele>
        <time>2021-08-13T23:12:02.962Z</time>
      </trkpt>
      <trkpt lat="39.82013" lon="45.00273">
        <ele>1733.699672</ele>
        <time>2021-08-13T23:15:08.389Z</time>
      </trkpt>
      <trkpt lat="39.82029" lon="45.00226">
        <ele>1736.916781</ele>
        <time>2021-08-13T23:15:41.202Z</time>
      </trkpt>
      <trkpt lat="39.82038" lon="45.00178">
        <ele>1740.175548</ele>
        <time>2021-08-13T23:16:12.417Z</time>
      </trkpt>
      <trkpt lat="39.82031" lon="45.00102">
        <ele>1745.222166</ele>
        <time>2021-08-13T23:16:57.260Z</time>
      </trkpt>
      <trkpt lat="39.82028" lon="45.00092">
        <ele>1745.92433</ele>
        <time>2021-08-13T23:17:05.262Z</time>
      </trkpt>
      <trkpt lat="39.82024" lon="45.00082">
        <ele>1746.65981</ele>
        <time>2021-08-13T23:17:13.054Z</time>
      </trkpt>
      <trkpt lat="39.81971" lon="44.99971">
        <ele>1754.347381</ele>
        <time>2021-08-13T23:18:30.353Z</time>
      </trkpt>
      <trkpt lat="39.81916" lon="44.99871">
        <ele>1760.772428</ele>
        <time>2021-08-13T23:19:35.323Z</time>
      </trkpt>
      <trkpt lat="39.81907" lon="44.99857">
        <ele>1761.708169</ele>
        <time>2021-08-13T23:19:43.536Z</time>
      </trkpt>
      <trkpt lat="39.81827" lon="44.99718">
        <ele>1768.73604</ele>
        <time>2021-08-13T23:21:03.085Z</time>
      </trkpt>
      <trkpt lat="39.81792" lon="44.99657">
        <ele>1771.627785</ele>
        <time>2021-08-13T23:21:34.745Z</time>
      </trkpt>
      <trkpt lat="39.81712" lon="44.99467">
        <ele>1780.724143</ele>
        <time>2021-08-13T23:23:15.944Z</time>
      </trkpt>
      <trkpt lat="39.81702" lon="44.99427">
        <ele>1782.679458</ele>
        <time>2021-08-13T23:23:37.849Z</time>
      </trkpt>
      <trkpt lat="39.817" lon="44.99413">
        <ele>1783.478799</ele>
        <time>2021-08-13T23:23:45.854Z</time>
      </trkpt>
      <trkpt lat="39.81697" lon="44.99392">
        <ele>1784.659446</ele>
        <time>2021-08-13T23:23:58.079Z</time>
      </trkpt>
      <trkpt lat="39.81694" lon="44.99312">
        <ele>1789.04909</ele>
        <time>2021-08-13T23:24:42.711Z</time>
      </trkpt>
      <trkpt lat="39.81694" lon="44.99136">
        <ele>1797.610114</ele>
        <time>2021-08-13T23:26:21.884Z</time>
      </trkpt>
      <trkpt lat="39.81691" lon="44.98968">
        <ele>1803.915513</ele>
        <time>2021-08-13T23:27:38.614Z</time>
      </trkpt>
      <trkpt lat="39.81717" lon="44.98712">
        <ele>1800.529932</ele>
        <time>2021-08-13T23:28:29.569Z</time>
      </trkpt>
      <trkpt lat="39.81737" lon="44.98712">
        <ele>1799.11331</ele>
        <time>2021-08-13T23:28:33.643Z</time>
      </trkpt>
      <trkpt lat="39.81744" lon="44.98711">
        <ele>1798.625945</ele>
        <time>2021-08-13T23:28:34.884Z</time>
      </trkpt>
      <trkpt lat="39.81763" lon="44.9869">
        <ele>1796.787332</ele>
        <time>2021-08-13T23:28:40.155Z</time>
      </trkpt>
      <trkpt lat="39.8181" lon="44.98606">
        <ele>1791.008647</ele>
        <time>2021-08-13T23:28:55.526Z</time>
      </trkpt>
      <trkpt lat="39.8182" lon="44.9852">
        <ele>1786.237794</ele>
        <time>2021-08-13T23:29:08.295Z</time>
      </trkpt>
      <trkpt lat="39.81839" lon="44.9845">
        <ele>1782.174185</ele>
        <time>2021-08-13T23:29:19.635Z</time>
      </trkpt>
      <trkpt lat="39.81842" lon="44.98402">
        <ele>1779.54497</ele>
        <time>2021-08-13T23:29:27.143Z</time>
      </trkpt>
      <trkpt lat="39.81838" lon="44.98321">
        <ele>1775.861078</ele>
        <time>2021-08-13T23:29:40.215Z</time>
      </trkpt>
      <trkpt lat="39.81843" lon="44.98274">
        <ele>1774.803131</ele>
        <time>2021-08-13T23:29:48.348Z</time>
      </trkpt>
      <trkpt lat="39.81856" lon="44.98238">
        <ele>1773.933633</ele>
        <time>2021-08-13T23:29:55.280Z</time>
      </trkpt>
      <trkpt lat="39.81887" lon="44.98203">
        <ele>1772.755423</ele>
        <time>2021-08-13T23:30:05.122Z</time>
      </trkpt>
      <trkpt lat="39.81917" lon="44.98181">
        <ele>1771.785721</ele>
        <time>2021-08-13T23:30:13.725Z</time>
      </trkpt>
      <trkpt lat="39.8193" lon="44.98163">
        <ele>1771.236607</ele>
        <time>2021-08-13T23:30:18.778Z</time>
      </trkpt>
      <trkpt lat="39.81939" lon="44.98139">
        <ele>1771.305997</ele>
        <time>2021-08-13T23:30:24.642Z</time>
      </trkpt>
      <trkpt lat="39.81939" lon="44.9805">
        <ele>1771.681835</ele>
        <time>2021-08-13T23:30:45.482Z</time>
      </trkpt>
      <trkpt lat="39.81932" lon="44.9799">
        <ele>1771.937791</ele>
        <time>2021-08-13T23:31:01.001Z</time>
      </trkpt>
      <trkpt lat="39.81885" lon="44.97865">
        <ele>1774.363592</ele>
        <time>2021-08-13T23:31:49.933Z</time>
      </trkpt>
      <trkpt lat="39.81879" lon="44.97828">
        <ele>1775.382789</ele>
        <time>2021-08-13T23:32:04.787Z</time>
      </trkpt>
      <trkpt lat="39.81883" lon="44.97798">
        <ele>1776.20733</ele>
        <time>2021-08-13T23:32:17.108Z</time>
      </trkpt>
      <trkpt lat="39.81893" lon="44.97777">
        <ele>1776.86182</ele>
        <time>2021-08-13T23:32:27.113Z</time>
      </trkpt>
      <trkpt lat="39.81899" lon="44.97766">
        <ele>1777.221537</ele>
        <time>2021-08-13T23:32:33.161Z</time>
      </trkpt>
      <trkpt lat="39.82038" lon="44.97577">
        <ele>1785.935805</ele>
        <time>2021-08-13T23:34:26.839Z</time>
      </trkpt>
      <trkpt lat="39.82088" lon="44.9752">
        <ele>1789.305765</ele>
        <time>2021-08-13T23:35:04.196Z</time>
      </trkpt>
      <trkpt lat="39.82115" lon="44.97489">
        <ele>1791.18792</ele>
        <time>2021-08-13T23:35:24.287Z</time>
      </trkpt>
      <trkpt lat="39.82174" lon="44.97419">
        <ele>1795.322806</ele>
        <time>2021-08-13T23:36:13.075Z</time>
      </trkpt>
      <trkpt lat="39.82247" lon="44.97379">
        <ele>1801.917891</ele>
        <time>2021-08-13T23:37:09.469Z</time>
      </trkpt>
      <trkpt lat="39.82265" lon="44.97362">
        <ele>1803.961791</ele>
        <time>2021-08-13T23:37:28.080Z</time>
      </trkpt>
      <trkpt lat="39.82289" lon="44.97358">
        <ele>1806.11751</ele>
        <time>2021-08-13T23:37:49.461Z</time>
      </trkpt>
      <trkpt lat="39.82334" lon="44.97325">
        <ele>1810.772484</ele>
        <time>2021-08-13T23:38:31.631Z</time>
      </trkpt>
      <trkpt lat="39.82343" lon="44.97317">
        <ele>1811.73512</ele>
        <time>2021-08-13T23:38:41.534Z</time>
      </trkpt>
      <trkpt lat="39.82352" lon="44.97309">
        <ele>1812.931508</ele>
        <time>2021-08-13T23:38:54.422Z</time>
      </trkpt>
      <trkpt lat="39.82401" lon="44.97266">
        <ele>1819.841098</ele>
        <time>2021-08-13T23:39:54.412Z</time>
      </trkpt>
      <trkpt lat="39.82475" lon="44.97237">
        <ele>1829.021948</ele>
        <time>2021-08-13T23:41:15.034Z</time>
      </trkpt>
      <trkpt lat="39.82529" lon="44.97201">
        <ele>1835.225048</ele>
        <time>2021-08-13T23:42:10.128Z</time>
      </trkpt>
      <trkpt lat="39.82543" lon="44.97169">
        <ele>1837.409589</ele>
        <time>2021-08-13T23:42:33.010Z</time>
      </trkpt>
      <trkpt lat="39.82571" lon="44.97136">
        <ele>1840.332746</ele>
        <time>2021-08-13T23:43:00.857Z</time>
      </trkpt>
      <trkpt lat="39.82574" lon="44.97106">
        <ele>1842.133776</ele>
        <time>2021-08-13T23:43:16.219Z</time>
      </trkpt>
      <trkpt lat="39.82597" lon="44.97073">
        <ele>1844.77258</ele>
        <time>2021-08-13T23:43:40.494Z</time>
      </trkpt>
      <trkpt lat="39.82605" lon="44.97064">
        <ele>1845.584611</ele>
        <time>2021-08-13T23:43:49.496Z</time>
      </trkpt>
      <trkpt lat="39.82607" lon="44.9703">
        <ele>1847.600797</ele>
        <time>2021-08-13T23:44:04.096Z</time>
      </trkpt>
      <trkpt lat="39.82612" lon="44.97008">
        <ele>1848.976303</ele>
        <time>2021-08-13T23:44:16.378Z</time>
      </trkpt>
      <trkpt lat="39.82615" lon="44.9699">
        <ele>1850.079777</ele>
        <time>2021-08-13T23:44:23.417Z</time>
      </trkpt>
      <trkpt lat="39.82872" lon="44.96741">
        <ele>1875.952407</ele>
        <time>2021-08-13T23:48:33.858Z</time>
      </trkpt>
      <trkpt lat="39.82895" lon="44.96721">
        <ele>1878.004011</ele>
        <time>2021-08-13T23:48:56.159Z</time>
      </trkpt>
      <trkpt lat="39.82925" lon="44.96694">
        <ele>1880.700075</ele>
        <time>2021-08-13T23:49:24.303Z</time>
      </trkpt>
      <trkpt lat="39.82945" lon="44.9667">
        <ele>1882.727249</ele>
        <time>2021-08-13T23:49:44.634Z</time>
      </trkpt>
      <trkpt lat="39.8296" lon="44.96644">
        <ele>1884.526971</ele>
        <time>2021-08-13T23:50:02.371Z</time>
      </trkpt>
      <trkpt lat="39.82975" lon="44.96604">
        <ele>1887.060509</ele>
        <time>2021-08-13T23:50:26.577Z</time>
      </trkpt>
      <trkpt lat="39.82969" lon="44.96569">
        <ele>1889.126111</ele>
        <time>2021-08-13T23:50:45.667Z</time>
      </trkpt>
      <trkpt lat="39.82954" lon="44.96543">
        <ele>1890.723834</ele>
        <time>2021-08-13T23:51:00.923Z</time>
      </trkpt>
      <trkpt lat="39.82917" lon="44.96523">
        <ele>1893.204645</ele>
        <time>2021-08-13T23:51:24.999Z</time>
      </trkpt>
      <trkpt lat="39.8289" lon="44.9649">
        <ele>1895.517045</ele>
        <time>2021-08-13T23:51:46.339Z</time>
      </trkpt>
      <trkpt lat="39.82884" lon="44.96475">
        <ele>1896.312404</ele>
        <time>2021-08-13T23:51:54.695Z</time>
      </trkpt>
      <trkpt lat="39.82881" lon="44.96466">
        <ele>1896.794415</ele>
        <time>2021-08-13T23:52:00.866Z</time>
      </trkpt>
      <trkpt lat="39.82879" lon="44.9644">
        <ele>1898.073547</ele>
        <time>2021-08-13T23:52:14.102Z</time>
      </trkpt>
      <trkpt lat="39.82891" lon="44.96357">
        <ele>1902.370085</ele>
        <time>2021-08-13T23:53:01.716Z</time>
      </trkpt>
      <trkpt lat="39.82901" lon="44.96322">
        <ele>1904.533975</ele>
        <time>2021-08-13T23:53:23.138Z</time>
      </trkpt>
      <trkpt lat="39.82914" lon="44.96308">
        <ele>1905.847342</ele>
        <time>2021-08-13T23:53:34.969Z</time>
      </trkpt>
      <trkpt lat="39.82929" lon="44.96297">
        <ele>1907.174118</ele>
        <time>2021-08-13T23:53:49.132Z</time>
      </trkpt>
      <trkpt lat="39.82948" lon="44.96298">
        <ele>1908.615128</ele>
        <time>2021-08-13T23:54:02.292Z</time>
      </trkpt>
      <trkpt lat="39.82962" lon="44.96309">
        <ele>1909.876017</ele>
        <time>2021-08-13T23:54:15.618Z</time>
      </trkpt>
      <trkpt lat="39.8297" lon="44.96315">
        <ele>1910.543332</ele>
        <time>2021-08-13T23:54:22.178Z</time>
      </trkpt>
      <trkpt lat="39.83211" lon="44.96534">
        <ele>1933.36805</ele>
        <time>2021-08-13T23:57:55.533Z</time>
      </trkpt>
      <trkpt lat="39.83354" lon="44.96658">
        <ele>1949.076591</ele>
        <time>2021-08-14T00:00:22.790Z</time>
      </trkpt>
      <trkpt lat="39.83436" lon="44.96702">
        <ele>1957.537434</ele>
        <time>2021-08-14T00:01:39.839Z</time>
      </trkpt>
      <trkpt lat="39.83504" lon="44.96749">
        <ele>1964.409087</ele>
        <time>2021-08-14T00:02:43.358Z</time>
      </trkpt>
      <trkpt lat="39.83564" lon="44.96803">
        <ele>1970.403862</ele>
        <time>2021-08-14T00:03:38.512Z</time>
      </trkpt>
      <trkpt lat="39.8358" lon="44.96826">
        <ele>1972.373923</ele>
        <time>2021-08-14T00:03:55.537Z</time>
      </trkpt>
      <trkpt lat="39.83671" lon="44.97005">
        <ele>1985.55209</ele>
        <time>2021-08-14T00:06:00.466Z</time>
      </trkpt>
      <trkpt lat="39.83683" lon="44.97021">
        <ele>1986.919727</ele>
        <time>2021-08-14T00:06:14.558Z</time>
      </trkpt>
      <trkpt lat="39.83708" lon="44.97054">
        <ele>1989.791496</ele>
        <time>2021-08-14T00:06:41.757Z</time>
      </trkpt>
      <trkpt lat="39.83747" lon="44.97096">
        <ele>1993.196814</ele>
        <time>2021-08-14T00:07:18.377Z</time>
      </trkpt>
      <trkpt lat="39.83868" lon="44.97176">
        <ele>2002.340715</ele>
        <time>2021-08-14T00:08:52.390Z</time>
      </trkpt>
      <trkpt lat="39.84462" lon="44.97489">
        <ele>2028.906656</ele>
        <time>2021-08-14T00:14:48.476Z</time>
      </trkpt>
      <trkpt lat="39.84533" lon="44.97514">
        <ele>2030.695399</ele>
        <time>2021-08-14T00:15:13.222Z</time>
      </trkpt>
      <trkpt lat="39.84599" lon="44.97521">
        <ele>2028.975966</ele>
        <time>2021-08-14T00:15:30.542Z</time>
      </trkpt>
      <trkpt lat="39.84638" lon="44.97545">
        <ele>2027.728414</ele>
        <time>2021-08-14T00:15:40.836Z</time>
      </trkpt>
      <trkpt lat="39.8466" lon="44.97589">
        <ele>2026.587997</ele>
        <time>2021-08-14T00:15:49.898Z</time>
      </trkpt>
      <trkpt lat="39.84697" lon="44.97726">
        <ele>2019.907303</ele>
        <time>2021-08-14T00:16:12.849Z</time>
      </trkpt>
      <trkpt lat="39.84712" lon="44.97787">
        <ele>2016.353937</ele>
        <time>2021-08-14T00:16:22.499Z</time>
      </trkpt>
      <trkpt lat="39.84721" lon="44.97806">
        <ele>2015.075579</ele>
        <time>2021-08-14T00:16:25.838Z</time>
      </trkpt>
      <trkpt lat="39.84733" lon="44.97823">
        <ele>2013.80746</ele>
        <time>2021-08-14T00:16:29.338Z</time>
      </trkpt>
      <trkpt lat="39.84745" lon="44.97827">
        <ele>2012.870463</ele>
        <time>2021-08-14T00:16:31.787Z</time>
      </trkpt>
      <trkpt lat="39.84852" lon="44.97781">
        <ele>2003.907529</ele>
        <time>2021-08-14T00:16:53.446Z</time>
      </trkpt>
      <trkpt lat="39.84924" lon="44.97742">
        <ele>1997.704111</ele>
        <time>2021-08-14T00:17:09.154Z</time>
      </trkpt>
      <trkpt lat="39.84955" lon="44.97725">
        <ele>1995.689032</ele>
        <time>2021-08-14T00:17:15.912Z</time>
      </trkpt>
      <trkpt lat="39.85005" lon="44.97697">
        <ele>1992.401568</ele>
        <time>2021-08-14T00:17:27.249Z</time>
      </trkpt>
      <trkpt lat="39.85058" lon="44.97675">
        <ele>1989.021932</ele>
        <time>2021-08-14T00:17:38.789Z</time>
      </trkpt>
      <trkpt lat="39.85143" lon="44.97635">
        <ele>1982.801156</ele>
        <time>2021-08-14T00:17:57.176Z</time>
      </trkpt>
      <trkpt lat="39.85162" lon="44.97634">
        <ele>1981.40985</ele>
        <time>2021-08-14T00:18:01.048Z</time>
      </trkpt>
      <trkpt lat="39.85172" lon="44.97637">
        <ele>1980.661943</ele>
        <time>2021-08-14T00:18:03.031Z</time>
      </trkpt>
      <trkpt lat="39.85182" lon="44.9764">
        <ele>1979.906956</ele>
        <time>2021-08-14T00:18:05.075Z</time>
      </trkpt>
      <trkpt lat="39.85222" lon="44.97663">
        <ele>1976.778528</ele>
        <time>2021-08-14T00:18:13.643Z</time>
      </trkpt>
      <trkpt lat="39.85253" lon="44.97681">
        <ele>1974.306949</ele>
        <time>2021-08-14T00:18:20.295Z</time>
      </trkpt>
      <trkpt lat="39.85276" lon="44.97694">
        <ele>1972.152366</ele>
        <time>2021-08-14T00:18:25.254Z</time>
      </trkpt>
      <trkpt lat="39.85456" lon="44.97787">
        <ele>1955.861537</ele>
        <time>2021-08-14T00:19:02.753Z</time>
      </trkpt>
      <trkpt lat="39.85472" lon="44.97789">
        <ele>1954.508848</ele>
        <time>2021-08-14T00:19:05.991Z</time>
      </trkpt>
      <trkpt lat="39.85571" lon="44.97711">
        <ele>1945.019795</ele>
        <time>2021-08-14T00:19:28.564Z</time>
      </trkpt>
      <trkpt lat="39.85579" lon="44.97704">
        <ele>1944.232236</ele>
        <time>2021-08-14T00:19:30.388Z</time>
      </trkpt>
      <trkpt lat="39.85604" lon="44.97676">
        <ele>1941.988319</ele>
        <time>2021-08-14T00:19:36.941Z</time>
      </trkpt>
      <trkpt lat="39.85649" lon="44.97626">
        <ele>1938.016049</ele>
        <time>2021-08-14T00:19:48.844Z</time>
      </trkpt>
      <trkpt lat="39.85701" lon="44.97574">
        <ele>1933.587906</ele>
        <time>2021-08-14T00:20:02.002Z</time>
      </trkpt>
      <trkpt lat="39.85743" lon="44.97553">
        <ele>1930.775728</ele>
        <time>2021-08-14T00:20:11.522Z</time>
      </trkpt>
      <trkpt lat="39.85775" lon="44.97528">
        <ele>1928.731644</ele>
        <time>2021-08-14T00:20:19.340Z</time>
      </trkpt>
      <trkpt lat="39.85828" lon="44.97452">
        <ele>1924.437575</ele>
        <time>2021-08-14T00:20:35.760Z</time>
      </trkpt>
      <trkpt lat="39.85865" lon="44.97421">
        <ele>1921.973254</ele>
        <time>2021-08-14T00:20:45.081Z</time>
      </trkpt>
      <trkpt lat="39.85913" lon="44.97381">
        <ele>1918.77009</ele>
        <time>2021-08-14T00:20:56.871Z</time>
      </trkpt>
      <trkpt lat="39.86064" lon="44.97229">
        <ele>1908.188542</ele>
        <time>2021-08-14T00:21:36.412Z</time>
      </trkpt>
      <trkpt lat="39.86079" lon="44.97215">
        <ele>1907.238301</ele>
        <time>2021-08-14T00:21:40.045Z</time>
      </trkpt>
      <trkpt lat="39.86091" lon="44.97195">
        <ele>1906.180763</ele>
        <time>2021-08-14T00:21:44.234Z</time>
      </trkpt>
      <trkpt lat="39.86161" lon="44.97031">
        <ele>1899.392815</ele>
        <time>2021-08-14T00:22:14.613Z</time>
      </trkpt>
      <trkpt lat="39.86181" lon="44.97004">
        <ele>1898.227048</ele>
        <time>2021-08-14T00:22:20.990Z</time>
      </trkpt>
      <trkpt lat="39.86224" lon="44.96901">
        <ele>1894.73813</ele>
        <time>2021-08-14T00:22:41.441Z</time>
      </trkpt>
      <trkpt lat="39.86242" lon="44.96841">
        <ele>1893.351117</ele>
        <time>2021-08-14T00:22:53.520Z</time>
      </trkpt>
      <trkpt lat="39.86248" lon="44.96823">
        <ele>1892.922482</ele>
        <time>2021-08-14T00:22:57.259Z</time>
      </trkpt>
      <trkpt lat="39.86255" lon="44.968">
        <ele>1892.389699</ele>
        <time>2021-08-14T00:23:02.072Z</time>
      </trkpt>
      <trkpt lat="39.8631" lon="44.96663">
        <ele>1888.074086</ele>
        <time>2021-08-14T00:23:29.431Z</time>
      </trkpt>
      <trkpt lat="39.86371" lon="44.96542">
        <ele>1881.38867</ele>
        <time>2021-08-14T00:23:52.497Z</time>
      </trkpt>
      <trkpt lat="39.86404" lon="44.96498">
        <ele>1878.038922</ele>
        <time>2021-08-14T00:24:01.854Z</time>
      </trkpt>
      <trkpt lat="39.86587" lon="44.96343">
        <ele>1854.968034</ele>
        <time>2021-08-14T00:24:42.881Z</time>
      </trkpt>
      <trkpt lat="39.86627" lon="44.96296">
        <ele>1848.970135</ele>
        <time>2021-08-14T00:24:52.810Z</time>
      </trkpt>
      <trkpt lat="39.86646" lon="44.96262">
        <ele>1845.256632</ele>
        <time>2021-08-14T00:24:59.004Z</time>
      </trkpt>
      <trkpt lat="39.86657" lon="44.96243">
        <ele>1843.245994</ele>
        <time>2021-08-14T00:25:02.346Z</time>
      </trkpt>
      <trkpt lat="39.86666" lon="44.96204">
        <ele>1839.870501</ele>
        <time>2021-08-14T00:25:08.237Z</time>
      </trkpt>
      <trkpt lat="39.86668" lon="44.96188">
        <ele>1838.782461</ele>
        <time>2021-08-14T00:25:10.529Z</time>
      </trkpt>
      <trkpt lat="39.86666" lon="44.96158">
        <ele>1836.681881</ele>
        <time>2021-08-14T00:25:15.058Z</time>
      </trkpt>
      <trkpt lat="39.86661" lon="44.96117">
        <ele>1833.846184</ele>
        <time>2021-08-14T00:25:21.149Z</time>
      </trkpt>
      <trkpt lat="39.86666" lon="44.96066">
        <ele>1830.294969</ele>
        <time>2021-08-14T00:25:28.810Z</time>
      </trkpt>
      <trkpt lat="39.86695" lon="44.95964">
        <ele>1823.072161</ele>
        <time>2021-08-14T00:25:45.369Z</time>
      </trkpt>
      <trkpt lat="39.86782" lon="44.95714">
        <ele>1807.280321</ele>
        <time>2021-08-14T00:26:27.336Z</time>
      </trkpt>
      <trkpt lat="39.86796" lon="44.95639">
        <ele>1802.672898</ele>
        <time>2021-08-14T00:26:39.042Z</time>
      </trkpt>
      <trkpt lat="39.86808" lon="44.95621">
        <ele>1801.247749</ele>
        <time>2021-08-14T00:26:42.656Z</time>
      </trkpt>
      <trkpt lat="39.86868" lon="44.95571">
        <ele>1795.517291</ele>
        <time>2021-08-14T00:26:56.655Z</time>
      </trkpt>
      <trkpt lat="39.86922" lon="44.9551">
        <ele>1789.119474</ele>
        <time>2021-08-14T00:27:10.498Z</time>
      </trkpt>
      <trkpt lat="39.86954" lon="44.9547">
        <ele>1785.099084</ele>
        <time>2021-08-14T00:27:19.133Z</time>
      </trkpt>
      <trkpt lat="39.86962" lon="44.95459">
        <ele>1784.060727</ele>
        <time>2021-08-14T00:27:21.349Z</time>
      </trkpt>
      <trkpt lat="39.86981" lon="44.95427">
        <ele>1781.321671</ele>
        <time>2021-08-14T00:27:27.207Z</time>
      </trkpt>
      <trkpt lat="39.8699" lon="44.95382">
        <ele>1778.146017</ele>
        <time>2021-08-14T00:27:34.070Z</time>
      </trkpt>
      <trkpt lat="39.86997" lon="44.95278">
        <ele>1771.069319</ele>
        <time>2021-08-14T00:27:49.569Z</time>
      </trkpt>
      <trkpt lat="39.87004" lon="44.95215">
        <ele>1766.678179</ele>
        <time>2021-08-14T00:27:59.210Z</time>
      </trkpt>
      <trkpt lat="39.87025" lon="44.95168">
        <ele>1763.100148</ele>
        <time>2021-08-14T00:28:07.309Z</time>
      </trkpt>
      <trkpt lat="39.87087" lon="44.95102">
        <ele>1756.272919</ele>
        <time>2021-08-14T00:28:23.129Z</time>
      </trkpt>
      <trkpt lat="39.87091" lon="44.9509">
        <ele>1755.411119</ele>
        <time>2021-08-14T00:28:25.089Z</time>
      </trkpt>
      <trkpt lat="39.87089" lon="44.95083">
        <ele>1754.915475</ele>
        <time>2021-08-14T00:28:26.130Z</time>
      </trkpt>
      <trkpt lat="39.87083" lon="44.95075">
        <ele>1754.142224</ele>
        <time>2021-08-14T00:28:27.963Z</time>
      </trkpt>
      <trkpt lat="39.87066" lon="44.95071">
        <ele>1752.667774</ele>
        <time>2021-08-14T00:28:31.423Z</time>
      </trkpt>
      <trkpt lat="39.87023" lon="44.95078">
        <ele>1748.982563</ele>
        <time>2021-08-14T00:28:39.613Z</time>
      </trkpt>
      <trkpt lat="39.87001" lon="44.95073">
        <ele>1746.915208</ele>
        <time>2021-08-14T00:28:44.017Z</time>
      </trkpt>
      <trkpt lat="39.86988" lon="44.95066">
        <ele>1745.640501</ele>
        <time>2021-08-14T00:28:46.577Z</time>
      </trkpt>
      <trkpt lat="39.86932" lon="44.95038">
        <ele>1740.084147</ele>
        <time>2021-08-14T00:28:58.104Z</time>
      </trkpt>
      <trkpt lat="39.86833" lon="44.95016">
        <ele>1731.061664</ele>
        <time>2021-08-14T00:29:17.381Z</time>
      </trkpt>
      <trkpt lat="39.86779" lon="44.95002">
        <ele>1726.555637</ele>
        <time>2021-08-14T00:29:28.264Z</time>
      </trkpt>
      <trkpt lat="39.86749" lon="44.94995">
        <ele>1724.057502</ele>
        <time>2021-08-14T00:29:34.324Z</time>
      </trkpt>
      <trkpt lat="39.86706" lon="44.94975">
        <ele>1720.313442</ele>
        <time>2021-08-14T00:29:43.353Z</time>
      </trkpt>
      <trkpt lat="39.86663" lon="44.94948">
        <ele>1716.354369</ele>
        <time>2021-08-14T00:29:52.699Z</time>
      </trkpt>
      <trkpt lat="39.86622" lon="44.94893">
        <ele>1711.434932</ele>
        <time>2021-08-14T00:30:04.099Z</time>
      </trkpt>
      <trkpt lat="39.86605" lon="44.94852">
        <ele>1708.425892</ele>
        <time>2021-08-14T00:30:11.088Z</time>
      </trkpt>
      <trkpt lat="39.86596" lon="44.94812">
        <ele>1705.756379</ele>
        <time>2021-08-14T00:30:17.308Z</time>
      </trkpt>
      <trkpt lat="39.86583" lon="44.94687">
        <ele>1698.518619</ele>
        <time>2021-08-14T00:30:36.335Z</time>
      </trkpt>
      <trkpt lat="39.86564" lon="44.94641">
        <ele>1695.734883</ele>
        <time>2021-08-14T00:30:44.324Z</time>
      </trkpt>
      <trkpt lat="39.86538" lon="44.94599">
        <ele>1692.858221</ele>
        <time>2021-08-14T00:30:52.734Z</time>
      </trkpt>
      <trkpt lat="39.8652" lon="44.9458">
        <ele>1691.21467</ele>
        <time>2021-08-14T00:30:57.558Z</time>
      </trkpt>
      <trkpt lat="39.86495" lon="44.94572">
        <ele>1689.79484</ele>
        <time>2021-08-14T00:31:02.771Z</time>
      </trkpt>
      <trkpt lat="39.86386" lon="44.94575">
        <ele>1684.529818</ele>
        <time>2021-08-14T00:31:26.096Z</time>
      </trkpt>
      <trkpt lat="39.86298" lon="44.9456">
        <ele>1679.887682</ele>
        <time>2021-08-14T00:31:45.421Z</time>
      </trkpt>
      <trkpt lat="39.86276" lon="44.9454">
        <ele>1678.275697</ele>
        <time>2021-08-14T00:31:51.052Z</time>
      </trkpt>
      <trkpt lat="39.8625" lon="44.94498">
        <ele>1675.824021</ele>
        <time>2021-08-14T00:31:59.417Z</time>
      </trkpt>
      <trkpt lat="39.86217" lon="44.94436">
        <ele>1672.375933</ele>
        <time>2021-08-14T00:32:11.237Z</time>
      </trkpt>
      <trkpt lat="39.86202" lon="44.94412">
        <ele>1670.944372</ele>
        <time>2021-08-14T00:32:16.026Z</time>
      </trkpt>
      <trkpt lat="39.86182" lon="44.94397">
        <ele>1669.489419</ele>
        <time>2021-08-14T00:32:20.738Z</time>
      </trkpt>
      <trkpt lat="39.86171" lon="44.94388">
        <ele>1668.663131</ele>
        <time>2021-08-14T00:32:23.271Z</time>
      </trkpt>
      <trkpt lat="39.86136" lon="44.94374">
        <ele>1666.322581</ele>
        <time>2021-08-14T00:32:30.663Z</time>
      </trkpt>
      <trkpt lat="39.86107" lon="44.94376">
        <ele>1664.452002</ele>
        <time>2021-08-14T00:32:36.577Z</time>
      </trkpt>
      <trkpt lat="39.86075" lon="44.9439">
        <ele>1662.357908</ele>
        <time>2021-08-14T00:32:43.224Z</time>
      </trkpt>
      <trkpt lat="39.86034" lon="44.94418">
        <ele>1659.386152</ele>
        <time>2021-08-14T00:32:52.808Z</time>
      </trkpt>
      <trkpt lat="39.85993" lon="44.94471">
        <ele>1656.104469</ele>
        <time>2021-08-14T00:33:05.095Z</time>
      </trkpt>
      <trkpt lat="39.85983" lon="44.94463">
        <ele>1655.406969</ele>
        <time>2021-08-14T00:33:07.642Z</time>
      </trkpt>
      <trkpt lat="39.85987" lon="44.94454">
        <ele>1654.954135</ele>
        <time>2021-08-14T00:33:09.276Z</time>
      </trkpt>
      <trkpt lat="39.85996" lon="44.94432">
        <ele>1653.838759</ele>
        <time>2021-08-14T00:33:13.333Z</time>
      </trkpt>
      <trkpt lat="39.86061" lon="44.94354">
        <ele>1648.658242</ele>
        <time>2021-08-14T00:33:31.286Z</time>
      </trkpt>
      <trkpt lat="39.86111" lon="44.94314">
        <ele>1644.548718</ele>
        <time>2021-08-14T00:33:43.025Z</time>
      </trkpt>
      <trkpt lat="39.86202" lon="44.94276">
        <ele>1637.829961</ele>
        <time>2021-08-14T00:34:02.083Z</time>
      </trkpt>
      <trkpt lat="39.86252" lon="44.94242">
        <ele>1634.222965</ele>
        <time>2021-08-14T00:34:13.429Z</time>
      </trkpt>
      <trkpt lat="39.86282" lon="44.94201">
        <ele>1631.595453</ele>
        <time>2021-08-14T00:34:22.160Z</time>
      </trkpt>
      <trkpt lat="39.86286" lon="44.94176">
        <ele>1630.385538</ele>
        <time>2021-08-14T00:34:26.250Z</time>
      </trkpt>
      <trkpt lat="39.8628" lon="44.94155">
        <ele>1629.371875</ele>
        <time>2021-08-14T00:34:29.712Z</time>
      </trkpt>
      <trkpt lat="39.86268" lon="44.9414">
        <ele>1628.345144</ele>
        <time>2021-08-14T00:34:33.277Z</time>
      </trkpt>
      <trkpt lat="39.86256" lon="44.94137">
        <ele>1627.596857</ele>
        <time>2021-08-14T00:34:35.888Z</time>
      </trkpt>
      <trkpt lat="39.86241" lon="44.94146">
        <ele>1626.612841</ele>
        <time>2021-08-14T00:34:39.411Z</time>
      </trkpt>
      <trkpt lat="39.86215" lon="44.94203">
        <ele>1623.132059</ele>
        <time>2021-08-14T00:34:50.116Z</time>
      </trkpt>
      <trkpt lat="39.86198" lon="44.94222">
        <ele>1621.508202</ele>
        <time>2021-08-14T00:34:54.785Z</time>
      </trkpt>
      <trkpt lat="39.86176" lon="44.94225">
        <ele>1619.895082</ele>
        <time>2021-08-14T00:34:59.222Z</time>
      </trkpt>
      <trkpt lat="39.86104" lon="44.94215">
        <ele>1614.721161</ele>
        <time>2021-08-14T00:35:13.537Z</time>
      </trkpt>
      <trkpt lat="39.8609" lon="44.94207">
        <ele>1613.683316</ele>
        <time>2021-08-14T00:35:16.444Z</time>
      </trkpt>
      <trkpt lat="39.86083" lon="44.94184">
        <ele>1612.060058</ele>
        <time>2021-08-14T00:35:20.127Z</time>
      </trkpt>
      <trkpt lat="39.8611" lon="44.94076">
        <ele>1603.432883</ele>
        <time>2021-08-14T00:35:36.789Z</time>
      </trkpt>
      <trkpt lat="39.86115" lon="44.94031">
        <ele>1599.896982</ele>
        <time>2021-08-14T00:35:43.442Z</time>
      </trkpt>
      <trkpt lat="39.86109" lon="44.93962">
        <ele>1594.664606</ele>
        <time>2021-08-14T00:35:53.498Z</time>
      </trkpt>
      <trkpt lat="39.86112" lon="44.93916">
        <ele>1591.493016</ele>
        <time>2021-08-14T00:36:00.452Z</time>
      </trkpt>
      <trkpt lat="39.86116" lon="44.93874">
        <ele>1588.616722</ele>
        <time>2021-08-14T00:36:06.651Z</time>
      </trkpt>
      <trkpt lat="39.86121" lon="44.93835">
        <ele>1585.89931</ele>
        <time>2021-08-14T00:36:12.524Z</time>
      </trkpt>
      <trkpt lat="39.86128" lon="44.93797">
        <ele>1583.226541</ele>
        <time>2021-08-14T00:36:18.325Z</time>
      </trkpt>
      <trkpt lat="39.86148" lon="44.93775">
        <ele>1580.856942</ele>
        <time>2021-08-14T00:36:23.465Z</time>
      </trkpt>
      <trkpt lat="39.86166" lon="44.93772">
        <ele>1579.237799</ele>
        <time>2021-08-14T00:36:27.106Z</time>
      </trkpt>
      <trkpt lat="39.86174" lon="44.93767">
        <ele>1578.557762</ele>
        <time>2021-08-14T00:36:28.801Z</time>
      </trkpt>
      <trkpt lat="39.86178" lon="44.93759">
        <ele>1577.975942</ele>
        <time>2021-08-14T00:36:30.205Z</time>
      </trkpt>
      <trkpt lat="39.86177" lon="44.9374">
        <ele>1576.889513</ele>
        <time>2021-08-14T00:36:33.073Z</time>
      </trkpt>
      <trkpt lat="39.86153" lon="44.93676">
        <ele>1572.688704</ele>
        <time>2021-08-14T00:36:44.019Z</time>
      </trkpt>
      <trkpt lat="39.86078" lon="44.93501">
        <ele>1561.017609</ele>
        <time>2021-08-14T00:37:14.512Z</time>
      </trkpt>
      <trkpt lat="39.86064" lon="44.93484">
        <ele>1559.543905</ele>
        <time>2021-08-14T00:37:18.435Z</time>
      </trkpt>
      <trkpt lat="39.86046" lon="44.93486">
        <ele>1558.177245</ele>
        <time>2021-08-14T00:37:22.031Z</time>
      </trkpt>
      <trkpt lat="39.86015" lon="44.93517">
        <ele>1555.27839</ele>
        <time>2021-08-14T00:37:29.702Z</time>
      </trkpt>
      <trkpt lat="39.86001" lon="44.93525">
        <ele>1554.09505</ele>
        <time>2021-08-14T00:37:32.825Z</time>
      </trkpt>
      <trkpt lat="39.85992" lon="44.93523">
        <ele>1553.437509</ele>
        <time>2021-08-14T00:37:34.559Z</time>
      </trkpt>
      <trkpt lat="39.85988" lon="44.93515">
        <ele>1552.841873</ele>
        <time>2021-08-14T00:37:36.133Z</time>
      </trkpt>
      <trkpt lat="39.85989" lon="44.93506">
        <ele>1552.296003</ele>
        <time>2021-08-14T00:37:37.570Z</time>
      </trkpt>
      <trkpt lat="39.86021" lon="44.93466">
        <ele>1548.903348</ele>
        <time>2021-08-14T00:37:46.242Z</time>
      </trkpt>
      <trkpt lat="39.86077" lon="44.93264">
        <ele>1536.095128</ele>
        <time>2021-08-14T00:38:18.736Z</time>
      </trkpt>
      <trkpt lat="39.8608" lon="44.93236">
        <ele>1534.425374</ele>
        <time>2021-08-14T00:38:23.082Z</time>
      </trkpt>
      <trkpt lat="39.86076" lon="44.93096">
        <ele>1526.270053</ele>
        <time>2021-08-14T00:38:44.424Z</time>
      </trkpt>
      <trkpt lat="39.8607" lon="44.93067">
        <ele>1524.541488</ele>
        <time>2021-08-14T00:38:48.985Z</time>
      </trkpt>
      <trkpt lat="39.86057" lon="44.93049">
        <ele>1523.178642</ele>
        <time>2021-08-14T00:38:52.655Z</time>
      </trkpt>
      <trkpt lat="39.86042" lon="44.93043">
        <ele>1522.042294</ele>
        <time>2021-08-14T00:38:55.782Z</time>
      </trkpt>
      <trkpt lat="39.86024" lon="44.93044">
        <ele>1520.674691</ele>
        <time>2021-08-14T00:38:59.515Z</time>
      </trkpt>
      <trkpt lat="39.8595" lon="44.93089">
        <ele>1514.714753</ele>
        <time>2021-08-14T00:39:15.886Z</time>
      </trkpt>
      <trkpt lat="39.85927" lon="44.93086">
        <ele>1513.020696</ele>
        <time>2021-08-14T00:39:20.528Z</time>
      </trkpt>
      <trkpt lat="39.85919" lon="44.93078">
        <ele>1512.283081</ele>
        <time>2021-08-14T00:39:22.534Z</time>
      </trkpt>
      <trkpt lat="39.85917" lon="44.9305">
        <ele>1510.697981</ele>
        <time>2021-08-14T00:39:26.655Z</time>
      </trkpt>
      <trkpt lat="39.8592" lon="44.93036">
        <ele>1509.739028</ele>
        <time>2021-08-14T00:39:28.983Z</time>
      </trkpt>
      <trkpt lat="39.85934" lon="44.93011">
        <ele>1507.755083</ele>
        <time>2021-08-14T00:39:33.647Z</time>
      </trkpt>
      <trkpt lat="39.85996" lon="44.92932">
        <ele>1500.669543</ele>
        <time>2021-08-14T00:39:50.583Z</time>
      </trkpt>
      <trkpt lat="39.86012" lon="44.92911">
        <ele>1498.776043</ele>
        <time>2021-08-14T00:39:55.033Z</time>
      </trkpt>
      <trkpt lat="39.8607" lon="44.92763">
        <ele>1488.267174</ele>
        <time>2021-08-14T00:40:19.935Z</time>
      </trkpt>
      <trkpt lat="39.86086" lon="44.92734">
        <ele>1486.024023</ele>
        <time>2021-08-14T00:40:25.229Z</time>
      </trkpt>
      <trkpt lat="39.86107" lon="44.92721">
        <ele>1484.060531</ele>
        <time>2021-08-14T00:40:29.953Z</time>
      </trkpt>
      <trkpt lat="39.86146" lon="44.92719">
        <ele>1480.778658</ele>
        <time>2021-08-14T00:40:37.686Z</time>
      </trkpt>
      <trkpt lat="39.86177" lon="44.92729">
        <ele>1477.916548</ele>
        <time>2021-08-14T00:40:43.869Z</time>
      </trkpt>
      <trkpt lat="39.86202" lon="44.92717">
        <ele>1475.481377</ele>
        <time>2021-08-14T00:40:49.083Z</time>
      </trkpt>
      <trkpt lat="39.86218" lon="44.92695">
        <ele>1473.398883</ele>
        <time>2021-08-14T00:40:53.536Z</time>
      </trkpt>
      <trkpt lat="39.86235" lon="44.92653">
        <ele>1470.09861</ele>
        <time>2021-08-14T00:41:00.548Z</time>
      </trkpt>
      <trkpt lat="39.86292" lon="44.9245">
        <ele>1454.79268</ele>
        <time>2021-08-14T00:41:32.362Z</time>
      </trkpt>
      <trkpt lat="39.86372" lon="44.9221">
        <ele>1437.914639</ele>
        <time>2021-08-14T00:42:11.482Z</time>
      </trkpt>
      <trkpt lat="39.86478" lon="44.91855">
        <ele>1419.207822</ele>
        <time>2021-08-14T00:43:11.077Z</time>
      </trkpt>
      <trkpt lat="39.86553" lon="44.91646">
        <ele>1409.549435</ele>
        <time>2021-08-14T00:43:48.610Z</time>
      </trkpt>
      <trkpt lat="39.86563" lon="44.91596">
        <ele>1407.428694</ele>
        <time>2021-08-14T00:43:57.021Z</time>
      </trkpt>
      <trkpt lat="39.86576" lon="44.91536">
        <ele>1404.896158</ele>
        <time>2021-08-14T00:44:06.983Z</time>
      </trkpt>
      <trkpt lat="39.86662" lon="44.91313">
        <ele>1393.622725</ele>
        <time>2021-08-14T00:44:46.540Z</time>
      </trkpt>
      <trkpt lat="39.86798" lon="44.90926">
        <ele>1372.311374</ele>
        <time>2021-08-14T00:45:52.597Z</time>
      </trkpt>
      <trkpt lat="39.86827" lon="44.90847">
        <ele>1368.279408</ele>
        <time>2021-08-14T00:46:06.552Z</time>
      </trkpt>
      <trkpt lat="39.86852" lon="44.90803">
        <ele>1366.344872</ele>
        <time>2021-08-14T00:46:15.378Z</time>
      </trkpt>
      <trkpt lat="39.86919" lon="44.90706">
        <ele>1361.726532</ele>
        <time>2021-08-14T00:46:37.055Z</time>
      </trkpt>
      <trkpt lat="39.87006" lon="44.90597">
        <ele>1356.54544</ele>
        <time>2021-08-14T00:47:03.730Z</time>
      </trkpt>
      <trkpt lat="39.87078" lon="44.90515">
        <ele>1352.42158</ele>
        <time>2021-08-14T00:47:24.405Z</time>
      </trkpt>
      <trkpt lat="39.87136" lon="44.90462">
        <ele>1348.85094</ele>
        <time>2021-08-14T00:47:39.381Z</time>
      </trkpt>
      <trkpt lat="39.8719" lon="44.90412">
        <ele>1345.505948</ele>
        <time>2021-08-14T00:47:53.243Z</time>
      </trkpt>
      <trkpt lat="39.873" lon="44.90304">
        <ele>1338.619574</ele>
        <time>2021-08-14T00:48:22.193Z</time>
      </trkpt>
      <trkpt lat="39.87325" lon="44.9028">
        <ele>1337.111142</ele>
        <time>2021-08-14T00:48:28.644Z</time>
      </trkpt>
      <trkpt lat="39.87481" lon="44.90102">
        <ele>1328.566094</ele>
        <time>2021-08-14T00:49:14.019Z</time>
      </trkpt>
      <trkpt lat="39.87719" lon="44.89819">
        <ele>1318.983402</ele>
        <time>2021-08-14T00:50:29.266Z</time>
      </trkpt>
      <trkpt lat="39.87809" lon="44.89715">
        <ele>1314.780566</ele>
        <time>2021-08-14T00:50:56.542Z</time>
      </trkpt>
      <trkpt lat="39.87865" lon="44.89644">
        <ele>1311.735584</ele>
        <time>2021-08-14T00:51:13.770Z</time>
      </trkpt>
      <trkpt lat="39.8789" lon="44.89612">
        <ele>1310.368817</ele>
        <time>2021-08-14T00:51:21.274Z</time>
      </trkpt>
      <trkpt lat="39.87955" lon="44.89518">
        <ele>1305.790329</ele>
        <time>2021-08-14T00:51:41.896Z</time>
      </trkpt>
      <trkpt lat="39.88038" lon="44.89312">
        <ele>1298.316328</ele>
        <time>2021-08-14T00:52:20.211Z</time>
      </trkpt>
      <trkpt lat="39.88082" lon="44.89193">
        <ele>1294.806033</ele>
        <time>2021-08-14T00:52:43.658Z</time>
      </trkpt>
      <trkpt lat="39.88138" lon="44.89068">
        <ele>1292.304998</ele>
        <time>2021-08-14T00:53:11.582Z</time>
      </trkpt>
      <trkpt lat="39.88158" lon="44.88993">
        <ele>1290.761511</ele>
        <time>2021-08-14T00:53:26.357Z</time>
      </trkpt>
      <trkpt lat="39.8817" lon="44.88949">
        <ele>1289.459204</ele>
        <time>2021-08-14T00:53:34.590Z</time>
      </trkpt>
      <trkpt lat="39.88174" lon="44.8891">
        <ele>1288.373952</ele>
        <time>2021-08-14T00:53:41.283Z</time>
      </trkpt>
      <trkpt lat="39.88183" lon="44.88837">
        <ele>1286.290439</ele>
        <time>2021-08-14T00:53:53.803Z</time>
      </trkpt>
      <trkpt lat="39.88202" lon="44.88674">
        <ele>1281.183429</ele>
        <time>2021-08-14T00:54:21.218Z</time>
      </trkpt>
      <trkpt lat="39.88216" lon="44.88547">
        <ele>1277.00094</ele>
        <time>2021-08-14T00:54:42.816Z</time>
      </trkpt>
      <trkpt lat="39.88234" lon="44.88417">
        <ele>1272.854209</ele>
        <time>2021-08-14T00:55:05.048Z</time>
      </trkpt>
      <trkpt lat="39.88294" lon="44.88215">
        <ele>1266.159782</ele>
        <time>2021-08-14T00:55:41.398Z</time>
      </trkpt>
      <trkpt lat="39.8832" lon="44.88141">
        <ele>1263.686671</ele>
        <time>2021-08-14T00:55:55.154Z</time>
      </trkpt>
      <trkpt lat="39.88332" lon="44.88109">
        <ele>1262.572428</ele>
        <time>2021-08-14T00:56:01.413Z</time>
      </trkpt>
      <trkpt lat="39.8837" lon="44.88012">
        <ele>1259.471655</ele>
        <time>2021-08-14T00:56:19.859Z</time>
      </trkpt>
      <trkpt lat="39.88415" lon="44.879">
        <ele>1255.870289</ele>
        <time>2021-08-14T00:56:41.546Z</time>
      </trkpt>
      <trkpt lat="39.88417" lon="44.87888">
        <ele>1255.536167</ele>
        <time>2021-08-14T00:56:43.567Z</time>
      </trkpt>
      <trkpt lat="39.88443" lon="44.87734">
        <ele>1251.442619</ele>
        <time>2021-08-14T00:57:10.901Z</time>
      </trkpt>
      <trkpt lat="39.88448" lon="44.87704">
        <ele>1250.620064</ele>
        <time>2021-08-14T00:57:16.339Z</time>
      </trkpt>
      <trkpt lat="39.88495" lon="44.87406">
        <ele>1243.169844</ele>
        <time>2021-08-14T00:58:10.529Z</time>
      </trkpt>
      <trkpt lat="39.88547" lon="44.87245">
        <ele>1237.505858</ele>
        <time>2021-08-14T00:58:39.489Z</time>
      </trkpt>
      <trkpt lat="39.88553" lon="44.87225">
        <ele>1236.783263</ele>
        <time>2021-08-14T00:58:43.105Z</time>
      </trkpt>
      <trkpt lat="39.88561" lon="44.87187">
        <ele>1235.381304</ele>
        <time>2021-08-14T00:58:49.428Z</time>
      </trkpt>
      <trkpt lat="39.88575" lon="44.87105">
        <ele>1232.301688</ele>
        <time>2021-08-14T00:59:03.176Z</time>
      </trkpt>
      <trkpt lat="39.88588" lon="44.86985">
        <ele>1227.901695</ele>
        <time>2021-08-14T00:59:22.905Z</time>
      </trkpt>
      <trkpt lat="39.88605" lon="44.86858">
        <ele>1224.160947</ele>
        <time>2021-08-14T00:59:44.808Z</time>
      </trkpt>
      <trkpt lat="39.8861" lon="44.86817">
        <ele>1222.950177</ele>
        <time>2021-08-14T00:59:51.968Z</time>
      </trkpt>
      <trkpt lat="39.88764" lon="44.86295">
        <ele>1209.232623</ele>
        <time>2021-08-14T01:01:30.692Z</time>
      </trkpt>
      <trkpt lat="39.88772" lon="44.86275">
        <ele>1208.603965</ele>
        <time>2021-08-14T01:01:34.664Z</time>
      </trkpt>
      <trkpt lat="39.88815" lon="44.86176">
        <ele>1205.503896</ele>
        <time>2021-08-14T01:01:54.237Z</time>
      </trkpt>
      <trkpt lat="39.88966" lon="44.85883">
        <ele>1195.500809</ele>
        <time>2021-08-14T01:02:54.469Z</time>
      </trkpt>
      <trkpt lat="39.89022" lon="44.85776">
        <ele>1191.813806</ele>
        <time>2021-08-14T01:03:16.449Z</time>
      </trkpt>
      <trkpt lat="39.89168" lon="44.85467">
        <ele>1181.726003</ele>
        <time>2021-08-14T01:04:18.581Z</time>
      </trkpt>
      <trkpt lat="39.89224" lon="44.85382">
        <ele>1178.843886</ele>
        <time>2021-08-14T01:04:38.234Z</time>
      </trkpt>
      <trkpt lat="39.89332" lon="44.85258">
        <ele>1174.326142</ele>
        <time>2021-08-14T01:05:11.516Z</time>
      </trkpt>
      <trkpt lat="39.89439" lon="44.85167">
        <ele>1170.05665</ele>
        <time>2021-08-14T01:05:40.688Z</time>
      </trkpt>
      <trkpt lat="39.89709" lon="44.85006">
        <ele>1158.546037</ele>
        <time>2021-08-14T01:06:45.929Z</time>
      </trkpt>
      <trkpt lat="39.89735" lon="44.84974">
        <ele>1157.109718</ele>
        <time>2021-08-14T01:06:53.721Z</time>
      </trkpt>
      <trkpt lat="39.89815" lon="44.84848">
        <ele>1152.079452</ele>
        <time>2021-08-14T01:07:21.156Z</time>
      </trkpt>
      <trkpt lat="39.89889" lon="44.84703">
        <ele>1147.780219</ele>
        <time>2021-08-14T01:07:51.363Z</time>
      </trkpt>
      <trkpt lat="39.89945" lon="44.84517">
        <ele>1143.343111</ele>
        <time>2021-08-14T01:08:28.067Z</time>
      </trkpt>
      <trkpt lat="39.9008" lon="44.84212">
        <ele>1135.490851</ele>
        <time>2021-08-14T01:09:30.835Z</time>
      </trkpt>
      <trkpt lat="39.90151" lon="44.83929">
        <ele>1127.329493</ele>
        <time>2021-08-14T01:10:21.841Z</time>
      </trkpt>
      <trkpt lat="39.90172" lon="44.83876">
        <ele>1125.746366</ele>
        <time>2021-08-14T01:10:32.122Z</time>
      </trkpt>
      <trkpt lat="39.90195" lon="44.83837">
        <ele>1124.444798</ele>
        <time>2021-08-14T01:10:40.608Z</time>
      </trkpt>
      <trkpt lat="39.90287" lon="44.83741">
        <ele>1120.361947</ele>
        <time>2021-08-14T01:11:07.265Z</time>
      </trkpt>
      <trkpt lat="39.90371" lon="44.83662">
        <ele>1116.764284</ele>
        <time>2021-08-14T01:11:30.684Z</time>
      </trkpt>
      <trkpt lat="39.90699" lon="44.83298">
        <ele>1101.454826</ele>
        <time>2021-08-14T01:13:07.135Z</time>
      </trkpt>
      <trkpt lat="39.9076" lon="44.83211">
        <ele>1098.324829</ele>
        <time>2021-08-14T01:13:27.236Z</time>
      </trkpt>
      <trkpt lat="39.90957" lon="44.82925">
        <ele>1089.630488</ele>
        <time>2021-08-14T01:14:35.474Z</time>
      </trkpt>
      <trkpt lat="39.91104" lon="44.8273">
        <ele>1084.404878</ele>
        <time>2021-08-14T01:15:26.253Z</time>
      </trkpt>
      <trkpt lat="39.91267" lon="44.82532">
        <ele>1078.500756</ele>
        <time>2021-08-14T01:16:18.525Z</time>
      </trkpt>
      <trkpt lat="39.91286" lon="44.82507">
        <ele>1077.753716</ele>
        <time>2021-08-14T01:16:24.734Z</time>
      </trkpt>
      <trkpt lat="39.91322" lon="44.8244">
        <ele>1075.990916</ele>
        <time>2021-08-14T01:16:39.098Z</time>
      </trkpt>
      <trkpt lat="39.9134" lon="44.82398">
        <ele>1074.929915</ele>
        <time>2021-08-14T01:16:47.764Z</time>
      </trkpt>
      <trkpt lat="39.91363" lon="44.8231">
        <ele>1072.91759</ele>
        <time>2021-08-14T01:17:04.373Z</time>
      </trkpt>
      <trkpt lat="39.91392" lon="44.8215">
        <ele>1069.573283</ele>
        <time>2021-08-14T01:17:34.774Z</time>
      </trkpt>
      <trkpt lat="39.91412" lon="44.82069">
        <ele>1067.821918</ele>
        <time>2021-08-14T01:17:49.998Z</time>
      </trkpt>
      <trkpt lat="39.91477" lon="44.81925">
        <ele>1063.388241</ele>
        <time>2021-08-14T01:18:19.013Z</time>
      </trkpt>
      <trkpt lat="39.91499" lon="44.81898">
        <ele>1062.354322</ele>
        <time>2021-08-14T01:18:25.609Z</time>
      </trkpt>
      <trkpt lat="39.91531" lon="44.81875">
        <ele>1061.054921</ele>
        <time>2021-08-14T01:18:33.703Z</time>
      </trkpt>
      <trkpt lat="39.91638" lon="44.81855">
        <ele>1057.147413</ele>
        <time>2021-08-14T01:18:57.705Z</time>
      </trkpt>
      <trkpt lat="39.91777" lon="44.81829">
        <ele>1052.154524</ele>
        <time>2021-08-14T01:19:29.304Z</time>
      </trkpt>
      <trkpt lat="39.91905" lon="44.81805">
        <ele>1047.572295</ele>
        <time>2021-08-14T01:19:58.168Z</time>
      </trkpt>
      <trkpt lat="39.92039" lon="44.8178">
        <ele>1042.86281</ele>
        <time>2021-08-14T01:20:28.124Z</time>
      </trkpt>
      <trkpt lat="39.92066" lon="44.81775">
        <ele>1042.727843</ele>
        <time>2021-08-14T01:20:34.622Z</time>
      </trkpt>
      <trkpt lat="39.92075" lon="44.81773">
        <ele>1042.76075</ele>
        <time>2021-08-14T01:20:36.781Z</time>
      </trkpt>
      <trkpt lat="39.92135" lon="44.81764">
        <ele>1042.980087</ele>
        <time>2021-08-14T01:20:53.059Z</time>
      </trkpt>
      <trkpt lat="39.92173" lon="44.81755">
        <ele>1043.122806</ele>
        <time>2021-08-14T01:21:08.259Z</time>
      </trkpt>
      <trkpt lat="39.92214" lon="44.81739">
        <ele>1043.278505</ele>
        <time>2021-08-14T01:21:28.218Z</time>
      </trkpt>
      <trkpt lat="39.92259" lon="44.81718">
        <ele>1044.953327</ele>
        <time>2021-08-14T01:21:54.397Z</time>
      </trkpt>
      <trkpt lat="39.92309" lon="44.81666">
        <ele>1047.577535</ele>
        <time>2021-08-14T01:22:32.670Z</time>
      </trkpt>
      <trkpt lat="39.92348" lon="44.81609">
        <ele>1049.987532</ele>
        <time>2021-08-14T01:23:03.456Z</time>
      </trkpt>
      <trkpt lat="39.92349" lon="44.81607">
        <ele>1050.044989</ele>
        <time>2021-08-14T01:23:05.550Z</time>
      </trkpt>
      <trkpt lat="39.92379" lon="44.8156">
        <ele>1051.096138</ele>
        <time>2021-08-14T01:23:29.329Z</time>
      </trkpt>
      <trkpt lat="39.92402" lon="44.81515">
        <ele>1051.663175</ele>
        <time>2021-08-14T01:23:47.642Z</time>
      </trkpt>
      <trkpt lat="39.92408" lon="44.81504">
        <ele>1051.799396</ele>
        <time>2021-08-14T01:23:50.879Z</time>
      </trkpt>
      <trkpt lat="39.92427" lon="44.81448">
        <ele>1052.424647</ele>
        <time>2021-08-14T01:24:08.996Z</time>
      </trkpt>
      <trkpt lat="39.92459" lon="44.81311">
        <ele>1052.3564</ele>
        <time>2021-08-14T01:24:39.133Z</time>
      </trkpt>
      <trkpt lat="39.92473" lon="44.81224">
        <ele>1051.518731</ele>
        <time>2021-08-14T01:24:57.398Z</time>
      </trkpt>
      <trkpt lat="39.92476" lon="44.81171">
        <ele>1051.020218</ele>
        <time>2021-08-14T01:25:07.790Z</time>
      </trkpt>
      <trkpt lat="39.92469" lon="44.80739">
        <ele>1044.322051</ele>
        <time>2021-08-14T01:26:27.797Z</time>
      </trkpt>
      <trkpt lat="39.9246" lon="44.80583">
        <ele>1042.997244</ele>
        <time>2021-08-14T01:27:03.471Z</time>
      </trkpt>
      <trkpt lat="39.92455" lon="44.80552">
        <ele>1042.810682</ele>
        <time>2021-08-14T01:27:11.260Z</time>
      </trkpt>
      <trkpt lat="39.92446" lon="44.80521">
        <ele>1042.61687</ele>
        <time>2021-08-14T01:27:19.324Z</time>
      </trkpt>
      <trkpt lat="39.92428" lon="44.8048">
        <ele>1042.342019</ele>
        <time>2021-08-14T01:27:29.950Z</time>
      </trkpt>
      <trkpt lat="39.9235" lon="44.80328">
        <ele>1037.487093</ele>
        <time>2021-08-14T01:28:01.722Z</time>
      </trkpt>
      <trkpt lat="39.92329" lon="44.80289">
        <ele>1036.136931</ele>
        <time>2021-08-14T01:28:09.324Z</time>
      </trkpt>
      <trkpt lat="39.92284" lon="44.80208">
        <ele>1032.560482</ele>
        <time>2021-08-14T01:28:25.354Z</time>
      </trkpt>
      <trkpt lat="39.92263" lon="44.80161">
        <ele>1030.537893</ele>
        <time>2021-08-14T01:28:33.986Z</time>
      </trkpt>
      <trkpt lat="39.92258" lon="44.80134">
        <ele>1029.50322</ele>
        <time>2021-08-14T01:28:38.441Z</time>
      </trkpt>
      <trkpt lat="39.92256" lon="44.80102">
        <ele>1028.297157</ele>
        <time>2021-08-14T01:28:43.796Z</time>
      </trkpt>
      <trkpt lat="39.92252" lon="44.79997">
        <ele>1025.448952</ele>
        <time>2021-08-14T01:29:02.156Z</time>
      </trkpt>
      <trkpt lat="39.92247" lon="44.79641">
        <ele>1018.545613</ele>
        <time>2021-08-14T01:30:07.991Z</time>
      </trkpt>
      <trkpt lat="39.92247" lon="44.79618">
        <ele>1018.131007</ele>
        <time>2021-08-14T01:30:12.149Z</time>
      </trkpt>
      <trkpt lat="39.92238" lon="44.78987">
        <ele>1006.176723</ele>
        <time>2021-08-14T01:32:07.072Z</time>
      </trkpt>
      <trkpt lat="39.92234" lon="44.78621">
        <ele>1000.914509</ele>
        <time>2021-08-14T01:33:17.961Z</time>
      </trkpt>
      <trkpt lat="39.92222" lon="44.77844">
        <ele>989.853655</ele>
        <time>2021-08-14T01:35:45.747Z</time>
      </trkpt>
      <trkpt lat="39.92218" lon="44.77352">
        <ele>985.731498</ele>
        <time>2021-08-14T01:37:27.145Z</time>
      </trkpt>
      <trkpt lat="39.92214" lon="44.77101">
        <ele>985.467497</ele>
        <time>2021-08-14T01:38:27.895Z</time>
      </trkpt>
      <trkpt lat="39.9221" lon="44.76848">
        <ele>985.612539</ele>
        <time>2021-08-14T01:39:31.320Z</time>
      </trkpt>
      <trkpt lat="39.92209" lon="44.76756">
        <ele>985.487981</ele>
        <time>2021-08-14T01:39:52.371Z</time>
      </trkpt>
      <trkpt lat="39.92208" lon="44.76662">
        <ele>984.897436</ele>
        <time>2021-08-14T01:40:12.857Z</time>
      </trkpt>
      <trkpt lat="39.92204" lon="44.76414">
        <ele>982.556985</ele>
        <time>2021-08-14T01:41:03.677Z</time>
      </trkpt>
      <trkpt lat="39.92203" lon="44.7628">
        <ele>980.523786</ele>
        <time>2021-08-14T01:41:28.906Z</time>
      </trkpt>
      <trkpt lat="39.92196" lon="44.76216">
        <ele>978.872011</ele>
        <time>2021-08-14T01:41:40.529Z</time>
      </trkpt>
      <trkpt lat="39.92092" lon="44.75696">
        <ele>964.545287</ele>
        <time>2021-08-14T01:43:12.873Z</time>
      </trkpt>
      <trkpt lat="39.92084" lon="44.75654">
        <ele>963.274559</ele>
        <time>2021-08-14T01:43:20.225Z</time>
      </trkpt>
      <trkpt lat="39.92075" lon="44.75592">
        <ele>961.501994</ele>
        <time>2021-08-14T01:43:30.758Z</time>
      </trkpt>
      <trkpt lat="39.92068" lon="44.75533">
        <ele>959.903044</ele>
        <time>2021-08-14T01:43:40.971Z</time>
      </trkpt>
      <trkpt lat="39.92073" lon="44.7547">
        <ele>958.232469</ele>
        <time>2021-08-14T01:43:51.847Z</time>
      </trkpt>
      <trkpt lat="39.92073" lon="44.75459">
        <ele>957.933707</ele>
        <time>2021-08-14T01:43:53.643Z</time>
      </trkpt>
      <trkpt lat="39.92075" lon="44.75439">
        <ele>957.390194</ele>
        <time>2021-08-14T01:43:57.331Z</time>
      </trkpt>
      <trkpt lat="39.92081" lon="44.75316">
        <ele>954.459318</ele>
        <time>2021-08-14T01:44:19.394Z</time>
      </trkpt>
      <trkpt lat="39.92083" lon="44.75293">
        <ele>953.960508</ele>
        <time>2021-08-14T01:44:23.645Z</time>
      </trkpt>
      <trkpt lat="39.92099" lon="44.75137">
        <ele>950.597215</ele>
        <time>2021-08-14T01:44:51.705Z</time>
      </trkpt>
      <trkpt lat="39.92114" lon="44.7499">
        <ele>947.751984</ele>
        <time>2021-08-14T01:45:18.487Z</time>
      </trkpt>
      <trkpt lat="39.92097" lon="44.74902">
        <ele>946.261741</ele>
        <time>2021-08-14T01:45:35.559Z</time>
      </trkpt>
      <trkpt lat="39.9209" lon="44.74866">
        <ele>945.875083</ele>
        <time>2021-08-14T01:45:43.047Z</time>
      </trkpt>
      <trkpt lat="39.92081" lon="44.7482">
        <ele>945.397561</ele>
        <time>2021-08-14T01:45:52.484Z</time>
      </trkpt>
      <trkpt lat="39.92026" lon="44.74599">
        <ele>943.398345</ele>
        <time>2021-08-14T01:46:40.885Z</time>
      </trkpt>
      <trkpt lat="39.91948" lon="44.7446">
        <ele>942.633605</ele>
        <time>2021-08-14T01:47:16.745Z</time>
      </trkpt>
      <trkpt lat="39.91884" lon="44.74336">
        <ele>942.921221</ele>
        <time>2021-08-14T01:47:55.950Z</time>
      </trkpt>
      <trkpt lat="39.91877" lon="44.74314">
        <ele>942.966799</ele>
        <time>2021-08-14T01:48:03.155Z</time>
      </trkpt>
      <trkpt lat="39.91873" lon="44.7429">
        <ele>942.99733</ele>
        <time>2021-08-14T01:48:09.476Z</time>
      </trkpt>
      <trkpt lat="39.91873" lon="44.74241">
        <ele>943.012014</ele>
        <time>2021-08-14T01:48:22.803Z</time>
      </trkpt>
      <trkpt lat="39.91873" lon="44.74217">
        <ele>943.019265</ele>
        <time>2021-08-14T01:48:29.999Z</time>
      </trkpt>
      <trkpt lat="39.91873" lon="44.74188">
        <ele>943.028117</ele>
        <time>2021-08-14T01:48:37.108Z</time>
      </trkpt>
      <trkpt lat="39.91872" lon="44.74131">
        <ele>943.04531</ele>
        <time>2021-08-14T01:48:51.578Z</time>
      </trkpt>
      <trkpt lat="39.91872" lon="44.74023">
        <ele>942.10681</ele>
        <time>2021-08-14T01:49:14.187Z</time>
      </trkpt>
      <trkpt lat="39.91879" lon="44.73982">
        <ele>941.151968</ele>
        <time>2021-08-14T01:49:21.699Z</time>
      </trkpt>
      <trkpt lat="39.91881" lon="44.73968">
        <ele>940.842901</ele>
        <time>2021-08-14T01:49:24.118Z</time>
      </trkpt>
      <trkpt lat="39.91883" lon="44.73954">
        <ele>940.516243</ele>
        <time>2021-08-14T01:49:26.688Z</time>
      </trkpt>
      <trkpt lat="39.91874" lon="44.73954">
        <ele>940.266782</ele>
        <time>2021-08-14T01:49:28.677Z</time>
      </trkpt>
      <trkpt lat="39.91862" lon="44.73938">
        <ele>939.762626</ele>
        <time>2021-08-14T01:49:32.743Z</time>
      </trkpt>
      <trkpt lat="39.9181" lon="44.73859">
        <ele>937.283933</ele>
        <time>2021-08-14T01:49:51.353Z</time>
      </trkpt>
      <trkpt lat="39.9178" lon="44.73812">
        <ele>935.440882</ele>
        <time>2021-08-14T01:50:01.963Z</time>
      </trkpt>
      <trkpt lat="39.91735" lon="44.73743">
        <ele>932.720073</ele>
        <time>2021-08-14T01:50:17.755Z</time>
      </trkpt>
      <trkpt lat="39.91728" lon="44.73733">
        <ele>932.283764</ele>
        <time>2021-08-14T01:50:20.240Z</time>
      </trkpt>
      <trkpt lat="39.91665" lon="44.73642">
        <ele>929.259185</ele>
        <time>2021-08-14T01:50:42.826Z</time>
      </trkpt>
      <trkpt lat="39.91659" lon="44.73624">
        <ele>928.862262</ele>
        <time>2021-08-14T01:50:46.292Z</time>
      </trkpt>
      <trkpt lat="39.91661" lon="44.736">
        <ele>928.360255</ele>
        <time>2021-08-14T01:50:51.059Z</time>
      </trkpt>
      <trkpt lat="39.91668" lon="44.73415">
        <ele>924.909641</ele>
        <time>2021-08-14T01:51:27.321Z</time>
      </trkpt>
      <trkpt lat="39.91673" lon="44.73267">
        <ele>922.659422</ele>
        <time>2021-08-14T01:51:56.827Z</time>
      </trkpt>
      <trkpt lat="39.91672" lon="44.73236">
        <ele>922.2141</ele>
        <time>2021-08-14T01:52:02.931Z</time>
      </trkpt>
      <trkpt lat="39.91666" lon="44.73115">
        <ele>920.629199</ele>
        <time>2021-08-14T01:52:27.532Z</time>
      </trkpt>
      <trkpt lat="39.91684" lon="44.73064">
        <ele>919.898936</ele>
        <time>2021-08-14T01:52:39.013Z</time>
      </trkpt>
      <trkpt lat="39.91724" lon="44.72931">
        <ele>918.295638</ele>
        <time>2021-08-14T01:53:08.434Z</time>
      </trkpt>
      <trkpt lat="39.91739" lon="44.72899">
        <ele>917.902434</ele>
        <time>2021-08-14T01:53:16.525Z</time>
      </trkpt>
      <trkpt lat="39.91727" lon="44.72874">
        <ele>917.592008</ele>
        <time>2021-08-14T01:53:22.604Z</time>
      </trkpt>
      <trkpt lat="39.91708" lon="44.72838">
        <ele>917.141309</ele>
        <time>2021-08-14T01:53:31.424Z</time>
      </trkpt>
      <trkpt lat="39.91699" lon="44.7281">
        <ele>916.829834</ele>
        <time>2021-08-14T01:53:37.480Z</time>
      </trkpt>
      <trkpt lat="39.91677" lon="44.72711">
        <ele>915.645115</ele>
        <time>2021-08-14T01:53:57.999Z</time>
      </trkpt>
      <trkpt lat="39.91656" lon="44.72667">
        <ele>915.046218</ele>
        <time>2021-08-14T01:54:08.282Z</time>
      </trkpt>
      <trkpt lat="39.91645" lon="44.72649">
        <ele>914.783139</ele>
        <time>2021-08-14T01:54:12.707Z</time>
      </trkpt>
      <trkpt lat="39.91625" lon="44.72616">
        <ele>914.30166</ele>
        <time>2021-08-14T01:54:20.991Z</time>
      </trkpt>
      <trkpt lat="39.91606" lon="44.72572">
        <ele>913.674215</ele>
        <time>2021-08-14T01:54:30.840Z</time>
      </trkpt>
      <trkpt lat="39.91603" lon="44.72568">
        <ele>913.594395</ele>
        <time>2021-08-14T01:54:32.058Z</time>
      </trkpt>
      <trkpt lat="39.91613" lon="44.72557">
        <ele>913.369229</ele>
        <time>2021-08-14T01:54:35.646Z</time>
      </trkpt>
      <trkpt lat="39.91612" lon="44.72532">
        <ele>913.048251</ele>
        <time>2021-08-14T01:54:40.652Z</time>
      </trkpt>
      <trkpt lat="39.91619" lon="44.72397">
        <ele>911.315776</ele>
        <time>2021-08-14T01:55:07.900Z</time>
      </trkpt>
      <trkpt lat="39.91578" lon="44.72321">
        <ele>910.211351</ele>
        <time>2021-08-14T01:55:26.753Z</time>
      </trkpt>
      <trkpt lat="39.91546" lon="44.72276">
        <ele>909.479845</ele>
        <time>2021-08-14T01:55:39.712Z</time>
      </trkpt>
      <trkpt lat="39.91534" lon="44.72171">
        <ele>908.263963</ele>
        <time>2021-08-14T01:56:01.839Z</time>
      </trkpt>
      <trkpt lat="39.91521" lon="44.7214">
        <ele>907.924072</ele>
        <time>2021-08-14T01:56:09.248Z</time>
      </trkpt>
      <trkpt lat="39.91479" lon="44.72087">
        <ele>907.181108</ele>
        <time>2021-08-14T01:56:25.225Z</time>
      </trkpt>
      <trkpt lat="39.91471" lon="44.72044">
        <ele>906.745306</ele>
        <time>2021-08-14T01:56:34.643Z</time>
      </trkpt>
      <trkpt lat="39.91473" lon="44.71956">
        <ele>905.925206</ele>
        <time>2021-08-14T01:56:53.487Z</time>
      </trkpt>
      <trkpt lat="39.91484" lon="44.7189">
        <ele>905.370181</ele>
        <time>2021-08-14T01:57:07.921Z</time>
      </trkpt>
      <trkpt lat="39.91469" lon="44.71809">
        <ele>904.681502</ele>
        <time>2021-08-14T01:57:26.004Z</time>
      </trkpt>
      <trkpt lat="39.91458" lon="44.71759">
        <ele>904.252799</ele>
        <time>2021-08-14T01:57:37.161Z</time>
      </trkpt>
      <trkpt lat="39.91476" lon="44.71697">
        <ele>903.732869</ele>
        <time>2021-08-14T01:57:51.625Z</time>
      </trkpt>
      <trkpt lat="39.91475" lon="44.71619">
        <ele>903.135159</ele>
        <time>2021-08-14T01:58:08.768Z</time>
      </trkpt>
      <trkpt lat="39.91474" lon="44.71584">
        <ele>902.861312</ele>
        <time>2021-08-14T01:58:16.591Z</time>
      </trkpt>
      <trkpt lat="39.91467" lon="44.71449">
        <ele>901.733982</ele>
        <time>2021-08-14T01:58:45.481Z</time>
      </trkpt>
      <trkpt lat="39.91472" lon="44.71391">
        <ele>901.209671</ele>
        <time>2021-08-14T01:58:57.901Z</time>
      </trkpt>
      <trkpt lat="39.91473" lon="44.71359">
        <ele>900.928603</ele>
        <time>2021-08-14T01:59:04.545Z</time>
      </trkpt>
      <trkpt lat="39.9146" lon="44.7129">
        <ele>900.287656</ele>
        <time>2021-08-14T01:59:19.838Z</time>
      </trkpt>
      <trkpt lat="39.91413" lon="44.71184">
        <ele>899.306693</ele>
        <time>2021-08-14T01:59:46.092Z</time>
      </trkpt>
      <trkpt lat="39.91411" lon="44.71178">
        <ele>899.252248</ele>
        <time>2021-08-14T01:59:47.552Z</time>
      </trkpt>
      <trkpt lat="39.91305" lon="44.70942">
        <ele>897.19963</ele>
        <time>2021-08-14T02:00:47.627Z</time>
      </trkpt>
      <trkpt lat="39.91191" lon="44.70717">
        <ele>895.017692</ele>
        <time>2021-08-14T02:01:45.531Z</time>
      </trkpt>
      <trkpt lat="39.91076" lon="44.70505">
        <ele>892.822241</ele>
        <time>2021-08-14T02:02:41.521Z</time>
      </trkpt>
      <trkpt lat="39.91058" lon="44.70488">
        <ele>892.551971</ele>
        <time>2021-08-14T02:02:47.508Z</time>
      </trkpt>
      <trkpt lat="39.91035" lon="44.70501">
        <ele>892.236561</ele>
        <time>2021-08-14T02:02:54.364Z</time>
      </trkpt>
      <trkpt lat="39.91018" lon="44.70508">
        <ele>892.014949</ele>
        <time>2021-08-14T02:02:58.984Z</time>
      </trkpt>
      <trkpt lat="39.90962" lon="44.70533">
        <ele>891.259755</ele>
        <time>2021-08-14T02:03:15.117Z</time>
      </trkpt>
      <trkpt lat="39.90959" lon="44.70535">
        <ele>891.20852</ele>
        <time>2021-08-14T02:03:16.160Z</time>
      </trkpt>
      <trkpt lat="39.90908" lon="44.70554">
        <ele>890.540885</ele>
        <time>2021-08-14T02:03:30.552Z</time>
      </trkpt>
      <trkpt lat="39.90882" lon="44.70563">
        <ele>890.257452</ele>
        <time>2021-08-14T02:03:38.111Z</time>
      </trkpt>
      <trkpt lat="39.90869" lon="44.70502">
        <ele>889.775337</ele>
        <time>2021-08-14T02:03:51.305Z</time>
      </trkpt>
      <trkpt lat="39.90846" lon="44.70428">
        <ele>889.171473</ele>
        <time>2021-08-14T02:04:07.774Z</time>
      </trkpt>
      <trkpt lat="39.90822" lon="44.70362">
        <ele>888.612362</ele>
        <time>2021-08-14T02:04:23.383Z</time>
      </trkpt>
      <trkpt lat="39.90794" lon="44.70287">
        <ele>887.937161</ele>
        <time>2021-08-14T02:04:40.973Z</time>
      </trkpt>
      <trkpt lat="39.9079" lon="44.70278">
        <ele>887.853134</ele>
        <time>2021-08-14T02:04:43.141Z</time>
      </trkpt>
      <trkpt lat="39.90784" lon="44.7026">
        <ele>887.693514</ele>
        <time>2021-08-14T02:04:47.168Z</time>
      </trkpt>
      <trkpt lat="39.90781" lon="44.70252">
        <ele>887.620271</ele>
        <time>2021-08-14T02:04:49.069Z</time>
      </trkpt>
      <trkpt lat="39.90778" lon="44.70242">
        <ele>887.529633</ele>
        <time>2021-08-14T02:04:51.426Z</time>
      </trkpt>
      <trkpt lat="39.90721" lon="44.70085">
        <ele>885.80776</ele>
        <time>2021-08-14T02:05:26.140Z</time>
      </trkpt>
      <trkpt lat="39.90702" lon="44.70033">
        <ele>885.111234</ele>
        <time>2021-08-14T02:05:37.289Z</time>
      </trkpt>
      <trkpt lat="39.90679" lon="44.6997">
        <ele>884.267113</ele>
        <time>2021-08-14T02:05:50.902Z</time>
      </trkpt>
      <trkpt lat="39.9067" lon="44.69942">
        <ele>883.907677</ele>
        <time>2021-08-14T02:05:56.703Z</time>
      </trkpt>
      <trkpt lat="39.90629" lon="44.69828">
        <ele>882.595911</ele>
        <time>2021-08-14T02:06:21.711Z</time>
      </trkpt>
      <trkpt lat="39.90592" lon="44.6973">
        <ele>881.474892</ele>
        <time>2021-08-14T02:06:43.680Z</time>
      </trkpt>
      <trkpt lat="39.90564" lon="44.6965">
        <ele>880.861459</ele>
        <time>2021-08-14T02:07:02.162Z</time>
      </trkpt>
      <trkpt lat="39.90517" lon="44.69526">
        <ele>879.892087</ele>
        <time>2021-08-14T02:07:31.846Z</time>
      </trkpt>
      <trkpt lat="39.90479" lon="44.6942">
        <ele>878.763012</ele>
        <time>2021-08-14T02:07:55.633Z</time>
      </trkpt>
      <trkpt lat="39.90467" lon="44.69386">
        <ele>878.399767</ele>
        <time>2021-08-14T02:08:03.066Z</time>
      </trkpt>
      <trkpt lat="39.90463" lon="44.69373">
        <ele>878.267918</ele>
        <time>2021-08-14T02:08:05.787Z</time>
      </trkpt>
      <trkpt lat="39.90439" lon="44.69308">
        <ele>877.567882</ele>
        <time>2021-08-14T02:08:20.017Z</time>
      </trkpt>
      <trkpt lat="39.90394" lon="44.69188">
        <ele>876.343024</ele>
        <time>2021-08-14T02:08:46.786Z</time>
      </trkpt>
      <trkpt lat="39.90295" lon="44.68921">
        <ele>874.104266</ele>
        <time>2021-08-14T02:09:48.476Z</time>
      </trkpt>
      <trkpt lat="39.90278" lon="44.68875">
        <ele>873.83703</ele>
        <time>2021-08-14T02:09:59.861Z</time>
      </trkpt>
      <trkpt lat="39.90271" lon="44.68858">
        <ele>873.808726</ele>
        <time>2021-08-14T02:10:04.149Z</time>
      </trkpt>
      <trkpt lat="39.90242" lon="44.68776">
        <ele>873.676768</ele>
        <time>2021-08-14T02:10:25.623Z</time>
      </trkpt>
      <trkpt lat="39.90194" lon="44.68635">
        <ele>873.399362</ele>
        <time>2021-08-14T02:11:01.909Z</time>
      </trkpt>
      <trkpt lat="39.90144" lon="44.68492">
        <ele>872.989054</ele>
        <time>2021-08-14T02:11:37.902Z</time>
      </trkpt>
      <trkpt lat="39.90129" lon="44.68452">
        <ele>872.833643</ele>
        <time>2021-08-14T02:11:47.301Z</time>
      </trkpt>
      <trkpt lat="39.90091" lon="44.68344">
        <ele>872.100179</ele>
        <time>2021-08-14T02:12:12.063Z</time>
      </trkpt>
      <trkpt lat="39.9016" lon="44.68282">
        <ele>871.423008</ele>
        <time>2021-08-14T02:12:35.487Z</time>
      </trkpt>
      <trkpt lat="39.90249" lon="44.68044">
        <ele>870.036358</ele>
        <time>2021-08-14T02:13:32.098Z</time>
      </trkpt>
      <trkpt lat="39.90252" lon="44.68034">
        <ele>870.002286</ele>
        <time>2021-08-14T02:13:34.370Z</time>
      </trkpt>
      <trkpt lat="39.90383" lon="44.67668">
        <ele>868.66348</ele>
        <time>2021-08-14T02:15:05.759Z</time>
      </trkpt>
      <trkpt lat="39.9045" lon="44.67487">
        <ele>867.634513</ele>
        <time>2021-08-14T02:15:48.173Z</time>
      </trkpt>
      <trkpt lat="39.90457" lon="44.67466">
        <ele>867.515285</ele>
        <time>2021-08-14T02:15:52.931Z</time>
      </trkpt>
      <trkpt lat="39.90503" lon="44.67347">
        <ele>867.43937</ele>
        <time>2021-08-14T02:16:23.972Z</time>
      </trkpt>
      <trkpt lat="39.90567" lon="44.67169">
        <ele>867.518499</ele>
        <time>2021-08-14T02:17:14.629Z</time>
      </trkpt>
      <trkpt lat="39.90513" lon="44.6707">
        <ele>867.466296</ele>
        <time>2021-08-14T02:17:44.731Z</time>
      </trkpt>
      <trkpt lat="39.90371" lon="44.66802">
        <ele>865.744144</ele>
        <time>2021-08-14T02:18:57.352Z</time>
      </trkpt>
      <trkpt lat="39.90264" lon="44.66603">
        <ele>864.064127</ele>
        <time>2021-08-14T02:19:50.150Z</time>
      </trkpt>
      <trkpt lat="39.90256" lon="44.66584">
        <ele>863.922466</ele>
        <time>2021-08-14T02:19:58.196Z</time>
      </trkpt>
      <trkpt lat="39.90221" lon="44.6653">
        <ele>863.464525</ele>
        <time>2021-08-14T02:20:13.821Z</time>
      </trkpt>
      <trkpt lat="39.90321" lon="44.66392">
        <ele>862.249362</ele>
        <time>2021-08-14T02:20:56.169Z</time>
      </trkpt>
      <trkpt lat="39.90296" lon="44.66339">
        <ele>861.852462</ele>
        <time>2021-08-14T02:21:09.413Z</time>
      </trkpt>
      <trkpt lat="39.90284" lon="44.66311">
        <ele>861.649988</ele>
        <time>2021-08-14T02:21:16.153Z</time>
      </trkpt>
      <trkpt lat="39.90204" lon="44.66117">
        <ele>860.030705</ele>
        <time>2021-08-14T02:22:01.999Z</time>
      </trkpt>
      <trkpt lat="39.90122" lon="44.65925">
        <ele>858.130931</ele>
        <time>2021-08-14T02:22:47.003Z</time>
      </trkpt>
      <trkpt lat="39.90078" lon="44.6582">
        <ele>857.087017</ele>
        <time>2021-08-14T02:23:11.286Z</time>
      </trkpt>
      <trkpt lat="39.90066" lon="44.65793">
        <ele>856.83221</ele>
        <time>2021-08-14T02:23:17.417Z</time>
      </trkpt>
      <trkpt lat="39.90004" lon="44.65652">
        <ele>855.532367</ele>
        <time>2021-08-14T02:23:50.936Z</time>
      </trkpt>
      <trkpt lat="39.89983" lon="44.65602">
        <ele>855.346195</ele>
        <time>2021-08-14T02:24:03.430Z</time>
      </trkpt>
      <trkpt lat="39.89941" lon="44.65441">
        <ele>854.793639</ele>
        <time>2021-08-14T02:24:42.439Z</time>
      </trkpt>
      <trkpt lat="39.89857" lon="44.65209">
        <ele>854.101681</ele>
        <time>2021-08-14T02:25:41.176Z</time>
      </trkpt>
      <trkpt lat="39.89832" lon="44.65147">
        <ele>853.591733</ele>
        <time>2021-08-14T02:25:56.306Z</time>
      </trkpt>
      <trkpt lat="39.89816" lon="44.65106">
        <ele>853.259566</ele>
        <time>2021-08-14T02:26:05.792Z</time>
      </trkpt>
      <trkpt lat="39.89772" lon="44.65015">
        <ele>852.488385</ele>
        <time>2021-08-14T02:26:27.233Z</time>
      </trkpt>
      <trkpt lat="39.89739" lon="44.64945">
        <ele>851.929854</ele>
        <time>2021-08-14T02:26:44.299Z</time>
      </trkpt>
      <trkpt lat="39.89726" lon="44.64886">
        <ele>851.516825</ele>
        <time>2021-08-14T02:26:57.295Z</time>
      </trkpt>
      <trkpt lat="39.89696" lon="44.6466">
        <ele>849.911162</ele>
        <time>2021-08-14T02:27:46.721Z</time>
      </trkpt>
      <trkpt lat="39.89681" lon="44.64563">
        <ele>849.129809</ele>
        <time>2021-08-14T02:28:06.919Z</time>
      </trkpt>
      <trkpt lat="39.89672" lon="44.64536">
        <ele>848.800457</ele>
        <time>2021-08-14T02:28:12.728Z</time>
      </trkpt>
      <trkpt lat="39.89667" lon="44.64515">
        <ele>848.550233</ele>
        <time>2021-08-14T02:28:16.857Z</time>
      </trkpt>
      <trkpt lat="39.89661" lon="44.64493">
        <ele>848.282194</ele>
        <time>2021-08-14T02:28:21.485Z</time>
      </trkpt>
      <trkpt lat="39.89582" lon="44.64225">
        <ele>845.429785</ele>
        <time>2021-08-14T02:29:18.134Z</time>
      </trkpt>
      <trkpt lat="39.89563" lon="44.64157">
        <ele>844.816993</ele>
        <time>2021-08-14T02:29:34.016Z</time>
      </trkpt>
      <trkpt lat="39.89659" lon="44.64042">
        <ele>844.342927</ele>
        <time>2021-08-14T02:30:13.859Z</time>
      </trkpt>
      <trkpt lat="39.89719" lon="44.63966">
        <ele>844.156169</ele>
        <time>2021-08-14T02:30:41.414Z</time>
      </trkpt>
      <trkpt lat="39.89633" lon="44.63845">
        <ele>844.062154</ele>
        <time>2021-08-14T02:31:22.226Z</time>
      </trkpt>
      <trkpt lat="39.89778" lon="44.63653">
        <ele>843.380831</ele>
        <time>2021-08-14T02:32:25.744Z</time>
      </trkpt>
      <trkpt lat="39.89886" lon="44.63512">
        <ele>842.712348</ele>
        <time>2021-08-14T02:33:11.473Z</time>
      </trkpt>
      <trkpt lat="39.89942" lon="44.63417">
        <ele>842.423606</ele>
        <time>2021-08-14T02:33:39.589Z</time>
      </trkpt>
      <trkpt lat="39.90123" lon="44.63128">
        <ele>842.066192</ele>
        <time>2021-08-14T02:35:10.465Z</time>
      </trkpt>
      <trkpt lat="39.90136" lon="44.63136">
        <ele>842.060543</ele>
        <time>2021-08-14T02:35:15.476Z</time>
      </trkpt>
      <trkpt lat="39.90151" lon="44.63101">
        <ele>842.135441</ele>
        <time>2021-08-14T02:35:26.511Z</time>
      </trkpt>
      <trkpt lat="39.9018" lon="44.63061">
        <ele>842.236559</ele>
        <time>2021-08-14T02:35:41.003Z</time>
      </trkpt>
      <trkpt lat="39.90187" lon="44.63041">
        <ele>842.277925</ele>
        <time>2021-08-14T02:35:46.529Z</time>
      </trkpt>
      <trkpt lat="39.90188" lon="44.63004">
        <ele>842.347994</ele>
        <time>2021-08-14T02:35:56.301Z</time>
      </trkpt>
      <trkpt lat="39.90205" lon="44.62932">
        <ele>842.489067</ele>
        <time>2021-08-14T02:36:16.045Z</time>
      </trkpt>
      <trkpt lat="39.90229" lon="44.62894">
        <ele>842.489973</ele>
        <time>2021-08-14T02:36:28.043Z</time>
      </trkpt>
      <trkpt lat="39.90236" lon="44.62882">
        <ele>842.487057</ele>
        <time>2021-08-14T02:36:31.665Z</time>
      </trkpt>
      <trkpt lat="39.90239" lon="44.6287">
        <ele>842.484621</ele>
        <time>2021-08-14T02:36:34.804Z</time>
      </trkpt>
      <trkpt lat="39.90228" lon="44.62835">
        <ele>842.477423</ele>
        <time>2021-08-14T02:36:44.669Z</time>
      </trkpt>
      <trkpt lat="39.90198" lon="44.62788">
        <ele>842.4658</ele>
        <time>2021-08-14T02:36:59.811Z</time>
      </trkpt>
      <trkpt lat="39.90176" lon="44.62759">
        <ele>842.457993</ele>
        <time>2021-08-14T02:37:09.670Z</time>
      </trkpt>
      <trkpt lat="39.90217" lon="44.62693">
        <ele>842.194659</ele>
        <time>2021-08-14T02:37:29.383Z</time>
      </trkpt>
      <trkpt lat="39.90438" lon="44.62355">
        <ele>839.948322</ele>
        <time>2021-08-14T02:39:04.670Z</time>
      </trkpt>
      <trkpt lat="39.9047" lon="44.62303">
        <ele>839.505793</ele>
        <time>2021-08-14T02:39:19.061Z</time>
      </trkpt>
      <trkpt lat="39.90572" lon="44.62128">
        <ele>837.894942</ele>
        <time>2021-08-14T02:40:04.851Z</time>
      </trkpt>
      <trkpt lat="39.90609" lon="44.62064">
        <ele>837.218722</ele>
        <time>2021-08-14T02:40:21.026Z</time>
      </trkpt>
      <trkpt lat="39.90652" lon="44.62004">
        <ele>836.530589</ele>
        <time>2021-08-14T02:40:37.676Z</time>
      </trkpt>
      <trkpt lat="39.90713" lon="44.61918">
        <ele>835.615155</ele>
        <time>2021-08-14T02:41:01.263Z</time>
      </trkpt>
      <trkpt lat="39.9095" lon="44.61612">
        <ele>832.942456</ele>
        <time>2021-08-14T02:42:34.187Z</time>
      </trkpt>
      <trkpt lat="39.91079" lon="44.6147">
        <ele>831.693566</ele>
        <time>2021-08-14T02:43:22.131Z</time>
      </trkpt>
      <trkpt lat="39.91166" lon="44.61365">
        <ele>830.732125</ele>
        <time>2021-08-14T02:43:54.458Z</time>
      </trkpt>
      <trkpt lat="39.91186" lon="44.6134">
        <ele>830.485068</ele>
        <time>2021-08-14T02:44:01.991Z</time>
      </trkpt>
      <trkpt lat="39.91314" lon="44.61187">
        <ele>829.104673</ele>
        <time>2021-08-14T02:44:49.529Z</time>
      </trkpt>
      <trkpt lat="39.9143" lon="44.61043">
        <ele>828.577206</ele>
        <time>2021-08-14T02:45:37.536Z</time>
      </trkpt>
      <trkpt lat="39.91648" lon="44.60737">
        <ele>828.758288</ele>
        <time>2021-08-14T02:47:17.758Z</time>
      </trkpt>
      <trkpt lat="39.91684" lon="44.60686">
        <ele>828.829396</ele>
        <time>2021-08-14T02:47:35.070Z</time>
      </trkpt>
      <trkpt lat="39.91708" lon="44.60654">
        <ele>828.892726</ele>
        <time>2021-08-14T02:47:46.273Z</time>
      </trkpt>
      <trkpt lat="39.91722" lon="44.60634">
        <ele>828.931702</ele>
        <time>2021-08-14T02:47:53.394Z</time>
      </trkpt>
      <trkpt lat="39.91955" lon="44.60323">
        <ele>829.355631</ele>
        <time>2021-08-14T02:49:39.839Z</time>
      </trkpt>
      <trkpt lat="39.92071" lon="44.60157">
        <ele>829.46829</ele>
        <time>2021-08-14T02:50:33.372Z</time>
      </trkpt>
      <trkpt lat="39.92079" lon="44.60146">
        <ele>829.485615</ele>
        <time>2021-08-14T02:50:37.009Z</time>
      </trkpt>
      <trkpt lat="39.92174" lon="44.60019">
        <ele>829.689085</ele>
        <time>2021-08-14T02:51:20.738Z</time>
      </trkpt>
      <trkpt lat="39.92292" lon="44.5986">
        <ele>830.006804</ele>
        <time>2021-08-14T02:52:15.815Z</time>
      </trkpt>
      <trkpt lat="39.92359" lon="44.59769">
        <ele>830.234941</ele>
        <time>2021-08-14T02:52:46.925Z</time>
      </trkpt>
      <trkpt lat="39.92408" lon="44.59699">
        <ele>830.405381</ele>
        <time>2021-08-14T02:53:10.675Z</time>
      </trkpt>
      <trkpt lat="39.92482" lon="44.59597">
        <ele>830.694361</ele>
        <time>2021-08-14T02:53:45.771Z</time>
      </trkpt>
      <trkpt lat="39.92498" lon="44.59575">
        <ele>830.757415</ele>
        <time>2021-08-14T02:53:53.230Z</time>
      </trkpt>
      <trkpt lat="39.92554" lon="44.59496">
        <ele>830.980748</ele>
        <time>2021-08-14T02:54:20.247Z</time>
      </trkpt>
      <trkpt lat="39.92561" lon="44.59485">
        <ele>831.011232</ele>
        <time>2021-08-14T02:54:24.002Z</time>
      </trkpt>
      <trkpt lat="39.9259" lon="44.59444">
        <ele>831.125148</ele>
        <time>2021-08-14T02:54:38.046Z</time>
      </trkpt>
      <trkpt lat="39.92594" lon="44.59436">
        <ele>831.145776</ele>
        <time>2021-08-14T02:54:40.627Z</time>
      </trkpt>
      <trkpt lat="39.92608" lon="44.59409">
        <ele>831.210776</ele>
        <time>2021-08-14T02:54:48.636Z</time>
      </trkpt>
      <trkpt lat="39.92629" lon="44.59366">
        <ele>831.316712</ele>
        <time>2021-08-14T02:55:01.537Z</time>
      </trkpt>
      <trkpt lat="39.92667" lon="44.59296">
        <ele>831.358617</ele>
        <time>2021-08-14T02:55:22.558Z</time>
      </trkpt>
      <trkpt lat="39.92745" lon="44.59151">
        <ele>831.158127</ele>
        <time>2021-08-14T02:56:03.357Z</time>
      </trkpt>
      <trkpt lat="39.92813" lon="44.59024">
        <ele>830.768366</ele>
        <time>2021-08-14T02:56:38.341Z</time>
      </trkpt>
      <trkpt lat="39.92823" lon="44.59007">
        <ele>830.711371</ele>
        <time>2021-08-14T02:56:43.182Z</time>
      </trkpt>
      <trkpt lat="39.92823" lon="44.59007">
        <ele>830.711371</ele>
        <time>2021-08-14T02:56:43.229Z</time>
      </trkpt>
      <trkpt lat="39.9323" lon="44.58205">
        <ele>828.176472</ele>
        <time>2021-08-14T03:00:20.522Z</time>
      </trkpt>
      <trkpt lat="39.93236" lon="44.58192">
        <ele>828.134857</ele>
        <time>2021-08-14T03:00:23.854Z</time>
      </trkpt>
      <trkpt lat="39.93241" lon="44.58183">
        <ele>828.106452</ele>
        <time>2021-08-14T03:00:26.094Z</time>
      </trkpt>
      <trkpt lat="39.93305" lon="44.58063">
        <ele>828.312819</ele>
        <time>2021-08-14T03:00:59.247Z</time>
      </trkpt>
      <trkpt lat="39.93455" lon="44.58214">
        <ele>829.804071</ele>
        <time>2021-08-14T03:02:11.527Z</time>
      </trkpt>
      <trkpt lat="39.93496" lon="44.58151">
        <ele>830.56697</ele>
        <time>2021-08-14T03:02:38.052Z</time>
      </trkpt>
      <trkpt lat="39.93527" lon="44.58093">
        <ele>830.911503</ele>
        <time>2021-08-14T03:02:59.952Z</time>
      </trkpt>
      <trkpt lat="39.93736" lon="44.58299">
        <ele>831.920908</ele>
        <time>2021-08-14T03:04:26.349Z</time>
      </trkpt>
      <trkpt lat="39.93771" lon="44.5822">
        <ele>832.173452</ele>
        <time>2021-08-14T03:04:51.078Z</time>
      </trkpt>
      <trkpt lat="39.93784" lon="44.58195">
        <ele>832.329587</ele>
        <time>2021-08-14T03:04:59.721Z</time>
      </trkpt>
      <trkpt lat="39.93795" lon="44.5819">
        <ele>832.412529</ele>
        <time>2021-08-14T03:05:04.104Z</time>
      </trkpt>
      <trkpt lat="39.93852" lon="44.58189">
        <ele>832.79166</ele>
        <time>2021-08-14T03:05:25.154Z</time>
      </trkpt>
      <trkpt lat="39.93869" lon="44.58155">
        <ele>833.005561</ele>
        <time>2021-08-14T03:05:36.959Z</time>
      </trkpt>
      <trkpt lat="39.93957" lon="44.58002">
        <ele>833.54763</ele>
        <time>2021-08-14T03:06:28.338Z</time>
      </trkpt>
      <trkpt lat="39.94047" lon="44.57853">
        <ele>833.707789</ele>
        <time>2021-08-14T03:07:14.616Z</time>
      </trkpt>
      <trkpt lat="39.9405" lon="44.57846">
        <ele>833.705254</ele>
        <time>2021-08-14T03:07:16.501Z</time>
      </trkpt>
      <trkpt lat="39.94143" lon="44.57691">
        <ele>833.651835</ele>
        <time>2021-08-14T03:08:06.190Z</time>
      </trkpt>
      <trkpt lat="39.94236" lon="44.57536">
        <ele>833.654764</ele>
        <time>2021-08-14T03:08:54.454Z</time>
      </trkpt>
      <trkpt lat="39.94285" lon="44.57457">
        <ele>833.812147</ele>
        <time>2021-08-14T03:09:19.823Z</time>
      </trkpt>
      <trkpt lat="39.94338" lon="44.57372">
        <ele>833.979926</ele>
        <time>2021-08-14T03:09:48.309Z</time>
      </trkpt>
      <trkpt lat="39.94386" lon="44.57419">
        <ele>834.559737</ele>
        <time>2021-08-14T03:10:09.109Z</time>
      </trkpt>
      <trkpt lat="39.94415" lon="44.5744">
        <ele>834.890249</ele>
        <time>2021-08-14T03:10:21.721Z</time>
      </trkpt>
      <trkpt lat="39.94434" lon="44.57454">
        <ele>835.104722</ele>
        <time>2021-08-14T03:10:30.172Z</time>
      </trkpt>
      <trkpt lat="39.94707" lon="44.57641">
        <ele>838.838902</ele>
        <time>2021-08-14T03:12:28.390Z</time>
      </trkpt>
      <trkpt lat="39.94722" lon="44.57652">
        <ele>839.048671</ele>
        <time>2021-08-14T03:12:34.941Z</time>
      </trkpt>
      <trkpt lat="39.94984" lon="44.57829">
        <ele>842.618923</ele>
        <time>2021-08-14T03:14:25.806Z</time>
      </trkpt>
      <trkpt lat="39.95019" lon="44.57865">
        <ele>843.278474</ele>
        <time>2021-08-14T03:14:43.120Z</time>
      </trkpt>
      <trkpt lat="39.95028" lon="44.57874">
        <ele>843.460725</ele>
        <time>2021-08-14T03:14:48.127Z</time>
      </trkpt>
      <trkpt lat="39.95341" lon="44.5846">
        <ele>851.744673</ele>
        <time>2021-08-14T03:18:25.329Z</time>
      </trkpt>
      <trkpt lat="39.95365" lon="44.58524">
        <ele>852.601187</ele>
        <time>2021-08-14T03:18:47.186Z</time>
      </trkpt>
      <trkpt lat="39.9537" lon="44.58577">
        <ele>853.246122</ele>
        <time>2021-08-14T03:19:03.732Z</time>
      </trkpt>
      <trkpt lat="39.95573" lon="44.5854">
        <ele>856.555873</ele>
        <time>2021-08-14T03:20:29.281Z</time>
      </trkpt>
      <trkpt lat="39.95616" lon="44.58627">
        <ele>857.647619</ele>
        <time>2021-08-14T03:21:00.303Z</time>
      </trkpt>
      <trkpt lat="39.95624" lon="44.58674">
        <ele>858.149931</ele>
        <time>2021-08-14T03:21:14.685Z</time>
      </trkpt>
      <trkpt lat="39.95645" lon="44.58799">
        <ele>859.785273</ele>
        <time>2021-08-14T03:21:54.818Z</time>
      </trkpt>
      <trkpt lat="39.95683" lon="44.59021">
        <ele>863.09936</ele>
        <time>2021-08-14T03:23:11.911Z</time>
      </trkpt>
      <trkpt lat="39.95701" lon="44.59146">
        <ele>864.978213</ele>
        <time>2021-08-14T03:23:55.505Z</time>
      </trkpt>
      <trkpt lat="39.95776" lon="44.59127">
        <ele>865.912731</ele>
        <time>2021-08-14T03:24:25.003Z</time>
      </trkpt>
      <trkpt lat="39.95847" lon="44.59116">
        <ele>866.404478</ele>
        <time>2021-08-14T03:24:49.721Z</time>
      </trkpt>
      <trkpt lat="39.95972" lon="44.59091">
        <ele>867.071436</ele>
        <time>2021-08-14T03:25:30.302Z</time>
      </trkpt>
      <trkpt lat="39.96711" lon="44.58936">
        <ele>869.82652</ele>
        <time>2021-08-14T03:29:38.707Z</time>
      </trkpt>
      <trkpt lat="39.97924" lon="44.58673">
        <ele>874.800934</ele>
        <time>2021-08-14T03:36:29.458Z</time>
      </trkpt>
      <trkpt lat="39.98871" lon="44.58502">
        <ele>878.865014</ele>
        <time>2021-08-14T03:41:48.495Z</time>
      </trkpt>
      <trkpt lat="39.99231" lon="44.58441">
        <ele>881.398589</ele>
        <time>2021-08-14T03:43:57.643Z</time>
      </trkpt>
      <trkpt lat="39.99216" lon="44.58399">
        <ele>881.619483</ele>
        <time>2021-08-14T03:44:09.314Z</time>
      </trkpt>
      <trkpt lat="39.99221" lon="44.58401">
        <ele>881.650586</ele>
        <time>2021-08-14T03:44:11.346Z</time>
      </trkpt>
      <trkpt lat="39.993" lon="44.58401">
        <ele>881.609634</ele>
        <time>2021-08-14T03:44:36.201Z</time>
      </trkpt>
      <trkpt lat="39.99596" lon="44.58221">
        <ele>880.273722</ele>
        <time>2021-08-14T03:46:14.029Z</time>
      </trkpt>
      <trkpt lat="39.99679" lon="44.58172">
        <ele>879.979844</ele>
        <time>2021-08-14T03:46:41.859Z</time>
      </trkpt>
      <trkpt lat="39.99716" lon="44.5815">
        <ele>879.849883</ele>
        <time>2021-08-14T03:46:54.329Z</time>
      </trkpt>
      <trkpt lat="39.9988" lon="44.58058">
        <ele>879.910086</ele>
        <time>2021-08-14T03:47:52.399Z</time>
      </trkpt>
      <trkpt lat="39.99888" lon="44.58057">
        <ele>879.916579</ele>
        <time>2021-08-14T03:47:54.686Z</time>
      </trkpt>
      <trkpt lat="39.99898" lon="44.58056">
        <ele>879.925232</ele>
        <time>2021-08-14T03:47:58.425Z</time>
      </trkpt>
      <trkpt lat="39.99913" lon="44.58062">
        <ele>880.017054</ele>
        <time>2021-08-14T03:48:03.723Z</time>
      </trkpt>
      <trkpt lat="39.99957" lon="44.58098">
        <ele>880.438261</ele>
        <time>2021-08-14T03:48:21.127Z</time>
      </trkpt>
      <trkpt lat="39.99972" lon="44.58112">
        <ele>880.590515</ele>
        <time>2021-08-14T03:48:28.138Z</time>
      </trkpt>
      <trkpt lat="40.00004" lon="44.58064">
        <ele>880.990313</ele>
        <time>2021-08-14T03:48:45.768Z</time>
      </trkpt>
      <trkpt lat="40.00013" lon="44.58044">
        <ele>881.138907</ele>
        <time>2021-08-14T03:48:53.073Z</time>
      </trkpt>
      <trkpt lat="40.00051" lon="44.57912">
        <ele>881.836253</ele>
        <time>2021-08-14T03:49:33.114Z</time>
      </trkpt>
      <trkpt lat="40.0007" lon="44.57922">
        <ele>881.954257</ele>
        <time>2021-08-14T03:49:40.108Z</time>
      </trkpt>
      <trkpt lat="40.00095" lon="44.57917">
        <ele>882.097375</ele>
        <time>2021-08-14T03:49:48.526Z</time>
      </trkpt>
      <trkpt lat="40.00174" lon="44.57887">
        <ele>882.452246</ele>
        <time>2021-08-14T03:50:14.348Z</time>
      </trkpt>
      <trkpt lat="40.00189" lon="44.57878">
        <ele>882.465574</ele>
        <time>2021-08-14T03:50:19.552Z</time>
      </trkpt>
      <trkpt lat="40.00198" lon="44.57871">
        <ele>882.474367</ele>
        <time>2021-08-14T03:50:22.579Z</time>
      </trkpt>
      <trkpt lat="40.00215" lon="44.57854">
        <ele>882.492188</ele>
        <time>2021-08-14T03:50:29.187Z</time>
      </trkpt>
      <trkpt lat="40.00248" lon="44.57811">
        <ele>882.530436</ele>
        <time>2021-08-14T03:50:43.625Z</time>
      </trkpt>
      <trkpt lat="40.00264" lon="44.57789">
        <ele>882.549557</ele>
        <time>2021-08-14T03:50:50.669Z</time>
      </trkpt>
      <trkpt lat="40.00283" lon="44.57768">
        <ele>882.569728</ele>
        <time>2021-08-14T03:50:58.799Z</time>
      </trkpt>
      <trkpt lat="40.00288" lon="44.57762">
        <ele>882.575959</ele>
        <time>2021-08-14T03:51:00.962Z</time>
      </trkpt>
      <trkpt lat="40.00297" lon="44.57751">
        <ele>882.623091</ele>
        <time>2021-08-14T03:51:05.066Z</time>
      </trkpt>
      <trkpt lat="40.00311" lon="44.57729">
        <ele>882.792871</ele>
        <time>2021-08-14T03:51:12.115Z</time>
      </trkpt>
      <trkpt lat="40.00325" lon="44.57683">
        <ele>883.083041</ele>
        <time>2021-08-14T03:51:25.726Z</time>
      </trkpt>
      <trkpt lat="40.00323" lon="44.57667">
        <ele>883.17475</ele>
        <time>2021-08-14T03:51:30.571Z</time>
      </trkpt>
      <trkpt lat="40.00323" lon="44.57667">
        <ele>883.17475</ele>
        <time>2021-08-14T03:51:30.639Z</time>
      </trkpt>
      <trkpt lat="40.00322" lon="44.57658">
        <ele>883.229287</ele>
        <time>2021-08-14T03:51:33.423Z</time>
      </trkpt>
      <trkpt lat="40.00315" lon="44.57587">
        <ele>883.647399</ele>
        <time>2021-08-14T03:51:52.878Z</time>
      </trkpt>
      <trkpt lat="40.00318" lon="44.57567">
        <ele>883.769517</ele>
        <time>2021-08-14T03:51:59.522Z</time>
      </trkpt>
      <trkpt lat="40.00328" lon="44.57548">
        <ele>883.899815</ele>
        <time>2021-08-14T03:52:05.090Z</time>
      </trkpt>
      <trkpt lat="40.00342" lon="44.57532">
        <ele>883.947892</ele>
        <time>2021-08-14T03:52:12.242Z</time>
      </trkpt>
      <trkpt lat="40.00355" lon="44.57518">
        <ele>883.935309</ele>
        <time>2021-08-14T03:52:17.608Z</time>
      </trkpt>
      <trkpt lat="40.00363" lon="44.57512">
        <ele>883.928648</ele>
        <time>2021-08-14T03:52:20.849Z</time>
      </trkpt>
      <trkpt lat="40.00375" lon="44.57502">
        <ele>883.917878</ele>
        <time>2021-08-14T03:52:26.068Z</time>
      </trkpt>
      <trkpt lat="40.00501" lon="44.57426">
        <ele>883.684776</ele>
        <time>2021-08-14T03:53:06.944Z</time>
      </trkpt>
      <trkpt lat="40.00642" lon="44.5734">
        <ele>881.673622</ele>
        <time>2021-08-14T03:53:47.114Z</time>
      </trkpt>
      <trkpt lat="40.00734" lon="44.57286">
        <ele>880.738512</ele>
        <time>2021-08-14T03:54:13.061Z</time>
      </trkpt>
      <trkpt lat="40.0093" lon="44.57185">
        <ele>880.300562</ele>
        <time>2021-08-14T03:55:15.732Z</time>
      </trkpt>
      <trkpt lat="40.00988" lon="44.57156">
        <ele>880.501398</ele>
        <time>2021-08-14T03:55:39.239Z</time>
      </trkpt>
      <trkpt lat="40.0101" lon="44.57155">
        <ele>880.858274</ele>
        <time>2021-08-14T03:55:47.637Z</time>
      </trkpt>
      <trkpt lat="40.01034" lon="44.57159">
        <ele>881.273849</ele>
        <time>2021-08-14T03:55:57.402Z</time>
      </trkpt>
      <trkpt lat="40.01043" lon="44.57165">
        <ele>881.438</ele>
        <time>2021-08-14T03:56:01.612Z</time>
      </trkpt>
      <trkpt lat="40.01065" lon="44.5718">
        <ele>881.850009</ele>
        <time>2021-08-14T03:56:11.637Z</time>
      </trkpt>
      <trkpt lat="40.01085" lon="44.57198">
        <ele>882.264341</ele>
        <time>2021-08-14T03:56:22.305Z</time>
      </trkpt>
      <trkpt lat="40.01096" lon="44.57204">
        <ele>882.467</ele>
        <time>2021-08-14T03:56:27.339Z</time>
      </trkpt>
      <trkpt lat="40.01111" lon="44.57202">
        <ele>882.716714</ele>
        <time>2021-08-14T03:56:33.636Z</time>
      </trkpt>
      <trkpt lat="40.01281" lon="44.57084">
        <ele>885.853565</ele>
        <time>2021-08-14T03:57:50.405Z</time>
      </trkpt>
      <trkpt lat="40.01426" lon="44.56992">
        <ele>888.552055</ele>
        <time>2021-08-14T03:58:56.765Z</time>
      </trkpt>
      <trkpt lat="40.01548" lon="44.5691">
        <ele>890.429628</ele>
        <time>2021-08-14T03:59:51.275Z</time>
      </trkpt>
      <trkpt lat="40.01561" lon="44.56901">
        <ele>890.601209</ele>
        <time>2021-08-14T03:59:56.834Z</time>
      </trkpt>
      <trkpt lat="40.01741" lon="44.56752">
        <ele>892.507942</ele>
        <time>2021-08-14T04:01:12.320Z</time>
      </trkpt>
      <trkpt lat="40.01951" lon="44.56579">
        <ele>894.004197</ele>
        <time>2021-08-14T04:02:37.554Z</time>
      </trkpt>
      <trkpt lat="40.02275" lon="44.56315">
        <ele>896.228103</ele>
        <time>2021-08-14T04:04:48.832Z</time>
      </trkpt>
      <trkpt lat="40.023" lon="44.56275">
        <ele>896.491026</ele>
        <time>2021-08-14T04:05:02.204Z</time>
      </trkpt>
      <trkpt lat="40.02423" lon="44.56005">
        <ele>898.54338</ele>
        <time>2021-08-14T04:06:27.605Z</time>
      </trkpt>
      <trkpt lat="40.02432" lon="44.55997">
        <ele>898.643876</ele>
        <time>2021-08-14T04:06:31.379Z</time>
      </trkpt>
      <trkpt lat="40.02445" lon="44.55983">
        <ele>898.812683</ele>
        <time>2021-08-14T04:06:38.554Z</time>
      </trkpt>
      <trkpt lat="40.02529" lon="44.55973">
        <ele>900.225891</ele>
        <time>2021-08-14T04:07:12.349Z</time>
      </trkpt>
      <trkpt lat="40.02643" lon="44.55958">
        <ele>902.252324</ele>
        <time>2021-08-14T04:08:00.239Z</time>
      </trkpt>
      <trkpt lat="40.02753" lon="44.55943">
        <ele>904.293222</ele>
        <time>2021-08-14T04:08:46.025Z</time>
      </trkpt>
      <trkpt lat="40.02825" lon="44.55936">
        <ele>905.529182</ele>
        <time>2021-08-14T04:09:16.490Z</time>
      </trkpt>
      <trkpt lat="40.02872" lon="44.55931">
        <ele>906.109891</ele>
        <time>2021-08-14T04:09:36.004Z</time>
      </trkpt>
      <trkpt lat="40.02896" lon="44.55935">
        <ele>906.406176</ele>
        <time>2021-08-14T04:09:45.358Z</time>
      </trkpt>
      <trkpt lat="40.0292" lon="44.55947">
        <ele>906.712523</ele>
        <time>2021-08-14T04:09:55.272Z</time>
      </trkpt>
      <trkpt lat="40.02989" lon="44.55718">
        <ele>908.26837</ele>
        <time>2021-08-14T04:11:01.690Z</time>
      </trkpt>
      <trkpt lat="40.03016" lon="44.5563">
        <ele>908.743762</ele>
        <time>2021-08-14T04:11:27.751Z</time>
      </trkpt>
      <trkpt lat="40.03032" lon="44.55636">
        <ele>908.910157</ele>
        <time>2021-08-14T04:11:34.178Z</time>
      </trkpt>
      <trkpt lat="40.03307" lon="44.55727">
        <ele>911.430203</ele>
        <time>2021-08-14T04:13:19.105Z</time>
      </trkpt>
      <trkpt lat="40.03325" lon="44.55726">
        <ele>911.570007</ele>
        <time>2021-08-14T04:13:25.343Z</time>
      </trkpt>
      <trkpt lat="40.03339" lon="44.5572">
        <ele>911.685087</ele>
        <time>2021-08-14T04:13:29.668Z</time>
      </trkpt>
      <trkpt lat="40.03371" lon="44.5568">
        <ele>911.822501</ele>
        <time>2021-08-14T04:13:43.748Z</time>
      </trkpt>
      <trkpt lat="40.03399" lon="44.55631">
        <ele>911.855049</ele>
        <time>2021-08-14T04:13:58.362Z</time>
      </trkpt>
      <trkpt lat="40.03425" lon="44.55586">
        <ele>911.885229</ele>
        <time>2021-08-14T04:14:11.387Z</time>
      </trkpt>
      <trkpt lat="40.03519" lon="44.55424">
        <ele>912.109511</ele>
        <time>2021-08-14T04:15:01.553Z</time>
      </trkpt>
      <trkpt lat="40.03549" lon="44.55395">
        <ele>912.181705</ele>
        <time>2021-08-14T04:15:14.019Z</time>
      </trkpt>
      <trkpt lat="40.03564" lon="44.55384">
        <ele>912.215902</ele>
        <time>2021-08-14T04:15:19.787Z</time>
      </trkpt>
      <trkpt lat="40.03726" lon="44.55286">
        <ele>912.455187</ele>
        <time>2021-08-14T04:16:15.432Z</time>
      </trkpt>
      <trkpt lat="40.03742" lon="44.55273">
        <ele>912.477624</ele>
        <time>2021-08-14T04:16:21.034Z</time>
      </trkpt>
      <trkpt lat="40.03803" lon="44.552">
        <ele>913.735712</ele>
        <time>2021-08-14T04:16:49.779Z</time>
      </trkpt>
      <trkpt lat="40.03844" lon="44.55146">
        <ele>914.767175</ele>
        <time>2021-08-14T04:17:14.242Z</time>
      </trkpt>
      <trkpt lat="40.03878" lon="44.55103">
        <ele>915.60762</ele>
        <time>2021-08-14T04:17:36.270Z</time>
      </trkpt>
      <trkpt lat="40.03917" lon="44.55046">
        <ele>917.862823</ele>
        <time>2021-08-14T04:18:06.521Z</time>
      </trkpt>
      <trkpt lat="40.04032" lon="44.54891">
        <ele>924.561861</ele>
        <time>2021-08-14T04:19:38.908Z</time>
      </trkpt>
      <trkpt lat="40.0418" lon="44.54703">
        <ele>932.865669</ele>
        <time>2021-08-14T04:21:29.446Z</time>
      </trkpt>
      <trkpt lat="40.04188" lon="44.54692">
        <ele>933.309323</ele>
        <time>2021-08-14T04:21:36.060Z</time>
      </trkpt>
      <trkpt lat="40.04197" lon="44.5468">
        <ele>933.799782</ele>
        <time>2021-08-14T04:21:42.772Z</time>
      </trkpt>
      <trkpt lat="40.04215" lon="44.54655">
        <ele>934.797082</ele>
        <time>2021-08-14T04:21:56.616Z</time>
      </trkpt>
      <trkpt lat="40.04252" lon="44.54602">
        <ele>936.919087</ele>
        <time>2021-08-14T04:22:25.256Z</time>
      </trkpt>
      <trkpt lat="40.04421" lon="44.54751">
        <ele>943.769785</ele>
        <time>2021-08-14T04:24:07.264Z</time>
      </trkpt>
      <trkpt lat="40.04426" lon="44.54755">
        <ele>943.930788</ele>
        <time>2021-08-14T04:24:10.348Z</time>
      </trkpt>
      <trkpt lat="40.0445" lon="44.54773">
        <ele>944.734295</ele>
        <time>2021-08-14T04:24:23.430Z</time>
      </trkpt>
      <trkpt lat="40.0454" lon="44.54873">
        <ele>948.180559</ele>
        <time>2021-08-14T04:25:21.721Z</time>
      </trkpt>
      <trkpt lat="40.04561" lon="44.54896">
        <ele>948.845883</ele>
        <time>2021-08-14T04:25:34.655Z</time>
      </trkpt>
      <trkpt lat="40.0461" lon="44.5495">
        <ele>950.095788</ele>
        <time>2021-08-14T04:26:02.072Z</time>
      </trkpt>
      <trkpt lat="40.04621" lon="44.5493">
        <ele>950.453548</ele>
        <time>2021-08-14T04:26:10.014Z</time>
      </trkpt>
      <trkpt lat="40.04655" lon="44.54862">
        <ele>951.689777</ele>
        <time>2021-08-14T04:26:35.917Z</time>
      </trkpt>
      <trkpt lat="40.04701" lon="44.54814">
        <ele>952.910572</ele>
        <time>2021-08-14T04:27:00.978Z</time>
      </trkpt>
      <trkpt lat="40.0473" lon="44.54773">
        <ele>953.810385</ele>
        <time>2021-08-14T04:27:19.474Z</time>
      </trkpt>
      <trkpt lat="40.04749" lon="44.54749">
        <ele>954.364143</ele>
        <time>2021-08-14T04:27:31.000Z</time>
      </trkpt>
      <trkpt lat="40.04764" lon="44.54767">
        <ele>954.808215</ele>
        <time>2021-08-14T04:27:40.146Z</time>
      </trkpt>
      <trkpt lat="40.0481" lon="44.54819">
        <ele>956.168567</ele>
        <time>2021-08-14T04:28:07.088Z</time>
      </trkpt>
      <trkpt lat="40.04874" lon="44.54893">
        <ele>958.642914</ele>
        <time>2021-08-14T04:28:47.472Z</time>
      </trkpt>
      <trkpt lat="40.0488" lon="44.54899">
        <ele>958.861959</ele>
        <time>2021-08-14T04:28:51.056Z</time>
      </trkpt>
      <trkpt lat="40.04943" lon="44.54971">
        <ele>961.287369</ele>
        <time>2021-08-14T04:29:31.649Z</time>
      </trkpt>
      <trkpt lat="40.05017" lon="44.55055">
        <ele>964.376105</ele>
        <time>2021-08-14T04:30:18.986Z</time>
      </trkpt>
      <trkpt lat="40.05295" lon="44.55365">
        <ele>976.970667</ele>
        <time>2021-08-14T04:33:18.875Z</time>
      </trkpt>
      <trkpt lat="40.05318" lon="44.55374">
        <ele>977.961425</ele>
        <time>2021-08-14T04:33:32.620Z</time>
      </trkpt>
      <trkpt lat="40.05329" lon="44.55373">
        <ele>978.404511</ele>
        <time>2021-08-14T04:33:39.867Z</time>
      </trkpt>
      <trkpt lat="40.05363" lon="44.55353">
        <ele>979.968356</ele>
        <time>2021-08-14T04:34:02.448Z</time>
      </trkpt>
      <trkpt lat="40.05379" lon="44.55334">
        <ele>981.235949</ele>
        <time>2021-08-14T04:34:14.856Z</time>
      </trkpt>
      <trkpt lat="40.05396" lon="44.55314">
        <ele>982.618668</ele>
        <time>2021-08-14T04:34:30.260Z</time>
      </trkpt>
      <trkpt lat="40.05433" lon="44.55296">
        <ele>985.017435</ele>
        <time>2021-08-14T04:34:56.000Z</time>
      </trkpt>
      <trkpt lat="40.05471" lon="44.55313">
        <ele>987.434575</ele>
        <time>2021-08-14T04:35:22.893Z</time>
      </trkpt>
      <trkpt lat="40.05526" lon="44.55325">
        <ele>990.752998</ele>
        <time>2021-08-14T04:36:00.147Z</time>
      </trkpt>
      <trkpt lat="40.05567" lon="44.55285">
        <ele>994.037805</ele>
        <time>2021-08-14T04:36:33.046Z</time>
      </trkpt>
      <trkpt lat="40.05665" lon="44.55218">
        <ele>1001.003861</ele>
        <time>2021-08-14T04:37:46.751Z</time>
      </trkpt>
      <trkpt lat="40.0568" lon="44.55181">
        <ele>1003.023897</ele>
        <time>2021-08-14T04:38:08.623Z</time>
      </trkpt>
      <trkpt lat="40.05708" lon="44.5516">
        <ele>1005.08151</ele>
        <time>2021-08-14T04:38:31.026Z</time>
      </trkpt>
      <trkpt lat="40.05728" lon="44.55168">
        <ele>1006.380654</ele>
        <time>2021-08-14T04:38:45.753Z</time>
      </trkpt>
      <trkpt lat="40.05751" lon="44.55178">
        <ele>1007.899329</ele>
        <time>2021-08-14T04:39:01.806Z</time>
      </trkpt>
      <trkpt lat="40.0577" lon="44.55217">
        <ele>1010.094346</ele>
        <time>2021-08-14T04:39:25.144Z</time>
      </trkpt>
      <trkpt lat="40.05822" lon="44.55271">
        <ele>1014.045769</ele>
        <time>2021-08-14T04:40:09.003Z</time>
      </trkpt>
      <trkpt lat="40.06205" lon="44.55734">
        <ele>1038.644212</ele>
        <time>2021-08-14T04:45:07.041Z</time>
      </trkpt>
      <trkpt lat="40.06293" lon="44.55858">
        <ele>1044.123895</ele>
        <time>2021-08-14T04:46:19.353Z</time>
      </trkpt>
      <trkpt lat="40.06307" lon="44.55877">
        <ele>1044.979344</ele>
        <time>2021-08-14T04:46:29.903Z</time>
      </trkpt>
      <trkpt lat="40.06313" lon="44.55875">
        <ele>1045.249348</ele>
        <time>2021-08-14T04:46:33.947Z</time>
      </trkpt>
      <trkpt lat="40.06334" lon="44.55887">
        <ele>1046.238128</ele>
        <time>2021-08-14T04:46:45.457Z</time>
      </trkpt>
      <trkpt lat="40.064" lon="44.55973">
        <ele>1049.314446</ele>
        <time>2021-08-14T04:47:33.666Z</time>
      </trkpt>
      <trkpt lat="40.06427" lon="44.56001">
        <ele>1050.441187</ele>
        <time>2021-08-14T04:47:51.160Z</time>
      </trkpt>
      <trkpt lat="40.06486" lon="44.56036">
        <ele>1052.395804</ele>
        <time>2021-08-14T04:48:19.847Z</time>
      </trkpt>
      <trkpt lat="40.06565" lon="44.56059">
        <ele>1053.932554</ele>
        <time>2021-08-14T04:48:56.737Z</time>
      </trkpt>
      <trkpt lat="40.06666" lon="44.56035">
        <ele>1055.473152</ele>
        <time>2021-08-14T04:49:37.293Z</time>
      </trkpt>
      <trkpt lat="40.06755" lon="44.56008">
        <ele>1054.651386</ele>
        <time>2021-08-14T04:50:04.829Z</time>
      </trkpt>
      <trkpt lat="40.06755" lon="44.55996">
        <ele>1054.569021</ele>
        <time>2021-08-14T04:50:06.885Z</time>
      </trkpt>
      <trkpt lat="40.06754" lon="44.55848">
        <ele>1052.602356</ele>
        <time>2021-08-14T04:50:34.165Z</time>
      </trkpt>
      <trkpt lat="40.06766" lon="44.55815">
        <ele>1051.802571</ele>
        <time>2021-08-14T04:50:40.455Z</time>
      </trkpt>
      <trkpt lat="40.06777" lon="44.55797">
        <ele>1051.30132</ele>
        <time>2021-08-14T04:50:44.355Z</time>
      </trkpt>
      <trkpt lat="40.06926" lon="44.55646">
        <ele>1046.319693</ele>
        <time>2021-08-14T04:51:28.196Z</time>
      </trkpt>
      <trkpt lat="40.06987" lon="44.55529">
        <ele>1043.971949</ele>
        <time>2021-08-14T04:51:54.938Z</time>
      </trkpt>
      <trkpt lat="40.06991" lon="44.5551">
        <ele>1043.758325</ele>
        <time>2021-08-14T04:51:59.008Z</time>
      </trkpt>
      <trkpt lat="40.06994" lon="44.55495">
        <ele>1043.587852</ele>
        <time>2021-08-14T04:52:01.968Z</time>
      </trkpt>
      <trkpt lat="40.07007" lon="44.55416">
        <ele>1042.70576</ele>
        <time>2021-08-14T04:52:19.260Z</time>
      </trkpt>
      <trkpt lat="40.07015" lon="44.55406">
        <ele>1042.548794</ele>
        <time>2021-08-14T04:52:22.164Z</time>
      </trkpt>
      <trkpt lat="40.07028" lon="44.55403">
        <ele>1042.359669</ele>
        <time>2021-08-14T04:52:26.194Z</time>
      </trkpt>
      <trkpt lat="40.07059" lon="44.55409">
        <ele>1041.911482</ele>
        <time>2021-08-14T04:52:35.694Z</time>
      </trkpt>
      <trkpt lat="40.07156" lon="44.55494">
        <ele>1036.959102</ele>
        <time>2021-08-14T04:53:01.937Z</time>
      </trkpt>
      <trkpt lat="40.07198" lon="44.55537">
        <ele>1034.605904</ele>
        <time>2021-08-14T04:53:13.027Z</time>
      </trkpt>
      <trkpt lat="40.07212" lon="44.55542">
        <ele>1033.948389</ele>
        <time>2021-08-14T04:53:15.766Z</time>
      </trkpt>
      <trkpt lat="40.07229" lon="44.55544">
        <ele>1032.758157</ele>
        <time>2021-08-14T04:53:19.164Z</time>
      </trkpt>
      <trkpt lat="40.0724" lon="44.55538">
        <ele>1031.855335</ele>
        <time>2021-08-14T04:53:21.726Z</time>
      </trkpt>
      <trkpt lat="40.07253" lon="44.55526">
        <ele>1030.706128</ele>
        <time>2021-08-14T04:53:24.724Z</time>
      </trkpt>
      <trkpt lat="40.0726" lon="44.55514">
        <ele>1029.845787</ele>
        <time>2021-08-14T04:53:27.296Z</time>
      </trkpt>
      <trkpt lat="40.07261" lon="44.55501">
        <ele>1029.147529</ele>
        <time>2021-08-14T04:53:29.202Z</time>
      </trkpt>
      <trkpt lat="40.07261" lon="44.55491">
        <ele>1028.571568</ele>
        <time>2021-08-14T04:53:30.651Z</time>
      </trkpt>
      <trkpt lat="40.07241" lon="44.55378">
        <ele>1022.181968</ele>
        <time>2021-08-14T04:53:48.126Z</time>
      </trkpt>
      <trkpt lat="40.07244" lon="44.55331">
        <ele>1021.453518</ele>
        <time>2021-08-14T04:53:55.633Z</time>
      </trkpt>
      <trkpt lat="40.07261" lon="44.55282">
        <ele>1022.356284</ele>
        <time>2021-08-14T04:54:05.623Z</time>
      </trkpt>
      <trkpt lat="40.07271" lon="44.55265">
        <ele>1022.733664</ele>
        <time>2021-08-14T04:54:11.192Z</time>
      </trkpt>
      <trkpt lat="40.07663" lon="44.54858">
        <ele>1038.075187</ele>
        <time>2021-08-14T04:58:34.750Z</time>
      </trkpt>
      <trkpt lat="40.07756" lon="44.54679">
        <ele>1046.753191</ele>
        <time>2021-08-14T05:00:19.510Z</time>
      </trkpt>
      <trkpt lat="40.07754" lon="44.54648">
        <ele>1047.971786</ele>
        <time>2021-08-14T05:00:34.727Z</time>
      </trkpt>
      <trkpt lat="40.07697" lon="44.54583">
        <ele>1051.925245</ele>
        <time>2021-08-14T05:01:20.590Z</time>
      </trkpt>
      <trkpt lat="40.07676" lon="44.54555">
        <ele>1053.441794</ele>
        <time>2021-08-14T05:01:38.073Z</time>
      </trkpt>
      <trkpt lat="40.07667" lon="44.54541">
        <ele>1054.157086</ele>
        <time>2021-08-14T05:01:45.600Z</time>
      </trkpt>
      <trkpt lat="40.07654" lon="44.5451">
        <ele>1055.529976</ele>
        <time>2021-08-14T05:02:00.988Z</time>
      </trkpt>
      <trkpt lat="40.07645" lon="44.54466">
        <ele>1057.300138</ele>
        <time>2021-08-14T05:02:20.748Z</time>
      </trkpt>
      <trkpt lat="40.07607" lon="44.54365">
        <ele>1061.58167</ele>
        <time>2021-08-14T05:03:10.325Z</time>
      </trkpt>
      <trkpt lat="40.07601" lon="44.5433">
        <ele>1062.938866</ele>
        <time>2021-08-14T05:03:27.540Z</time>
      </trkpt>
      <trkpt lat="40.07608" lon="44.54276">
        <ele>1065.214143</ele>
        <time>2021-08-14T05:03:54.066Z</time>
      </trkpt>
      <trkpt lat="40.07637" lon="44.54231">
        <ele>1067.703136</ele>
        <time>2021-08-14T05:04:22.576Z</time>
      </trkpt>
      <trkpt lat="40.07644" lon="44.54224">
        <ele>1068.212243</ele>
        <time>2021-08-14T05:04:30.765Z</time>
      </trkpt>
      <trkpt lat="40.07801" lon="44.54408">
        <ele>1078.097504</ele>
        <time>2021-08-14T05:06:37.110Z</time>
      </trkpt>
      <trkpt lat="40.07893" lon="44.54533">
        <ele>1082.139817</ele>
        <time>2021-08-14T05:07:32.675Z</time>
      </trkpt>
      <trkpt lat="40.08059" lon="44.54822">
        <ele>1088.928285</ele>
        <time>2021-08-14T05:09:34.035Z</time>
      </trkpt>
      <trkpt lat="40.08118" lon="44.54954">
        <ele>1094.09717</ele>
        <time>2021-08-14T05:10:39.422Z</time>
      </trkpt>
      <trkpt lat="40.08227" lon="44.55166">
        <ele>1104.856154</ele>
        <time>2021-08-14T05:12:41.742Z</time>
      </trkpt>
      <trkpt lat="40.08309" lon="44.55278">
        <ele>1111.955989</ele>
        <time>2021-08-14T05:14:03.445Z</time>
      </trkpt>
      <trkpt lat="40.08333" lon="44.553">
        <ele>1113.654637</ele>
        <time>2021-08-14T05:14:22.907Z</time>
      </trkpt>
      <trkpt lat="40.08398" lon="44.55354">
        <ele>1118.188651</ele>
        <time>2021-08-14T05:15:10.972Z</time>
      </trkpt>
      <trkpt lat="40.08421" lon="44.55364">
        <ele>1119.629016</ele>
        <time>2021-08-14T05:15:25.235Z</time>
      </trkpt>
      <trkpt lat="40.08461" lon="44.55362">
        <ele>1121.515882</ele>
        <time>2021-08-14T05:15:48.644Z</time>
      </trkpt>
      <trkpt lat="40.08473" lon="44.55351">
        <ele>1122.222826</ele>
        <time>2021-08-14T05:15:57.584Z</time>
      </trkpt>
      <trkpt lat="40.08484" lon="44.55332">
        <ele>1123.095328</ele>
        <time>2021-08-14T05:16:07.453Z</time>
      </trkpt>
      <trkpt lat="40.08509" lon="44.5527">
        <ele>1125.6763</ele>
        <time>2021-08-14T05:16:38.664Z</time>
      </trkpt>
      <trkpt lat="40.08524" lon="44.55249">
        <ele>1126.715547</ele>
        <time>2021-08-14T05:16:50.283Z</time>
      </trkpt>
      <trkpt lat="40.08549" lon="44.55214">
        <ele>1128.468335</ele>
        <time>2021-08-14T05:17:11.339Z</time>
      </trkpt>
      <trkpt lat="40.08558" lon="44.55202">
        <ele>1129.127604</ele>
        <time>2021-08-14T05:17:19.556Z</time>
      </trkpt>
      <trkpt lat="40.08619" lon="44.5515">
        <ele>1132.745783</ele>
        <time>2021-08-14T05:18:02.318Z</time>
      </trkpt>
      <trkpt lat="40.08648" lon="44.55207">
        <ele>1135.363245</ele>
        <time>2021-08-14T05:18:35.467Z</time>
      </trkpt>
      <trkpt lat="40.08675" lon="44.55254">
        <ele>1137.475809</ele>
        <time>2021-08-14T05:19:02.823Z</time>
      </trkpt>
      <trkpt lat="40.08712" lon="44.5522">
        <ele>1139.164842</ele>
        <time>2021-08-14T05:19:28.166Z</time>
      </trkpt>
      <trkpt lat="40.08751" lon="44.55186">
        <ele>1140.933372</ele>
        <time>2021-08-14T05:19:53.295Z</time>
      </trkpt>
      <trkpt lat="40.08828" lon="44.55124">
        <ele>1144.215623</ele>
        <time>2021-08-14T05:20:38.472Z</time>
      </trkpt>
      <trkpt lat="40.08843" lon="44.55153">
        <ele>1144.921289</ele>
        <time>2021-08-14T05:20:51.755Z</time>
      </trkpt>
      <trkpt lat="40.08855" lon="44.5518">
        <ele>1145.564485</ele>
        <time>2021-08-14T05:21:03.518Z</time>
      </trkpt>
      <trkpt lat="40.08884" lon="44.55193">
        <ele>1146.358614</ele>
        <time>2021-08-14T05:21:17.646Z</time>
      </trkpt>
      <trkpt lat="40.08915" lon="44.55184">
        <ele>1147.221584</ele>
        <time>2021-08-14T05:21:32.890Z</time>
      </trkpt>
      <trkpt lat="40.08954" lon="44.55155">
        <ele>1148.385713</ele>
        <time>2021-08-14T05:21:53.272Z</time>
      </trkpt>
      <trkpt lat="40.0896" lon="44.5515">
        <ele>1148.584248</ele>
        <time>2021-08-14T05:21:56.684Z</time>
      </trkpt>
      <trkpt lat="40.09039" lon="44.55081">
        <ele>1150.541649</ele>
        <time>2021-08-14T05:22:37.701Z</time>
      </trkpt>
      <trkpt lat="40.09075" lon="44.55054">
        <ele>1151.380966</ele>
        <time>2021-08-14T05:22:55.971Z</time>
      </trkpt>
      <trkpt lat="40.09104" lon="44.55026">
        <ele>1152.124726</ele>
        <time>2021-08-14T05:23:11.823Z</time>
      </trkpt>
      <trkpt lat="40.09165" lon="44.54966">
        <ele>1154.054467</ele>
        <time>2021-08-14T05:23:45.199Z</time>
      </trkpt>
      <trkpt lat="40.09183" lon="44.54983">
        <ele>1154.625722</ele>
        <time>2021-08-14T05:23:55.261Z</time>
      </trkpt>
      <trkpt lat="40.09198" lon="44.55003">
        <ele>1155.187372</ele>
        <time>2021-08-14T05:24:05.171Z</time>
      </trkpt>
      <trkpt lat="40.09219" lon="44.55046">
        <ele>1156.197747</ele>
        <time>2021-08-14T05:24:24.453Z</time>
      </trkpt>
      <trkpt lat="40.09221" lon="44.55064">
        <ele>1156.553981</ele>
        <time>2021-08-14T05:24:31.347Z</time>
      </trkpt>
      <trkpt lat="40.09192" lon="44.5512">
        <ele>1158.335907</ele>
        <time>2021-08-14T05:24:58.491Z</time>
      </trkpt>
      <trkpt lat="40.09185" lon="44.55156">
        <ele>1159.403833</ele>
        <time>2021-08-14T05:25:13.701Z</time>
      </trkpt>
      <trkpt lat="40.0919" lon="44.55177">
        <ele>1160.025394</ele>
        <time>2021-08-14T05:25:22.824Z</time>
      </trkpt>
      <trkpt lat="40.09223" lon="44.55198">
        <ele>1161.388002</ele>
        <time>2021-08-14T05:25:42.379Z</time>
      </trkpt>
      <trkpt lat="40.09248" lon="44.55251">
        <ele>1163.202857</ele>
        <time>2021-08-14T05:26:08.694Z</time>
      </trkpt>
      <trkpt lat="40.09307" lon="44.55266">
        <ele>1165.182047</ele>
        <time>2021-08-14T05:26:41.349Z</time>
      </trkpt>
      <trkpt lat="40.09345" lon="44.55274">
        <ele>1166.416423</ele>
        <time>2021-08-14T05:27:01.229Z</time>
      </trkpt>
      <trkpt lat="40.09393" lon="44.55285">
        <ele>1167.930958</ele>
        <time>2021-08-14T05:27:24.688Z</time>
      </trkpt>
      <trkpt lat="40.09406" lon="44.5529">
        <ele>1168.358591</ele>
        <time>2021-08-14T05:27:30.714Z</time>
      </trkpt>
      <trkpt lat="40.09468" lon="44.55304">
        <ele>1169.890326</ele>
        <time>2021-08-14T05:27:59.257Z</time>
      </trkpt>
      <trkpt lat="40.09493" lon="44.5531">
        <ele>1170.302196</ele>
        <time>2021-08-14T05:28:10.755Z</time>
      </trkpt>
      <trkpt lat="40.09519" lon="44.55317">
        <ele>1170.73685</ele>
        <time>2021-08-14T05:28:21.828Z</time>
      </trkpt>
      <trkpt lat="40.09531" lon="44.55321">
        <ele>1170.947068</ele>
        <time>2021-08-14T05:28:27.279Z</time>
      </trkpt>
      <trkpt lat="40.09575" lon="44.55322">
        <ele>1171.650913</ele>
        <time>2021-08-14T05:28:43.546Z</time>
      </trkpt>
      <trkpt lat="40.09591" lon="44.55317">
        <ele>1171.919135</ele>
        <time>2021-08-14T05:28:49.765Z</time>
      </trkpt>
      <trkpt lat="40.09604" lon="44.5531">
        <ele>1172.15238</ele>
        <time>2021-08-14T05:28:54.987Z</time>
      </trkpt>
      <trkpt lat="40.09626" lon="44.55304">
        <ele>1172.207852</ele>
        <time>2021-08-14T05:29:02.861Z</time>
      </trkpt>
      <trkpt lat="40.0964" lon="44.553">
        <ele>1172.026866</ele>
        <time>2021-08-14T05:29:07.832Z</time>
      </trkpt>
      <trkpt lat="40.09696" lon="44.55309">
        <ele>1171.334608</ele>
        <time>2021-08-14T05:29:25.385Z</time>
      </trkpt>
      <trkpt lat="40.09879" lon="44.55358">
        <ele>1168.194829</ele>
        <time>2021-08-14T05:30:09.417Z</time>
      </trkpt>
      <trkpt lat="40.0992" lon="44.55368">
        <ele>1167.272889</ele>
        <time>2021-08-14T05:30:19.319Z</time>
      </trkpt>
      <trkpt lat="40.09944" lon="44.55369">
        <ele>1166.755323</ele>
        <time>2021-08-14T05:30:25.158Z</time>
      </trkpt>
      <trkpt lat="40.10003" lon="44.55353">
        <ele>1166.769129</ele>
        <time>2021-08-14T05:30:42.039Z</time>
      </trkpt>
      <trkpt lat="40.10016" lon="44.55348">
        <ele>1166.984417</ele>
        <time>2021-08-14T05:30:45.401Z</time>
      </trkpt>
      <trkpt lat="40.10058" lon="44.55332">
        <ele>1167.713414</ele>
        <time>2021-08-14T05:31:00.173Z</time>
      </trkpt>
      <trkpt lat="40.10115" lon="44.5531">
        <ele>1168.694562</ele>
        <time>2021-08-14T05:31:28.699Z</time>
      </trkpt>
      <trkpt lat="40.10132" lon="44.55302">
        <ele>1169.0015</ele>
        <time>2021-08-14T05:31:39.364Z</time>
      </trkpt>
      <trkpt lat="40.10159" lon="44.55289">
        <ele>1169.75372</ele>
        <time>2021-08-14T05:31:55.034Z</time>
      </trkpt>
      <trkpt lat="40.10189" lon="44.55268">
        <ele>1170.892189</ele>
        <time>2021-08-14T05:32:16.983Z</time>
      </trkpt>
      <trkpt lat="40.1021" lon="44.55252">
        <ele>1171.675949</ele>
        <time>2021-08-14T05:32:31.518Z</time>
      </trkpt>
      <trkpt lat="40.10228" lon="44.5523">
        <ele>1172.499333</ele>
        <time>2021-08-14T05:32:46.464Z</time>
      </trkpt>
      <trkpt lat="40.10281" lon="44.55146">
        <ele>1174.968912</ele>
        <time>2021-08-14T05:33:21.470Z</time>
      </trkpt>
      <trkpt lat="40.10311" lon="44.5509">
        <ele>1173.144092</ele>
        <time>2021-08-14T05:33:35.967Z</time>
      </trkpt>
      <trkpt lat="40.10322" lon="44.55072">
        <ele>1172.565447</ele>
        <time>2021-08-14T05:33:40.265Z</time>
      </trkpt>
      <trkpt lat="40.10355" lon="44.5502">
        <ele>1170.770989</ele>
        <time>2021-08-14T05:33:51.490Z</time>
      </trkpt>
      <trkpt lat="40.10384" lon="44.54998">
        <ele>1169.628033</ele>
        <time>2021-08-14T05:33:58.333Z</time>
      </trkpt>
      <trkpt lat="40.10406" lon="44.54995">
        <ele>1168.765941</ele>
        <time>2021-08-14T05:34:02.923Z</time>
      </trkpt>
      <trkpt lat="40.10483" lon="44.55015">
        <ele>1162.344138</ele>
        <time>2021-08-14T05:34:18.105Z</time>
      </trkpt>
      <trkpt lat="40.10504" lon="44.55033">
        <ele>1160.337766</ele>
        <time>2021-08-14T05:34:22.825Z</time>
      </trkpt>
      <trkpt lat="40.1055" lon="44.55126">
        <ele>1153.407209</ele>
        <time>2021-08-14T05:34:39.539Z</time>
      </trkpt>
      <trkpt lat="40.10561" lon="44.55152">
        <ele>1151.57402</ele>
        <time>2021-08-14T05:34:44.041Z</time>
      </trkpt>
      <trkpt lat="40.10597" lon="44.55178">
        <ele>1148.316163</ele>
        <time>2021-08-14T05:34:52.118Z</time>
      </trkpt>
      <trkpt lat="40.10636" lon="44.55181">
        <ele>1145.244091</ele>
        <time>2021-08-14T05:34:59.735Z</time>
      </trkpt>
      <trkpt lat="40.10664" lon="44.55171">
        <ele>1142.952022</ele>
        <time>2021-08-14T05:35:05.364Z</time>
      </trkpt>
      <trkpt lat="40.107" lon="44.55137">
        <ele>1139.473161</ele>
        <time>2021-08-14T05:35:14.064Z</time>
      </trkpt>
      <trkpt lat="40.10709" lon="44.55114">
        <ele>1137.88309</ele>
        <time>2021-08-14T05:35:18.196Z</time>
      </trkpt>
      <trkpt lat="40.10714" lon="44.55048">
        <ele>1133.985454</ele>
        <time>2021-08-14T05:35:28.256Z</time>
      </trkpt>
      <trkpt lat="40.10729" lon="44.5504">
        <ele>1132.766892</ele>
        <time>2021-08-14T05:35:31.370Z</time>
      </trkpt>
      <trkpt lat="40.10736" lon="44.55048">
        <ele>1132.019747</ele>
        <time>2021-08-14T05:35:33.271Z</time>
      </trkpt>
      <trkpt lat="40.10745" lon="44.55141">
        <ele>1126.448534</ele>
        <time>2021-08-14T05:35:47.495Z</time>
      </trkpt>
      <trkpt lat="40.10795" lon="44.55239">
        <ele>1118.711127</ele>
        <time>2021-08-14T05:36:05.033Z</time>
      </trkpt>
      <trkpt lat="40.10833" lon="44.55274">
        <ele>1114.708068</ele>
        <time>2021-08-14T05:36:14.002Z</time>
      </trkpt>
      <trkpt lat="40.10871" lon="44.55275">
        <ele>1111.418779</ele>
        <time>2021-08-14T05:36:21.380Z</time>
      </trkpt>
      <trkpt lat="40.10891" lon="44.55263">
        <ele>1109.593796</ele>
        <time>2021-08-14T05:36:25.587Z</time>
      </trkpt>
      <trkpt lat="40.10953" lon="44.55224">
        <ele>1104.052572</ele>
        <time>2021-08-14T05:36:39.087Z</time>
      </trkpt>
      <trkpt lat="40.11056" lon="44.55158">
        <ele>1094.773566</ele>
        <time>2021-08-14T05:37:01.728Z</time>
      </trkpt>
      <trkpt lat="40.11133" lon="44.55119">
        <ele>1087.929178</ele>
        <time>2021-08-14T05:37:17.831Z</time>
      </trkpt>
      <trkpt lat="40.11173" lon="44.55092">
        <ele>1084.209183</ele>
        <time>2021-08-14T05:37:26.475Z</time>
      </trkpt>
      <trkpt lat="40.1128" lon="44.55014">
        <ele>1074.360894</ele>
        <time>2021-08-14T05:37:50.222Z</time>
      </trkpt>
      <trkpt lat="40.1139" lon="44.54932">
        <ele>1065.028026</ele>
        <time>2021-08-14T05:38:15.381Z</time>
      </trkpt>
      <trkpt lat="40.11432" lon="44.54901">
        <ele>1062.226319</ele>
        <time>2021-08-14T05:38:25.450Z</time>
      </trkpt>
      <trkpt lat="40.11619" lon="44.54764">
        <ele>1051.139053</ele>
        <time>2021-08-14T05:39:10.490Z</time>
      </trkpt>
      <trkpt lat="40.11737" lon="44.54671">
        <ele>1046.65666</ele>
        <time>2021-08-14T05:39:41.283Z</time>
      </trkpt>
      <trkpt lat="40.1183" lon="44.54597">
        <ele>1044.477172</ele>
        <time>2021-08-14T05:40:10.011Z</time>
      </trkpt>
      <trkpt lat="40.11869" lon="44.54566">
        <ele>1044.475636</ele>
        <time>2021-08-14T05:40:24.853Z</time>
      </trkpt>
      <trkpt lat="40.1207" lon="44.5441">
        <ele>1043.49496</ele>
        <time>2021-08-14T05:41:39.783Z</time>
      </trkpt>
      <trkpt lat="40.12182" lon="44.54368">
        <ele>1041.411119</ele>
        <time>2021-08-14T05:42:07.925Z</time>
      </trkpt>
      <trkpt lat="40.1222" lon="44.54354">
        <ele>1040.011674</ele>
        <time>2021-08-14T05:42:16.908Z</time>
      </trkpt>
      <trkpt lat="40.12632" lon="44.54233">
        <ele>1025.462188</ele>
        <time>2021-08-14T05:43:50.430Z</time>
      </trkpt>
      <trkpt lat="40.12911" lon="44.54146">
        <ele>1018.585253</ele>
        <time>2021-08-14T05:44:59.845Z</time>
      </trkpt>
      <trkpt lat="40.12928" lon="44.54139">
        <ele>1018.188068</ele>
        <time>2021-08-14T05:45:04.283Z</time>
      </trkpt>
      <trkpt lat="40.12977" lon="44.54119">
        <ele>1017.050399</ele>
        <time>2021-08-14T05:45:16.911Z</time>
      </trkpt>
      <trkpt lat="40.13005" lon="44.54088">
        <ele>1016.23326</ele>
        <time>2021-08-14T05:45:25.827Z</time>
      </trkpt>
      <trkpt lat="40.1305" lon="44.54003">
        <ele>1014.37137</ele>
        <time>2021-08-14T05:45:44.442Z</time>
      </trkpt>
      <trkpt lat="40.13061" lon="44.53982">
        <ele>1013.910729</ele>
        <time>2021-08-14T05:45:49.015Z</time>
      </trkpt>
      <trkpt lat="40.13076" lon="44.53951">
        <ele>1013.245265</ele>
        <time>2021-08-14T05:45:55.685Z</time>
      </trkpt>
      <trkpt lat="40.13102" lon="44.53899">
        <ele>1012.130119</ele>
        <time>2021-08-14T05:46:06.720Z</time>
      </trkpt>
      <trkpt lat="40.13184" lon="44.53737">
        <ele>1011.981362</ele>
        <time>2021-08-14T05:46:47.427Z</time>
      </trkpt>
      <trkpt lat="40.13269" lon="44.53567">
        <ele>1016.7761</ele>
        <time>2021-08-14T05:48:04.938Z</time>
      </trkpt>
      <trkpt lat="40.13276" lon="44.53555">
        <ele>1017.303928</ele>
        <time>2021-08-14T05:48:12.918Z</time>
      </trkpt>
      <trkpt lat="40.13291" lon="44.53532">
        <ele>1018.278779</ele>
        <time>2021-08-14T05:48:27.223Z</time>
      </trkpt>
      <trkpt lat="40.13446" lon="44.53688">
        <ele>1029.317626</ele>
        <time>2021-08-14T05:50:37.600Z</time>
      </trkpt>
      <trkpt lat="40.13518" lon="44.53764">
        <ele>1031.985823</ele>
        <time>2021-08-14T05:51:28.868Z</time>
      </trkpt>
      <trkpt lat="40.13532" lon="44.53779">
        <ele>1032.372207</ele>
        <time>2021-08-14T05:51:37.428Z</time>
      </trkpt>
      <trkpt lat="40.13539" lon="44.53785">
        <ele>1032.540809</ele>
        <time>2021-08-14T05:51:41.150Z</time>
      </trkpt>
      <trkpt lat="40.13553" lon="44.53796">
        <ele>1032.900659</ele>
        <time>2021-08-14T05:51:47.445Z</time>
      </trkpt>
      <trkpt lat="40.13596" lon="44.53815">
        <ele>1033.881872</ele>
        <time>2021-08-14T05:52:02.160Z</time>
      </trkpt>
      <trkpt lat="40.1362" lon="44.53819">
        <ele>1034.079808</ele>
        <time>2021-08-14T05:52:08.559Z</time>
      </trkpt>
      <trkpt lat="40.1364" lon="44.53819">
        <ele>1033.472407</ele>
        <time>2021-08-14T05:52:13.536Z</time>
      </trkpt>
      <trkpt lat="40.13682" lon="44.53799">
        <ele>1032.144484</ele>
        <time>2021-08-14T05:52:23.868Z</time>
      </trkpt>
      <trkpt lat="40.13696" lon="44.53789">
        <ele>1031.646808</ele>
        <time>2021-08-14T05:52:27.464Z</time>
      </trkpt>
      <trkpt lat="40.13714" lon="44.53777">
        <ele>1031.038307</ele>
        <time>2021-08-14T05:52:32.043Z</time>
      </trkpt>
      <trkpt lat="40.13778" lon="44.53737">
        <ele>1028.922395</ele>
        <time>2021-08-14T05:52:47.520Z</time>
      </trkpt>
      <trkpt lat="40.13918" lon="44.53639">
        <ele>1022.854517</ele>
        <time>2021-08-14T05:53:22.807Z</time>
      </trkpt>
      <trkpt lat="40.13966" lon="44.53606">
        <ele>1020.755932</ele>
        <time>2021-08-14T05:53:34.832Z</time>
      </trkpt>
      <trkpt lat="40.13999" lon="44.53582">
        <ele>1019.285976</ele>
        <time>2021-08-14T05:53:42.919Z</time>
      </trkpt>
      <trkpt lat="40.14022" lon="44.53558">
        <ele>1018.131261</ele>
        <time>2021-08-14T05:53:49.212Z</time>
      </trkpt>
      <trkpt lat="40.14047" lon="44.53524">
        <ele>1016.72391</ele>
        <time>2021-08-14T05:53:57.063Z</time>
      </trkpt>
      <trkpt lat="40.14095" lon="44.53432">
        <ele>1013.910586</ele>
        <time>2021-08-14T05:54:16.525Z</time>
      </trkpt>
      <trkpt lat="40.14097" lon="44.53427">
        <ele>1013.787111</ele>
        <time>2021-08-14T05:54:17.604Z</time>
      </trkpt>
      <trkpt lat="40.14115" lon="44.53413">
        <ele>1013.267071</ele>
        <time>2021-08-14T05:54:22.157Z</time>
      </trkpt>
      <trkpt lat="40.14119" lon="44.53411">
        <ele>1013.156881</ele>
        <time>2021-08-14T05:54:23.171Z</time>
      </trkpt>
      <trkpt lat="40.14133" lon="44.53406">
        <ele>1012.766109</ele>
        <time>2021-08-14T05:54:26.751Z</time>
      </trkpt>
      <trkpt lat="40.14138" lon="44.53406">
        <ele>1012.650416</ele>
        <time>2021-08-14T05:54:27.851Z</time>
      </trkpt>
      <trkpt lat="40.14145" lon="44.53406">
        <ele>1012.460275</ele>
        <time>2021-08-14T05:54:29.569Z</time>
      </trkpt>
      <trkpt lat="40.14208" lon="44.53431">
        <ele>1010.775464</ele>
        <time>2021-08-14T05:54:45.392Z</time>
      </trkpt>
      <trkpt lat="40.14212" lon="44.53431">
        <ele>1010.667385</ele>
        <time>2021-08-14T05:54:46.425Z</time>
      </trkpt>
      <trkpt lat="40.14215" lon="44.53429">
        <ele>1010.596543</ele>
        <time>2021-08-14T05:54:47.071Z</time>
      </trkpt>
      <trkpt lat="40.1422" lon="44.53424">
        <ele>1010.430643</ele>
        <time>2021-08-14T05:54:48.734Z</time>
      </trkpt>
      <trkpt lat="40.14221" lon="44.53422">
        <ele>1010.362777</ele>
        <time>2021-08-14T05:54:49.379Z</time>
      </trkpt>
      <trkpt lat="40.14225" lon="44.53417">
        <ele>1010.261453</ele>
        <time>2021-08-14T05:54:50.621Z</time>
      </trkpt>
      <trkpt lat="40.14245" lon="44.53328">
        <ele>1009.147416</ele>
        <time>2021-08-14T05:55:09.725Z</time>
      </trkpt>
      <trkpt lat="40.14261" lon="44.53315">
        <ele>1008.83759</ele>
        <time>2021-08-14T05:55:15.022Z</time>
      </trkpt>
      <trkpt lat="40.14269" lon="44.53317">
        <ele>1008.712995</ele>
        <time>2021-08-14T05:55:16.973Z</time>
      </trkpt>
      <trkpt lat="40.14328" lon="44.53336">
        <ele>1007.758962</ele>
        <time>2021-08-14T05:55:31.818Z</time>
      </trkpt>
      <trkpt lat="40.14413" lon="44.53366">
        <ele>1006.413964</ele>
        <time>2021-08-14T05:55:54.085Z</time>
      </trkpt>
      <trkpt lat="40.14433" lon="44.53374">
        <ele>1006.091078</ele>
        <time>2021-08-14T05:55:59.712Z</time>
      </trkpt>
      <trkpt lat="40.14501" lon="44.534">
        <ele>1005.004863</ele>
        <time>2021-08-14T05:56:18.218Z</time>
      </trkpt>
      <trkpt lat="40.14594" lon="44.53433">
        <ele>1003.09812</ele>
        <time>2021-08-14T05:56:42.440Z</time>
      </trkpt>
      <trkpt lat="40.1475" lon="44.53264">
        <ele>998.908843</ele>
        <time>2021-08-14T05:57:33.339Z</time>
      </trkpt>
      <trkpt lat="40.14917" lon="44.53089">
        <ele>995.256115</ele>
        <time>2021-08-14T05:58:30.020Z</time>
      </trkpt>
      <trkpt lat="40.14941" lon="44.53126">
        <ele>994.697632</ele>
        <time>2021-08-14T05:58:39.991Z</time>
      </trkpt>
      <trkpt lat="40.14949" lon="44.53139">
        <ele>994.559904</ele>
        <time>2021-08-14T05:58:43.379Z</time>
      </trkpt>
      <trkpt lat="40.14954" lon="44.53145">
        <ele>994.52351</ele>
        <time>2021-08-14T05:58:45.270Z</time>
      </trkpt>
      <trkpt lat="40.14968" lon="44.53149">
        <ele>994.451863</ele>
        <time>2021-08-14T05:58:49.111Z</time>
      </trkpt>
      <trkpt lat="40.14972" lon="44.53131">
        <ele>994.378494</ele>
        <time>2021-08-14T05:58:52.878Z</time>
      </trkpt>
      <trkpt lat="40.14992" lon="44.53051">
        <ele>994.038123</ele>
        <time>2021-08-14T05:59:11.738Z</time>
      </trkpt>
      <trkpt lat="40.14999" lon="44.53035">
        <ele>993.963548</ele>
        <time>2021-08-14T05:59:15.898Z</time>
      </trkpt>
      <trkpt lat="40.15008" lon="44.53027">
        <ele>993.905126</ele>
        <time>2021-08-14T05:59:19.368Z</time>
      </trkpt>
      <trkpt lat="40.15053" lon="44.52988">
        <ele>993.630209</ele>
        <time>2021-08-14T05:59:35.372Z</time>
      </trkpt>
      <trkpt lat="40.15064" lon="44.52979">
        <ele>993.585454</ele>
        <time>2021-08-14T05:59:39.186Z</time>
      </trkpt>
      <trkpt lat="40.15077" lon="44.52969">
        <ele>993.53269</ele>
        <time>2021-08-14T05:59:43.900Z</time>
      </trkpt>
      <trkpt lat="40.15088" lon="44.52959">
        <ele>993.485712</ele>
        <time>2021-08-14T05:59:47.881Z</time>
      </trkpt>
      <trkpt lat="40.1516" lon="44.52897">
        <ele>993.180579</ele>
        <time>2021-08-14T06:00:12.538Z</time>
      </trkpt>
      <trkpt lat="40.15171" lon="44.52884">
        <ele>993.126927</ele>
        <time>2021-08-14T06:00:17.532Z</time>
      </trkpt>
      <trkpt lat="40.15213" lon="44.52877">
        <ele>993.006209</ele>
        <time>2021-08-14T06:00:30.860Z</time>
      </trkpt>
      <trkpt lat="40.15227" lon="44.52876">
        <ele>993.003047</ele>
        <time>2021-08-14T06:00:34.750Z</time>
      </trkpt>
      <trkpt lat="40.15341" lon="44.52876">
        <ele>992.977121</ele>
        <time>2021-08-14T06:01:10.635Z</time>
      </trkpt>
      <trkpt lat="40.15401" lon="44.52893">
        <ele>993.001861</ele>
        <time>2021-08-14T06:01:32.087Z</time>
      </trkpt>
      <trkpt lat="40.15477" lon="44.52935">
        <ele>993.159986</ele>
        <time>2021-08-14T06:02:01.675Z</time>
      </trkpt>
      <trkpt lat="40.15489" lon="44.52938">
        <ele>993.183235</ele>
        <time>2021-08-14T06:02:05.127Z</time>
      </trkpt>
      <trkpt lat="40.15522" lon="44.5293">
        <ele>993.247003</ele>
        <time>2021-08-14T06:02:16.181Z</time>
      </trkpt>
      <trkpt lat="40.15547" lon="44.52935">
        <ele>993.293944</ele>
        <time>2021-08-14T06:02:24.803Z</time>
      </trkpt>
      <trkpt lat="40.15557" lon="44.52923">
        <ele>993.30729</ele>
        <time>2021-08-14T06:02:28.555Z</time>
      </trkpt>
      <trkpt lat="40.15587" lon="44.52893">
        <ele>993.294092</ele>
        <time>2021-08-14T06:02:40.235Z</time>
      </trkpt>
      <trkpt lat="40.15603" lon="44.52864">
        <ele>993.284369</ele>
        <time>2021-08-14T06:02:48.962Z</time>
      </trkpt>
      <trkpt lat="40.15614" lon="44.52837">
        <ele>993.276138</ele>
        <time>2021-08-14T06:02:55.785Z</time>
      </trkpt>
      <trkpt lat="40.15618" lon="44.52822">
        <ele>993.271817</ele>
        <time>2021-08-14T06:02:59.429Z</time>
      </trkpt>
      <trkpt lat="40.1562" lon="44.52775">
        <ele>993.259122</ele>
        <time>2021-08-14T06:03:11.121Z</time>
      </trkpt>
      <trkpt lat="40.15614" lon="44.52751">
        <ele>993.252474</ele>
        <time>2021-08-14T06:03:17.285Z</time>
      </trkpt>
      <trkpt lat="40.15629" lon="44.52734">
        <ele>993.252004</ele>
        <time>2021-08-14T06:03:23.406Z</time>
      </trkpt>
      <trkpt lat="40.15617" lon="44.52681">
        <ele>993.749222</ele>
        <time>2021-08-14T06:03:41.282Z</time>
      </trkpt>
      <trkpt lat="40.15617" lon="44.52654">
        <ele>993.985579</ele>
        <time>2021-08-14T06:03:48.660Z</time>
      </trkpt>
      <trkpt lat="40.1561" lon="44.52634">
        <ele>994.187161</ele>
        <time>2021-08-14T06:03:56.155Z</time>
      </trkpt>
      <trkpt lat="40.15618" lon="44.52631">
        <ele>994.287303</ele>
        <time>2021-08-14T06:04:00.241Z</time>
      </trkpt>
      <trkpt lat="40.15629" lon="44.52605">
        <ele>994.552012</ele>
        <time>2021-08-14T06:04:08.273Z</time>
      </trkpt>
      <trkpt lat="40.15661" lon="44.52589">
        <ele>994.949607</ele>
        <time>2021-08-14T06:04:21.361Z</time>
      </trkpt>
      <trkpt lat="40.15664" lon="44.52585">
        <ele>995.001482</ele>
        <time>2021-08-14T06:04:24.556Z</time>
      </trkpt>
      <trkpt lat="40.15663" lon="44.52578">
        <ele>995.060682</ele>
        <time>2021-08-14T06:04:26.539Z</time>
      </trkpt>
      <trkpt lat="40.15646" lon="44.52533">
        <ele>995.335152</ele>
        <time>2021-08-14T06:04:42.089Z</time>
      </trkpt>
      <trkpt lat="40.15637" lon="44.52462">
        <ele>995.329074</ele>
        <time>2021-08-14T06:05:02.184Z</time>
      </trkpt>
      <trkpt lat="40.15624" lon="44.52424">
        <ele>995.325578</ele>
        <time>2021-08-14T06:05:12.253Z</time>
      </trkpt>
      <trkpt lat="40.15613" lon="44.52368">
        <ele>995.320755</ele>
        <time>2021-08-14T06:05:25.400Z</time>
      </trkpt>
      <trkpt lat="40.15612" lon="44.52323">
        <ele>995.311346</ele>
        <time>2021-08-14T06:05:34.930Z</time>
      </trkpt>
      <trkpt lat="40.15614" lon="44.52311">
        <ele>995.233672</ele>
        <time>2021-08-14T06:05:37.349Z</time>
      </trkpt>
      <trkpt lat="40.15619" lon="44.52283">
        <ele>995.052937</ele>
        <time>2021-08-14T06:05:43.392Z</time>
      </trkpt>
      <trkpt lat="40.15622" lon="44.52261">
        <ele>994.903451</ele>
        <time>2021-08-14T06:05:48.298Z</time>
      </trkpt>
      <trkpt lat="40.15615" lon="44.52247">
        <ele>994.79737</ele>
        <time>2021-08-14T06:05:51.794Z</time>
      </trkpt>
      <trkpt lat="40.15613" lon="44.52203">
        <ele>994.51571</ele>
        <time>2021-08-14T06:06:01.263Z</time>
      </trkpt>
      <trkpt lat="40.15634" lon="44.52134">
        <ele>994.034386</ele>
        <time>2021-08-14T06:06:17.879Z</time>
      </trkpt>
      <trkpt lat="40.15642" lon="44.52115">
        <ele>993.896345</ele>
        <time>2021-08-14T06:06:22.676Z</time>
      </trkpt>
      <trkpt lat="40.15674" lon="44.52072">
        <ele>993.829022</ele>
        <time>2021-08-14T06:06:37.089Z</time>
      </trkpt>
      <trkpt lat="40.1568" lon="44.52036">
        <ele>993.854233</ele>
        <time>2021-08-14T06:06:46.194Z</time>
      </trkpt>
      <trkpt lat="40.15694" lon="44.52012">
        <ele>993.874941</ele>
        <time>2021-08-14T06:06:53.704Z</time>
      </trkpt>
      <trkpt lat="40.1571" lon="44.5199">
        <ele>993.895984</ele>
        <time>2021-08-14T06:07:01.431Z</time>
      </trkpt>
      <trkpt lat="40.1578" lon="44.5192">
        <ele>994.34803</ele>
        <time>2021-08-14T06:07:31.351Z</time>
      </trkpt>
      <trkpt lat="40.15829" lon="44.51908">
        <ele>995.485813</ele>
        <time>2021-08-14T06:07:49.733Z</time>
      </trkpt>
      <trkpt lat="40.15859" lon="44.51892">
        <ele>996.222937</ele>
        <time>2021-08-14T06:08:02.902Z</time>
      </trkpt>
      <trkpt lat="40.15883" lon="44.51875">
        <ele>996.84384</ele>
        <time>2021-08-14T06:08:14.792Z</time>
      </trkpt>
      <trkpt lat="40.15889" lon="44.51857">
        <ele>997.183832</ele>
        <time>2021-08-14T06:08:22.509Z</time>
      </trkpt>
      <trkpt lat="40.1589" lon="44.51855">
        <ele>997.22591</ele>
        <time>2021-08-14T06:08:23.006Z</time>
      </trkpt>
      <trkpt lat="40.15899" lon="44.5186">
        <ele>997.444609</ele>
        <time>2021-08-14T06:08:31.183Z</time>
      </trkpt>
      <trkpt lat="40.15932" lon="44.51839">
        <ele>998.510047</ele>
        <time>2021-08-14T06:08:52.538Z</time>
      </trkpt>
      <trkpt lat="40.15962" lon="44.51838">
        <ele>999.954943</ele>
        <time>2021-08-14T06:09:08.190Z</time>
      </trkpt>
      <trkpt lat="40.15979" lon="44.5185">
        <ele>1000.904537</ele>
        <time>2021-08-14T06:09:20.886Z</time>
      </trkpt>
      <trkpt lat="40.15985" lon="44.5186">
        <ele>1001.374032</ele>
        <time>2021-08-14T06:09:27.979Z</time>
      </trkpt>
      <trkpt lat="40.15988" lon="44.51888">
        <ele>1002.437352</ele>
        <time>2021-08-14T06:09:40.842Z</time>
      </trkpt>
      <trkpt lat="40.15992" lon="44.51908">
        <ele>1003.194099</ele>
        <time>2021-08-14T06:09:51.198Z</time>
      </trkpt>
      <trkpt lat="40.15997" lon="44.51918">
        <ele>1003.637229</ele>
        <time>2021-08-14T06:09:56.434Z</time>
      </trkpt>
      <trkpt lat="40.15998" lon="44.5192">
        <ele>1003.722878</ele>
        <time>2021-08-14T06:09:59.276Z</time>
      </trkpt>
      <trkpt lat="40.16022" lon="44.51962">
        <ele>1005.689571</ele>
        <time>2021-08-14T06:10:21.652Z</time>
      </trkpt>
      <trkpt lat="40.16038" lon="44.51982">
        <ele>1006.774648</ele>
        <time>2021-08-14T06:10:34.621Z</time>
      </trkpt>
      <trkpt lat="40.16062" lon="44.51999">
        <ele>1007.650687</ele>
        <time>2021-08-14T06:10:48.305Z</time>
      </trkpt>
      <trkpt lat="40.16066" lon="44.52001">
        <ele>1007.786168</ele>
        <time>2021-08-14T06:10:52.535Z</time>
      </trkpt>
      <trkpt lat="40.16087" lon="44.52014">
        <ele>1008.559328</ele>
        <time>2021-08-14T06:11:03.997Z</time>
      </trkpt>
      <trkpt lat="40.16109" lon="44.52026">
        <ele>1009.310424</ele>
        <time>2021-08-14T06:11:18.495Z</time>
      </trkpt>
      <trkpt lat="40.16114" lon="44.52021">
        <ele>1009.528312</ele>
        <time>2021-08-14T06:11:23.250Z</time>
      </trkpt>
      <trkpt lat="40.16117" lon="44.52014">
        <ele>1009.717686</ele>
        <time>2021-08-14T06:11:24.753Z</time>
      </trkpt>
      <trkpt lat="40.16144" lon="44.5203">
        <ele>1010.687368</ele>
        <time>2021-08-14T06:11:38.854Z</time>
      </trkpt>
      <trkpt lat="40.16237" lon="44.52076">
        <ele>1013.475497</ele>
        <time>2021-08-14T06:12:21.249Z</time>
      </trkpt>
      <trkpt lat="40.16279" lon="44.52108">
        <ele>1014.519443</ele>
        <time>2021-08-14T06:12:43.512Z</time>
      </trkpt>
      <trkpt lat="40.16373" lon="44.52208">
        <ele>1015.917087</ele>
        <time>2021-08-14T06:13:37.636Z</time>
      </trkpt>
      <trkpt lat="40.16473" lon="44.52265">
        <ele>1013.717114</ele>
        <time>2021-08-14T06:14:05.552Z</time>
      </trkpt>
      <trkpt lat="40.16512" lon="44.52287">
        <ele>1012.852211</ele>
        <time>2021-08-14T06:14:14.210Z</time>
      </trkpt>
      <trkpt lat="40.16516" lon="44.52286">
        <ele>1012.472562</ele>
        <time>2021-08-14T06:14:15.163Z</time>
      </trkpt>
      <trkpt lat="40.16541" lon="44.52292">
        <ele>1010.575114</ele>
        <time>2021-08-14T06:14:20.257Z</time>
      </trkpt>
      <trkpt lat="40.16548" lon="44.5229">
        <ele>1010.050297</ele>
        <time>2021-08-14T06:14:21.593Z</time>
      </trkpt>
      <trkpt lat="40.16543" lon="44.52272">
        <ele>1008.923427</ele>
        <time>2021-08-14T06:14:24.453Z</time>
      </trkpt>
      <trkpt lat="40.16526" lon="44.52247">
        <ele>1006.981432</ele>
        <time>2021-08-14T06:14:29.434Z</time>
      </trkpt>
      <trkpt lat="40.16518" lon="44.52224">
        <ele>1005.459456</ele>
        <time>2021-08-14T06:14:33.320Z</time>
      </trkpt>
      <trkpt lat="40.16508" lon="44.52188">
        <ele>1003.259391</ele>
        <time>2021-08-14T06:14:38.817Z</time>
      </trkpt>
      <trkpt lat="40.16693" lon="44.52104">
        <ele>990.114164</ele>
        <time>2021-08-14T06:15:17.380Z</time>
      </trkpt>
      <trkpt lat="40.16698" lon="44.52102">
        <ele>989.756678</ele>
        <time>2021-08-14T06:15:18.626Z</time>
      </trkpt>
      <trkpt lat="40.16724" lon="44.5209">
        <ele>988.002071</ele>
        <time>2021-08-14T06:15:24.833Z</time>
      </trkpt>
      <trkpt lat="40.16732" lon="44.52086">
        <ele>987.655685</ele>
        <time>2021-08-14T06:15:26.812Z</time>
      </trkpt>
      <trkpt lat="40.16746" lon="44.5208">
        <ele>987.677271</ele>
        <time>2021-08-14T06:15:30.288Z</time>
      </trkpt>
      <trkpt lat="40.1676" lon="44.52074">
        <ele>987.700317</ele>
        <time>2021-08-14T06:15:33.996Z</time>
      </trkpt>
      <trkpt lat="40.16776" lon="44.52067">
        <ele>987.725393</ele>
        <time>2021-08-14T06:15:38.513Z</time>
      </trkpt>
      <trkpt lat="40.16826" lon="44.52046">
        <ele>987.803935</ele>
        <time>2021-08-14T06:15:55.855Z</time>
      </trkpt>
      <trkpt lat="40.1691" lon="44.52007">
        <ele>988.177328</ele>
        <time>2021-08-14T06:16:34.239Z</time>
      </trkpt>
      <trkpt lat="40.16938" lon="44.51993">
        <ele>988.895799</ele>
        <time>2021-08-14T06:16:47.583Z</time>
      </trkpt>
      <trkpt lat="40.16957" lon="44.51984">
        <ele>989.386065</ele>
        <time>2021-08-14T06:16:56.858Z</time>
      </trkpt>
      <trkpt lat="40.16989" lon="44.5197">
        <ele>990.187741</ele>
        <time>2021-08-14T06:17:11.861Z</time>
      </trkpt>
      <trkpt lat="40.16992" lon="44.51968">
        <ele>990.266465</ele>
        <time>2021-08-14T06:17:13.451Z</time>
      </trkpt>
      <trkpt lat="40.17011" lon="44.51959">
        <ele>990.746535</ele>
        <time>2021-08-14T06:17:22.498Z</time>
      </trkpt>
      <trkpt lat="40.17021" lon="44.51955">
        <ele>990.984325</ele>
        <time>2021-08-14T06:17:27.379Z</time>
      </trkpt>
      <trkpt lat="40.17063" lon="44.51935">
        <ele>992.062336</ele>
        <time>2021-08-14T06:17:48.447Z</time>
      </trkpt>
      <trkpt lat="40.1709" lon="44.52005">
        <ele>992.687798</ele>
        <time>2021-08-14T06:18:13.228Z</time>
      </trkpt>
      <trkpt lat="40.17099" lon="44.5203">
        <ele>992.876048</ele>
        <time>2021-08-14T06:18:21.059Z</time>
      </trkpt>
      <trkpt lat="40.17111" lon="44.52061">
        <ele>993.115272</ele>
        <time>2021-08-14T06:18:30.508Z</time>
      </trkpt>
      <trkpt lat="40.17129" lon="44.52107">
        <ele>993.463715</ele>
        <time>2021-08-14T06:18:43.272Z</time>
      </trkpt>
      <trkpt lat="40.17151" lon="44.52165">
        <ele>993.743851</ele>
        <time>2021-08-14T06:18:58.269Z</time>
      </trkpt>
      <trkpt lat="40.17155" lon="44.52176">
        <ele>993.679411</ele>
        <time>2021-08-14T06:19:01.270Z</time>
      </trkpt>
      <trkpt lat="40.17168" lon="44.52175">
        <ele>993.589901</ele>
        <time>2021-08-14T06:19:05.424Z</time>
      </trkpt>
      <trkpt lat="40.17188" lon="44.52172">
        <ele>993.454908</ele>
        <time>2021-08-14T06:19:11.349Z</time>
      </trkpt>
      <trkpt lat="40.17256" lon="44.52163">
        <ele>992.992163</ele>
        <time>2021-08-14T06:19:30.445Z</time>
      </trkpt>
      <trkpt lat="40.17291" lon="44.52157">
        <ele>992.750266</ele>
        <time>2021-08-14T06:19:39.655Z</time>
      </trkpt>
      <trkpt lat="40.17318" lon="44.52153">
        <ele>992.572271</ele>
        <time>2021-08-14T06:19:46.679Z</time>
      </trkpt>
      <trkpt lat="40.17366" lon="44.52145">
        <ele>992.339318</ele>
        <time>2021-08-14T06:19:59.441Z</time>
      </trkpt>
      <trkpt lat="40.17384" lon="44.52141">
        <ele>992.250987</ele>
        <time>2021-08-14T06:20:04.548Z</time>
      </trkpt>
      <trkpt lat="40.17397" lon="44.52134">
        <ele>992.185659</ele>
        <time>2021-08-14T06:20:08.226Z</time>
      </trkpt>
      <trkpt lat="40.17429" lon="44.52114">
        <ele>992.014474</ele>
        <time>2021-08-14T06:20:18.711Z</time>
      </trkpt>
      <trkpt lat="40.17503" lon="44.52058">
        <ele>992.024907</ele>
        <time>2021-08-14T06:20:46.594Z</time>
      </trkpt>
      <trkpt lat="40.17529" lon="44.52036">
        <ele>992.396724</ele>
        <time>2021-08-14T06:20:57.245Z</time>
      </trkpt>
      <trkpt lat="40.17606" lon="44.51978">
        <ele>993.44307</ele>
        <time>2021-08-14T06:21:31.764Z</time>
      </trkpt>
      <trkpt lat="40.1763" lon="44.51959">
        <ele>993.782182</ele>
        <time>2021-08-14T06:21:43.565Z</time>
      </trkpt>
      <trkpt lat="40.17644" lon="44.51949">
        <ele>994.009538</ele>
        <time>2021-08-14T06:21:49.931Z</time>
      </trkpt>
      <trkpt lat="40.17686" lon="44.51916">
        <ele>994.84086</ele>
        <time>2021-08-14T06:22:10.543Z</time>
      </trkpt>
      <trkpt lat="40.17719" lon="44.51892">
        <ele>995.473699</ele>
        <time>2021-08-14T06:22:25.826Z</time>
      </trkpt>
      <trkpt lat="40.17764" lon="44.51858">
        <ele>996.34954</ele>
        <time>2021-08-14T06:22:46.458Z</time>
      </trkpt>
      <trkpt lat="40.17773" lon="44.51851">
        <ele>996.524708</ele>
        <time>2021-08-14T06:22:50.508Z</time>
      </trkpt>
      <trkpt lat="40.17779" lon="44.51846">
        <ele>996.648142</ele>
        <time>2021-08-14T06:22:53.430Z</time>
      </trkpt>
      <trkpt lat="40.17856" lon="44.51788">
        <ele>998.346616</ele>
        <time>2021-08-14T06:23:30.130Z</time>
      </trkpt>
      <trkpt lat="40.17867" lon="44.5178">
        <ele>998.601874</ele>
        <time>2021-08-14T06:23:35.308Z</time>
      </trkpt>
      <trkpt lat="40.17934" lon="44.51729">
        <ele>1000.101238</ele>
        <time>2021-08-14T06:24:07.860Z</time>
      </trkpt>
      <trkpt lat="40.17939" lon="44.51725">
        <ele>1000.219367</ele>
        <time>2021-08-14T06:24:11.039Z</time>
      </trkpt>
      <trkpt lat="40.17946" lon="44.51725">
        <ele>1000.35871</ele>
        <time>2021-08-14T06:24:14.169Z</time>
      </trkpt>
      <trkpt lat="40.17959" lon="44.51724">
        <ele>1000.64289</ele>
        <time>2021-08-14T06:24:19.396Z</time>
      </trkpt>
      <trkpt lat="40.17965" lon="44.51724">
        <ele>1000.788578</ele>
        <time>2021-08-14T06:24:22.171Z</time>
      </trkpt>
      <trkpt lat="40.17967" lon="44.51726">
        <ele>1000.855013</ele>
        <time>2021-08-14T06:24:23.300Z</time>
      </trkpt>
      <trkpt lat="40.17971" lon="44.51727">
        <ele>1000.947653</ele>
        <time>2021-08-14T06:24:25.240Z</time>
      </trkpt>
      <trkpt lat="40.17974" lon="44.51727">
        <ele>1001.01031</ele>
        <time>2021-08-14T06:24:26.710Z</time>
      </trkpt>
      <trkpt lat="40.17975" lon="44.51727">
        <ele>1001.040578</ele>
        <time>2021-08-14T06:24:27.403Z</time>
      </trkpt>
      <trkpt lat="40.17982" lon="44.51721">
        <ele>1001.223486</ele>
        <time>2021-08-14T06:24:30.697Z</time>
      </trkpt>
      <trkpt lat="40.17984" lon="44.51717">
        <ele>1001.302476</ele>
        <time>2021-08-14T06:24:32.085Z</time>
      </trkpt>
      <trkpt lat="40.17984" lon="44.51716">
        <ele>1001.320143</ele>
        <time>2021-08-14T06:24:32.411Z</time>
      </trkpt>
      <trkpt lat="40.17984" lon="44.51711">
        <ele>1001.412474</ele>
        <time>2021-08-14T06:24:34.107Z</time>
      </trkpt>
      <trkpt lat="40.17984" lon="44.51709">
        <ele>1001.440836</ele>
        <time>2021-08-14T06:24:34.625Z</time>
      </trkpt>
      <trkpt lat="40.18012" lon="44.51724">
        <ele>1002.129194</ele>
        <time>2021-08-14T06:24:47.669Z</time>
      </trkpt>
      <trkpt lat="40.18013" lon="44.51725">
        <ele>1002.171598</ele>
        <time>2021-08-14T06:24:48.447Z</time>
      </trkpt>
      <trkpt lat="40.18015" lon="44.51725">
        <ele>1002.210607</ele>
        <time>2021-08-14T06:24:49.175Z</time>
      </trkpt>
      <trkpt lat="40.18018" lon="44.51727">
        <ele>1002.278206</ele>
        <time>2021-08-14T06:24:50.393Z</time>
      </trkpt>
      <trkpt lat="40.1803" lon="44.51732">
        <ele>1002.585907</ele>
        <time>2021-08-14T06:24:56.431Z</time>
      </trkpt>
      <trkpt lat="40.18035" lon="44.51734">
        <ele>1002.695243</ele>
        <time>2021-08-14T06:24:59.232Z</time>
      </trkpt>
      <trkpt lat="40.18047" lon="44.51737">
        <ele>1002.977414</ele>
        <time>2021-08-14T06:25:04.218Z</time>
      </trkpt>
      <trkpt lat="40.18052" lon="44.51737">
        <ele>1003.09998</ele>
        <time>2021-08-14T06:25:06.413Z</time>
      </trkpt>
      <trkpt lat="40.18055" lon="44.51782">
        <ele>1003.903482</ele>
        <time>2021-08-14T06:25:22.439Z</time>
      </trkpt>
      <trkpt lat="40.181" lon="44.51852">
        <ele>1005.147446</ele>
        <time>2021-08-14T06:25:52.757Z</time>
      </trkpt>
      <trkpt lat="40.18111" lon="44.51857">
        <ele>1005.312505</ele>
        <time>2021-08-14T06:25:57.404Z</time>
      </trkpt>
      <trkpt lat="40.1812" lon="44.51858">
        <ele>1005.43244</ele>
        <time>2021-08-14T06:26:01.423Z</time>
      </trkpt>
      <trkpt lat="40.18126" lon="44.51863">
        <ele>1005.525321</ele>
        <time>2021-08-14T06:26:04.052Z</time>
      </trkpt>
      <trkpt lat="40.18134" lon="44.51874">
        <ele>1005.70108</ele>
        <time>2021-08-14T06:26:08.784Z</time>
      </trkpt>
      <trkpt lat="40.18137" lon="44.51879">
        <ele>1005.760113</ele>
        <time>2021-08-14T06:26:10.382Z</time>
      </trkpt>
      <trkpt lat="40.18143" lon="44.51888">
        <ele>1005.890437</ele>
        <time>2021-08-14T06:26:14.126Z</time>
      </trkpt>
      <trkpt lat="40.18161" lon="44.51862">
        <ele>1006.267244</ele>
        <time>2021-08-14T06:26:23.992Z</time>
      </trkpt>
      <trkpt lat="40.18183" lon="44.51831">
        <ele>1006.716212</ele>
        <time>2021-08-14T06:26:35.324Z</time>
      </trkpt>
      <trkpt lat="40.18206" lon="44.518">
        <ele>1007.079604</ele>
        <time>2021-08-14T06:26:47.233Z</time>
      </trkpt>
      <trkpt lat="40.18238" lon="44.51754">
        <ele>1006.864236</ele>
        <time>2021-08-14T06:27:03.793Z</time>
      </trkpt>
      <trkpt lat="40.18246" lon="44.51742">
        <ele>1006.808423</ele>
        <time>2021-08-14T06:27:07.667Z</time>
      </trkpt>
      <trkpt lat="40.18257" lon="44.51727">
        <ele>1006.739922</ele>
        <time>2021-08-14T06:27:12.390Z</time>
      </trkpt>
      <trkpt lat="40.1828" lon="44.51695">
        <ele>1006.585853</ele>
        <time>2021-08-14T06:27:21.960Z</time>
      </trkpt>
      <trkpt lat="40.18289" lon="44.51682">
        <ele>1006.522659</ele>
        <time>2021-08-14T06:27:25.604Z</time>
      </trkpt>
      <trkpt lat="40.18335" lon="44.51617">
        <ele>1006.114877</ele>
        <time>2021-08-14T06:27:42.654Z</time>
      </trkpt>
      <trkpt lat="40.18365" lon="44.51574">
        <ele>1005.637247</ele>
        <time>2021-08-14T06:27:54.160Z</time>
      </trkpt>
      <trkpt lat="40.18373" lon="44.51564">
        <ele>1005.522657</ele>
        <time>2021-08-14T06:27:57.035Z</time>
      </trkpt>
      <trkpt lat="40.18382" lon="44.5155">
        <ele>1005.365665</ele>
        <time>2021-08-14T06:28:00.902Z</time>
      </trkpt>
      <trkpt lat="40.18405" lon="44.51517">
        <ele>1004.998242</ele>
        <time>2021-08-14T06:28:10.218Z</time>
      </trkpt>
      <trkpt lat="40.18416" lon="44.51502">
        <ele>1004.824348</ele>
        <time>2021-08-14T06:28:14.726Z</time>
      </trkpt>
      <trkpt lat="40.18425" lon="44.5149">
        <ele>1004.688874</ele>
        <time>2021-08-14T06:28:18.075Z</time>
      </trkpt>
      <trkpt lat="40.18452" lon="44.51452">
        <ele>1004.4001</ele>
        <time>2021-08-14T06:28:28.622Z</time>
      </trkpt>
      <trkpt lat="40.18457" lon="44.51446">
        <ele>1004.443624</ele>
        <time>2021-08-14T06:28:30.539Z</time>
      </trkpt>
      <trkpt lat="40.18463" lon="44.51436">
        <ele>1004.503427</ele>
        <time>2021-08-14T06:28:33.309Z</time>
      </trkpt>
      <trkpt lat="40.18481" lon="44.51412">
        <ele>1004.665609</ele>
        <time>2021-08-14T06:28:40.823Z</time>
      </trkpt>
      <trkpt lat="40.18541" lon="44.51328">
        <ele>1005.208533</ele>
        <time>2021-08-14T06:29:13.204Z</time>
      </trkpt>
      <trkpt lat="40.18546" lon="44.51321">
        <ele>1005.254991</ele>
        <time>2021-08-14T06:29:16.412Z</time>
      </trkpt>
      <trkpt lat="40.18554" lon="44.51312">
        <ele>1005.318738</ele>
        <time>2021-08-14T06:29:20.699Z</time>
      </trkpt>
      <trkpt lat="40.1856" lon="44.51302">
        <ele>1005.378967</ele>
        <time>2021-08-14T06:29:24.236Z</time>
      </trkpt>
      <trkpt lat="40.1861" lon="44.51232">
        <ele>1006.480231</ele>
        <time>2021-08-14T06:29:53.115Z</time>
      </trkpt>
      <trkpt lat="40.18627" lon="44.51208">
        <ele>1006.907993</ele>
        <time>2021-08-14T06:30:03.590Z</time>
      </trkpt>
      <trkpt lat="40.18634" lon="44.51199">
        <ele>1007.073311</ele>
        <time>2021-08-14T06:30:07.046Z</time>
      </trkpt>
      <trkpt lat="40.18643" lon="44.5121">
        <ele>1007.287817</ele>
        <time>2021-08-14T06:30:12.467Z</time>
      </trkpt>
      <trkpt lat="40.18658" lon="44.51225">
        <ele>1007.60269</ele>
        <time>2021-08-14T06:30:19.908Z</time>
      </trkpt>
      <trkpt lat="40.18656" lon="44.51254">
        <ele>1007.977889</ele>
        <time>2021-08-14T06:30:29.474Z</time>
      </trkpt>
      <trkpt lat="40.18655" lon="44.51276">
        <ele>1008.265173</ele>
        <time>2021-08-14T06:30:36.273Z</time>
      </trkpt>
      <trkpt lat="40.18661" lon="44.51276">
        <ele>1008.356201</ele>
        <time>2021-08-14T06:30:38.566Z</time>
      </trkpt>
      <trkpt lat="40.18689" lon="44.51278">
        <ele>1008.859861</ele>
        <time>2021-08-14T06:30:50.510Z</time>
      </trkpt>
      <trkpt lat="40.18705" lon="44.5127">
        <ele>1009.170578</ele>
        <time>2021-08-14T06:30:57.681Z</time>
      </trkpt>
      <trkpt lat="40.1872" lon="44.51273">
        <ele>1009.456116</ele>
        <time>2021-08-14T06:31:03.882Z</time>
      </trkpt>
      <trkpt lat="40.18742" lon="44.51323">
        <ele>1010.267815</ele>
        <time>2021-08-14T06:31:21.050Z</time>
      </trkpt>
      <trkpt lat="40.18749" lon="44.51333">
        <ele>1010.462243</ele>
        <time>2021-08-14T06:31:25.309Z</time>
      </trkpt>
      <trkpt lat="40.18749" lon="44.51336">
        <ele>1010.501774</ele>
        <time>2021-08-14T06:31:26.115Z</time>
      </trkpt>
      <trkpt lat="40.18748" lon="44.51357">
        <ele>1010.805853</ele>
        <time>2021-08-14T06:31:32.695Z</time>
      </trkpt>
      <trkpt lat="40.18748" lon="44.5137">
        <ele>1010.986016</ele>
        <time>2021-08-14T06:31:36.746Z</time>
      </trkpt>
      <trkpt lat="40.18747" lon="44.51377">
        <ele>1011.084568</ele>
        <time>2021-08-14T06:31:39.207Z</time>
      </trkpt>
      <trkpt lat="40.18823" lon="44.51385">
        <ele>1012.663267</ele>
        <time>2021-08-14T06:32:12.193Z</time>
      </trkpt>
      <trkpt lat="40.18838" lon="44.51386">
        <ele>1013.020857</ele>
        <time>2021-08-14T06:32:18.700Z</time>
      </trkpt>
      <trkpt lat="40.1884" lon="44.5141">
        <ele>1013.446269</ele>
        <time>2021-08-14T06:32:26.840Z</time>
      </trkpt>
      <trkpt lat="40.18841" lon="44.51429">
        <ele>1013.800726</ele>
        <time>2021-08-14T06:32:33.490Z</time>
      </trkpt>
      <trkpt lat="40.18859" lon="44.51413">
        <ele>1014.306151</ele>
        <time>2021-08-14T06:32:43.163Z</time>
      </trkpt>
      <trkpt lat="40.18879" lon="44.51396">
        <ele>1014.876218</ele>
        <time>2021-08-14T06:32:54.369Z</time>
      </trkpt>
      <trkpt lat="40.18937" lon="44.51345">
        <ele>1016.560508</ele>
        <time>2021-08-14T06:33:25.535Z</time>
      </trkpt>
      <trkpt lat="40.1898" lon="44.51309">
        <ele>1017.822854</ele>
        <time>2021-08-14T06:33:47.771Z</time>
      </trkpt>
      <trkpt lat="40.19013" lon="44.51279">
        <ele>1018.832273</ele>
        <time>2021-08-14T06:34:06.052Z</time>
      </trkpt>
      <trkpt lat="40.19019" lon="44.51289">
        <ele>1019.071425</ele>
        <time>2021-08-14T06:34:10.336Z</time>
      </trkpt>
      <trkpt lat="40.19045" lon="44.51343">
        <ele>1020.285188</ele>
        <time>2021-08-14T06:34:32.122Z</time>
      </trkpt>
      <trkpt lat="40.19113" lon="44.51282">
        <ele>1022.457753</ele>
        <time>2021-08-14T06:35:10.953Z</time>
      </trkpt>
      <trkpt lat="40.19141" lon="44.51241">
        <ele>1023.579739</ele>
        <time>2021-08-14T06:35:29.295Z</time>
      </trkpt>
      <trkpt lat="40.19173" lon="44.51186">
        <ele>1025.004782</ele>
        <time>2021-08-14T06:35:53.812Z</time>
      </trkpt>
      <trkpt lat="40.19195" lon="44.51132">
        <ele>1026.652675</ele>
        <time>2021-08-14T06:36:14.997Z</time>
      </trkpt>
      <trkpt lat="40.19213" lon="44.51078">
        <ele>1028.445317</ele>
        <time>2021-08-14T06:36:38.776Z</time>
      </trkpt>
      <trkpt lat="40.19224" lon="44.50998">
        <ele>1030.936083</ele>
        <time>2021-08-14T06:37:14.865Z</time>
      </trkpt>
      <trkpt lat="40.19227" lon="44.5096">
        <ele>1032.114481</ele>
        <time>2021-08-14T06:37:31.982Z</time>
      </trkpt>
      <trkpt lat="40.1929" lon="44.50975">
        <ele>1034.910179</ele>
        <time>2021-08-14T06:38:06.613Z</time>
      </trkpt>
      <trkpt lat="40.19316" lon="44.5093">
        <ele>1036.814519</ele>
        <time>2021-08-14T06:38:29.398Z</time>
      </trkpt>
      <trkpt lat="40.19323" lon="44.50912">
        <ele>1037.516216</ele>
        <time>2021-08-14T06:38:37.321Z</time>
      </trkpt>
      <trkpt lat="40.19326" lon="44.50891">
        <ele>1038.242675</ele>
        <time>2021-08-14T06:38:48.748Z</time>
      </trkpt>
      <trkpt lat="40.19325" lon="44.50867">
        <ele>1039.047236</ele>
        <time>2021-08-14T06:38:57.766Z</time>
      </trkpt>
      <trkpt lat="40.19311" lon="44.50804">
        <ele>1041.364218</ele>
        <time>2021-08-14T06:39:29.179Z</time>
      </trkpt>
      <trkpt lat="40.19305" lon="44.50787">
        <ele>1042.098101</ele>
        <time>2021-08-14T06:39:36.283Z</time>
      </trkpt>
      <trkpt lat="40.19304" lon="44.50766">
        <ele>1042.887372</ele>
        <time>2021-08-14T06:39:44.525Z</time>
      </trkpt>
      <trkpt lat="40.19304" lon="44.50757">
        <ele>1043.240898</ele>
        <time>2021-08-14T06:39:49.722Z</time>
      </trkpt>
      <trkpt lat="40.19308" lon="44.50685">
        <ele>1046.010101</ele>
        <time>2021-08-14T06:40:18.388Z</time>
      </trkpt>
      <trkpt lat="40.19341" lon="44.50689">
        <ele>1047.692479</ele>
        <time>2021-08-14T06:40:39.469Z</time>
      </trkpt>
      <trkpt lat="40.19358" lon="44.50687">
        <ele>1048.568382</ele>
        <time>2021-08-14T06:40:50.568Z</time>
      </trkpt>
      <trkpt lat="40.19365" lon="44.50688">
        <ele>1048.924567</ele>
        <time>2021-08-14T06:40:56.113Z</time>
      </trkpt>
      <trkpt lat="40.19385" lon="44.50621">
        <ele>1051.521463</ele>
        <time>2021-08-14T06:41:33.239Z</time>
      </trkpt>
      <trkpt lat="40.1939" lon="44.50604">
        <ele>1052.154455</ele>
        <time>2021-08-14T06:41:42.568Z</time>
      </trkpt>
      <trkpt lat="40.19405" lon="44.50572">
        <ele>1053.501511</ele>
        <time>2021-08-14T06:42:00.452Z</time>
      </trkpt>
      <trkpt lat="40.19415" lon="44.50555">
        <ele>1054.236531</ele>
        <time>2021-08-14T06:42:10.648Z</time>
      </trkpt>
      <trkpt lat="40.19446" lon="44.50527">
        <ele>1055.984375</ele>
        <time>2021-08-14T06:42:31.916Z</time>
      </trkpt>
      <trkpt lat="40.19478" lon="44.50523">
        <ele>1057.473348</ele>
        <time>2021-08-14T06:42:47.470Z</time>
      </trkpt>
      <trkpt lat="40.19487" lon="44.50526">
        <ele>1057.896954</ele>
        <time>2021-08-14T06:42:52.190Z</time>
      </trkpt>
      <trkpt lat="40.19493" lon="44.50523">
        <ele>1058.025488</ele>
        <time>2021-08-14T06:42:54.897Z</time>
      </trkpt>
      <trkpt lat="40.195" lon="44.50518">
        <ele>1058.048097</ele>
        <time>2021-08-14T06:42:58.896Z</time>
      </trkpt>
      <trkpt lat="40.19476" lon="44.50506">
        <ele>1058.119011</ele>
        <time>2021-08-14T06:43:08.902Z</time>
      </trkpt>
      <trkpt lat="40.19446" lon="44.50495">
        <ele>1058.20391</ele>
        <time>2021-08-14T06:43:19.781Z</time>
      </trkpt>
      <trkpt lat="40.19373" lon="44.50517">
        <ele>1058.405378</ele>
        <time>2021-08-14T06:43:40.318Z</time>
      </trkpt>
      <trkpt lat="40.19354" lon="44.50516">
        <ele>1058.456816</ele>
        <time>2021-08-14T06:43:45.309Z</time>
      </trkpt>
      <trkpt lat="40.19301" lon="44.50483">
        <ele>1059.496941</ele>
        <time>2021-08-14T06:44:01.901Z</time>
      </trkpt>
      <trkpt lat="40.19291" lon="44.50464">
        <ele>1059.920558</ele>
        <time>2021-08-14T06:44:07.959Z</time>
      </trkpt>
      <trkpt lat="40.19294" lon="44.50413">
        <ele>1060.835197</ele>
        <time>2021-08-14T06:44:25.189Z</time>
      </trkpt>
      <trkpt lat="40.19302" lon="44.50413">
        <ele>1061.027493</ele>
        <time>2021-08-14T06:44:29.293Z</time>
      </trkpt>
      <trkpt lat="40.19311" lon="44.50405">
        <ele>1061.276539</ele>
        <time>2021-08-14T06:44:35.447Z</time>
      </trkpt>
      <trkpt lat="40.19317" lon="44.50386">
        <ele>1061.651536</ele>
        <time>2021-08-14T06:44:42.378Z</time>
      </trkpt>
      <trkpt lat="40.19343" lon="44.5028">
        <ele>1065.661842</ele>
        <time>2021-08-14T06:45:32.858Z</time>
      </trkpt>
      <trkpt lat="40.19347" lon="44.50276">
        <ele>1066.034926</ele>
        <time>2021-08-14T06:45:37.755Z</time>
      </trkpt>
      <trkpt lat="40.1936" lon="44.5028">
        <ele>1067.015701</ele>
        <time>2021-08-14T06:45:45.674Z</time>
      </trkpt>
      <trkpt lat="40.19385" lon="44.50326">
        <ele>1070.188118</ele>
        <time>2021-08-14T06:46:16.913Z</time>
      </trkpt>
      <trkpt lat="40.19414" lon="44.50354">
        <ele>1072.876993</ele>
        <time>2021-08-14T06:46:45.934Z</time>
      </trkpt>
      <trkpt lat="40.19443" lon="44.50381">
        <ele>1075.5434</ele>
        <time>2021-08-14T06:47:15.642Z</time>
      </trkpt>
      <trkpt lat="40.19455" lon="44.50387">
        <ele>1076.611324</ele>
        <time>2021-08-14T06:47:27.123Z</time>
      </trkpt>
      <trkpt lat="40.19469" lon="44.50398">
        <ele>1078.1781</ele>
        <time>2021-08-14T06:47:40.401Z</time>
      </trkpt>
      <trkpt lat="40.19483" lon="44.50405">
        <ele>1079.529568</ele>
        <time>2021-08-14T06:47:52.259Z</time>
      </trkpt>
      <trkpt lat="40.19505" lon="44.50405">
        <ele>1081.645882</ele>
        <time>2021-08-14T06:48:09.398Z</time>
      </trkpt>
      <trkpt lat="40.19521" lon="44.504">
        <ele>1083.183038</ele>
        <time>2021-08-14T06:48:23.783Z</time>
      </trkpt>
      <trkpt lat="40.19563" lon="44.5037">
        <ele>1087.729033</ele>
        <time>2021-08-14T06:49:05.274Z</time>
      </trkpt>
      <trkpt lat="40.19675" lon="44.50292">
        <ele>1099.251024</ele>
        <time>2021-08-14T06:50:55.465Z</time>
      </trkpt>
      <trkpt lat="40.19685" lon="44.50284">
        <ele>1100.303366</ele>
        <time>2021-08-14T06:51:06.286Z</time>
      </trkpt>
      <trkpt lat="40.19734" lon="44.5025">
        <ele>1105.276423</ele>
        <time>2021-08-14T06:51:50.478Z</time>
      </trkpt>
      <trkpt lat="40.19783" lon="44.50217">
        <ele>1109.772069</ele>
        <time>2021-08-14T06:52:32.895Z</time>
      </trkpt>
      <trkpt lat="40.1986" lon="44.50163">
        <ele>1114.741297</ele>
        <time>2021-08-14T06:53:31.294Z</time>
      </trkpt>
      <trkpt lat="40.19868" lon="44.50158">
        <ele>1115.236795</ele>
        <time>2021-08-14T06:53:36.749Z</time>
      </trkpt>
      <trkpt lat="40.19877" lon="44.50152">
        <ele>1115.842294</ele>
        <time>2021-08-14T06:53:43.630Z</time>
      </trkpt>
      <trkpt lat="40.1996" lon="44.50095">
        <ele>1119.855335</ele>
        <time>2021-08-14T06:54:32.942Z</time>
      </trkpt>
      <trkpt lat="40.19968" lon="44.50089">
        <ele>1120.024098</ele>
        <time>2021-08-14T06:54:37.432Z</time>
      </trkpt>
      <trkpt lat="40.19977" lon="44.50083">
        <ele>1120.198712</ele>
        <time>2021-08-14T06:54:42.025Z</time>
      </trkpt>
      <trkpt lat="40.20025" lon="44.5005">
        <ele>1121.144152</ele>
        <time>2021-08-14T06:55:03.425Z</time>
      </trkpt>
      <trkpt lat="40.20051" lon="44.50033">
        <ele>1121.642431</ele>
        <time>2021-08-14T06:55:14.089Z</time>
      </trkpt>
      <trkpt lat="40.2006" lon="44.50027">
        <ele>1121.820741</ele>
        <time>2021-08-14T06:55:17.752Z</time>
      </trkpt>
      <trkpt lat="40.20067" lon="44.50022">
        <ele>1121.958091</ele>
        <time>2021-08-14T06:55:20.587Z</time>
      </trkpt>
      <trkpt lat="40.20077" lon="44.50015">
        <ele>1122.153955</ele>
        <time>2021-08-14T06:55:24.512Z</time>
      </trkpt>
      <trkpt lat="40.20084" lon="44.5001">
        <ele>1122.291926</ele>
        <time>2021-08-14T06:55:27.044Z</time>
      </trkpt>
      <trkpt lat="40.20175" lon="44.49947">
        <ele>1122.322981</ele>
        <time>2021-08-14T06:55:57.989Z</time>
      </trkpt>
      <trkpt lat="40.20245" lon="44.49899">
        <ele>1122.236953</ele>
        <time>2021-08-14T06:56:21.591Z</time>
      </trkpt>
      <trkpt lat="40.20266" lon="44.49884">
        <ele>1122.254293</ele>
        <time>2021-08-14T06:56:28.688Z</time>
      </trkpt>
      <trkpt lat="40.20278" lon="44.49876">
        <ele>1122.270273</ele>
        <time>2021-08-14T06:56:32.858Z</time>
      </trkpt>
      <trkpt lat="40.2029" lon="44.49868">
        <ele>1122.286554</ele>
        <time>2021-08-14T06:56:36.973Z</time>
      </trkpt>
      <trkpt lat="40.20299" lon="44.49868">
        <ele>1122.297585</ele>
        <time>2021-08-14T06:56:39.660Z</time>
      </trkpt>
      <trkpt lat="40.20307" lon="44.49868">
        <ele>1122.307411</ele>
        <time>2021-08-14T06:56:42.423Z</time>
      </trkpt>
      <trkpt lat="40.20389" lon="44.4981">
        <ele>1122.420323</ele>
        <time>2021-08-14T06:57:12.246Z</time>
      </trkpt>
      <trkpt lat="40.20487" lon="44.49741">
        <ele>1122.492296</ele>
        <time>2021-08-14T06:57:49.784Z</time>
      </trkpt>
      <trkpt lat="40.20493" lon="44.49737">
        <ele>1122.495392</ele>
        <time>2021-08-14T06:57:51.832Z</time>
      </trkpt>
      <trkpt lat="40.20505" lon="44.49729">
        <ele>1122.501965</ele>
        <time>2021-08-14T06:57:55.812Z</time>
      </trkpt>
      <trkpt lat="40.20551" lon="44.49695">
        <ele>1122.527913</ele>
        <time>2021-08-14T06:58:11.348Z</time>
      </trkpt>
      <trkpt lat="40.20553" lon="44.497">
        <ele>1122.529886</ele>
        <time>2021-08-14T06:58:12.705Z</time>
      </trkpt>
      <trkpt lat="40.20568" lon="44.49696">
        <ele>1122.537413</ele>
        <time>2021-08-14T06:58:17.157Z</time>
      </trkpt>
      <trkpt lat="40.20597" lon="44.49676">
        <ele>1122.210168</ele>
        <time>2021-08-14T06:58:26.899Z</time>
      </trkpt>
      <trkpt lat="40.20614" lon="44.49665">
        <ele>1122.021203</ele>
        <time>2021-08-14T06:58:32.457Z</time>
      </trkpt>
      <trkpt lat="40.20635" lon="44.49661">
        <ele>1121.811134</ele>
        <time>2021-08-14T06:58:38.815Z</time>
      </trkpt>
      <trkpt lat="40.20663" lon="44.4967">
        <ele>1121.528333</ele>
        <time>2021-08-14T06:58:47.200Z</time>
      </trkpt>
      <trkpt lat="40.20671" lon="44.49648">
        <ele>1121.33514</ele>
        <time>2021-08-14T06:58:52.714Z</time>
      </trkpt>
      <trkpt lat="40.20768" lon="44.4953">
        <ele>1117.454039</ele>
        <time>2021-08-14T06:59:24.557Z</time>
      </trkpt>
      <trkpt lat="40.20778" lon="44.49512">
        <ele>1116.694123</ele>
        <time>2021-08-14T06:59:28.267Z</time>
      </trkpt>
      <trkpt lat="40.20958" lon="44.49349">
        <ele>1104.48712</ele>
        <time>2021-08-14T07:00:12.597Z</time>
      </trkpt>
      <trkpt lat="40.21155" lon="44.49179">
        <ele>1091.410968</ele>
        <time>2021-08-14T07:01:01.232Z</time>
      </trkpt>
      <trkpt lat="40.21165" lon="44.49171">
        <ele>1091.239568</ele>
        <time>2021-08-14T07:01:04.093Z</time>
      </trkpt>
      <trkpt lat="40.2118" lon="44.49166">
        <ele>1091.006384</ele>
        <time>2021-08-14T07:01:07.828Z</time>
      </trkpt>
      <trkpt lat="40.21196" lon="44.49159">
        <ele>1090.754363</ele>
        <time>2021-08-14T07:01:12.033Z</time>
      </trkpt>
      <trkpt lat="40.21212" lon="44.49159">
        <ele>1090.520329</ele>
        <time>2021-08-14T07:01:15.970Z</time>
      </trkpt>
      <trkpt lat="40.21243" lon="44.49173">
        <ele>1090.042138</ele>
        <time>2021-08-14T07:01:24.402Z</time>
      </trkpt>
      <trkpt lat="40.21391" lon="44.49319">
        <ele>1090.726104</ele>
        <time>2021-08-14T07:02:24.200Z</time>
      </trkpt>
      <trkpt lat="40.21396" lon="44.49325">
        <ele>1090.850684</ele>
        <time>2021-08-14T07:02:26.175Z</time>
      </trkpt>
      <trkpt lat="40.21401" lon="44.49331">
        <ele>1090.964167</ele>
        <time>2021-08-14T07:02:29.412Z</time>
      </trkpt>
      <trkpt lat="40.21419" lon="44.49349">
        <ele>1091.383927</ele>
        <time>2021-08-14T07:02:40.718Z</time>
      </trkpt>
      <trkpt lat="40.21467" lon="44.49425">
        <ele>1094.492526</ele>
        <time>2021-08-14T07:03:22.182Z</time>
      </trkpt>
      <trkpt lat="40.21549" lon="44.49537">
        <ele>1102.673193</ele>
        <time>2021-08-14T07:04:49.781Z</time>
      </trkpt>
      <trkpt lat="40.21582" lon="44.49584">
        <ele>1106.206571</ele>
        <time>2021-08-14T07:05:27.751Z</time>
      </trkpt>
      <trkpt lat="40.21594" lon="44.49569">
        <ele>1107.483727</ele>
        <time>2021-08-14T07:05:40.892Z</time>
      </trkpt>
      <trkpt lat="40.21616" lon="44.49545">
        <ele>1109.57177</ele>
        <time>2021-08-14T07:06:01.911Z</time>
      </trkpt>
      <trkpt lat="40.21712" lon="44.49671">
        <ele>1119.321124</ele>
        <time>2021-08-14T07:07:40.852Z</time>
      </trkpt>
      <trkpt lat="40.21764" lon="44.49742">
        <ele>1123.330316</ele>
        <time>2021-08-14T07:08:29.039Z</time>
      </trkpt>
      <trkpt lat="40.21838" lon="44.49842">
        <ele>1128.281964</ele>
        <time>2021-08-14T07:09:27.675Z</time>
      </trkpt>
      <trkpt lat="40.21961" lon="44.50011">
        <ele>1132.581366</ele>
        <time>2021-08-14T07:10:44.316Z</time>
      </trkpt>
      <trkpt lat="40.21978" lon="44.50037">
        <ele>1133.048927</ele>
        <time>2021-08-14T07:10:54.399Z</time>
      </trkpt>
      <trkpt lat="40.22061" lon="44.50148">
        <ele>1135.193693</ele>
        <time>2021-08-14T07:11:42.530Z</time>
      </trkpt>
      <trkpt lat="40.22158" lon="44.50274">
        <ele>1138.285314</ele>
        <time>2021-08-14T07:12:40.752Z</time>
      </trkpt>
      <trkpt lat="40.22165" lon="44.50282">
        <ele>1138.499786</ele>
        <time>2021-08-14T07:12:45.050Z</time>
      </trkpt>
      <trkpt lat="40.22176" lon="44.5028">
        <ele>1138.761691</ele>
        <time>2021-08-14T07:12:50.520Z</time>
      </trkpt>
      <trkpt lat="40.22209" lon="44.50238">
        <ele>1139.93595</ele>
        <time>2021-08-14T07:13:13.048Z</time>
      </trkpt>
      <trkpt lat="40.22247" lon="44.50189">
        <ele>1141.618482</ele>
        <time>2021-08-14T07:13:40.215Z</time>
      </trkpt>
      <trkpt lat="40.22262" lon="44.50196">
        <ele>1142.129528</ele>
        <time>2021-08-14T07:13:48.824Z</time>
      </trkpt>
      <trkpt lat="40.22288" lon="44.50162">
        <ele>1143.27591</ele>
        <time>2021-08-14T07:14:08.417Z</time>
      </trkpt>
      <trkpt lat="40.22344" lon="44.50236">
        <ele>1145.434708</ele>
        <time>2021-08-14T07:14:47.647Z</time>
      </trkpt>
      <trkpt lat="40.22388" lon="44.50289">
        <ele>1145.991621</ele>
        <time>2021-08-14T07:15:14.605Z</time>
      </trkpt>
      <trkpt lat="40.22329" lon="44.50391">
        <ele>1146.908038</ele>
        <time>2021-08-14T07:15:44.748Z</time>
      </trkpt>
      <trkpt lat="40.223" lon="44.50438">
        <ele>1146.802453</ele>
        <time>2021-08-14T07:15:56.901Z</time>
      </trkpt>
      <trkpt lat="40.2229" lon="44.50456">
        <ele>1146.726338</ele>
        <time>2021-08-14T07:16:01.281Z</time>
      </trkpt>
      <trkpt lat="40.22286" lon="44.50453">
        <ele>1146.709623</ele>
        <time>2021-08-14T07:16:02.312Z</time>
      </trkpt>
      <trkpt lat="40.22283" lon="44.50452">
        <ele>1146.693058</ele>
        <time>2021-08-14T07:16:03.266Z</time>
      </trkpt>
      <trkpt lat="40.22278" lon="44.50453">
        <ele>1146.672665</ele>
        <time>2021-08-14T07:16:04.328Z</time>
      </trkpt>
      <trkpt lat="40.2227" lon="44.50467">
        <ele>1146.614644</ele>
        <time>2021-08-14T07:16:08.145Z</time>
      </trkpt>
      <trkpt lat="40.22271" lon="44.50473">
        <ele>1146.594324</ele>
        <time>2021-08-14T07:16:09.249Z</time>
      </trkpt>
      <trkpt lat="40.22273" lon="44.50478">
        <ele>1146.574495</ele>
        <time>2021-08-14T07:16:10.413Z</time>
      </trkpt>
      <trkpt lat="40.22277" lon="44.50482">
        <ele>1146.554285</ele>
        <time>2021-08-14T07:16:11.756Z</time>
      </trkpt>
      <trkpt lat="40.22281" lon="44.50483">
        <ele>1146.534774</ele>
        <time>2021-08-14T07:16:12.945Z</time>
      </trkpt>
      <trkpt lat="40.22285" lon="44.50487">
        <ele>1146.515313</ele>
        <time>2021-08-14T07:16:13.979Z</time>
      </trkpt>
      <trkpt lat="40.22315" lon="44.50515">
        <ele>1146.352972</ele>
        <time>2021-08-14T07:16:25.005Z</time>
      </trkpt>
      <trkpt lat="40.22319" lon="44.50519">
        <ele>1146.329452</ele>
        <time>2021-08-14T07:16:26.974Z</time>
      </trkpt>
      <trkpt lat="40.22368" lon="44.50568">
        <ele>1146.786737</ele>
        <time>2021-08-14T07:16:48.893Z</time>
      </trkpt>
      <trkpt lat="40.22408" lon="44.50606">
        <ele>1147.836229</ele>
        <time>2021-08-14T07:17:09.218Z</time>
      </trkpt>
      <trkpt lat="40.22437" lon="44.50644">
        <ele>1148.721158</ele>
        <time>2021-08-14T07:17:29.018Z</time>
      </trkpt>
      <trkpt lat="40.22503" lon="44.50731">
        <ele>1150.578063</ele>
        <time>2021-08-14T07:18:12.868Z</time>
      </trkpt>
      <trkpt lat="40.22524" lon="44.50758">
        <ele>1151.085782</ele>
        <time>2021-08-14T07:18:26.301Z</time>
      </trkpt>
      <trkpt lat="40.22632" lon="44.50909">
        <ele>1153.585331</ele>
        <time>2021-08-14T07:19:26.725Z</time>
      </trkpt>
      <trkpt lat="40.22661" lon="44.50939">
        <ele>1153.976411</ele>
        <time>2021-08-14T07:19:38.601Z</time>
      </trkpt>
      <trkpt lat="40.22699" lon="44.50952">
        <ele>1154.403792</ele>
        <time>2021-08-14T07:19:51.797Z</time>
      </trkpt>
      <trkpt lat="40.22807" lon="44.50974">
        <ele>1156.537543</ele>
        <time>2021-08-14T07:20:35.100Z</time>
      </trkpt>
      <trkpt lat="40.22842" lon="44.5098">
        <ele>1157.687663</ele>
        <time>2021-08-14T07:20:51.971Z</time>
      </trkpt>
      <trkpt lat="40.22857" lon="44.50982">
        <ele>1158.176839</ele>
        <time>2021-08-14T07:20:59.507Z</time>
      </trkpt>
      <trkpt lat="40.22973" lon="44.51">
        <ele>1162.42709</ele>
        <time>2021-08-14T07:22:04.073Z</time>
      </trkpt>
      <trkpt lat="40.23127" lon="44.5103">
        <ele>1169.532466</ele>
        <time>2021-08-14T07:23:37.020Z</time>
      </trkpt>
      <trkpt lat="40.23165" lon="44.51041">
        <ele>1170.295299</ele>
        <time>2021-08-14T07:23:56.467Z</time>
      </trkpt>
      <trkpt lat="40.23204" lon="44.51058">
        <ele>1171.078458</ele>
        <time>2021-08-14T07:24:14.031Z</time>
      </trkpt>
      <trkpt lat="40.23259" lon="44.51082">
        <ele>1172.189206</ele>
        <time>2021-08-14T07:24:35.607Z</time>
      </trkpt>
      <trkpt lat="40.23276" lon="44.51089">
        <ele>1172.536462</ele>
        <time>2021-08-14T07:24:41.957Z</time>
      </trkpt>
      <trkpt lat="40.23317" lon="44.51109">
        <ele>1172.767082</ele>
        <time>2021-08-14T07:24:54.887Z</time>
      </trkpt>
      <trkpt lat="40.23333" lon="44.5111">
        <ele>1172.727142</ele>
        <time>2021-08-14T07:24:59.398Z</time>
      </trkpt>
      <trkpt lat="40.2338" lon="44.51101">
        <ele>1172.612683</ele>
        <time>2021-08-14T07:25:12.210Z</time>
      </trkpt>
      <trkpt lat="40.23385" lon="44.51099">
        <ele>1172.599166</ele>
        <time>2021-08-14T07:25:13.612Z</time>
      </trkpt>
      <trkpt lat="40.23433" lon="44.51083">
        <ele>1172.480601</ele>
        <time>2021-08-14T07:25:26.905Z</time>
      </trkpt>
      <trkpt lat="40.23568" lon="44.51038">
        <ele>1174.463712</ele>
        <time>2021-08-14T07:26:18.256Z</time>
      </trkpt>
      <trkpt lat="40.23598" lon="44.50981">
        <ele>1175.492536</ele>
        <time>2021-08-14T07:26:43.257Z</time>
      </trkpt>
      <trkpt lat="40.23615" lon="44.50902">
        <ele>1177.371663</ele>
        <time>2021-08-14T07:27:17.743Z</time>
      </trkpt>
      <trkpt lat="40.2361" lon="44.50864">
        <ele>1178.406518</ele>
        <time>2021-08-14T07:27:33.567Z</time>
      </trkpt>
      <trkpt lat="40.23569" lon="44.50809">
        <ele>1180.477689</ele>
        <time>2021-08-14T07:28:04.260Z</time>
      </trkpt>
      <trkpt lat="40.23551" lon="44.50777">
        <ele>1181.568377</ele>
        <time>2021-08-14T07:28:19.932Z</time>
      </trkpt>
      <trkpt lat="40.23545" lon="44.50754">
        <ele>1182.240361</ele>
        <time>2021-08-14T07:28:28.815Z</time>
      </trkpt>
      <trkpt lat="40.23545" lon="44.50741">
        <ele>1182.432991</ele>
        <time>2021-08-14T07:28:33.331Z</time>
      </trkpt>
      <trkpt lat="40.23543" lon="44.50583">
        <ele>1184.56814</ele>
        <time>2021-08-14T07:29:23.958Z</time>
      </trkpt>
      <trkpt lat="40.23542" lon="44.50457">
        <ele>1186.098282</ele>
        <time>2021-08-14T07:29:57.729Z</time>
      </trkpt>
      <trkpt lat="40.23543" lon="44.50207">
        <ele>1189.746243</ele>
        <time>2021-08-14T07:31:14.203Z</time>
      </trkpt>
      <trkpt lat="40.23541" lon="44.50086">
        <ele>1192.618527</ele>
        <time>2021-08-14T07:32:01.422Z</time>
      </trkpt>
      <trkpt lat="40.23539" lon="44.50003">
        <ele>1194.764932</ele>
        <time>2021-08-14T07:32:37.770Z</time>
      </trkpt>
      <trkpt lat="40.2354" lon="44.49922">
        <ele>1196.986526</ele>
        <time>2021-08-14T07:33:12.278Z</time>
      </trkpt>
      <trkpt lat="40.23541" lon="44.49867">
        <ele>1198.491309</ele>
        <time>2021-08-14T07:33:34.461Z</time>
      </trkpt>
      <trkpt lat="40.23548" lon="44.49846">
        <ele>1199.093994</ele>
        <time>2021-08-14T07:33:43.377Z</time>
      </trkpt>
      <trkpt lat="40.23559" lon="44.49846">
        <ele>1199.496103</ele>
        <time>2021-08-14T07:33:48.796Z</time>
      </trkpt>
      <trkpt lat="40.23668" lon="44.498">
        <ele>1200.150426</ele>
        <time>2021-08-14T07:34:31.853Z</time>
      </trkpt>
      <trkpt lat="40.2366" lon="44.49727">
        <ele>1200.200124</ele>
        <time>2021-08-14T07:34:47.318Z</time>
      </trkpt>
      <trkpt lat="40.23651" lon="44.49661">
        <ele>1199.74702</ele>
        <time>2021-08-14T07:35:01.044Z</time>
      </trkpt>
      <trkpt lat="40.23647" lon="44.49607">
        <ele>1199.007778</ele>
        <time>2021-08-14T07:35:11.848Z</time>
      </trkpt>
      <trkpt lat="40.23672" lon="44.49521">
        <ele>1197.737988</ele>
        <time>2021-08-14T07:35:30.086Z</time>
      </trkpt>
      <trkpt lat="40.23673" lon="44.49509">
        <ele>1197.56748</ele>
        <time>2021-08-14T07:35:32.482Z</time>
      </trkpt>
      <trkpt lat="40.23664" lon="44.49456">
        <ele>1196.759712</ele>
        <time>2021-08-14T07:35:43.415Z</time>
      </trkpt>
      <trkpt lat="40.23673" lon="44.49431">
        <ele>1196.259637</ele>
        <time>2021-08-14T07:35:48.842Z</time>
      </trkpt>
      <trkpt lat="40.2369" lon="44.49424">
        <ele>1195.828353</ele>
        <time>2021-08-14T07:35:53.552Z</time>
      </trkpt>
      <trkpt lat="40.2368" lon="44.49377">
        <ele>1194.946989</ele>
        <time>2021-08-14T07:36:02.974Z</time>
      </trkpt>
      <trkpt lat="40.23718" lon="44.4932">
        <ele>1193.569027</ele>
        <time>2021-08-14T07:36:17.260Z</time>
      </trkpt>
      <trkpt lat="40.23725" lon="44.49257">
        <ele>1192.381762</ele>
        <time>2021-08-14T07:36:29.129Z</time>
      </trkpt>
      <trkpt lat="40.23733" lon="44.4918">
        <ele>1190.788722</ele>
        <time>2021-08-14T07:36:43.640Z</time>
      </trkpt>
      <trkpt lat="40.23785" lon="44.49131">
        <ele>1189.069579</ele>
        <time>2021-08-14T07:36:59.374Z</time>
      </trkpt>
      <trkpt lat="40.23847" lon="44.49142">
        <ele>1187.609365</ele>
        <time>2021-08-14T07:37:15.022Z</time>
      </trkpt>
      <trkpt lat="40.23848" lon="44.49121">
        <ele>1187.367964</ele>
        <time>2021-08-14T07:37:19.002Z</time>
      </trkpt>
      <trkpt lat="40.23864" lon="44.49055">
        <ele>1186.579917</ele>
        <time>2021-08-14T07:37:33.107Z</time>
      </trkpt>
      <trkpt lat="40.23885" lon="44.489">
        <ele>1184.957007</ele>
        <time>2021-08-14T07:38:06.725Z</time>
      </trkpt>
      <trkpt lat="40.23905" lon="44.48809">
        <ele>1184.407282</ele>
        <time>2021-08-14T07:38:27.973Z</time>
      </trkpt>
      <trkpt lat="40.23909" lon="44.48752">
        <ele>1184.079106</ele>
        <time>2021-08-14T07:38:40.759Z</time>
      </trkpt>
      <trkpt lat="40.23906" lon="44.48636">
        <ele>1183.61796</ele>
        <time>2021-08-14T07:39:06.705Z</time>
      </trkpt>
      <trkpt lat="40.23901" lon="44.48583">
        <ele>1183.48314</ele>
        <time>2021-08-14T07:39:18.989Z</time>
      </trkpt>
      <trkpt lat="40.23885" lon="44.48541">
        <ele>1183.364243</ele>
        <time>2021-08-14T07:39:29.940Z</time>
      </trkpt>
      <trkpt lat="40.2386" lon="44.48511">
        <ele>1183.251002</ele>
        <time>2021-08-14T07:39:40.903Z</time>
      </trkpt>
      <trkpt lat="40.23863" lon="44.48494">
        <ele>1183.205961</ele>
        <time>2021-08-14T07:39:45.828Z</time>
      </trkpt>
      <trkpt lat="40.23875" lon="44.48443">
        <ele>1183.278981</ele>
        <time>2021-08-14T07:39:59.498Z</time>
      </trkpt>
      <trkpt lat="40.23891" lon="44.48409">
        <ele>1183.357043</ele>
        <time>2021-08-14T07:40:09.435Z</time>
      </trkpt>
      <trkpt lat="40.23894" lon="44.48392">
        <ele>1183.39222</ele>
        <time>2021-08-14T07:40:13.951Z</time>
      </trkpt>
      <trkpt lat="40.23903" lon="44.48383">
        <ele>1183.422724</ele>
        <time>2021-08-14T07:40:17.574Z</time>
      </trkpt>
      <trkpt lat="40.23916" lon="44.48362">
        <ele>1183.476155</ele>
        <time>2021-08-14T07:40:25.115Z</time>
      </trkpt>
      <trkpt lat="40.23914" lon="44.48338">
        <ele>1183.525739</ele>
        <time>2021-08-14T07:40:31.358Z</time>
      </trkpt>
      <trkpt lat="40.23863" lon="44.48252">
        <ele>1183.534626</ele>
        <time>2021-08-14T07:41:00.647Z</time>
      </trkpt>
      <trkpt lat="40.23855" lon="44.48205">
        <ele>1183.397099</ele>
        <time>2021-08-14T07:41:12.812Z</time>
      </trkpt>
      <trkpt lat="40.23854" lon="44.48177">
        <ele>1183.316311</ele>
        <time>2021-08-14T07:41:19.417Z</time>
      </trkpt>
      <trkpt lat="40.23889" lon="44.48009">
        <ele>1182.683427</ele>
        <time>2021-08-14T07:41:57.377Z</time>
      </trkpt>
      <trkpt lat="40.23882" lon="44.47964">
        <ele>1182.444274</ele>
        <time>2021-08-14T07:42:07.070Z</time>
      </trkpt>
      <trkpt lat="40.2386" lon="44.47931">
        <ele>1182.21839</ele>
        <time>2021-08-14T07:42:16.812Z</time>
      </trkpt>
      <trkpt lat="40.23833" lon="44.47904">
        <ele>1181.983347</ele>
        <time>2021-08-14T07:42:27.119Z</time>
      </trkpt>
      <trkpt lat="40.23787" lon="44.4787">
        <ele>1181.89261</ele>
        <time>2021-08-14T07:42:43.113Z</time>
      </trkpt>
      <trkpt lat="40.23809" lon="44.47803">
        <ele>1182.298909</ele>
        <time>2021-08-14T07:43:02.281Z</time>
      </trkpt>
      <trkpt lat="40.23799" lon="44.47766">
        <ele>1182.519873</ele>
        <time>2021-08-14T07:43:13.108Z</time>
      </trkpt>
      <trkpt lat="40.23777" lon="44.47736">
        <ele>1182.751499</ele>
        <time>2021-08-14T07:43:25.139Z</time>
      </trkpt>
      <trkpt lat="40.23722" lon="44.47624">
        <ele>1184.18413</ele>
        <time>2021-08-14T07:44:08.615Z</time>
      </trkpt>
      <trkpt lat="40.23694" lon="44.47543">
        <ele>1185.485234</ele>
        <time>2021-08-14T07:44:37.806Z</time>
      </trkpt>
      <trkpt lat="40.23648" lon="44.47329">
        <ele>1189.068778</ele>
        <time>2021-08-14T07:45:52.949Z</time>
      </trkpt>
      <trkpt lat="40.23626" lon="44.47253">
        <ele>1190.435312</ele>
        <time>2021-08-14T07:46:21.320Z</time>
      </trkpt>
      <trkpt lat="40.23604" lon="44.47164">
        <ele>1192.341671</ele>
        <time>2021-08-14T07:46:54.752Z</time>
      </trkpt>
      <trkpt lat="40.23975" lon="44.46955">
        <ele>1202.543536</ele>
        <time>2021-08-14T07:50:07.046Z</time>
      </trkpt>
      <trkpt lat="40.24071" lon="44.46891">
        <ele>1204.424263</ele>
        <time>2021-08-14T07:50:49.711Z</time>
      </trkpt>
      <trkpt lat="40.24305" lon="44.46952">
        <ele>1208.210423</ele>
        <time>2021-08-14T07:52:20.699Z</time>
      </trkpt>
      <trkpt lat="40.24313" lon="44.4698">
        <ele>1208.732622</ele>
        <time>2021-08-14T07:52:31.877Z</time>
      </trkpt>
      <trkpt lat="40.24408" lon="44.47022">
        <ele>1212.376775</ele>
        <time>2021-08-14T07:53:24.828Z</time>
      </trkpt>
      <trkpt lat="40.24907" lon="44.47181">
        <ele>1240.266053</ele>
        <time>2021-08-14T07:58:44.402Z</time>
      </trkpt>
      <trkpt lat="40.24991" lon="44.47227">
        <ele>1245.732347</ele>
        <time>2021-08-14T07:59:44.219Z</time>
      </trkpt>
      <trkpt lat="40.25094" lon="44.47223">
        <ele>1251.636133</ele>
        <time>2021-08-14T08:00:51.895Z</time>
      </trkpt>
      <trkpt lat="40.25203" lon="44.47209">
        <ele>1257.166691</ele>
        <time>2021-08-14T08:01:57.540Z</time>
      </trkpt>
      <trkpt lat="40.25239" lon="44.47167">
        <ele>1259.397824</ele>
        <time>2021-08-14T08:02:23.920Z</time>
      </trkpt>
      <trkpt lat="40.25283" lon="44.47172">
        <ele>1260.752246</ele>
        <time>2021-08-14T08:02:46.805Z</time>
      </trkpt>
      <trkpt lat="40.25333" lon="44.47198">
        <ele>1262.387454</ele>
        <time>2021-08-14T08:03:12.590Z</time>
      </trkpt>
      <trkpt lat="40.25389" lon="44.47212">
        <ele>1264.096138</ele>
        <time>2021-08-14T08:03:37.676Z</time>
      </trkpt>
      <trkpt lat="40.25448" lon="44.47185">
        <ele>1265.437386</ele>
        <time>2021-08-14T08:04:04.255Z</time>
      </trkpt>
      <trkpt lat="40.25639" lon="44.47016">
        <ele>1269.784584</ele>
        <time>2021-08-14T08:05:38.607Z</time>
      </trkpt>
      <trkpt lat="40.25661" lon="44.46988">
        <ele>1270.375888</ele>
        <time>2021-08-14T08:05:51.488Z</time>
      </trkpt>
      <trkpt lat="40.25648" lon="44.46905">
        <ele>1271.713537</ele>
        <time>2021-08-14T08:06:19.192Z</time>
      </trkpt>
      <trkpt lat="40.25646" lon="44.46807">
        <ele>1273.741969</ele>
        <time>2021-08-14T08:06:53.041Z</time>
      </trkpt>
      <trkpt lat="40.25737" lon="44.46619">
        <ele>1278.315806</ele>
        <time>2021-08-14T08:08:14.592Z</time>
      </trkpt>
      <trkpt lat="40.2579" lon="44.46522">
        <ele>1280.802708</ele>
        <time>2021-08-14T08:08:57.103Z</time>
      </trkpt>
      <trkpt lat="40.25779" lon="44.46488">
        <ele>1281.263757</ele>
        <time>2021-08-14T08:09:09.528Z</time>
      </trkpt>
      <trkpt lat="40.25749" lon="44.46416">
        <ele>1281.917174</ele>
        <time>2021-08-14T08:09:35.418Z</time>
      </trkpt>
      <trkpt lat="40.25707" lon="44.46392">
        <ele>1282.389513</ele>
        <time>2021-08-14T08:09:52.361Z</time>
      </trkpt>
      <trkpt lat="40.25675" lon="44.4638">
        <ele>1282.73782</ele>
        <time>2021-08-14T08:10:03.799Z</time>
      </trkpt>
      <trkpt lat="40.25635" lon="44.46374">
        <ele>1282.93344</ele>
        <time>2021-08-14T08:10:16.264Z</time>
      </trkpt>
      <trkpt lat="40.25599" lon="44.46384">
        <ele>1282.90096</ele>
        <time>2021-08-14T08:10:27.598Z</time>
      </trkpt>
      <trkpt lat="40.25567" lon="44.46367">
        <ele>1282.870386</ele>
        <time>2021-08-14T08:10:38.250Z</time>
      </trkpt>
      <trkpt lat="40.2556" lon="44.46334">
        <ele>1282.847151</ele>
        <time>2021-08-14T08:10:46.462Z</time>
      </trkpt>
      <trkpt lat="40.25561" lon="44.4628">
        <ele>1282.810375</ele>
        <time>2021-08-14T08:10:59.734Z</time>
      </trkpt>
      <trkpt lat="40.2558" lon="44.46198">
        <ele>1282.893366</ele>
        <time>2021-08-14T08:11:21.513Z</time>
      </trkpt>
      <trkpt lat="40.2563" lon="44.46067">
        <ele>1283.151546</ele>
        <time>2021-08-14T08:11:59.772Z</time>
      </trkpt>
      <trkpt lat="40.25628" lon="44.45965">
        <ele>1283.359619</ele>
        <time>2021-08-14T08:12:25.811Z</time>
      </trkpt>
      <trkpt lat="40.25612" lon="44.45755">
        <ele>1284.319382</ele>
        <time>2021-08-14T08:13:20.715Z</time>
      </trkpt>
      <trkpt lat="40.25617" lon="44.45733">
        <ele>1284.611185</ele>
        <time>2021-08-14T08:13:27.013Z</time>
      </trkpt>
      <trkpt lat="40.25619" lon="44.45721">
        <ele>1284.782855</ele>
        <time>2021-08-14T08:13:31.344Z</time>
      </trkpt>
      <trkpt lat="40.25637" lon="44.45687">
        <ele>1285.322659</ele>
        <time>2021-08-14T08:13:44.263Z</time>
      </trkpt>
      <trkpt lat="40.25654" lon="44.45686">
        <ele>1285.623408</ele>
        <time>2021-08-14T08:13:52.223Z</time>
      </trkpt>
      <trkpt lat="40.25671" lon="44.45674">
        <ele>1285.955192</ele>
        <time>2021-08-14T08:14:00.376Z</time>
      </trkpt>
      <trkpt lat="40.2571" lon="44.45648">
        <ele>1286.713949</ele>
        <time>2021-08-14T08:14:21.073Z</time>
      </trkpt>
      <trkpt lat="40.25791" lon="44.45536">
        <ele>1289.970102</ele>
        <time>2021-08-14T08:15:20.045Z</time>
      </trkpt>
      <trkpt lat="40.2584" lon="44.45498">
        <ele>1291.592762</ele>
        <time>2021-08-14T08:15:46.965Z</time>
      </trkpt>
      <trkpt lat="40.25957" lon="44.45335">
        <ele>1295.62041</ele>
        <time>2021-08-14T08:17:04.521Z</time>
      </trkpt>
      <trkpt lat="40.25951" lon="44.45255">
        <ele>1296.828469</ele>
        <time>2021-08-14T08:17:32.155Z</time>
      </trkpt>
      <trkpt lat="40.26007" lon="44.45193">
        <ele>1298.139405</ele>
        <time>2021-08-14T08:18:03.993Z</time>
      </trkpt>
      <trkpt lat="40.26069" lon="44.45228">
        <ele>1299.337934</ele>
        <time>2021-08-14T08:18:31.984Z</time>
      </trkpt>
      <trkpt lat="40.26157" lon="44.45367">
        <ele>1300.694849</ele>
        <time>2021-08-14T08:19:22.657Z</time>
      </trkpt>
      <trkpt lat="40.26166" lon="44.45418">
        <ele>1301.095154</ele>
        <time>2021-08-14T08:19:38.023Z</time>
      </trkpt>
      <trkpt lat="40.26219" lon="44.45449">
        <ele>1301.990083</ele>
        <time>2021-08-14T08:20:01.056Z</time>
      </trkpt>
      <trkpt lat="40.26228" lon="44.45449">
        <ele>1302.136227</ele>
        <time>2021-08-14T08:20:04.742Z</time>
      </trkpt>
      <trkpt lat="40.26257" lon="44.4544">
        <ele>1302.588546</ele>
        <time>2021-08-14T08:20:16.971Z</time>
      </trkpt>
      <trkpt lat="40.26299" lon="44.4541">
        <ele>1303.317288</ele>
        <time>2021-08-14T08:20:36.815Z</time>
      </trkpt>
      <trkpt lat="40.26337" lon="44.45399">
        <ele>1303.915749</ele>
        <time>2021-08-14T08:20:53.937Z</time>
      </trkpt>
      <trkpt lat="40.26413" lon="44.45399">
        <ele>1304.992151</ele>
        <time>2021-08-14T08:21:27.287Z</time>
      </trkpt>
      <trkpt lat="40.26441" lon="44.45381">
        <ele>1305.431171</ele>
        <time>2021-08-14T08:21:39.806Z</time>
      </trkpt>
      <trkpt lat="40.26464" lon="44.45305">
        <ele>1306.324865</ele>
        <time>2021-08-14T08:22:04.241Z</time>
      </trkpt>
      <trkpt lat="40.2651" lon="44.45056">
        <ele>1306.630231</ele>
        <time>2021-08-14T08:23:08.395Z</time>
      </trkpt>
      <trkpt lat="40.26533" lon="44.44991">
        <ele>1306.365473</ele>
        <time>2021-08-14T08:23:24.971Z</time>
      </trkpt>
      <trkpt lat="40.26563" lon="44.44957">
        <ele>1306.178312</ele>
        <time>2021-08-14T08:23:36.578Z</time>
      </trkpt>
      <trkpt lat="40.26635" lon="44.45006">
        <ele>1305.790792</ele>
        <time>2021-08-14T08:24:00.707Z</time>
      </trkpt>
      <trkpt lat="40.26741" lon="44.45048">
        <ele>1305.347577</ele>
        <time>2021-08-14T08:24:34.240Z</time>
      </trkpt>
      <trkpt lat="40.2683" lon="44.45061">
        <ele>1305.109048</ele>
        <time>2021-08-14T08:25:01.951Z</time>
      </trkpt>
      <trkpt lat="40.26892" lon="44.45097">
        <ele>1305.154102</ele>
        <time>2021-08-14T08:25:23.109Z</time>
      </trkpt>
      <trkpt lat="40.26972" lon="44.45182">
        <ele>1305.590911</ele>
        <time>2021-08-14T08:25:57.712Z</time>
      </trkpt>
      <trkpt lat="40.26982" lon="44.45187">
        <ele>1305.831488</ele>
        <time>2021-08-14T08:26:01.843Z</time>
      </trkpt>
      <trkpt lat="40.26997" lon="44.45174">
        <ele>1306.235614</ele>
        <time>2021-08-14T08:26:08.796Z</time>
      </trkpt>
      <trkpt lat="40.27039" lon="44.45097">
        <ele>1307.837535</ele>
        <time>2021-08-14T08:26:39.883Z</time>
      </trkpt>
      <trkpt lat="40.27182" lon="44.44863">
        <ele>1315.464784</ele>
        <time>2021-08-14T08:28:43.878Z</time>
      </trkpt>
      <trkpt lat="40.27219" lon="44.44788">
        <ele>1317.329393</ele>
        <time>2021-08-14T08:29:18.751Z</time>
      </trkpt>
      <trkpt lat="40.27228" lon="44.44759">
        <ele>1317.935103</ele>
        <time>2021-08-14T08:29:30.345Z</time>
      </trkpt>
      <trkpt lat="40.2727" lon="44.44708">
        <ele>1319.382819</ele>
        <time>2021-08-14T08:29:56.583Z</time>
      </trkpt>
      <trkpt lat="40.27309" lon="44.4467">
        <ele>1320.510743</ele>
        <time>2021-08-14T08:30:16.699Z</time>
      </trkpt>
      <trkpt lat="40.27322" lon="44.44638">
        <ele>1320.678411</ele>
        <time>2021-08-14T08:30:27.522Z</time>
      </trkpt>
      <trkpt lat="40.27329" lon="44.44605">
        <ele>1320.839777</ele>
        <time>2021-08-14T08:30:37.541Z</time>
      </trkpt>
      <trkpt lat="40.27356" lon="44.4457">
        <ele>1321.069245</ele>
        <time>2021-08-14T08:30:51.215Z</time>
      </trkpt>
      <trkpt lat="40.27392" lon="44.44561">
        <ele>1321.293401</ele>
        <time>2021-08-14T08:31:03.956Z</time>
      </trkpt>
      <trkpt lat="40.2744" lon="44.44511">
        <ele>1321.461163</ele>
        <time>2021-08-14T08:31:23.556Z</time>
      </trkpt>
      <trkpt lat="40.27462" lon="44.44523">
        <ele>1321.265773</ele>
        <time>2021-08-14T08:31:30.797Z</time>
      </trkpt>
      <trkpt lat="40.27489" lon="44.44434">
        <ele>1320.669085</ele>
        <time>2021-08-14T08:31:51.761Z</time>
      </trkpt>
      <trkpt lat="40.27497" lon="44.44277">
        <ele>1319.657325</ele>
        <time>2021-08-14T08:32:25.024Z</time>
      </trkpt>
      <trkpt lat="40.27486" lon="44.44125">
        <ele>1318.627547</ele>
        <time>2021-08-14T08:32:58.442Z</time>
      </trkpt>
      <trkpt lat="40.27486" lon="44.44048">
        <ele>1318.379212</ele>
        <time>2021-08-14T08:33:16.439Z</time>
      </trkpt>
      <trkpt lat="40.27494" lon="44.44021">
        <ele>1318.31216</ele>
        <time>2021-08-14T08:33:23.303Z</time>
      </trkpt>
      <trkpt lat="40.27498" lon="44.43942">
        <ele>1318.127327</ele>
        <time>2021-08-14T08:33:42.401Z</time>
      </trkpt>
      <trkpt lat="40.2749" lon="44.43902">
        <ele>1318.031312</ele>
        <time>2021-08-14T08:33:52.420Z</time>
      </trkpt>
      <trkpt lat="40.27509" lon="44.43864">
        <ele>1317.915847</ele>
        <time>2021-08-14T08:34:03.358Z</time>
      </trkpt>
      <trkpt lat="40.27538" lon="44.43587">
        <ele>1317.161171</ele>
        <time>2021-08-14T08:35:08.483Z</time>
      </trkpt>
      <trkpt lat="40.2756" lon="44.43547">
        <ele>1317.045039</ele>
        <time>2021-08-14T08:35:19.977Z</time>
      </trkpt>
      <trkpt lat="40.27576" lon="44.43397">
        <ele>1316.679563</ele>
        <time>2021-08-14T08:35:56.240Z</time>
      </trkpt>
      <trkpt lat="40.27607" lon="44.43176">
        <ele>1316.013253</ele>
        <time>2021-08-14T08:36:49.488Z</time>
      </trkpt>
      <trkpt lat="40.27641" lon="44.43074">
        <ele>1315.140924</ele>
        <time>2021-08-14T08:37:13.810Z</time>
      </trkpt>
      <trkpt lat="40.27641" lon="44.43042">
        <ele>1314.886449</ele>
        <time>2021-08-14T08:37:20.906Z</time>
      </trkpt>
      <trkpt lat="40.27629" lon="44.43044">
        <ele>1314.762526</ele>
        <time>2021-08-14T08:37:26.305Z</time>
      </trkpt>
      <trkpt lat="40.2758" lon="44.43037">
        <ele>1314.195613</ele>
        <time>2021-08-14T08:37:48.717Z</time>
      </trkpt>
      <trkpt lat="40.27494" lon="44.43065">
        <ele>1312.06392</ele>
        <time>2021-08-14T08:38:27.410Z</time>
      </trkpt>
      <trkpt lat="40.275" lon="44.43029">
        <ele>1311.400376</ele>
        <time>2021-08-14T08:38:34.260Z</time>
      </trkpt>
      <trkpt lat="40.27491" lon="44.42949">
        <ele>1309.86614</ele>
        <time>2021-08-14T08:38:49.426Z</time>
      </trkpt>
      <trkpt lat="40.27477" lon="44.42903">
        <ele>1308.369247</ele>
        <time>2021-08-14T08:38:58.269Z</time>
      </trkpt>
      <trkpt lat="40.27432" lon="44.42807">
        <ele>1304.913425</ele>
        <time>2021-08-14T08:39:18.096Z</time>
      </trkpt>
      <trkpt lat="40.27371" lon="44.42731">
        <ele>1301.277495</ele>
        <time>2021-08-14T08:39:37.083Z</time>
      </trkpt>
      <trkpt lat="40.27316" lon="44.42683">
        <ele>1298.081481</ele>
        <time>2021-08-14T08:39:51.743Z</time>
      </trkpt>
      <trkpt lat="40.27172" lon="44.42591">
        <ele>1290.784574</ele>
        <time>2021-08-14T08:40:27.463Z</time>
      </trkpt>
      <trkpt lat="40.27098" lon="44.42531">
        <ele>1287.079702</ele>
        <time>2021-08-14T08:40:47.470Z</time>
      </trkpt>
      <trkpt lat="40.27019" lon="44.42415">
        <ele>1284.023716</ele>
        <time>2021-08-14T08:41:16.110Z</time>
      </trkpt>
      <trkpt lat="40.2713" lon="44.42109">
        <ele>1280.003551</ele>
        <time>2021-08-14T08:42:27.393Z</time>
      </trkpt>
      <trkpt lat="40.27152" lon="44.42099">
        <ele>1279.816505</ele>
        <time>2021-08-14T08:42:33.995Z</time>
      </trkpt>
      <trkpt lat="40.27265" lon="44.42082">
        <ele>1278.886164</ele>
        <time>2021-08-14T08:43:06.755Z</time>
      </trkpt>
      <trkpt lat="40.27337" lon="44.41976">
        <ele>1278.356898</ele>
        <time>2021-08-14T08:43:39.077Z</time>
      </trkpt>
      <trkpt lat="40.27342" lon="44.41948">
        <ele>1278.296715</ele>
        <time>2021-08-14T08:43:45.728Z</time>
      </trkpt>
      <trkpt lat="40.27328" lon="44.41835">
        <ele>1278.053667</ele>
        <time>2021-08-14T08:44:13.835Z</time>
      </trkpt>
      <trkpt lat="40.27331" lon="44.41825">
        <ele>1278.049591</ele>
        <time>2021-08-14T08:44:16.328Z</time>
      </trkpt>
      <trkpt lat="40.27339" lon="44.41817">
        <ele>1278.065801</ele>
        <time>2021-08-14T08:44:19.842Z</time>
      </trkpt>
      <trkpt lat="40.27444" lon="44.41778">
        <ele>1278.233958</ele>
        <time>2021-08-14T08:44:56.722Z</time>
      </trkpt>
      <trkpt lat="40.27467" lon="44.41806">
        <ele>1278.282224</ele>
        <time>2021-08-14T08:45:06.678Z</time>
      </trkpt>
      <trkpt lat="40.27491" lon="44.41793">
        <ele>1278.328734</ele>
        <time>2021-08-14T08:45:14.648Z</time>
      </trkpt>
      <trkpt lat="40.27516" lon="44.4175">
        <ele>1278.727443</ele>
        <time>2021-08-14T08:45:28.557Z</time>
      </trkpt>
      <trkpt lat="40.27558" lon="44.41614">
        <ele>1279.829249</ele>
        <time>2021-08-14T08:46:11.168Z</time>
      </trkpt>
      <trkpt lat="40.27568" lon="44.41636">
        <ele>1280.021266</ele>
        <time>2021-08-14T08:46:18.987Z</time>
      </trkpt>
      <trkpt lat="40.27575" lon="44.41653">
        <ele>1280.3285</ele>
        <time>2021-08-14T08:46:25.436Z</time>
      </trkpt>
      <trkpt lat="40.27639" lon="44.4179">
        <ele>1283.956464</ele>
        <time>2021-08-14T08:47:24.602Z</time>
      </trkpt>
      <trkpt lat="40.27767" lon="44.41966">
        <ele>1290.499744</ele>
        <time>2021-08-14T08:49:06.375Z</time>
      </trkpt>
      <trkpt lat="40.27802" lon="44.42013">
        <ele>1292.185487</ele>
        <time>2021-08-14T08:49:32.430Z</time>
      </trkpt>
      <trkpt lat="40.27806" lon="44.42018">
        <ele>1292.245213</ele>
        <time>2021-08-14T08:49:35.616Z</time>
      </trkpt>
      <trkpt lat="40.27822" lon="44.42032">
        <ele>1292.476734</ele>
        <time>2021-08-14T08:49:44.729Z</time>
      </trkpt>
      <trkpt lat="40.27835" lon="44.42022">
        <ele>1292.651155</ele>
        <time>2021-08-14T08:49:52.072Z</time>
      </trkpt>
      <trkpt lat="40.27875" lon="44.41982">
        <ele>1293.232594</ele>
        <time>2021-08-14T08:50:13.425Z</time>
      </trkpt>
      <trkpt lat="40.27897" lon="44.41958">
        <ele>1293.569024</ele>
        <time>2021-08-14T08:50:24.937Z</time>
      </trkpt>
      <trkpt lat="40.27907" lon="44.41948">
        <ele>1293.716943</ele>
        <time>2021-08-14T08:50:29.190Z</time>
      </trkpt>
      <trkpt lat="40.28188" lon="44.41635">
        <ele>1289.537926</ele>
        <time>2021-08-14T08:52:07.735Z</time>
      </trkpt>
      <trkpt lat="40.2864" lon="44.41148">
        <ele>1285.873479</ele>
        <time>2021-08-14T08:55:01.380Z</time>
      </trkpt>
      <trkpt lat="40.28727" lon="44.41061">
        <ele>1285.560211</ele>
        <time>2021-08-14T08:55:34.761Z</time>
      </trkpt>
      <trkpt lat="40.28829" lon="44.41015">
        <ele>1285.675914</ele>
        <time>2021-08-14T08:56:09.814Z</time>
      </trkpt>
      <trkpt lat="40.29071" lon="44.40938">
        <ele>1287.804396</ele>
        <time>2021-08-14T08:57:41.833Z</time>
      </trkpt>
      <trkpt lat="40.29094" lon="44.40915">
        <ele>1288.14862</ele>
        <time>2021-08-14T08:57:54.040Z</time>
      </trkpt>
      <trkpt lat="40.2915" lon="44.40917">
        <ele>1288.937631</ele>
        <time>2021-08-14T08:58:18.085Z</time>
      </trkpt>
      <trkpt lat="40.29182" lon="44.40955">
        <ele>1289.663163</ele>
        <time>2021-08-14T08:58:36.803Z</time>
      </trkpt>
      <trkpt lat="40.29232" lon="44.4099">
        <ele>1290.619422</ele>
        <time>2021-08-14T08:59:01.222Z</time>
      </trkpt>
      <trkpt lat="40.29258" lon="44.41029">
        <ele>1291.287031</ele>
        <time>2021-08-14T08:59:17.596Z</time>
      </trkpt>
      <trkpt lat="40.29286" lon="44.41051">
        <ele>1291.676428</ele>
        <time>2021-08-14T08:59:30.300Z</time>
      </trkpt>
      <trkpt lat="40.293" lon="44.41045">
        <ele>1291.784992</ele>
        <time>2021-08-14T08:59:35.721Z</time>
      </trkpt>
      <trkpt lat="40.29348" lon="44.40967">
        <ele>1292.358908</ele>
        <time>2021-08-14T09:00:03.327Z</time>
      </trkpt>
      <trkpt lat="40.29372" lon="44.40886">
        <ele>1292.852934</ele>
        <time>2021-08-14T09:00:25.952Z</time>
      </trkpt>
      <trkpt lat="40.29454" lon="44.40694">
        <ele>1294.687254</ele>
        <time>2021-08-14T09:01:29.970Z</time>
      </trkpt>
      <trkpt lat="40.29516" lon="44.40665">
        <ele>1294.98425</ele>
        <time>2021-08-14T09:01:59.608Z</time>
      </trkpt>
      <trkpt lat="40.29565" lon="44.40696">
        <ele>1295.097848</ele>
        <time>2021-08-14T09:02:20.265Z</time>
      </trkpt>
      <trkpt lat="40.29577" lon="44.40751">
        <ele>1295.188594</ele>
        <time>2021-08-14T09:02:34.464Z</time>
      </trkpt>
      <trkpt lat="40.2964" lon="44.40732">
        <ele>1293.312106</ele>
        <time>2021-08-14T09:03:02.839Z</time>
      </trkpt>
      <trkpt lat="40.29658" lon="44.4072">
        <ele>1292.098349</ele>
        <time>2021-08-14T09:03:10.864Z</time>
      </trkpt>
      <trkpt lat="40.29688" lon="44.40656">
        <ele>1288.599311</ele>
        <time>2021-08-14T09:03:32.624Z</time>
      </trkpt>
      <trkpt lat="40.29705" lon="44.40584">
        <ele>1285.13398</ele>
        <time>2021-08-14T09:03:52.697Z</time>
      </trkpt>
      <trkpt lat="40.29732" lon="44.40563">
        <ele>1282.423329</ele>
        <time>2021-08-14T09:04:03.444Z</time>
      </trkpt>
      <trkpt lat="40.29789" lon="44.40557">
        <ele>1276.328348</ele>
        <time>2021-08-14T09:04:23.067Z</time>
      </trkpt>
      <trkpt lat="40.29817" lon="44.40517">
        <ele>1271.983984</ele>
        <time>2021-08-14T09:04:37.020Z</time>
      </trkpt>
      <trkpt lat="40.29861" lon="44.40413">
        <ele>1262.797835</ele>
        <time>2021-08-14T09:05:07.640Z</time>
      </trkpt>
      <trkpt lat="40.29773" lon="44.40192">
        <ele>1245.782129</ele>
        <time>2021-08-14T09:05:44.344Z</time>
      </trkpt>
      <trkpt lat="40.29753" lon="44.40142">
        <ele>1242.699444</ele>
        <time>2021-08-14T09:05:52.954Z</time>
      </trkpt>
      <trkpt lat="40.29737" lon="44.40102">
        <ele>1240.239581</ele>
        <time>2021-08-14T09:05:59.870Z</time>
      </trkpt>
      <trkpt lat="40.29615" lon="44.39791">
        <ele>1225.214746</ele>
        <time>2021-08-14T09:06:55.501Z</time>
      </trkpt>
      <trkpt lat="40.29399" lon="44.39239">
        <ele>1209.806138</ele>
        <time>2021-08-14T09:08:44.231Z</time>
      </trkpt>
      <trkpt lat="40.29487" lon="44.39174">
        <ele>1206.531802</ele>
        <time>2021-08-14T09:09:07.535Z</time>
      </trkpt>
      <trkpt lat="40.2941" lon="44.38978">
        <ele>1200.798198</ele>
        <time>2021-08-14T09:09:47.387Z</time>
      </trkpt>
      <trkpt lat="40.29484" lon="44.38923">
        <ele>1197.689612</ele>
        <time>2021-08-14T09:10:07.310Z</time>
      </trkpt>
      <trkpt lat="40.29563" lon="44.38865">
        <ele>1194.652961</ele>
        <time>2021-08-14T09:10:28.321Z</time>
      </trkpt>
      <trkpt lat="40.29644" lon="44.38806">
        <ele>1191.809822</ele>
        <time>2021-08-14T09:10:50.845Z</time>
      </trkpt>
      <trkpt lat="40.29677" lon="44.38794">
        <ele>1190.764709</ele>
        <time>2021-08-14T09:10:59.316Z</time>
      </trkpt>
      <trkpt lat="40.29783" lon="44.38715">
        <ele>1187.548267</ele>
        <time>2021-08-14T09:11:29.515Z</time>
      </trkpt>
      <trkpt lat="40.29687" lon="44.385">
        <ele>1183.104559</ele>
        <time>2021-08-14T09:12:16.917Z</time>
      </trkpt>
      <trkpt lat="40.29612" lon="44.38554">
        <ele>1181.579712</ele>
        <time>2021-08-14T09:12:39.488Z</time>
      </trkpt>
      <trkpt lat="40.29579" lon="44.38545">
        <ele>1181.253141</ele>
        <time>2021-08-14T09:12:49.050Z</time>
      </trkpt>
      <trkpt lat="40.29567" lon="44.38502">
        <ele>1180.926654</ele>
        <time>2021-08-14T09:12:59.044Z</time>
      </trkpt>
      <trkpt lat="40.29588" lon="44.38345">
        <ele>1180.017885</ele>
        <time>2021-08-14T09:13:34.740Z</time>
      </trkpt>
      <trkpt lat="40.29507" lon="44.38098">
        <ele>1180.213854</ele>
        <time>2021-08-14T09:14:39.874Z</time>
      </trkpt>
      <trkpt lat="40.29461" lon="44.38033">
        <ele>1180.849813</ele>
        <time>2021-08-14T09:15:07.215Z</time>
      </trkpt>
      <trkpt lat="40.29423" lon="44.38005">
        <ele>1181.255217</ele>
        <time>2021-08-14T09:15:26.311Z</time>
      </trkpt>
      <trkpt lat="40.29338" lon="44.37905">
        <ele>1181.632556</ele>
        <time>2021-08-14T09:16:10.945Z</time>
      </trkpt>
      <trkpt lat="40.29332" lon="44.37888">
        <ele>1181.674052</ele>
        <time>2021-08-14T09:16:15.215Z</time>
      </trkpt>
      <trkpt lat="40.29334" lon="44.37861">
        <ele>1181.735359</ele>
        <time>2021-08-14T09:16:22.085Z</time>
      </trkpt>
      <trkpt lat="40.29365" lon="44.37842">
        <ele>1181.835375</ele>
        <time>2021-08-14T09:16:31.805Z</time>
      </trkpt>
      <trkpt lat="40.29388" lon="44.37816">
        <ele>1181.003688</ele>
        <time>2021-08-14T09:16:39.794Z</time>
      </trkpt>
      <trkpt lat="40.2946" lon="44.37636">
        <ele>1176.262598</ele>
        <time>2021-08-14T09:17:16.550Z</time>
      </trkpt>
      <trkpt lat="40.29472" lon="44.37588">
        <ele>1174.457237</ele>
        <time>2021-08-14T09:17:25.241Z</time>
      </trkpt>
      <trkpt lat="40.29478" lon="44.37546">
        <ele>1172.944622</ele>
        <time>2021-08-14T09:17:32.531Z</time>
      </trkpt>
      <trkpt lat="40.29485" lon="44.37508">
        <ele>1171.552353</ele>
        <time>2021-08-14T09:17:39.260Z</time>
      </trkpt>
      <trkpt lat="40.29508" lon="44.37489">
        <ele>1170.283573</ele>
        <time>2021-08-14T09:17:45.405Z</time>
      </trkpt>
      <trkpt lat="40.29541" lon="44.37457">
        <ele>1168.394567</ele>
        <time>2021-08-14T09:17:54.463Z</time>
      </trkpt>
      <trkpt lat="40.29567" lon="44.37433">
        <ele>1166.897273</ele>
        <time>2021-08-14T09:18:01.377Z</time>
      </trkpt>
      <trkpt lat="40.29644" lon="44.37373">
        <ele>1162.588906</ele>
        <time>2021-08-14T09:18:21.385Z</time>
      </trkpt>
      <trkpt lat="40.29646" lon="44.37366">
        <ele>1162.345629</ele>
        <time>2021-08-14T09:18:22.437Z</time>
      </trkpt>
      <trkpt lat="40.29641" lon="44.37313">
        <ele>1160.396424</ele>
        <time>2021-08-14T09:18:31.780Z</time>
      </trkpt>
      <trkpt lat="40.29632" lon="44.37287">
        <ele>1159.363779</ele>
        <time>2021-08-14T09:18:36.894Z</time>
      </trkpt>
      <trkpt lat="40.29623" lon="44.37269">
        <ele>1158.676402</ele>
        <time>2021-08-14T09:18:40.689Z</time>
      </trkpt>
      <trkpt lat="40.29604" lon="44.37249">
        <ele>1157.681832</ele>
        <time>2021-08-14T09:18:46.328Z</time>
      </trkpt>
      <trkpt lat="40.29519" lon="44.37229">
        <ele>1154.157575</ele>
        <time>2021-08-14T09:19:05.675Z</time>
      </trkpt>
      <trkpt lat="40.2949" lon="44.37184">
        <ele>1152.302841</ele>
        <time>2021-08-14T09:19:15.880Z</time>
      </trkpt>
      <trkpt lat="40.29459" lon="44.3711">
        <ele>1151.25315</ele>
        <time>2021-08-14T09:19:31.555Z</time>
      </trkpt>
      <trkpt lat="40.29453" lon="44.37107">
        <ele>1151.156613</ele>
        <time>2021-08-14T09:19:33.055Z</time>
      </trkpt>
      <trkpt lat="40.29349" lon="44.36869">
        <ele>1150.679457</ele>
        <time>2021-08-14T09:20:40.947Z</time>
      </trkpt>
      <trkpt lat="40.29299" lon="44.36908">
        <ele>1151.35644</ele>
        <time>2021-08-14T09:21:08.371Z</time>
      </trkpt>
      <trkpt lat="40.29281" lon="44.36921">
        <ele>1151.587991</ele>
        <time>2021-08-14T09:21:15.519Z</time>
      </trkpt>
      <trkpt lat="40.29273" lon="44.36927">
        <ele>1151.68733</ele>
        <time>2021-08-14T09:21:21.751Z</time>
      </trkpt>
      <trkpt lat="40.29229" lon="44.36826">
        <ele>1152.16369</ele>
        <time>2021-08-14T09:21:57.124Z</time>
      </trkpt>
      <trkpt lat="40.29211" lon="44.36786">
        <ele>1152.353665</ele>
        <time>2021-08-14T09:22:08.957Z</time>
      </trkpt>
      <trkpt lat="40.29192" lon="44.3674">
        <ele>1152.566116</ele>
        <time>2021-08-14T09:22:20.023Z</time>
      </trkpt>
      <trkpt lat="40.29146" lon="44.36632">
        <ele>1151.022423</ele>
        <time>2021-08-14T09:22:43.159Z</time>
      </trkpt>
      <trkpt lat="40.29104" lon="44.36529">
        <ele>1149.219658</ele>
        <time>2021-08-14T09:23:05.091Z</time>
      </trkpt>
      <trkpt lat="40.29065" lon="44.36438">
        <ele>1146.484481</ele>
        <time>2021-08-14T09:23:23.944Z</time>
      </trkpt>
      <trkpt lat="40.29056" lon="44.36421">
        <ele>1145.910589</ele>
        <time>2021-08-14T09:23:27.533Z</time>
      </trkpt>
      <trkpt lat="40.29032" lon="44.36361">
        <ele>1144.023817</ele>
        <time>2021-08-14T09:23:38.987Z</time>
      </trkpt>
      <trkpt lat="40.28977" lon="44.36221">
        <ele>1136.838244</ele>
        <time>2021-08-14T09:24:04.157Z</time>
      </trkpt>
      <trkpt lat="40.28971" lon="44.36203">
        <ele>1135.754779</ele>
        <time>2021-08-14T09:24:07.114Z</time>
      </trkpt>
      <trkpt lat="40.28963" lon="44.36162">
        <ele>1133.403183</ele>
        <time>2021-08-14T09:24:13.573Z</time>
      </trkpt>
      <trkpt lat="40.28961" lon="44.36155">
        <ele>1132.970281</ele>
        <time>2021-08-14T09:24:14.666Z</time>
      </trkpt>
      <trkpt lat="40.28961" lon="44.36091">
        <ele>1129.408805</ele>
        <time>2021-08-14T09:24:24.139Z</time>
      </trkpt>
      <trkpt lat="40.28973" lon="44.36014">
        <ele>1124.006563</ele>
        <time>2021-08-14T09:24:35.357Z</time>
      </trkpt>
      <trkpt lat="40.28997" lon="44.35951">
        <ele>1119.11538</ele>
        <time>2021-08-14T09:24:45.984Z</time>
      </trkpt>
      <trkpt lat="40.29049" lon="44.35823">
        <ele>1111.813674</ele>
        <time>2021-08-14T09:25:08.412Z</time>
      </trkpt>
      <trkpt lat="40.29063" lon="44.35788">
        <ele>1111.010924</ele>
        <time>2021-08-14T09:25:15.315Z</time>
      </trkpt>
      <trkpt lat="40.29079" lon="44.35744">
        <ele>1110.009684</ele>
        <time>2021-08-14T09:25:24.457Z</time>
      </trkpt>
      <trkpt lat="40.29082" lon="44.35737">
        <ele>1109.840469</ele>
        <time>2021-08-14T09:25:26.944Z</time>
      </trkpt>
      <trkpt lat="40.29109" lon="44.35669">
        <ele>1108.279915</ele>
        <time>2021-08-14T09:25:45.236Z</time>
      </trkpt>
      <trkpt lat="40.29115" lon="44.35654">
        <ele>1108.166982</ele>
        <time>2021-08-14T09:25:50.616Z</time>
      </trkpt>
      <trkpt lat="40.29126" lon="44.35627">
        <ele>1108.21261</ele>
        <time>2021-08-14T09:26:01.454Z</time>
      </trkpt>
      <trkpt lat="40.29174" lon="44.35486">
        <ele>1108.440942</ele>
        <time>2021-08-14T09:26:41.133Z</time>
      </trkpt>
      <trkpt lat="40.29183" lon="44.35448">
        <ele>1108.499406</ele>
        <time>2021-08-14T09:26:48.842Z</time>
      </trkpt>
      <trkpt lat="40.29205" lon="44.35326">
        <ele>1107.299549</ele>
        <time>2021-08-14T09:27:13.476Z</time>
      </trkpt>
      <trkpt lat="40.29205" lon="44.35315">
        <ele>1107.197028</ele>
        <time>2021-08-14T09:27:15.607Z</time>
      </trkpt>
      <trkpt lat="40.29213" lon="44.35268">
        <ele>1106.735583</ele>
        <time>2021-08-14T09:27:25.383Z</time>
      </trkpt>
      <trkpt lat="40.29222" lon="44.35191">
        <ele>1105.883062</ele>
        <time>2021-08-14T09:27:41.565Z</time>
      </trkpt>
      <trkpt lat="40.2924" lon="44.35128">
        <ele>1104.931962</ele>
        <time>2021-08-14T09:27:55.448Z</time>
      </trkpt>
      <trkpt lat="40.29263" lon="44.35084">
        <ele>1104.185668</ele>
        <time>2021-08-14T09:28:05.623Z</time>
      </trkpt>
      <trkpt lat="40.29289" lon="44.35057">
        <ele>1103.580044</ele>
        <time>2021-08-14T09:28:13.549Z</time>
      </trkpt>
      <trkpt lat="40.2936" lon="44.34995">
        <ele>1101.343835</ele>
        <time>2021-08-14T09:28:33.417Z</time>
      </trkpt>
      <trkpt lat="40.2939" lon="44.3498">
        <ele>1100.343931</ele>
        <time>2021-08-14T09:28:40.459Z</time>
      </trkpt>
      <trkpt lat="40.29491" lon="44.34952">
        <ele>1097.18395</ele>
        <time>2021-08-14T09:29:03.782Z</time>
      </trkpt>
      <trkpt lat="40.29514" lon="44.34941">
        <ele>1096.77804</ele>
        <time>2021-08-14T09:29:09.518Z</time>
      </trkpt>
      <trkpt lat="40.29528" lon="44.3493">
        <ele>1096.519324</ele>
        <time>2021-08-14T09:29:13.367Z</time>
      </trkpt>
      <trkpt lat="40.29537" lon="44.34924">
        <ele>1096.353487</ele>
        <time>2021-08-14T09:29:15.875Z</time>
      </trkpt>
      <trkpt lat="40.29632" lon="44.34855">
        <ele>1094.572818</ele>
        <time>2021-08-14T09:29:44.584Z</time>
      </trkpt>
      <trkpt lat="40.29643" lon="44.34836">
        <ele>1094.333056</ele>
        <time>2021-08-14T09:29:49.589Z</time>
      </trkpt>
      <trkpt lat="40.29651" lon="44.34815">
        <ele>1094.266946</ele>
        <time>2021-08-14T09:29:54.910Z</time>
      </trkpt>
      <trkpt lat="40.29665" lon="44.34756">
        <ele>1094.088259</ele>
        <time>2021-08-14T09:30:09.612Z</time>
      </trkpt>
      <trkpt lat="40.29669" lon="44.34732">
        <ele>1094.017749</ele>
        <time>2021-08-14T09:30:15.303Z</time>
      </trkpt>
      <trkpt lat="40.29685" lon="44.34682">
        <ele>1093.863503</ele>
        <time>2021-08-14T09:30:27.802Z</time>
      </trkpt>
      <trkpt lat="40.29695" lon="44.3466">
        <ele>1093.789888</ele>
        <time>2021-08-14T09:30:33.614Z</time>
      </trkpt>
      <trkpt lat="40.29729" lon="44.34606">
        <ele>1093.468106</ele>
        <time>2021-08-14T09:30:48.802Z</time>
      </trkpt>
      <trkpt lat="40.29735" lon="44.34595">
        <ele>1093.367556</ele>
        <time>2021-08-14T09:30:51.776Z</time>
      </trkpt>
      <trkpt lat="40.2974" lon="44.3458">
        <ele>1093.246355</ele>
        <time>2021-08-14T09:30:55.272Z</time>
      </trkpt>
      <trkpt lat="40.29745" lon="44.34534">
        <ele>1092.91519</ele>
        <time>2021-08-14T09:31:05.046Z</time>
      </trkpt>
      <trkpt lat="40.29745" lon="44.34509">
        <ele>1092.730196</ele>
        <time>2021-08-14T09:31:10.588Z</time>
      </trkpt>
      <trkpt lat="40.29747" lon="44.34389">
        <ele>1091.737525</ele>
        <time>2021-08-14T09:31:34.896Z</time>
      </trkpt>
      <trkpt lat="40.29745" lon="44.34307">
        <ele>1090.361665</ele>
        <time>2021-08-14T09:31:50.448Z</time>
      </trkpt>
      <trkpt lat="40.29734" lon="44.3419">
        <ele>1088.386216</ele>
        <time>2021-08-14T09:32:11.892Z</time>
      </trkpt>
      <trkpt lat="40.29735" lon="44.34151">
        <ele>1087.585843</ele>
        <time>2021-08-14T09:32:18.955Z</time>
      </trkpt>
      <trkpt lat="40.2974" lon="44.34126">
        <ele>1086.954668</ele>
        <time>2021-08-14T09:32:23.406Z</time>
      </trkpt>
      <trkpt lat="40.29814" lon="44.33898">
        <ele>1080.670496</ele>
        <time>2021-08-14T09:33:06.248Z</time>
      </trkpt>
      <trkpt lat="40.2982" lon="44.33815">
        <ele>1078.481409</ele>
        <time>2021-08-14T09:33:20.414Z</time>
      </trkpt>
      <trkpt lat="40.29819" lon="44.33715">
        <ele>1075.843279</ele>
        <time>2021-08-14T09:33:37.714Z</time>
      </trkpt>
      <trkpt lat="40.29814" lon="44.33671">
        <ele>1074.953388</ele>
        <time>2021-08-14T09:33:45.320Z</time>
      </trkpt>
      <trkpt lat="40.29735" lon="44.33338">
        <ele>1068.708488</ele>
        <time>2021-08-14T09:34:49.018Z</time>
      </trkpt>
      <trkpt lat="40.2965" lon="44.33058">
        <ele>1065.722643</ele>
        <time>2021-08-14T09:35:50.246Z</time>
      </trkpt>
      <trkpt lat="40.29645" lon="44.32998">
        <ele>1065.56322</ele>
        <time>2021-08-14T09:36:03.674Z</time>
      </trkpt>
      <trkpt lat="40.29681" lon="44.32592">
        <ele>1065.342019</ele>
        <time>2021-08-14T09:37:40.630Z</time>
      </trkpt>
      <trkpt lat="40.29673" lon="44.32429">
        <ele>1065.433152</ele>
        <time>2021-08-14T09:38:21.204Z</time>
      </trkpt>
      <trkpt lat="40.29672" lon="44.32268">
        <ele>1065.29273</ele>
        <time>2021-08-14T09:38:59.268Z</time>
      </trkpt>
      <trkpt lat="40.29667" lon="44.32054">
        <ele>1064.763786</ele>
        <time>2021-08-14T09:39:46.417Z</time>
      </trkpt>
      <trkpt lat="40.29667" lon="44.32046">
        <ele>1064.74396</ele>
        <time>2021-08-14T09:39:48.118Z</time>
      </trkpt>
      <trkpt lat="40.29665" lon="44.31972">
        <ele>1064.570147</ele>
        <time>2021-08-14T09:40:04.688Z</time>
      </trkpt>
      <trkpt lat="40.29658" lon="44.31674">
        <ele>1063.974798</ele>
        <time>2021-08-14T09:41:14.354Z</time>
      </trkpt>
      <trkpt lat="40.29657" lon="44.31644">
        <ele>1063.921676</ele>
        <time>2021-08-14T09:41:20.811Z</time>
      </trkpt>
      <trkpt lat="40.29651" lon="44.31173">
        <ele>1060.886902</ele>
        <time>2021-08-14T09:42:58.862Z</time>
      </trkpt>
      <trkpt lat="40.29654" lon="44.31038">
        <ele>1060.237621</ele>
        <time>2021-08-14T09:43:29.919Z</time>
      </trkpt>
      <trkpt lat="40.29653" lon="44.31001">
        <ele>1060.066442</ele>
        <time>2021-08-14T09:43:38.136Z</time>
      </trkpt>
      <trkpt lat="40.29651" lon="44.30958">
        <ele>1059.861388</ele>
        <time>2021-08-14T09:43:47.799Z</time>
      </trkpt>
      <trkpt lat="40.2965" lon="44.30912">
        <ele>1059.460216</ele>
        <time>2021-08-14T09:43:57.431Z</time>
      </trkpt>
      <trkpt lat="40.2964" lon="44.30524">
        <ele>1052.760474</ele>
        <time>2021-08-14T09:45:08.746Z</time>
      </trkpt>
      <trkpt lat="40.29639" lon="44.30438">
        <ele>1051.263454</ele>
        <time>2021-08-14T09:45:23.876Z</time>
      </trkpt>
      <trkpt lat="40.29639" lon="44.30411">
        <ele>1050.970417</ele>
        <time>2021-08-14T09:45:28.467Z</time>
      </trkpt>
      <trkpt lat="40.29637" lon="44.30195">
        <ele>1049.426743</ele>
        <time>2021-08-14T09:46:11.581Z</time>
      </trkpt>
      <trkpt lat="40.29632" lon="44.29935">
        <ele>1054.803093</ele>
        <time>2021-08-14T09:47:50.899Z</time>
      </trkpt>
      <trkpt lat="40.29629" lon="44.29743">
        <ele>1059.960527</ele>
        <time>2021-08-14T09:49:09.139Z</time>
      </trkpt>
      <trkpt lat="40.29624" lon="44.29318">
        <ele>1067.181276</ele>
        <time>2021-08-14T09:51:28.312Z</time>
      </trkpt>
      <trkpt lat="40.29675" lon="44.29328">
        <ele>1068.305749</ele>
        <time>2021-08-14T09:51:50.780Z</time>
      </trkpt>
      <trkpt lat="40.29679" lon="44.29329">
        <ele>1068.395957</ele>
        <time>2021-08-14T09:51:52.578Z</time>
      </trkpt>
      <trkpt lat="40.29679" lon="44.29134">
        <ele>1071.746799</ele>
        <time>2021-08-14T09:53:00.005Z</time>
      </trkpt>
      <trkpt lat="40.29679" lon="44.28709">
        <ele>1079.281262</ele>
        <time>2021-08-14T09:55:30.226Z</time>
      </trkpt>
      <trkpt lat="40.2968" lon="44.28696">
        <ele>1079.495537</ele>
        <time>2021-08-14T09:55:34.747Z</time>
      </trkpt>
      <trkpt lat="40.29677" lon="44.28695">
        <ele>1079.571991</ele>
        <time>2021-08-14T09:55:35.947Z</time>
      </trkpt>
      <trkpt lat="40.29631" lon="44.2867">
        <ele>1080.295882</ele>
        <time>2021-08-14T09:55:55.847Z</time>
      </trkpt>
      <trkpt lat="40.29613" lon="44.28667">
        <ele>1080.411434</ele>
        <time>2021-08-14T09:56:03.199Z</time>
      </trkpt>
      <trkpt lat="40.29611" lon="44.28473">
        <ele>1081.260759</ele>
        <time>2021-08-14T09:56:53.039Z</time>
      </trkpt>
      <trkpt lat="40.29601" lon="44.28169">
        <ele>1080.174563</ele>
        <time>2021-08-14T09:57:59.716Z</time>
      </trkpt>
      <trkpt lat="40.29599" lon="44.28097">
        <ele>1079.792555</ele>
        <time>2021-08-14T09:58:14.179Z</time>
      </trkpt>
      <trkpt lat="40.296" lon="44.28057">
        <ele>1079.579943</ele>
        <time>2021-08-14T09:58:22.276Z</time>
      </trkpt>
      <trkpt lat="40.29599" lon="44.2802">
        <ele>1079.384203</ele>
        <time>2021-08-14T09:58:30.013Z</time>
      </trkpt>
      <trkpt lat="40.29592" lon="44.27874">
        <ele>1081.161752</ele>
        <time>2021-08-14T09:59:09.177Z</time>
      </trkpt>
      <trkpt lat="40.29591" lon="44.2783">
        <ele>1081.725755</ele>
        <time>2021-08-14T09:59:24.584Z</time>
      </trkpt>
      <trkpt lat="40.29586" lon="44.27653">
        <ele>1086.353741</ele>
        <time>2021-08-14T10:00:38.487Z</time>
      </trkpt>
      <trkpt lat="40.29596" lon="44.27452">
        <ele>1092.59797</ele>
        <time>2021-08-14T10:02:03.230Z</time>
      </trkpt>
      <trkpt lat="40.29599" lon="44.27292">
        <ele>1097.440303</ele>
        <time>2021-08-14T10:03:06.228Z</time>
      </trkpt>
      <trkpt lat="40.296" lon="44.27255">
        <ele>1098.653753</ele>
        <time>2021-08-14T10:03:21.228Z</time>
      </trkpt>
      <trkpt lat="40.29616" lon="44.26882">
        <ele>1110.820428</ele>
        <time>2021-08-14T10:06:01.495Z</time>
      </trkpt>
      <trkpt lat="40.29621" lon="44.26735">
        <ele>1115.28664</ele>
        <time>2021-08-14T10:06:59.190Z</time>
      </trkpt>
      <trkpt lat="40.29634" lon="44.26432">
        <ele>1125.419163</ele>
        <time>2021-08-14T10:09:02.468Z</time>
      </trkpt>
      <trkpt lat="40.29651" lon="44.25946">
        <ele>1149.267588</ele>
        <time>2021-08-14T10:13:19.324Z</time>
      </trkpt>
      <trkpt lat="40.29634" lon="44.25795">
        <ele>1156.398045</ele>
        <time>2021-08-14T10:14:37.516Z</time>
      </trkpt>
      <trkpt lat="40.2958" lon="44.2554">
        <ele>1167.397663</ele>
        <time>2021-08-14T10:16:40.399Z</time>
      </trkpt>
      <trkpt lat="40.2956" lon="44.25452">
        <ele>1170.971865</ele>
        <time>2021-08-14T10:17:21.883Z</time>
      </trkpt>
      <trkpt lat="40.29523" lon="44.25305">
        <ele>1176.096243</ele>
        <time>2021-08-14T10:18:29.327Z</time>
      </trkpt>
      <trkpt lat="40.29513" lon="44.25298">
        <ele>1176.603388</ele>
        <time>2021-08-14T10:18:36.900Z</time>
      </trkpt>
      <trkpt lat="40.29383" lon="44.25233">
        <ele>1180.63918</ele>
        <time>2021-08-14T10:19:48.413Z</time>
      </trkpt>
      <trkpt lat="40.29371" lon="44.25222">
        <ele>1180.907559</ele>
        <time>2021-08-14T10:19:55.032Z</time>
      </trkpt>
      <trkpt lat="40.29362" lon="44.25206">
        <ele>1181.181261</ele>
        <time>2021-08-14T10:20:01.110Z</time>
      </trkpt>
      <trkpt lat="40.29321" lon="44.25063">
        <ele>1181.819325</ele>
        <time>2021-08-14T10:20:39.929Z</time>
      </trkpt>
      <trkpt lat="40.29286" lon="44.24992">
        <ele>1180.810208</ele>
        <time>2021-08-14T10:20:57.133Z</time>
      </trkpt>
      <trkpt lat="40.29189" lon="44.24904">
        <ele>1178.455415</ele>
        <time>2021-08-14T10:21:26.062Z</time>
      </trkpt>
      <trkpt lat="40.29131" lon="44.24782">
        <ele>1175.483775</ele>
        <time>2021-08-14T10:21:53.099Z</time>
      </trkpt>
      <trkpt lat="40.29085" lon="44.2466">
        <ele>1172.448686</ele>
        <time>2021-08-14T10:22:19.088Z</time>
      </trkpt>
      <trkpt lat="40.28964" lon="44.24308">
        <ele>1162.207188</ele>
        <time>2021-08-14T10:23:29.082Z</time>
      </trkpt>
      <trkpt lat="40.28945" lon="44.24239">
        <ele>1158.712561</ele>
        <time>2021-08-14T10:23:41.439Z</time>
      </trkpt>
      <trkpt lat="40.28949" lon="44.24003">
        <ele>1146.766437</ele>
        <time>2021-08-14T10:24:19.211Z</time>
      </trkpt>
      <trkpt lat="40.28962" lon="44.23898">
        <ele>1140.811298</ele>
        <time>2021-08-14T10:24:36.073Z</time>
      </trkpt>
      <trkpt lat="40.2896" lon="44.2386">
        <ele>1138.691968</ele>
        <time>2021-08-14T10:24:42.164Z</time>
      </trkpt>
      <trkpt lat="40.28954" lon="44.23836">
        <ele>1137.48342</ele>
        <time>2021-08-14T10:24:46.161Z</time>
      </trkpt>
      <trkpt lat="40.28941" lon="44.23815">
        <ele>1136.185343</ele>
        <time>2021-08-14T10:24:50.450Z</time>
      </trkpt>
      <trkpt lat="40.28918" lon="44.2379">
        <ele>1134.305585</ele>
        <time>2021-08-14T10:24:56.699Z</time>
      </trkpt>
      <trkpt lat="40.28875" lon="44.23769">
        <ele>1131.352236</ele>
        <time>2021-08-14T10:25:06.602Z</time>
      </trkpt>
      <trkpt lat="40.28842" lon="44.23769">
        <ele>1129.27547</ele>
        <time>2021-08-14T10:25:13.667Z</time>
      </trkpt>
      <trkpt lat="40.28836" lon="44.23755">
        <ele>1128.492118</ele>
        <time>2021-08-14T10:25:16.353Z</time>
      </trkpt>
      <trkpt lat="40.28839" lon="44.23746">
        <ele>1128.003985</ele>
        <time>2021-08-14T10:25:18.031Z</time>
      </trkpt>
      <trkpt lat="40.28882" lon="44.23726">
        <ele>1125.765813</ele>
        <time>2021-08-14T10:25:27.863Z</time>
      </trkpt>
      <trkpt lat="40.28929" lon="44.23683">
        <ele>1123.072183</ele>
        <time>2021-08-14T10:25:40.907Z</time>
      </trkpt>
      <trkpt lat="40.28963" lon="44.23671">
        <ele>1121.474033</ele>
        <time>2021-08-14T10:25:48.775Z</time>
      </trkpt>
      <trkpt lat="40.28969" lon="44.23663">
        <ele>1121.04943</ele>
        <time>2021-08-14T10:25:50.853Z</time>
      </trkpt>
      <trkpt lat="40.2897" lon="44.23653">
        <ele>1120.706134</ele>
        <time>2021-08-14T10:25:52.547Z</time>
      </trkpt>
      <trkpt lat="40.28962" lon="44.23642">
        <ele>1120.169022</ele>
        <time>2021-08-14T10:25:55.214Z</time>
      </trkpt>
      <trkpt lat="40.28919" lon="44.23648">
        <ele>1118.197151</ele>
        <time>2021-08-14T10:26:05.020Z</time>
      </trkpt>
      <trkpt lat="40.28846" lon="44.23629">
        <ele>1114.755161</ele>
        <time>2021-08-14T10:26:22.070Z</time>
      </trkpt>
      <trkpt lat="40.28813" lon="44.23635">
        <ele>1113.239539</ele>
        <time>2021-08-14T10:26:29.453Z</time>
      </trkpt>
      <trkpt lat="40.28805" lon="44.23629">
        <ele>1112.780468</ele>
        <time>2021-08-14T10:26:31.671Z</time>
      </trkpt>
      <trkpt lat="40.28801" lon="44.23617">
        <ele>1112.314704</ele>
        <time>2021-08-14T10:26:33.914Z</time>
      </trkpt>
      <trkpt lat="40.28806" lon="44.23606">
        <ele>1111.846902</ele>
        <time>2021-08-14T10:26:36.164Z</time>
      </trkpt>
      <trkpt lat="40.28816" lon="44.236">
        <ele>1111.341178</ele>
        <time>2021-08-14T10:26:38.577Z</time>
      </trkpt>
      <trkpt lat="40.28839" lon="44.23601">
        <ele>1110.157672</ele>
        <time>2021-08-14T10:26:43.497Z</time>
      </trkpt>
      <trkpt lat="40.28852" lon="44.23593">
        <ele>1109.270023</ele>
        <time>2021-08-14T10:26:46.654Z</time>
      </trkpt>
      <trkpt lat="40.28874" lon="44.23568">
        <ele>1107.48897</ele>
        <time>2021-08-14T10:26:52.950Z</time>
      </trkpt>
      <trkpt lat="40.28883" lon="44.23548">
        <ele>1106.404339</ele>
        <time>2021-08-14T10:26:56.764Z</time>
      </trkpt>
      <trkpt lat="40.28888" lon="44.23512">
        <ele>1104.720454</ele>
        <time>2021-08-14T10:27:02.655Z</time>
      </trkpt>
      <trkpt lat="40.28872" lon="44.2334">
        <ele>1097.192723</ele>
        <time>2021-08-14T10:27:30.858Z</time>
      </trkpt>
      <trkpt lat="40.28863" lon="44.23296">
        <ele>1095.418616</ele>
        <time>2021-08-14T10:27:38.449Z</time>
      </trkpt>
      <trkpt lat="40.28833" lon="44.23224">
        <ele>1092.208698</ele>
        <time>2021-08-14T10:27:52.572Z</time>
      </trkpt>
      <trkpt lat="40.28826" lon="44.23192">
        <ele>1090.913336</ele>
        <time>2021-08-14T10:27:58.480Z</time>
      </trkpt>
      <trkpt lat="40.2882" lon="44.2312">
        <ele>1089.555483</ele>
        <time>2021-08-14T10:28:11.682Z</time>
      </trkpt>
      <trkpt lat="40.28829" lon="44.23087">
        <ele>1088.982291</ele>
        <time>2021-08-14T10:28:18.318Z</time>
      </trkpt>
      <trkpt lat="40.28784" lon="44.22955">
        <ele>1086.615174</ele>
        <time>2021-08-14T10:28:48.214Z</time>
      </trkpt>
      <trkpt lat="40.28784" lon="44.2292">
        <ele>1086.176818</ele>
        <time>2021-08-14T10:28:55.893Z</time>
      </trkpt>
      <trkpt lat="40.28811" lon="44.229">
        <ele>1085.675329</ele>
        <time>2021-08-14T10:29:04.628Z</time>
      </trkpt>
      <trkpt lat="40.28787" lon="44.22742">
        <ele>1083.574593</ele>
        <time>2021-08-14T10:29:36.045Z</time>
      </trkpt>
      <trkpt lat="40.28733" lon="44.22401">
        <ele>1076.665736</ele>
        <time>2021-08-14T10:30:37.525Z</time>
      </trkpt>
      <trkpt lat="40.2869" lon="44.22125">
        <ele>1073.404866</ele>
        <time>2021-08-14T10:31:32.719Z</time>
      </trkpt>
      <trkpt lat="40.28629" lon="44.21736">
        <ele>1072.73687</ele>
        <time>2021-08-14T10:33:07.856Z</time>
      </trkpt>
      <trkpt lat="40.28521" lon="44.21065">
        <ele>1071.645999</ele>
        <time>2021-08-14T10:35:44.353Z</time>
      </trkpt>
      <trkpt lat="40.28427" lon="44.20488">
        <ele>1071.213977</ele>
        <time>2021-08-14T10:38:01.067Z</time>
      </trkpt>
      <trkpt lat="40.28276" lon="44.19527">
        <ele>1077.189651</ele>
        <time>2021-08-14T10:42:26.183Z</time>
      </trkpt>
      <trkpt lat="40.28249" lon="44.19403">
        <ele>1080.510435</ele>
        <time>2021-08-14T10:43:16.667Z</time>
      </trkpt>
      <trkpt lat="40.28223" lon="44.19299">
        <ele>1083.445423</ele>
        <time>2021-08-14T10:44:02.211Z</time>
      </trkpt>
      <trkpt lat="40.28216" lon="44.19216">
        <ele>1085.622987</ele>
        <time>2021-08-14T10:44:36.355Z</time>
      </trkpt>
      <trkpt lat="40.28206" lon="44.19152">
        <ele>1087.312204</ele>
        <time>2021-08-14T10:45:01.853Z</time>
      </trkpt>
      <trkpt lat="40.28173" lon="44.19021">
        <ele>1090.684526</ele>
        <time>2021-08-14T10:45:50.317Z</time>
      </trkpt>
      <trkpt lat="40.2808" lon="44.18694">
        <ele>1098.866805</ele>
        <time>2021-08-14T10:47:57.113Z</time>
      </trkpt>
      <trkpt lat="40.28075" lon="44.18646">
        <ele>1100.096139</ele>
        <time>2021-08-14T10:48:16.239Z</time>
      </trkpt>
      <trkpt lat="40.28068" lon="44.18396">
        <ele>1108.150707</ele>
        <time>2021-08-14T10:50:02.223Z</time>
      </trkpt>
      <trkpt lat="40.28078" lon="44.18303">
        <ele>1111.281203</ele>
        <time>2021-08-14T10:50:44.319Z</time>
      </trkpt>
      <trkpt lat="40.28118" lon="44.18183">
        <ele>1115.644875</ele>
        <time>2021-08-14T10:51:40.232Z</time>
      </trkpt>
      <trkpt lat="40.28173" lon="44.18047">
        <ele>1119.075814</ele>
        <time>2021-08-14T10:52:38.863Z</time>
      </trkpt>
      <trkpt lat="40.28401" lon="44.17478">
        <ele>1128.096799</ele>
        <time>2021-08-14T10:55:57.036Z</time>
      </trkpt>
      <trkpt lat="40.28435" lon="44.17336">
        <ele>1130.190331</ele>
        <time>2021-08-14T10:56:43.554Z</time>
      </trkpt>
      <trkpt lat="40.2847" lon="44.17112">
        <ele>1134.424813</ele>
        <time>2021-08-14T10:58:01.593Z</time>
      </trkpt>
      <trkpt lat="40.28476" lon="44.17062">
        <ele>1135.489266</ele>
        <time>2021-08-14T10:58:19.753Z</time>
      </trkpt>
      <trkpt lat="40.28507" lon="44.16877">
        <ele>1140.168367</ele>
        <time>2021-08-14T10:59:32.750Z</time>
      </trkpt>
      <trkpt lat="40.28527" lon="44.16813">
        <ele>1141.761235</ele>
        <time>2021-08-14T10:59:58.286Z</time>
      </trkpt>
      <trkpt lat="40.28538" lon="44.16777">
        <ele>1142.655629</ele>
        <time>2021-08-14T11:00:12.919Z</time>
      </trkpt>
      <trkpt lat="40.28552" lon="44.16738">
        <ele>1143.619404</ele>
        <time>2021-08-14T11:00:28.591Z</time>
      </trkpt>
      <trkpt lat="40.28598" lon="44.16638">
        <ele>1146.22238</ele>
        <time>2021-08-14T11:01:11.025Z</time>
      </trkpt>
      <trkpt lat="40.28686" lon="44.1646">
        <ele>1149.77353</ele>
        <time>2021-08-14T11:02:21.680Z</time>
      </trkpt>
      <trkpt lat="40.28806" lon="44.16245">
        <ele>1153.061829</ele>
        <time>2021-08-14T11:03:41.218Z</time>
      </trkpt>
      <trkpt lat="40.28884" lon="44.16105">
        <ele>1155.777934</ele>
        <time>2021-08-14T11:04:36.884Z</time>
      </trkpt>
      <trkpt lat="40.28934" lon="44.16017">
        <ele>1157.829832</ele>
        <time>2021-08-14T11:05:15.327Z</time>
      </trkpt>
      <trkpt lat="40.29021" lon="44.15862">
        <ele>1161.903834</ele>
        <time>2021-08-14T11:06:24.784Z</time>
      </trkpt>
      <trkpt lat="40.2921" lon="44.15531">
        <ele>1170.889601</ele>
        <time>2021-08-14T11:08:53.715Z</time>
      </trkpt>
      <trkpt lat="40.29252" lon="44.15456">
        <ele>1172.80407</ele>
        <time>2021-08-14T11:09:26.386Z</time>
      </trkpt>
      <trkpt lat="40.29281" lon="44.15358">
        <ele>1174.904512</ele>
        <time>2021-08-14T11:10:03.144Z</time>
      </trkpt>
      <trkpt lat="40.29296" lon="44.15254">
        <ele>1177.056876</ele>
        <time>2021-08-14T11:10:40.183Z</time>
      </trkpt>
      <trkpt lat="40.29317" lon="44.15103">
        <ele>1180.318831</ele>
        <time>2021-08-14T11:11:34.266Z</time>
      </trkpt>
      <trkpt lat="40.29356" lon="44.14865">
        <ele>1186.126251</ele>
        <time>2021-08-14T11:13:03.797Z</time>
      </trkpt>
      <trkpt lat="40.2937" lon="44.1474">
        <ele>1189.767334</ele>
        <time>2021-08-14T11:13:55.264Z</time>
      </trkpt>
      <trkpt lat="40.29379" lon="44.14655">
        <ele>1192.448826</ele>
        <time>2021-08-14T11:14:30.823Z</time>
      </trkpt>
      <trkpt lat="40.29402" lon="44.14642">
        <ele>1193.461868</ele>
        <time>2021-08-14T11:14:44.548Z</time>
      </trkpt>
      <trkpt lat="40.29472" lon="44.14604">
        <ele>1196.872128</ele>
        <time>2021-08-14T11:15:26.014Z</time>
      </trkpt>
      <trkpt lat="40.29453" lon="44.14549">
        <ele>1199.062365</ele>
        <time>2021-08-14T11:15:52.575Z</time>
      </trkpt>
      <trkpt lat="40.29652" lon="44.14385">
        <ele>1210.599795</ele>
        <time>2021-08-14T11:18:17.690Z</time>
      </trkpt>
      <trkpt lat="40.29912" lon="44.1417">
        <ele>1222.654546</ele>
        <time>2021-08-14T11:21:06.589Z</time>
      </trkpt>
      <trkpt lat="40.2994" lon="44.14163">
        <ele>1223.583418</ele>
        <time>2021-08-14T11:21:20.927Z</time>
      </trkpt>
      <trkpt lat="40.29945" lon="44.14145">
        <ele>1224.072399</ele>
        <time>2021-08-14T11:21:28.668Z</time>
      </trkpt>
      <trkpt lat="40.29949" lon="44.14126">
        <ele>1224.566988</ele>
        <time>2021-08-14T11:21:35.463Z</time>
      </trkpt>
      <trkpt lat="40.29945" lon="44.14102">
        <ele>1225.171577</ele>
        <time>2021-08-14T11:21:44.123Z</time>
      </trkpt>
      <trkpt lat="40.29924" lon="44.14025">
        <ele>1225.329154</ele>
        <time>2021-08-14T11:22:09.621Z</time>
      </trkpt>
      <trkpt lat="40.29901" lon="44.13933">
        <ele>1225.205411</ele>
        <time>2021-08-14T11:22:33.585Z</time>
      </trkpt>
      <trkpt lat="40.29827" lon="44.13655">
        <ele>1220.830366</ele>
        <time>2021-08-14T11:23:29.507Z</time>
      </trkpt>
      <trkpt lat="40.29805" lon="44.1343">
        <ele>1216.482207</ele>
        <time>2021-08-14T11:24:12.225Z</time>
      </trkpt>
      <trkpt lat="40.29768" lon="44.13132">
        <ele>1214.662923</ele>
        <time>2021-08-14T11:25:15.004Z</time>
      </trkpt>
      <trkpt lat="40.29757" lon="44.13072">
        <ele>1215.889303</ele>
        <time>2021-08-14T11:25:34.596Z</time>
      </trkpt>
      <trkpt lat="40.2971" lon="44.1289">
        <ele>1221.415528</ele>
        <time>2021-08-14T11:27:00.728Z</time>
      </trkpt>
      <trkpt lat="40.29706" lon="44.12855">
        <ele>1223.071</ele>
        <time>2021-08-14T11:27:21.940Z</time>
      </trkpt>
      <trkpt lat="40.29708" lon="44.1282">
        <ele>1224.65985</ele>
        <time>2021-08-14T11:27:41.863Z</time>
      </trkpt>
      <trkpt lat="40.29722" lon="44.12735">
        <ele>1228.678423</ele>
        <time>2021-08-14T11:28:25.219Z</time>
      </trkpt>
      <trkpt lat="40.29722" lon="44.12728">
        <ele>1229.001831</ele>
        <time>2021-08-14T11:28:31.476Z</time>
      </trkpt>
      <trkpt lat="40.29723" lon="44.12706">
        <ele>1229.588152</ele>
        <time>2021-08-14T11:28:40.917Z</time>
      </trkpt>
      <trkpt lat="40.29717" lon="44.12632">
        <ele>1231.206509</ele>
        <time>2021-08-14T11:29:16.061Z</time>
      </trkpt>
      <trkpt lat="40.29702" lon="44.12546">
        <ele>1233.108405</ele>
        <time>2021-08-14T11:29:48.553Z</time>
      </trkpt>
      <trkpt lat="40.29594" lon="44.12331">
        <ele>1232.278624</ele>
        <time>2021-08-14T11:30:42.921Z</time>
      </trkpt>
      <trkpt lat="40.29526" lon="44.12195">
        <ele>1230.257586</ele>
        <time>2021-08-14T11:31:13.956Z</time>
      </trkpt>
      <trkpt lat="40.29515" lon="44.12173">
        <ele>1229.916307</ele>
        <time>2021-08-14T11:31:18.972Z</time>
      </trkpt>
      <trkpt lat="40.29508" lon="44.11987">
        <ele>1228.983233</ele>
        <time>2021-08-14T11:31:59.208Z</time>
      </trkpt>
      <trkpt lat="40.29502" lon="44.11813">
        <ele>1229.033492</ele>
        <time>2021-08-14T11:32:47.862Z</time>
      </trkpt>
      <trkpt lat="40.29499" lon="44.11738">
        <ele>1228.825844</ele>
        <time>2021-08-14T11:33:06.607Z</time>
      </trkpt>
      <trkpt lat="40.29504" lon="44.11674">
        <ele>1228.650587</ele>
        <time>2021-08-14T11:33:20.202Z</time>
      </trkpt>
      <trkpt lat="40.2951" lon="44.11576">
        <ele>1227.68417</ele>
        <time>2021-08-14T11:33:39.198Z</time>
      </trkpt>
      <trkpt lat="40.2952" lon="44.11509">
        <ele>1226.447887</ele>
        <time>2021-08-14T11:33:51.541Z</time>
      </trkpt>
      <trkpt lat="40.2969" lon="44.10821">
        <ele>1214.125758</ele>
        <time>2021-08-14T11:36:03.655Z</time>
      </trkpt>
      <trkpt lat="40.29714" lon="44.10776">
        <ele>1213.460346</ele>
        <time>2021-08-14T11:36:15.126Z</time>
      </trkpt>
      <trkpt lat="40.29727" lon="44.10738">
        <ele>1212.95262</ele>
        <time>2021-08-14T11:36:24.156Z</time>
      </trkpt>
      <trkpt lat="40.29733" lon="44.10701">
        <ele>1212.7711</ele>
        <time>2021-08-14T11:36:32.542Z</time>
      </trkpt>
      <trkpt lat="40.29735" lon="44.10645">
        <ele>1212.651789</ele>
        <time>2021-08-14T11:36:45.464Z</time>
      </trkpt>
      <trkpt lat="40.29876" lon="44.10074">
        <ele>1211.285429</ele>
        <time>2021-08-14T11:39:02.029Z</time>
      </trkpt>
      <trkpt lat="40.29898" lon="44.09984">
        <ele>1210.984778</ele>
        <time>2021-08-14T11:39:22.771Z</time>
      </trkpt>
      <trkpt lat="40.29999" lon="44.09583">
        <ele>1210.985375</ele>
        <time>2021-08-14T11:40:56.881Z</time>
      </trkpt>
      <trkpt lat="40.30393" lon="44.08042">
        <ele>1257.065076</ele>
        <time>2021-08-14T11:51:47.499Z</time>
      </trkpt>
      <trkpt lat="40.30429" lon="44.07906">
        <ele>1262.588321</ele>
        <time>2021-08-14T11:52:52.027Z</time>
      </trkpt>
      <trkpt lat="40.3044" lon="44.07868">
        <ele>1264.176054</ele>
        <time>2021-08-14T11:53:10.636Z</time>
      </trkpt>
      <trkpt lat="40.30452" lon="44.07867">
        <ele>1264.809413</ele>
        <time>2021-08-14T11:53:19.224Z</time>
      </trkpt>
      <trkpt lat="40.30675" lon="44.07751">
        <ele>1278.022864</ele>
        <time>2021-08-14T11:55:51.550Z</time>
      </trkpt>
      <trkpt lat="40.30809" lon="44.07666">
        <ele>1285.184988</ele>
        <time>2021-08-14T11:57:17.541Z</time>
      </trkpt>
      <trkpt lat="40.3081" lon="44.07563">
        <ele>1287.621046</ele>
        <time>2021-08-14T11:57:57.438Z</time>
      </trkpt>
      <trkpt lat="40.3081" lon="44.07516">
        <ele>1288.705284</ele>
        <time>2021-08-14T11:58:14.210Z</time>
      </trkpt>
      <trkpt lat="40.30789" lon="44.07411">
        <ele>1291.028224</ele>
        <time>2021-08-14T11:58:50.862Z</time>
      </trkpt>
      <trkpt lat="40.30725" lon="44.07278">
        <ele>1293.120433</ele>
        <time>2021-08-14T11:59:40.637Z</time>
      </trkpt>
      <trkpt lat="40.30678" lon="44.07176">
        <ele>1294.30405</ele>
        <time>2021-08-14T12:00:15.582Z</time>
      </trkpt>
      <trkpt lat="40.30665" lon="44.07141">
        <ele>1294.567214</ele>
        <time>2021-08-14T12:00:26.135Z</time>
      </trkpt>
      <trkpt lat="40.30657" lon="44.07097">
        <ele>1294.881534</ele>
        <time>2021-08-14T12:00:38.298Z</time>
      </trkpt>
      <trkpt lat="40.3066" lon="44.07056">
        <ele>1295.163987</ele>
        <time>2021-08-14T12:00:48.953Z</time>
      </trkpt>
      <trkpt lat="40.30669" lon="44.07017">
        <ele>1295.439071</ele>
        <time>2021-08-14T12:00:59.426Z</time>
      </trkpt>
      <trkpt lat="40.30717" lon="44.06913">
        <ele>1296.826387</ele>
        <time>2021-08-14T12:01:33.093Z</time>
      </trkpt>
      <trkpt lat="40.30724" lon="44.06849">
        <ele>1297.574861</ele>
        <time>2021-08-14T12:01:52.984Z</time>
      </trkpt>
      <trkpt lat="40.30722" lon="44.06815">
        <ele>1297.968094</ele>
        <time>2021-08-14T12:02:04.019Z</time>
      </trkpt>
      <trkpt lat="40.30709" lon="44.06787">
        <ele>1298.535173</ele>
        <time>2021-08-14T12:02:15.223Z</time>
      </trkpt>
      <trkpt lat="40.30705" lon="44.0677">
        <ele>1299.038875</ele>
        <time>2021-08-14T12:02:21.379Z</time>
      </trkpt>
      <trkpt lat="40.30873" lon="44.0611">
        <ele>1319.312541</ele>
        <time>2021-08-14T12:07:04.259Z</time>
      </trkpt>
      <trkpt lat="40.31628" lon="44.03021">
        <ele>1408.836999</ele>
        <time>2021-08-14T12:28:19.684Z</time>
      </trkpt>
      <trkpt lat="40.3168" lon="44.02838">
        <ele>1412.675735</ele>
        <time>2021-08-14T12:29:25.446Z</time>
      </trkpt>
      <trkpt lat="40.31701" lon="44.02775">
        <ele>1413.916202</ele>
        <time>2021-08-14T12:29:47.699Z</time>
      </trkpt>
      <trkpt lat="40.31685" lon="44.02794">
        <ele>1414.57215</ele>
        <time>2021-08-14T12:29:57.457Z</time>
      </trkpt>
      <trkpt lat="40.31674" lon="44.02803">
        <ele>1415.031114</ele>
        <time>2021-08-14T12:30:03.182Z</time>
      </trkpt>
      <trkpt lat="40.31679" lon="44.02811">
        <ele>1415.314799</ele>
        <time>2021-08-14T12:30:06.929Z</time>
      </trkpt>
      <trkpt lat="40.31682" lon="44.02824">
        <ele>1415.689371</ele>
        <time>2021-08-14T12:30:11.811Z</time>
      </trkpt>
      <trkpt lat="40.3168" lon="44.02838">
        <ele>1416.085065</ele>
        <time>2021-08-14T12:30:16.981Z</time>
      </trkpt>
      <trkpt lat="40.3168" lon="44.02838">
        <ele>1416.085065</ele>
        <time>2021-08-14T12:30:17.014Z</time>
      </trkpt>
      <trkpt lat="40.31701" lon="44.02775">
        <ele>1418.002819</ele>
        <time>2021-08-14T12:30:43.783Z</time>
      </trkpt>
      <trkpt lat="40.31744" lon="44.02601">
        <ele>1423.619437</ele>
        <time>2021-08-14T12:32:02.963Z</time>
      </trkpt>
      <trkpt lat="40.3199" lon="44.01635">
        <ele>1456.670838</ele>
        <time>2021-08-14T12:39:18.577Z</time>
      </trkpt>
      <trkpt lat="40.32345" lon="44.00193">
        <ele>1467.124974</ele>
        <time>2021-08-14T12:46:06.947Z</time>
      </trkpt>
      <trkpt lat="40.32362" lon="44.00124">
        <ele>1468.283429</ele>
        <time>2021-08-14T12:46:30.094Z</time>
      </trkpt>
      <trkpt lat="40.32368" lon="44.00099">
        <ele>1468.707186</ele>
        <time>2021-08-14T12:46:38.641Z</time>
      </trkpt>
      <trkpt lat="40.32379" lon="44.00048">
        <ele>1469.558609</ele>
        <time>2021-08-14T12:46:55.723Z</time>
      </trkpt>
      <trkpt lat="40.32407" lon="43.99941">
        <ele>1471.959772</ele>
        <time>2021-08-14T12:47:37.631Z</time>
      </trkpt>
      <trkpt lat="40.32414" lon="43.99916">
        <ele>1472.6847</ele>
        <time>2021-08-14T12:47:48.228Z</time>
      </trkpt>
      <trkpt lat="40.32423" lon="43.9988">
        <ele>1473.699694</ele>
        <time>2021-08-14T12:48:02.881Z</time>
      </trkpt>
      <trkpt lat="40.32437" lon="43.99828">
        <ele>1475.210503</ele>
        <time>2021-08-14T12:48:25.142Z</time>
      </trkpt>
      <trkpt lat="40.32468" lon="43.99704">
        <ele>1478.753404</ele>
        <time>2021-08-14T12:49:17.801Z</time>
      </trkpt>
      <trkpt lat="40.32874" lon="43.98126">
        <ele>1524.894697</ele>
        <time>2021-08-14T13:00:07.485Z</time>
      </trkpt>
      <trkpt lat="40.32904" lon="43.98009">
        <ele>1529.23676</ele>
        <time>2021-08-14T13:01:03.385Z</time>
      </trkpt>
      <trkpt lat="40.32957" lon="43.97877">
        <ele>1535.362124</ele>
        <time>2021-08-14T13:02:15.153Z</time>
      </trkpt>
      <trkpt lat="40.33079" lon="43.97649">
        <ele>1546.756463</ele>
        <time>2021-08-14T13:04:27.208Z</time>
      </trkpt>
      <trkpt lat="40.3311" lon="43.97596">
        <ele>1549.433835</ele>
        <time>2021-08-14T13:04:57.063Z</time>
      </trkpt>
      <trkpt lat="40.33172" lon="43.97471">
        <ele>1554.461923</ele>
        <time>2021-08-14T13:06:00.492Z</time>
      </trkpt>
      <trkpt lat="40.33203" lon="43.97436">
        <ele>1556.245084</ele>
        <time>2021-08-14T13:06:22.460Z</time>
      </trkpt>
      <trkpt lat="40.33221" lon="43.97434">
        <ele>1557.051917</ele>
        <time>2021-08-14T13:06:32.195Z</time>
      </trkpt>
      <trkpt lat="40.33258" lon="43.97448">
        <ele>1558.958373</ele>
        <time>2021-08-14T13:06:53.372Z</time>
      </trkpt>
      <trkpt lat="40.33334" lon="43.97435">
        <ele>1562.915291</ele>
        <time>2021-08-14T13:07:37.256Z</time>
      </trkpt>
      <trkpt lat="40.33867" lon="43.97383">
        <ele>1595.369346</ele>
        <time>2021-08-14T13:13:26.687Z</time>
      </trkpt>
      <trkpt lat="40.33975" lon="43.97366">
        <ele>1602.430171</ele>
        <time>2021-08-14T13:14:44.364Z</time>
      </trkpt>
      <trkpt lat="40.34011" lon="43.97354">
        <ele>1604.759224</ele>
        <time>2021-08-14T13:15:10.566Z</time>
      </trkpt>
      <trkpt lat="40.34084" lon="43.97313">
        <ele>1609.698225</ele>
        <time>2021-08-14T13:16:04.537Z</time>
      </trkpt>
      <trkpt lat="40.34544" lon="43.97014">
        <ele>1633.603991</ele>
        <time>2021-08-14T13:20:55.060Z</time>
      </trkpt>
      <trkpt lat="40.34642" lon="43.96937">
        <ele>1637.670625</ele>
        <time>2021-08-14T13:21:55.704Z</time>
      </trkpt>
      <trkpt lat="40.34696" lon="43.96883">
        <ele>1639.403305</ele>
        <time>2021-08-14T13:22:28.371Z</time>
      </trkpt>
      <trkpt lat="40.34929" lon="43.96319">
        <ele>1643.336111</ele>
        <time>2021-08-14T13:25:29.607Z</time>
      </trkpt>
      <trkpt lat="40.35115" lon="43.95856">
        <ele>1633.785377</ele>
        <time>2021-08-14T13:27:02.555Z</time>
      </trkpt>
      <trkpt lat="40.35151" lon="43.95758">
        <ele>1631.196551</ele>
        <time>2021-08-14T13:27:21.027Z</time>
      </trkpt>
      <trkpt lat="40.35169" lon="43.95668">
        <ele>1629.106105</ele>
        <time>2021-08-14T13:27:37.025Z</time>
      </trkpt>
      <trkpt lat="40.35171" lon="43.95612">
        <ele>1627.831669</ele>
        <time>2021-08-14T13:27:46.884Z</time>
      </trkpt>
      <trkpt lat="40.35155" lon="43.9538">
        <ele>1624.303407</ele>
        <time>2021-08-14T13:28:30.290Z</time>
      </trkpt>
      <trkpt lat="40.35153" lon="43.95251">
        <ele>1622.89609</ele>
        <time>2021-08-14T13:28:58.832Z</time>
      </trkpt>
      <trkpt lat="40.35154" lon="43.95226">
        <ele>1622.650681</ele>
        <time>2021-08-14T13:29:04.486Z</time>
      </trkpt>
      <trkpt lat="40.35163" lon="43.95179">
        <ele>1622.184285</ele>
        <time>2021-08-14T13:29:14.786Z</time>
      </trkpt>
      <trkpt lat="40.35172" lon="43.95129">
        <ele>1621.689842</ele>
        <time>2021-08-14T13:29:25.080Z</time>
      </trkpt>
      <trkpt lat="40.35197" lon="43.95075">
        <ele>1621.035664</ele>
        <time>2021-08-14T13:29:36.994Z</time>
      </trkpt>
      <trkpt lat="40.35226" lon="43.95033">
        <ele>1619.311341</ele>
        <time>2021-08-14T13:29:47.179Z</time>
      </trkpt>
      <trkpt lat="40.35505" lon="43.94711">
        <ele>1604.887644</ele>
        <time>2021-08-14T13:31:06.785Z</time>
      </trkpt>
      <trkpt lat="40.35563" lon="43.94644">
        <ele>1603.743604</ele>
        <time>2021-08-14T13:31:27.283Z</time>
      </trkpt>
      <trkpt lat="40.35655" lon="43.94549">
        <ele>1604.750707</ele>
        <time>2021-08-14T13:32:14.950Z</time>
      </trkpt>
      <trkpt lat="40.35693" lon="43.94532">
        <ele>1605.687356</ele>
        <time>2021-08-14T13:32:33.973Z</time>
      </trkpt>
      <trkpt lat="40.36689" lon="43.9437">
        <ele>1635.905042</ele>
        <time>2021-08-14T13:40:31.624Z</time>
      </trkpt>
      <trkpt lat="40.37099" lon="43.94166">
        <ele>1659.569636</ele>
        <time>2021-08-14T13:45:08.875Z</time>
      </trkpt>
      <trkpt lat="40.37297" lon="43.94065">
        <ele>1669.911595</ele>
        <time>2021-08-14T13:47:11.661Z</time>
      </trkpt>
      <trkpt lat="40.37361" lon="43.94025">
        <ele>1672.924554</ele>
        <time>2021-08-14T13:47:50.144Z</time>
      </trkpt>
      <trkpt lat="40.37424" lon="43.93982">
        <ele>1675.785991</ele>
        <time>2021-08-14T13:48:30.235Z</time>
      </trkpt>
      <trkpt lat="40.37443" lon="43.93968">
        <ele>1676.65918</ele>
        <time>2021-08-14T13:48:42.490Z</time>
      </trkpt>
      <trkpt lat="40.37459" lon="43.93955">
        <ele>1677.396841</ele>
        <time>2021-08-14T13:48:52.159Z</time>
      </trkpt>
      <trkpt lat="40.37461" lon="43.93953">
        <ele>1677.536151</ele>
        <time>2021-08-14T13:48:54.055Z</time>
      </trkpt>
      <trkpt lat="40.37496" lon="43.9392">
        <ele>1678.800102</ele>
        <time>2021-08-14T13:49:15.097Z</time>
      </trkpt>
      <trkpt lat="40.37512" lon="43.93904">
        <ele>1679.031968</ele>
        <time>2021-08-14T13:49:24.127Z</time>
      </trkpt>
      <trkpt lat="40.37549" lon="43.93857">
        <ele>1679.6145</ele>
        <time>2021-08-14T13:49:45.054Z</time>
      </trkpt>
      <trkpt lat="40.37561" lon="43.93839">
        <ele>1679.820387</ele>
        <time>2021-08-14T13:49:51.639Z</time>
      </trkpt>
      <trkpt lat="40.37573" lon="43.93822">
        <ele>1680.012504</ele>
        <time>2021-08-14T13:49:57.707Z</time>
      </trkpt>
      <trkpt lat="40.3761" lon="43.93756">
        <ele>1680.579356</ele>
        <time>2021-08-14T13:50:16.794Z</time>
      </trkpt>
      <trkpt lat="40.3762" lon="43.93736">
        <ele>1680.349054</ele>
        <time>2021-08-14T13:50:21.264Z</time>
      </trkpt>
      <trkpt lat="40.37643" lon="43.93685">
        <ele>1679.758652</ele>
        <time>2021-08-14T13:50:32.799Z</time>
      </trkpt>
      <trkpt lat="40.3767" lon="43.93617">
        <ele>1678.984559</ele>
        <time>2021-08-14T13:50:47.149Z</time>
      </trkpt>
      <trkpt lat="40.37755" lon="43.9337">
        <ele>1677.134874</ele>
        <time>2021-08-14T13:51:43.912Z</time>
      </trkpt>
      <trkpt lat="40.37763" lon="43.93348">
        <ele>1676.991674</ele>
        <time>2021-08-14T13:51:49.630Z</time>
      </trkpt>
      <trkpt lat="40.37773" lon="43.93318">
        <ele>1677.018187</ele>
        <time>2021-08-14T13:51:57.010Z</time>
      </trkpt>
      <trkpt lat="40.37794" lon="43.93258">
        <ele>1677.250651</ele>
        <time>2021-08-14T13:52:12.195Z</time>
      </trkpt>
      <trkpt lat="40.37857" lon="43.93059">
        <ele>1678.206557</ele>
        <time>2021-08-14T13:53:11.267Z</time>
      </trkpt>
      <trkpt lat="40.37906" lon="43.93035">
        <ele>1678.652861</ele>
        <time>2021-08-14T13:53:33.896Z</time>
      </trkpt>
      <trkpt lat="40.37988" lon="43.92982">
        <ele>1678.760257</ele>
        <time>2021-08-14T13:54:06.454Z</time>
      </trkpt>
      <trkpt lat="40.38027" lon="43.9296">
        <ele>1677.320556</ele>
        <time>2021-08-14T13:54:18.803Z</time>
      </trkpt>
      <trkpt lat="40.38009" lon="43.9282">
        <ele>1673.686149</ele>
        <time>2021-08-14T13:54:42.567Z</time>
      </trkpt>
      <trkpt lat="40.38072" lon="43.92445">
        <ele>1651.785923</ele>
        <time>2021-08-14T13:55:40.076Z</time>
      </trkpt>
      <trkpt lat="40.38095" lon="43.92107">
        <ele>1634.788326</ele>
        <time>2021-08-14T13:56:32.421Z</time>
      </trkpt>
      <trkpt lat="40.38107" lon="43.92059">
        <ele>1633.70836</ele>
        <time>2021-08-14T13:56:40.919Z</time>
      </trkpt>
      <trkpt lat="40.38122" lon="43.91772">
        <ele>1629.064404</ele>
        <time>2021-08-14T13:57:38.463Z</time>
      </trkpt>
      <trkpt lat="40.38134" lon="43.91687">
        <ele>1628.347546</ele>
        <time>2021-08-14T13:57:57.451Z</time>
      </trkpt>
      <trkpt lat="40.38234" lon="43.91199">
        <ele>1627.864262</ele>
        <time>2021-08-14T14:00:00.635Z</time>
      </trkpt>
      <trkpt lat="40.38249" lon="43.9116">
        <ele>1628.111011</ele>
        <time>2021-08-14T14:00:12.438Z</time>
      </trkpt>
      <trkpt lat="40.38322" lon="43.91044">
        <ele>1629.45508</ele>
        <time>2021-08-14T14:00:57.700Z</time>
      </trkpt>
      <trkpt lat="40.38366" lon="43.90985">
        <ele>1630.193251</ele>
        <time>2021-08-14T14:01:24.104Z</time>
      </trkpt>
      <trkpt lat="40.3839" lon="43.90888">
        <ele>1631.080489</ele>
        <time>2021-08-14T14:01:55.194Z</time>
      </trkpt>
      <trkpt lat="40.38518" lon="43.90341">
        <ele>1634.451006</ele>
        <time>2021-08-14T14:04:26.960Z</time>
      </trkpt>
      <trkpt lat="40.38627" lon="43.89862">
        <ele>1638.737737</ele>
        <time>2021-08-14T14:06:51.819Z</time>
      </trkpt>
      <trkpt lat="40.38641" lon="43.89795">
        <ele>1638.703013</ele>
        <time>2021-08-14T14:07:10.765Z</time>
      </trkpt>
      <trkpt lat="40.38644" lon="43.89784">
        <ele>1638.69749</ele>
        <time>2021-08-14T14:07:13.485Z</time>
      </trkpt>
      <trkpt lat="40.38685" lon="43.89155">
        <ele>1637.537881</ele>
        <time>2021-08-14T14:09:36.344Z</time>
      </trkpt>
      <trkpt lat="40.38689" lon="43.88977">
        <ele>1635.553551</ele>
        <time>2021-08-14T14:10:11.204Z</time>
      </trkpt>
      <trkpt lat="40.38664" lon="43.88762">
        <ele>1631.784504</ele>
        <time>2021-08-14T14:10:50.896Z</time>
      </trkpt>
      <trkpt lat="40.38649" lon="43.88567">
        <ele>1627.561483</ele>
        <time>2021-08-14T14:11:25.721Z</time>
      </trkpt>
      <trkpt lat="40.38644" lon="43.88503">
        <ele>1626.099739</ele>
        <time>2021-08-14T14:11:36.963Z</time>
      </trkpt>
      <trkpt lat="40.38631" lon="43.88398">
        <ele>1623.88944</ele>
        <time>2021-08-14T14:11:55.600Z</time>
      </trkpt>
      <trkpt lat="40.38632" lon="43.88341">
        <ele>1622.742909</ele>
        <time>2021-08-14T14:12:05.713Z</time>
      </trkpt>
      <trkpt lat="40.38643" lon="43.88312">
        <ele>1622.090621</ele>
        <time>2021-08-14T14:12:11.517Z</time>
      </trkpt>
      <trkpt lat="40.38656" lon="43.8829">
        <ele>1621.526197</ele>
        <time>2021-08-14T14:12:16.724Z</time>
      </trkpt>
      <trkpt lat="40.38688" lon="43.88242">
        <ele>1620.507631</ele>
        <time>2021-08-14T14:12:28.573Z</time>
      </trkpt>
      <trkpt lat="40.3869" lon="43.88244">
        <ele>1620.482523</ele>
        <time>2021-08-14T14:12:29.267Z</time>
      </trkpt>
      <trkpt lat="40.38692" lon="43.88245">
        <ele>1620.457482</ele>
        <time>2021-08-14T14:12:29.993Z</time>
      </trkpt>
      <trkpt lat="40.38695" lon="43.88244">
        <ele>1620.432934</ele>
        <time>2021-08-14T14:12:30.656Z</time>
      </trkpt>
      <trkpt lat="40.38699" lon="43.8824">
        <ele>1620.383153</ele>
        <time>2021-08-14T14:12:32.024Z</time>
      </trkpt>
      <trkpt lat="40.38701" lon="43.88237">
        <ele>1620.357677</ele>
        <time>2021-08-14T14:12:32.683Z</time>
      </trkpt>
      <trkpt lat="40.38701" lon="43.88234">
        <ele>1620.332521</ele>
        <time>2021-08-14T14:12:33.336Z</time>
      </trkpt>
      <trkpt lat="40.387" lon="43.8823">
        <ele>1620.307788</ele>
        <time>2021-08-14T14:12:34.030Z</time>
      </trkpt>
      <trkpt lat="40.38699" lon="43.88227">
        <ele>1620.279105</ele>
        <time>2021-08-14T14:12:34.771Z</time>
      </trkpt>
      <trkpt lat="40.38723" lon="43.88173">
        <ele>1619.832087</ele>
        <time>2021-08-14T14:12:47.280Z</time>
      </trkpt>
      <trkpt lat="40.38795" lon="43.87937">
        <ele>1618.443238</ele>
        <time>2021-08-14T14:13:44.827Z</time>
      </trkpt>
      <trkpt lat="40.38824" lon="43.87842">
        <ele>1618.040274</ele>
        <time>2021-08-14T14:14:06.695Z</time>
      </trkpt>
      <trkpt lat="40.38857" lon="43.87732">
        <ele>1617.420332</ele>
        <time>2021-08-14T14:14:30.940Z</time>
      </trkpt>
      <trkpt lat="40.38873" lon="43.8768">
        <ele>1617.123783</ele>
        <time>2021-08-14T14:14:42.461Z</time>
      </trkpt>
      <trkpt lat="40.38937" lon="43.87473">
        <ele>1617.984535</ele>
        <time>2021-08-14T14:15:35.992Z</time>
      </trkpt>
      <trkpt lat="40.38984" lon="43.87367">
        <ele>1620.486179</ele>
        <time>2021-08-14T14:16:18.821Z</time>
      </trkpt>
      <trkpt lat="40.3902" lon="43.87319">
        <ele>1623.21307</ele>
        <time>2021-08-14T14:16:48.539Z</time>
      </trkpt>
      <trkpt lat="40.39075" lon="43.87288">
        <ele>1626.48357</ele>
        <time>2021-08-14T14:17:29.402Z</time>
      </trkpt>
      <trkpt lat="40.39092" lon="43.87284">
        <ele>1627.408221</ele>
        <time>2021-08-14T14:17:41.082Z</time>
      </trkpt>
      <trkpt lat="40.39109" lon="43.87286">
        <ele>1628.388557</ele>
        <time>2021-08-14T14:17:54.508Z</time>
      </trkpt>
      <trkpt lat="40.39149" lon="43.87302">
        <ele>1631.573624</ele>
        <time>2021-08-14T14:18:25.367Z</time>
      </trkpt>
      <trkpt lat="40.3931" lon="43.87391">
        <ele>1644.119463</ele>
        <time>2021-08-14T14:20:38.535Z</time>
      </trkpt>
      <trkpt lat="40.39394" lon="43.87409">
        <ele>1648.292678</ele>
        <time>2021-08-14T14:21:29.762Z</time>
      </trkpt>
      <trkpt lat="40.39445" lon="43.87389">
        <ele>1650.927799</ele>
        <time>2021-08-14T14:21:55.206Z</time>
      </trkpt>
      <trkpt lat="40.3949" lon="43.8736">
        <ele>1651.592261</ele>
        <time>2021-08-14T14:22:15.011Z</time>
      </trkpt>
      <trkpt lat="40.3952" lon="43.87319">
        <ele>1652.021639</ele>
        <time>2021-08-14T14:22:30.676Z</time>
      </trkpt>
      <trkpt lat="40.39543" lon="43.87284">
        <ele>1652.365466</ele>
        <time>2021-08-14T14:22:41.910Z</time>
      </trkpt>
      <trkpt lat="40.39562" lon="43.87257">
        <ele>1652.637889</ele>
        <time>2021-08-14T14:22:50.332Z</time>
      </trkpt>
      <trkpt lat="40.39625" lon="43.87043">
        <ele>1654.875715</ele>
        <time>2021-08-14T14:23:52.647Z</time>
      </trkpt>
      <trkpt lat="40.39654" lon="43.86968">
        <ele>1656.608826</ele>
        <time>2021-08-14T14:24:23.856Z</time>
      </trkpt>
      <trkpt lat="40.39709" lon="43.86922">
        <ele>1659.290686</ele>
        <time>2021-08-14T14:24:58.737Z</time>
      </trkpt>
      <trkpt lat="40.3979" lon="43.86898">
        <ele>1662.726476</ele>
        <time>2021-08-14T14:25:47.001Z</time>
      </trkpt>
      <trkpt lat="40.40214" lon="43.86792">
        <ele>1687.018895</ele>
        <time>2021-08-14T14:30:11.013Z</time>
      </trkpt>
      <trkpt lat="40.40236" lon="43.86786">
        <ele>1688.594726</ele>
        <time>2021-08-14T14:30:28.346Z</time>
      </trkpt>
      <trkpt lat="40.40291" lon="43.86759">
        <ele>1692.767</ele>
        <time>2021-08-14T14:31:12.603Z</time>
      </trkpt>
      <trkpt lat="40.40309" lon="43.86743">
        <ele>1694.348438</ele>
        <time>2021-08-14T14:31:30.079Z</time>
      </trkpt>
      <trkpt lat="40.40359" lon="43.86677">
        <ele>1700.084833</ele>
        <time>2021-08-14T14:32:27.653Z</time>
      </trkpt>
      <trkpt lat="40.40404" lon="43.86611">
        <ele>1705.593784</ele>
        <time>2021-08-14T14:33:19.681Z</time>
      </trkpt>
      <trkpt lat="40.40546" lon="43.86389">
        <ele>1721.924109</ele>
        <time>2021-08-14T14:36:00.251Z</time>
      </trkpt>
      <trkpt lat="40.40564" lon="43.8637">
        <ele>1722.998908</ele>
        <time>2021-08-14T14:36:15.121Z</time>
      </trkpt>
      <trkpt lat="40.40594" lon="43.86345">
        <ele>1724.427321</ele>
        <time>2021-08-14T14:36:37.908Z</time>
      </trkpt>
      <trkpt lat="40.40625" lon="43.86328">
        <ele>1725.740409</ele>
        <time>2021-08-14T14:36:58.092Z</time>
      </trkpt>
      <trkpt lat="40.40989" lon="43.86156">
        <ele>1738.892979</ele>
        <time>2021-08-14T14:40:10.096Z</time>
      </trkpt>
      <trkpt lat="40.41041" lon="43.86124">
        <ele>1740.078343</ele>
        <time>2021-08-14T14:40:30.998Z</time>
      </trkpt>
      <trkpt lat="40.41689" lon="43.85629">
        <ele>1729.597464</ele>
        <time>2021-08-14T14:43:42.940Z</time>
      </trkpt>
      <trkpt lat="40.41694" lon="43.85627">
        <ele>1729.528806</ele>
        <time>2021-08-14T14:43:44.361Z</time>
      </trkpt>
      <trkpt lat="40.41705" lon="43.85622">
        <ele>1729.380511</ele>
        <time>2021-08-14T14:43:47.620Z</time>
      </trkpt>
      <trkpt lat="40.41752" lon="43.85614">
        <ele>1728.787468</ele>
        <time>2021-08-14T14:44:00.281Z</time>
      </trkpt>
      <trkpt lat="40.41778" lon="43.85619">
        <ele>1728.464975</ele>
        <time>2021-08-14T14:44:07.193Z</time>
      </trkpt>
      <trkpt lat="40.41856" lon="43.85654">
        <ele>1727.33226</ele>
        <time>2021-08-14T14:44:29.066Z</time>
      </trkpt>
      <trkpt lat="40.41919" lon="43.85698">
        <ele>1725.952884</ele>
        <time>2021-08-14T14:44:47.144Z</time>
      </trkpt>
      <trkpt lat="40.42244" lon="43.85932">
        <ele>1719.446893</ele>
        <time>2021-08-14T14:46:17.702Z</time>
      </trkpt>
      <trkpt lat="40.43169" lon="43.86745">
        <ele>1716.307108</ele>
        <time>2021-08-14T14:51:51.696Z</time>
      </trkpt>
      <trkpt lat="40.43744" lon="43.87246">
        <ele>1716.983894</ele>
        <time>2021-08-14T14:55:28.415Z</time>
      </trkpt>
      <trkpt lat="40.4397" lon="43.87443">
        <ele>1719.441097</ele>
        <time>2021-08-14T14:57:07.206Z</time>
      </trkpt>
      <trkpt lat="40.43978" lon="43.8745">
        <ele>1719.614772</ele>
        <time>2021-08-14T14:57:11.710Z</time>
      </trkpt>
      <trkpt lat="40.44022" lon="43.87488">
        <ele>1720.522561</ele>
        <time>2021-08-14T14:57:34.208Z</time>
      </trkpt>
      <trkpt lat="40.44035" lon="43.875">
        <ele>1720.802776</ele>
        <time>2021-08-14T14:57:41.633Z</time>
      </trkpt>
      <trkpt lat="40.44059" lon="43.87516">
        <ele>1721.267121</ele>
        <time>2021-08-14T14:57:52.681Z</time>
      </trkpt>
      <trkpt lat="40.4409" lon="43.87527">
        <ele>1721.830224</ele>
        <time>2021-08-14T14:58:06.006Z</time>
      </trkpt>
      <trkpt lat="40.44126" lon="43.87528">
        <ele>1722.39405</ele>
        <time>2021-08-14T14:58:20.712Z</time>
      </trkpt>
      <trkpt lat="40.44161" lon="43.87524">
        <ele>1722.585944</ele>
        <time>2021-08-14T14:58:34.424Z</time>
      </trkpt>
      <trkpt lat="40.44296" lon="43.87465">
        <ele>1723.348468</ele>
        <time>2021-08-14T14:59:20.661Z</time>
      </trkpt>
      <trkpt lat="40.44317" lon="43.87455">
        <ele>1723.350303</ele>
        <time>2021-08-14T14:59:26.752Z</time>
      </trkpt>
      <trkpt lat="40.44509" lon="43.87371">
        <ele>1723.840143</ele>
        <time>2021-08-14T15:00:30.003Z</time>
      </trkpt>
      <trkpt lat="40.44537" lon="43.87354">
        <ele>1724.140345</ele>
        <time>2021-08-14T15:00:41.572Z</time>
      </trkpt>
      <trkpt lat="40.44563" lon="43.87328">
        <ele>1724.463997</ele>
        <time>2021-08-14T15:00:54.126Z</time>
      </trkpt>
      <trkpt lat="40.44587" lon="43.87294">
        <ele>1724.817813</ele>
        <time>2021-08-14T15:01:07.949Z</time>
      </trkpt>
      <trkpt lat="40.44621" lon="43.87224">
        <ele>1725.776055</ele>
        <time>2021-08-14T15:01:32.695Z</time>
      </trkpt>
      <trkpt lat="40.44689" lon="43.87096">
        <ele>1728.297243</ele>
        <time>2021-08-14T15:02:23.761Z</time>
      </trkpt>
      <trkpt lat="40.44708" lon="43.87051">
        <ele>1729.220111</ele>
        <time>2021-08-14T15:02:40.869Z</time>
      </trkpt>
      <trkpt lat="40.44902" lon="43.86471">
        <ele>1744.837748</ele>
        <time>2021-08-14T15:06:45.072Z</time>
      </trkpt>
      <trkpt lat="40.45003" lon="43.86131">
        <ele>1750.635859</ele>
        <time>2021-08-14T15:08:34.912Z</time>
      </trkpt>
      <trkpt lat="40.45061" lon="43.85881">
        <ele>1759.346878</ele>
        <time>2021-08-14T15:10:17.499Z</time>
      </trkpt>
      <trkpt lat="40.45107" lon="43.85589">
        <ele>1778.74913</ele>
        <time>2021-08-14T15:13:23.370Z</time>
      </trkpt>
      <trkpt lat="40.45121" lon="43.85533">
        <ele>1783.299756</ele>
        <time>2021-08-14T15:14:07.235Z</time>
      </trkpt>
      <trkpt lat="40.45133" lon="43.8551">
        <ele>1785.476224</ele>
        <time>2021-08-14T15:14:28.255Z</time>
      </trkpt>
      <trkpt lat="40.45175" lon="43.85461">
        <ele>1791.547011</ele>
        <time>2021-08-14T15:15:24.663Z</time>
      </trkpt>
      <trkpt lat="40.45197" lon="43.85443">
        <ele>1794.261712</ele>
        <time>2021-08-14T15:15:49.293Z</time>
      </trkpt>
      <trkpt lat="40.45304" lon="43.85381">
        <ele>1806.023042</ele>
        <time>2021-08-14T15:17:32.083Z</time>
      </trkpt>
      <trkpt lat="40.4534" lon="43.85348">
        <ele>1808.917314</ele>
        <time>2021-08-14T15:18:03.314Z</time>
      </trkpt>
      <trkpt lat="40.45362" lon="43.85304">
        <ele>1811.598161</ele>
        <time>2021-08-14T15:18:29.695Z</time>
      </trkpt>
      <trkpt lat="40.45368" lon="43.85278">
        <ele>1812.98052</ele>
        <time>2021-08-14T15:18:42.599Z</time>
      </trkpt>
      <trkpt lat="40.4538" lon="43.85161">
        <ele>1818.890844</ele>
        <time>2021-08-14T15:19:35.370Z</time>
      </trkpt>
      <trkpt lat="40.45383" lon="43.85002">
        <ele>1826.578965</ele>
        <time>2021-08-14T15:20:55.219Z</time>
      </trkpt>
      <trkpt lat="40.45385" lon="43.8496">
        <ele>1828.758657</ele>
        <time>2021-08-14T15:21:18.033Z</time>
      </trkpt>
      <trkpt lat="40.45394" lon="43.84919">
        <ele>1831.659389</ele>
        <time>2021-08-14T15:21:46.061Z</time>
      </trkpt>
      <trkpt lat="40.45414" lon="43.84878">
        <ele>1834.876135</ele>
        <time>2021-08-14T15:22:16.032Z</time>
      </trkpt>
      <trkpt lat="40.45443" lon="43.84846">
        <ele>1838.24454</ele>
        <time>2021-08-14T15:22:49.314Z</time>
      </trkpt>
      <trkpt lat="40.45478" lon="43.84826">
        <ele>1841.607284</ele>
        <time>2021-08-14T15:23:21.714Z</time>
      </trkpt>
      <trkpt lat="40.45488" lon="43.84824">
        <ele>1842.489089</ele>
        <time>2021-08-14T15:23:31.372Z</time>
      </trkpt>
      <trkpt lat="40.45509" lon="43.84822">
        <ele>1844.217118</ele>
        <time>2021-08-14T15:23:45.821Z</time>
      </trkpt>
      <trkpt lat="40.45545" lon="43.84835">
        <ele>1846.678259</ele>
        <time>2021-08-14T15:24:13.262Z</time>
      </trkpt>
      <trkpt lat="40.45551" lon="43.84837">
        <ele>1847.052941</ele>
        <time>2021-08-14T15:24:17.319Z</time>
      </trkpt>
      <trkpt lat="40.45563" lon="43.84843">
        <ele>1847.881718</ele>
        <time>2021-08-14T15:24:28.143Z</time>
      </trkpt>
      <trkpt lat="40.45575" lon="43.84852">
        <ele>1848.792588</ele>
        <time>2021-08-14T15:24:37.078Z</time>
      </trkpt>
      <trkpt lat="40.45602" lon="43.84889">
        <ele>1851.308963</ele>
        <time>2021-08-14T15:25:03.535Z</time>
      </trkpt>
      <trkpt lat="40.45611" lon="43.84917">
        <ele>1852.830501</ele>
        <time>2021-08-14T15:25:20.428Z</time>
      </trkpt>
      <trkpt lat="40.45649" lon="43.85047">
        <ele>1858.142071</ele>
        <time>2021-08-14T15:26:17.148Z</time>
      </trkpt>
      <trkpt lat="40.45671" lon="43.85167">
        <ele>1861.9271</ele>
        <time>2021-08-14T15:27:05.442Z</time>
      </trkpt>
      <trkpt lat="40.45673" lon="43.85223">
        <ele>1863.911844</ele>
        <time>2021-08-14T15:27:28.813Z</time>
      </trkpt>
      <trkpt lat="40.45667" lon="43.85294">
        <ele>1866.904982</ele>
        <time>2021-08-14T15:28:00.652Z</time>
      </trkpt>
      <trkpt lat="40.45645" lon="43.85457">
        <ele>1874.047785</ele>
        <time>2021-08-14T15:29:22.162Z</time>
      </trkpt>
      <trkpt lat="40.45648" lon="43.85521">
        <ele>1877.452573</ele>
        <time>2021-08-14T15:29:57.410Z</time>
      </trkpt>
      <trkpt lat="40.45661" lon="43.85574">
        <ele>1880.376722</ele>
        <time>2021-08-14T15:30:27.802Z</time>
      </trkpt>
      <trkpt lat="40.45677" lon="43.85604">
        <ele>1882.297661</ele>
        <time>2021-08-14T15:30:47.698Z</time>
      </trkpt>
      <trkpt lat="40.4573" lon="43.85659">
        <ele>1886.811388</ele>
        <time>2021-08-14T15:31:35.345Z</time>
      </trkpt>
      <trkpt lat="40.46107" lon="43.85919">
        <ele>1914.390637</ele>
        <time>2021-08-14T15:36:19.352Z</time>
      </trkpt>
      <trkpt lat="40.46255" lon="43.8601">
        <ele>1925.172198</ele>
        <time>2021-08-14T15:38:14.110Z</time>
      </trkpt>
      <trkpt lat="40.46277" lon="43.86024">
        <ele>1926.77961</ele>
        <time>2021-08-14T15:38:31.729Z</time>
      </trkpt>
      <trkpt lat="40.46358" lon="43.86086">
        <ele>1932.443895</ele>
        <time>2021-08-14T15:39:34.028Z</time>
      </trkpt>
      <trkpt lat="40.46383" lon="43.86112">
        <ele>1933.490423</ele>
        <time>2021-08-14T15:39:53.465Z</time>
      </trkpt>
      <trkpt lat="40.46752" lon="43.86546">
        <ele>1948.998334</ele>
        <time>2021-08-14T15:43:48.481Z</time>
      </trkpt>
      <trkpt lat="40.46801" lon="43.86582">
        <ele>1950.018398</ele>
        <time>2021-08-14T15:44:11.235Z</time>
      </trkpt>
      <trkpt lat="40.46933" lon="43.86611">
        <ele>1952.501289</ele>
        <time>2021-08-14T15:45:05.167Z</time>
      </trkpt>
      <trkpt lat="40.47112" lon="43.86638">
        <ele>1956.116872</ele>
        <time>2021-08-14T15:46:21.552Z</time>
      </trkpt>
      <trkpt lat="40.47356" lon="43.86634">
        <ele>1961.763631</ele>
        <time>2021-08-14T15:48:10.198Z</time>
      </trkpt>
      <trkpt lat="40.47974" lon="43.8662">
        <ele>1975.183844</ele>
        <time>2021-08-14T15:52:38.748Z</time>
      </trkpt>
      <trkpt lat="40.4805" lon="43.86614">
        <ele>1976.047338</ele>
        <time>2021-08-14T15:53:06.944Z</time>
      </trkpt>
      <trkpt lat="40.48124" lon="43.86602">
        <ele>1976.604414</ele>
        <time>2021-08-14T15:53:32.594Z</time>
      </trkpt>
      <trkpt lat="40.48218" lon="43.86567">
        <ele>1977.166911</ele>
        <time>2021-08-14T15:54:05.093Z</time>
      </trkpt>
      <trkpt lat="40.48401" lon="43.8645">
        <ele>1977.612566</ele>
        <time>2021-08-14T15:55:12.825Z</time>
      </trkpt>
      <trkpt lat="40.48459" lon="43.86424">
        <ele>1977.569749</ele>
        <time>2021-08-14T15:55:31.810Z</time>
      </trkpt>
      <trkpt lat="40.48812" lon="43.8634">
        <ele>1974.975654</ele>
        <time>2021-08-14T15:57:12.435Z</time>
      </trkpt>
      <trkpt lat="40.48877" lon="43.86344">
        <ele>1974.048629</ele>
        <time>2021-08-14T15:57:28.653Z</time>
      </trkpt>
      <trkpt lat="40.48912" lon="43.86354">
        <ele>1973.093636</ele>
        <time>2021-08-14T15:57:37.212Z</time>
      </trkpt>
      <trkpt lat="40.48951" lon="43.86374">
        <ele>1971.961195</ele>
        <time>2021-08-14T15:57:47.115Z</time>
      </trkpt>
      <trkpt lat="40.48997" lon="43.86408">
        <ele>1970.552722</ele>
        <time>2021-08-14T15:57:59.121Z</time>
      </trkpt>
      <trkpt lat="40.49131" lon="43.86548">
        <ele>1965.215871</ele>
        <time>2021-08-14T15:58:38.036Z</time>
      </trkpt>
      <trkpt lat="40.49187" lon="43.8659">
        <ele>1963.256408</ele>
        <time>2021-08-14T15:58:52.839Z</time>
      </trkpt>
      <trkpt lat="40.49245" lon="43.8662">
        <ele>1961.63294</ele>
        <time>2021-08-14T15:59:07.315Z</time>
      </trkpt>
      <trkpt lat="40.49314" lon="43.86645">
        <ele>1959.751095</ele>
        <time>2021-08-14T15:59:24.428Z</time>
      </trkpt>
      <trkpt lat="40.49408" lon="43.86665">
        <ele>1957.263509</ele>
        <time>2021-08-14T15:59:47.228Z</time>
      </trkpt>
      <trkpt lat="40.49446" lon="43.8667">
        <ele>1956.261504</ele>
        <time>2021-08-14T15:59:56.418Z</time>
      </trkpt>
      <trkpt lat="40.4997" lon="43.86736">
        <ele>1940.734023</ele>
        <time>2021-08-14T16:01:58.027Z</time>
      </trkpt>
      <trkpt lat="40.50025" lon="43.86747">
        <ele>1938.890551</ele>
        <time>2021-08-14T16:02:10.238Z</time>
      </trkpt>
      <trkpt lat="40.50062" lon="43.86761">
        <ele>1937.663463</ele>
        <time>2021-08-14T16:02:18.973Z</time>
      </trkpt>
      <trkpt lat="40.50092" lon="43.86777">
        <ele>1936.854576</ele>
        <time>2021-08-14T16:02:26.209Z</time>
      </trkpt>
      <trkpt lat="40.5012" lon="43.86798">
        <ele>1936.035534</ele>
        <time>2021-08-14T16:02:33.623Z</time>
      </trkpt>
      <trkpt lat="40.50164" lon="43.86834">
        <ele>1934.72487</ele>
        <time>2021-08-14T16:02:45.787Z</time>
      </trkpt>
      <trkpt lat="40.50237" lon="43.86892">
        <ele>1933.014158</ele>
        <time>2021-08-14T16:03:07.809Z</time>
      </trkpt>
      <trkpt lat="40.50274" lon="43.86922">
        <ele>1932.535931</ele>
        <time>2021-08-14T16:03:20.282Z</time>
      </trkpt>
      <trkpt lat="40.50342" lon="43.86962">
        <ele>1931.725107</ele>
        <time>2021-08-14T16:03:40.438Z</time>
      </trkpt>
      <trkpt lat="40.50377" lon="43.86976">
        <ele>1931.32937</ele>
        <time>2021-08-14T16:03:50.005Z</time>
      </trkpt>
      <trkpt lat="40.50496" lon="43.8702">
        <ele>1929.989469</ele>
        <time>2021-08-14T16:04:22.045Z</time>
      </trkpt>
      <trkpt lat="40.5071" lon="43.87093">
        <ele>1928.606876</ele>
        <time>2021-08-14T16:05:24.990Z</time>
      </trkpt>
      <trkpt lat="40.50759" lon="43.87111">
        <ele>1928.497233</ele>
        <time>2021-08-14T16:05:41.352Z</time>
      </trkpt>
      <trkpt lat="40.50812" lon="43.87129">
        <ele>1928.41617</ele>
        <time>2021-08-14T16:05:58.954Z</time>
      </trkpt>
      <trkpt lat="40.51366" lon="43.87324">
        <ele>1926.334503</ele>
        <time>2021-08-14T16:08:46.983Z</time>
      </trkpt>
      <trkpt lat="40.51564" lon="43.87386">
        <ele>1924.94068</ele>
        <time>2021-08-14T16:09:43.212Z</time>
      </trkpt>
      <trkpt lat="40.52191" lon="43.87452">
        <ele>1921.054168</ele>
        <time>2021-08-14T16:12:40.273Z</time>
      </trkpt>
      <trkpt lat="40.52392" lon="43.87472">
        <ele>1920.785904</ele>
        <time>2021-08-14T16:13:42.167Z</time>
      </trkpt>
      <trkpt lat="40.52458" lon="43.87478">
        <ele>1920.820298</ele>
        <time>2021-08-14T16:14:03.043Z</time>
      </trkpt>
      <trkpt lat="40.52689" lon="43.8751">
        <ele>1921.260622</ele>
        <time>2021-08-14T16:15:17.270Z</time>
      </trkpt>
      <trkpt lat="40.5303" lon="43.87557">
        <ele>1923.428267</ele>
        <time>2021-08-14T16:17:15.912Z</time>
      </trkpt>
      <trkpt lat="40.53054" lon="43.87555">
        <ele>1923.756764</ele>
        <time>2021-08-14T16:17:24.838Z</time>
      </trkpt>
      <trkpt lat="40.53144" lon="43.8754">
        <ele>1924.988195</ele>
        <time>2021-08-14T16:17:59.922Z</time>
      </trkpt>
      <trkpt lat="40.53181" lon="43.87531">
        <ele>1925.493035</ele>
        <time>2021-08-14T16:18:14.909Z</time>
      </trkpt>
      <trkpt lat="40.5323" lon="43.87519">
        <ele>1926.357927</ele>
        <time>2021-08-14T16:18:35.831Z</time>
      </trkpt>
      <trkpt lat="40.53636" lon="43.8742">
        <ele>1934.496633</ele>
        <time>2021-08-14T16:21:30.836Z</time>
      </trkpt>
      <trkpt lat="40.53695" lon="43.87398">
        <ele>1935.654782</ele>
        <time>2021-08-14T16:21:56.213Z</time>
      </trkpt>
      <trkpt lat="40.53762" lon="43.87359">
        <ele>1936.636672</ele>
        <time>2021-08-14T16:22:26.684Z</time>
      </trkpt>
      <trkpt lat="40.53856" lon="43.87273">
        <ele>1937.537451</ele>
        <time>2021-08-14T16:23:09.880Z</time>
      </trkpt>
      <trkpt lat="40.54064" lon="43.86989">
        <ele>1932.15963</ele>
        <time>2021-08-14T16:24:28.164Z</time>
      </trkpt>
      <trkpt lat="40.54125" lon="43.86922">
        <ele>1929.157111</ele>
        <time>2021-08-14T16:24:44.566Z</time>
      </trkpt>
      <trkpt lat="40.54233" lon="43.8685">
        <ele>1921.040696</ele>
        <time>2021-08-14T16:25:08.567Z</time>
      </trkpt>
      <trkpt lat="40.54302" lon="43.86825">
        <ele>1916.118104</ele>
        <time>2021-08-14T16:25:22.968Z</time>
      </trkpt>
      <trkpt lat="40.54512" lon="43.86762">
        <ele>1903.363378</ele>
        <time>2021-08-14T16:26:07.586Z</time>
      </trkpt>
      <trkpt lat="40.54546" lon="43.86742">
        <ele>1900.829648</ele>
        <time>2021-08-14T16:26:15.209Z</time>
      </trkpt>
      <trkpt lat="40.54677" lon="43.86673">
        <ele>1890.736262</ele>
        <time>2021-08-14T16:26:43.089Z</time>
      </trkpt>
      <trkpt lat="40.54709" lon="43.86665">
        <ele>1888.077117</ele>
        <time>2021-08-14T16:26:49.483Z</time>
      </trkpt>
      <trkpt lat="40.54747" lon="43.86663">
        <ele>1884.985826</ele>
        <time>2021-08-14T16:26:56.890Z</time>
      </trkpt>
      <trkpt lat="40.54783" lon="43.86669">
        <ele>1882.021816</ele>
        <time>2021-08-14T16:27:04.001Z</time>
      </trkpt>
      <trkpt lat="40.5483" lon="43.86687">
        <ele>1878.371115</ele>
        <time>2021-08-14T16:27:13.429Z</time>
      </trkpt>
      <trkpt lat="40.54868" lon="43.86712">
        <ele>1875.746162</ele>
        <time>2021-08-14T16:27:21.945Z</time>
      </trkpt>
      <trkpt lat="40.54899" lon="43.86743">
        <ele>1873.376113</ele>
        <time>2021-08-14T16:27:29.793Z</time>
      </trkpt>
      <trkpt lat="40.54932" lon="43.86787">
        <ele>1870.479664</ele>
        <time>2021-08-14T16:27:39.641Z</time>
      </trkpt>
      <trkpt lat="40.5495" lon="43.86822">
        <ele>1868.546472</ele>
        <time>2021-08-14T16:27:46.413Z</time>
      </trkpt>
      <trkpt lat="40.54999" lon="43.86982">
        <ele>1864.31743</ele>
        <time>2021-08-14T16:28:16.368Z</time>
      </trkpt>
      <trkpt lat="40.55078" lon="43.87196">
        <ele>1859.788254</ele>
        <time>2021-08-14T16:29:00.277Z</time>
      </trkpt>
      <trkpt lat="40.55179" lon="43.874">
        <ele>1855.350859</ele>
        <time>2021-08-14T16:29:45.120Z</time>
      </trkpt>
      <trkpt lat="40.55268" lon="43.87599">
        <ele>1850.026932</ele>
        <time>2021-08-14T16:30:25.950Z</time>
      </trkpt>
      <trkpt lat="40.55263" lon="43.87632">
        <ele>1849.188158</ele>
        <time>2021-08-14T16:30:31.747Z</time>
      </trkpt>
      <trkpt lat="40.5527" lon="43.87669">
        <ele>1848.189201</ele>
        <time>2021-08-14T16:30:38.135Z</time>
      </trkpt>
      <trkpt lat="40.55293" lon="43.8771">
        <ele>1845.827072</ele>
        <time>2021-08-14T16:30:46.610Z</time>
      </trkpt>
      <trkpt lat="40.55363" lon="43.87769">
        <ele>1840.813313</ele>
        <time>2021-08-14T16:31:03.756Z</time>
      </trkpt>
      <trkpt lat="40.55402" lon="43.87812">
        <ele>1837.733578</ele>
        <time>2021-08-14T16:31:13.885Z</time>
      </trkpt>
      <trkpt lat="40.55455" lon="43.8795">
        <ele>1826.806071</ele>
        <time>2021-08-14T16:31:36.350Z</time>
      </trkpt>
      <trkpt lat="40.55482" lon="43.88047">
        <ele>1819.360758</ele>
        <time>2021-08-14T16:31:51.323Z</time>
      </trkpt>
      <trkpt lat="40.55496" lon="43.88031">
        <ele>1817.632077</ele>
        <time>2021-08-14T16:31:54.989Z</time>
      </trkpt>
      <trkpt lat="40.55498" lon="43.8801">
        <ele>1816.12889</ele>
        <time>2021-08-14T16:31:58.234Z</time>
      </trkpt>
      <trkpt lat="40.55493" lon="43.87935">
        <ele>1810.722662</ele>
        <time>2021-08-14T16:32:09.805Z</time>
      </trkpt>
      <trkpt lat="40.55499" lon="43.87891">
        <ele>1807.540236</ele>
        <time>2021-08-14T16:32:16.672Z</time>
      </trkpt>
      <trkpt lat="40.55543" lon="43.87775">
        <ele>1798.976444</ele>
        <time>2021-08-14T16:32:36.893Z</time>
      </trkpt>
      <trkpt lat="40.55589" lon="43.877">
        <ele>1792.989043</ele>
        <time>2021-08-14T16:32:51.881Z</time>
      </trkpt>
      <trkpt lat="40.55617" lon="43.87675">
        <ele>1790.175638</ele>
        <time>2021-08-14T16:32:58.909Z</time>
      </trkpt>
      <trkpt lat="40.55668" lon="43.87648">
        <ele>1786.033928</ele>
        <time>2021-08-14T16:33:10.122Z</time>
      </trkpt>
      <trkpt lat="40.55846" lon="43.87654">
        <ele>1773.838649</ele>
        <time>2021-08-14T16:33:47.427Z</time>
      </trkpt>
      <trkpt lat="40.55905" lon="43.87661">
        <ele>1770.822586</ele>
        <time>2021-08-14T16:34:00.375Z</time>
      </trkpt>
      <trkpt lat="40.56116" lon="43.87664">
        <ele>1762.193787</ele>
        <time>2021-08-14T16:34:49.227Z</time>
      </trkpt>
      <trkpt lat="40.56147" lon="43.87672">
        <ele>1761.094568</ele>
        <time>2021-08-14T16:34:56.988Z</time>
      </trkpt>
      <trkpt lat="40.5619" lon="43.87719">
        <ele>1759.635628</ele>
        <time>2021-08-14T16:35:10.841Z</time>
      </trkpt>
      <trkpt lat="40.56225" lon="43.87733">
        <ele>1758.89361</ele>
        <time>2021-08-14T16:35:19.955Z</time>
      </trkpt>
      <trkpt lat="40.56293" lon="43.87746">
        <ele>1757.493763</ele>
        <time>2021-08-14T16:35:37.463Z</time>
      </trkpt>
      <trkpt lat="40.56395" lon="43.87751">
        <ele>1755.271547</ele>
        <time>2021-08-14T16:36:05.937Z</time>
      </trkpt>
      <trkpt lat="40.56401" lon="43.8776">
        <ele>1755.058362</ele>
        <time>2021-08-14T16:36:08.476Z</time>
      </trkpt>
      <trkpt lat="40.56405" lon="43.87765">
        <ele>1754.936802</ele>
        <time>2021-08-14T16:36:09.719Z</time>
      </trkpt>
      <trkpt lat="40.56493" lon="43.87741">
        <ele>1752.90069</ele>
        <time>2021-08-14T16:36:31.940Z</time>
      </trkpt>
      <trkpt lat="40.56861" lon="43.87709">
        <ele>1736.074435</ele>
        <time>2021-08-14T16:37:50.378Z</time>
      </trkpt>
      <trkpt lat="40.56936" lon="43.87702">
        <ele>1733.037222</ele>
        <time>2021-08-14T16:38:06.587Z</time>
      </trkpt>
      <trkpt lat="40.56988" lon="43.87667">
        <ele>1730.7051</ele>
        <time>2021-08-14T16:38:19.508Z</time>
      </trkpt>
      <trkpt lat="40.57012" lon="43.87651">
        <ele>1729.631224</ele>
        <time>2021-08-14T16:38:25.534Z</time>
      </trkpt>
      <trkpt lat="40.57064" lon="43.87617">
        <ele>1727.58734</ele>
        <time>2021-08-14T16:38:38.676Z</time>
      </trkpt>
      <trkpt lat="40.57206" lon="43.87522">
        <ele>1722.558743</ele>
        <time>2021-08-14T16:39:14.979Z</time>
      </trkpt>
      <trkpt lat="40.57441" lon="43.87392">
        <ele>1715.971502</ele>
        <time>2021-08-14T16:40:14.950Z</time>
      </trkpt>
      <trkpt lat="40.57642" lon="43.87285">
        <ele>1711.567547</ele>
        <time>2021-08-14T16:41:08.351Z</time>
      </trkpt>
      <trkpt lat="40.57704" lon="43.87252">
        <ele>1710.499868</ele>
        <time>2021-08-14T16:41:25.327Z</time>
      </trkpt>
      <trkpt lat="40.57777" lon="43.87213">
        <ele>1709.940267</ele>
        <time>2021-08-14T16:41:46.542Z</time>
      </trkpt>
      <trkpt lat="40.57838" lon="43.87181">
        <ele>1709.471839</ele>
        <time>2021-08-14T16:42:05.643Z</time>
      </trkpt>
      <trkpt lat="40.57906" lon="43.87145">
        <ele>1709.401461</ele>
        <time>2021-08-14T16:42:28.748Z</time>
      </trkpt>
      <trkpt lat="40.58012" lon="43.87088">
        <ele>1709.606359</ele>
        <time>2021-08-14T16:43:05.959Z</time>
      </trkpt>
      <trkpt lat="40.58019" lon="43.87084">
        <ele>1709.621594</ele>
        <time>2021-08-14T16:43:08.772Z</time>
      </trkpt>
      <trkpt lat="40.58117" lon="43.87033">
        <ele>1710.018605</ele>
        <time>2021-08-14T16:43:43.227Z</time>
      </trkpt>
      <trkpt lat="40.58179" lon="43.87">
        <ele>1710.283742</ele>
        <time>2021-08-14T16:44:05.607Z</time>
      </trkpt>
      <trkpt lat="40.58415" lon="43.86915">
        <ele>1711.526213</ele>
        <time>2021-08-14T16:45:31.259Z</time>
      </trkpt>
      <trkpt lat="40.58478" lon="43.86894">
        <ele>1711.52464</ele>
        <time>2021-08-14T16:45:52.100Z</time>
      </trkpt>
      <trkpt lat="40.58584" lon="43.86859">
        <ele>1710.914994</ele>
        <time>2021-08-14T16:46:22.889Z</time>
      </trkpt>
      <trkpt lat="40.58637" lon="43.86841">
        <ele>1710.165745</ele>
        <time>2021-08-14T16:46:36.978Z</time>
      </trkpt>
      <trkpt lat="40.58691" lon="43.86823">
        <ele>1709.404052</ele>
        <time>2021-08-14T16:46:51.000Z</time>
      </trkpt>
      <trkpt lat="40.58784" lon="43.86792">
        <ele>1707.970663</ele>
        <time>2021-08-14T16:47:14.923Z</time>
      </trkpt>
      <trkpt lat="40.58914" lon="43.86749">
        <ele>1705.978284</ele>
        <time>2021-08-14T16:47:49.468Z</time>
      </trkpt>
      <trkpt lat="40.58995" lon="43.86722">
        <ele>1704.917931</ele>
        <time>2021-08-14T16:48:11.820Z</time>
      </trkpt>
      <trkpt lat="40.59094" lon="43.86689">
        <ele>1703.524505</ele>
        <time>2021-08-14T16:48:38.468Z</time>
      </trkpt>
      <trkpt lat="40.5916" lon="43.86667">
        <ele>1702.46335</ele>
        <time>2021-08-14T16:48:55.884Z</time>
      </trkpt>
      <trkpt lat="40.59215" lon="43.86648">
        <ele>1701.561849</ele>
        <time>2021-08-14T16:49:10.419Z</time>
      </trkpt>
      <trkpt lat="40.59312" lon="43.86623">
        <ele>1699.81064</ele>
        <time>2021-08-14T16:49:35.069Z</time>
      </trkpt>
      <trkpt lat="40.5934" lon="43.86615">
        <ele>1699.272416</ele>
        <time>2021-08-14T16:49:42.406Z</time>
      </trkpt>
      <trkpt lat="40.59391" lon="43.866">
        <ele>1698.308677</ele>
        <time>2021-08-14T16:49:55.389Z</time>
      </trkpt>
      <trkpt lat="40.5948" lon="43.86578">
        <ele>1696.244435</ele>
        <time>2021-08-14T16:50:17.148Z</time>
      </trkpt>
      <trkpt lat="40.59602" lon="43.86545">
        <ele>1693.123369</ele>
        <time>2021-08-14T16:50:46.776Z</time>
      </trkpt>
      <trkpt lat="40.59632" lon="43.86537">
        <ele>1692.259747</ele>
        <time>2021-08-14T16:50:53.742Z</time>
      </trkpt>
      <trkpt lat="40.59739" lon="43.8651">
        <ele>1689.105322</ele>
        <time>2021-08-14T16:51:19.001Z</time>
      </trkpt>
      <trkpt lat="40.60764" lon="43.86243">
        <ele>1655.185951</ele>
        <time>2021-08-14T16:55:17.695Z</time>
      </trkpt>
      <trkpt lat="40.60858" lon="43.86202">
        <ele>1649.989846</ele>
        <time>2021-08-14T16:55:38.167Z</time>
      </trkpt>
      <trkpt lat="40.61192" lon="43.86027">
        <ele>1624.000229</ele>
        <time>2021-08-14T16:56:49.162Z</time>
      </trkpt>
      <trkpt lat="40.61519" lon="43.85865">
        <ele>1606.525632</ele>
        <time>2021-08-14T16:58:02.640Z</time>
      </trkpt>
      <trkpt lat="40.62152" lon="43.85544">
        <ele>1594.758573</ele>
        <time>2021-08-14T17:00:55.792Z</time>
      </trkpt>
      <trkpt lat="40.62275" lon="43.8548">
        <ele>1592.864598</ele>
        <time>2021-08-14T17:01:30.229Z</time>
      </trkpt>
      <trkpt lat="40.62305" lon="43.85463">
        <ele>1592.397205</ele>
        <time>2021-08-14T17:01:38.857Z</time>
      </trkpt>
      <trkpt lat="40.62343" lon="43.85452">
        <ele>1591.829142</ele>
        <time>2021-08-14T17:01:48.848Z</time>
      </trkpt>
      <trkpt lat="40.62476" lon="43.85421">
        <ele>1589.466552</ele>
        <time>2021-08-14T17:02:22.875Z</time>
      </trkpt>
      <trkpt lat="40.62502" lon="43.85419">
        <ele>1589.012991</ele>
        <time>2021-08-14T17:02:29.276Z</time>
      </trkpt>
      <trkpt lat="40.62773" lon="43.85391">
        <ele>1583.749873</ele>
        <time>2021-08-14T17:03:35.540Z</time>
      </trkpt>
      <trkpt lat="40.63161" lon="43.85356">
        <ele>1577.549975</ele>
        <time>2021-08-14T17:05:14.923Z</time>
      </trkpt>
      <trkpt lat="40.63231" lon="43.85348">
        <ele>1576.567349</ele>
        <time>2021-08-14T17:05:33.238Z</time>
      </trkpt>
      <trkpt lat="40.633" lon="43.85339">
        <ele>1575.87172</ele>
        <time>2021-08-14T17:05:51.907Z</time>
      </trkpt>
      <trkpt lat="40.63525" lon="43.8532">
        <ele>1573.421742</ele>
        <time>2021-08-14T17:06:53.143Z</time>
      </trkpt>
      <trkpt lat="40.63788" lon="43.85286">
        <ele>1569.733659</ele>
        <time>2021-08-14T17:08:00.710Z</time>
      </trkpt>
      <trkpt lat="40.63831" lon="43.85281">
        <ele>1569.348581</ele>
        <time>2021-08-14T17:08:12.378Z</time>
      </trkpt>
      <trkpt lat="40.63936" lon="43.85268">
        <ele>1568.409174</ele>
        <time>2021-08-14T17:08:41.870Z</time>
      </trkpt>
      <trkpt lat="40.64266" lon="43.85239">
        <ele>1565.899817</ele>
        <time>2021-08-14T17:10:14.043Z</time>
      </trkpt>
      <trkpt lat="40.64835" lon="43.85177">
        <ele>1560.380219</ele>
        <time>2021-08-14T17:12:48.071Z</time>
      </trkpt>
      <trkpt lat="40.65935" lon="43.85172">
        <ele>1552.753121</ele>
        <time>2021-08-14T17:17:55.962Z</time>
      </trkpt>
      <trkpt lat="40.65951" lon="43.85174">
        <ele>1552.679784</ele>
        <time>2021-08-14T17:18:00.461Z</time>
      </trkpt>
      <trkpt lat="40.65968" lon="43.85174">
        <ele>1552.601117</ele>
        <time>2021-08-14T17:18:05.330Z</time>
      </trkpt>
      <trkpt lat="40.66444" lon="43.85203">
        <ele>1550.762884</ele>
        <time>2021-08-14T17:20:23.879Z</time>
      </trkpt>
      <trkpt lat="40.66716" lon="43.85217">
        <ele>1551.489949</ele>
        <time>2021-08-14T17:21:55.506Z</time>
      </trkpt>
      <trkpt lat="40.66759" lon="43.8522">
        <ele>1551.517061</ele>
        <time>2021-08-14T17:22:09.298Z</time>
      </trkpt>
      <trkpt lat="40.66796" lon="43.85217">
        <ele>1551.540166</ele>
        <time>2021-08-14T17:22:20.431Z</time>
      </trkpt>
      <trkpt lat="40.66865" lon="43.85214">
        <ele>1551.085715</ele>
        <time>2021-08-14T17:22:40.283Z</time>
      </trkpt>
      <trkpt lat="40.66894" lon="43.85209">
        <ele>1550.770937</ele>
        <time>2021-08-14T17:22:48.134Z</time>
      </trkpt>
      <trkpt lat="40.6693" lon="43.85209">
        <ele>1550.380498</ele>
        <time>2021-08-14T17:22:57.670Z</time>
      </trkpt>
      <trkpt lat="40.67002" lon="43.85187">
        <ele>1549.571659</ele>
        <time>2021-08-14T17:23:16.816Z</time>
      </trkpt>
      <trkpt lat="40.67084" lon="43.85153">
        <ele>1548.554249</ele>
        <time>2021-08-14T17:23:38.459Z</time>
      </trkpt>
      <trkpt lat="40.67243" lon="43.85061">
        <ele>1547.456854</ele>
        <time>2021-08-14T17:24:26.333Z</time>
      </trkpt>
      <trkpt lat="40.67503" lon="43.84903">
        <ele>1548.734003</ele>
        <time>2021-08-14T17:26:06.124Z</time>
      </trkpt>
      <trkpt lat="40.68002" lon="43.84617">
        <ele>1552.261155</ele>
        <time>2021-08-14T17:29:19.585Z</time>
      </trkpt>
      <trkpt lat="40.68071" lon="43.84576">
        <ele>1550.197169</ele>
        <time>2021-08-14T17:29:40.310Z</time>
      </trkpt>
      <trkpt lat="40.68846" lon="43.84107">
        <ele>1526.528375</ele>
        <time>2021-08-14T17:32:55.867Z</time>
      </trkpt>
      <trkpt lat="40.68886" lon="43.84083">
        <ele>1525.671438</ele>
        <time>2021-08-14T17:33:06.374Z</time>
      </trkpt>
      <trkpt lat="40.6906" lon="43.83979">
        <ele>1522.862517</ele>
        <time>2021-08-14T17:33:56.705Z</time>
      </trkpt>
      <trkpt lat="40.69224" lon="43.83883">
        <ele>1521.061732</ele>
        <time>2021-08-14T17:34:47.299Z</time>
      </trkpt>
      <trkpt lat="40.69428" lon="43.83759">
        <ele>1518.179514</ele>
        <time>2021-08-14T17:35:45.223Z</time>
      </trkpt>
      <trkpt lat="40.69513" lon="43.83708">
        <ele>1516.973317</ele>
        <time>2021-08-14T17:36:09.112Z</time>
      </trkpt>
      <trkpt lat="40.69578" lon="43.83675">
        <ele>1516.131239</ele>
        <time>2021-08-14T17:36:27.621Z</time>
      </trkpt>
      <trkpt lat="40.69619" lon="43.83661">
        <ele>1515.618942</ele>
        <time>2021-08-14T17:36:39.058Z</time>
      </trkpt>
      <trkpt lat="40.69663" lon="43.83656">
        <ele>1515.34102</ele>
        <time>2021-08-14T17:36:50.871Z</time>
      </trkpt>
      <trkpt lat="40.6973" lon="43.83664">
        <ele>1515.063268</ele>
        <time>2021-08-14T17:37:09.453Z</time>
      </trkpt>
      <trkpt lat="40.6977" lon="43.83676">
        <ele>1514.894597</ele>
        <time>2021-08-14T17:37:21.493Z</time>
      </trkpt>
      <trkpt lat="40.6977" lon="43.83676">
        <ele>1514.894597</ele>
        <time>2021-08-14T17:37:21.499Z</time>
      </trkpt>
      <trkpt lat="40.6977" lon="43.83676">
        <ele>1514.894597</ele>
        <time>2021-08-14T17:37:21.551Z</time>
      </trkpt>
      <trkpt lat="40.69797" lon="43.83684">
        <ele>1514.780021</ele>
        <time>2021-08-14T17:37:30.276Z</time>
      </trkpt>
      <trkpt lat="40.69834" lon="43.83697">
        <ele>1514.905533</ele>
        <time>2021-08-14T17:37:43.397Z</time>
      </trkpt>
      <trkpt lat="40.69898" lon="43.8372">
        <ele>1515.352807</ele>
        <time>2021-08-14T17:38:08.360Z</time>
      </trkpt>
      <trkpt lat="40.70068" lon="43.83779">
        <ele>1515.406933</ele>
        <time>2021-08-14T17:39:08.433Z</time>
      </trkpt>
      <trkpt lat="40.70124" lon="43.83701">
        <ele>1514.907751</ele>
        <time>2021-08-14T17:39:29.464Z</time>
      </trkpt>
      <trkpt lat="40.70139" lon="43.83669">
        <ele>1514.552134</ele>
        <time>2021-08-14T17:39:36.283Z</time>
      </trkpt>
      <trkpt lat="40.70177" lon="43.83656">
        <ele>1513.910868</ele>
        <time>2021-08-14T17:39:45.640Z</time>
      </trkpt>
      <trkpt lat="40.70404" lon="43.83547">
        <ele>1510.503052</ele>
        <time>2021-08-14T17:40:48.375Z</time>
      </trkpt>
      <trkpt lat="40.70682" lon="43.83415">
        <ele>1507.827912</ele>
        <time>2021-08-14T17:42:09.303Z</time>
      </trkpt>
      <trkpt lat="40.70865" lon="43.83328">
        <ele>1506.639795</ele>
        <time>2021-08-14T17:43:04.744Z</time>
      </trkpt>
      <trkpt lat="40.70986" lon="43.83274">
        <ele>1505.993315</ele>
        <time>2021-08-14T17:43:41.568Z</time>
      </trkpt>
      <trkpt lat="40.71037" lon="43.83237">
        <ele>1505.719009</ele>
        <time>2021-08-14T17:43:58.372Z</time>
      </trkpt>
      <trkpt lat="40.71073" lon="43.83229">
        <ele>1505.545496</ele>
        <time>2021-08-14T17:44:08.980Z</time>
      </trkpt>
      <trkpt lat="40.71084" lon="43.83222">
        <ele>1505.490537</ele>
        <time>2021-08-14T17:44:12.374Z</time>
      </trkpt>
      <trkpt lat="40.7111" lon="43.83205">
        <ele>1505.350641</ele>
        <time>2021-08-14T17:44:20.846Z</time>
      </trkpt>
      <trkpt lat="40.71151" lon="43.83185">
        <ele>1505.120225</ele>
        <time>2021-08-14T17:44:33.530Z</time>
      </trkpt>
      <trkpt lat="40.71235" lon="43.83137">
        <ele>1504.585535</ele>
        <time>2021-08-14T17:44:59.754Z</time>
      </trkpt>
      <trkpt lat="40.71269" lon="43.83121">
        <ele>1504.367593</ele>
        <time>2021-08-14T17:45:10.121Z</time>
      </trkpt>
      <trkpt lat="40.71355" lon="43.83078">
        <ele>1503.771804</ele>
        <time>2021-08-14T17:45:35.266Z</time>
      </trkpt>
      <trkpt lat="40.71369" lon="43.8307">
        <ele>1503.668105</ele>
        <time>2021-08-14T17:45:39.430Z</time>
      </trkpt>
      <trkpt lat="40.71409" lon="43.83036">
        <ele>1503.347477</ele>
        <time>2021-08-14T17:45:52.523Z</time>
      </trkpt>
      <trkpt lat="40.71425" lon="43.83022">
        <ele>1503.217578</ele>
        <time>2021-08-14T17:45:57.965Z</time>
      </trkpt>
      <trkpt lat="40.71503" lon="43.82951">
        <ele>1502.685949</ele>
        <time>2021-08-14T17:46:25.414Z</time>
      </trkpt>
      <trkpt lat="40.71549" lon="43.82917">
        <ele>1502.436229</ele>
        <time>2021-08-14T17:46:41.121Z</time>
      </trkpt>
      <trkpt lat="40.7163" lon="43.82875">
        <ele>1501.974647</ele>
        <time>2021-08-14T17:47:06.196Z</time>
      </trkpt>
      <trkpt lat="40.71655" lon="43.82858">
        <ele>1501.742804</ele>
        <time>2021-08-14T17:47:14.197Z</time>
      </trkpt>
      <trkpt lat="40.71669" lon="43.82855">
        <ele>1501.627692</ele>
        <time>2021-08-14T17:47:18.070Z</time>
      </trkpt>
      <trkpt lat="40.71697" lon="43.82842">
        <ele>1501.37976</ele>
        <time>2021-08-14T17:47:26.443Z</time>
      </trkpt>
      <trkpt lat="40.71725" lon="43.82829">
        <ele>1501.133328</ele>
        <time>2021-08-14T17:47:34.735Z</time>
      </trkpt>
      <trkpt lat="40.71743" lon="43.82815">
        <ele>1500.96386</ele>
        <time>2021-08-14T17:47:40.301Z</time>
      </trkpt>
      <trkpt lat="40.71765" lon="43.82768">
        <ele>1500.614138</ele>
        <time>2021-08-14T17:47:51.558Z</time>
      </trkpt>
      <trkpt lat="40.7179" lon="43.82757">
        <ele>1500.312322</ele>
        <time>2021-08-14T17:47:58.229Z</time>
      </trkpt>
      <trkpt lat="40.71834" lon="43.82735">
        <ele>1499.761881</ele>
        <time>2021-08-14T17:48:10.595Z</time>
      </trkpt>
      <trkpt lat="40.7185" lon="43.82707">
        <ele>1499.45039</ele>
        <time>2021-08-14T17:48:17.656Z</time>
      </trkpt>
      <trkpt lat="40.71867" lon="43.82669">
        <ele>1499.059374</ele>
        <time>2021-08-14T17:48:26.714Z</time>
      </trkpt>
      <trkpt lat="40.71874" lon="43.82644">
        <ele>1498.816713</ele>
        <time>2021-08-14T17:48:32.423Z</time>
      </trkpt>
      <trkpt lat="40.71888" lon="43.82624">
        <ele>1498.57661</ele>
        <time>2021-08-14T17:48:37.820Z</time>
      </trkpt>
      <trkpt lat="40.719" lon="43.82621">
        <ele>1498.368464</ele>
        <time>2021-08-14T17:48:41.333Z</time>
      </trkpt>
      <trkpt lat="40.7193" lon="43.8261">
        <ele>1497.697367</ele>
        <time>2021-08-14T17:48:49.353Z</time>
      </trkpt>
      <trkpt lat="40.71958" lon="43.82595">
        <ele>1497.027836</ele>
        <time>2021-08-14T17:48:56.869Z</time>
      </trkpt>
      <trkpt lat="40.71998" lon="43.82574">
        <ele>1496.082606</ele>
        <time>2021-08-14T17:49:07.069Z</time>
      </trkpt>
      <trkpt lat="40.72073" lon="43.82613">
        <ele>1494.340156</ele>
        <time>2021-08-14T17:49:25.867Z</time>
      </trkpt>
      <trkpt lat="40.7212" lon="43.82637">
        <ele>1493.266036</ele>
        <time>2021-08-14T17:49:37.766Z</time>
      </trkpt>
      <trkpt lat="40.72179" lon="43.82668">
        <ele>1491.916683</ele>
        <time>2021-08-14T17:49:53.132Z</time>
      </trkpt>
      <trkpt lat="40.72225" lon="43.82692">
        <ele>1490.862675</ele>
        <time>2021-08-14T17:50:05.387Z</time>
      </trkpt>
      <trkpt lat="40.72246" lon="43.82703">
        <ele>1490.801075</ele>
        <time>2021-08-14T17:50:11.173Z</time>
      </trkpt>
      <trkpt lat="40.72296" lon="43.82733">
        <ele>1490.980072</ele>
        <time>2021-08-14T17:50:27.820Z</time>
      </trkpt>
      <trkpt lat="40.72365" lon="43.82779">
        <ele>1491.231896</ele>
        <time>2021-08-14T17:50:55.202Z</time>
      </trkpt>
      <trkpt lat="40.72488" lon="43.82862">
        <ele>1493.515299</ele>
        <time>2021-08-14T17:51:51.223Z</time>
      </trkpt>
      <trkpt lat="40.72505" lon="43.82873">
        <ele>1493.913717</ele>
        <time>2021-08-14T17:51:59.706Z</time>
      </trkpt>
      <trkpt lat="40.72517" lon="43.8289">
        <ele>1494.272991</ele>
        <time>2021-08-14T17:52:08.010Z</time>
      </trkpt>
      <trkpt lat="40.72544" lon="43.82922">
        <ele>1495.027218</ele>
        <time>2021-08-14T17:52:24.745Z</time>
      </trkpt>
      <trkpt lat="40.72581" lon="43.8295">
        <ele>1496.291841</ele>
        <time>2021-08-14T17:52:44.766Z</time>
      </trkpt>
      <trkpt lat="40.72602" lon="43.82959">
        <ele>1496.953161</ele>
        <time>2021-08-14T17:52:55.579Z</time>
      </trkpt>
      <trkpt lat="40.72631" lon="43.82968">
        <ele>1497.820306</ele>
        <time>2021-08-14T17:53:09.941Z</time>
      </trkpt>
      <trkpt lat="40.72652" lon="43.82974">
        <ele>1498.459533</ele>
        <time>2021-08-14T17:53:20.832Z</time>
      </trkpt>
      <trkpt lat="40.72694" lon="43.82977">
        <ele>1499.704239</ele>
        <time>2021-08-14T17:53:40.724Z</time>
      </trkpt>
      <trkpt lat="40.72726" lon="43.8297">
        <ele>1500.620399</ele>
        <time>2021-08-14T17:53:56.044Z</time>
      </trkpt>
      <trkpt lat="40.72769" lon="43.82962">
        <ele>1501.739529</ele>
        <time>2021-08-14T17:54:16.495Z</time>
      </trkpt>
      <trkpt lat="40.72791" lon="43.82962">
        <ele>1502.277581</ele>
        <time>2021-08-14T17:54:26.534Z</time>
      </trkpt>
      <trkpt lat="40.72907" lon="43.82961">
        <ele>1505.147483</ele>
        <time>2021-08-14T17:55:18.585Z</time>
      </trkpt>
      <trkpt lat="40.72948" lon="43.82964">
        <ele>1505.888875</ele>
        <time>2021-08-14T17:55:35.532Z</time>
      </trkpt>
      <trkpt lat="40.73031" lon="43.8297">
        <ele>1507.406238</ele>
        <time>2021-08-14T17:56:09.640Z</time>
      </trkpt>
      <trkpt lat="40.73062" lon="43.82972">
        <ele>1507.961789</ele>
        <time>2021-08-14T17:56:22.268Z</time>
      </trkpt>
      <trkpt lat="40.7325" lon="43.82983">
        <ele>1510.273278</ele>
        <time>2021-08-14T17:57:34.407Z</time>
      </trkpt>
      <trkpt lat="40.73267" lon="43.82929">
        <ele>1510.387747</ele>
        <time>2021-08-14T17:57:49.431Z</time>
      </trkpt>
      <trkpt lat="40.73309" lon="43.82943">
        <ele>1510.465517</ele>
        <time>2021-08-14T17:58:03.828Z</time>
      </trkpt>
      <trkpt lat="40.73345" lon="43.82948">
        <ele>1510.529787</ele>
        <time>2021-08-14T17:58:15.438Z</time>
      </trkpt>
      <trkpt lat="40.73356" lon="43.82946">
        <ele>1510.548633</ele>
        <time>2021-08-14T17:58:18.636Z</time>
      </trkpt>
      <trkpt lat="40.73391" lon="43.82956">
        <ele>1510.612424</ele>
        <time>2021-08-14T17:58:29.957Z</time>
      </trkpt>
      <trkpt lat="40.73471" lon="43.82956">
        <ele>1510.815559</ele>
        <time>2021-08-14T17:58:56.156Z</time>
      </trkpt>
      <trkpt lat="40.7348" lon="43.82953">
        <ele>1510.840707</ele>
        <time>2021-08-14T17:58:59.245Z</time>
      </trkpt>
      <trkpt lat="40.73488" lon="43.8296">
        <ele>1510.866207</ele>
        <time>2021-08-14T17:59:02.567Z</time>
      </trkpt>
      <trkpt lat="40.73516" lon="43.82969">
        <ele>1510.941893</ele>
        <time>2021-08-14T17:59:12.088Z</time>
      </trkpt>
      <trkpt lat="40.73556" lon="43.82978">
        <ele>1511.050616</ele>
        <time>2021-08-14T17:59:26.522Z</time>
      </trkpt>
      <trkpt lat="40.73554" lon="43.83001">
        <ele>1511.09659</ele>
        <time>2021-08-14T17:59:32.845Z</time>
      </trkpt>
      <trkpt lat="40.74298" lon="43.83045">
        <ele>1515.273792</ele>
        <time>2021-08-14T18:03:48.195Z</time>
      </trkpt>
      <trkpt lat="40.74736" lon="43.83062">
        <ele>1517.359375</ele>
        <time>2021-08-14T18:06:16.464Z</time>
      </trkpt>
      <trkpt lat="40.74813" lon="43.83074">
        <ele>1517.694055</ele>
        <time>2021-08-14T18:06:41.970Z</time>
      </trkpt>
      <trkpt lat="40.74842" lon="43.83082">
        <ele>1517.807193</ele>
        <time>2021-08-14T18:06:51.887Z</time>
      </trkpt>
      <trkpt lat="40.74863" lon="43.83087">
        <ele>1517.885662</ele>
        <time>2021-08-14T18:06:58.950Z</time>
      </trkpt>
      <trkpt lat="40.74909" lon="43.83116">
        <ele>1518.072368</ele>
        <time>2021-08-14T18:07:16.054Z</time>
      </trkpt>
      <trkpt lat="40.74964" lon="43.83161">
        <ele>1518.304783</ele>
        <time>2021-08-14T18:07:37.079Z</time>
      </trkpt>
      <trkpt lat="40.75" lon="43.83203">
        <ele>1518.433761</ele>
        <time>2021-08-14T18:07:52.900Z</time>
      </trkpt>
      <trkpt lat="40.75029" lon="43.83248">
        <ele>1518.527327</ele>
        <time>2021-08-14T18:08:07.827Z</time>
      </trkpt>
      <trkpt lat="40.75058" lon="43.83297">
        <ele>1518.625472</ele>
        <time>2021-08-14T18:08:23.173Z</time>
      </trkpt>
      <trkpt lat="40.75076" lon="43.83345">
        <ele>1518.709866</ele>
        <time>2021-08-14T18:08:36.298Z</time>
      </trkpt>
      <trkpt lat="40.75144" lon="43.83569">
        <ele>1518.486779</ele>
        <time>2021-08-14T18:09:32.543Z</time>
      </trkpt>
      <trkpt lat="40.75186" lon="43.83672">
        <ele>1517.740652</ele>
        <time>2021-08-14T18:09:57.260Z</time>
      </trkpt>
      <trkpt lat="40.75207" lon="43.83713">
        <ele>1517.369492</ele>
        <time>2021-08-14T18:10:07.335Z</time>
      </trkpt>
      <trkpt lat="40.75219" lon="43.83728">
        <ele>1517.209439</ele>
        <time>2021-08-14T18:10:11.576Z</time>
      </trkpt>
      <trkpt lat="40.75337" lon="43.8385">
        <ele>1515.69331</ele>
        <time>2021-08-14T18:10:50.809Z</time>
      </trkpt>
      <trkpt lat="40.75792" lon="43.84322">
        <ele>1511.769912</ele>
        <time>2021-08-14T18:13:33.280Z</time>
      </trkpt>
      <trkpt lat="40.75827" lon="43.84359">
        <ele>1511.56216</ele>
        <time>2021-08-14T18:13:46.502Z</time>
      </trkpt>
      <trkpt lat="40.76056" lon="43.84602">
        <ele>1513.196038</ele>
        <time>2021-08-14T18:15:24.386Z</time>
      </trkpt>
      <trkpt lat="40.76138" lon="43.84693">
        <ele>1514.782357</ele>
        <time>2021-08-14T18:16:09.820Z</time>
      </trkpt>
      <trkpt lat="40.76197" lon="43.84616">
        <ele>1516.651372</ele>
        <time>2021-08-14T18:16:48.712Z</time>
      </trkpt>
      <trkpt lat="40.76219" lon="43.84586">
        <ele>1517.35873</ele>
        <time>2021-08-14T18:17:03.159Z</time>
      </trkpt>
      <trkpt lat="40.76249" lon="43.84535">
        <ele>1518.118858</ele>
        <time>2021-08-14T18:17:24.706Z</time>
      </trkpt>
      <trkpt lat="40.76254" lon="43.84528">
        <ele>1518.184862</ele>
        <time>2021-08-14T18:17:27.881Z</time>
      </trkpt>
      <trkpt lat="40.76261" lon="43.84529">
        <ele>1518.258739</ele>
        <time>2021-08-14T18:17:31.114Z</time>
      </trkpt>
      <trkpt lat="40.7628" lon="43.84546">
        <ele>1518.48</ele>
        <time>2021-08-14T18:17:40.151Z</time>
      </trkpt>
      <trkpt lat="40.76291" lon="43.84562">
        <ele>1518.641804</ele>
        <time>2021-08-14T18:17:46.834Z</time>
      </trkpt>
      <trkpt lat="40.76386" lon="43.84643">
        <ele>1519.654626</ele>
        <time>2021-08-14T18:18:25.389Z</time>
      </trkpt>
      <trkpt lat="40.76432" lon="43.84686">
        <ele>1519.788497</ele>
        <time>2021-08-14T18:18:43.588Z</time>
      </trkpt>
      <trkpt lat="40.76497" lon="43.8475">
        <ele>1519.980897</ele>
        <time>2021-08-14T18:19:10.596Z</time>
      </trkpt>
      <trkpt lat="40.76537" lon="43.84676">
        <ele>1520.428482</ele>
        <time>2021-08-14T18:19:34.775Z</time>
      </trkpt>
      <trkpt lat="40.76609" lon="43.84744">
        <ele>1521.285293</ele>
        <time>2021-08-14T18:20:08.343Z</time>
      </trkpt>
      <trkpt lat="40.76717" lon="43.84841">
        <ele>1522.884653</ele>
        <time>2021-08-14T18:21:00.304Z</time>
      </trkpt>
      <trkpt lat="40.76722" lon="43.84847">
        <ele>1522.979512</ele>
        <time>2021-08-14T18:21:03.025Z</time>
      </trkpt>
      <trkpt lat="40.76744" lon="43.84867">
        <ele>1523.356296</ele>
        <time>2021-08-14T18:21:14.133Z</time>
      </trkpt>
      <trkpt lat="40.76892" lon="43.85009">
        <ele>1525.695877</ele>
        <time>2021-08-14T18:22:28.392Z</time>
      </trkpt>
      <trkpt lat="40.76919" lon="43.85035">
        <ele>1526.093573</ele>
        <time>2021-08-14T18:22:40.924Z</time>
      </trkpt>
      <trkpt lat="40.7698" lon="43.84994">
        <ele>1526.66364</ele>
        <time>2021-08-14T18:23:06.025Z</time>
      </trkpt>
      <trkpt lat="40.77107" lon="43.84911">
        <ele>1527.368685</ele>
        <time>2021-08-14T18:23:55.055Z</time>
      </trkpt>
      <trkpt lat="40.77125" lon="43.84915">
        <ele>1527.457692</ele>
        <time>2021-08-14T18:24:01.450Z</time>
      </trkpt>
      <trkpt lat="40.77161" lon="43.84844">
        <ele>1527.765707</ele>
        <time>2021-08-14T18:24:24.087Z</time>
      </trkpt>
      <trkpt lat="40.7722" lon="43.84897">
        <ele>1528.103696</ele>
        <time>2021-08-14T18:24:49.058Z</time>
      </trkpt>
      <trkpt lat="40.77248" lon="43.84922">
        <ele>1528.27067</ele>
        <time>2021-08-14T18:25:00.837Z</time>
      </trkpt>
      <trkpt lat="40.77294" lon="43.84964">
        <ele>1528.615116</ele>
        <time>2021-08-14T18:25:21.237Z</time>
      </trkpt>
      <trkpt lat="40.77339" lon="43.85005">
        <ele>1528.944808</ele>
        <time>2021-08-14T18:25:40.850Z</time>
      </trkpt>
      <trkpt lat="40.77376" lon="43.85038">
        <ele>1529.216489</ele>
        <time>2021-08-14T18:25:56.872Z</time>
      </trkpt>
      <trkpt lat="40.77432" lon="43.85089">
        <ele>1529.577121</ele>
        <time>2021-08-14T18:26:20.988Z</time>
      </trkpt>
      <trkpt lat="40.7744" lon="43.85082">
        <ele>1529.625349</ele>
        <time>2021-08-14T18:26:25.198Z</time>
      </trkpt>
      <trkpt lat="40.77449" lon="43.8509">
        <ele>1529.675815</ele>
        <time>2021-08-14T18:26:28.618Z</time>
      </trkpt>
      <trkpt lat="40.77465" lon="43.85056">
        <ele>1529.82329</ele>
        <time>2021-08-14T18:26:49.561Z</time>
      </trkpt>
      <trkpt lat="40.77473" lon="43.85061">
        <ele>1529.864647</ele>
        <time>2021-08-14T18:26:52.832Z</time>
      </trkpt>
      <trkpt lat="40.77537" lon="43.85122">
        <ele>1530.277212</ele>
        <time>2021-08-14T18:27:20.827Z</time>
      </trkpt>
      <trkpt lat="40.77581" lon="43.85156">
        <ele>1530.72253</ele>
        <time>2021-08-14T18:27:38.835Z</time>
      </trkpt>
      <trkpt lat="40.77587" lon="43.85157">
        <ele>1530.777251</ele>
        <time>2021-08-14T18:27:40.976Z</time>
      </trkpt>
      <trkpt lat="40.77585" lon="43.85153">
        <ele>1530.811245</ele>
        <time>2021-08-14T18:27:42.622Z</time>
      </trkpt>
      <trkpt lat="40.77562" lon="43.85097">
        <ele>1531.22676</ele>
        <time>2021-08-14T18:28:00.060Z</time>
      </trkpt>
      <trkpt lat="40.77564" lon="43.85064">
        <ele>1531.44375</ele>
        <time>2021-08-14T18:28:09.724Z</time>
      </trkpt>
      <trkpt lat="40.77588" lon="43.85021">
        <ele>1531.815038</ele>
        <time>2021-08-14T18:28:25.672Z</time>
      </trkpt>
      <trkpt lat="40.77598" lon="43.85013">
        <ele>1532.008412</ele>
        <time>2021-08-14T18:28:30.154Z</time>
      </trkpt>
      <trkpt lat="40.77637" lon="43.85025">
        <ele>1532.69594</ele>
        <time>2021-08-14T18:28:46.863Z</time>
      </trkpt>
      <trkpt lat="40.77661" lon="43.85033">
        <ele>1533.123574</ele>
        <time>2021-08-14T18:28:57.473Z</time>
      </trkpt>
      <trkpt lat="40.7779" lon="43.85045">
        <ele>1535.171334</ele>
        <time>2021-08-14T18:29:53.006Z</time>
      </trkpt>
      <trkpt lat="40.77794" lon="43.85019">
        <ele>1535.387515</ele>
        <time>2021-08-14T18:30:01.729Z</time>
      </trkpt>
      <trkpt lat="40.77801" lon="43.84995">
        <ele>1535.598558</ele>
        <time>2021-08-14T18:30:09.926Z</time>
      </trkpt>
      <trkpt lat="40.7781" lon="43.84953">
        <ele>1535.953829</ele>
        <time>2021-08-14T18:30:23.205Z</time>
      </trkpt>
      <trkpt lat="40.77925" lon="43.84961">
        <ele>1536.718473</ele>
        <time>2021-08-14T18:31:03.090Z</time>
      </trkpt>
      <trkpt lat="40.78054" lon="43.84978">
        <ele>1536.436743</ele>
        <time>2021-08-14T18:31:41.748Z</time>
      </trkpt>
      <trkpt lat="40.78126" lon="43.84984">
        <ele>1536.753256</ele>
        <time>2021-08-14T18:32:04.954Z</time>
      </trkpt>
      <trkpt lat="40.78182" lon="43.84989">
        <ele>1537.085236</ele>
        <time>2021-08-14T18:32:25.477Z</time>
      </trkpt>
      <trkpt lat="40.78311" lon="43.84999">
        <ele>1538.265513</ele>
        <time>2021-08-14T18:33:15.690Z</time>
      </trkpt>
      <trkpt lat="40.78315" lon="43.84904">
        <ele>1539.164243</ele>
        <time>2021-08-14T18:33:44.606Z</time>
      </trkpt>
      <trkpt lat="40.78416" lon="43.84917">
        <ele>1540.393405</ele>
        <time>2021-08-14T18:34:23.008Z</time>
      </trkpt>
      <trkpt lat="40.78547" lon="43.8493">
        <ele>1541.973573</ele>
        <time>2021-08-14T18:35:14.122Z</time>
      </trkpt>
      <trkpt lat="40.7865" lon="43.84941">
        <ele>1543.368028</ele>
        <time>2021-08-14T18:35:56.730Z</time>
      </trkpt>
      <trkpt lat="40.78693" lon="43.84945">
        <ele>1543.951311</ele>
        <time>2021-08-14T18:36:14.281Z</time>
      </trkpt>
      <trkpt lat="40.78701" lon="43.84946">
        <ele>1544.065503</ele>
        <time>2021-08-14T18:36:17.679Z</time>
      </trkpt>
      <trkpt lat="40.78711" lon="43.84947">
        <ele>1544.19839</ele>
        <time>2021-08-14T18:36:21.394Z</time>
      </trkpt>
      <trkpt lat="40.78713" lon="43.84947">
        <ele>1544.226863</ele>
        <time>2021-08-14T18:36:22.173Z</time>
      </trkpt>
      <trkpt lat="40.78732" lon="43.84948">
        <ele>1544.355572</ele>
        <time>2021-08-14T18:36:29.328Z</time>
      </trkpt>
      <trkpt lat="40.78853" lon="43.8496">
        <ele>1544.933401</ele>
        <time>2021-08-14T18:37:11.015Z</time>
      </trkpt>
      <trkpt lat="40.78857" lon="43.84863">
        <ele>1545.303903</ele>
        <time>2021-08-14T18:37:33.786Z</time>
      </trkpt>
      <trkpt lat="40.79052" lon="43.84882">
        <ele>1546.539641</ele>
        <time>2021-08-14T18:38:44.561Z</time>
      </trkpt>
      <trkpt lat="40.79139" lon="43.84888">
        <ele>1547.3458</ele>
        <time>2021-08-14T18:39:18.068Z</time>
      </trkpt>
      <trkpt lat="40.79149" lon="43.84889">
        <ele>1547.434953</ele>
        <time>2021-08-14T18:39:21.647Z</time>
      </trkpt>
      <trkpt lat="40.79161" lon="43.84888">
        <ele>1547.550243</ele>
        <time>2021-08-14T18:39:26.352Z</time>
      </trkpt>
      <trkpt lat="40.79168" lon="43.84888">
        <ele>1547.608677</ele>
        <time>2021-08-14T18:39:28.813Z</time>
      </trkpt>
      <trkpt lat="40.79186" lon="43.84896">
        <ele>1547.785673</ele>
        <time>2021-08-14T18:39:36.068Z</time>
      </trkpt>
      <trkpt lat="40.79224" lon="43.84899">
        <ele>1548.169528</ele>
        <time>2021-08-14T18:39:50.519Z</time>
      </trkpt>
      <trkpt lat="40.79348" lon="43.8491">
        <ele>1549.421351</ele>
        <time>2021-08-14T18:40:36.948Z</time>
      </trkpt>
      <trkpt lat="40.79379" lon="43.84899">
        <ele>1549.789042</ele>
        <time>2021-08-14T18:40:49.477Z</time>
      </trkpt>
      <trkpt lat="40.79408" lon="43.8489">
        <ele>1550.171366</ele>
        <time>2021-08-14T18:41:01.322Z</time>
      </trkpt>
      <trkpt lat="40.79513" lon="43.849">
        <ele>1551.548246</ele>
        <time>2021-08-14T18:41:44.594Z</time>
      </trkpt>
      <trkpt lat="40.79549" lon="43.84904">
        <ele>1551.991288</ele>
        <time>2021-08-14T18:41:58.530Z</time>
      </trkpt>
      <trkpt lat="40.79588" lon="43.84908">
        <ele>1552.316107</ele>
        <time>2021-08-14T18:42:13.037Z</time>
      </trkpt>
      <trkpt lat="40.79626" lon="43.84895">
        <ele>1552.648149</ele>
        <time>2021-08-14T18:42:28.125Z</time>
      </trkpt>
      <trkpt lat="40.79638" lon="43.84868">
        <ele>1552.849441</ele>
        <time>2021-08-14T18:42:37.270Z</time>
      </trkpt>
      <trkpt lat="40.79641" lon="43.84817">
        <ele>1553.174953</ele>
        <time>2021-08-14T18:42:51.998Z</time>
      </trkpt>
      <trkpt lat="40.79644" lon="43.84779">
        <ele>1553.414582</ele>
        <time>2021-08-14T18:43:02.100Z</time>
      </trkpt>
      <trkpt lat="40.79648" lon="43.84698">
        <ele>1553.546183</ele>
        <time>2021-08-14T18:43:22.429Z</time>
      </trkpt>
      <trkpt lat="40.79649" lon="43.84684">
        <ele>1553.564448</ele>
        <time>2021-08-14T18:43:25.568Z</time>
      </trkpt>
      <trkpt lat="40.7965" lon="43.84671">
        <ele>1553.581899</ele>
        <time>2021-08-14T18:43:28.816Z</time>
      </trkpt>
      <trkpt lat="40.79655" lon="43.8458">
        <ele>1553.703883</ele>
        <time>2021-08-14T18:43:51.422Z</time>
      </trkpt>
      <trkpt lat="40.7968" lon="43.84583">
        <ele>1553.749815</ele>
        <time>2021-08-14T18:44:00.322Z</time>
      </trkpt>
      <trkpt lat="40.79685" lon="43.84515">
        <ele>1553.996539</ele>
        <time>2021-08-14T18:44:18.146Z</time>
      </trkpt>
      <trkpt lat="40.79711" lon="43.84518">
        <ele>1554.130953</ele>
        <time>2021-08-14T18:44:26.877Z</time>
      </trkpt>
      <trkpt lat="40.79713" lon="43.84484">
        <ele>1554.266411</ele>
        <time>2021-08-14T18:44:36.067Z</time>
      </trkpt>
      <trkpt lat="40.79808" lon="43.84497">
        <ele>1554.852214</ele>
        <time>2021-08-14T18:45:09.356Z</time>
      </trkpt>
      <trkpt lat="40.79863" lon="43.84504">
        <ele>1555.494737</ele>
        <time>2021-08-14T18:45:29.443Z</time>
      </trkpt>
      <trkpt lat="40.79956" lon="43.84517">
        <ele>1556.599697</ele>
        <time>2021-08-14T18:46:05.460Z</time>
      </trkpt>
      <trkpt lat="40.80048" lon="43.84527">
        <ele>1557.995039</ele>
        <time>2021-08-14T18:46:41.556Z</time>
      </trkpt>
      <trkpt lat="40.8005" lon="43.84493">
        <ele>1558.403302</ele>
        <time>2021-08-14T18:46:52.191Z</time>
      </trkpt>
      <trkpt lat="40.80054" lon="43.84449">
        <ele>1558.944885</ele>
        <time>2021-08-14T18:47:06.718Z</time>
      </trkpt>
      <trkpt lat="40.80065" lon="43.84316">
        <ele>1560.223584</ele>
        <time>2021-08-14T18:47:49.632Z</time>
      </trkpt>
      <trkpt lat="40.80129" lon="43.84324">
        <ele>1560.847409</ele>
        <time>2021-08-14T18:48:12.790Z</time>
      </trkpt>
      <trkpt lat="40.80202" lon="43.84333">
        <ele>1561.491399</ele>
        <time>2021-08-14T18:48:37.301Z</time>
      </trkpt>
      <trkpt lat="40.80262" lon="43.8434">
        <ele>1561.795506</ele>
        <time>2021-08-14T18:48:57.127Z</time>
      </trkpt>
      <trkpt lat="40.80497" lon="43.8437">
        <ele>1563.299485</ele>
        <time>2021-08-14T18:50:17.995Z</time>
      </trkpt>
      <trkpt lat="40.80553" lon="43.84377">
        <ele>1563.740287</ele>
        <time>2021-08-14T18:50:38.721Z</time>
      </trkpt>
      <trkpt lat="40.80615" lon="43.84385">
        <ele>1564.536951</ele>
        <time>2021-08-14T18:51:02.521Z</time>
      </trkpt>
      <trkpt lat="40.80665" lon="43.84391">
        <ele>1565.179318</ele>
        <time>2021-08-14T18:51:22.107Z</time>
      </trkpt>
      <trkpt lat="40.80671" lon="43.84311">
        <ele>1565.955959</ele>
        <time>2021-08-14T18:51:45.510Z</time>
      </trkpt>
      <trkpt lat="40.80672" lon="43.84297">
        <ele>1566.112829</ele>
        <time>2021-08-14T18:51:49.687Z</time>
      </trkpt>
      <trkpt lat="40.8068" lon="43.84298">
        <ele>1566.228331</ele>
        <time>2021-08-14T18:51:52.552Z</time>
      </trkpt>
      <trkpt lat="40.80703" lon="43.84301">
        <ele>1566.582695</ele>
        <time>2021-08-14T18:52:01.927Z</time>
      </trkpt>
      <trkpt lat="40.80729" lon="43.84295">
        <ele>1566.986911</ele>
        <time>2021-08-14T18:52:12.662Z</time>
      </trkpt>
      <trkpt lat="40.80808" lon="43.84208">
        <ele>1568.570277</ele>
        <time>2021-08-14T18:52:53.860Z</time>
      </trkpt>
      <trkpt lat="40.80966" lon="43.84041">
        <ele>1571.397361</ele>
        <time>2021-08-14T18:54:12.772Z</time>
      </trkpt>
      <trkpt lat="40.81099" lon="43.83903">
        <ele>1573.26266</ele>
        <time>2021-08-14T18:55:15.565Z</time>
      </trkpt>
      <trkpt lat="40.81169" lon="43.83832">
        <ele>1574.009761</ele>
        <time>2021-08-14T18:55:47.797Z</time>
      </trkpt>
      <trkpt lat="40.81294" lon="43.837">
        <ele>1575.196617</ele>
        <time>2021-08-14T18:56:44.588Z</time>
      </trkpt>
      <trkpt lat="40.81447" lon="43.83538">
        <ele>1576.491945</ele>
        <time>2021-08-14T18:57:50.715Z</time>
      </trkpt>
      <trkpt lat="40.81509" lon="43.83635">
        <ele>1577.197234</ele>
        <time>2021-08-14T18:58:26.920Z</time>
      </trkpt>
      <trkpt lat="40.81565" lon="43.83721">
        <ele>1577.924923</ele>
        <time>2021-08-14T18:58:59.127Z</time>
      </trkpt>
      <trkpt lat="40.81648" lon="43.83636">
        <ele>1578.847551</ele>
        <time>2021-08-14T18:59:37.666Z</time>
      </trkpt>
      <trkpt lat="40.8166" lon="43.83603">
        <ele>1579.162353</ele>
        <time>2021-08-14T18:59:48.279Z</time>
      </trkpt>
      <trkpt lat="40.81704" lon="43.83609">
        <ele>1579.64409</ele>
        <time>2021-08-14T19:00:04.222Z</time>
      </trkpt>
      <trkpt lat="40.81719" lon="43.83611">
        <ele>1579.812467</ele>
        <time>2021-08-14T19:00:10.092Z</time>
      </trkpt>
      <trkpt lat="40.81743" lon="43.83628">
        <ele>1580.117115</ele>
        <time>2021-08-14T19:00:20.115Z</time>
      </trkpt>
      <trkpt lat="40.81761" lon="43.83657">
        <ele>1580.435458</ele>
        <time>2021-08-14T19:00:31.327Z</time>
      </trkpt>
      <trkpt lat="40.81794" lon="43.83714">
        <ele>1581.348514</ele>
        <time>2021-08-14T19:00:55.015Z</time>
      </trkpt>
      <trkpt lat="40.81845" lon="43.83667">
        <ele>1582.690578</ele>
        <time>2021-08-14T19:01:21.611Z</time>
      </trkpt>
      <trkpt lat="40.81879" lon="43.83697">
        <ele>1583.582579</ele>
        <time>2021-08-14T19:01:40.749Z</time>
      </trkpt>
      <trkpt lat="40.81883" lon="43.83702">
        <ele>1583.71141</ele>
        <time>2021-08-14T19:01:44.138Z</time>
      </trkpt>
      <trkpt lat="40.81943" lon="43.83756">
        <ele>1585.173028</ele>
        <time>2021-08-14T19:02:16.292Z</time>
      </trkpt>
      <trkpt lat="40.8195" lon="43.83776">
        <ele>1585.489215</ele>
        <time>2021-08-14T19:02:23.733Z</time>
      </trkpt>
      <trkpt lat="40.81961" lon="43.83785">
        <ele>1585.716914</ele>
        <time>2021-08-14T19:02:28.809Z</time>
      </trkpt>
      <trkpt lat="40.81979" lon="43.83784">
        <ele>1586.051897</ele>
        <time>2021-08-14T19:02:37.534Z</time>
      </trkpt>
      <trkpt lat="40.82013" lon="43.83782">
        <ele>1586.676062</ele>
        <time>2021-08-14T19:02:52.365Z</time>
      </trkpt>
      <trkpt lat="40.82073" lon="43.83797">
        <ele>1587.780186</ele>
        <time>2021-08-14T19:03:16.578Z</time>
      </trkpt>
      <trkpt lat="40.82151" lon="43.83779">
        <ele>1588.773268</ele>
        <time>2021-08-14T19:03:47.252Z</time>
      </trkpt>
      <trkpt lat="40.82239" lon="43.83775">
        <ele>1589.837562</ele>
        <time>2021-08-14T19:04:21.365Z</time>
      </trkpt>
      <trkpt lat="40.8233" lon="43.83782">
        <ele>1591.248669</ele>
        <time>2021-08-14T19:04:58.380Z</time>
      </trkpt>
      <trkpt lat="40.82418" lon="43.83778">
        <ele>1592.693848</ele>
        <time>2021-08-14T19:05:35.720Z</time>
      </trkpt>
      <trkpt lat="40.82431" lon="43.83732">
        <ele>1593.31774</ele>
        <time>2021-08-14T19:05:51.696Z</time>
      </trkpt>
      <trkpt lat="40.82485" lon="43.83722">
        <ele>1594.258787</ele>
        <time>2021-08-14T19:06:15.057Z</time>
      </trkpt>
      <trkpt lat="40.82507" lon="43.83725">
        <ele>1594.642694</ele>
        <time>2021-08-14T19:06:24.578Z</time>
      </trkpt>
      <trkpt lat="40.82567" lon="43.83766">
        <ele>1595.814898</ele>
        <time>2021-08-14T19:06:52.902Z</time>
      </trkpt>
      <trkpt lat="40.82637" lon="43.83788">
        <ele>1596.589706</ele>
        <time>2021-08-14T19:07:21.456Z</time>
      </trkpt>
      <trkpt lat="40.82637" lon="43.83821">
        <ele>1596.79955</ele>
        <time>2021-08-14T19:07:30.859Z</time>
      </trkpt>
      <trkpt lat="40.82756" lon="43.83874">
        <ele>1597.789174</ele>
        <time>2021-08-14T19:08:15.321Z</time>
      </trkpt>
      <trkpt lat="40.82856" lon="43.83964">
        <ele>1598.490597</ele>
        <time>2021-08-14T19:08:57.535Z</time>
      </trkpt>
      <trkpt lat="40.82876" lon="43.84001">
        <ele>1598.698191</ele>
        <time>2021-08-14T19:09:10.533Z</time>
      </trkpt>
      <trkpt lat="40.8289" lon="43.84052">
        <ele>1599.255292</ele>
        <time>2021-08-14T19:09:26.098Z</time>
      </trkpt>
      <trkpt lat="40.82909" lon="43.84078">
        <ele>1599.627844</ele>
        <time>2021-08-14T19:09:36.764Z</time>
      </trkpt>
      <trkpt lat="40.82955" lon="43.84084">
        <ele>1600.258408</ele>
        <time>2021-08-14T19:09:55.283Z</time>
      </trkpt>
      <trkpt lat="40.8299" lon="43.84072">
        <ele>1600.76143</ele>
        <time>2021-08-14T19:10:10.452Z</time>
      </trkpt>
      <trkpt lat="40.8302" lon="43.8408">
        <ele>1601.180185</ele>
        <time>2021-08-14T19:10:23.003Z</time>
      </trkpt>
      <trkpt lat="40.83176" lon="43.84192">
        <ele>1604.691089</ele>
        <time>2021-08-14T19:11:40.475Z</time>
      </trkpt>
      <trkpt lat="40.83216" lon="43.84232">
        <ele>1605.898351</ele>
        <time>2021-08-14T19:12:03.180Z</time>
      </trkpt>
      <trkpt lat="40.83234" lon="43.84257">
        <ele>1606.525467</ele>
        <time>2021-08-14T19:12:15.252Z</time>
      </trkpt>
      <trkpt lat="40.83265" lon="43.84255">
        <ele>1607.283464</ele>
        <time>2021-08-14T19:12:29.734Z</time>
      </trkpt>
      <trkpt lat="40.83299" lon="43.84278">
        <ele>1608.200565</ele>
        <time>2021-08-14T19:12:47.539Z</time>
      </trkpt>
      <trkpt lat="40.83469" lon="43.8431">
        <ele>1612.301796</ele>
        <time>2021-08-14T19:14:07.002Z</time>
      </trkpt>
      <trkpt lat="40.83756" lon="43.84408">
        <ele>1618.850233</ele>
        <time>2021-08-14T19:16:19.811Z</time>
      </trkpt>
      <trkpt lat="40.84102" lon="43.84547">
        <ele>1626.417168</ele>
        <time>2021-08-14T19:18:58.759Z</time>
      </trkpt>
      <trkpt lat="40.84107" lon="43.84537">
        <ele>1626.601484</ele>
        <time>2021-08-14T19:19:03.149Z</time>
      </trkpt>
      <trkpt lat="40.84118" lon="43.84534">
        <ele>1626.833426</ele>
        <time>2021-08-14T19:19:07.857Z</time>
      </trkpt>
      <trkpt lat="40.84209" lon="43.8458">
        <ele>1628.833522</ele>
        <time>2021-08-14T19:19:50.522Z</time>
      </trkpt>
      <trkpt lat="40.84237" lon="43.84587">
        <ele>1629.374973</ele>
        <time>2021-08-14T19:20:02.628Z</time>
      </trkpt>
      <trkpt lat="40.84354" lon="43.84582">
        <ele>1631.600955</ele>
        <time>2021-08-14T19:20:53.109Z</time>
      </trkpt>
      <trkpt lat="40.84431" lon="43.84565">
        <ele>1632.864149</ele>
        <time>2021-08-14T19:21:26.845Z</time>
      </trkpt>
      <trkpt lat="40.84503" lon="43.84559">
        <ele>1633.942335</ele>
        <time>2021-08-14T19:21:55.773Z</time>
      </trkpt>
      <trkpt lat="40.84564" lon="43.84549">
        <ele>1634.826605</ele>
        <time>2021-08-14T19:22:19.858Z</time>
      </trkpt>
      <trkpt lat="40.84568" lon="43.84531">
        <ele>1634.970466</ele>
        <time>2021-08-14T19:22:24.705Z</time>
      </trkpt>
      <trkpt lat="40.84593" lon="43.84484">
        <ele>1635.415867</ele>
        <time>2021-08-14T19:22:41.532Z</time>
      </trkpt>
      <trkpt lat="40.84618" lon="43.8446">
        <ele>1635.733223</ele>
        <time>2021-08-14T19:22:53.453Z</time>
      </trkpt>
      <trkpt lat="40.84633" lon="43.84409">
        <ele>1636.153685</ele>
        <time>2021-08-14T19:23:09.494Z</time>
      </trkpt>
      <trkpt lat="40.84641" lon="43.844">
        <ele>1636.257925</ele>
        <time>2021-08-14T19:23:13.389Z</time>
      </trkpt>
      <trkpt lat="40.84685" lon="43.84395">
        <ele>1636.693431</ele>
        <time>2021-08-14T19:23:29.549Z</time>
      </trkpt>
      <trkpt lat="40.84692" lon="43.84393">
        <ele>1636.754919</ele>
        <time>2021-08-14T19:23:32.476Z</time>
      </trkpt>
      <trkpt lat="40.84714" lon="43.84368">
        <ele>1637.014817</ele>
        <time>2021-08-14T19:23:42.933Z</time>
      </trkpt>
      <trkpt lat="40.84724" lon="43.84347">
        <ele>1637.188053</ele>
        <time>2021-08-14T19:23:50.352Z</time>
      </trkpt>
      <trkpt lat="40.84729" lon="43.84301">
        <ele>1637.500974</ele>
        <time>2021-08-14T19:24:03.455Z</time>
      </trkpt>
      <trkpt lat="40.84763" lon="43.84273">
        <ele>1637.863232</ele>
        <time>2021-08-14T19:24:18.813Z</time>
      </trkpt>
      <trkpt lat="40.84771" lon="43.84294">
        <ele>1638.021332</ele>
        <time>2021-08-14T19:24:25.279Z</time>
      </trkpt>
      <trkpt lat="40.84791" lon="43.84384">
        <ele>1638.71507</ele>
        <time>2021-08-14T19:24:50.371Z</time>
      </trkpt>
      <trkpt lat="40.84808" lon="43.84328">
        <ele>1639.173335</ele>
        <time>2021-08-14T19:25:06.981Z</time>
      </trkpt>
      <trkpt lat="40.84831" lon="43.8427">
        <ele>1639.669632</ele>
        <time>2021-08-14T19:25:25.762Z</time>
      </trkpt>
      <trkpt lat="40.84851" lon="43.84234">
        <ele>1640.046589</ele>
        <time>2021-08-14T19:25:39.344Z</time>
      </trkpt>
      <trkpt lat="40.8486" lon="43.84225">
        <ele>1640.331828</ele>
        <time>2021-08-14T19:25:43.428Z</time>
      </trkpt>
      <trkpt lat="40.84871" lon="43.84225">
        <ele>1640.62214</ele>
        <time>2021-08-14T19:25:48.190Z</time>
      </trkpt>
      <trkpt lat="40.8488" lon="43.84218">
        <ele>1640.916279</ele>
        <time>2021-08-14T19:25:53.094Z</time>
      </trkpt>
      <trkpt lat="40.84888" lon="43.84202">
        <ele>1641.292556</ele>
        <time>2021-08-14T19:25:58.983Z</time>
      </trkpt>
      <trkpt lat="40.84891" lon="43.84195">
        <ele>1641.447463</ele>
        <time>2021-08-14T19:26:01.512Z</time>
      </trkpt>
      <trkpt lat="40.84898" lon="43.84203">
        <ele>1641.695409</ele>
        <time>2021-08-14T19:26:06.392Z</time>
      </trkpt>
      <trkpt lat="40.84918" lon="43.84205">
        <ele>1642.204911</ele>
        <time>2021-08-14T19:26:15.732Z</time>
      </trkpt>
      <trkpt lat="40.84954" lon="43.84187">
        <ele>1643.219385</ele>
        <time>2021-08-14T19:26:34.475Z</time>
      </trkpt>
      <trkpt lat="40.84978" lon="43.84148">
        <ele>1644.221986</ele>
        <time>2021-08-14T19:26:53.542Z</time>
      </trkpt>
      <trkpt lat="40.84993" lon="43.84133">
        <ele>1644.720914</ele>
        <time>2021-08-14T19:27:03.918Z</time>
      </trkpt>
      <trkpt lat="40.85014" lon="43.84101">
        <ele>1645.868037</ele>
        <time>2021-08-14T19:27:20.006Z</time>
      </trkpt>
      <trkpt lat="40.85015" lon="43.84095">
        <ele>1646.050464</ele>
        <time>2021-08-14T19:27:24.119Z</time>
      </trkpt>
      <trkpt lat="40.85019" lon="43.84043">
        <ele>1647.463988</ele>
        <time>2021-08-14T19:27:44.644Z</time>
      </trkpt>
      <trkpt lat="40.85074" lon="43.83975">
        <ele>1650.156538</ele>
        <time>2021-08-14T19:28:24.142Z</time>
      </trkpt>
      <trkpt lat="40.85094" lon="43.83968">
        <ele>1650.874273</ele>
        <time>2021-08-14T19:28:33.698Z</time>
      </trkpt>
      <trkpt lat="40.85105" lon="43.83969">
        <ele>1651.274983</ele>
        <time>2021-08-14T19:28:41.516Z</time>
      </trkpt>
      <trkpt lat="40.85109" lon="43.83948">
        <ele>1651.881586</ele>
        <time>2021-08-14T19:28:49.331Z</time>
      </trkpt>
      <trkpt lat="40.85114" lon="43.83888">
        <ele>1653.554938</ele>
        <time>2021-08-14T19:29:12.618Z</time>
      </trkpt>
      <trkpt lat="40.85245" lon="43.83904">
        <ele>1658.37376</ele>
        <time>2021-08-14T19:30:21.343Z</time>
      </trkpt>
      <trkpt lat="40.85471" lon="43.83947">
        <ele>1665.743677</ele>
        <time>2021-08-14T19:32:19.957Z</time>
      </trkpt>
      <trkpt lat="40.86527" lon="43.84147">
        <ele>1688.044683</ele>
        <time>2021-08-14T19:39:44.138Z</time>
      </trkpt>
      <trkpt lat="40.86741" lon="43.84191">
        <ele>1696.242342</ele>
        <time>2021-08-14T19:41:46.273Z</time>
      </trkpt>
      <trkpt lat="40.86841" lon="43.84227">
        <ele>1699.965126</ele>
        <time>2021-08-14T19:42:39.864Z</time>
      </trkpt>
      <trkpt lat="40.8686" lon="43.84238">
        <ele>1700.217326</ele>
        <time>2021-08-14T19:42:50.021Z</time>
      </trkpt>
      <trkpt lat="40.86887" lon="43.84259">
        <ele>1700.578524</ele>
        <time>2021-08-14T19:43:02.533Z</time>
      </trkpt>
      <trkpt lat="40.86932" lon="43.84303">
        <ele>1701.233299</ele>
        <time>2021-08-14T19:43:21.681Z</time>
      </trkpt>
      <trkpt lat="40.86983" lon="43.84379">
        <ele>1701.974608</ele>
        <time>2021-08-14T19:43:45.841Z</time>
      </trkpt>
      <trkpt lat="40.87007" lon="43.84431">
        <ele>1702.154983</ele>
        <time>2021-08-14T19:43:58.842Z</time>
      </trkpt>
      <trkpt lat="40.87021" lon="43.8446">
        <ele>1702.25568</ele>
        <time>2021-08-14T19:44:06.589Z</time>
      </trkpt>
      <trkpt lat="40.87092" lon="43.84652">
        <ele>1704.260198</ele>
        <time>2021-08-14T19:45:06.937Z</time>
      </trkpt>
      <trkpt lat="40.87109" lon="43.8469">
        <ele>1705.034936</ele>
        <time>2021-08-14T19:45:22.805Z</time>
      </trkpt>
      <trkpt lat="40.87131" lon="43.84716">
        <ele>1705.694454</ele>
        <time>2021-08-14T19:45:36.541Z</time>
      </trkpt>
      <trkpt lat="40.87158" lon="43.84737">
        <ele>1706.404228</ele>
        <time>2021-08-14T19:45:51.697Z</time>
      </trkpt>
      <trkpt lat="40.87183" lon="43.84758">
        <ele>1707.313452</ele>
        <time>2021-08-14T19:46:06.296Z</time>
      </trkpt>
      <trkpt lat="40.87381" lon="43.84925">
        <ele>1716.560027</ele>
        <time>2021-08-14T19:48:09.079Z</time>
      </trkpt>
      <trkpt lat="40.87477" lon="43.8502">
        <ele>1722.054787</ele>
        <time>2021-08-14T19:49:19.957Z</time>
      </trkpt>
      <trkpt lat="40.87535" lon="43.85064">
        <ele>1725.347104</ele>
        <time>2021-08-14T19:50:00.731Z</time>
      </trkpt>
      <trkpt lat="40.87557" lon="43.8508">
        <ele>1726.589092</ele>
        <time>2021-08-14T19:50:15.779Z</time>
      </trkpt>
      <trkpt lat="40.87646" lon="43.85142">
        <ele>1731.319391</ele>
        <time>2021-08-14T19:51:13.455Z</time>
      </trkpt>
      <trkpt lat="40.87674" lon="43.85162">
        <ele>1732.611379</ele>
        <time>2021-08-14T19:51:31.030Z</time>
      </trkpt>
      <trkpt lat="40.87708" lon="43.85204">
        <ele>1734.510832</ele>
        <time>2021-08-14T19:51:55.937Z</time>
      </trkpt>
      <trkpt lat="40.87718" lon="43.8522">
        <ele>1735.123589</ele>
        <time>2021-08-14T19:52:04.035Z</time>
      </trkpt>
      <trkpt lat="40.87807" lon="43.85357">
        <ele>1740.602212</ele>
        <time>2021-08-14T19:53:14.859Z</time>
      </trkpt>
      <trkpt lat="40.87954" lon="43.85486">
        <ele>1748.290124</ele>
        <time>2021-08-14T19:54:51.235Z</time>
      </trkpt>
      <trkpt lat="40.88148" lon="43.85657">
        <ele>1760.902463</ele>
        <time>2021-08-14T19:57:13.412Z</time>
      </trkpt>
      <trkpt lat="40.89011" lon="43.8664">
        <ele>1840.593619</ele>
        <time>2021-08-14T20:10:38.508Z</time>
      </trkpt>
      <trkpt lat="40.89111" lon="43.86786">
        <ele>1851.550951</ele>
        <time>2021-08-14T20:12:27.060Z</time>
      </trkpt>
      <trkpt lat="40.89144" lon="43.86849">
        <ele>1855.760359</ele>
        <time>2021-08-14T20:13:08.523Z</time>
      </trkpt>
      <trkpt lat="40.8919" lon="43.86978">
        <ele>1863.555959</ele>
        <time>2021-08-14T20:14:26.115Z</time>
      </trkpt>
      <trkpt lat="40.89254" lon="43.87247">
        <ele>1878.639016</ele>
        <time>2021-08-14T20:16:57.934Z</time>
      </trkpt>
      <trkpt lat="40.89288" lon="43.87447">
        <ele>1888.845977</ele>
        <time>2021-08-14T20:18:42.451Z</time>
      </trkpt>
      <trkpt lat="40.89369" lon="43.87724">
        <ele>1903.195283</ele>
        <time>2021-08-14T20:21:16.541Z</time>
      </trkpt>
      <trkpt lat="40.89419" lon="43.87809">
        <ele>1907.014435</ele>
        <time>2021-08-14T20:22:02.658Z</time>
      </trkpt>
      <trkpt lat="40.89513" lon="43.87963">
        <ele>1914.558059</ele>
        <time>2021-08-14T20:23:24.194Z</time>
      </trkpt>
      <trkpt lat="40.89585" lon="43.88027">
        <ele>1919.237358</ele>
        <time>2021-08-14T20:24:18.997Z</time>
      </trkpt>
      <trkpt lat="40.89718" lon="43.88099">
        <ele>1928.514414</ele>
        <time>2021-08-14T20:26:00.545Z</time>
      </trkpt>
      <trkpt lat="40.89745" lon="43.88093">
        <ele>1930.368904</ele>
        <time>2021-08-14T20:26:19.437Z</time>
      </trkpt>
      <trkpt lat="40.8976" lon="43.88069">
        <ele>1931.925837</ele>
        <time>2021-08-14T20:26:34.935Z</time>
      </trkpt>
      <trkpt lat="40.89764" lon="43.88047">
        <ele>1933.093567</ele>
        <time>2021-08-14T20:26:46.515Z</time>
      </trkpt>
      <trkpt lat="40.89761" lon="43.88015">
        <ele>1934.601889</ele>
        <time>2021-08-14T20:27:02.256Z</time>
      </trkpt>
      <trkpt lat="40.89734" lon="43.87983">
        <ele>1936.888242</ele>
        <time>2021-08-14T20:27:25.677Z</time>
      </trkpt>
      <trkpt lat="40.89656" lon="43.87936">
        <ele>1942.212734</ele>
        <time>2021-08-14T20:28:20.651Z</time>
      </trkpt>
      <trkpt lat="40.89624" lon="43.87899">
        <ele>1945.083318</ele>
        <time>2021-08-14T20:28:49.983Z</time>
      </trkpt>
      <trkpt lat="40.89614" lon="43.87848">
        <ele>1948.157264</ele>
        <time>2021-08-14T20:29:18.512Z</time>
      </trkpt>
      <trkpt lat="40.89618" lon="43.87804">
        <ele>1950.785655</ele>
        <time>2021-08-14T20:29:44.060Z</time>
      </trkpt>
      <trkpt lat="40.89638" lon="43.87769">
        <ele>1953.409</ele>
        <time>2021-08-14T20:30:10.269Z</time>
      </trkpt>
      <trkpt lat="40.89687" lon="43.87757">
        <ele>1957.311217</ele>
        <time>2021-08-14T20:30:49.967Z</time>
      </trkpt>
      <trkpt lat="40.89736" lon="43.87774">
        <ele>1960.771595</ele>
        <time>2021-08-14T20:31:28.981Z</time>
      </trkpt>
      <trkpt lat="40.89799" lon="43.87822">
        <ele>1965.509472</ele>
        <time>2021-08-14T20:32:20.000Z</time>
      </trkpt>
      <trkpt lat="40.89863" lon="43.87955">
        <ele>1972.498914</ele>
        <time>2021-08-14T20:33:29.808Z</time>
      </trkpt>
      <trkpt lat="40.89911" lon="43.88035">
        <ele>1976.339548</ele>
        <time>2021-08-14T20:34:12.341Z</time>
      </trkpt>
      <trkpt lat="40.89972" lon="43.88082">
        <ele>1980.289484</ele>
        <time>2021-08-14T20:34:55.672Z</time>
      </trkpt>
      <trkpt lat="40.90192" lon="43.88202">
        <ele>1996.600323</ele>
        <time>2021-08-14T20:37:49.986Z</time>
      </trkpt>
      <trkpt lat="40.90234" lon="43.88225">
        <ele>1999.515355</ele>
        <time>2021-08-14T20:38:21.835Z</time>
      </trkpt>
      <trkpt lat="40.90276" lon="43.88229">
        <ele>2002.195053</ele>
        <time>2021-08-14T20:38:47.755Z</time>
      </trkpt>
      <trkpt lat="40.90324" lon="43.88207">
        <ele>2003.518036</ele>
        <time>2021-08-14T20:39:15.630Z</time>
      </trkpt>
      <trkpt lat="40.90353" lon="43.88169">
        <ele>2003.931716</ele>
        <time>2021-08-14T20:39:34.561Z</time>
      </trkpt>
      <trkpt lat="40.90397" lon="43.88005">
        <ele>2003.610937</ele>
        <time>2021-08-14T20:40:11.172Z</time>
      </trkpt>
      <trkpt lat="40.90475" lon="43.87893">
        <ele>1998.12272</ele>
        <time>2021-08-14T20:40:35.540Z</time>
      </trkpt>
      <trkpt lat="40.90581" lon="43.87826">
        <ele>1989.616065</ele>
        <time>2021-08-14T20:40:58.666Z</time>
      </trkpt>
      <trkpt lat="40.90667" lon="43.87805">
        <ele>1982.334857</ele>
        <time>2021-08-14T20:41:15.477Z</time>
      </trkpt>
      <trkpt lat="40.90764" lon="43.87904">
        <ele>1972.733018</ele>
        <time>2021-08-14T20:41:39.499Z</time>
      </trkpt>
      <trkpt lat="40.908" lon="43.87924">
        <ele>1969.706884</ele>
        <time>2021-08-14T20:41:47.325Z</time>
      </trkpt>
      <trkpt lat="40.90836" lon="43.87935">
        <ele>1967.084193</ele>
        <time>2021-08-14T20:41:54.725Z</time>
      </trkpt>
      <trkpt lat="40.90868" lon="43.87938">
        <ele>1965.408395</ele>
        <time>2021-08-14T20:42:01.449Z</time>
      </trkpt>
      <trkpt lat="40.90901" lon="43.87932">
        <ele>1963.722188</ele>
        <time>2021-08-14T20:42:08.298Z</time>
      </trkpt>
      <trkpt lat="40.91115" lon="43.87858">
        <ele>1953.492317</ele>
        <time>2021-08-14T20:42:55.884Z</time>
      </trkpt>
      <trkpt lat="40.91135" lon="43.87859">
        <ele>1952.6461</ele>
        <time>2021-08-14T20:43:00.301Z</time>
      </trkpt>
      <trkpt lat="40.91145" lon="43.87869">
        <ele>1952.125515</ele>
        <time>2021-08-14T20:43:03.053Z</time>
      </trkpt>
      <trkpt lat="40.91151" lon="43.87895">
        <ele>1951.248059</ele>
        <time>2021-08-14T20:43:07.696Z</time>
      </trkpt>
      <trkpt lat="40.91146" lon="43.87911">
        <ele>1950.709872</ele>
        <time>2021-08-14T20:43:10.623Z</time>
      </trkpt>
      <trkpt lat="40.91093" lon="43.87957">
        <ele>1948.678626</ele>
        <time>2021-08-14T20:43:24.777Z</time>
      </trkpt>
      <trkpt lat="40.90833" lon="43.88122">
        <ele>1939.484045</ele>
        <time>2021-08-14T20:44:31.411Z</time>
      </trkpt>
      <trkpt lat="40.90815" lon="43.88149">
        <ele>1938.219775</ele>
        <time>2021-08-14T20:44:37.398Z</time>
      </trkpt>
      <trkpt lat="40.90815" lon="43.88177">
        <ele>1937.134821</ele>
        <time>2021-08-14T20:44:41.949Z</time>
      </trkpt>
      <trkpt lat="40.90828" lon="43.88203">
        <ele>1935.960289</ele>
        <time>2021-08-14T20:44:46.832Z</time>
      </trkpt>
      <trkpt lat="40.90861" lon="43.88212">
        <ele>1934.208681</ele>
        <time>2021-08-14T20:44:53.993Z</time>
      </trkpt>
      <trkpt lat="40.91097" lon="43.88158">
        <ele>1920.141383</ele>
        <time>2021-08-14T20:45:42.930Z</time>
      </trkpt>
      <trkpt lat="40.91383" lon="43.88055">
        <ele>1901.877106</ele>
        <time>2021-08-14T20:46:43.497Z</time>
      </trkpt>
      <trkpt lat="40.91616" lon="43.87945">
        <ele>1886.433671</ele>
        <time>2021-08-14T20:47:33.744Z</time>
      </trkpt>
      <trkpt lat="40.91777" lon="43.87789">
        <ele>1875.406682</ele>
        <time>2021-08-14T20:48:15.069Z</time>
      </trkpt>
      <trkpt lat="40.92208" lon="43.87256">
        <ele>1852.097006</ele>
        <time>2021-08-14T20:50:23.584Z</time>
      </trkpt>
      <trkpt lat="40.92261" lon="43.87211">
        <ele>1851.747352</ele>
        <time>2021-08-14T20:50:42.893Z</time>
      </trkpt>
      <trkpt lat="40.92311" lon="43.87187">
        <ele>1851.448035</ele>
        <time>2021-08-14T20:51:04.086Z</time>
      </trkpt>
      <trkpt lat="40.92354" lon="43.87185">
        <ele>1852.076856</ele>
        <time>2021-08-14T20:51:23.844Z</time>
      </trkpt>
      <trkpt lat="40.9241" lon="43.87212">
        <ele>1853.406766</ele>
        <time>2021-08-14T20:51:53.618Z</time>
      </trkpt>
      <trkpt lat="40.92489" lon="43.87279">
        <ele>1855.305758</ele>
        <time>2021-08-14T20:52:36.420Z</time>
      </trkpt>
      <trkpt lat="40.92507" lon="43.87287">
        <ele>1854.994414</ele>
        <time>2021-08-14T20:52:41.982Z</time>
      </trkpt>
      <trkpt lat="40.92558" lon="43.87296">
        <ele>1854.155202</ele>
        <time>2021-08-14T20:52:54.174Z</time>
      </trkpt>
      <trkpt lat="40.9259" lon="43.87291">
        <ele>1853.641619</ele>
        <time>2021-08-14T20:53:01.473Z</time>
      </trkpt>
      <trkpt lat="40.92605" lon="43.87281">
        <ele>1853.358537</ele>
        <time>2021-08-14T20:53:05.652Z</time>
      </trkpt>
      <trkpt lat="40.92622" lon="43.87263">
        <ele>1853.010659</ele>
        <time>2021-08-14T20:53:10.562Z</time>
      </trkpt>
      <trkpt lat="40.92671" lon="43.87209">
        <ele>1852.578367</ele>
        <time>2021-08-14T20:53:26.368Z</time>
      </trkpt>
      <trkpt lat="40.92698" lon="43.8721">
        <ele>1852.684885</ele>
        <time>2021-08-14T20:53:33.628Z</time>
      </trkpt>
      <trkpt lat="40.92739" lon="43.87212">
        <ele>1852.84748</ele>
        <time>2021-08-14T20:53:44.317Z</time>
      </trkpt>
      <trkpt lat="40.92781" lon="43.87219">
        <ele>1853.018629</ele>
        <time>2021-08-14T20:53:59.473Z</time>
      </trkpt>
      <trkpt lat="40.92806" lon="43.87208">
        <ele>1853.125604</ele>
        <time>2021-08-14T20:54:13.043Z</time>
      </trkpt>
      <trkpt lat="40.92824" lon="43.87188">
        <ele>1853.667157</ele>
        <time>2021-08-14T20:54:25.894Z</time>
      </trkpt>
      <trkpt lat="40.92841" lon="43.87149">
        <ele>1855.244473</ele>
        <time>2021-08-14T20:54:45.893Z</time>
      </trkpt>
      <trkpt lat="40.92845" lon="43.87109">
        <ele>1856.655064</ele>
        <time>2021-08-14T20:55:03.843Z</time>
      </trkpt>
      <trkpt lat="40.92837" lon="43.87089">
        <ele>1857.446017</ele>
        <time>2021-08-14T20:55:14.304Z</time>
      </trkpt>
      <trkpt lat="40.92759" lon="43.8699">
        <ele>1862.625726</ele>
        <time>2021-08-14T20:56:16.617Z</time>
      </trkpt>
      <trkpt lat="40.92744" lon="43.8696">
        <ele>1864.151662</ele>
        <time>2021-08-14T20:56:32.976Z</time>
      </trkpt>
      <trkpt lat="40.92712" lon="43.86797">
        <ele>1871.130953</ele>
        <time>2021-08-14T20:57:51.961Z</time>
      </trkpt>
      <trkpt lat="40.92713" lon="43.86761">
        <ele>1872.957056</ele>
        <time>2021-08-14T20:58:10.486Z</time>
      </trkpt>
      <trkpt lat="40.92742" lon="43.8669">
        <ele>1877.282714</ele>
        <time>2021-08-14T20:58:53.569Z</time>
      </trkpt>
      <trkpt lat="40.92761" lon="43.86669">
        <ele>1878.996485</ele>
        <time>2021-08-14T20:59:10.893Z</time>
      </trkpt>
      <trkpt lat="40.92783" lon="43.86654">
        <ele>1880.7605</ele>
        <time>2021-08-14T20:59:29.139Z</time>
      </trkpt>
      <trkpt lat="40.92801" lon="43.86651">
        <ele>1882.039462</ele>
        <time>2021-08-14T20:59:42.575Z</time>
      </trkpt>
      <trkpt lat="40.92893" lon="43.86669">
        <ele>1888.840103</ele>
        <time>2021-08-14T21:00:50.814Z</time>
      </trkpt>
      <trkpt lat="40.92938" lon="43.8666">
        <ele>1892.227725</ele>
        <time>2021-08-14T21:01:23.881Z</time>
      </trkpt>
      <trkpt lat="40.93086" lon="43.866">
        <ele>1903.654696</ele>
        <time>2021-08-14T21:03:16.279Z</time>
      </trkpt>
      <trkpt lat="40.93215" lon="43.86559">
        <ele>1913.213352</ele>
        <time>2021-08-14T21:04:51.892Z</time>
      </trkpt>
      <trkpt lat="40.93247" lon="43.86556">
        <ele>1915.399727</ele>
        <time>2021-08-14T21:05:14.324Z</time>
      </trkpt>
      <trkpt lat="40.93336" lon="43.86547">
        <ele>1921.566018</ele>
        <time>2021-08-14T21:06:16.430Z</time>
      </trkpt>
      <trkpt lat="40.935" lon="43.86508">
        <ele>1932.469028</ele>
        <time>2021-08-14T21:08:08.933Z</time>
      </trkpt>
      <trkpt lat="40.9371" lon="43.86448">
        <ele>1946.068415</ele>
        <time>2021-08-14T21:10:32.306Z</time>
      </trkpt>
      <trkpt lat="40.93763" lon="43.86454">
        <ele>1948.906796</ele>
        <time>2021-08-14T21:11:06.890Z</time>
      </trkpt>
      <trkpt lat="40.93831" lon="43.86493">
        <ele>1952.813136</ele>
        <time>2021-08-14T21:11:51.544Z</time>
      </trkpt>
      <trkpt lat="40.9386" lon="43.86491">
        <ele>1954.325632</ele>
        <time>2021-08-14T21:12:07.902Z</time>
      </trkpt>
      <trkpt lat="40.93898" lon="43.86472">
        <ele>1956.325299</ele>
        <time>2021-08-14T21:12:30.577Z</time>
      </trkpt>
      <trkpt lat="40.93937" lon="43.86396">
        <ele>1959.462363</ele>
        <time>2021-08-14T21:13:09.019Z</time>
      </trkpt>
      <trkpt lat="40.9399" lon="43.86305">
        <ele>1963.364176</ele>
        <time>2021-08-14T21:13:59.134Z</time>
      </trkpt>
      <trkpt lat="40.94019" lon="43.86273">
        <ele>1964.740692</ele>
        <time>2021-08-14T21:14:19.982Z</time>
      </trkpt>
      <trkpt lat="40.94077" lon="43.86263">
        <ele>1966.725432</ele>
        <time>2021-08-14T21:14:51.327Z</time>
      </trkpt>
      <trkpt lat="40.94179" lon="43.86252">
        <ele>1969.880985</ele>
        <time>2021-08-14T21:15:40.445Z</time>
      </trkpt>
      <trkpt lat="40.94267" lon="43.86276">
        <ele>1970.501809</ele>
        <time>2021-08-14T21:16:12.494Z</time>
      </trkpt>
      <trkpt lat="40.94363" lon="43.86321">
        <ele>1971.048936</ele>
        <time>2021-08-14T21:16:42.617Z</time>
      </trkpt>
      <trkpt lat="40.94407" lon="43.86361">
        <ele>1971.071795</ele>
        <time>2021-08-14T21:16:57.946Z</time>
      </trkpt>
      <trkpt lat="40.9465" lon="43.86585">
        <ele>1972.263806</ele>
        <time>2021-08-14T21:18:36.849Z</time>
      </trkpt>
      <trkpt lat="40.9469" lon="43.86658">
        <ele>1973.276762</ele>
        <time>2021-08-14T21:19:04.484Z</time>
      </trkpt>
      <trkpt lat="40.94715" lon="43.8674">
        <ele>1974.261161</ele>
        <time>2021-08-14T21:19:32.538Z</time>
      </trkpt>
      <trkpt lat="40.94717" lon="43.8692">
        <ele>1975.348933</ele>
        <time>2021-08-14T21:20:24.743Z</time>
      </trkpt>
      <trkpt lat="40.94806" lon="43.87273">
        <ele>1975.69821</ele>
        <time>2021-08-14T21:21:47.147Z</time>
      </trkpt>
      <trkpt lat="40.94828" lon="43.8733">
        <ele>1976.526206</ele>
        <time>2021-08-14T21:22:04.354Z</time>
      </trkpt>
      <trkpt lat="40.94872" lon="43.87356">
        <ele>1977.360532</ele>
        <time>2021-08-14T21:22:24.431Z</time>
      </trkpt>
      <trkpt lat="40.94921" lon="43.87355">
        <ele>1978.195432</ele>
        <time>2021-08-14T21:22:47.524Z</time>
      </trkpt>
      <trkpt lat="40.94969" lon="43.8732">
        <ele>1980.594903</ele>
        <time>2021-08-14T21:23:16.994Z</time>
      </trkpt>
      <trkpt lat="40.95133" lon="43.87239">
        <ele>1989.220533</ele>
        <time>2021-08-14T21:25:04.144Z</time>
      </trkpt>
      <trkpt lat="40.95273" lon="43.87106">
        <ele>1998.126292</ele>
        <time>2021-08-14T21:26:47.850Z</time>
      </trkpt>
      <trkpt lat="40.95302" lon="43.87098">
        <ele>1999.57997</ele>
        <time>2021-08-14T21:27:04.831Z</time>
      </trkpt>
      <trkpt lat="40.95331" lon="43.87115">
        <ele>2001.156574</ele>
        <time>2021-08-14T21:27:23.317Z</time>
      </trkpt>
      <trkpt lat="40.95522" lon="43.87331">
        <ele>2014.006136</ele>
        <time>2021-08-14T21:29:52.135Z</time>
      </trkpt>
      <trkpt lat="40.95732" lon="43.87456">
        <ele>2028.662581</ele>
        <time>2021-08-14T21:32:21.788Z</time>
      </trkpt>
      <trkpt lat="40.95764" lon="43.87482">
        <ele>2031.822086</ele>
        <time>2021-08-14T21:32:50.945Z</time>
      </trkpt>
      <trkpt lat="40.95792" lon="43.87525">
        <ele>2035.352803</ele>
        <time>2021-08-14T21:33:25.344Z</time>
      </trkpt>
      <trkpt lat="40.95827" lon="43.87619">
        <ele>2042.149192</ele>
        <time>2021-08-14T21:34:32.845Z</time>
      </trkpt>
      <trkpt lat="40.9589" lon="43.87919">
        <ele>2064.452072</ele>
        <time>2021-08-14T21:37:54.476Z</time>
      </trkpt>
      <trkpt lat="40.95922" lon="43.87994">
        <ele>2070.319349</ele>
        <time>2021-08-14T21:38:48.477Z</time>
      </trkpt>
      <trkpt lat="40.95945" lon="43.88023">
        <ele>2073.18194</ele>
        <time>2021-08-14T21:39:12.956Z</time>
      </trkpt>
      <trkpt lat="40.95967" lon="43.88045">
        <ele>2075.003805</ele>
        <time>2021-08-14T21:39:33.793Z</time>
      </trkpt>
      <trkpt lat="40.96019" lon="43.88067">
        <ele>2077.88715</ele>
        <time>2021-08-14T21:40:11.247Z</time>
      </trkpt>
      <trkpt lat="40.96339" lon="43.88188">
        <ele>2091.55225</ele>
        <time>2021-08-14T21:43:07.459Z</time>
      </trkpt>
      <trkpt lat="40.96388" lon="43.88216">
        <ele>2092.751999</ele>
        <time>2021-08-14T21:43:30.376Z</time>
      </trkpt>
      <trkpt lat="40.96418" lon="43.88256">
        <ele>2093.706379</ele>
        <time>2021-08-14T21:43:47.609Z</time>
      </trkpt>
      <trkpt lat="40.96451" lon="43.88343">
        <ele>2094.751024</ele>
        <time>2021-08-14T21:44:15.342Z</time>
      </trkpt>
      <trkpt lat="40.9647" lon="43.88381">
        <ele>2094.912269</ele>
        <time>2021-08-14T21:44:27.330Z</time>
      </trkpt>
      <trkpt lat="40.96507" lon="43.88418">
        <ele>2095.130455</ele>
        <time>2021-08-14T21:44:42.858Z</time>
      </trkpt>
      <trkpt lat="40.97096" lon="43.88831">
        <ele>2093.720187</ele>
        <time>2021-08-14T21:48:06.964Z</time>
      </trkpt>
      <trkpt lat="40.97147" lon="43.88873">
        <ele>2092.587333</ele>
        <time>2021-08-14T21:48:21.627Z</time>
      </trkpt>
      <trkpt lat="40.97173" lon="43.88914">
        <ele>2091.813639</ele>
        <time>2021-08-14T21:48:31.027Z</time>
      </trkpt>
      <trkpt lat="40.97202" lon="43.88988">
        <ele>2088.865648</ele>
        <time>2021-08-14T21:48:44.827Z</time>
      </trkpt>
      <trkpt lat="40.97226" lon="43.89066">
        <ele>2085.247302</ele>
        <time>2021-08-14T21:48:58.113Z</time>
      </trkpt>
      <trkpt lat="40.97253" lon="43.89205">
        <ele>2078.374727</ele>
        <time>2021-08-14T21:49:19.757Z</time>
      </trkpt>
      <trkpt lat="40.97268" lon="43.89233">
        <ele>2076.387174</ele>
        <time>2021-08-14T21:49:24.879Z</time>
      </trkpt>
      <trkpt lat="40.97309" lon="43.89271">
        <ele>2072.50778</ele>
        <time>2021-08-14T21:49:34.839Z</time>
      </trkpt>
      <trkpt lat="40.9735" lon="43.89299">
        <ele>2068.988902</ele>
        <time>2021-08-14T21:49:43.877Z</time>
      </trkpt>
      <trkpt lat="40.97369" lon="43.89323">
        <ele>2067.04722</ele>
        <time>2021-08-14T21:49:49.043Z</time>
      </trkpt>
      <trkpt lat="40.97378" lon="43.89347">
        <ele>2065.696917</ele>
        <time>2021-08-14T21:49:53.010Z</time>
      </trkpt>
      <trkpt lat="40.97382" lon="43.89385">
        <ele>2063.762179</ele>
        <time>2021-08-14T21:49:58.704Z</time>
      </trkpt>
      <trkpt lat="40.97382" lon="43.89552">
        <ele>2055.328691</ele>
        <time>2021-08-14T21:50:24.312Z</time>
      </trkpt>
      <trkpt lat="40.97373" lon="43.89628">
        <ele>2052.681728</ele>
        <time>2021-08-14T21:50:36.829Z</time>
      </trkpt>
      <trkpt lat="40.97355" lon="43.89725">
        <ele>2049.28221</ele>
        <time>2021-08-14T21:50:53.375Z</time>
      </trkpt>
      <trkpt lat="40.97352" lon="43.89773">
        <ele>2047.621263</ele>
        <time>2021-08-14T21:51:01.482Z</time>
      </trkpt>
      <trkpt lat="40.97357" lon="43.89811">
        <ele>2046.414812</ele>
        <time>2021-08-14T21:51:07.848Z</time>
      </trkpt>
      <trkpt lat="40.97382" lon="43.89845">
        <ele>2044.973096</ele>
        <time>2021-08-14T21:51:15.596Z</time>
      </trkpt>
      <trkpt lat="40.97407" lon="43.89866">
        <ele>2043.77844</ele>
        <time>2021-08-14T21:51:22.039Z</time>
      </trkpt>
      <trkpt lat="40.97424" lon="43.89871">
        <ele>2043.08523</ele>
        <time>2021-08-14T21:51:25.807Z</time>
      </trkpt>
      <trkpt lat="40.97452" lon="43.89871">
        <ele>2041.966412</ele>
        <time>2021-08-14T21:51:31.923Z</time>
      </trkpt>
      <trkpt lat="40.97461" lon="43.89867">
        <ele>2041.568062</ele>
        <time>2021-08-14T21:51:34.081Z</time>
      </trkpt>
      <trkpt lat="40.97481" lon="43.89857">
        <ele>2040.70009</ele>
        <time>2021-08-14T21:51:38.844Z</time>
      </trkpt>
      <trkpt lat="40.97518" lon="43.89832">
        <ele>2039.333361</ele>
        <time>2021-08-14T21:51:47.815Z</time>
      </trkpt>
      <trkpt lat="40.97653" lon="43.89729">
        <ele>2034.869726</ele>
        <time>2021-08-14T21:52:24.200Z</time>
      </trkpt>
      <trkpt lat="40.97718" lon="43.89661">
        <ele>2033.058063</ele>
        <time>2021-08-14T21:52:45.490Z</time>
      </trkpt>
      <trkpt lat="40.97828" lon="43.89561">
        <ele>2030.099073</ele>
        <time>2021-08-14T21:53:17.326Z</time>
      </trkpt>
      <trkpt lat="40.97952" lon="43.89506">
        <ele>2027.040041</ele>
        <time>2021-08-14T21:53:48.003Z</time>
      </trkpt>
      <trkpt lat="40.99122" lon="43.89024">
        <ele>2014.18208</ele>
        <time>2021-08-14T21:59:17.850Z</time>
      </trkpt>
      <trkpt lat="40.99206" lon="43.88987">
        <ele>2013.567225</ele>
        <time>2021-08-14T21:59:42.983Z</time>
      </trkpt>
      <trkpt lat="40.99291" lon="43.88952">
        <ele>2013.137856</ele>
        <time>2021-08-14T22:00:08.674Z</time>
      </trkpt>
      <trkpt lat="40.99347" lon="43.8893">
        <ele>2012.882165</ele>
        <time>2021-08-14T22:00:25.505Z</time>
      </trkpt>
      <trkpt lat="40.99395" lon="43.88909">
        <ele>2012.766446</ele>
        <time>2021-08-14T22:00:40.135Z</time>
      </trkpt>
      <trkpt lat="41.00039" lon="43.88651">
        <ele>2011.047661</ele>
        <time>2021-08-14T22:04:02.317Z</time>
      </trkpt>
      <trkpt lat="41.01075" lon="43.88223">
        <ele>2000.282542</ele>
        <time>2021-08-14T22:08:53.660Z</time>
      </trkpt>
      <trkpt lat="41.01185" lon="43.88187">
        <ele>2000.461131</ele>
        <time>2021-08-14T22:09:29.067Z</time>
      </trkpt>
      <trkpt lat="41.01215" lon="43.88184">
        <ele>2000.509446</ele>
        <time>2021-08-14T22:09:40.010Z</time>
      </trkpt>
      <trkpt lat="41.01244" lon="43.88187">
        <ele>2000.843608</ele>
        <time>2021-08-14T22:09:51.083Z</time>
      </trkpt>
      <trkpt lat="41.01298" lon="43.88219">
        <ele>2002.247172</ele>
        <time>2021-08-14T22:10:14.972Z</time>
      </trkpt>
      <trkpt lat="41.01316" lon="43.88233">
        <ele>2002.74383</ele>
        <time>2021-08-14T22:10:23.809Z</time>
      </trkpt>
      <trkpt lat="41.01421" lon="43.88344">
        <ele>2007.007633</ele>
        <time>2021-08-14T22:11:29.788Z</time>
      </trkpt>
      <trkpt lat="41.01473" lon="43.88376">
        <ele>2009.657516</ele>
        <time>2021-08-14T22:12:01.997Z</time>
      </trkpt>
      <trkpt lat="41.01541" lon="43.88398">
        <ele>2012.940762</ele>
        <time>2021-08-14T22:12:45.457Z</time>
      </trkpt>
      <trkpt lat="41.01582" lon="43.884">
        <ele>2015.41451</ele>
        <time>2021-08-14T22:13:12.682Z</time>
      </trkpt>
      <trkpt lat="41.0164" lon="43.88387">
        <ele>2019.037437</ele>
        <time>2021-08-14T22:13:53.034Z</time>
      </trkpt>
      <trkpt lat="41.01719" lon="43.88328">
        <ele>2024.435278</ele>
        <time>2021-08-14T22:14:53.922Z</time>
      </trkpt>
      <trkpt lat="41.01798" lon="43.8826">
        <ele>2027.496731</ele>
        <time>2021-08-14T22:15:46.484Z</time>
      </trkpt>
      <trkpt lat="41.01888" lon="43.88186">
        <ele>2029.859328</ele>
        <time>2021-08-14T22:16:29.154Z</time>
      </trkpt>
      <trkpt lat="41.02081" lon="43.88016">
        <ele>2026.411341</ele>
        <time>2021-08-14T22:17:27.860Z</time>
      </trkpt>
      <trkpt lat="41.02122" lon="43.87983">
        <ele>2025.2185</ele>
        <time>2021-08-14T22:17:38.867Z</time>
      </trkpt>
      <trkpt lat="41.02161" lon="43.8795">
        <ele>2024.036733</ele>
        <time>2021-08-14T22:17:49.583Z</time>
      </trkpt>
      <trkpt lat="41.02204" lon="43.87919">
        <ele>2022.296313</ele>
        <time>2021-08-14T22:18:00.456Z</time>
      </trkpt>
      <trkpt lat="41.02241" lon="43.87893">
        <ele>2020.671481</ele>
        <time>2021-08-14T22:18:09.900Z</time>
      </trkpt>
      <trkpt lat="41.02384" lon="43.87788">
        <ele>2014.25538</ele>
        <time>2021-08-14T22:18:45.621Z</time>
      </trkpt>
      <trkpt lat="41.02417" lon="43.87771">
        <ele>2012.802395</ele>
        <time>2021-08-14T22:18:53.314Z</time>
      </trkpt>
      <trkpt lat="41.0268" lon="43.87741">
        <ele>2001.882739</ele>
        <time>2021-08-14T22:19:50.679Z</time>
      </trkpt>
      <trkpt lat="41.02713" lon="43.87716">
        <ele>2000.769075</ele>
        <time>2021-08-14T22:19:59.146Z</time>
      </trkpt>
      <trkpt lat="41.0275" lon="43.87667">
        <ele>1999.272735</ele>
        <time>2021-08-14T22:20:10.931Z</time>
      </trkpt>
      <trkpt lat="41.02774" lon="43.87631">
        <ele>1998.212337</ele>
        <time>2021-08-14T22:20:19.606Z</time>
      </trkpt>
      <trkpt lat="41.02783" lon="43.87616">
        <ele>1997.804953</ele>
        <time>2021-08-14T22:20:22.983Z</time>
      </trkpt>
      <trkpt lat="41.02818" lon="43.87563">
        <ele>1996.791507</ele>
        <time>2021-08-14T22:20:36.506Z</time>
      </trkpt>
      <trkpt lat="41.02833" lon="43.87542">
        <ele>1996.726366</ele>
        <time>2021-08-14T22:20:42.248Z</time>
      </trkpt>
      <trkpt lat="41.02932" lon="43.87395">
        <ele>1996.364495</ele>
        <time>2021-08-14T22:21:29.632Z</time>
      </trkpt>
      <trkpt lat="41.02976" lon="43.87327">
        <ele>1996.67739</ele>
        <time>2021-08-14T22:21:53.692Z</time>
      </trkpt>
      <trkpt lat="41.03005" lon="43.87284">
        <ele>1996.876887</ele>
        <time>2021-08-14T22:22:08.720Z</time>
      </trkpt>
      <trkpt lat="41.03132" lon="43.87092">
        <ele>1997.437626</ele>
        <time>2021-08-14T22:23:11.351Z</time>
      </trkpt>
      <trkpt lat="41.03172" lon="43.87032">
        <ele>1997.527193</ele>
        <time>2021-08-14T22:23:30.469Z</time>
      </trkpt>
      <trkpt lat="41.03208" lon="43.86974">
        <ele>1997.497978</ele>
        <time>2021-08-14T22:23:48.730Z</time>
      </trkpt>
      <trkpt lat="41.03317" lon="43.86828">
        <ele>1997.021888</ele>
        <time>2021-08-14T22:24:35.700Z</time>
      </trkpt>
      <trkpt lat="41.03517" lon="43.86598">
        <ele>1994.759628</ele>
        <time>2021-08-14T22:25:45.889Z</time>
      </trkpt>
      <trkpt lat="41.03579" lon="43.86518">
        <ele>1994.772161</ele>
        <time>2021-08-14T22:26:11.732Z</time>
      </trkpt>
      <trkpt lat="41.03663" lon="43.86272">
        <ele>1997.602292</ele>
        <time>2021-08-14T22:27:32.818Z</time>
      </trkpt>
      <trkpt lat="41.03691" lon="43.86226">
        <ele>1998.54873</ele>
        <time>2021-08-14T22:27:53.148Z</time>
      </trkpt>
      <trkpt lat="41.03708" lon="43.862">
        <ele>1999.097493</ele>
        <time>2021-08-14T22:28:05.081Z</time>
      </trkpt>
      <trkpt lat="41.03777" lon="43.86136">
        <ele>2000.701741</ele>
        <time>2021-08-14T22:28:42.650Z</time>
      </trkpt>
      <trkpt lat="41.03993" lon="43.86018">
        <ele>2004.319103</ele>
        <time>2021-08-14T22:30:12.900Z</time>
      </trkpt>
      <trkpt lat="41.04099" lon="43.85952">
        <ele>2006.490992</ele>
        <time>2021-08-14T22:30:57.906Z</time>
      </trkpt>
      <trkpt lat="41.0412" lon="43.85928">
        <ele>2007.402007</ele>
        <time>2021-08-14T22:31:10.341Z</time>
      </trkpt>
      <trkpt lat="41.04152" lon="43.85849">
        <ele>2009.619834</ele>
        <time>2021-08-14T22:31:43.221Z</time>
      </trkpt>
      <trkpt lat="41.04167" lon="43.85814">
        <ele>2010.623552</ele>
        <time>2021-08-14T22:31:59.989Z</time>
      </trkpt>
      <trkpt lat="41.04276" lon="43.85703">
        <ele>2016.594082</ele>
        <time>2021-08-14T22:33:26.457Z</time>
      </trkpt>
      <trkpt lat="41.04349" lon="43.85641">
        <ele>2019.739018</ele>
        <time>2021-08-14T22:34:10.913Z</time>
      </trkpt>
      <trkpt lat="41.044" lon="43.85602">
        <ele>2019.656143</ele>
        <time>2021-08-14T22:34:33.874Z</time>
      </trkpt>
      <trkpt lat="41.0458" lon="43.85467">
        <ele>2018.268793</ele>
        <time>2021-08-14T22:35:24.663Z</time>
      </trkpt>
      <trkpt lat="41.04635" lon="43.85389">
        <ele>2017.450764</ele>
        <time>2021-08-14T22:35:46.729Z</time>
      </trkpt>
      <trkpt lat="41.04747" lon="43.85208">
        <ele>2021.001398</ele>
        <time>2021-08-14T22:37:03.074Z</time>
      </trkpt>
      <trkpt lat="41.04778" lon="43.85171">
        <ele>2022.855263</ele>
        <time>2021-08-14T22:37:26.524Z</time>
      </trkpt>
      <trkpt lat="41.04811" lon="43.85155">
        <ele>2024.391867</ele>
        <time>2021-08-14T22:37:46.308Z</time>
      </trkpt>
      <trkpt lat="41.04914" lon="43.85163">
        <ele>2028.898507</ele>
        <time>2021-08-14T22:38:46.529Z</time>
      </trkpt>
      <trkpt lat="41.05146" lon="43.85214">
        <ele>2038.19335</ele>
        <time>2021-08-14T22:40:59.072Z</time>
      </trkpt>
      <trkpt lat="41.05219" lon="43.85192">
        <ele>2039.825334</ele>
        <time>2021-08-14T22:41:30.355Z</time>
      </trkpt>
      <trkpt lat="41.05279" lon="43.85162">
        <ele>2040.669363</ele>
        <time>2021-08-14T22:41:51.516Z</time>
      </trkpt>
      <trkpt lat="41.05328" lon="43.85136">
        <ele>2039.971904</ele>
        <time>2021-08-14T22:42:06.138Z</time>
      </trkpt>
      <trkpt lat="41.05593" lon="43.84905">
        <ele>2034.476718</ele>
        <time>2021-08-14T22:43:24.091Z</time>
      </trkpt>
      <trkpt lat="41.05646" lon="43.84849">
        <ele>2033.054734</ele>
        <time>2021-08-14T22:43:41.066Z</time>
      </trkpt>
      <trkpt lat="41.06457" lon="43.84071">
        <ele>2011.348821</ele>
        <time>2021-08-14T22:47:43.163Z</time>
      </trkpt>
      <trkpt lat="41.0681" lon="43.8375">
        <ele>2011.645076</ele>
        <time>2021-08-14T22:49:57.539Z</time>
      </trkpt>
      <trkpt lat="41.06979" lon="43.83582">
        <ele>2014.866663</ele>
        <time>2021-08-14T22:51:23.532Z</time>
      </trkpt>
      <trkpt lat="41.07148" lon="43.83434">
        <ele>2019.552093</ele>
        <time>2021-08-14T22:52:55.525Z</time>
      </trkpt>
      <trkpt lat="41.07157" lon="43.83426">
        <ele>2019.816594</ele>
        <time>2021-08-14T22:53:00.601Z</time>
      </trkpt>
      <trkpt lat="41.07289" lon="43.83303">
        <ele>2022.895711</ele>
        <time>2021-08-14T22:54:09.373Z</time>
      </trkpt>
      <trkpt lat="41.07397" lon="43.83204">
        <ele>2024.784052</ele>
        <time>2021-08-14T22:54:58.356Z</time>
      </trkpt>
      <trkpt lat="41.07404" lon="43.83195">
        <ele>2024.901806</ele>
        <time>2021-08-14T22:55:01.907Z</time>
      </trkpt>
      <trkpt lat="41.07438" lon="43.83151">
        <ele>2025.481513</ele>
        <time>2021-08-14T22:55:19.345Z</time>
      </trkpt>
      <trkpt lat="41.0748" lon="43.83085">
        <ele>2026.454682</ele>
        <time>2021-08-14T22:55:44.411Z</time>
      </trkpt>
      <trkpt lat="41.07671" lon="43.82837">
        <ele>2032.018634</ele>
        <time>2021-08-14T22:57:39.885Z</time>
      </trkpt>
      <trkpt lat="41.0785" lon="43.826">
        <ele>2037.965977</ele>
        <time>2021-08-14T22:59:32.615Z</time>
      </trkpt>
      <trkpt lat="41.07909" lon="43.82522">
        <ele>2039.854202</ele>
        <time>2021-08-14T23:00:09.308Z</time>
      </trkpt>
      <trkpt lat="41.08264" lon="43.821">
        <ele>2050.344559</ele>
        <time>2021-08-14T23:03:37.634Z</time>
      </trkpt>
      <trkpt lat="41.08342" lon="43.82008">
        <ele>2051.87006</ele>
        <time>2021-08-14T23:04:20.281Z</time>
      </trkpt>
      <trkpt lat="41.08511" lon="43.81841">
        <ele>2052.900353</ele>
        <time>2021-08-14T23:05:31.912Z</time>
      </trkpt>
      <trkpt lat="41.0856" lon="43.818">
        <ele>2052.176256</ele>
        <time>2021-08-14T23:05:47.163Z</time>
      </trkpt>
      <trkpt lat="41.08597" lon="43.81778">
        <ele>2051.369739</ele>
        <time>2021-08-14T23:05:57.189Z</time>
      </trkpt>
      <trkpt lat="41.08775" lon="43.81689">
        <ele>2047.860648</ele>
        <time>2021-08-14T23:06:42.269Z</time>
      </trkpt>
      <trkpt lat="41.08814" lon="43.81671">
        <ele>2047.182137</ele>
        <time>2021-08-14T23:06:52.756Z</time>
      </trkpt>
      <trkpt lat="41.08915" lon="43.81615">
        <ele>2046.925844</ele>
        <time>2021-08-14T23:07:25.085Z</time>
      </trkpt>
      <trkpt lat="41.09022" lon="43.81567">
        <ele>2047.994851</ele>
        <time>2021-08-14T23:08:09.752Z</time>
      </trkpt>
      <trkpt lat="41.09149" lon="43.81539">
        <ele>2050.667462</ele>
        <time>2021-08-14T23:09:05.164Z</time>
      </trkpt>
      <trkpt lat="41.0944" lon="43.81486">
        <ele>2057.390181</ele>
        <time>2021-08-14T23:11:16.214Z</time>
      </trkpt>
      <trkpt lat="41.09714" lon="43.81416">
        <ele>2062.887288</ele>
        <time>2021-08-14T23:13:12.702Z</time>
      </trkpt>
      <trkpt lat="41.09807" lon="43.81378">
        <ele>2064.729874</ele>
        <time>2021-08-14T23:13:52.865Z</time>
      </trkpt>
      <trkpt lat="41.10087" lon="43.81235">
        <ele>2070.625919</ele>
        <time>2021-08-14T23:15:58.605Z</time>
      </trkpt>
      <trkpt lat="41.10611" lon="43.81048">
        <ele>2083.379155</ele>
        <time>2021-08-14T23:20:00.162Z</time>
      </trkpt>
      <trkpt lat="41.10763" lon="43.8101">
        <ele>2086.925118</ele>
        <time>2021-08-14T23:21:08.421Z</time>
      </trkpt>
      <trkpt lat="41.11107" lon="43.80946">
        <ele>2094.220232</ele>
        <time>2021-08-14T23:23:35.711Z</time>
      </trkpt>
      <trkpt lat="41.11256" lon="43.80911">
        <ele>2097.886756</ele>
        <time>2021-08-14T23:24:43.741Z</time>
      </trkpt>
      <trkpt lat="41.11341" lon="43.80895">
        <ele>2100.108395</ele>
        <time>2021-08-14T23:25:22.981Z</time>
      </trkpt>
      <trkpt lat="41.11404" lon="43.80882">
        <ele>2101.902253</ele>
        <time>2021-08-14T23:25:52.739Z</time>
      </trkpt>
      <trkpt lat="41.11481" lon="43.80858">
        <ele>2104.155658</ele>
        <time>2021-08-14T23:26:30.999Z</time>
      </trkpt>
      <trkpt lat="41.11518" lon="43.80848">
        <ele>2105.189283</ele>
        <time>2021-08-14T23:26:48.453Z</time>
      </trkpt>
      <trkpt lat="41.11535" lon="43.80843">
        <ele>2105.663719</ele>
        <time>2021-08-14T23:26:56.369Z</time>
      </trkpt>
      <trkpt lat="41.11617" lon="43.80823">
        <ele>2107.973124</ele>
        <time>2021-08-14T23:27:35.175Z</time>
      </trkpt>
      <trkpt lat="41.11685" lon="43.80809">
        <ele>2109.755086</ele>
        <time>2021-08-14T23:28:07.361Z</time>
      </trkpt>
      <trkpt lat="41.11747" lon="43.80806">
        <ele>2111.166789</ele>
        <time>2021-08-14T23:28:35.600Z</time>
      </trkpt>
      <trkpt lat="41.11904" lon="43.80811">
        <ele>2114.209476</ele>
        <time>2021-08-14T23:29:41.013Z</time>
      </trkpt>
      <trkpt lat="41.11953" lon="43.80818">
        <ele>2114.936311</ele>
        <time>2021-08-14T23:30:00.049Z</time>
      </trkpt>
      <trkpt lat="41.12004" lon="43.80824">
        <ele>2115.695472</ele>
        <time>2021-08-14T23:30:19.305Z</time>
      </trkpt>
      <trkpt lat="41.12104" lon="43.80833">
        <ele>2116.908247</ele>
        <time>2021-08-14T23:30:56.450Z</time>
      </trkpt>
      <trkpt lat="41.12242" lon="43.80872">
        <ele>2118.503268</ele>
        <time>2021-08-14T23:31:50.678Z</time>
      </trkpt>
      <trkpt lat="41.12372" lon="43.80894">
        <ele>2119.919385</ele>
        <time>2021-08-14T23:32:39.353Z</time>
      </trkpt>
      <trkpt lat="41.12479" lon="43.80907">
        <ele>2120.461807</ele>
        <time>2021-08-14T23:33:14.987Z</time>
      </trkpt>
      <trkpt lat="41.12531" lon="43.8088">
        <ele>2120.738443</ele>
        <time>2021-08-14T23:33:33.418Z</time>
      </trkpt>
      <trkpt lat="41.12553" lon="43.80872">
        <ele>2120.861558</ele>
        <time>2021-08-14T23:33:41.262Z</time>
      </trkpt>
      <trkpt lat="41.12584" lon="43.80856">
        <ele>2121.095266</ele>
        <time>2021-08-14T23:33:52.780Z</time>
      </trkpt>
      <trkpt lat="41.12628" lon="43.80841">
        <ele>2121.407764</ele>
        <time>2021-08-14T23:34:08.298Z</time>
      </trkpt>
      <trkpt lat="41.12642" lon="43.80836">
        <ele>2121.512206</ele>
        <time>2021-08-14T23:34:13.656Z</time>
      </trkpt>
      <trkpt lat="41.12654" lon="43.80825">
        <ele>2121.612274</ele>
        <time>2021-08-14T23:34:18.841Z</time>
      </trkpt>
      <trkpt lat="41.12688" lon="43.80794">
        <ele>2121.899549</ele>
        <time>2021-08-14T23:34:33.630Z</time>
      </trkpt>
      <trkpt lat="41.1275" lon="43.80756">
        <ele>2122.404339</ele>
        <time>2021-08-14T23:34:58.887Z</time>
      </trkpt>
      <trkpt lat="41.12916" lon="43.80646">
        <ele>2123.754285</ele>
        <time>2021-08-14T23:36:03.626Z</time>
      </trkpt>
      <trkpt lat="41.13175" lon="43.80384">
        <ele>2125.262798</ele>
        <time>2021-08-14T23:37:55.749Z</time>
      </trkpt>
      <trkpt lat="41.13371" lon="43.80206">
        <ele>2124.275258</ele>
        <time>2021-08-14T23:38:59.740Z</time>
      </trkpt>
      <trkpt lat="41.13526" lon="43.80015">
        <ele>2127.198806</ele>
        <time>2021-08-14T23:40:20.500Z</time>
      </trkpt>
      <trkpt lat="41.13563" lon="43.79958">
        <ele>2128.608885</ele>
        <time>2021-08-14T23:40:50.280Z</time>
      </trkpt>
      <trkpt lat="41.13583" lon="43.79927">
        <ele>2129.571045</ele>
        <time>2021-08-14T23:41:07.612Z</time>
      </trkpt>
      <trkpt lat="41.13734" lon="43.797">
        <ele>2139.092861</ele>
        <time>2021-08-14T23:43:16.194Z</time>
      </trkpt>
      <trkpt lat="41.13845" lon="43.79468">
        <ele>2143.334981</ele>
        <time>2021-08-14T23:44:55.472Z</time>
      </trkpt>
      <trkpt lat="41.1389" lon="43.79399">
        <ele>2143.334981</ele>
        <time>2021-08-14T23:45:24.640Z</time>
      </trkpt>
      <trkpt lat="41.1389" lon="43.79399">
        <ele>2143.334981</ele>
        <time>2021-08-14T23:45:24.745Z</time>
      </trkpt>
    </trkseg>
  </trk>
</gpx>